<?xml version="1.0" encoding="UTF-8" standalone="no" ?>
<gpx xmlns="http://www.topografix.com/GPX/1/1" xmlns:xsi="http://www.w3.org/2001/XMLSchema-instance" xsi:schemaLocation="http://www.topografix.com/GPX/1/1 http://www.topografix.com/GPX/1/1/gpx.xsd" version="1.1" creator="VisuGPX - https://www.visugpx.com">
  <metadata>
    <name>Honfleur J1</name>
    <desc><![CDATA[circuit visite de la ville
sous la pluie]]></desc>
  </metadata>
  <trk>
    <name><![CDATA[Honfleur J1_1]]></name>
    <trkseg>
      <trkpt lat="49.42568" lon="0.23051">
        <ele>5.9</ele>
        <time>2022-05-31T08:28:29Z</time>
      </trkpt>
      <trkpt lat="49.42568" lon="0.23051">
        <ele>5.9</ele>
        <time>2022-05-31T08:28:30Z</time>
      </trkpt>
      <trkpt lat="49.42568" lon="0.23051">
        <ele>5.9</ele>
        <time>2022-05-31T08:28:31Z</time>
      </trkpt>
      <trkpt lat="49.42568" lon="0.23051">
        <ele>5.9</ele>
        <time>2022-05-31T08:28:32Z</time>
      </trkpt>
      <trkpt lat="49.42568" lon="0.23051">
        <ele>5.9</ele>
        <time>2022-05-31T08:28:33Z</time>
      </trkpt>
      <trkpt lat="49.42568" lon="0.2305">
        <ele>5.9</ele>
        <time>2022-05-31T08:28:34Z</time>
      </trkpt>
      <trkpt lat="49.42568" lon="0.2305">
        <ele>5.9</ele>
        <time>2022-05-31T08:28:35Z</time>
      </trkpt>
      <trkpt lat="49.42568" lon="0.23049">
        <ele>5.9</ele>
        <time>2022-05-31T08:28:36Z</time>
      </trkpt>
      <trkpt lat="49.42568" lon="0.23049">
        <ele>5.9</ele>
        <time>2022-05-31T08:28:37Z</time>
      </trkpt>
      <trkpt lat="49.42568" lon="0.23048">
        <ele>5.9</ele>
        <time>2022-05-31T08:28:38Z</time>
      </trkpt>
      <trkpt lat="49.42567" lon="0.23046">
        <ele>5.9</ele>
        <time>2022-05-31T08:28:39Z</time>
      </trkpt>
      <trkpt lat="49.42566" lon="0.23044">
        <ele>5.9</ele>
        <time>2022-05-31T08:28:40Z</time>
      </trkpt>
      <trkpt lat="49.42566" lon="0.23042">
        <ele>5.9</ele>
        <time>2022-05-31T08:28:41Z</time>
      </trkpt>
      <trkpt lat="49.42565" lon="0.2304">
        <ele>5.9</ele>
        <time>2022-05-31T08:28:43Z</time>
      </trkpt>
      <trkpt lat="49.42564" lon="0.23038">
        <ele>5.9</ele>
        <time>2022-05-31T08:28:44Z</time>
      </trkpt>
      <trkpt lat="49.42564" lon="0.23037">
        <ele>5.9</ele>
        <time>2022-05-31T08:28:45Z</time>
      </trkpt>
      <trkpt lat="49.42563" lon="0.23035">
        <ele>5.9</ele>
        <time>2022-05-31T08:28:46Z</time>
      </trkpt>
      <trkpt lat="49.42562" lon="0.23034">
        <ele>5.9</ele>
        <time>2022-05-31T08:28:47Z</time>
      </trkpt>
      <trkpt lat="49.42562" lon="0.23033">
        <ele>6</ele>
        <time>2022-05-31T08:28:48Z</time>
      </trkpt>
      <trkpt lat="49.4256" lon="0.23033">
        <ele>6</ele>
        <time>2022-05-31T08:28:49Z</time>
      </trkpt>
      <trkpt lat="49.4256" lon="0.23033">
        <ele>6</ele>
        <time>2022-05-31T08:28:50Z</time>
      </trkpt>
      <trkpt lat="49.42559" lon="0.2303">
        <ele>6</ele>
        <time>2022-05-31T08:28:51Z</time>
      </trkpt>
      <trkpt lat="49.42558" lon="0.23029">
        <ele>6</ele>
        <time>2022-05-31T08:28:52Z</time>
      </trkpt>
      <trkpt lat="49.42558" lon="0.23028">
        <ele>6</ele>
        <time>2022-05-31T08:28:53Z</time>
      </trkpt>
      <trkpt lat="49.42558" lon="0.23028">
        <ele>6</ele>
        <time>2022-05-31T08:28:55Z</time>
      </trkpt>
      <trkpt lat="49.42558" lon="0.23031">
        <ele>6</ele>
        <time>2022-05-31T08:28:56Z</time>
      </trkpt>
      <trkpt lat="49.42558" lon="0.23032">
        <ele>6</ele>
        <time>2022-05-31T08:28:57Z</time>
      </trkpt>
      <trkpt lat="49.42557" lon="0.23032">
        <ele>6</ele>
        <time>2022-05-31T08:28:58Z</time>
      </trkpt>
      <trkpt lat="49.42556" lon="0.23032">
        <ele>6</ele>
        <time>2022-05-31T08:28:59Z</time>
      </trkpt>
      <trkpt lat="49.42556" lon="0.23031">
        <ele>6</ele>
        <time>2022-05-31T08:29:00Z</time>
      </trkpt>
      <trkpt lat="49.42556" lon="0.23031">
        <ele>6</ele>
        <time>2022-05-31T08:29:01Z</time>
      </trkpt>
      <trkpt lat="49.42556" lon="0.23031">
        <ele>6</ele>
        <time>2022-05-31T08:29:02Z</time>
      </trkpt>
      <trkpt lat="49.42557" lon="0.23029">
        <ele>6</ele>
        <time>2022-05-31T08:29:03Z</time>
      </trkpt>
      <trkpt lat="49.42557" lon="0.23027">
        <ele>6</ele>
        <time>2022-05-31T08:29:04Z</time>
      </trkpt>
      <trkpt lat="49.42556" lon="0.23026">
        <ele>6</ele>
        <time>2022-05-31T08:29:05Z</time>
      </trkpt>
      <trkpt lat="49.42556" lon="0.23023">
        <ele>6</ele>
        <time>2022-05-31T08:29:07Z</time>
      </trkpt>
      <trkpt lat="49.42556" lon="0.2302">
        <ele>6.1</ele>
        <time>2022-05-31T08:29:08Z</time>
      </trkpt>
      <trkpt lat="49.42556" lon="0.23017">
        <ele>6.1</ele>
        <time>2022-05-31T08:29:09Z</time>
      </trkpt>
      <trkpt lat="49.42555" lon="0.23013">
        <ele>6.1</ele>
        <time>2022-05-31T08:29:10Z</time>
      </trkpt>
      <trkpt lat="49.42554" lon="0.23011">
        <ele>6.1</ele>
        <time>2022-05-31T08:29:11Z</time>
      </trkpt>
      <trkpt lat="49.42553" lon="0.23007">
        <ele>6.2</ele>
        <time>2022-05-31T08:29:12Z</time>
      </trkpt>
      <trkpt lat="49.42552" lon="0.23005">
        <ele>6.2</ele>
        <time>2022-05-31T08:29:13Z</time>
      </trkpt>
      <trkpt lat="49.42551" lon="0.23003">
        <ele>6.2</ele>
        <time>2022-05-31T08:29:14Z</time>
      </trkpt>
      <trkpt lat="49.4255" lon="0.23001">
        <ele>6.2</ele>
        <time>2022-05-31T08:29:15Z</time>
      </trkpt>
      <trkpt lat="49.42549" lon="0.22999">
        <ele>6.2</ele>
        <time>2022-05-31T08:29:16Z</time>
      </trkpt>
      <trkpt lat="49.42549" lon="0.22997">
        <ele>6.2</ele>
        <time>2022-05-31T08:29:17Z</time>
      </trkpt>
      <trkpt lat="49.42548" lon="0.22995">
        <ele>6.2</ele>
        <time>2022-05-31T08:29:18Z</time>
      </trkpt>
      <trkpt lat="49.42547" lon="0.22993">
        <ele>6.3</ele>
        <time>2022-05-31T08:29:19Z</time>
      </trkpt>
      <trkpt lat="49.42546" lon="0.22991">
        <ele>6.3</ele>
        <time>2022-05-31T08:29:20Z</time>
      </trkpt>
      <trkpt lat="49.42545" lon="0.22989">
        <ele>6.3</ele>
        <time>2022-05-31T08:29:21Z</time>
      </trkpt>
      <trkpt lat="49.42544" lon="0.22987">
        <ele>6.3</ele>
        <time>2022-05-31T08:29:23Z</time>
      </trkpt>
      <trkpt lat="49.42543" lon="0.22985">
        <ele>6.3</ele>
        <time>2022-05-31T08:29:24Z</time>
      </trkpt>
      <trkpt lat="49.42543" lon="0.22981">
        <ele>6.4</ele>
        <time>2022-05-31T08:29:25Z</time>
      </trkpt>
      <trkpt lat="49.42543" lon="0.2298">
        <ele>6.4</ele>
        <time>2022-05-31T08:29:26Z</time>
      </trkpt>
      <trkpt lat="49.42543" lon="0.22978">
        <ele>6.4</ele>
        <time>2022-05-31T08:29:27Z</time>
      </trkpt>
      <trkpt lat="49.42543" lon="0.22976">
        <ele>6.4</ele>
        <time>2022-05-31T08:29:28Z</time>
      </trkpt>
      <trkpt lat="49.42543" lon="0.22973">
        <ele>6.4</ele>
        <time>2022-05-31T08:29:29Z</time>
      </trkpt>
      <trkpt lat="49.42543" lon="0.22971">
        <ele>6.4</ele>
        <time>2022-05-31T08:29:30Z</time>
      </trkpt>
      <trkpt lat="49.42543" lon="0.22968">
        <ele>6.5</ele>
        <time>2022-05-31T08:29:31Z</time>
      </trkpt>
      <trkpt lat="49.42543" lon="0.22965">
        <ele>6.5</ele>
        <time>2022-05-31T08:29:32Z</time>
      </trkpt>
      <trkpt lat="49.42543" lon="0.22963">
        <ele>6.5</ele>
        <time>2022-05-31T08:29:34Z</time>
      </trkpt>
      <trkpt lat="49.42543" lon="0.22962">
        <ele>6.5</ele>
        <time>2022-05-31T08:29:35Z</time>
      </trkpt>
      <trkpt lat="49.42543" lon="0.22961">
        <ele>6.5</ele>
        <time>2022-05-31T08:29:36Z</time>
      </trkpt>
      <trkpt lat="49.42543" lon="0.2296">
        <ele>6.5</ele>
        <time>2022-05-31T08:29:37Z</time>
      </trkpt>
      <trkpt lat="49.42543" lon="0.22958">
        <ele>6.5</ele>
        <time>2022-05-31T08:29:38Z</time>
      </trkpt>
      <trkpt lat="49.42543" lon="0.22957">
        <ele>6.6</ele>
        <time>2022-05-31T08:29:39Z</time>
      </trkpt>
      <trkpt lat="49.42543" lon="0.22954">
        <ele>6.6</ele>
        <time>2022-05-31T08:29:41Z</time>
      </trkpt>
      <trkpt lat="49.42543" lon="0.22952">
        <ele>6.6</ele>
        <time>2022-05-31T08:29:42Z</time>
      </trkpt>
      <trkpt lat="49.42543" lon="0.22951">
        <ele>6.6</ele>
        <time>2022-05-31T08:29:43Z</time>
      </trkpt>
      <trkpt lat="49.42543" lon="0.22948">
        <ele>6.6</ele>
        <time>2022-05-31T08:29:44Z</time>
      </trkpt>
      <trkpt lat="49.42543" lon="0.22946">
        <ele>6.6</ele>
        <time>2022-05-31T08:29:45Z</time>
      </trkpt>
      <trkpt lat="49.42544" lon="0.22941">
        <ele>6.6</ele>
        <time>2022-05-31T08:29:46Z</time>
      </trkpt>
      <trkpt lat="49.42544" lon="0.2294">
        <ele>6.7</ele>
        <time>2022-05-31T08:29:47Z</time>
      </trkpt>
      <trkpt lat="49.42545" lon="0.22937">
        <ele>6.7</ele>
        <time>2022-05-31T08:29:48Z</time>
      </trkpt>
      <trkpt lat="49.42546" lon="0.22934">
        <ele>6.7</ele>
        <time>2022-05-31T08:29:50Z</time>
      </trkpt>
      <trkpt lat="49.42548" lon="0.2293">
        <ele>6.7</ele>
        <time>2022-05-31T08:29:51Z</time>
      </trkpt>
      <trkpt lat="49.42549" lon="0.22928">
        <ele>6.8</ele>
        <time>2022-05-31T08:29:52Z</time>
      </trkpt>
      <trkpt lat="49.4255" lon="0.22926">
        <ele>6.8</ele>
        <time>2022-05-31T08:29:53Z</time>
      </trkpt>
      <trkpt lat="49.4255" lon="0.22924">
        <ele>6.8</ele>
        <time>2022-05-31T08:29:54Z</time>
      </trkpt>
      <trkpt lat="49.42549" lon="0.22922">
        <ele>6.8</ele>
        <time>2022-05-31T08:29:55Z</time>
      </trkpt>
      <trkpt lat="49.42548" lon="0.2292">
        <ele>6.7</ele>
        <time>2022-05-31T08:29:56Z</time>
      </trkpt>
      <trkpt lat="49.42547" lon="0.22919">
        <ele>6.7</ele>
        <time>2022-05-31T08:29:58Z</time>
      </trkpt>
      <trkpt lat="49.42546" lon="0.22919">
        <ele>6.7</ele>
        <time>2022-05-31T08:29:59Z</time>
      </trkpt>
      <trkpt lat="49.42545" lon="0.2292">
        <ele>6.7</ele>
        <time>2022-05-31T08:30:00Z</time>
      </trkpt>
      <trkpt lat="49.42544" lon="0.22922">
        <ele>6.7</ele>
        <time>2022-05-31T08:30:01Z</time>
      </trkpt>
      <trkpt lat="49.42546" lon="0.22924">
        <ele>6.7</ele>
        <time>2022-05-31T08:30:03Z</time>
      </trkpt>
      <trkpt lat="49.42546" lon="0.22924">
        <ele>6.7</ele>
        <time>2022-05-31T08:30:04Z</time>
      </trkpt>
      <trkpt lat="49.42547" lon="0.22923">
        <ele>6.7</ele>
        <time>2022-05-31T08:30:05Z</time>
      </trkpt>
      <trkpt lat="49.42548" lon="0.22922">
        <ele>6.7</ele>
        <time>2022-05-31T08:30:06Z</time>
      </trkpt>
      <trkpt lat="49.42549" lon="0.22921">
        <ele>6.7</ele>
        <time>2022-05-31T08:30:07Z</time>
      </trkpt>
      <trkpt lat="49.4255" lon="0.2292">
        <ele>6.7</ele>
        <time>2022-05-31T08:30:09Z</time>
      </trkpt>
      <trkpt lat="49.42551" lon="0.22919">
        <ele>6.7</ele>
        <time>2022-05-31T08:30:10Z</time>
      </trkpt>
      <trkpt lat="49.42552" lon="0.22916">
        <ele>6.7</ele>
        <time>2022-05-31T08:30:11Z</time>
      </trkpt>
      <trkpt lat="49.42553" lon="0.22915">
        <ele>6.7</ele>
        <time>2022-05-31T08:30:12Z</time>
      </trkpt>
      <trkpt lat="49.42554" lon="0.22913">
        <ele>6.7</ele>
        <time>2022-05-31T08:30:13Z</time>
      </trkpt>
      <trkpt lat="49.42554" lon="0.22912">
        <ele>6.6</ele>
        <time>2022-05-31T08:30:14Z</time>
      </trkpt>
      <trkpt lat="49.42555" lon="0.2291">
        <ele>6.6</ele>
        <time>2022-05-31T08:30:15Z</time>
      </trkpt>
      <trkpt lat="49.42555" lon="0.22908">
        <ele>6.6</ele>
        <time>2022-05-31T08:30:17Z</time>
      </trkpt>
      <trkpt lat="49.42554" lon="0.22905">
        <ele>6.6</ele>
        <time>2022-05-31T08:30:18Z</time>
      </trkpt>
      <trkpt lat="49.42553" lon="0.22903">
        <ele>6.6</ele>
        <time>2022-05-31T08:30:19Z</time>
      </trkpt>
      <trkpt lat="49.42552" lon="0.22902">
        <ele>6.6</ele>
        <time>2022-05-31T08:30:20Z</time>
      </trkpt>
      <trkpt lat="49.42551" lon="0.22901">
        <ele>6.6</ele>
        <time>2022-05-31T08:30:21Z</time>
      </trkpt>
      <trkpt lat="49.42551" lon="0.22899">
        <ele>6.6</ele>
        <time>2022-05-31T08:30:22Z</time>
      </trkpt>
      <trkpt lat="49.4255" lon="0.22898">
        <ele>6.6</ele>
        <time>2022-05-31T08:30:24Z</time>
      </trkpt>
      <trkpt lat="49.4255" lon="0.22896">
        <ele>6.6</ele>
        <time>2022-05-31T08:30:25Z</time>
      </trkpt>
      <trkpt lat="49.4255" lon="0.22894">
        <ele>6.6</ele>
        <time>2022-05-31T08:30:26Z</time>
      </trkpt>
      <trkpt lat="49.4255" lon="0.22892">
        <ele>6.6</ele>
        <time>2022-05-31T08:30:27Z</time>
      </trkpt>
      <trkpt lat="49.4255" lon="0.2289">
        <ele>6.6</ele>
        <time>2022-05-31T08:30:28Z</time>
      </trkpt>
      <trkpt lat="49.42551" lon="0.22888">
        <ele>6.6</ele>
        <time>2022-05-31T08:30:29Z</time>
      </trkpt>
      <trkpt lat="49.42551" lon="0.22886">
        <ele>6.6</ele>
        <time>2022-05-31T08:30:30Z</time>
      </trkpt>
      <trkpt lat="49.42551" lon="0.22883">
        <ele>6.6</ele>
        <time>2022-05-31T08:30:32Z</time>
      </trkpt>
      <trkpt lat="49.42551" lon="0.22881">
        <ele>6.6</ele>
        <time>2022-05-31T08:30:33Z</time>
      </trkpt>
      <trkpt lat="49.42551" lon="0.2288">
        <ele>6.6</ele>
        <time>2022-05-31T08:30:34Z</time>
      </trkpt>
      <trkpt lat="49.42552" lon="0.22878">
        <ele>6.6</ele>
        <time>2022-05-31T08:30:35Z</time>
      </trkpt>
      <trkpt lat="49.42553" lon="0.22877">
        <ele>6.6</ele>
        <time>2022-05-31T08:30:36Z</time>
      </trkpt>
      <trkpt lat="49.42554" lon="0.22875">
        <ele>6.6</ele>
        <time>2022-05-31T08:30:37Z</time>
      </trkpt>
      <trkpt lat="49.42556" lon="0.22874">
        <ele>6.6</ele>
        <time>2022-05-31T08:30:38Z</time>
      </trkpt>
      <trkpt lat="49.42558" lon="0.22873">
        <ele>6.6</ele>
        <time>2022-05-31T08:30:40Z</time>
      </trkpt>
      <trkpt lat="49.42558" lon="0.22872">
        <ele>6.6</ele>
        <time>2022-05-31T08:30:41Z</time>
      </trkpt>
      <trkpt lat="49.42559" lon="0.22872">
        <ele>6.6</ele>
        <time>2022-05-31T08:30:42Z</time>
      </trkpt>
      <trkpt lat="49.42561" lon="0.2287">
        <ele>6.6</ele>
        <time>2022-05-31T08:30:43Z</time>
      </trkpt>
      <trkpt lat="49.42562" lon="0.22869">
        <ele>6.6</ele>
        <time>2022-05-31T08:30:44Z</time>
      </trkpt>
      <trkpt lat="49.42562" lon="0.22869">
        <ele>6.6</ele>
        <time>2022-05-31T08:30:45Z</time>
      </trkpt>
      <trkpt lat="49.42564" lon="0.22867">
        <ele>6.6</ele>
        <time>2022-05-31T08:30:46Z</time>
      </trkpt>
      <trkpt lat="49.42565" lon="0.22866">
        <ele>6.6</ele>
        <time>2022-05-31T08:30:47Z</time>
      </trkpt>
      <trkpt lat="49.42565" lon="0.22865">
        <ele>6.6</ele>
        <time>2022-05-31T08:30:48Z</time>
      </trkpt>
      <trkpt lat="49.42566" lon="0.22864">
        <ele>6.6</ele>
        <time>2022-05-31T08:30:50Z</time>
      </trkpt>
      <trkpt lat="49.42567" lon="0.22863">
        <ele>6.6</ele>
        <time>2022-05-31T08:30:51Z</time>
      </trkpt>
      <trkpt lat="49.42567" lon="0.22861">
        <ele>6.6</ele>
        <time>2022-05-31T08:30:52Z</time>
      </trkpt>
      <trkpt lat="49.42568" lon="0.2286">
        <ele>6.6</ele>
        <time>2022-05-31T08:30:53Z</time>
      </trkpt>
      <trkpt lat="49.42568" lon="0.22859">
        <ele>6.6</ele>
        <time>2022-05-31T08:30:54Z</time>
      </trkpt>
      <trkpt lat="49.42569" lon="0.22857">
        <ele>6.6</ele>
        <time>2022-05-31T08:30:56Z</time>
      </trkpt>
      <trkpt lat="49.4257" lon="0.22856">
        <ele>6.6</ele>
        <time>2022-05-31T08:30:57Z</time>
      </trkpt>
      <trkpt lat="49.4257" lon="0.22856">
        <ele>6.6</ele>
        <time>2022-05-31T08:30:58Z</time>
      </trkpt>
      <trkpt lat="49.42571" lon="0.22857">
        <ele>6.6</ele>
        <time>2022-05-31T08:30:59Z</time>
      </trkpt>
      <trkpt lat="49.4257" lon="0.22857">
        <ele>6.7</ele>
        <time>2022-05-31T08:31:00Z</time>
      </trkpt>
      <trkpt lat="49.4257" lon="0.22858">
        <ele>6.7</ele>
        <time>2022-05-31T08:31:01Z</time>
      </trkpt>
      <trkpt lat="49.4257" lon="0.22859">
        <ele>6.7</ele>
        <time>2022-05-31T08:31:02Z</time>
      </trkpt>
      <trkpt lat="49.4257" lon="0.22859">
        <ele>6.7</ele>
        <time>2022-05-31T08:31:03Z</time>
      </trkpt>
      <trkpt lat="49.42569" lon="0.22858">
        <ele>6.7</ele>
        <time>2022-05-31T08:31:05Z</time>
      </trkpt>
      <trkpt lat="49.42569" lon="0.22857">
        <ele>6.7</ele>
        <time>2022-05-31T08:31:06Z</time>
      </trkpt>
      <trkpt lat="49.42569" lon="0.22857">
        <ele>6.7</ele>
        <time>2022-05-31T08:31:07Z</time>
      </trkpt>
      <trkpt lat="49.42569" lon="0.22857">
        <ele>6.7</ele>
        <time>2022-05-31T08:31:08Z</time>
      </trkpt>
      <trkpt lat="49.4257" lon="0.22857">
        <ele>6.7</ele>
        <time>2022-05-31T08:31:09Z</time>
      </trkpt>
      <trkpt lat="49.4257" lon="0.22856">
        <ele>6.7</ele>
        <time>2022-05-31T08:31:10Z</time>
      </trkpt>
      <trkpt lat="49.42571" lon="0.22856">
        <ele>6.7</ele>
        <time>2022-05-31T08:31:11Z</time>
      </trkpt>
      <trkpt lat="49.42572" lon="0.22854">
        <ele>6.7</ele>
        <time>2022-05-31T08:31:13Z</time>
      </trkpt>
      <trkpt lat="49.42573" lon="0.22853">
        <ele>6.8</ele>
        <time>2022-05-31T08:31:14Z</time>
      </trkpt>
      <trkpt lat="49.42573" lon="0.22852">
        <ele>6.8</ele>
        <time>2022-05-31T08:31:15Z</time>
      </trkpt>
      <trkpt lat="49.42574" lon="0.22851">
        <ele>6.8</ele>
        <time>2022-05-31T08:31:16Z</time>
      </trkpt>
      <trkpt lat="49.42575" lon="0.22849">
        <ele>6.8</ele>
        <time>2022-05-31T08:31:18Z</time>
      </trkpt>
      <trkpt lat="49.42576" lon="0.22848">
        <ele>6.9</ele>
        <time>2022-05-31T08:31:19Z</time>
      </trkpt>
      <trkpt lat="49.42577" lon="0.22848">
        <ele>6.9</ele>
        <time>2022-05-31T08:31:20Z</time>
      </trkpt>
      <trkpt lat="49.42578" lon="0.22848">
        <ele>6.9</ele>
        <time>2022-05-31T08:31:21Z</time>
      </trkpt>
      <trkpt lat="49.42578" lon="0.22847">
        <ele>6.9</ele>
        <time>2022-05-31T08:31:22Z</time>
      </trkpt>
      <trkpt lat="49.42579" lon="0.22847">
        <ele>6.9</ele>
        <time>2022-05-31T08:31:23Z</time>
      </trkpt>
      <trkpt lat="49.42579" lon="0.22848">
        <ele>6.9</ele>
        <time>2022-05-31T08:31:24Z</time>
      </trkpt>
      <trkpt lat="49.4258" lon="0.22848">
        <ele>6.9</ele>
        <time>2022-05-31T08:31:25Z</time>
      </trkpt>
      <trkpt lat="49.42582" lon="0.22846">
        <ele>7</ele>
        <time>2022-05-31T08:31:26Z</time>
      </trkpt>
      <trkpt lat="49.42582" lon="0.22846">
        <ele>7</ele>
        <time>2022-05-31T08:31:28Z</time>
      </trkpt>
      <trkpt lat="49.42583" lon="0.22846">
        <ele>7</ele>
        <time>2022-05-31T08:31:29Z</time>
      </trkpt>
      <trkpt lat="49.42585" lon="0.22845">
        <ele>7</ele>
        <time>2022-05-31T08:31:30Z</time>
      </trkpt>
      <trkpt lat="49.42586" lon="0.22843">
        <ele>7</ele>
        <time>2022-05-31T08:31:31Z</time>
      </trkpt>
      <trkpt lat="49.42588" lon="0.22843">
        <ele>7</ele>
        <time>2022-05-31T08:31:32Z</time>
      </trkpt>
      <trkpt lat="49.42589" lon="0.22841">
        <ele>7.1</ele>
        <time>2022-05-31T08:31:33Z</time>
      </trkpt>
      <trkpt lat="49.42592" lon="0.2284">
        <ele>7.2</ele>
        <time>2022-05-31T08:31:34Z</time>
      </trkpt>
      <trkpt lat="49.42595" lon="0.22838">
        <ele>7.2</ele>
        <time>2022-05-31T08:31:35Z</time>
      </trkpt>
      <trkpt lat="49.42596" lon="0.22838">
        <ele>7.2</ele>
        <time>2022-05-31T08:31:36Z</time>
      </trkpt>
      <trkpt lat="49.42598" lon="0.22836">
        <ele>7.3</ele>
        <time>2022-05-31T08:31:38Z</time>
      </trkpt>
      <trkpt lat="49.42599" lon="0.22835">
        <ele>7.3</ele>
        <time>2022-05-31T08:31:39Z</time>
      </trkpt>
      <trkpt lat="49.42601" lon="0.22835">
        <ele>7.3</ele>
        <time>2022-05-31T08:31:40Z</time>
      </trkpt>
      <trkpt lat="49.42602" lon="0.22834">
        <ele>7.3</ele>
        <time>2022-05-31T08:31:41Z</time>
      </trkpt>
      <trkpt lat="49.42604" lon="0.22832">
        <ele>7.3</ele>
        <time>2022-05-31T08:31:42Z</time>
      </trkpt>
      <trkpt lat="49.42605" lon="0.22831">
        <ele>7.3</ele>
        <time>2022-05-31T08:31:44Z</time>
      </trkpt>
      <trkpt lat="49.42606" lon="0.22829">
        <ele>7.4</ele>
        <time>2022-05-31T08:31:46Z</time>
      </trkpt>
      <trkpt lat="49.42607" lon="0.22828">
        <ele>7.4</ele>
        <time>2022-05-31T08:31:47Z</time>
      </trkpt>
      <trkpt lat="49.42608" lon="0.22827">
        <ele>7.4</ele>
        <time>2022-05-31T08:31:48Z</time>
      </trkpt>
      <trkpt lat="49.42609" lon="0.22826">
        <ele>7.4</ele>
        <time>2022-05-31T08:31:50Z</time>
      </trkpt>
      <trkpt lat="49.4261" lon="0.22826">
        <ele>7.4</ele>
        <time>2022-05-31T08:31:51Z</time>
      </trkpt>
      <trkpt lat="49.42612" lon="0.22824">
        <ele>7.4</ele>
        <time>2022-05-31T08:31:52Z</time>
      </trkpt>
      <trkpt lat="49.42612" lon="0.22824">
        <ele>7.4</ele>
        <time>2022-05-31T08:31:53Z</time>
      </trkpt>
      <trkpt lat="49.42612" lon="0.22823">
        <ele>7.4</ele>
        <time>2022-05-31T08:31:54Z</time>
      </trkpt>
      <trkpt lat="49.42613" lon="0.22822">
        <ele>7.4</ele>
        <time>2022-05-31T08:31:55Z</time>
      </trkpt>
      <trkpt lat="49.42613" lon="0.22822">
        <ele>7.4</ele>
        <time>2022-05-31T08:31:56Z</time>
      </trkpt>
      <trkpt lat="49.42613" lon="0.22821">
        <ele>7.4</ele>
        <time>2022-05-31T08:31:57Z</time>
      </trkpt>
      <trkpt lat="49.42614" lon="0.2282">
        <ele>7.4</ele>
        <time>2022-05-31T08:31:58Z</time>
      </trkpt>
      <trkpt lat="49.42615" lon="0.22818">
        <ele>7.4</ele>
        <time>2022-05-31T08:32:00Z</time>
      </trkpt>
      <trkpt lat="49.42615" lon="0.22817">
        <ele>7.4</ele>
        <time>2022-05-31T08:32:01Z</time>
      </trkpt>
      <trkpt lat="49.42616" lon="0.22816">
        <ele>7.4</ele>
        <time>2022-05-31T08:32:02Z</time>
      </trkpt>
      <trkpt lat="49.42617" lon="0.22814">
        <ele>7.4</ele>
        <time>2022-05-31T08:32:03Z</time>
      </trkpt>
      <trkpt lat="49.42619" lon="0.22813">
        <ele>7.4</ele>
        <time>2022-05-31T08:32:04Z</time>
      </trkpt>
      <trkpt lat="49.4262" lon="0.22812">
        <ele>7.4</ele>
        <time>2022-05-31T08:32:05Z</time>
      </trkpt>
      <trkpt lat="49.42621" lon="0.2281">
        <ele>7.3</ele>
        <time>2022-05-31T08:32:06Z</time>
      </trkpt>
      <trkpt lat="49.42623" lon="0.22809">
        <ele>7.3</ele>
        <time>2022-05-31T08:32:08Z</time>
      </trkpt>
      <trkpt lat="49.42624" lon="0.22807">
        <ele>7.3</ele>
        <time>2022-05-31T08:32:09Z</time>
      </trkpt>
      <trkpt lat="49.42624" lon="0.22806">
        <ele>7.3</ele>
        <time>2022-05-31T08:32:10Z</time>
      </trkpt>
      <trkpt lat="49.42625" lon="0.22805">
        <ele>7.3</ele>
        <time>2022-05-31T08:32:11Z</time>
      </trkpt>
      <trkpt lat="49.42625" lon="0.22804">
        <ele>7.3</ele>
        <time>2022-05-31T08:32:12Z</time>
      </trkpt>
      <trkpt lat="49.42626" lon="0.22804">
        <ele>7.3</ele>
        <time>2022-05-31T08:32:13Z</time>
      </trkpt>
      <trkpt lat="49.42626" lon="0.22804">
        <ele>7.3</ele>
        <time>2022-05-31T08:32:14Z</time>
      </trkpt>
      <trkpt lat="49.42625" lon="0.22804">
        <ele>7.3</ele>
        <time>2022-05-31T08:32:15Z</time>
      </trkpt>
      <trkpt lat="49.42625" lon="0.22805">
        <ele>7.3</ele>
        <time>2022-05-31T08:32:16Z</time>
      </trkpt>
      <trkpt lat="49.42625" lon="0.22805">
        <ele>7.3</ele>
        <time>2022-05-31T08:32:17Z</time>
      </trkpt>
      <trkpt lat="49.42626" lon="0.22805">
        <ele>7.3</ele>
        <time>2022-05-31T08:32:18Z</time>
      </trkpt>
      <trkpt lat="49.42626" lon="0.22805">
        <ele>7.3</ele>
        <time>2022-05-31T08:32:19Z</time>
      </trkpt>
      <trkpt lat="49.42627" lon="0.22805">
        <ele>7.3</ele>
        <time>2022-05-31T08:32:20Z</time>
      </trkpt>
      <trkpt lat="49.42628" lon="0.22805">
        <ele>7.3</ele>
        <time>2022-05-31T08:32:22Z</time>
      </trkpt>
      <trkpt lat="49.42629" lon="0.22806">
        <ele>7.3</ele>
        <time>2022-05-31T08:32:23Z</time>
      </trkpt>
      <trkpt lat="49.4263" lon="0.22806">
        <ele>7.3</ele>
        <time>2022-05-31T08:32:24Z</time>
      </trkpt>
      <trkpt lat="49.42631" lon="0.22806">
        <ele>7.3</ele>
        <time>2022-05-31T08:32:25Z</time>
      </trkpt>
      <trkpt lat="49.42633" lon="0.22804">
        <ele>7.2</ele>
        <time>2022-05-31T08:32:26Z</time>
      </trkpt>
      <trkpt lat="49.42634" lon="0.22803">
        <ele>7.2</ele>
        <time>2022-05-31T08:32:27Z</time>
      </trkpt>
      <trkpt lat="49.42635" lon="0.22802">
        <ele>7.2</ele>
        <time>2022-05-31T08:32:28Z</time>
      </trkpt>
      <trkpt lat="49.42637" lon="0.228">
        <ele>7.2</ele>
        <time>2022-05-31T08:32:29Z</time>
      </trkpt>
      <trkpt lat="49.42637" lon="0.22799">
        <ele>7.2</ele>
        <time>2022-05-31T08:32:31Z</time>
      </trkpt>
      <trkpt lat="49.42638" lon="0.22798">
        <ele>7.2</ele>
        <time>2022-05-31T08:32:32Z</time>
      </trkpt>
      <trkpt lat="49.42639" lon="0.22797">
        <ele>7.2</ele>
        <time>2022-05-31T08:32:33Z</time>
      </trkpt>
      <trkpt lat="49.4264" lon="0.22796">
        <ele>7.2</ele>
        <time>2022-05-31T08:32:34Z</time>
      </trkpt>
      <trkpt lat="49.42641" lon="0.22794">
        <ele>7.1</ele>
        <time>2022-05-31T08:32:35Z</time>
      </trkpt>
      <trkpt lat="49.42642" lon="0.22793">
        <ele>7.1</ele>
        <time>2022-05-31T08:32:36Z</time>
      </trkpt>
      <trkpt lat="49.42644" lon="0.22791">
        <ele>7.1</ele>
        <time>2022-05-31T08:32:37Z</time>
      </trkpt>
      <trkpt lat="49.42645" lon="0.2279">
        <ele>7.1</ele>
        <time>2022-05-31T08:32:38Z</time>
      </trkpt>
      <trkpt lat="49.42645" lon="0.22789">
        <ele>7.1</ele>
        <time>2022-05-31T08:32:39Z</time>
      </trkpt>
      <trkpt lat="49.42647" lon="0.22788">
        <ele>7.1</ele>
        <time>2022-05-31T08:32:41Z</time>
      </trkpt>
      <trkpt lat="49.42648" lon="0.22787">
        <ele>7.1</ele>
        <time>2022-05-31T08:32:42Z</time>
      </trkpt>
      <trkpt lat="49.42649" lon="0.22787">
        <ele>7.1</ele>
        <time>2022-05-31T08:32:43Z</time>
      </trkpt>
      <trkpt lat="49.4265" lon="0.22786">
        <ele>7.1</ele>
        <time>2022-05-31T08:32:44Z</time>
      </trkpt>
      <trkpt lat="49.42651" lon="0.22785">
        <ele>7</ele>
        <time>2022-05-31T08:32:45Z</time>
      </trkpt>
      <trkpt lat="49.42653" lon="0.22783">
        <ele>7</ele>
        <time>2022-05-31T08:32:46Z</time>
      </trkpt>
      <trkpt lat="49.42654" lon="0.22782">
        <ele>7</ele>
        <time>2022-05-31T08:32:47Z</time>
      </trkpt>
      <trkpt lat="49.42654" lon="0.22781">
        <ele>7</ele>
        <time>2022-05-31T08:32:48Z</time>
      </trkpt>
      <trkpt lat="49.42655" lon="0.22779">
        <ele>7</ele>
        <time>2022-05-31T08:32:49Z</time>
      </trkpt>
      <trkpt lat="49.42656" lon="0.22778">
        <ele>7</ele>
        <time>2022-05-31T08:32:50Z</time>
      </trkpt>
      <trkpt lat="49.42658" lon="0.22776">
        <ele>7</ele>
        <time>2022-05-31T08:32:52Z</time>
      </trkpt>
      <trkpt lat="49.42658" lon="0.22775">
        <ele>7</ele>
        <time>2022-05-31T08:32:53Z</time>
      </trkpt>
      <trkpt lat="49.4266" lon="0.22774">
        <ele>7</ele>
        <time>2022-05-31T08:32:54Z</time>
      </trkpt>
      <trkpt lat="49.42661" lon="0.22773">
        <ele>6.9</ele>
        <time>2022-05-31T08:32:55Z</time>
      </trkpt>
      <trkpt lat="49.42662" lon="0.22772">
        <ele>6.9</ele>
        <time>2022-05-31T08:32:56Z</time>
      </trkpt>
      <trkpt lat="49.42664" lon="0.22771">
        <ele>6.9</ele>
        <time>2022-05-31T08:32:57Z</time>
      </trkpt>
      <trkpt lat="49.42665" lon="0.2277">
        <ele>6.9</ele>
        <time>2022-05-31T08:32:58Z</time>
      </trkpt>
      <trkpt lat="49.42665" lon="0.22769">
        <ele>6.9</ele>
        <time>2022-05-31T08:32:59Z</time>
      </trkpt>
      <trkpt lat="49.42667" lon="0.22768">
        <ele>6.9</ele>
        <time>2022-05-31T08:33:00Z</time>
      </trkpt>
      <trkpt lat="49.42668" lon="0.22767">
        <ele>6.9</ele>
        <time>2022-05-31T08:33:01Z</time>
      </trkpt>
      <trkpt lat="49.42669" lon="0.22766">
        <ele>6.9</ele>
        <time>2022-05-31T08:33:02Z</time>
      </trkpt>
      <trkpt lat="49.4267" lon="0.22764">
        <ele>6.9</ele>
        <time>2022-05-31T08:33:03Z</time>
      </trkpt>
      <trkpt lat="49.42671" lon="0.22763">
        <ele>6.9</ele>
        <time>2022-05-31T08:33:04Z</time>
      </trkpt>
      <trkpt lat="49.42673" lon="0.2276">
        <ele>6.9</ele>
        <time>2022-05-31T08:33:06Z</time>
      </trkpt>
      <trkpt lat="49.42673" lon="0.2276">
        <ele>6.8</ele>
        <time>2022-05-31T08:33:07Z</time>
      </trkpt>
      <trkpt lat="49.42674" lon="0.22759">
        <ele>6.8</ele>
        <time>2022-05-31T08:33:08Z</time>
      </trkpt>
      <trkpt lat="49.42675" lon="0.22758">
        <ele>6.8</ele>
        <time>2022-05-31T08:33:09Z</time>
      </trkpt>
      <trkpt lat="49.42676" lon="0.22757">
        <ele>6.8</ele>
        <time>2022-05-31T08:33:10Z</time>
      </trkpt>
      <trkpt lat="49.42677" lon="0.22756">
        <ele>6.8</ele>
        <time>2022-05-31T08:33:11Z</time>
      </trkpt>
      <trkpt lat="49.42678" lon="0.22755">
        <ele>6.8</ele>
        <time>2022-05-31T08:33:12Z</time>
      </trkpt>
      <trkpt lat="49.42679" lon="0.22754">
        <ele>6.8</ele>
        <time>2022-05-31T08:33:13Z</time>
      </trkpt>
      <trkpt lat="49.4268" lon="0.22752">
        <ele>6.8</ele>
        <time>2022-05-31T08:33:14Z</time>
      </trkpt>
      <trkpt lat="49.42681" lon="0.2275">
        <ele>6.8</ele>
        <time>2022-05-31T08:33:15Z</time>
      </trkpt>
      <trkpt lat="49.42682" lon="0.22749">
        <ele>6.8</ele>
        <time>2022-05-31T08:33:16Z</time>
      </trkpt>
      <trkpt lat="49.42683" lon="0.22747">
        <ele>6.8</ele>
        <time>2022-05-31T08:33:17Z</time>
      </trkpt>
      <trkpt lat="49.42684" lon="0.22746">
        <ele>6.8</ele>
        <time>2022-05-31T08:33:19Z</time>
      </trkpt>
      <trkpt lat="49.42685" lon="0.22744">
        <ele>6.8</ele>
        <time>2022-05-31T08:33:20Z</time>
      </trkpt>
      <trkpt lat="49.42686" lon="0.22743">
        <ele>6.8</ele>
        <time>2022-05-31T08:33:21Z</time>
      </trkpt>
      <trkpt lat="49.42688" lon="0.2274">
        <ele>6.7</ele>
        <time>2022-05-31T08:33:23Z</time>
      </trkpt>
      <trkpt lat="49.42688" lon="0.22739">
        <ele>6.7</ele>
        <time>2022-05-31T08:33:24Z</time>
      </trkpt>
      <trkpt lat="49.4269" lon="0.22737">
        <ele>6.7</ele>
        <time>2022-05-31T08:33:25Z</time>
      </trkpt>
      <trkpt lat="49.42691" lon="0.22736">
        <ele>6.7</ele>
        <time>2022-05-31T08:33:26Z</time>
      </trkpt>
      <trkpt lat="49.42692" lon="0.22735">
        <ele>6.7</ele>
        <time>2022-05-31T08:33:27Z</time>
      </trkpt>
      <trkpt lat="49.42692" lon="0.22735">
        <ele>6.7</ele>
        <time>2022-05-31T08:33:28Z</time>
      </trkpt>
      <trkpt lat="49.42693" lon="0.22734">
        <ele>6.7</ele>
        <time>2022-05-31T08:33:29Z</time>
      </trkpt>
      <trkpt lat="49.42694" lon="0.22733">
        <ele>6.7</ele>
        <time>2022-05-31T08:33:30Z</time>
      </trkpt>
      <trkpt lat="49.42695" lon="0.22731">
        <ele>6.6</ele>
        <time>2022-05-31T08:33:31Z</time>
      </trkpt>
      <trkpt lat="49.42697" lon="0.2273">
        <ele>6.6</ele>
        <time>2022-05-31T08:33:32Z</time>
      </trkpt>
      <trkpt lat="49.42699" lon="0.22727">
        <ele>6.6</ele>
        <time>2022-05-31T08:33:33Z</time>
      </trkpt>
      <trkpt lat="49.42699" lon="0.22727">
        <ele>6.6</ele>
        <time>2022-05-31T08:33:34Z</time>
      </trkpt>
      <trkpt lat="49.427" lon="0.22726">
        <ele>6.6</ele>
        <time>2022-05-31T08:33:35Z</time>
      </trkpt>
      <trkpt lat="49.427" lon="0.22724">
        <ele>6.6</ele>
        <time>2022-05-31T08:33:36Z</time>
      </trkpt>
      <trkpt lat="49.42702" lon="0.22722">
        <ele>6.6</ele>
        <time>2022-05-31T08:33:38Z</time>
      </trkpt>
      <trkpt lat="49.42702" lon="0.22721">
        <ele>6.5</ele>
        <time>2022-05-31T08:33:39Z</time>
      </trkpt>
      <trkpt lat="49.42703" lon="0.22719">
        <ele>6.5</ele>
        <time>2022-05-31T08:33:40Z</time>
      </trkpt>
      <trkpt lat="49.42703" lon="0.22718">
        <ele>6.5</ele>
        <time>2022-05-31T08:33:41Z</time>
      </trkpt>
      <trkpt lat="49.42705" lon="0.22716">
        <ele>6.5</ele>
        <time>2022-05-31T08:33:42Z</time>
      </trkpt>
      <trkpt lat="49.42706" lon="0.22716">
        <ele>6.5</ele>
        <time>2022-05-31T08:33:43Z</time>
      </trkpt>
      <trkpt lat="49.42707" lon="0.22715">
        <ele>6.5</ele>
        <time>2022-05-31T08:33:44Z</time>
      </trkpt>
      <trkpt lat="49.42708" lon="0.22713">
        <ele>6.5</ele>
        <time>2022-05-31T08:33:45Z</time>
      </trkpt>
      <trkpt lat="49.42709" lon="0.22712">
        <ele>6.4</ele>
        <time>2022-05-31T08:33:46Z</time>
      </trkpt>
      <trkpt lat="49.4271" lon="0.22711">
        <ele>6.4</ele>
        <time>2022-05-31T08:33:47Z</time>
      </trkpt>
      <trkpt lat="49.42711" lon="0.22711">
        <ele>6.4</ele>
        <time>2022-05-31T08:33:48Z</time>
      </trkpt>
      <trkpt lat="49.42712" lon="0.2271">
        <ele>6.4</ele>
        <time>2022-05-31T08:33:49Z</time>
      </trkpt>
      <trkpt lat="49.42713" lon="0.2271">
        <ele>6.4</ele>
        <time>2022-05-31T08:33:51Z</time>
      </trkpt>
      <trkpt lat="49.42715" lon="0.22709">
        <ele>6.4</ele>
        <time>2022-05-31T08:33:52Z</time>
      </trkpt>
      <trkpt lat="49.42716" lon="0.22708">
        <ele>6.4</ele>
        <time>2022-05-31T08:33:53Z</time>
      </trkpt>
      <trkpt lat="49.42717" lon="0.22708">
        <ele>6.4</ele>
        <time>2022-05-31T08:33:54Z</time>
      </trkpt>
      <trkpt lat="49.42718" lon="0.22708">
        <ele>6.4</ele>
        <time>2022-05-31T08:33:55Z</time>
      </trkpt>
      <trkpt lat="49.42719" lon="0.22707">
        <ele>6.4</ele>
        <time>2022-05-31T08:33:56Z</time>
      </trkpt>
      <trkpt lat="49.42721" lon="0.22706">
        <ele>6.3</ele>
        <time>2022-05-31T08:33:57Z</time>
      </trkpt>
      <trkpt lat="49.42722" lon="0.22706">
        <ele>6.3</ele>
        <time>2022-05-31T08:33:58Z</time>
      </trkpt>
      <trkpt lat="49.42723" lon="0.22706">
        <ele>6.3</ele>
        <time>2022-05-31T08:33:59Z</time>
      </trkpt>
      <trkpt lat="49.42725" lon="0.22705">
        <ele>6.3</ele>
        <time>2022-05-31T08:34:00Z</time>
      </trkpt>
      <trkpt lat="49.42726" lon="0.22705">
        <ele>6.3</ele>
        <time>2022-05-31T08:34:01Z</time>
      </trkpt>
      <trkpt lat="49.42726" lon="0.22705">
        <ele>6.3</ele>
        <time>2022-05-31T08:34:02Z</time>
      </trkpt>
      <trkpt lat="49.42729" lon="0.22705">
        <ele>6.3</ele>
        <time>2022-05-31T08:34:03Z</time>
      </trkpt>
      <trkpt lat="49.4273" lon="0.22705">
        <ele>6.3</ele>
        <time>2022-05-31T08:34:05Z</time>
      </trkpt>
      <trkpt lat="49.42731" lon="0.22705">
        <ele>6.2</ele>
        <time>2022-05-31T08:34:06Z</time>
      </trkpt>
      <trkpt lat="49.42732" lon="0.22705">
        <ele>6.2</ele>
        <time>2022-05-31T08:34:07Z</time>
      </trkpt>
      <trkpt lat="49.42734" lon="0.22706">
        <ele>6.2</ele>
        <time>2022-05-31T08:34:08Z</time>
      </trkpt>
      <trkpt lat="49.42734" lon="0.22705">
        <ele>6.2</ele>
        <time>2022-05-31T08:34:09Z</time>
      </trkpt>
      <trkpt lat="49.42735" lon="0.22704">
        <ele>6.2</ele>
        <time>2022-05-31T08:34:10Z</time>
      </trkpt>
      <trkpt lat="49.42735" lon="0.22703">
        <ele>6.2</ele>
        <time>2022-05-31T08:34:11Z</time>
      </trkpt>
      <trkpt lat="49.42736" lon="0.22703">
        <ele>6.2</ele>
        <time>2022-05-31T08:34:12Z</time>
      </trkpt>
      <trkpt lat="49.42737" lon="0.22703">
        <ele>6.2</ele>
        <time>2022-05-31T08:34:13Z</time>
      </trkpt>
      <trkpt lat="49.42737" lon="0.22703">
        <ele>6.2</ele>
        <time>2022-05-31T08:34:14Z</time>
      </trkpt>
      <trkpt lat="49.42737" lon="0.22703">
        <ele>6.2</ele>
        <time>2022-05-31T08:34:15Z</time>
      </trkpt>
      <trkpt lat="49.42736" lon="0.22703">
        <ele>6.2</ele>
        <time>2022-05-31T08:34:16Z</time>
      </trkpt>
      <trkpt lat="49.42736" lon="0.22702">
        <ele>6.2</ele>
        <time>2022-05-31T08:34:17Z</time>
      </trkpt>
      <trkpt lat="49.42735" lon="0.22702">
        <ele>6.2</ele>
        <time>2022-05-31T08:34:18Z</time>
      </trkpt>
      <trkpt lat="49.42735" lon="0.22702">
        <ele>6.2</ele>
        <time>2022-05-31T08:34:19Z</time>
      </trkpt>
      <trkpt lat="49.42735" lon="0.22702">
        <ele>6.2</ele>
        <time>2022-05-31T08:34:20Z</time>
      </trkpt>
      <trkpt lat="49.42735" lon="0.22702">
        <ele>6.2</ele>
        <time>2022-05-31T08:34:21Z</time>
      </trkpt>
      <trkpt lat="49.42735" lon="0.22702">
        <ele>6.2</ele>
        <time>2022-05-31T08:34:22Z</time>
      </trkpt>
      <trkpt lat="49.42735" lon="0.22702">
        <ele>6.2</ele>
        <time>2022-05-31T08:34:23Z</time>
      </trkpt>
      <trkpt lat="49.42735" lon="0.22702">
        <ele>6.2</ele>
        <time>2022-05-31T08:34:24Z</time>
      </trkpt>
      <trkpt lat="49.42734" lon="0.22703">
        <ele>6.2</ele>
        <time>2022-05-31T08:34:25Z</time>
      </trkpt>
      <trkpt lat="49.42734" lon="0.22703">
        <ele>6.2</ele>
        <time>2022-05-31T08:34:26Z</time>
      </trkpt>
      <trkpt lat="49.42734" lon="0.22703">
        <ele>6.2</ele>
        <time>2022-05-31T08:34:27Z</time>
      </trkpt>
      <trkpt lat="49.42734" lon="0.22703">
        <ele>6.2</ele>
        <time>2022-05-31T08:34:28Z</time>
      </trkpt>
      <trkpt lat="49.42733" lon="0.22703">
        <ele>6.2</ele>
        <time>2022-05-31T08:34:29Z</time>
      </trkpt>
      <trkpt lat="49.42733" lon="0.22703">
        <ele>6.2</ele>
        <time>2022-05-31T08:34:30Z</time>
      </trkpt>
      <trkpt lat="49.42733" lon="0.22703">
        <ele>6.2</ele>
        <time>2022-05-31T08:34:31Z</time>
      </trkpt>
      <trkpt lat="49.42733" lon="0.22702">
        <ele>6.2</ele>
        <time>2022-05-31T08:34:32Z</time>
      </trkpt>
      <trkpt lat="49.42733" lon="0.22702">
        <ele>6.2</ele>
        <time>2022-05-31T08:34:33Z</time>
      </trkpt>
      <trkpt lat="49.42733" lon="0.22702">
        <ele>6.2</ele>
        <time>2022-05-31T08:34:34Z</time>
      </trkpt>
      <trkpt lat="49.42732" lon="0.22701">
        <ele>6.2</ele>
        <time>2022-05-31T08:34:35Z</time>
      </trkpt>
      <trkpt lat="49.42732" lon="0.22701">
        <ele>6.2</ele>
        <time>2022-05-31T08:34:36Z</time>
      </trkpt>
      <trkpt lat="49.42732" lon="0.22701">
        <ele>6.2</ele>
        <time>2022-05-31T08:34:37Z</time>
      </trkpt>
      <trkpt lat="49.42732" lon="0.227">
        <ele>6.2</ele>
        <time>2022-05-31T08:34:38Z</time>
      </trkpt>
      <trkpt lat="49.42732" lon="0.227">
        <ele>6.2</ele>
        <time>2022-05-31T08:34:39Z</time>
      </trkpt>
      <trkpt lat="49.42732" lon="0.227">
        <ele>6.2</ele>
        <time>2022-05-31T08:34:40Z</time>
      </trkpt>
      <trkpt lat="49.42732" lon="0.22699">
        <ele>6.2</ele>
        <time>2022-05-31T08:34:41Z</time>
      </trkpt>
      <trkpt lat="49.42732" lon="0.22699">
        <ele>6.2</ele>
        <time>2022-05-31T08:34:42Z</time>
      </trkpt>
      <trkpt lat="49.42732" lon="0.22699">
        <ele>6.2</ele>
        <time>2022-05-31T08:34:43Z</time>
      </trkpt>
      <trkpt lat="49.42732" lon="0.22698">
        <ele>6.2</ele>
        <time>2022-05-31T08:34:44Z</time>
      </trkpt>
      <trkpt lat="49.42732" lon="0.22698">
        <ele>6.2</ele>
        <time>2022-05-31T08:34:45Z</time>
      </trkpt>
      <trkpt lat="49.42732" lon="0.22698">
        <ele>6.2</ele>
        <time>2022-05-31T08:34:47Z</time>
      </trkpt>
      <trkpt lat="49.42732" lon="0.22697">
        <ele>6.2</ele>
        <time>2022-05-31T08:34:48Z</time>
      </trkpt>
      <trkpt lat="49.42731" lon="0.22694">
        <ele>6.2</ele>
        <time>2022-05-31T08:34:49Z</time>
      </trkpt>
      <trkpt lat="49.42731" lon="0.22691">
        <ele>6.2</ele>
        <time>2022-05-31T08:34:51Z</time>
      </trkpt>
      <trkpt lat="49.4273" lon="0.22688">
        <ele>6.2</ele>
        <time>2022-05-31T08:34:52Z</time>
      </trkpt>
      <trkpt lat="49.4273" lon="0.22687">
        <ele>6.2</ele>
        <time>2022-05-31T08:34:53Z</time>
      </trkpt>
      <trkpt lat="49.4273" lon="0.22686">
        <ele>6.2</ele>
        <time>2022-05-31T08:34:54Z</time>
      </trkpt>
      <trkpt lat="49.4273" lon="0.22684">
        <ele>6.2</ele>
        <time>2022-05-31T08:34:55Z</time>
      </trkpt>
      <trkpt lat="49.4273" lon="0.22681">
        <ele>6.2</ele>
        <time>2022-05-31T08:34:56Z</time>
      </trkpt>
      <trkpt lat="49.42729" lon="0.22679">
        <ele>6.2</ele>
        <time>2022-05-31T08:34:57Z</time>
      </trkpt>
      <trkpt lat="49.42729" lon="0.22677">
        <ele>6.2</ele>
        <time>2022-05-31T08:34:58Z</time>
      </trkpt>
      <trkpt lat="49.42729" lon="0.22676">
        <ele>6.2</ele>
        <time>2022-05-31T08:35:00Z</time>
      </trkpt>
      <trkpt lat="49.42729" lon="0.22674">
        <ele>6.2</ele>
        <time>2022-05-31T08:35:01Z</time>
      </trkpt>
      <trkpt lat="49.4273" lon="0.22675">
        <ele>6.2</ele>
        <time>2022-05-31T08:35:02Z</time>
      </trkpt>
      <trkpt lat="49.4273" lon="0.22675">
        <ele>6.2</ele>
        <time>2022-05-31T08:35:03Z</time>
      </trkpt>
      <trkpt lat="49.4273" lon="0.22673">
        <ele>6.2</ele>
        <time>2022-05-31T08:35:04Z</time>
      </trkpt>
      <trkpt lat="49.42729" lon="0.2267">
        <ele>6.2</ele>
        <time>2022-05-31T08:35:05Z</time>
      </trkpt>
      <trkpt lat="49.42728" lon="0.22668">
        <ele>6.2</ele>
        <time>2022-05-31T08:35:07Z</time>
      </trkpt>
      <trkpt lat="49.42727" lon="0.22666">
        <ele>6.1</ele>
        <time>2022-05-31T08:35:08Z</time>
      </trkpt>
      <trkpt lat="49.42727" lon="0.22663">
        <ele>6.1</ele>
        <time>2022-05-31T08:35:09Z</time>
      </trkpt>
      <trkpt lat="49.42726" lon="0.22661">
        <ele>6.1</ele>
        <time>2022-05-31T08:35:10Z</time>
      </trkpt>
      <trkpt lat="49.42726" lon="0.22659">
        <ele>6.1</ele>
        <time>2022-05-31T08:35:11Z</time>
      </trkpt>
      <trkpt lat="49.42726" lon="0.22657">
        <ele>6.1</ele>
        <time>2022-05-31T08:35:12Z</time>
      </trkpt>
      <trkpt lat="49.42726" lon="0.22654">
        <ele>6.1</ele>
        <time>2022-05-31T08:35:13Z</time>
      </trkpt>
      <trkpt lat="49.42726" lon="0.22653">
        <ele>6.1</ele>
        <time>2022-05-31T08:35:14Z</time>
      </trkpt>
      <trkpt lat="49.42726" lon="0.22652">
        <ele>6.1</ele>
        <time>2022-05-31T08:35:15Z</time>
      </trkpt>
      <trkpt lat="49.42726" lon="0.22651">
        <ele>6.1</ele>
        <time>2022-05-31T08:35:16Z</time>
      </trkpt>
      <trkpt lat="49.42726" lon="0.22648">
        <ele>6.1</ele>
        <time>2022-05-31T08:35:18Z</time>
      </trkpt>
      <trkpt lat="49.42726" lon="0.22645">
        <ele>6.1</ele>
        <time>2022-05-31T08:35:19Z</time>
      </trkpt>
      <trkpt lat="49.42726" lon="0.22641">
        <ele>6.1</ele>
        <time>2022-05-31T08:35:20Z</time>
      </trkpt>
      <trkpt lat="49.42726" lon="0.2264">
        <ele>6.1</ele>
        <time>2022-05-31T08:35:21Z</time>
      </trkpt>
      <trkpt lat="49.42726" lon="0.22637">
        <ele>6.1</ele>
        <time>2022-05-31T08:35:22Z</time>
      </trkpt>
      <trkpt lat="49.42726" lon="0.22634">
        <ele>6.1</ele>
        <time>2022-05-31T08:35:23Z</time>
      </trkpt>
      <trkpt lat="49.42727" lon="0.22632">
        <ele>6.1</ele>
        <time>2022-05-31T08:35:24Z</time>
      </trkpt>
      <trkpt lat="49.42727" lon="0.2263">
        <ele>6.1</ele>
        <time>2022-05-31T08:35:25Z</time>
      </trkpt>
      <trkpt lat="49.42727" lon="0.22628">
        <ele>6.1</ele>
        <time>2022-05-31T08:35:26Z</time>
      </trkpt>
      <trkpt lat="49.42727" lon="0.22626">
        <ele>6.1</ele>
        <time>2022-05-31T08:35:27Z</time>
      </trkpt>
      <trkpt lat="49.42727" lon="0.22623">
        <ele>6.1</ele>
        <time>2022-05-31T08:35:29Z</time>
      </trkpt>
      <trkpt lat="49.42728" lon="0.22618">
        <ele>6.1</ele>
        <time>2022-05-31T08:35:30Z</time>
      </trkpt>
      <trkpt lat="49.42728" lon="0.22617">
        <ele>6.1</ele>
        <time>2022-05-31T08:35:31Z</time>
      </trkpt>
      <trkpt lat="49.42729" lon="0.22615">
        <ele>6</ele>
        <time>2022-05-31T08:35:33Z</time>
      </trkpt>
      <trkpt lat="49.42729" lon="0.22613">
        <ele>6</ele>
        <time>2022-05-31T08:35:34Z</time>
      </trkpt>
      <trkpt lat="49.4273" lon="0.22609">
        <ele>6</ele>
        <time>2022-05-31T08:35:35Z</time>
      </trkpt>
      <trkpt lat="49.4273" lon="0.22608">
        <ele>6</ele>
        <time>2022-05-31T08:35:36Z</time>
      </trkpt>
      <trkpt lat="49.42731" lon="0.22605">
        <ele>6</ele>
        <time>2022-05-31T08:35:37Z</time>
      </trkpt>
      <trkpt lat="49.42731" lon="0.22604">
        <ele>6</ele>
        <time>2022-05-31T08:35:38Z</time>
      </trkpt>
      <trkpt lat="49.42731" lon="0.22602">
        <ele>6</ele>
        <time>2022-05-31T08:35:39Z</time>
      </trkpt>
      <trkpt lat="49.42732" lon="0.22599">
        <ele>6</ele>
        <time>2022-05-31T08:35:40Z</time>
      </trkpt>
      <trkpt lat="49.42732" lon="0.22598">
        <ele>6</ele>
        <time>2022-05-31T08:35:41Z</time>
      </trkpt>
      <trkpt lat="49.42732" lon="0.22596">
        <ele>6</ele>
        <time>2022-05-31T08:35:42Z</time>
      </trkpt>
      <trkpt lat="49.42732" lon="0.22594">
        <ele>6</ele>
        <time>2022-05-31T08:35:43Z</time>
      </trkpt>
      <trkpt lat="49.42733" lon="0.22591">
        <ele>6</ele>
        <time>2022-05-31T08:35:44Z</time>
      </trkpt>
      <trkpt lat="49.42734" lon="0.22589">
        <ele>6</ele>
        <time>2022-05-31T08:35:46Z</time>
      </trkpt>
      <trkpt lat="49.42734" lon="0.22586">
        <ele>6</ele>
        <time>2022-05-31T08:35:47Z</time>
      </trkpt>
      <trkpt lat="49.42735" lon="0.22584">
        <ele>6</ele>
        <time>2022-05-31T08:35:48Z</time>
      </trkpt>
      <trkpt lat="49.42735" lon="0.22582">
        <ele>6</ele>
        <time>2022-05-31T08:35:49Z</time>
      </trkpt>
      <trkpt lat="49.42735" lon="0.2258">
        <ele>6</ele>
        <time>2022-05-31T08:35:50Z</time>
      </trkpt>
      <trkpt lat="49.42736" lon="0.22577">
        <ele>5.9</ele>
        <time>2022-05-31T08:35:51Z</time>
      </trkpt>
      <trkpt lat="49.42737" lon="0.22576">
        <ele>5.9</ele>
        <time>2022-05-31T08:35:53Z</time>
      </trkpt>
      <trkpt lat="49.42737" lon="0.22574">
        <ele>5.9</ele>
        <time>2022-05-31T08:35:54Z</time>
      </trkpt>
      <trkpt lat="49.42738" lon="0.22571">
        <ele>5.9</ele>
        <time>2022-05-31T08:35:56Z</time>
      </trkpt>
      <trkpt lat="49.42738" lon="0.22569">
        <ele>5.9</ele>
        <time>2022-05-31T08:35:57Z</time>
      </trkpt>
      <trkpt lat="49.42738" lon="0.22567">
        <ele>5.9</ele>
        <time>2022-05-31T08:35:58Z</time>
      </trkpt>
      <trkpt lat="49.42739" lon="0.22565">
        <ele>5.9</ele>
        <time>2022-05-31T08:35:59Z</time>
      </trkpt>
      <trkpt lat="49.42739" lon="0.22562">
        <ele>5.9</ele>
        <time>2022-05-31T08:36:00Z</time>
      </trkpt>
      <trkpt lat="49.42739" lon="0.2256">
        <ele>5.9</ele>
        <time>2022-05-31T08:36:01Z</time>
      </trkpt>
      <trkpt lat="49.42739" lon="0.22557">
        <ele>5.9</ele>
        <time>2022-05-31T08:36:03Z</time>
      </trkpt>
      <trkpt lat="49.42739" lon="0.22555">
        <ele>5.9</ele>
        <time>2022-05-31T08:36:04Z</time>
      </trkpt>
      <trkpt lat="49.42739" lon="0.22552">
        <ele>5.9</ele>
        <time>2022-05-31T08:36:05Z</time>
      </trkpt>
      <trkpt lat="49.42739" lon="0.22551">
        <ele>5.9</ele>
        <time>2022-05-31T08:36:06Z</time>
      </trkpt>
      <trkpt lat="49.42739" lon="0.2255">
        <ele>5.9</ele>
        <time>2022-05-31T08:36:07Z</time>
      </trkpt>
      <trkpt lat="49.42739" lon="0.22548">
        <ele>5.9</ele>
        <time>2022-05-31T08:36:08Z</time>
      </trkpt>
      <trkpt lat="49.42739" lon="0.22547">
        <ele>5.9</ele>
        <time>2022-05-31T08:36:09Z</time>
      </trkpt>
      <trkpt lat="49.42739" lon="0.22544">
        <ele>5.9</ele>
        <time>2022-05-31T08:36:10Z</time>
      </trkpt>
      <trkpt lat="49.42738" lon="0.22543">
        <ele>5.9</ele>
        <time>2022-05-31T08:36:11Z</time>
      </trkpt>
      <trkpt lat="49.42738" lon="0.22541">
        <ele>5.9</ele>
        <time>2022-05-31T08:36:12Z</time>
      </trkpt>
      <trkpt lat="49.42737" lon="0.2254">
        <ele>5.9</ele>
        <time>2022-05-31T08:36:13Z</time>
      </trkpt>
      <trkpt lat="49.42737" lon="0.22538">
        <ele>5.9</ele>
        <time>2022-05-31T08:36:14Z</time>
      </trkpt>
      <trkpt lat="49.42737" lon="0.22535">
        <ele>5.9</ele>
        <time>2022-05-31T08:36:16Z</time>
      </trkpt>
      <trkpt lat="49.42736" lon="0.22534">
        <ele>5.9</ele>
        <time>2022-05-31T08:36:17Z</time>
      </trkpt>
      <trkpt lat="49.42736" lon="0.22532">
        <ele>5.8</ele>
        <time>2022-05-31T08:36:18Z</time>
      </trkpt>
      <trkpt lat="49.42736" lon="0.22531">
        <ele>5.8</ele>
        <time>2022-05-31T08:36:19Z</time>
      </trkpt>
      <trkpt lat="49.42736" lon="0.22529">
        <ele>5.8</ele>
        <time>2022-05-31T08:36:20Z</time>
      </trkpt>
      <trkpt lat="49.42736" lon="0.22525">
        <ele>5.8</ele>
        <time>2022-05-31T08:36:21Z</time>
      </trkpt>
      <trkpt lat="49.42736" lon="0.22524">
        <ele>5.8</ele>
        <time>2022-05-31T08:36:22Z</time>
      </trkpt>
      <trkpt lat="49.42736" lon="0.22523">
        <ele>5.8</ele>
        <time>2022-05-31T08:36:23Z</time>
      </trkpt>
      <trkpt lat="49.42736" lon="0.22521">
        <ele>5.8</ele>
        <time>2022-05-31T08:36:24Z</time>
      </trkpt>
      <trkpt lat="49.42736" lon="0.22519">
        <ele>5.8</ele>
        <time>2022-05-31T08:36:25Z</time>
      </trkpt>
      <trkpt lat="49.42736" lon="0.22518">
        <ele>5.8</ele>
        <time>2022-05-31T08:36:26Z</time>
      </trkpt>
      <trkpt lat="49.42736" lon="0.22517">
        <ele>5.8</ele>
        <time>2022-05-31T08:36:27Z</time>
      </trkpt>
      <trkpt lat="49.42736" lon="0.22515">
        <ele>5.8</ele>
        <time>2022-05-31T08:36:28Z</time>
      </trkpt>
      <trkpt lat="49.42735" lon="0.22513">
        <ele>5.8</ele>
        <time>2022-05-31T08:36:29Z</time>
      </trkpt>
      <trkpt lat="49.42735" lon="0.2251">
        <ele>5.8</ele>
        <time>2022-05-31T08:36:30Z</time>
      </trkpt>
      <trkpt lat="49.42735" lon="0.22509">
        <ele>5.8</ele>
        <time>2022-05-31T08:36:31Z</time>
      </trkpt>
      <trkpt lat="49.42735" lon="0.22506">
        <ele>5.8</ele>
        <time>2022-05-31T08:36:32Z</time>
      </trkpt>
      <trkpt lat="49.42734" lon="0.22505">
        <ele>5.8</ele>
        <time>2022-05-31T08:36:33Z</time>
      </trkpt>
      <trkpt lat="49.42734" lon="0.22503">
        <ele>5.8</ele>
        <time>2022-05-31T08:36:34Z</time>
      </trkpt>
      <trkpt lat="49.42734" lon="0.22499">
        <ele>5.7</ele>
        <time>2022-05-31T08:36:35Z</time>
      </trkpt>
      <trkpt lat="49.42734" lon="0.22498">
        <ele>5.7</ele>
        <time>2022-05-31T08:36:37Z</time>
      </trkpt>
      <trkpt lat="49.42735" lon="0.22494">
        <ele>5.7</ele>
        <time>2022-05-31T08:36:38Z</time>
      </trkpt>
      <trkpt lat="49.42735" lon="0.22493">
        <ele>5.7</ele>
        <time>2022-05-31T08:36:39Z</time>
      </trkpt>
      <trkpt lat="49.42735" lon="0.22492">
        <ele>5.7</ele>
        <time>2022-05-31T08:36:40Z</time>
      </trkpt>
      <trkpt lat="49.42734" lon="0.22488">
        <ele>5.7</ele>
        <time>2022-05-31T08:36:41Z</time>
      </trkpt>
      <trkpt lat="49.42734" lon="0.22487">
        <ele>5.7</ele>
        <time>2022-05-31T08:36:42Z</time>
      </trkpt>
      <trkpt lat="49.42734" lon="0.22486">
        <ele>5.7</ele>
        <time>2022-05-31T08:36:43Z</time>
      </trkpt>
      <trkpt lat="49.42734" lon="0.22484">
        <ele>5.7</ele>
        <time>2022-05-31T08:36:44Z</time>
      </trkpt>
      <trkpt lat="49.42734" lon="0.22482">
        <ele>5.7</ele>
        <time>2022-05-31T08:36:45Z</time>
      </trkpt>
      <trkpt lat="49.42733" lon="0.2248">
        <ele>5.7</ele>
        <time>2022-05-31T08:36:47Z</time>
      </trkpt>
      <trkpt lat="49.42733" lon="0.22478">
        <ele>5.7</ele>
        <time>2022-05-31T08:36:48Z</time>
      </trkpt>
      <trkpt lat="49.42734" lon="0.22476">
        <ele>5.7</ele>
        <time>2022-05-31T08:36:49Z</time>
      </trkpt>
      <trkpt lat="49.42734" lon="0.22474">
        <ele>5.7</ele>
        <time>2022-05-31T08:36:50Z</time>
      </trkpt>
      <trkpt lat="49.42735" lon="0.22472">
        <ele>5.7</ele>
        <time>2022-05-31T08:36:51Z</time>
      </trkpt>
      <trkpt lat="49.42735" lon="0.22471">
        <ele>5.6</ele>
        <time>2022-05-31T08:36:52Z</time>
      </trkpt>
      <trkpt lat="49.42736" lon="0.22469">
        <ele>5.6</ele>
        <time>2022-05-31T08:36:53Z</time>
      </trkpt>
      <trkpt lat="49.42736" lon="0.22467">
        <ele>5.6</ele>
        <time>2022-05-31T08:36:54Z</time>
      </trkpt>
      <trkpt lat="49.42737" lon="0.22463">
        <ele>5.6</ele>
        <time>2022-05-31T08:36:56Z</time>
      </trkpt>
      <trkpt lat="49.42737" lon="0.22462">
        <ele>5.6</ele>
        <time>2022-05-31T08:36:57Z</time>
      </trkpt>
      <trkpt lat="49.42737" lon="0.2246">
        <ele>5.6</ele>
        <time>2022-05-31T08:36:58Z</time>
      </trkpt>
      <trkpt lat="49.42737" lon="0.22459">
        <ele>5.6</ele>
        <time>2022-05-31T08:36:59Z</time>
      </trkpt>
      <trkpt lat="49.42738" lon="0.22457">
        <ele>5.6</ele>
        <time>2022-05-31T08:37:00Z</time>
      </trkpt>
      <trkpt lat="49.42739" lon="0.22454">
        <ele>5.6</ele>
        <time>2022-05-31T08:37:01Z</time>
      </trkpt>
      <trkpt lat="49.4274" lon="0.22453">
        <ele>5.6</ele>
        <time>2022-05-31T08:37:02Z</time>
      </trkpt>
      <trkpt lat="49.4274" lon="0.22451">
        <ele>5.6</ele>
        <time>2022-05-31T08:37:03Z</time>
      </trkpt>
      <trkpt lat="49.4274" lon="0.2245">
        <ele>5.6</ele>
        <time>2022-05-31T08:37:04Z</time>
      </trkpt>
      <trkpt lat="49.4274" lon="0.22448">
        <ele>5.6</ele>
        <time>2022-05-31T08:37:05Z</time>
      </trkpt>
      <trkpt lat="49.4274" lon="0.22446">
        <ele>5.5</ele>
        <time>2022-05-31T08:37:06Z</time>
      </trkpt>
      <trkpt lat="49.4274" lon="0.22445">
        <ele>5.5</ele>
        <time>2022-05-31T08:37:07Z</time>
      </trkpt>
      <trkpt lat="49.4274" lon="0.22443">
        <ele>5.5</ele>
        <time>2022-05-31T08:37:08Z</time>
      </trkpt>
      <trkpt lat="49.42739" lon="0.22442">
        <ele>5.5</ele>
        <time>2022-05-31T08:37:09Z</time>
      </trkpt>
      <trkpt lat="49.42738" lon="0.22442">
        <ele>5.5</ele>
        <time>2022-05-31T08:37:10Z</time>
      </trkpt>
      <trkpt lat="49.42737" lon="0.22441">
        <ele>5.5</ele>
        <time>2022-05-31T08:37:11Z</time>
      </trkpt>
      <trkpt lat="49.42737" lon="0.22441">
        <ele>5.5</ele>
        <time>2022-05-31T08:37:12Z</time>
      </trkpt>
      <trkpt lat="49.42736" lon="0.2244">
        <ele>5.5</ele>
        <time>2022-05-31T08:37:13Z</time>
      </trkpt>
      <trkpt lat="49.42735" lon="0.22442">
        <ele>5.5</ele>
        <time>2022-05-31T08:37:14Z</time>
      </trkpt>
      <trkpt lat="49.42734" lon="0.22443">
        <ele>5.4</ele>
        <time>2022-05-31T08:37:15Z</time>
      </trkpt>
      <trkpt lat="49.42734" lon="0.22443">
        <ele>5.4</ele>
        <time>2022-05-31T08:37:16Z</time>
      </trkpt>
      <trkpt lat="49.42734" lon="0.22443">
        <ele>5.4</ele>
        <time>2022-05-31T08:37:17Z</time>
      </trkpt>
      <trkpt lat="49.42734" lon="0.22444">
        <ele>5.4</ele>
        <time>2022-05-31T08:37:18Z</time>
      </trkpt>
      <trkpt lat="49.42734" lon="0.22444">
        <ele>5.4</ele>
        <time>2022-05-31T08:37:19Z</time>
      </trkpt>
      <trkpt lat="49.42734" lon="0.22444">
        <ele>5.4</ele>
        <time>2022-05-31T08:37:21Z</time>
      </trkpt>
      <trkpt lat="49.42734" lon="0.22444">
        <ele>5.4</ele>
        <time>2022-05-31T08:37:25Z</time>
      </trkpt>
      <trkpt lat="49.42735" lon="0.22444">
        <ele>5.4</ele>
        <time>2022-05-31T08:37:27Z</time>
      </trkpt>
      <trkpt lat="49.42735" lon="0.22444">
        <ele>5.4</ele>
        <time>2022-05-31T08:37:28Z</time>
      </trkpt>
      <trkpt lat="49.42735" lon="0.22444">
        <ele>5.4</ele>
        <time>2022-05-31T08:37:29Z</time>
      </trkpt>
      <trkpt lat="49.42735" lon="0.22444">
        <ele>5.4</ele>
        <time>2022-05-31T08:37:30Z</time>
      </trkpt>
      <trkpt lat="49.42735" lon="0.22444">
        <ele>5.4</ele>
        <time>2022-05-31T08:37:31Z</time>
      </trkpt>
      <trkpt lat="49.42735" lon="0.22445">
        <ele>5.4</ele>
        <time>2022-05-31T08:37:32Z</time>
      </trkpt>
      <trkpt lat="49.42735" lon="0.22445">
        <ele>5.4</ele>
        <time>2022-05-31T08:37:33Z</time>
      </trkpt>
      <trkpt lat="49.42736" lon="0.22445">
        <ele>5.4</ele>
        <time>2022-05-31T08:37:34Z</time>
      </trkpt>
      <trkpt lat="49.42736" lon="0.22445">
        <ele>5.4</ele>
        <time>2022-05-31T08:37:35Z</time>
      </trkpt>
      <trkpt lat="49.42736" lon="0.22445">
        <ele>5.4</ele>
        <time>2022-05-31T08:37:36Z</time>
      </trkpt>
      <trkpt lat="49.42736" lon="0.22445">
        <ele>5.4</ele>
        <time>2022-05-31T08:37:37Z</time>
      </trkpt>
      <trkpt lat="49.42736" lon="0.22445">
        <ele>5.4</ele>
        <time>2022-05-31T08:37:38Z</time>
      </trkpt>
      <trkpt lat="49.42736" lon="0.22445">
        <ele>5.4</ele>
        <time>2022-05-31T08:37:39Z</time>
      </trkpt>
      <trkpt lat="49.42737" lon="0.22445">
        <ele>5.4</ele>
        <time>2022-05-31T08:37:40Z</time>
      </trkpt>
      <trkpt lat="49.42737" lon="0.22445">
        <ele>5.4</ele>
        <time>2022-05-31T08:37:41Z</time>
      </trkpt>
      <trkpt lat="49.42737" lon="0.22446">
        <ele>5.4</ele>
        <time>2022-05-31T08:37:42Z</time>
      </trkpt>
      <trkpt lat="49.42737" lon="0.22446">
        <ele>5.4</ele>
        <time>2022-05-31T08:37:43Z</time>
      </trkpt>
      <trkpt lat="49.42737" lon="0.22446">
        <ele>5.4</ele>
        <time>2022-05-31T08:37:44Z</time>
      </trkpt>
      <trkpt lat="49.42737" lon="0.22446">
        <ele>5.4</ele>
        <time>2022-05-31T08:37:45Z</time>
      </trkpt>
      <trkpt lat="49.42737" lon="0.22446">
        <ele>5.4</ele>
        <time>2022-05-31T08:37:46Z</time>
      </trkpt>
      <trkpt lat="49.42738" lon="0.22446">
        <ele>5.4</ele>
        <time>2022-05-31T08:37:47Z</time>
      </trkpt>
      <trkpt lat="49.42738" lon="0.22446">
        <ele>5.4</ele>
        <time>2022-05-31T08:37:48Z</time>
      </trkpt>
      <trkpt lat="49.42738" lon="0.22446">
        <ele>5.4</ele>
        <time>2022-05-31T08:37:49Z</time>
      </trkpt>
      <trkpt lat="49.42738" lon="0.22446">
        <ele>5.4</ele>
        <time>2022-05-31T08:37:50Z</time>
      </trkpt>
      <trkpt lat="49.4274" lon="0.22447">
        <ele>5.4</ele>
        <time>2022-05-31T08:37:51Z</time>
      </trkpt>
      <trkpt lat="49.4274" lon="0.22447">
        <ele>5.4</ele>
        <time>2022-05-31T08:37:52Z</time>
      </trkpt>
      <trkpt lat="49.4274" lon="0.22447">
        <ele>5.4</ele>
        <time>2022-05-31T08:37:53Z</time>
      </trkpt>
      <trkpt lat="49.4274" lon="0.22447">
        <ele>5.3</ele>
        <time>2022-05-31T08:37:54Z</time>
      </trkpt>
      <trkpt lat="49.4274" lon="0.22447">
        <ele>5.3</ele>
        <time>2022-05-31T08:37:55Z</time>
      </trkpt>
      <trkpt lat="49.4274" lon="0.22447">
        <ele>5.3</ele>
        <time>2022-05-31T08:37:56Z</time>
      </trkpt>
      <trkpt lat="49.4274" lon="0.22446">
        <ele>5.3</ele>
        <time>2022-05-31T08:37:57Z</time>
      </trkpt>
      <trkpt lat="49.4274" lon="0.22446">
        <ele>5.3</ele>
        <time>2022-05-31T08:37:58Z</time>
      </trkpt>
      <trkpt lat="49.4274" lon="0.22444">
        <ele>5.3</ele>
        <time>2022-05-31T08:37:59Z</time>
      </trkpt>
      <trkpt lat="49.42741" lon="0.22442">
        <ele>5.3</ele>
        <time>2022-05-31T08:38:01Z</time>
      </trkpt>
      <trkpt lat="49.42741" lon="0.22439">
        <ele>5.3</ele>
        <time>2022-05-31T08:38:02Z</time>
      </trkpt>
      <trkpt lat="49.42741" lon="0.22438">
        <ele>5.2</ele>
        <time>2022-05-31T08:38:03Z</time>
      </trkpt>
      <trkpt lat="49.42742" lon="0.22435">
        <ele>5.2</ele>
        <time>2022-05-31T08:38:05Z</time>
      </trkpt>
      <trkpt lat="49.42742" lon="0.22434">
        <ele>5.2</ele>
        <time>2022-05-31T08:38:06Z</time>
      </trkpt>
      <trkpt lat="49.42742" lon="0.22433">
        <ele>5.2</ele>
        <time>2022-05-31T08:38:07Z</time>
      </trkpt>
      <trkpt lat="49.42742" lon="0.2243">
        <ele>5.2</ele>
        <time>2022-05-31T08:38:08Z</time>
      </trkpt>
      <trkpt lat="49.42742" lon="0.22428">
        <ele>5.1</ele>
        <time>2022-05-31T08:38:10Z</time>
      </trkpt>
      <trkpt lat="49.42743" lon="0.22426">
        <ele>5.1</ele>
        <time>2022-05-31T08:38:11Z</time>
      </trkpt>
      <trkpt lat="49.42743" lon="0.22424">
        <ele>5.1</ele>
        <time>2022-05-31T08:38:12Z</time>
      </trkpt>
      <trkpt lat="49.42744" lon="0.22422">
        <ele>5.1</ele>
        <time>2022-05-31T08:38:13Z</time>
      </trkpt>
      <trkpt lat="49.42744" lon="0.2242">
        <ele>5</ele>
        <time>2022-05-31T08:38:15Z</time>
      </trkpt>
      <trkpt lat="49.42745" lon="0.22419">
        <ele>5</ele>
        <time>2022-05-31T08:38:16Z</time>
      </trkpt>
      <trkpt lat="49.42747" lon="0.22417">
        <ele>5</ele>
        <time>2022-05-31T08:38:17Z</time>
      </trkpt>
      <trkpt lat="49.42747" lon="0.22415">
        <ele>5</ele>
        <time>2022-05-31T08:38:18Z</time>
      </trkpt>
      <trkpt lat="49.42748" lon="0.22414">
        <ele>5</ele>
        <time>2022-05-31T08:38:19Z</time>
      </trkpt>
      <trkpt lat="49.42748" lon="0.22413">
        <ele>4.9</ele>
        <time>2022-05-31T08:38:20Z</time>
      </trkpt>
      <trkpt lat="49.42749" lon="0.22412">
        <ele>4.9</ele>
        <time>2022-05-31T08:38:21Z</time>
      </trkpt>
      <trkpt lat="49.42749" lon="0.22411">
        <ele>4.9</ele>
        <time>2022-05-31T08:38:22Z</time>
      </trkpt>
      <trkpt lat="49.4275" lon="0.2241">
        <ele>4.9</ele>
        <time>2022-05-31T08:38:23Z</time>
      </trkpt>
      <trkpt lat="49.42751" lon="0.22411">
        <ele>4.9</ele>
        <time>2022-05-31T08:38:24Z</time>
      </trkpt>
      <trkpt lat="49.42752" lon="0.22411">
        <ele>4.9</ele>
        <time>2022-05-31T08:38:26Z</time>
      </trkpt>
      <trkpt lat="49.42753" lon="0.22412">
        <ele>4.9</ele>
        <time>2022-05-31T08:38:27Z</time>
      </trkpt>
      <trkpt lat="49.42754" lon="0.22412">
        <ele>4.8</ele>
        <time>2022-05-31T08:38:28Z</time>
      </trkpt>
      <trkpt lat="49.42756" lon="0.22412">
        <ele>4.8</ele>
        <time>2022-05-31T08:38:29Z</time>
      </trkpt>
      <trkpt lat="49.42757" lon="0.22411">
        <ele>4.8</ele>
        <time>2022-05-31T08:38:30Z</time>
      </trkpt>
      <trkpt lat="49.42758" lon="0.22411">
        <ele>4.8</ele>
        <time>2022-05-31T08:38:31Z</time>
      </trkpt>
      <trkpt lat="49.42761" lon="0.2241">
        <ele>4.8</ele>
        <time>2022-05-31T08:38:32Z</time>
      </trkpt>
      <trkpt lat="49.42762" lon="0.2241">
        <ele>4.8</ele>
        <time>2022-05-31T08:38:33Z</time>
      </trkpt>
      <trkpt lat="49.42765" lon="0.2241">
        <ele>4.7</ele>
        <time>2022-05-31T08:38:34Z</time>
      </trkpt>
      <trkpt lat="49.42766" lon="0.2241">
        <ele>4.7</ele>
        <time>2022-05-31T08:38:35Z</time>
      </trkpt>
      <trkpt lat="49.42767" lon="0.22409">
        <ele>4.7</ele>
        <time>2022-05-31T08:38:36Z</time>
      </trkpt>
      <trkpt lat="49.42769" lon="0.22409">
        <ele>4.7</ele>
        <time>2022-05-31T08:38:38Z</time>
      </trkpt>
      <trkpt lat="49.42771" lon="0.22409">
        <ele>4.7</ele>
        <time>2022-05-31T08:38:39Z</time>
      </trkpt>
      <trkpt lat="49.42772" lon="0.22409">
        <ele>4.7</ele>
        <time>2022-05-31T08:38:40Z</time>
      </trkpt>
      <trkpt lat="49.42774" lon="0.22409">
        <ele>4.7</ele>
        <time>2022-05-31T08:38:41Z</time>
      </trkpt>
      <trkpt lat="49.42775" lon="0.22409">
        <ele>4.7</ele>
        <time>2022-05-31T08:38:42Z</time>
      </trkpt>
      <trkpt lat="49.42776" lon="0.22408">
        <ele>4.7</ele>
        <time>2022-05-31T08:38:43Z</time>
      </trkpt>
      <trkpt lat="49.42778" lon="0.22407">
        <ele>4.7</ele>
        <time>2022-05-31T08:38:44Z</time>
      </trkpt>
      <trkpt lat="49.4278" lon="0.22407">
        <ele>4.6</ele>
        <time>2022-05-31T08:38:46Z</time>
      </trkpt>
      <trkpt lat="49.42781" lon="0.22406">
        <ele>4.6</ele>
        <time>2022-05-31T08:38:47Z</time>
      </trkpt>
      <trkpt lat="49.42782" lon="0.22406">
        <ele>4.6</ele>
        <time>2022-05-31T08:38:48Z</time>
      </trkpt>
      <trkpt lat="49.42783" lon="0.22407">
        <ele>4.6</ele>
        <time>2022-05-31T08:38:49Z</time>
      </trkpt>
      <trkpt lat="49.42786" lon="0.22408">
        <ele>4.6</ele>
        <time>2022-05-31T08:38:50Z</time>
      </trkpt>
      <trkpt lat="49.42787" lon="0.22408">
        <ele>4.6</ele>
        <time>2022-05-31T08:38:52Z</time>
      </trkpt>
      <trkpt lat="49.42788" lon="0.22409">
        <ele>4.6</ele>
        <time>2022-05-31T08:38:53Z</time>
      </trkpt>
      <trkpt lat="49.42788" lon="0.22409">
        <ele>4.6</ele>
        <time>2022-05-31T08:38:54Z</time>
      </trkpt>
      <trkpt lat="49.42789" lon="0.2241">
        <ele>4.6</ele>
        <time>2022-05-31T08:38:55Z</time>
      </trkpt>
      <trkpt lat="49.42791" lon="0.2241">
        <ele>4.6</ele>
        <time>2022-05-31T08:38:56Z</time>
      </trkpt>
      <trkpt lat="49.42792" lon="0.2241">
        <ele>4.6</ele>
        <time>2022-05-31T08:38:57Z</time>
      </trkpt>
      <trkpt lat="49.42793" lon="0.2241">
        <ele>4.6</ele>
        <time>2022-05-31T08:38:58Z</time>
      </trkpt>
      <trkpt lat="49.42794" lon="0.22409">
        <ele>4.6</ele>
        <time>2022-05-31T08:38:59Z</time>
      </trkpt>
      <trkpt lat="49.42796" lon="0.22408">
        <ele>4.6</ele>
        <time>2022-05-31T08:39:00Z</time>
      </trkpt>
      <trkpt lat="49.42798" lon="0.22407">
        <ele>4.7</ele>
        <time>2022-05-31T08:39:02Z</time>
      </trkpt>
      <trkpt lat="49.42798" lon="0.22406">
        <ele>4.7</ele>
        <time>2022-05-31T08:39:03Z</time>
      </trkpt>
      <trkpt lat="49.42799" lon="0.22406">
        <ele>4.7</ele>
        <time>2022-05-31T08:39:04Z</time>
      </trkpt>
      <trkpt lat="49.42801" lon="0.22405">
        <ele>4.7</ele>
        <time>2022-05-31T08:39:05Z</time>
      </trkpt>
      <trkpt lat="49.42803" lon="0.22405">
        <ele>4.7</ele>
        <time>2022-05-31T08:39:06Z</time>
      </trkpt>
      <trkpt lat="49.42803" lon="0.22405">
        <ele>4.7</ele>
        <time>2022-05-31T08:39:07Z</time>
      </trkpt>
      <trkpt lat="49.42804" lon="0.22406">
        <ele>4.7</ele>
        <time>2022-05-31T08:39:08Z</time>
      </trkpt>
      <trkpt lat="49.42804" lon="0.22407">
        <ele>4.7</ele>
        <time>2022-05-31T08:39:09Z</time>
      </trkpt>
      <trkpt lat="49.42805" lon="0.22407">
        <ele>4.7</ele>
        <time>2022-05-31T08:39:10Z</time>
      </trkpt>
      <trkpt lat="49.42805" lon="0.22407">
        <ele>4.7</ele>
        <time>2022-05-31T08:39:11Z</time>
      </trkpt>
      <trkpt lat="49.42806" lon="0.22406">
        <ele>4.7</ele>
        <time>2022-05-31T08:39:12Z</time>
      </trkpt>
      <trkpt lat="49.42807" lon="0.22405">
        <ele>4.7</ele>
        <time>2022-05-31T08:39:13Z</time>
      </trkpt>
      <trkpt lat="49.42808" lon="0.22404">
        <ele>4.8</ele>
        <time>2022-05-31T08:39:14Z</time>
      </trkpt>
      <trkpt lat="49.42809" lon="0.22403">
        <ele>4.8</ele>
        <time>2022-05-31T08:39:16Z</time>
      </trkpt>
      <trkpt lat="49.4281" lon="0.22403">
        <ele>4.8</ele>
        <time>2022-05-31T08:39:17Z</time>
      </trkpt>
      <trkpt lat="49.42811" lon="0.22402">
        <ele>4.8</ele>
        <time>2022-05-31T08:39:18Z</time>
      </trkpt>
      <trkpt lat="49.42811" lon="0.22401">
        <ele>4.8</ele>
        <time>2022-05-31T08:39:19Z</time>
      </trkpt>
      <trkpt lat="49.42812" lon="0.224">
        <ele>4.8</ele>
        <time>2022-05-31T08:39:20Z</time>
      </trkpt>
      <trkpt lat="49.42812" lon="0.22399">
        <ele>4.8</ele>
        <time>2022-05-31T08:39:21Z</time>
      </trkpt>
      <trkpt lat="49.42812" lon="0.22398">
        <ele>4.8</ele>
        <time>2022-05-31T08:39:22Z</time>
      </trkpt>
      <trkpt lat="49.42812" lon="0.22397">
        <ele>4.8</ele>
        <time>2022-05-31T08:39:23Z</time>
      </trkpt>
      <trkpt lat="49.42813" lon="0.22395">
        <ele>4.8</ele>
        <time>2022-05-31T08:39:24Z</time>
      </trkpt>
      <trkpt lat="49.42813" lon="0.22395">
        <ele>4.8</ele>
        <time>2022-05-31T08:39:26Z</time>
      </trkpt>
      <trkpt lat="49.42814" lon="0.22394">
        <ele>4.8</ele>
        <time>2022-05-31T08:39:27Z</time>
      </trkpt>
      <trkpt lat="49.42814" lon="0.22393">
        <ele>4.8</ele>
        <time>2022-05-31T08:39:28Z</time>
      </trkpt>
      <trkpt lat="49.42814" lon="0.22393">
        <ele>4.8</ele>
        <time>2022-05-31T08:39:29Z</time>
      </trkpt>
      <trkpt lat="49.42814" lon="0.22392">
        <ele>4.8</ele>
        <time>2022-05-31T08:39:30Z</time>
      </trkpt>
      <trkpt lat="49.42815" lon="0.22391">
        <ele>4.8</ele>
        <time>2022-05-31T08:39:31Z</time>
      </trkpt>
      <trkpt lat="49.42817" lon="0.22389">
        <ele>4.8</ele>
        <time>2022-05-31T08:39:32Z</time>
      </trkpt>
      <trkpt lat="49.42819" lon="0.22388">
        <ele>4.9</ele>
        <time>2022-05-31T08:39:34Z</time>
      </trkpt>
      <trkpt lat="49.4282" lon="0.22387">
        <ele>4.4</ele>
        <time>2022-05-31T08:39:35Z</time>
      </trkpt>
      <trkpt lat="49.42821" lon="0.22385">
        <ele>4.3</ele>
        <time>2022-05-31T08:39:36Z</time>
      </trkpt>
      <trkpt lat="49.42822" lon="0.22384">
        <ele>4.2</ele>
        <time>2022-05-31T08:39:37Z</time>
      </trkpt>
      <trkpt lat="49.42822" lon="0.22382">
        <ele>4.1</ele>
        <time>2022-05-31T08:39:39Z</time>
      </trkpt>
      <trkpt lat="49.42822" lon="0.22381">
        <ele>4</ele>
        <time>2022-05-31T08:39:40Z</time>
      </trkpt>
      <trkpt lat="49.42823" lon="0.2238">
        <ele>4</ele>
        <time>2022-05-31T08:39:41Z</time>
      </trkpt>
      <trkpt lat="49.42823" lon="0.22378">
        <ele>3.9</ele>
        <time>2022-05-31T08:39:42Z</time>
      </trkpt>
      <trkpt lat="49.42823" lon="0.22377">
        <ele>3.8</ele>
        <time>2022-05-31T08:39:43Z</time>
      </trkpt>
      <trkpt lat="49.42822" lon="0.22376">
        <ele>3.8</ele>
        <time>2022-05-31T08:39:44Z</time>
      </trkpt>
      <trkpt lat="49.42822" lon="0.22374">
        <ele>3.7</ele>
        <time>2022-05-31T08:39:45Z</time>
      </trkpt>
      <trkpt lat="49.42822" lon="0.22371">
        <ele>3.5</ele>
        <time>2022-05-31T08:39:47Z</time>
      </trkpt>
      <trkpt lat="49.42822" lon="0.22369">
        <ele>3.4</ele>
        <time>2022-05-31T08:39:48Z</time>
      </trkpt>
      <trkpt lat="49.42822" lon="0.22368">
        <ele>3.3</ele>
        <time>2022-05-31T08:39:49Z</time>
      </trkpt>
      <trkpt lat="49.42822" lon="0.22366">
        <ele>3.2</ele>
        <time>2022-05-31T08:39:50Z</time>
      </trkpt>
      <trkpt lat="49.42822" lon="0.22364">
        <ele>3.1</ele>
        <time>2022-05-31T08:39:51Z</time>
      </trkpt>
      <trkpt lat="49.42823" lon="0.2236">
        <ele>2.9</ele>
        <time>2022-05-31T08:39:52Z</time>
      </trkpt>
      <trkpt lat="49.42823" lon="0.22358">
        <ele>2.8</ele>
        <time>2022-05-31T08:39:53Z</time>
      </trkpt>
      <trkpt lat="49.42823" lon="0.22356">
        <ele>2.6</ele>
        <time>2022-05-31T08:39:55Z</time>
      </trkpt>
      <trkpt lat="49.42823" lon="0.22354">
        <ele>2.5</ele>
        <time>2022-05-31T08:39:56Z</time>
      </trkpt>
      <trkpt lat="49.42823" lon="0.22352">
        <ele>2.4</ele>
        <time>2022-05-31T08:39:57Z</time>
      </trkpt>
      <trkpt lat="49.42824" lon="0.22349">
        <ele>2.2</ele>
        <time>2022-05-31T08:39:59Z</time>
      </trkpt>
      <trkpt lat="49.42824" lon="0.22348">
        <ele>2.2</ele>
        <time>2022-05-31T08:40:00Z</time>
      </trkpt>
      <trkpt lat="49.42824" lon="0.22347">
        <ele>2.1</ele>
        <time>2022-05-31T08:40:01Z</time>
      </trkpt>
      <trkpt lat="49.42824" lon="0.22346">
        <ele>2</ele>
        <time>2022-05-31T08:40:02Z</time>
      </trkpt>
      <trkpt lat="49.42824" lon="0.22344">
        <ele>1.9</ele>
        <time>2022-05-31T08:40:03Z</time>
      </trkpt>
      <trkpt lat="49.42825" lon="0.22343">
        <ele>1.8</ele>
        <time>2022-05-31T08:40:04Z</time>
      </trkpt>
      <trkpt lat="49.42825" lon="0.22342">
        <ele>1.8</ele>
        <time>2022-05-31T08:40:05Z</time>
      </trkpt>
      <trkpt lat="49.42825" lon="0.2234">
        <ele>1.6</ele>
        <time>2022-05-31T08:40:07Z</time>
      </trkpt>
      <trkpt lat="49.42824" lon="0.22338">
        <ele>1.5</ele>
        <time>2022-05-31T08:40:08Z</time>
      </trkpt>
      <trkpt lat="49.42824" lon="0.22336">
        <ele>1.4</ele>
        <time>2022-05-31T08:40:09Z</time>
      </trkpt>
      <trkpt lat="49.42824" lon="0.22335">
        <ele>1.3</ele>
        <time>2022-05-31T08:40:10Z</time>
      </trkpt>
      <trkpt lat="49.42824" lon="0.22333">
        <ele>1.2</ele>
        <time>2022-05-31T08:40:12Z</time>
      </trkpt>
      <trkpt lat="49.42824" lon="0.22331">
        <ele>1.1</ele>
        <time>2022-05-31T08:40:13Z</time>
      </trkpt>
      <trkpt lat="49.42825" lon="0.2233">
        <ele>1</ele>
        <time>2022-05-31T08:40:14Z</time>
      </trkpt>
      <trkpt lat="49.42825" lon="0.22328">
        <ele>0.9</ele>
        <time>2022-05-31T08:40:15Z</time>
      </trkpt>
      <trkpt lat="49.42825" lon="0.22327">
        <ele>0.8</ele>
        <time>2022-05-31T08:40:17Z</time>
      </trkpt>
      <trkpt lat="49.42825" lon="0.22325">
        <ele>0.7</ele>
        <time>2022-05-31T08:40:18Z</time>
      </trkpt>
      <trkpt lat="49.42826" lon="0.22323">
        <ele>0.6</ele>
        <time>2022-05-31T08:40:19Z</time>
      </trkpt>
      <trkpt lat="49.42826" lon="0.22322">
        <ele>0.5</ele>
        <time>2022-05-31T08:40:20Z</time>
      </trkpt>
      <trkpt lat="49.42826" lon="0.22321">
        <ele>0.5</ele>
        <time>2022-05-31T08:40:21Z</time>
      </trkpt>
      <trkpt lat="49.42826" lon="0.2232">
        <ele>0.4</ele>
        <time>2022-05-31T08:40:22Z</time>
      </trkpt>
      <trkpt lat="49.42826" lon="0.22317">
        <ele>0.3</ele>
        <time>2022-05-31T08:40:24Z</time>
      </trkpt>
      <trkpt lat="49.42826" lon="0.22316">
        <ele>0.2</ele>
        <time>2022-05-31T08:40:25Z</time>
      </trkpt>
      <trkpt lat="49.42827" lon="0.22315">
        <ele>0.3</ele>
        <time>2022-05-31T08:40:26Z</time>
      </trkpt>
      <trkpt lat="49.42827" lon="0.22313">
        <ele>0.3</ele>
        <time>2022-05-31T08:40:27Z</time>
      </trkpt>
      <trkpt lat="49.42827" lon="0.22312">
        <ele>0.4</ele>
        <time>2022-05-31T08:40:28Z</time>
      </trkpt>
      <trkpt lat="49.42827" lon="0.2231">
        <ele>0.4</ele>
        <time>2022-05-31T08:40:29Z</time>
      </trkpt>
      <trkpt lat="49.42827" lon="0.22309">
        <ele>0.5</ele>
        <time>2022-05-31T08:40:30Z</time>
      </trkpt>
      <trkpt lat="49.42826" lon="0.22307">
        <ele>0.6</ele>
        <time>2022-05-31T08:40:32Z</time>
      </trkpt>
      <trkpt lat="49.42826" lon="0.22306">
        <ele>0.6</ele>
        <time>2022-05-31T08:40:33Z</time>
      </trkpt>
      <trkpt lat="49.42825" lon="0.22304">
        <ele>0.7</ele>
        <time>2022-05-31T08:40:34Z</time>
      </trkpt>
      <trkpt lat="49.42824" lon="0.22303">
        <ele>0.8</ele>
        <time>2022-05-31T08:40:35Z</time>
      </trkpt>
      <trkpt lat="49.42822" lon="0.22303">
        <ele>0.9</ele>
        <time>2022-05-31T08:40:37Z</time>
      </trkpt>
      <trkpt lat="49.42822" lon="0.22303">
        <ele>0.9</ele>
        <time>2022-05-31T08:40:38Z</time>
      </trkpt>
      <trkpt lat="49.42822" lon="0.22303">
        <ele>0.9</ele>
        <time>2022-05-31T08:40:39Z</time>
      </trkpt>
      <trkpt lat="49.42822" lon="0.22304">
        <ele>1</ele>
        <time>2022-05-31T08:40:40Z</time>
      </trkpt>
      <trkpt lat="49.42822" lon="0.22304">
        <ele>1</ele>
        <time>2022-05-31T08:40:41Z</time>
      </trkpt>
      <trkpt lat="49.42823" lon="0.22304">
        <ele>1</ele>
        <time>2022-05-31T08:40:42Z</time>
      </trkpt>
      <trkpt lat="49.42823" lon="0.22304">
        <ele>1</ele>
        <time>2022-05-31T08:40:43Z</time>
      </trkpt>
      <trkpt lat="49.42823" lon="0.22304">
        <ele>1</ele>
        <time>2022-05-31T08:40:44Z</time>
      </trkpt>
      <trkpt lat="49.42823" lon="0.22304">
        <ele>1.1</ele>
        <time>2022-05-31T08:40:45Z</time>
      </trkpt>
      <trkpt lat="49.42823" lon="0.22304">
        <ele>1.1</ele>
        <time>2022-05-31T08:40:46Z</time>
      </trkpt>
      <trkpt lat="49.42823" lon="0.22304">
        <ele>1.1</ele>
        <time>2022-05-31T08:40:47Z</time>
      </trkpt>
      <trkpt lat="49.42824" lon="0.22304">
        <ele>1.1</ele>
        <time>2022-05-31T08:40:48Z</time>
      </trkpt>
      <trkpt lat="49.42824" lon="0.22304">
        <ele>1.1</ele>
        <time>2022-05-31T08:40:49Z</time>
      </trkpt>
      <trkpt lat="49.42824" lon="0.22304">
        <ele>1.1</ele>
        <time>2022-05-31T08:40:50Z</time>
      </trkpt>
      <trkpt lat="49.42824" lon="0.22304">
        <ele>1.1</ele>
        <time>2022-05-31T08:40:51Z</time>
      </trkpt>
      <trkpt lat="49.42825" lon="0.22304">
        <ele>1.2</ele>
        <time>2022-05-31T08:40:52Z</time>
      </trkpt>
      <trkpt lat="49.42825" lon="0.22305">
        <ele>1.2</ele>
        <time>2022-05-31T08:40:53Z</time>
      </trkpt>
      <trkpt lat="49.42825" lon="0.22305">
        <ele>1.2</ele>
        <time>2022-05-31T08:40:54Z</time>
      </trkpt>
      <trkpt lat="49.42825" lon="0.22305">
        <ele>1.2</ele>
        <time>2022-05-31T08:40:55Z</time>
      </trkpt>
      <trkpt lat="49.42825" lon="0.22305">
        <ele>1.2</ele>
        <time>2022-05-31T08:40:56Z</time>
      </trkpt>
      <trkpt lat="49.42825" lon="0.22305">
        <ele>1.2</ele>
        <time>2022-05-31T08:40:57Z</time>
      </trkpt>
      <trkpt lat="49.42825" lon="0.22305">
        <ele>1.2</ele>
        <time>2022-05-31T08:40:58Z</time>
      </trkpt>
      <trkpt lat="49.42825" lon="0.22306">
        <ele>1.2</ele>
        <time>2022-05-31T08:41:00Z</time>
      </trkpt>
      <trkpt lat="49.42825" lon="0.22306">
        <ele>1.2</ele>
        <time>2022-05-31T08:41:02Z</time>
      </trkpt>
      <trkpt lat="49.42825" lon="0.22306">
        <ele>1.2</ele>
        <time>2022-05-31T08:41:03Z</time>
      </trkpt>
      <trkpt lat="49.42825" lon="0.22307">
        <ele>1.3</ele>
        <time>2022-05-31T08:41:04Z</time>
      </trkpt>
      <trkpt lat="49.42825" lon="0.22307">
        <ele>1.3</ele>
        <time>2022-05-31T08:41:05Z</time>
      </trkpt>
      <trkpt lat="49.42825" lon="0.22307">
        <ele>1.3</ele>
        <time>2022-05-31T08:41:06Z</time>
      </trkpt>
      <trkpt lat="49.42825" lon="0.22307">
        <ele>1.3</ele>
        <time>2022-05-31T08:41:07Z</time>
      </trkpt>
      <trkpt lat="49.42825" lon="0.22307">
        <ele>1.3</ele>
        <time>2022-05-31T08:41:08Z</time>
      </trkpt>
      <trkpt lat="49.42825" lon="0.22307">
        <ele>1.3</ele>
        <time>2022-05-31T08:41:09Z</time>
      </trkpt>
      <trkpt lat="49.42825" lon="0.22307">
        <ele>1.3</ele>
        <time>2022-05-31T08:41:10Z</time>
      </trkpt>
      <trkpt lat="49.42825" lon="0.22307">
        <ele>1.3</ele>
        <time>2022-05-31T08:41:11Z</time>
      </trkpt>
      <trkpt lat="49.42825" lon="0.22307">
        <ele>1.3</ele>
        <time>2022-05-31T08:41:12Z</time>
      </trkpt>
      <trkpt lat="49.42825" lon="0.22307">
        <ele>1.3</ele>
        <time>2022-05-31T08:41:13Z</time>
      </trkpt>
      <trkpt lat="49.42825" lon="0.22307">
        <ele>1.3</ele>
        <time>2022-05-31T08:41:14Z</time>
      </trkpt>
      <trkpt lat="49.42825" lon="0.22307">
        <ele>1.3</ele>
        <time>2022-05-31T08:41:15Z</time>
      </trkpt>
      <trkpt lat="49.42825" lon="0.22307">
        <ele>1.3</ele>
        <time>2022-05-31T08:41:16Z</time>
      </trkpt>
      <trkpt lat="49.42825" lon="0.22307">
        <ele>1.3</ele>
        <time>2022-05-31T08:41:17Z</time>
      </trkpt>
      <trkpt lat="49.42825" lon="0.22307">
        <ele>1.3</ele>
        <time>2022-05-31T08:41:18Z</time>
      </trkpt>
      <trkpt lat="49.42825" lon="0.22307">
        <ele>1.3</ele>
        <time>2022-05-31T08:41:20Z</time>
      </trkpt>
      <trkpt lat="49.42825" lon="0.22307">
        <ele>1.3</ele>
        <time>2022-05-31T08:41:21Z</time>
      </trkpt>
      <trkpt lat="49.42825" lon="0.22307">
        <ele>1.3</ele>
        <time>2022-05-31T08:41:22Z</time>
      </trkpt>
      <trkpt lat="49.42825" lon="0.22307">
        <ele>1.3</ele>
        <time>2022-05-31T08:41:23Z</time>
      </trkpt>
      <trkpt lat="49.42825" lon="0.22307">
        <ele>1.3</ele>
        <time>2022-05-31T08:41:24Z</time>
      </trkpt>
      <trkpt lat="49.42825" lon="0.22307">
        <ele>1.3</ele>
        <time>2022-05-31T08:41:25Z</time>
      </trkpt>
      <trkpt lat="49.42825" lon="0.22307">
        <ele>1.3</ele>
        <time>2022-05-31T08:41:26Z</time>
      </trkpt>
      <trkpt lat="49.42825" lon="0.22307">
        <ele>1.3</ele>
        <time>2022-05-31T08:41:27Z</time>
      </trkpt>
      <trkpt lat="49.42825" lon="0.22307">
        <ele>1.3</ele>
        <time>2022-05-31T08:41:28Z</time>
      </trkpt>
      <trkpt lat="49.42825" lon="0.22307">
        <ele>1.3</ele>
        <time>2022-05-31T08:41:29Z</time>
      </trkpt>
      <trkpt lat="49.42825" lon="0.22307">
        <ele>1.3</ele>
        <time>2022-05-31T08:41:30Z</time>
      </trkpt>
      <trkpt lat="49.42825" lon="0.22307">
        <ele>1.3</ele>
        <time>2022-05-31T08:41:31Z</time>
      </trkpt>
      <trkpt lat="49.42825" lon="0.22307">
        <ele>1.3</ele>
        <time>2022-05-31T08:41:32Z</time>
      </trkpt>
      <trkpt lat="49.42825" lon="0.22307">
        <ele>1.3</ele>
        <time>2022-05-31T08:41:33Z</time>
      </trkpt>
      <trkpt lat="49.42825" lon="0.22307">
        <ele>1.3</ele>
        <time>2022-05-31T08:41:34Z</time>
      </trkpt>
      <trkpt lat="49.42825" lon="0.22307">
        <ele>1.3</ele>
        <time>2022-05-31T08:41:35Z</time>
      </trkpt>
      <trkpt lat="49.42825" lon="0.22307">
        <ele>1.3</ele>
        <time>2022-05-31T08:41:36Z</time>
      </trkpt>
      <trkpt lat="49.42825" lon="0.22307">
        <ele>1.3</ele>
        <time>2022-05-31T08:41:37Z</time>
      </trkpt>
      <trkpt lat="49.42825" lon="0.22307">
        <ele>1.3</ele>
        <time>2022-05-31T08:41:38Z</time>
      </trkpt>
      <trkpt lat="49.42825" lon="0.22307">
        <ele>1.3</ele>
        <time>2022-05-31T08:41:39Z</time>
      </trkpt>
      <trkpt lat="49.42825" lon="0.22307">
        <ele>1.3</ele>
        <time>2022-05-31T08:41:40Z</time>
      </trkpt>
      <trkpt lat="49.42825" lon="0.22307">
        <ele>1.3</ele>
        <time>2022-05-31T08:41:41Z</time>
      </trkpt>
      <trkpt lat="49.42825" lon="0.22307">
        <ele>1.3</ele>
        <time>2022-05-31T08:41:42Z</time>
      </trkpt>
      <trkpt lat="49.42825" lon="0.22307">
        <ele>1.3</ele>
        <time>2022-05-31T08:41:43Z</time>
      </trkpt>
      <trkpt lat="49.42825" lon="0.22307">
        <ele>1.3</ele>
        <time>2022-05-31T08:41:44Z</time>
      </trkpt>
      <trkpt lat="49.42825" lon="0.22307">
        <ele>1.3</ele>
        <time>2022-05-31T08:41:45Z</time>
      </trkpt>
      <trkpt lat="49.42825" lon="0.22307">
        <ele>1.3</ele>
        <time>2022-05-31T08:41:46Z</time>
      </trkpt>
      <trkpt lat="49.42825" lon="0.22307">
        <ele>1.3</ele>
        <time>2022-05-31T08:41:47Z</time>
      </trkpt>
      <trkpt lat="49.42825" lon="0.22307">
        <ele>1.3</ele>
        <time>2022-05-31T08:41:49Z</time>
      </trkpt>
      <trkpt lat="49.42825" lon="0.22307">
        <ele>1.3</ele>
        <time>2022-05-31T08:41:50Z</time>
      </trkpt>
      <trkpt lat="49.42825" lon="0.22307">
        <ele>1.3</ele>
        <time>2022-05-31T08:41:51Z</time>
      </trkpt>
      <trkpt lat="49.42825" lon="0.22307">
        <ele>1.3</ele>
        <time>2022-05-31T08:41:52Z</time>
      </trkpt>
      <trkpt lat="49.42825" lon="0.22307">
        <ele>1.3</ele>
        <time>2022-05-31T08:41:53Z</time>
      </trkpt>
      <trkpt lat="49.42825" lon="0.22307">
        <ele>1.3</ele>
        <time>2022-05-31T08:41:54Z</time>
      </trkpt>
      <trkpt lat="49.42825" lon="0.22307">
        <ele>1.3</ele>
        <time>2022-05-31T08:41:55Z</time>
      </trkpt>
      <trkpt lat="49.42825" lon="0.22307">
        <ele>1.3</ele>
        <time>2022-05-31T08:41:56Z</time>
      </trkpt>
      <trkpt lat="49.42825" lon="0.22307">
        <ele>1.3</ele>
        <time>2022-05-31T08:41:57Z</time>
      </trkpt>
      <trkpt lat="49.42825" lon="0.22307">
        <ele>1.3</ele>
        <time>2022-05-31T08:41:58Z</time>
      </trkpt>
      <trkpt lat="49.42825" lon="0.22307">
        <ele>1.3</ele>
        <time>2022-05-31T08:41:59Z</time>
      </trkpt>
      <trkpt lat="49.42825" lon="0.22308">
        <ele>1.3</ele>
        <time>2022-05-31T08:42:00Z</time>
      </trkpt>
      <trkpt lat="49.42825" lon="0.22308">
        <ele>1.3</ele>
        <time>2022-05-31T08:42:01Z</time>
      </trkpt>
      <trkpt lat="49.42825" lon="0.22309">
        <ele>1.3</ele>
        <time>2022-05-31T08:42:02Z</time>
      </trkpt>
      <trkpt lat="49.42825" lon="0.22309">
        <ele>1.4</ele>
        <time>2022-05-31T08:42:03Z</time>
      </trkpt>
      <trkpt lat="49.42825" lon="0.22309">
        <ele>1.4</ele>
        <time>2022-05-31T08:42:04Z</time>
      </trkpt>
      <trkpt lat="49.42825" lon="0.22309">
        <ele>1.4</ele>
        <time>2022-05-31T08:42:06Z</time>
      </trkpt>
      <trkpt lat="49.42825" lon="0.22309">
        <ele>1.4</ele>
        <time>2022-05-31T08:42:07Z</time>
      </trkpt>
      <trkpt lat="49.42825" lon="0.2231">
        <ele>1.4</ele>
        <time>2022-05-31T08:42:08Z</time>
      </trkpt>
      <trkpt lat="49.42825" lon="0.22312">
        <ele>1.5</ele>
        <time>2022-05-31T08:42:10Z</time>
      </trkpt>
      <trkpt lat="49.42825" lon="0.22313">
        <ele>1.6</ele>
        <time>2022-05-31T08:42:11Z</time>
      </trkpt>
      <trkpt lat="49.42825" lon="0.22315">
        <ele>1.6</ele>
        <time>2022-05-31T08:42:12Z</time>
      </trkpt>
      <trkpt lat="49.42824" lon="0.22319">
        <ele>1.8</ele>
        <time>2022-05-31T08:42:13Z</time>
      </trkpt>
      <trkpt lat="49.42824" lon="0.2232">
        <ele>1.9</ele>
        <time>2022-05-31T08:42:14Z</time>
      </trkpt>
      <trkpt lat="49.42824" lon="0.22323">
        <ele>2</ele>
        <time>2022-05-31T08:42:15Z</time>
      </trkpt>
      <trkpt lat="49.42823" lon="0.22325">
        <ele>2.1</ele>
        <time>2022-05-31T08:42:16Z</time>
      </trkpt>
      <trkpt lat="49.42823" lon="0.22328">
        <ele>2.2</ele>
        <time>2022-05-31T08:42:17Z</time>
      </trkpt>
      <trkpt lat="49.42822" lon="0.2233">
        <ele>2.3</ele>
        <time>2022-05-31T08:42:18Z</time>
      </trkpt>
      <trkpt lat="49.42822" lon="0.22332">
        <ele>2.4</ele>
        <time>2022-05-31T08:42:19Z</time>
      </trkpt>
      <trkpt lat="49.42823" lon="0.22333">
        <ele>2.4</ele>
        <time>2022-05-31T08:42:20Z</time>
      </trkpt>
      <trkpt lat="49.42823" lon="0.22335">
        <ele>2.5</ele>
        <time>2022-05-31T08:42:22Z</time>
      </trkpt>
      <trkpt lat="49.42823" lon="0.22338">
        <ele>2.6</ele>
        <time>2022-05-31T08:42:23Z</time>
      </trkpt>
      <trkpt lat="49.42823" lon="0.2234">
        <ele>2.7</ele>
        <time>2022-05-31T08:42:24Z</time>
      </trkpt>
      <trkpt lat="49.42822" lon="0.22341">
        <ele>2.8</ele>
        <time>2022-05-31T08:42:25Z</time>
      </trkpt>
      <trkpt lat="49.42822" lon="0.22343">
        <ele>2.8</ele>
        <time>2022-05-31T08:42:27Z</time>
      </trkpt>
      <trkpt lat="49.42822" lon="0.22344">
        <ele>2.9</ele>
        <time>2022-05-31T08:42:28Z</time>
      </trkpt>
      <trkpt lat="49.42822" lon="0.22348">
        <ele>3</ele>
        <time>2022-05-31T08:42:29Z</time>
      </trkpt>
      <trkpt lat="49.42822" lon="0.22349">
        <ele>3.1</ele>
        <time>2022-05-31T08:42:30Z</time>
      </trkpt>
      <trkpt lat="49.42822" lon="0.22351">
        <ele>3.2</ele>
        <time>2022-05-31T08:42:31Z</time>
      </trkpt>
      <trkpt lat="49.42822" lon="0.22355">
        <ele>3.3</ele>
        <time>2022-05-31T08:42:32Z</time>
      </trkpt>
      <trkpt lat="49.42822" lon="0.22357">
        <ele>3.4</ele>
        <time>2022-05-31T08:42:33Z</time>
      </trkpt>
      <trkpt lat="49.42823" lon="0.22361">
        <ele>3.6</ele>
        <time>2022-05-31T08:42:34Z</time>
      </trkpt>
      <trkpt lat="49.42823" lon="0.22362">
        <ele>3.6</ele>
        <time>2022-05-31T08:42:35Z</time>
      </trkpt>
      <trkpt lat="49.42823" lon="0.22365">
        <ele>3.7</ele>
        <time>2022-05-31T08:42:36Z</time>
      </trkpt>
      <trkpt lat="49.42824" lon="0.22367">
        <ele>3.8</ele>
        <time>2022-05-31T08:42:37Z</time>
      </trkpt>
      <trkpt lat="49.42824" lon="0.2237">
        <ele>3.9</ele>
        <time>2022-05-31T08:42:38Z</time>
      </trkpt>
      <trkpt lat="49.42824" lon="0.22372">
        <ele>4</ele>
        <time>2022-05-31T08:42:39Z</time>
      </trkpt>
      <trkpt lat="49.42824" lon="0.22375">
        <ele>4.1</ele>
        <time>2022-05-31T08:42:40Z</time>
      </trkpt>
      <trkpt lat="49.42824" lon="0.22377">
        <ele>4.1</ele>
        <time>2022-05-31T08:42:41Z</time>
      </trkpt>
      <trkpt lat="49.42824" lon="0.22378">
        <ele>4.2</ele>
        <time>2022-05-31T08:42:42Z</time>
      </trkpt>
      <trkpt lat="49.42824" lon="0.22381">
        <ele>4.3</ele>
        <time>2022-05-31T08:42:43Z</time>
      </trkpt>
      <trkpt lat="49.42824" lon="0.22384">
        <ele>4.4</ele>
        <time>2022-05-31T08:42:44Z</time>
      </trkpt>
      <trkpt lat="49.42824" lon="0.22386">
        <ele>4.5</ele>
        <time>2022-05-31T08:42:46Z</time>
      </trkpt>
      <trkpt lat="49.42824" lon="0.22388">
        <ele>4.5</ele>
        <time>2022-05-31T08:42:47Z</time>
      </trkpt>
      <trkpt lat="49.42824" lon="0.22391">
        <ele>4.7</ele>
        <time>2022-05-31T08:42:48Z</time>
      </trkpt>
      <trkpt lat="49.42824" lon="0.22393">
        <ele>4.7</ele>
        <time>2022-05-31T08:42:49Z</time>
      </trkpt>
      <trkpt lat="49.42824" lon="0.22394">
        <ele>4.8</ele>
        <time>2022-05-31T08:42:50Z</time>
      </trkpt>
      <trkpt lat="49.42823" lon="0.22396">
        <ele>4.8</ele>
        <time>2022-05-31T08:42:51Z</time>
      </trkpt>
      <trkpt lat="49.42822" lon="0.22397">
        <ele>4.9</ele>
        <time>2022-05-31T08:42:52Z</time>
      </trkpt>
      <trkpt lat="49.42821" lon="0.22398">
        <ele>4.9</ele>
        <time>2022-05-31T08:42:53Z</time>
      </trkpt>
      <trkpt lat="49.4282" lon="0.22399">
        <ele>4.9</ele>
        <time>2022-05-31T08:42:55Z</time>
      </trkpt>
      <trkpt lat="49.4282" lon="0.22401">
        <ele>4.8</ele>
        <time>2022-05-31T08:42:56Z</time>
      </trkpt>
      <trkpt lat="49.4282" lon="0.22402">
        <ele>4.8</ele>
        <time>2022-05-31T08:42:57Z</time>
      </trkpt>
      <trkpt lat="49.42819" lon="0.22404">
        <ele>4.8</ele>
        <time>2022-05-31T08:42:58Z</time>
      </trkpt>
      <trkpt lat="49.42819" lon="0.22406">
        <ele>4.8</ele>
        <time>2022-05-31T08:42:59Z</time>
      </trkpt>
      <trkpt lat="49.42818" lon="0.22408">
        <ele>4.8</ele>
        <time>2022-05-31T08:43:00Z</time>
      </trkpt>
      <trkpt lat="49.42818" lon="0.2241">
        <ele>4.8</ele>
        <time>2022-05-31T08:43:01Z</time>
      </trkpt>
      <trkpt lat="49.42819" lon="0.22412">
        <ele>4.8</ele>
        <time>2022-05-31T08:43:02Z</time>
      </trkpt>
      <trkpt lat="49.42819" lon="0.22414">
        <ele>4.8</ele>
        <time>2022-05-31T08:43:04Z</time>
      </trkpt>
      <trkpt lat="49.42819" lon="0.22417">
        <ele>4.8</ele>
        <time>2022-05-31T08:43:05Z</time>
      </trkpt>
      <trkpt lat="49.42819" lon="0.2242">
        <ele>4.8</ele>
        <time>2022-05-31T08:43:06Z</time>
      </trkpt>
      <trkpt lat="49.42819" lon="0.22421">
        <ele>4.8</ele>
        <time>2022-05-31T08:43:07Z</time>
      </trkpt>
      <trkpt lat="49.42819" lon="0.22422">
        <ele>4.8</ele>
        <time>2022-05-31T08:43:08Z</time>
      </trkpt>
      <trkpt lat="49.42819" lon="0.22425">
        <ele>4.8</ele>
        <time>2022-05-31T08:43:09Z</time>
      </trkpt>
      <trkpt lat="49.42819" lon="0.22427">
        <ele>4.8</ele>
        <time>2022-05-31T08:43:10Z</time>
      </trkpt>
      <trkpt lat="49.4282" lon="0.22428">
        <ele>4.8</ele>
        <time>2022-05-31T08:43:11Z</time>
      </trkpt>
      <trkpt lat="49.4282" lon="0.2243">
        <ele>4.8</ele>
        <time>2022-05-31T08:43:12Z</time>
      </trkpt>
      <trkpt lat="49.4282" lon="0.22432">
        <ele>4.8</ele>
        <time>2022-05-31T08:43:13Z</time>
      </trkpt>
      <trkpt lat="49.4282" lon="0.22434">
        <ele>4.8</ele>
        <time>2022-05-31T08:43:14Z</time>
      </trkpt>
      <trkpt lat="49.4282" lon="0.22436">
        <ele>4.8</ele>
        <time>2022-05-31T08:43:15Z</time>
      </trkpt>
      <trkpt lat="49.4282" lon="0.22439">
        <ele>4.8</ele>
        <time>2022-05-31T08:43:16Z</time>
      </trkpt>
      <trkpt lat="49.4282" lon="0.22441">
        <ele>4.8</ele>
        <time>2022-05-31T08:43:17Z</time>
      </trkpt>
      <trkpt lat="49.4282" lon="0.22442">
        <ele>4.8</ele>
        <time>2022-05-31T08:43:18Z</time>
      </trkpt>
      <trkpt lat="49.42819" lon="0.22446">
        <ele>4.8</ele>
        <time>2022-05-31T08:43:20Z</time>
      </trkpt>
      <trkpt lat="49.42819" lon="0.22447">
        <ele>4.8</ele>
        <time>2022-05-31T08:43:21Z</time>
      </trkpt>
      <trkpt lat="49.42819" lon="0.22448">
        <ele>4.8</ele>
        <time>2022-05-31T08:43:22Z</time>
      </trkpt>
      <trkpt lat="49.42819" lon="0.2245">
        <ele>4.8</ele>
        <time>2022-05-31T08:43:23Z</time>
      </trkpt>
      <trkpt lat="49.42818" lon="0.22452">
        <ele>4.8</ele>
        <time>2022-05-31T08:43:24Z</time>
      </trkpt>
      <trkpt lat="49.42818" lon="0.22453">
        <ele>4.8</ele>
        <time>2022-05-31T08:43:25Z</time>
      </trkpt>
      <trkpt lat="49.42818" lon="0.22455">
        <ele>4.8</ele>
        <time>2022-05-31T08:43:26Z</time>
      </trkpt>
      <trkpt lat="49.42818" lon="0.22456">
        <ele>4.8</ele>
        <time>2022-05-31T08:43:27Z</time>
      </trkpt>
      <trkpt lat="49.42818" lon="0.22458">
        <ele>4.8</ele>
        <time>2022-05-31T08:43:28Z</time>
      </trkpt>
      <trkpt lat="49.42817" lon="0.22461">
        <ele>4.8</ele>
        <time>2022-05-31T08:43:30Z</time>
      </trkpt>
      <trkpt lat="49.42817" lon="0.22463">
        <ele>4.8</ele>
        <time>2022-05-31T08:43:31Z</time>
      </trkpt>
      <trkpt lat="49.42818" lon="0.22466">
        <ele>4.9</ele>
        <time>2022-05-31T08:43:32Z</time>
      </trkpt>
      <trkpt lat="49.42818" lon="0.22467">
        <ele>4.9</ele>
        <time>2022-05-31T08:43:33Z</time>
      </trkpt>
      <trkpt lat="49.42818" lon="0.22469">
        <ele>4.9</ele>
        <time>2022-05-31T08:43:34Z</time>
      </trkpt>
      <trkpt lat="49.42818" lon="0.2247">
        <ele>4.9</ele>
        <time>2022-05-31T08:43:35Z</time>
      </trkpt>
      <trkpt lat="49.42819" lon="0.2247">
        <ele>4.9</ele>
        <time>2022-05-31T08:43:36Z</time>
      </trkpt>
      <trkpt lat="49.42819" lon="0.22472">
        <ele>4.9</ele>
        <time>2022-05-31T08:43:37Z</time>
      </trkpt>
      <trkpt lat="49.42819" lon="0.22474">
        <ele>4.9</ele>
        <time>2022-05-31T08:43:38Z</time>
      </trkpt>
      <trkpt lat="49.42819" lon="0.22477">
        <ele>4.9</ele>
        <time>2022-05-31T08:43:39Z</time>
      </trkpt>
      <trkpt lat="49.42819" lon="0.22478">
        <ele>4.9</ele>
        <time>2022-05-31T08:43:40Z</time>
      </trkpt>
      <trkpt lat="49.42818" lon="0.22479">
        <ele>4.9</ele>
        <time>2022-05-31T08:43:41Z</time>
      </trkpt>
      <trkpt lat="49.42818" lon="0.22482">
        <ele>4.9</ele>
        <time>2022-05-31T08:43:42Z</time>
      </trkpt>
      <trkpt lat="49.42818" lon="0.22484">
        <ele>4.9</ele>
        <time>2022-05-31T08:43:44Z</time>
      </trkpt>
      <trkpt lat="49.42818" lon="0.22485">
        <ele>4.9</ele>
        <time>2022-05-31T08:43:45Z</time>
      </trkpt>
      <trkpt lat="49.42818" lon="0.22489">
        <ele>4.9</ele>
        <time>2022-05-31T08:43:46Z</time>
      </trkpt>
      <trkpt lat="49.42817" lon="0.2249">
        <ele>4.9</ele>
        <time>2022-05-31T08:43:47Z</time>
      </trkpt>
      <trkpt lat="49.42817" lon="0.22492">
        <ele>4.9</ele>
        <time>2022-05-31T08:43:48Z</time>
      </trkpt>
      <trkpt lat="49.42818" lon="0.22495">
        <ele>5</ele>
        <time>2022-05-31T08:43:49Z</time>
      </trkpt>
      <trkpt lat="49.42818" lon="0.22496">
        <ele>5</ele>
        <time>2022-05-31T08:43:50Z</time>
      </trkpt>
      <trkpt lat="49.42818" lon="0.22497">
        <ele>5</ele>
        <time>2022-05-31T08:43:51Z</time>
      </trkpt>
      <trkpt lat="49.42818" lon="0.22499">
        <ele>5</ele>
        <time>2022-05-31T08:43:52Z</time>
      </trkpt>
      <trkpt lat="49.42818" lon="0.22501">
        <ele>5</ele>
        <time>2022-05-31T08:43:53Z</time>
      </trkpt>
      <trkpt lat="49.42819" lon="0.22504">
        <ele>5</ele>
        <time>2022-05-31T08:43:54Z</time>
      </trkpt>
      <trkpt lat="49.42819" lon="0.22506">
        <ele>5</ele>
        <time>2022-05-31T08:43:55Z</time>
      </trkpt>
      <trkpt lat="49.42819" lon="0.22508">
        <ele>5</ele>
        <time>2022-05-31T08:43:56Z</time>
      </trkpt>
      <trkpt lat="49.42818" lon="0.22511">
        <ele>5</ele>
        <time>2022-05-31T08:43:58Z</time>
      </trkpt>
      <trkpt lat="49.42818" lon="0.22514">
        <ele>5</ele>
        <time>2022-05-31T08:43:59Z</time>
      </trkpt>
      <trkpt lat="49.42818" lon="0.22516">
        <ele>5</ele>
        <time>2022-05-31T08:44:00Z</time>
      </trkpt>
      <trkpt lat="49.42818" lon="0.22519">
        <ele>5</ele>
        <time>2022-05-31T08:44:01Z</time>
      </trkpt>
      <trkpt lat="49.42818" lon="0.2252">
        <ele>5</ele>
        <time>2022-05-31T08:44:02Z</time>
      </trkpt>
      <trkpt lat="49.42818" lon="0.22521">
        <ele>5</ele>
        <time>2022-05-31T08:44:03Z</time>
      </trkpt>
      <trkpt lat="49.42817" lon="0.22524">
        <ele>5</ele>
        <time>2022-05-31T08:44:04Z</time>
      </trkpt>
      <trkpt lat="49.42817" lon="0.22526">
        <ele>5</ele>
        <time>2022-05-31T08:44:05Z</time>
      </trkpt>
      <trkpt lat="49.42817" lon="0.22527">
        <ele>5</ele>
        <time>2022-05-31T08:44:06Z</time>
      </trkpt>
      <trkpt lat="49.42817" lon="0.22532">
        <ele>5</ele>
        <time>2022-05-31T08:44:07Z</time>
      </trkpt>
      <trkpt lat="49.42817" lon="0.22533">
        <ele>5</ele>
        <time>2022-05-31T08:44:09Z</time>
      </trkpt>
      <trkpt lat="49.42817" lon="0.22534">
        <ele>5</ele>
        <time>2022-05-31T08:44:10Z</time>
      </trkpt>
      <trkpt lat="49.42817" lon="0.22536">
        <ele>5</ele>
        <time>2022-05-31T08:44:11Z</time>
      </trkpt>
      <trkpt lat="49.42817" lon="0.22537">
        <ele>5</ele>
        <time>2022-05-31T08:44:12Z</time>
      </trkpt>
      <trkpt lat="49.42818" lon="0.22541">
        <ele>5</ele>
        <time>2022-05-31T08:44:13Z</time>
      </trkpt>
      <trkpt lat="49.42818" lon="0.22542">
        <ele>5</ele>
        <time>2022-05-31T08:44:14Z</time>
      </trkpt>
      <trkpt lat="49.42818" lon="0.22543">
        <ele>5</ele>
        <time>2022-05-31T08:44:15Z</time>
      </trkpt>
      <trkpt lat="49.42818" lon="0.22545">
        <ele>5</ele>
        <time>2022-05-31T08:44:17Z</time>
      </trkpt>
      <trkpt lat="49.42818" lon="0.22548">
        <ele>5</ele>
        <time>2022-05-31T08:44:18Z</time>
      </trkpt>
      <trkpt lat="49.42818" lon="0.2255">
        <ele>5</ele>
        <time>2022-05-31T08:44:19Z</time>
      </trkpt>
      <trkpt lat="49.42818" lon="0.22551">
        <ele>5</ele>
        <time>2022-05-31T08:44:20Z</time>
      </trkpt>
      <trkpt lat="49.42818" lon="0.22554">
        <ele>5</ele>
        <time>2022-05-31T08:44:21Z</time>
      </trkpt>
      <trkpt lat="49.42818" lon="0.22555">
        <ele>5</ele>
        <time>2022-05-31T08:44:22Z</time>
      </trkpt>
      <trkpt lat="49.42817" lon="0.22557">
        <ele>5</ele>
        <time>2022-05-31T08:44:23Z</time>
      </trkpt>
      <trkpt lat="49.42817" lon="0.22558">
        <ele>5</ele>
        <time>2022-05-31T08:44:24Z</time>
      </trkpt>
      <trkpt lat="49.42817" lon="0.22562">
        <ele>5</ele>
        <time>2022-05-31T08:44:25Z</time>
      </trkpt>
      <trkpt lat="49.42817" lon="0.22563">
        <ele>5</ele>
        <time>2022-05-31T08:44:26Z</time>
      </trkpt>
      <trkpt lat="49.42817" lon="0.22565">
        <ele>5</ele>
        <time>2022-05-31T08:44:27Z</time>
      </trkpt>
      <trkpt lat="49.42817" lon="0.22568">
        <ele>5</ele>
        <time>2022-05-31T08:44:28Z</time>
      </trkpt>
      <trkpt lat="49.42817" lon="0.2257">
        <ele>5</ele>
        <time>2022-05-31T08:44:29Z</time>
      </trkpt>
      <trkpt lat="49.42817" lon="0.22572">
        <ele>5</ele>
        <time>2022-05-31T08:44:30Z</time>
      </trkpt>
      <trkpt lat="49.42817" lon="0.22574">
        <ele>5</ele>
        <time>2022-05-31T08:44:32Z</time>
      </trkpt>
      <trkpt lat="49.42817" lon="0.22578">
        <ele>5</ele>
        <time>2022-05-31T08:44:33Z</time>
      </trkpt>
      <trkpt lat="49.42817" lon="0.22579">
        <ele>5.1</ele>
        <time>2022-05-31T08:44:34Z</time>
      </trkpt>
      <trkpt lat="49.42817" lon="0.22581">
        <ele>5.1</ele>
        <time>2022-05-31T08:44:35Z</time>
      </trkpt>
      <trkpt lat="49.42816" lon="0.22582">
        <ele>5.1</ele>
        <time>2022-05-31T08:44:36Z</time>
      </trkpt>
      <trkpt lat="49.42816" lon="0.22584">
        <ele>5.1</ele>
        <time>2022-05-31T08:44:37Z</time>
      </trkpt>
      <trkpt lat="49.42815" lon="0.22586">
        <ele>5.1</ele>
        <time>2022-05-31T08:44:38Z</time>
      </trkpt>
      <trkpt lat="49.42815" lon="0.22588">
        <ele>5.1</ele>
        <time>2022-05-31T08:44:39Z</time>
      </trkpt>
      <trkpt lat="49.42814" lon="0.22592">
        <ele>5.1</ele>
        <time>2022-05-31T08:44:40Z</time>
      </trkpt>
      <trkpt lat="49.42814" lon="0.22593">
        <ele>5.1</ele>
        <time>2022-05-31T08:44:41Z</time>
      </trkpt>
      <trkpt lat="49.42814" lon="0.22595">
        <ele>5.1</ele>
        <time>2022-05-31T08:44:42Z</time>
      </trkpt>
      <trkpt lat="49.42814" lon="0.22597">
        <ele>5.1</ele>
        <time>2022-05-31T08:44:44Z</time>
      </trkpt>
      <trkpt lat="49.42814" lon="0.22599">
        <ele>5.1</ele>
        <time>2022-05-31T08:44:45Z</time>
      </trkpt>
      <trkpt lat="49.42814" lon="0.226">
        <ele>5.1</ele>
        <time>2022-05-31T08:44:46Z</time>
      </trkpt>
      <trkpt lat="49.42814" lon="0.22602">
        <ele>5.1</ele>
        <time>2022-05-31T08:44:47Z</time>
      </trkpt>
      <trkpt lat="49.42814" lon="0.22604">
        <ele>5.1</ele>
        <time>2022-05-31T08:44:48Z</time>
      </trkpt>
      <trkpt lat="49.42814" lon="0.22608">
        <ele>5.1</ele>
        <time>2022-05-31T08:44:49Z</time>
      </trkpt>
      <trkpt lat="49.42813" lon="0.22609">
        <ele>5.1</ele>
        <time>2022-05-31T08:44:50Z</time>
      </trkpt>
      <trkpt lat="49.42813" lon="0.2261">
        <ele>5.1</ele>
        <time>2022-05-31T08:44:51Z</time>
      </trkpt>
      <trkpt lat="49.42812" lon="0.22616">
        <ele>5.1</ele>
        <time>2022-05-31T08:44:53Z</time>
      </trkpt>
      <trkpt lat="49.42812" lon="0.22617">
        <ele>5.1</ele>
        <time>2022-05-31T08:44:54Z</time>
      </trkpt>
      <trkpt lat="49.42812" lon="0.22619">
        <ele>5.1</ele>
        <time>2022-05-31T08:44:55Z</time>
      </trkpt>
      <trkpt lat="49.42812" lon="0.2262">
        <ele>5.1</ele>
        <time>2022-05-31T08:44:56Z</time>
      </trkpt>
      <trkpt lat="49.42812" lon="0.22625">
        <ele>5.1</ele>
        <time>2022-05-31T08:44:58Z</time>
      </trkpt>
      <trkpt lat="49.42812" lon="0.22626">
        <ele>5.1</ele>
        <time>2022-05-31T08:44:59Z</time>
      </trkpt>
      <trkpt lat="49.42812" lon="0.22628">
        <ele>5.1</ele>
        <time>2022-05-31T08:45:00Z</time>
      </trkpt>
      <trkpt lat="49.42812" lon="0.22631">
        <ele>5.1</ele>
        <time>2022-05-31T08:45:02Z</time>
      </trkpt>
      <trkpt lat="49.42812" lon="0.22634">
        <ele>5.1</ele>
        <time>2022-05-31T08:45:03Z</time>
      </trkpt>
      <trkpt lat="49.42811" lon="0.22636">
        <ele>5.1</ele>
        <time>2022-05-31T08:45:04Z</time>
      </trkpt>
      <trkpt lat="49.42811" lon="0.22638">
        <ele>5.1</ele>
        <time>2022-05-31T08:45:05Z</time>
      </trkpt>
      <trkpt lat="49.4281" lon="0.2264">
        <ele>5.1</ele>
        <time>2022-05-31T08:45:06Z</time>
      </trkpt>
      <trkpt lat="49.4281" lon="0.22643">
        <ele>5.1</ele>
        <time>2022-05-31T08:45:08Z</time>
      </trkpt>
      <trkpt lat="49.42809" lon="0.22644">
        <ele>5.1</ele>
        <time>2022-05-31T08:45:09Z</time>
      </trkpt>
      <trkpt lat="49.42809" lon="0.22646">
        <ele>5.1</ele>
        <time>2022-05-31T08:45:10Z</time>
      </trkpt>
      <trkpt lat="49.42809" lon="0.22648">
        <ele>5.2</ele>
        <time>2022-05-31T08:45:11Z</time>
      </trkpt>
      <trkpt lat="49.42809" lon="0.2265">
        <ele>5.2</ele>
        <time>2022-05-31T08:45:12Z</time>
      </trkpt>
      <trkpt lat="49.42809" lon="0.22653">
        <ele>5.2</ele>
        <time>2022-05-31T08:45:13Z</time>
      </trkpt>
      <trkpt lat="49.42809" lon="0.22654">
        <ele>5.2</ele>
        <time>2022-05-31T08:45:14Z</time>
      </trkpt>
      <trkpt lat="49.42809" lon="0.22656">
        <ele>5.2</ele>
        <time>2022-05-31T08:45:15Z</time>
      </trkpt>
      <trkpt lat="49.4281" lon="0.22658">
        <ele>5.2</ele>
        <time>2022-05-31T08:45:16Z</time>
      </trkpt>
      <trkpt lat="49.4281" lon="0.2266">
        <ele>5.2</ele>
        <time>2022-05-31T08:45:17Z</time>
      </trkpt>
      <trkpt lat="49.4281" lon="0.22664">
        <ele>5.2</ele>
        <time>2022-05-31T08:45:18Z</time>
      </trkpt>
      <trkpt lat="49.4281" lon="0.22666">
        <ele>5.2</ele>
        <time>2022-05-31T08:45:20Z</time>
      </trkpt>
      <trkpt lat="49.4281" lon="0.22668">
        <ele>5.2</ele>
        <time>2022-05-31T08:45:21Z</time>
      </trkpt>
      <trkpt lat="49.4281" lon="0.22669">
        <ele>5.2</ele>
        <time>2022-05-31T08:45:22Z</time>
      </trkpt>
      <trkpt lat="49.4281" lon="0.22671">
        <ele>5.2</ele>
        <time>2022-05-31T08:45:23Z</time>
      </trkpt>
      <trkpt lat="49.4281" lon="0.22673">
        <ele>5.2</ele>
        <time>2022-05-31T08:45:24Z</time>
      </trkpt>
      <trkpt lat="49.4281" lon="0.22676">
        <ele>5.2</ele>
        <time>2022-05-31T08:45:26Z</time>
      </trkpt>
      <trkpt lat="49.4281" lon="0.22678">
        <ele>5.2</ele>
        <time>2022-05-31T08:45:27Z</time>
      </trkpt>
      <trkpt lat="49.4281" lon="0.22681">
        <ele>5.2</ele>
        <time>2022-05-31T08:45:28Z</time>
      </trkpt>
      <trkpt lat="49.4281" lon="0.22682">
        <ele>5.2</ele>
        <time>2022-05-31T08:45:29Z</time>
      </trkpt>
      <trkpt lat="49.4281" lon="0.22684">
        <ele>5.2</ele>
        <time>2022-05-31T08:45:30Z</time>
      </trkpt>
      <trkpt lat="49.4281" lon="0.22686">
        <ele>5.2</ele>
        <time>2022-05-31T08:45:31Z</time>
      </trkpt>
      <trkpt lat="49.4281" lon="0.22687">
        <ele>5.2</ele>
        <time>2022-05-31T08:45:32Z</time>
      </trkpt>
      <trkpt lat="49.4281" lon="0.2269">
        <ele>5.2</ele>
        <time>2022-05-31T08:45:33Z</time>
      </trkpt>
      <trkpt lat="49.4281" lon="0.22692">
        <ele>5.2</ele>
        <time>2022-05-31T08:45:34Z</time>
      </trkpt>
      <trkpt lat="49.4281" lon="0.22693">
        <ele>5.2</ele>
        <time>2022-05-31T08:45:35Z</time>
      </trkpt>
      <trkpt lat="49.4281" lon="0.22695">
        <ele>5.2</ele>
        <time>2022-05-31T08:45:36Z</time>
      </trkpt>
      <trkpt lat="49.4281" lon="0.22696">
        <ele>5.2</ele>
        <time>2022-05-31T08:45:37Z</time>
      </trkpt>
      <trkpt lat="49.42809" lon="0.22699">
        <ele>5.2</ele>
        <time>2022-05-31T08:45:38Z</time>
      </trkpt>
      <trkpt lat="49.42809" lon="0.227">
        <ele>5.2</ele>
        <time>2022-05-31T08:45:39Z</time>
      </trkpt>
      <trkpt lat="49.42809" lon="0.22701">
        <ele>5.2</ele>
        <time>2022-05-31T08:45:40Z</time>
      </trkpt>
      <trkpt lat="49.42809" lon="0.22705">
        <ele>5.2</ele>
        <time>2022-05-31T08:45:41Z</time>
      </trkpt>
      <trkpt lat="49.42809" lon="0.22707">
        <ele>5.2</ele>
        <time>2022-05-31T08:45:43Z</time>
      </trkpt>
      <trkpt lat="49.42809" lon="0.22708">
        <ele>5.2</ele>
        <time>2022-05-31T08:45:44Z</time>
      </trkpt>
      <trkpt lat="49.42809" lon="0.22712">
        <ele>5.2</ele>
        <time>2022-05-31T08:45:45Z</time>
      </trkpt>
      <trkpt lat="49.42809" lon="0.22713">
        <ele>5.2</ele>
        <time>2022-05-31T08:45:46Z</time>
      </trkpt>
      <trkpt lat="49.42809" lon="0.22715">
        <ele>5.2</ele>
        <time>2022-05-31T08:45:47Z</time>
      </trkpt>
      <trkpt lat="49.4281" lon="0.22719">
        <ele>5.2</ele>
        <time>2022-05-31T08:45:49Z</time>
      </trkpt>
      <trkpt lat="49.4281" lon="0.2272">
        <ele>5.2</ele>
        <time>2022-05-31T08:45:50Z</time>
      </trkpt>
      <trkpt lat="49.4281" lon="0.22724">
        <ele>5.2</ele>
        <time>2022-05-31T08:45:51Z</time>
      </trkpt>
      <trkpt lat="49.4281" lon="0.22725">
        <ele>5.2</ele>
        <time>2022-05-31T08:45:52Z</time>
      </trkpt>
      <trkpt lat="49.4281" lon="0.22727">
        <ele>5.2</ele>
        <time>2022-05-31T08:45:53Z</time>
      </trkpt>
      <trkpt lat="49.4281" lon="0.22729">
        <ele>5.2</ele>
        <time>2022-05-31T08:45:55Z</time>
      </trkpt>
      <trkpt lat="49.4281" lon="0.2273">
        <ele>5.2</ele>
        <time>2022-05-31T08:45:56Z</time>
      </trkpt>
      <trkpt lat="49.4281" lon="0.22732">
        <ele>5.2</ele>
        <time>2022-05-31T08:45:57Z</time>
      </trkpt>
      <trkpt lat="49.42811" lon="0.22734">
        <ele>5.2</ele>
        <time>2022-05-31T08:45:58Z</time>
      </trkpt>
      <trkpt lat="49.42811" lon="0.22736">
        <ele>5.2</ele>
        <time>2022-05-31T08:45:59Z</time>
      </trkpt>
      <trkpt lat="49.42811" lon="0.22737">
        <ele>5.2</ele>
        <time>2022-05-31T08:46:00Z</time>
      </trkpt>
      <trkpt lat="49.42812" lon="0.2274">
        <ele>5.2</ele>
        <time>2022-05-31T08:46:01Z</time>
      </trkpt>
      <trkpt lat="49.42812" lon="0.22742">
        <ele>5.2</ele>
        <time>2022-05-31T08:46:02Z</time>
      </trkpt>
      <trkpt lat="49.42812" lon="0.22743">
        <ele>5.2</ele>
        <time>2022-05-31T08:46:03Z</time>
      </trkpt>
      <trkpt lat="49.42813" lon="0.22744">
        <ele>5.2</ele>
        <time>2022-05-31T08:46:04Z</time>
      </trkpt>
      <trkpt lat="49.42813" lon="0.22746">
        <ele>5.2</ele>
        <time>2022-05-31T08:46:05Z</time>
      </trkpt>
      <trkpt lat="49.42813" lon="0.22747">
        <ele>5.2</ele>
        <time>2022-05-31T08:46:06Z</time>
      </trkpt>
      <trkpt lat="49.42814" lon="0.22751">
        <ele>5.2</ele>
        <time>2022-05-31T08:46:07Z</time>
      </trkpt>
      <trkpt lat="49.42814" lon="0.22753">
        <ele>5.2</ele>
        <time>2022-05-31T08:46:09Z</time>
      </trkpt>
      <trkpt lat="49.42814" lon="0.22755">
        <ele>5.2</ele>
        <time>2022-05-31T08:46:10Z</time>
      </trkpt>
      <trkpt lat="49.42814" lon="0.22756">
        <ele>5.2</ele>
        <time>2022-05-31T08:46:11Z</time>
      </trkpt>
      <trkpt lat="49.42814" lon="0.22758">
        <ele>5.2</ele>
        <time>2022-05-31T08:46:12Z</time>
      </trkpt>
      <trkpt lat="49.42813" lon="0.22761">
        <ele>5.2</ele>
        <time>2022-05-31T08:46:14Z</time>
      </trkpt>
      <trkpt lat="49.42813" lon="0.22763">
        <ele>5.2</ele>
        <time>2022-05-31T08:46:15Z</time>
      </trkpt>
      <trkpt lat="49.42812" lon="0.22766">
        <ele>5.2</ele>
        <time>2022-05-31T08:46:16Z</time>
      </trkpt>
      <trkpt lat="49.42812" lon="0.22768">
        <ele>5.2</ele>
        <time>2022-05-31T08:46:17Z</time>
      </trkpt>
      <trkpt lat="49.42811" lon="0.2277">
        <ele>5.2</ele>
        <time>2022-05-31T08:46:18Z</time>
      </trkpt>
      <trkpt lat="49.42811" lon="0.22772">
        <ele>5.1</ele>
        <time>2022-05-31T08:46:19Z</time>
      </trkpt>
      <trkpt lat="49.42811" lon="0.22776">
        <ele>5.1</ele>
        <time>2022-05-31T08:46:20Z</time>
      </trkpt>
      <trkpt lat="49.42811" lon="0.22777">
        <ele>5.1</ele>
        <time>2022-05-31T08:46:21Z</time>
      </trkpt>
      <trkpt lat="49.4281" lon="0.22778">
        <ele>5.1</ele>
        <time>2022-05-31T08:46:22Z</time>
      </trkpt>
      <trkpt lat="49.4281" lon="0.22781">
        <ele>5.1</ele>
        <time>2022-05-31T08:46:23Z</time>
      </trkpt>
      <trkpt lat="49.4281" lon="0.22783">
        <ele>5.1</ele>
        <time>2022-05-31T08:46:24Z</time>
      </trkpt>
      <trkpt lat="49.42811" lon="0.22785">
        <ele>5.1</ele>
        <time>2022-05-31T08:46:25Z</time>
      </trkpt>
      <trkpt lat="49.42811" lon="0.22787">
        <ele>5.1</ele>
        <time>2022-05-31T08:46:26Z</time>
      </trkpt>
      <trkpt lat="49.42811" lon="0.22789">
        <ele>5.1</ele>
        <time>2022-05-31T08:46:28Z</time>
      </trkpt>
      <trkpt lat="49.42811" lon="0.2279">
        <ele>5.1</ele>
        <time>2022-05-31T08:46:29Z</time>
      </trkpt>
      <trkpt lat="49.42811" lon="0.22792">
        <ele>5.1</ele>
        <time>2022-05-31T08:46:30Z</time>
      </trkpt>
      <trkpt lat="49.42811" lon="0.22795">
        <ele>5.1</ele>
        <time>2022-05-31T08:46:31Z</time>
      </trkpt>
      <trkpt lat="49.42811" lon="0.22797">
        <ele>5.1</ele>
        <time>2022-05-31T08:46:32Z</time>
      </trkpt>
      <trkpt lat="49.42811" lon="0.22798">
        <ele>5.1</ele>
        <time>2022-05-31T08:46:33Z</time>
      </trkpt>
      <trkpt lat="49.42811" lon="0.228">
        <ele>5.1</ele>
        <time>2022-05-31T08:46:34Z</time>
      </trkpt>
      <trkpt lat="49.42811" lon="0.22802">
        <ele>5.1</ele>
        <time>2022-05-31T08:46:36Z</time>
      </trkpt>
      <trkpt lat="49.42811" lon="0.22804">
        <ele>5.1</ele>
        <time>2022-05-31T08:46:37Z</time>
      </trkpt>
      <trkpt lat="49.42812" lon="0.22807">
        <ele>5.1</ele>
        <time>2022-05-31T08:46:39Z</time>
      </trkpt>
      <trkpt lat="49.42811" lon="0.22809">
        <ele>5.1</ele>
        <time>2022-05-31T08:46:40Z</time>
      </trkpt>
      <trkpt lat="49.42812" lon="0.22812">
        <ele>5.1</ele>
        <time>2022-05-31T08:46:41Z</time>
      </trkpt>
      <trkpt lat="49.42812" lon="0.22814">
        <ele>5.1</ele>
        <time>2022-05-31T08:46:42Z</time>
      </trkpt>
      <trkpt lat="49.42812" lon="0.22815">
        <ele>5.1</ele>
        <time>2022-05-31T08:46:43Z</time>
      </trkpt>
      <trkpt lat="49.42812" lon="0.22817">
        <ele>5.1</ele>
        <time>2022-05-31T08:46:44Z</time>
      </trkpt>
      <trkpt lat="49.42812" lon="0.22818">
        <ele>5.1</ele>
        <time>2022-05-31T08:46:45Z</time>
      </trkpt>
      <trkpt lat="49.42812" lon="0.22819">
        <ele>5.1</ele>
        <time>2022-05-31T08:46:46Z</time>
      </trkpt>
      <trkpt lat="49.42812" lon="0.22821">
        <ele>5.1</ele>
        <time>2022-05-31T08:46:47Z</time>
      </trkpt>
      <trkpt lat="49.42813" lon="0.22822">
        <ele>5.1</ele>
        <time>2022-05-31T08:46:49Z</time>
      </trkpt>
      <trkpt lat="49.42813" lon="0.22822">
        <ele>5.1</ele>
        <time>2022-05-31T08:46:50Z</time>
      </trkpt>
      <trkpt lat="49.42814" lon="0.22822">
        <ele>5.1</ele>
        <time>2022-05-31T08:46:51Z</time>
      </trkpt>
      <trkpt lat="49.42814" lon="0.22822">
        <ele>5.1</ele>
        <time>2022-05-31T08:46:52Z</time>
      </trkpt>
      <trkpt lat="49.42814" lon="0.22821">
        <ele>5.1</ele>
        <time>2022-05-31T08:46:53Z</time>
      </trkpt>
      <trkpt lat="49.42814" lon="0.22821">
        <ele>5.1</ele>
        <time>2022-05-31T08:46:54Z</time>
      </trkpt>
      <trkpt lat="49.42813" lon="0.22821">
        <ele>5.1</ele>
        <time>2022-05-31T08:46:55Z</time>
      </trkpt>
      <trkpt lat="49.42813" lon="0.22821">
        <ele>5.1</ele>
        <time>2022-05-31T08:46:57Z</time>
      </trkpt>
      <trkpt lat="49.42813" lon="0.22821">
        <ele>5.1</ele>
        <time>2022-05-31T08:46:58Z</time>
      </trkpt>
      <trkpt lat="49.42813" lon="0.22822">
        <ele>5.1</ele>
        <time>2022-05-31T08:46:59Z</time>
      </trkpt>
      <trkpt lat="49.42812" lon="0.22823">
        <ele>5.1</ele>
        <time>2022-05-31T08:47:00Z</time>
      </trkpt>
      <trkpt lat="49.42812" lon="0.22824">
        <ele>5.1</ele>
        <time>2022-05-31T08:47:01Z</time>
      </trkpt>
      <trkpt lat="49.42811" lon="0.22825">
        <ele>5.1</ele>
        <time>2022-05-31T08:47:02Z</time>
      </trkpt>
      <trkpt lat="49.42811" lon="0.22827">
        <ele>5.1</ele>
        <time>2022-05-31T08:47:03Z</time>
      </trkpt>
      <trkpt lat="49.4281" lon="0.22828">
        <ele>5.1</ele>
        <time>2022-05-31T08:47:04Z</time>
      </trkpt>
      <trkpt lat="49.4281" lon="0.2283">
        <ele>5.1</ele>
        <time>2022-05-31T08:47:06Z</time>
      </trkpt>
      <trkpt lat="49.4281" lon="0.22832">
        <ele>5.1</ele>
        <time>2022-05-31T08:47:07Z</time>
      </trkpt>
      <trkpt lat="49.4281" lon="0.22834">
        <ele>5.1</ele>
        <time>2022-05-31T08:47:08Z</time>
      </trkpt>
      <trkpt lat="49.4281" lon="0.22835">
        <ele>5.1</ele>
        <time>2022-05-31T08:47:09Z</time>
      </trkpt>
      <trkpt lat="49.4281" lon="0.22837">
        <ele>5.1</ele>
        <time>2022-05-31T08:47:10Z</time>
      </trkpt>
      <trkpt lat="49.4281" lon="0.22838">
        <ele>5.1</ele>
        <time>2022-05-31T08:47:11Z</time>
      </trkpt>
      <trkpt lat="49.4281" lon="0.22839">
        <ele>5.1</ele>
        <time>2022-05-31T08:47:12Z</time>
      </trkpt>
      <trkpt lat="49.4281" lon="0.22839">
        <ele>5.1</ele>
        <time>2022-05-31T08:47:14Z</time>
      </trkpt>
      <trkpt lat="49.42809" lon="0.2284">
        <ele>5.1</ele>
        <time>2022-05-31T08:47:15Z</time>
      </trkpt>
      <trkpt lat="49.42809" lon="0.22842">
        <ele>5.1</ele>
        <time>2022-05-31T08:47:16Z</time>
      </trkpt>
      <trkpt lat="49.42809" lon="0.22844">
        <ele>5.1</ele>
        <time>2022-05-31T08:47:17Z</time>
      </trkpt>
      <trkpt lat="49.42809" lon="0.22847">
        <ele>5.1</ele>
        <time>2022-05-31T08:47:18Z</time>
      </trkpt>
      <trkpt lat="49.42809" lon="0.2285">
        <ele>5.1</ele>
        <time>2022-05-31T08:47:19Z</time>
      </trkpt>
      <trkpt lat="49.42809" lon="0.22852">
        <ele>5.1</ele>
        <time>2022-05-31T08:47:20Z</time>
      </trkpt>
      <trkpt lat="49.42809" lon="0.22857">
        <ele>5.1</ele>
        <time>2022-05-31T08:47:21Z</time>
      </trkpt>
      <trkpt lat="49.42809" lon="0.22858">
        <ele>5.1</ele>
        <time>2022-05-31T08:47:22Z</time>
      </trkpt>
      <trkpt lat="49.42809" lon="0.22861">
        <ele>5.1</ele>
        <time>2022-05-31T08:47:23Z</time>
      </trkpt>
      <trkpt lat="49.42809" lon="0.22863">
        <ele>5.1</ele>
        <time>2022-05-31T08:47:24Z</time>
      </trkpt>
      <trkpt lat="49.4281" lon="0.22865">
        <ele>5.1</ele>
        <time>2022-05-31T08:47:25Z</time>
      </trkpt>
      <trkpt lat="49.4281" lon="0.22868">
        <ele>5.1</ele>
        <time>2022-05-31T08:47:26Z</time>
      </trkpt>
      <trkpt lat="49.4281" lon="0.2287">
        <ele>5.1</ele>
        <time>2022-05-31T08:47:28Z</time>
      </trkpt>
      <trkpt lat="49.4281" lon="0.22872">
        <ele>5.1</ele>
        <time>2022-05-31T08:47:29Z</time>
      </trkpt>
      <trkpt lat="49.4281" lon="0.22875">
        <ele>5.1</ele>
        <time>2022-05-31T08:47:30Z</time>
      </trkpt>
      <trkpt lat="49.4281" lon="0.22877">
        <ele>5.1</ele>
        <time>2022-05-31T08:47:31Z</time>
      </trkpt>
      <trkpt lat="49.4281" lon="0.22879">
        <ele>5.1</ele>
        <time>2022-05-31T08:47:32Z</time>
      </trkpt>
      <trkpt lat="49.4281" lon="0.22882">
        <ele>5.1</ele>
        <time>2022-05-31T08:47:33Z</time>
      </trkpt>
      <trkpt lat="49.42809" lon="0.22885">
        <ele>5.1</ele>
        <time>2022-05-31T08:47:34Z</time>
      </trkpt>
      <trkpt lat="49.42809" lon="0.22887">
        <ele>5.1</ele>
        <time>2022-05-31T08:47:35Z</time>
      </trkpt>
      <trkpt lat="49.4281" lon="0.22889">
        <ele>5.1</ele>
        <time>2022-05-31T08:47:36Z</time>
      </trkpt>
      <trkpt lat="49.4281" lon="0.22892">
        <ele>5.2</ele>
        <time>2022-05-31T08:47:37Z</time>
      </trkpt>
      <trkpt lat="49.42809" lon="0.22893">
        <ele>5.2</ele>
        <time>2022-05-31T08:47:38Z</time>
      </trkpt>
      <trkpt lat="49.42809" lon="0.22895">
        <ele>5.2</ele>
        <time>2022-05-31T08:47:39Z</time>
      </trkpt>
      <trkpt lat="49.42809" lon="0.22898">
        <ele>5.2</ele>
        <time>2022-05-31T08:47:40Z</time>
      </trkpt>
      <trkpt lat="49.42809" lon="0.22899">
        <ele>5.2</ele>
        <time>2022-05-31T08:47:41Z</time>
      </trkpt>
      <trkpt lat="49.42809" lon="0.22901">
        <ele>5.2</ele>
        <time>2022-05-31T08:47:43Z</time>
      </trkpt>
      <trkpt lat="49.42809" lon="0.22902">
        <ele>5.2</ele>
        <time>2022-05-31T08:47:44Z</time>
      </trkpt>
      <trkpt lat="49.42809" lon="0.22904">
        <ele>5.2</ele>
        <time>2022-05-31T08:47:45Z</time>
      </trkpt>
      <trkpt lat="49.42809" lon="0.22906">
        <ele>5.2</ele>
        <time>2022-05-31T08:47:46Z</time>
      </trkpt>
      <trkpt lat="49.42809" lon="0.22907">
        <ele>5.2</ele>
        <time>2022-05-31T08:47:47Z</time>
      </trkpt>
      <trkpt lat="49.42809" lon="0.22909">
        <ele>5.2</ele>
        <time>2022-05-31T08:47:48Z</time>
      </trkpt>
      <trkpt lat="49.42809" lon="0.22912">
        <ele>5.2</ele>
        <time>2022-05-31T08:47:49Z</time>
      </trkpt>
      <trkpt lat="49.42809" lon="0.22913">
        <ele>5.2</ele>
        <time>2022-05-31T08:47:50Z</time>
      </trkpt>
      <trkpt lat="49.42809" lon="0.22915">
        <ele>5.2</ele>
        <time>2022-05-31T08:47:51Z</time>
      </trkpt>
      <trkpt lat="49.42809" lon="0.22918">
        <ele>5.2</ele>
        <time>2022-05-31T08:47:52Z</time>
      </trkpt>
      <trkpt lat="49.42809" lon="0.2292">
        <ele>5.2</ele>
        <time>2022-05-31T08:47:53Z</time>
      </trkpt>
      <trkpt lat="49.42809" lon="0.22921">
        <ele>5.2</ele>
        <time>2022-05-31T08:47:54Z</time>
      </trkpt>
      <trkpt lat="49.42808" lon="0.22923">
        <ele>5.2</ele>
        <time>2022-05-31T08:47:55Z</time>
      </trkpt>
      <trkpt lat="49.42808" lon="0.22926">
        <ele>5.2</ele>
        <time>2022-05-31T08:47:56Z</time>
      </trkpt>
      <trkpt lat="49.42808" lon="0.22928">
        <ele>5.2</ele>
        <time>2022-05-31T08:47:57Z</time>
      </trkpt>
      <trkpt lat="49.42808" lon="0.2293">
        <ele>5.2</ele>
        <time>2022-05-31T08:47:59Z</time>
      </trkpt>
      <trkpt lat="49.42808" lon="0.22931">
        <ele>5.2</ele>
        <time>2022-05-31T08:48:00Z</time>
      </trkpt>
      <trkpt lat="49.42808" lon="0.22934">
        <ele>5.2</ele>
        <time>2022-05-31T08:48:01Z</time>
      </trkpt>
      <trkpt lat="49.42808" lon="0.22935">
        <ele>5.1</ele>
        <time>2022-05-31T08:48:02Z</time>
      </trkpt>
      <trkpt lat="49.42808" lon="0.22937">
        <ele>5.1</ele>
        <time>2022-05-31T08:48:03Z</time>
      </trkpt>
      <trkpt lat="49.42807" lon="0.2294">
        <ele>5.1</ele>
        <time>2022-05-31T08:48:04Z</time>
      </trkpt>
      <trkpt lat="49.42806" lon="0.22941">
        <ele>5.1</ele>
        <time>2022-05-31T08:48:05Z</time>
      </trkpt>
      <trkpt lat="49.42806" lon="0.22942">
        <ele>5.1</ele>
        <time>2022-05-31T08:48:06Z</time>
      </trkpt>
      <trkpt lat="49.42805" lon="0.22945">
        <ele>5.1</ele>
        <time>2022-05-31T08:48:07Z</time>
      </trkpt>
      <trkpt lat="49.42805" lon="0.22947">
        <ele>5.1</ele>
        <time>2022-05-31T08:48:08Z</time>
      </trkpt>
      <trkpt lat="49.42805" lon="0.22948">
        <ele>5.1</ele>
        <time>2022-05-31T08:48:09Z</time>
      </trkpt>
      <trkpt lat="49.42805" lon="0.2295">
        <ele>5.1</ele>
        <time>2022-05-31T08:48:10Z</time>
      </trkpt>
      <trkpt lat="49.42805" lon="0.22953">
        <ele>5.1</ele>
        <time>2022-05-31T08:48:11Z</time>
      </trkpt>
      <trkpt lat="49.42805" lon="0.22954">
        <ele>5.1</ele>
        <time>2022-05-31T08:48:12Z</time>
      </trkpt>
      <trkpt lat="49.42805" lon="0.22956">
        <ele>5.1</ele>
        <time>2022-05-31T08:48:13Z</time>
      </trkpt>
      <trkpt lat="49.42805" lon="0.22958">
        <ele>5.1</ele>
        <time>2022-05-31T08:48:14Z</time>
      </trkpt>
      <trkpt lat="49.42805" lon="0.22961">
        <ele>5.2</ele>
        <time>2022-05-31T08:48:16Z</time>
      </trkpt>
      <trkpt lat="49.42805" lon="0.22963">
        <ele>5.2</ele>
        <time>2022-05-31T08:48:17Z</time>
      </trkpt>
      <trkpt lat="49.42805" lon="0.22965">
        <ele>5.2</ele>
        <time>2022-05-31T08:48:18Z</time>
      </trkpt>
      <trkpt lat="49.42805" lon="0.22967">
        <ele>5.2</ele>
        <time>2022-05-31T08:48:19Z</time>
      </trkpt>
      <trkpt lat="49.42805" lon="0.22968">
        <ele>5.2</ele>
        <time>2022-05-31T08:48:20Z</time>
      </trkpt>
      <trkpt lat="49.42805" lon="0.2297">
        <ele>5.2</ele>
        <time>2022-05-31T08:48:21Z</time>
      </trkpt>
      <trkpt lat="49.42805" lon="0.22971">
        <ele>5.2</ele>
        <time>2022-05-31T08:48:22Z</time>
      </trkpt>
      <trkpt lat="49.42805" lon="0.22973">
        <ele>5.2</ele>
        <time>2022-05-31T08:48:23Z</time>
      </trkpt>
      <trkpt lat="49.42805" lon="0.22975">
        <ele>5.2</ele>
        <time>2022-05-31T08:48:24Z</time>
      </trkpt>
      <trkpt lat="49.42806" lon="0.22979">
        <ele>5.2</ele>
        <time>2022-05-31T08:48:26Z</time>
      </trkpt>
      <trkpt lat="49.42807" lon="0.22982">
        <ele>5.2</ele>
        <time>2022-05-31T08:48:27Z</time>
      </trkpt>
      <trkpt lat="49.42807" lon="0.22983">
        <ele>5.2</ele>
        <time>2022-05-31T08:48:28Z</time>
      </trkpt>
      <trkpt lat="49.42807" lon="0.22985">
        <ele>5.2</ele>
        <time>2022-05-31T08:48:29Z</time>
      </trkpt>
      <trkpt lat="49.42807" lon="0.22988">
        <ele>5.2</ele>
        <time>2022-05-31T08:48:30Z</time>
      </trkpt>
      <trkpt lat="49.42807" lon="0.22989">
        <ele>5.2</ele>
        <time>2022-05-31T08:48:31Z</time>
      </trkpt>
      <trkpt lat="49.42808" lon="0.2299">
        <ele>5.2</ele>
        <time>2022-05-31T08:48:32Z</time>
      </trkpt>
      <trkpt lat="49.42808" lon="0.22994">
        <ele>5.2</ele>
        <time>2022-05-31T08:48:33Z</time>
      </trkpt>
      <trkpt lat="49.42808" lon="0.22995">
        <ele>5.2</ele>
        <time>2022-05-31T08:48:35Z</time>
      </trkpt>
      <trkpt lat="49.42808" lon="0.22997">
        <ele>5.2</ele>
        <time>2022-05-31T08:48:36Z</time>
      </trkpt>
      <trkpt lat="49.42808" lon="0.22998">
        <ele>5.2</ele>
        <time>2022-05-31T08:48:37Z</time>
      </trkpt>
      <trkpt lat="49.42808" lon="0.22999">
        <ele>5.2</ele>
        <time>2022-05-31T08:48:38Z</time>
      </trkpt>
      <trkpt lat="49.42808" lon="0.23001">
        <ele>5.2</ele>
        <time>2022-05-31T08:48:39Z</time>
      </trkpt>
      <trkpt lat="49.42808" lon="0.23003">
        <ele>5.2</ele>
        <time>2022-05-31T08:48:40Z</time>
      </trkpt>
      <trkpt lat="49.42808" lon="0.23006">
        <ele>5.2</ele>
        <time>2022-05-31T08:48:41Z</time>
      </trkpt>
      <trkpt lat="49.42807" lon="0.23007">
        <ele>5.2</ele>
        <time>2022-05-31T08:48:42Z</time>
      </trkpt>
      <trkpt lat="49.42807" lon="0.23008">
        <ele>5.2</ele>
        <time>2022-05-31T08:48:43Z</time>
      </trkpt>
      <trkpt lat="49.42806" lon="0.2301">
        <ele>5.2</ele>
        <time>2022-05-31T08:48:44Z</time>
      </trkpt>
      <trkpt lat="49.42806" lon="0.23011">
        <ele>5.2</ele>
        <time>2022-05-31T08:48:45Z</time>
      </trkpt>
      <trkpt lat="49.42805" lon="0.23013">
        <ele>5.2</ele>
        <time>2022-05-31T08:48:46Z</time>
      </trkpt>
      <trkpt lat="49.42804" lon="0.23014">
        <ele>5.2</ele>
        <time>2022-05-31T08:48:47Z</time>
      </trkpt>
      <trkpt lat="49.42803" lon="0.23017">
        <ele>5.2</ele>
        <time>2022-05-31T08:48:48Z</time>
      </trkpt>
      <trkpt lat="49.42803" lon="0.23018">
        <ele>5.2</ele>
        <time>2022-05-31T08:48:49Z</time>
      </trkpt>
      <trkpt lat="49.42803" lon="0.2302">
        <ele>5.2</ele>
        <time>2022-05-31T08:48:50Z</time>
      </trkpt>
      <trkpt lat="49.42802" lon="0.23023">
        <ele>5.2</ele>
        <time>2022-05-31T08:48:52Z</time>
      </trkpt>
      <trkpt lat="49.42801" lon="0.23024">
        <ele>5.2</ele>
        <time>2022-05-31T08:48:53Z</time>
      </trkpt>
      <trkpt lat="49.42801" lon="0.23025">
        <ele>5.2</ele>
        <time>2022-05-31T08:48:54Z</time>
      </trkpt>
      <trkpt lat="49.428" lon="0.23026">
        <ele>5.2</ele>
        <time>2022-05-31T08:48:55Z</time>
      </trkpt>
      <trkpt lat="49.42799" lon="0.23028">
        <ele>5.2</ele>
        <time>2022-05-31T08:48:56Z</time>
      </trkpt>
      <trkpt lat="49.42799" lon="0.2303">
        <ele>5.2</ele>
        <time>2022-05-31T08:48:57Z</time>
      </trkpt>
      <trkpt lat="49.42798" lon="0.23031">
        <ele>5.2</ele>
        <time>2022-05-31T08:48:58Z</time>
      </trkpt>
      <trkpt lat="49.42798" lon="0.23033">
        <ele>5.2</ele>
        <time>2022-05-31T08:48:59Z</time>
      </trkpt>
      <trkpt lat="49.42797" lon="0.23036">
        <ele>5.2</ele>
        <time>2022-05-31T08:49:01Z</time>
      </trkpt>
      <trkpt lat="49.42797" lon="0.23037">
        <ele>5.2</ele>
        <time>2022-05-31T08:49:02Z</time>
      </trkpt>
      <trkpt lat="49.42796" lon="0.23039">
        <ele>5.2</ele>
        <time>2022-05-31T08:49:03Z</time>
      </trkpt>
      <trkpt lat="49.42796" lon="0.23041">
        <ele>5.2</ele>
        <time>2022-05-31T08:49:04Z</time>
      </trkpt>
      <trkpt lat="49.42795" lon="0.23042">
        <ele>5.2</ele>
        <time>2022-05-31T08:49:05Z</time>
      </trkpt>
      <trkpt lat="49.42794" lon="0.23044">
        <ele>5.3</ele>
        <time>2022-05-31T08:49:06Z</time>
      </trkpt>
      <trkpt lat="49.42793" lon="0.23045">
        <ele>5.3</ele>
        <time>2022-05-31T08:49:07Z</time>
      </trkpt>
      <trkpt lat="49.42792" lon="0.23046">
        <ele>5.3</ele>
        <time>2022-05-31T08:49:08Z</time>
      </trkpt>
      <trkpt lat="49.42791" lon="0.23046">
        <ele>5.3</ele>
        <time>2022-05-31T08:49:09Z</time>
      </trkpt>
      <trkpt lat="49.42789" lon="0.23048">
        <ele>5.3</ele>
        <time>2022-05-31T08:49:11Z</time>
      </trkpt>
      <trkpt lat="49.42788" lon="0.23048">
        <ele>5.3</ele>
        <time>2022-05-31T08:49:12Z</time>
      </trkpt>
      <trkpt lat="49.42787" lon="0.23049">
        <ele>5.3</ele>
        <time>2022-05-31T08:49:13Z</time>
      </trkpt>
      <trkpt lat="49.42786" lon="0.2305">
        <ele>5.3</ele>
        <time>2022-05-31T08:49:14Z</time>
      </trkpt>
      <trkpt lat="49.42785" lon="0.23051">
        <ele>5.3</ele>
        <time>2022-05-31T08:49:15Z</time>
      </trkpt>
      <trkpt lat="49.42783" lon="0.23051">
        <ele>5.3</ele>
        <time>2022-05-31T08:49:16Z</time>
      </trkpt>
      <trkpt lat="49.42783" lon="0.23052">
        <ele>5.3</ele>
        <time>2022-05-31T08:49:17Z</time>
      </trkpt>
      <trkpt lat="49.42782" lon="0.23053">
        <ele>5.3</ele>
        <time>2022-05-31T08:49:18Z</time>
      </trkpt>
      <trkpt lat="49.42781" lon="0.23054">
        <ele>5.3</ele>
        <time>2022-05-31T08:49:19Z</time>
      </trkpt>
      <trkpt lat="49.4278" lon="0.23055">
        <ele>5.3</ele>
        <time>2022-05-31T08:49:20Z</time>
      </trkpt>
      <trkpt lat="49.42779" lon="0.23057">
        <ele>5.4</ele>
        <time>2022-05-31T08:49:21Z</time>
      </trkpt>
      <trkpt lat="49.42778" lon="0.23058">
        <ele>5.4</ele>
        <time>2022-05-31T08:49:22Z</time>
      </trkpt>
      <trkpt lat="49.42777" lon="0.23059">
        <ele>5.4</ele>
        <time>2022-05-31T08:49:23Z</time>
      </trkpt>
      <trkpt lat="49.42776" lon="0.2306">
        <ele>5.4</ele>
        <time>2022-05-31T08:49:25Z</time>
      </trkpt>
      <trkpt lat="49.42775" lon="0.23061">
        <ele>5.4</ele>
        <time>2022-05-31T08:49:26Z</time>
      </trkpt>
      <trkpt lat="49.42774" lon="0.23062">
        <ele>5.4</ele>
        <time>2022-05-31T08:49:27Z</time>
      </trkpt>
      <trkpt lat="49.42773" lon="0.23063">
        <ele>5.4</ele>
        <time>2022-05-31T08:49:28Z</time>
      </trkpt>
      <trkpt lat="49.42772" lon="0.23064">
        <ele>5.4</ele>
        <time>2022-05-31T08:49:29Z</time>
      </trkpt>
      <trkpt lat="49.42771" lon="0.23066">
        <ele>5.4</ele>
        <time>2022-05-31T08:49:30Z</time>
      </trkpt>
      <trkpt lat="49.4277" lon="0.23067">
        <ele>5.4</ele>
        <time>2022-05-31T08:49:32Z</time>
      </trkpt>
      <trkpt lat="49.42768" lon="0.23069">
        <ele>5.4</ele>
        <time>2022-05-31T08:49:33Z</time>
      </trkpt>
      <trkpt lat="49.42767" lon="0.23069">
        <ele>5.4</ele>
        <time>2022-05-31T08:49:34Z</time>
      </trkpt>
      <trkpt lat="49.42767" lon="0.2307">
        <ele>5.4</ele>
        <time>2022-05-31T08:49:35Z</time>
      </trkpt>
      <trkpt lat="49.42765" lon="0.23071">
        <ele>5.4</ele>
        <time>2022-05-31T08:49:36Z</time>
      </trkpt>
      <trkpt lat="49.42764" lon="0.23072">
        <ele>5.4</ele>
        <time>2022-05-31T08:49:37Z</time>
      </trkpt>
      <trkpt lat="49.42763" lon="0.23073">
        <ele>5.4</ele>
        <time>2022-05-31T08:49:38Z</time>
      </trkpt>
      <trkpt lat="49.42763" lon="0.23074">
        <ele>5.4</ele>
        <time>2022-05-31T08:49:39Z</time>
      </trkpt>
      <trkpt lat="49.42762" lon="0.23075">
        <ele>5.4</ele>
        <time>2022-05-31T08:49:40Z</time>
      </trkpt>
      <trkpt lat="49.4276" lon="0.23076">
        <ele>5.4</ele>
        <time>2022-05-31T08:49:41Z</time>
      </trkpt>
      <trkpt lat="49.4276" lon="0.23077">
        <ele>5.4</ele>
        <time>2022-05-31T08:49:42Z</time>
      </trkpt>
      <trkpt lat="49.42759" lon="0.23077">
        <ele>5.4</ele>
        <time>2022-05-31T08:49:43Z</time>
      </trkpt>
      <trkpt lat="49.42757" lon="0.23079">
        <ele>5.4</ele>
        <time>2022-05-31T08:49:44Z</time>
      </trkpt>
      <trkpt lat="49.42756" lon="0.2308">
        <ele>5.4</ele>
        <time>2022-05-31T08:49:46Z</time>
      </trkpt>
      <trkpt lat="49.42755" lon="0.23081">
        <ele>5.4</ele>
        <time>2022-05-31T08:49:47Z</time>
      </trkpt>
      <trkpt lat="49.42753" lon="0.23082">
        <ele>5.4</ele>
        <time>2022-05-31T08:49:48Z</time>
      </trkpt>
      <trkpt lat="49.42752" lon="0.23082">
        <ele>5.4</ele>
        <time>2022-05-31T08:49:49Z</time>
      </trkpt>
      <trkpt lat="49.42752" lon="0.23083">
        <ele>5.4</ele>
        <time>2022-05-31T08:49:50Z</time>
      </trkpt>
      <trkpt lat="49.4275" lon="0.23084">
        <ele>5.4</ele>
        <time>2022-05-31T08:49:51Z</time>
      </trkpt>
      <trkpt lat="49.42749" lon="0.23084">
        <ele>5.4</ele>
        <time>2022-05-31T08:49:52Z</time>
      </trkpt>
      <trkpt lat="49.42746" lon="0.23085">
        <ele>5.4</ele>
        <time>2022-05-31T08:49:53Z</time>
      </trkpt>
      <trkpt lat="49.42745" lon="0.23086">
        <ele>5.3</ele>
        <time>2022-05-31T08:49:55Z</time>
      </trkpt>
      <trkpt lat="49.42744" lon="0.23086">
        <ele>5.3</ele>
        <time>2022-05-31T08:49:57Z</time>
      </trkpt>
      <trkpt lat="49.42743" lon="0.23087">
        <ele>5.3</ele>
        <time>2022-05-31T08:49:58Z</time>
      </trkpt>
      <trkpt lat="49.42742" lon="0.23088">
        <ele>5.3</ele>
        <time>2022-05-31T08:49:59Z</time>
      </trkpt>
      <trkpt lat="49.42741" lon="0.23089">
        <ele>5.3</ele>
        <time>2022-05-31T08:50:00Z</time>
      </trkpt>
      <trkpt lat="49.4274" lon="0.2309">
        <ele>5.3</ele>
        <time>2022-05-31T08:50:01Z</time>
      </trkpt>
      <trkpt lat="49.42739" lon="0.23091">
        <ele>5.3</ele>
        <time>2022-05-31T08:50:02Z</time>
      </trkpt>
      <trkpt lat="49.42738" lon="0.23091">
        <ele>5.3</ele>
        <time>2022-05-31T08:50:03Z</time>
      </trkpt>
      <trkpt lat="49.42737" lon="0.23092">
        <ele>5.3</ele>
        <time>2022-05-31T08:50:04Z</time>
      </trkpt>
      <trkpt lat="49.42736" lon="0.23093">
        <ele>5.3</ele>
        <time>2022-05-31T08:50:05Z</time>
      </trkpt>
      <trkpt lat="49.42734" lon="0.23094">
        <ele>5.3</ele>
        <time>2022-05-31T08:50:06Z</time>
      </trkpt>
      <trkpt lat="49.42733" lon="0.23095">
        <ele>5.3</ele>
        <time>2022-05-31T08:50:07Z</time>
      </trkpt>
      <trkpt lat="49.42732" lon="0.23095">
        <ele>5.3</ele>
        <time>2022-05-31T08:50:09Z</time>
      </trkpt>
      <trkpt lat="49.42731" lon="0.23096">
        <ele>5.3</ele>
        <time>2022-05-31T08:50:10Z</time>
      </trkpt>
      <trkpt lat="49.4273" lon="0.23097">
        <ele>5.3</ele>
        <time>2022-05-31T08:50:11Z</time>
      </trkpt>
      <trkpt lat="49.42729" lon="0.23098">
        <ele>5.3</ele>
        <time>2022-05-31T08:50:12Z</time>
      </trkpt>
      <trkpt lat="49.42728" lon="0.23099">
        <ele>5.3</ele>
        <time>2022-05-31T08:50:13Z</time>
      </trkpt>
      <trkpt lat="49.42729" lon="0.231">
        <ele>5.3</ele>
        <time>2022-05-31T08:50:14Z</time>
      </trkpt>
      <trkpt lat="49.42729" lon="0.23101">
        <ele>5.3</ele>
        <time>2022-05-31T08:50:15Z</time>
      </trkpt>
      <trkpt lat="49.4273" lon="0.23102">
        <ele>5.3</ele>
        <time>2022-05-31T08:50:16Z</time>
      </trkpt>
      <trkpt lat="49.42731" lon="0.23103">
        <ele>5.3</ele>
        <time>2022-05-31T08:50:17Z</time>
      </trkpt>
      <trkpt lat="49.42731" lon="0.23103">
        <ele>5.3</ele>
        <time>2022-05-31T08:50:18Z</time>
      </trkpt>
      <trkpt lat="49.42732" lon="0.23103">
        <ele>5.3</ele>
        <time>2022-05-31T08:50:19Z</time>
      </trkpt>
      <trkpt lat="49.42732" lon="0.23103">
        <ele>5.3</ele>
        <time>2022-05-31T08:50:20Z</time>
      </trkpt>
      <trkpt lat="49.42732" lon="0.23103">
        <ele>5.3</ele>
        <time>2022-05-31T08:50:21Z</time>
      </trkpt>
      <trkpt lat="49.42732" lon="0.23103">
        <ele>5.3</ele>
        <time>2022-05-31T08:50:22Z</time>
      </trkpt>
      <trkpt lat="49.42732" lon="0.23103">
        <ele>5.3</ele>
        <time>2022-05-31T08:50:23Z</time>
      </trkpt>
      <trkpt lat="49.42732" lon="0.23103">
        <ele>5.3</ele>
        <time>2022-05-31T08:50:25Z</time>
      </trkpt>
      <trkpt lat="49.42732" lon="0.23103">
        <ele>5.3</ele>
        <time>2022-05-31T08:50:26Z</time>
      </trkpt>
      <trkpt lat="49.42731" lon="0.23103">
        <ele>5.3</ele>
        <time>2022-05-31T08:50:27Z</time>
      </trkpt>
      <trkpt lat="49.4273" lon="0.23104">
        <ele>5.3</ele>
        <time>2022-05-31T08:50:28Z</time>
      </trkpt>
      <trkpt lat="49.42729" lon="0.23105">
        <ele>5.3</ele>
        <time>2022-05-31T08:50:29Z</time>
      </trkpt>
      <trkpt lat="49.42728" lon="0.23106">
        <ele>5.3</ele>
        <time>2022-05-31T08:50:30Z</time>
      </trkpt>
      <trkpt lat="49.42727" lon="0.23106">
        <ele>5.2</ele>
        <time>2022-05-31T08:50:31Z</time>
      </trkpt>
      <trkpt lat="49.42725" lon="0.23107">
        <ele>5.2</ele>
        <time>2022-05-31T08:50:32Z</time>
      </trkpt>
      <trkpt lat="49.42724" lon="0.23108">
        <ele>5.2</ele>
        <time>2022-05-31T08:50:33Z</time>
      </trkpt>
      <trkpt lat="49.42722" lon="0.23108">
        <ele>5.2</ele>
        <time>2022-05-31T08:50:34Z</time>
      </trkpt>
      <trkpt lat="49.4272" lon="0.23109">
        <ele>5.2</ele>
        <time>2022-05-31T08:50:36Z</time>
      </trkpt>
      <trkpt lat="49.42719" lon="0.2311">
        <ele>5.2</ele>
        <time>2022-05-31T08:50:37Z</time>
      </trkpt>
      <trkpt lat="49.42717" lon="0.2311">
        <ele>5.2</ele>
        <time>2022-05-31T08:50:38Z</time>
      </trkpt>
      <trkpt lat="49.42715" lon="0.23111">
        <ele>5.2</ele>
        <time>2022-05-31T08:50:39Z</time>
      </trkpt>
      <trkpt lat="49.42714" lon="0.23112">
        <ele>5.2</ele>
        <time>2022-05-31T08:50:40Z</time>
      </trkpt>
      <trkpt lat="49.42713" lon="0.23113">
        <ele>5.2</ele>
        <time>2022-05-31T08:50:41Z</time>
      </trkpt>
      <trkpt lat="49.42711" lon="0.23114">
        <ele>5.2</ele>
        <time>2022-05-31T08:50:42Z</time>
      </trkpt>
      <trkpt lat="49.4271" lon="0.23115">
        <ele>5.2</ele>
        <time>2022-05-31T08:50:43Z</time>
      </trkpt>
      <trkpt lat="49.42708" lon="0.23117">
        <ele>5.2</ele>
        <time>2022-05-31T08:50:44Z</time>
      </trkpt>
      <trkpt lat="49.42707" lon="0.23117">
        <ele>5.2</ele>
        <time>2022-05-31T08:50:45Z</time>
      </trkpt>
      <trkpt lat="49.42707" lon="0.23118">
        <ele>5.2</ele>
        <time>2022-05-31T08:50:46Z</time>
      </trkpt>
      <trkpt lat="49.42706" lon="0.23119">
        <ele>5.2</ele>
        <time>2022-05-31T08:50:47Z</time>
      </trkpt>
      <trkpt lat="49.42705" lon="0.2312">
        <ele>5.2</ele>
        <time>2022-05-31T08:50:48Z</time>
      </trkpt>
      <trkpt lat="49.42704" lon="0.2312">
        <ele>5.2</ele>
        <time>2022-05-31T08:50:49Z</time>
      </trkpt>
      <trkpt lat="49.42702" lon="0.23121">
        <ele>5.2</ele>
        <time>2022-05-31T08:50:50Z</time>
      </trkpt>
      <trkpt lat="49.42701" lon="0.23121">
        <ele>5.2</ele>
        <time>2022-05-31T08:50:52Z</time>
      </trkpt>
      <trkpt lat="49.42699" lon="0.23122">
        <ele>5.2</ele>
        <time>2022-05-31T08:50:53Z</time>
      </trkpt>
      <trkpt lat="49.42698" lon="0.23123">
        <ele>5.2</ele>
        <time>2022-05-31T08:50:54Z</time>
      </trkpt>
      <trkpt lat="49.42697" lon="0.23124">
        <ele>5.2</ele>
        <time>2022-05-31T08:50:55Z</time>
      </trkpt>
      <trkpt lat="49.42695" lon="0.23126">
        <ele>5.2</ele>
        <time>2022-05-31T08:50:56Z</time>
      </trkpt>
      <trkpt lat="49.42694" lon="0.23127">
        <ele>5.2</ele>
        <time>2022-05-31T08:50:57Z</time>
      </trkpt>
      <trkpt lat="49.42693" lon="0.23128">
        <ele>5.2</ele>
        <time>2022-05-31T08:50:58Z</time>
      </trkpt>
      <trkpt lat="49.42692" lon="0.23129">
        <ele>5.2</ele>
        <time>2022-05-31T08:51:00Z</time>
      </trkpt>
      <trkpt lat="49.42691" lon="0.2313">
        <ele>5.2</ele>
        <time>2022-05-31T08:51:01Z</time>
      </trkpt>
      <trkpt lat="49.4269" lon="0.2313">
        <ele>5.2</ele>
        <time>2022-05-31T08:51:02Z</time>
      </trkpt>
      <trkpt lat="49.42689" lon="0.23131">
        <ele>5.2</ele>
        <time>2022-05-31T08:51:03Z</time>
      </trkpt>
      <trkpt lat="49.42688" lon="0.23133">
        <ele>5.2</ele>
        <time>2022-05-31T08:51:04Z</time>
      </trkpt>
      <trkpt lat="49.42687" lon="0.23134">
        <ele>5.2</ele>
        <time>2022-05-31T08:51:05Z</time>
      </trkpt>
      <trkpt lat="49.42685" lon="0.23137">
        <ele>5.1</ele>
        <time>2022-05-31T08:51:07Z</time>
      </trkpt>
      <trkpt lat="49.42684" lon="0.23138">
        <ele>5.1</ele>
        <time>2022-05-31T08:51:08Z</time>
      </trkpt>
      <trkpt lat="49.42683" lon="0.23139">
        <ele>5.1</ele>
        <time>2022-05-31T08:51:09Z</time>
      </trkpt>
      <trkpt lat="49.42682" lon="0.2314">
        <ele>5.1</ele>
        <time>2022-05-31T08:51:10Z</time>
      </trkpt>
      <trkpt lat="49.4268" lon="0.23141">
        <ele>5.1</ele>
        <time>2022-05-31T08:51:11Z</time>
      </trkpt>
      <trkpt lat="49.42679" lon="0.23142">
        <ele>5.1</ele>
        <time>2022-05-31T08:51:12Z</time>
      </trkpt>
      <trkpt lat="49.42677" lon="0.23143">
        <ele>5.1</ele>
        <time>2022-05-31T08:51:13Z</time>
      </trkpt>
      <trkpt lat="49.42677" lon="0.23144">
        <ele>5.1</ele>
        <time>2022-05-31T08:51:14Z</time>
      </trkpt>
      <trkpt lat="49.42676" lon="0.23144">
        <ele>5.1</ele>
        <time>2022-05-31T08:51:15Z</time>
      </trkpt>
      <trkpt lat="49.42674" lon="0.23146">
        <ele>5.1</ele>
        <time>2022-05-31T08:51:17Z</time>
      </trkpt>
      <trkpt lat="49.42673" lon="0.23146">
        <ele>5.1</ele>
        <time>2022-05-31T08:51:18Z</time>
      </trkpt>
      <trkpt lat="49.42673" lon="0.23147">
        <ele>5.1</ele>
        <time>2022-05-31T08:51:19Z</time>
      </trkpt>
      <trkpt lat="49.42671" lon="0.23148">
        <ele>5.1</ele>
        <time>2022-05-31T08:51:20Z</time>
      </trkpt>
      <trkpt lat="49.42669" lon="0.23149">
        <ele>5.1</ele>
        <time>2022-05-31T08:51:22Z</time>
      </trkpt>
      <trkpt lat="49.42667" lon="0.23151">
        <ele>5.1</ele>
        <time>2022-05-31T08:51:23Z</time>
      </trkpt>
      <trkpt lat="49.42666" lon="0.23151">
        <ele>5.1</ele>
        <time>2022-05-31T08:51:24Z</time>
      </trkpt>
      <trkpt lat="49.42666" lon="0.23152">
        <ele>5.1</ele>
        <time>2022-05-31T08:51:25Z</time>
      </trkpt>
      <trkpt lat="49.42664" lon="0.23153">
        <ele>5.1</ele>
        <time>2022-05-31T08:51:26Z</time>
      </trkpt>
      <trkpt lat="49.42663" lon="0.23154">
        <ele>5.1</ele>
        <time>2022-05-31T08:51:27Z</time>
      </trkpt>
      <trkpt lat="49.42662" lon="0.23155">
        <ele>5.1</ele>
        <time>2022-05-31T08:51:28Z</time>
      </trkpt>
      <trkpt lat="49.42661" lon="0.23156">
        <ele>5.1</ele>
        <time>2022-05-31T08:51:29Z</time>
      </trkpt>
      <trkpt lat="49.4266" lon="0.23156">
        <ele>5.1</ele>
        <time>2022-05-31T08:51:30Z</time>
      </trkpt>
      <trkpt lat="49.42658" lon="0.23157">
        <ele>5.1</ele>
        <time>2022-05-31T08:51:32Z</time>
      </trkpt>
      <trkpt lat="49.42657" lon="0.23157">
        <ele>5.1</ele>
        <time>2022-05-31T08:51:33Z</time>
      </trkpt>
      <trkpt lat="49.42656" lon="0.23157">
        <ele>5.1</ele>
        <time>2022-05-31T08:51:34Z</time>
      </trkpt>
      <trkpt lat="49.42654" lon="0.23158">
        <ele>5.1</ele>
        <time>2022-05-31T08:51:35Z</time>
      </trkpt>
      <trkpt lat="49.42653" lon="0.23157">
        <ele>5.1</ele>
        <time>2022-05-31T08:51:36Z</time>
      </trkpt>
      <trkpt lat="49.42652" lon="0.23157">
        <ele>5.1</ele>
        <time>2022-05-31T08:51:37Z</time>
      </trkpt>
      <trkpt lat="49.42651" lon="0.23157">
        <ele>5.1</ele>
        <time>2022-05-31T08:51:38Z</time>
      </trkpt>
      <trkpt lat="49.4265" lon="0.23157">
        <ele>5.1</ele>
        <time>2022-05-31T08:51:39Z</time>
      </trkpt>
      <trkpt lat="49.42649" lon="0.23157">
        <ele>5.1</ele>
        <time>2022-05-31T08:51:40Z</time>
      </trkpt>
      <trkpt lat="49.42646" lon="0.23158">
        <ele>5.1</ele>
        <time>2022-05-31T08:51:41Z</time>
      </trkpt>
      <trkpt lat="49.42645" lon="0.23158">
        <ele>5.1</ele>
        <time>2022-05-31T08:51:43Z</time>
      </trkpt>
      <trkpt lat="49.42644" lon="0.23159">
        <ele>5.1</ele>
        <time>2022-05-31T08:51:44Z</time>
      </trkpt>
      <trkpt lat="49.42643" lon="0.2316">
        <ele>5.1</ele>
        <time>2022-05-31T08:51:45Z</time>
      </trkpt>
      <trkpt lat="49.42642" lon="0.2316">
        <ele>5.1</ele>
        <time>2022-05-31T08:51:46Z</time>
      </trkpt>
      <trkpt lat="49.42641" lon="0.23161">
        <ele>5.1</ele>
        <time>2022-05-31T08:51:47Z</time>
      </trkpt>
      <trkpt lat="49.4264" lon="0.23162">
        <ele>5.1</ele>
        <time>2022-05-31T08:51:48Z</time>
      </trkpt>
      <trkpt lat="49.4264" lon="0.23163">
        <ele>5.1</ele>
        <time>2022-05-31T08:51:49Z</time>
      </trkpt>
      <trkpt lat="49.42639" lon="0.23165">
        <ele>5.1</ele>
        <time>2022-05-31T08:51:51Z</time>
      </trkpt>
      <trkpt lat="49.42638" lon="0.23167">
        <ele>5.1</ele>
        <time>2022-05-31T08:51:52Z</time>
      </trkpt>
      <trkpt lat="49.42637" lon="0.23169">
        <ele>5.1</ele>
        <time>2022-05-31T08:51:53Z</time>
      </trkpt>
      <trkpt lat="49.42637" lon="0.2317">
        <ele>5.1</ele>
        <time>2022-05-31T08:51:54Z</time>
      </trkpt>
      <trkpt lat="49.42636" lon="0.23171">
        <ele>5.1</ele>
        <time>2022-05-31T08:51:56Z</time>
      </trkpt>
      <trkpt lat="49.42635" lon="0.23171">
        <ele>5.1</ele>
        <time>2022-05-31T08:51:57Z</time>
      </trkpt>
      <trkpt lat="49.42634" lon="0.23172">
        <ele>5.1</ele>
        <time>2022-05-31T08:51:58Z</time>
      </trkpt>
      <trkpt lat="49.42634" lon="0.23173">
        <ele>5.1</ele>
        <time>2022-05-31T08:51:59Z</time>
      </trkpt>
      <trkpt lat="49.42633" lon="0.23173">
        <ele>5.1</ele>
        <time>2022-05-31T08:52:01Z</time>
      </trkpt>
      <trkpt lat="49.42632" lon="0.23173">
        <ele>5.1</ele>
        <time>2022-05-31T08:52:02Z</time>
      </trkpt>
      <trkpt lat="49.42631" lon="0.23174">
        <ele>5.1</ele>
        <time>2022-05-31T08:52:03Z</time>
      </trkpt>
      <trkpt lat="49.42631" lon="0.23174">
        <ele>5.1</ele>
        <time>2022-05-31T08:52:04Z</time>
      </trkpt>
      <trkpt lat="49.42631" lon="0.23176">
        <ele>5.1</ele>
        <time>2022-05-31T08:52:05Z</time>
      </trkpt>
      <trkpt lat="49.4263" lon="0.23178">
        <ele>5.1</ele>
        <time>2022-05-31T08:52:07Z</time>
      </trkpt>
      <trkpt lat="49.4263" lon="0.23179">
        <ele>5.1</ele>
        <time>2022-05-31T08:52:08Z</time>
      </trkpt>
      <trkpt lat="49.4263" lon="0.23181">
        <ele>5.1</ele>
        <time>2022-05-31T08:52:09Z</time>
      </trkpt>
      <trkpt lat="49.42629" lon="0.23182">
        <ele>5.1</ele>
        <time>2022-05-31T08:52:10Z</time>
      </trkpt>
      <trkpt lat="49.42629" lon="0.23183">
        <ele>5.1</ele>
        <time>2022-05-31T08:52:11Z</time>
      </trkpt>
      <trkpt lat="49.42629" lon="0.23184">
        <ele>5.1</ele>
        <time>2022-05-31T08:52:12Z</time>
      </trkpt>
      <trkpt lat="49.42628" lon="0.23185">
        <ele>5.1</ele>
        <time>2022-05-31T08:52:13Z</time>
      </trkpt>
      <trkpt lat="49.42628" lon="0.23186">
        <ele>5.1</ele>
        <time>2022-05-31T08:52:14Z</time>
      </trkpt>
      <trkpt lat="49.42627" lon="0.23186">
        <ele>5.1</ele>
        <time>2022-05-31T08:52:15Z</time>
      </trkpt>
      <trkpt lat="49.42627" lon="0.23186">
        <ele>5.1</ele>
        <time>2022-05-31T08:52:16Z</time>
      </trkpt>
      <trkpt lat="49.42626" lon="0.23186">
        <ele>5.1</ele>
        <time>2022-05-31T08:52:19Z</time>
      </trkpt>
      <trkpt lat="49.42627" lon="0.23186">
        <ele>5.1</ele>
        <time>2022-05-31T08:52:21Z</time>
      </trkpt>
      <trkpt lat="49.42627" lon="0.23186">
        <ele>5.1</ele>
        <time>2022-05-31T08:52:22Z</time>
      </trkpt>
      <trkpt lat="49.42627" lon="0.23186">
        <ele>5.1</ele>
        <time>2022-05-31T08:52:23Z</time>
      </trkpt>
      <trkpt lat="49.42627" lon="0.23186">
        <ele>5.1</ele>
        <time>2022-05-31T08:52:25Z</time>
      </trkpt>
      <trkpt lat="49.42627" lon="0.23186">
        <ele>5.1</ele>
        <time>2022-05-31T08:52:26Z</time>
      </trkpt>
      <trkpt lat="49.42627" lon="0.23186">
        <ele>5.1</ele>
        <time>2022-05-31T08:52:27Z</time>
      </trkpt>
      <trkpt lat="49.42627" lon="0.23186">
        <ele>5.1</ele>
        <time>2022-05-31T08:52:28Z</time>
      </trkpt>
      <trkpt lat="49.42627" lon="0.23186">
        <ele>5.1</ele>
        <time>2022-05-31T08:52:29Z</time>
      </trkpt>
      <trkpt lat="49.42627" lon="0.23186">
        <ele>5.1</ele>
        <time>2022-05-31T08:52:30Z</time>
      </trkpt>
      <trkpt lat="49.42627" lon="0.23186">
        <ele>5.1</ele>
        <time>2022-05-31T08:52:31Z</time>
      </trkpt>
      <trkpt lat="49.42628" lon="0.23186">
        <ele>5.1</ele>
        <time>2022-05-31T08:52:32Z</time>
      </trkpt>
      <trkpt lat="49.42628" lon="0.23186">
        <ele>5.1</ele>
        <time>2022-05-31T08:52:33Z</time>
      </trkpt>
      <trkpt lat="49.42628" lon="0.23186">
        <ele>5.1</ele>
        <time>2022-05-31T08:52:34Z</time>
      </trkpt>
      <trkpt lat="49.42628" lon="0.23186">
        <ele>5.1</ele>
        <time>2022-05-31T08:52:35Z</time>
      </trkpt>
      <trkpt lat="49.42628" lon="0.23185">
        <ele>5.1</ele>
        <time>2022-05-31T08:52:36Z</time>
      </trkpt>
      <trkpt lat="49.42627" lon="0.23185">
        <ele>5.1</ele>
        <time>2022-05-31T08:52:37Z</time>
      </trkpt>
      <trkpt lat="49.42627" lon="0.23184">
        <ele>5.1</ele>
        <time>2022-05-31T08:52:39Z</time>
      </trkpt>
      <trkpt lat="49.42626" lon="0.23184">
        <ele>5.1</ele>
        <time>2022-05-31T08:52:40Z</time>
      </trkpt>
      <trkpt lat="49.42626" lon="0.23184">
        <ele>5.1</ele>
        <time>2022-05-31T08:52:41Z</time>
      </trkpt>
      <trkpt lat="49.42626" lon="0.23184">
        <ele>5.1</ele>
        <time>2022-05-31T08:52:42Z</time>
      </trkpt>
      <trkpt lat="49.42626" lon="0.23184">
        <ele>5.1</ele>
        <time>2022-05-31T08:52:43Z</time>
      </trkpt>
      <trkpt lat="49.42626" lon="0.23184">
        <ele>5.1</ele>
        <time>2022-05-31T08:52:44Z</time>
      </trkpt>
      <trkpt lat="49.42627" lon="0.23185">
        <ele>5.1</ele>
        <time>2022-05-31T08:52:45Z</time>
      </trkpt>
      <trkpt lat="49.42627" lon="0.23185">
        <ele>5.1</ele>
        <time>2022-05-31T08:52:46Z</time>
      </trkpt>
      <trkpt lat="49.42627" lon="0.23186">
        <ele>5.1</ele>
        <time>2022-05-31T08:52:47Z</time>
      </trkpt>
      <trkpt lat="49.42627" lon="0.23186">
        <ele>5.1</ele>
        <time>2022-05-31T08:52:48Z</time>
      </trkpt>
      <trkpt lat="49.42627" lon="0.23186">
        <ele>5.1</ele>
        <time>2022-05-31T08:52:49Z</time>
      </trkpt>
      <trkpt lat="49.42627" lon="0.23186">
        <ele>5.1</ele>
        <time>2022-05-31T08:52:50Z</time>
      </trkpt>
      <trkpt lat="49.42627" lon="0.23186">
        <ele>5.1</ele>
        <time>2022-05-31T08:52:51Z</time>
      </trkpt>
      <trkpt lat="49.42627" lon="0.23186">
        <ele>5.1</ele>
        <time>2022-05-31T08:52:52Z</time>
      </trkpt>
      <trkpt lat="49.42627" lon="0.23186">
        <ele>5.1</ele>
        <time>2022-05-31T08:52:53Z</time>
      </trkpt>
      <trkpt lat="49.42627" lon="0.23186">
        <ele>5.1</ele>
        <time>2022-05-31T08:52:54Z</time>
      </trkpt>
      <trkpt lat="49.42627" lon="0.23186">
        <ele>5.1</ele>
        <time>2022-05-31T08:52:56Z</time>
      </trkpt>
      <trkpt lat="49.42627" lon="0.23187">
        <ele>5.1</ele>
        <time>2022-05-31T08:52:57Z</time>
      </trkpt>
      <trkpt lat="49.42627" lon="0.23187">
        <ele>5.1</ele>
        <time>2022-05-31T08:52:58Z</time>
      </trkpt>
      <trkpt lat="49.42626" lon="0.23187">
        <ele>5.1</ele>
        <time>2022-05-31T08:52:59Z</time>
      </trkpt>
      <trkpt lat="49.42625" lon="0.23188">
        <ele>5.1</ele>
        <time>2022-05-31T08:53:01Z</time>
      </trkpt>
      <trkpt lat="49.42623" lon="0.23188">
        <ele>5.1</ele>
        <time>2022-05-31T08:53:02Z</time>
      </trkpt>
      <trkpt lat="49.42622" lon="0.23189">
        <ele>5.1</ele>
        <time>2022-05-31T08:53:03Z</time>
      </trkpt>
      <trkpt lat="49.42621" lon="0.23189">
        <ele>5.1</ele>
        <time>2022-05-31T08:53:05Z</time>
      </trkpt>
      <trkpt lat="49.4262" lon="0.2319">
        <ele>5.1</ele>
        <time>2022-05-31T08:53:06Z</time>
      </trkpt>
      <trkpt lat="49.4262" lon="0.23189">
        <ele>5.1</ele>
        <time>2022-05-31T08:53:07Z</time>
      </trkpt>
      <trkpt lat="49.4262" lon="0.2319">
        <ele>5.1</ele>
        <time>2022-05-31T08:53:08Z</time>
      </trkpt>
      <trkpt lat="49.42619" lon="0.23191">
        <ele>5.1</ele>
        <time>2022-05-31T08:53:09Z</time>
      </trkpt>
      <trkpt lat="49.42619" lon="0.23193">
        <ele>5.1</ele>
        <time>2022-05-31T08:53:11Z</time>
      </trkpt>
      <trkpt lat="49.42618" lon="0.23193">
        <ele>5.1</ele>
        <time>2022-05-31T08:53:12Z</time>
      </trkpt>
      <trkpt lat="49.42617" lon="0.23194">
        <ele>5.1</ele>
        <time>2022-05-31T08:53:13Z</time>
      </trkpt>
      <trkpt lat="49.42617" lon="0.23194">
        <ele>5.1</ele>
        <time>2022-05-31T08:53:14Z</time>
      </trkpt>
      <trkpt lat="49.42616" lon="0.23195">
        <ele>5.1</ele>
        <time>2022-05-31T08:53:15Z</time>
      </trkpt>
      <trkpt lat="49.42615" lon="0.23196">
        <ele>5.1</ele>
        <time>2022-05-31T08:53:16Z</time>
      </trkpt>
      <trkpt lat="49.42614" lon="0.23197">
        <ele>5.2</ele>
        <time>2022-05-31T08:53:17Z</time>
      </trkpt>
      <trkpt lat="49.42613" lon="0.23198">
        <ele>5.2</ele>
        <time>2022-05-31T08:53:19Z</time>
      </trkpt>
      <trkpt lat="49.42612" lon="0.23199">
        <ele>5.2</ele>
        <time>2022-05-31T08:53:20Z</time>
      </trkpt>
      <trkpt lat="49.42611" lon="0.23199">
        <ele>5.2</ele>
        <time>2022-05-31T08:53:21Z</time>
      </trkpt>
      <trkpt lat="49.4261" lon="0.232">
        <ele>5.2</ele>
        <time>2022-05-31T08:53:22Z</time>
      </trkpt>
      <trkpt lat="49.42609" lon="0.232">
        <ele>5.2</ele>
        <time>2022-05-31T08:53:23Z</time>
      </trkpt>
      <trkpt lat="49.42608" lon="0.23201">
        <ele>5.2</ele>
        <time>2022-05-31T08:53:24Z</time>
      </trkpt>
      <trkpt lat="49.42607" lon="0.23202">
        <ele>5.2</ele>
        <time>2022-05-31T08:53:25Z</time>
      </trkpt>
      <trkpt lat="49.42606" lon="0.23203">
        <ele>5.2</ele>
        <time>2022-05-31T08:53:26Z</time>
      </trkpt>
      <trkpt lat="49.42605" lon="0.23204">
        <ele>5.2</ele>
        <time>2022-05-31T08:53:27Z</time>
      </trkpt>
      <trkpt lat="49.42604" lon="0.23206">
        <ele>5.2</ele>
        <time>2022-05-31T08:53:29Z</time>
      </trkpt>
      <trkpt lat="49.42603" lon="0.23207">
        <ele>5.2</ele>
        <time>2022-05-31T08:53:30Z</time>
      </trkpt>
      <trkpt lat="49.42601" lon="0.23207">
        <ele>5.2</ele>
        <time>2022-05-31T08:53:31Z</time>
      </trkpt>
      <trkpt lat="49.426" lon="0.23208">
        <ele>5.2</ele>
        <time>2022-05-31T08:53:32Z</time>
      </trkpt>
      <trkpt lat="49.426" lon="0.23208">
        <ele>5.2</ele>
        <time>2022-05-31T08:53:33Z</time>
      </trkpt>
      <trkpt lat="49.42599" lon="0.23208">
        <ele>5.2</ele>
        <time>2022-05-31T08:53:34Z</time>
      </trkpt>
      <trkpt lat="49.42599" lon="0.23208">
        <ele>5.2</ele>
        <time>2022-05-31T08:53:35Z</time>
      </trkpt>
      <trkpt lat="49.42599" lon="0.23208">
        <ele>5.2</ele>
        <time>2022-05-31T08:53:36Z</time>
      </trkpt>
      <trkpt lat="49.42598" lon="0.23208">
        <ele>5.2</ele>
        <time>2022-05-31T08:53:37Z</time>
      </trkpt>
      <trkpt lat="49.42598" lon="0.23208">
        <ele>5.2</ele>
        <time>2022-05-31T08:53:38Z</time>
      </trkpt>
      <trkpt lat="49.42598" lon="0.23208">
        <ele>5.2</ele>
        <time>2022-05-31T08:53:39Z</time>
      </trkpt>
      <trkpt lat="49.42597" lon="0.23208">
        <ele>5.2</ele>
        <time>2022-05-31T08:53:40Z</time>
      </trkpt>
      <trkpt lat="49.42597" lon="0.23207">
        <ele>5.2</ele>
        <time>2022-05-31T08:53:42Z</time>
      </trkpt>
      <trkpt lat="49.42597" lon="0.23207">
        <ele>5.2</ele>
        <time>2022-05-31T08:53:43Z</time>
      </trkpt>
      <trkpt lat="49.42597" lon="0.23207">
        <ele>5.2</ele>
        <time>2022-05-31T08:53:44Z</time>
      </trkpt>
      <trkpt lat="49.42596" lon="0.23207">
        <ele>5.2</ele>
        <time>2022-05-31T08:53:45Z</time>
      </trkpt>
      <trkpt lat="49.42594" lon="0.23208">
        <ele>5.2</ele>
        <time>2022-05-31T08:53:46Z</time>
      </trkpt>
      <trkpt lat="49.42593" lon="0.23208">
        <ele>5.2</ele>
        <time>2022-05-31T08:53:47Z</time>
      </trkpt>
      <trkpt lat="49.42591" lon="0.23208">
        <ele>5.2</ele>
        <time>2022-05-31T08:53:48Z</time>
      </trkpt>
      <trkpt lat="49.4259" lon="0.23208">
        <ele>5.2</ele>
        <time>2022-05-31T08:53:49Z</time>
      </trkpt>
      <trkpt lat="49.42588" lon="0.23208">
        <ele>5.2</ele>
        <time>2022-05-31T08:53:50Z</time>
      </trkpt>
      <trkpt lat="49.42587" lon="0.23208">
        <ele>5.2</ele>
        <time>2022-05-31T08:53:51Z</time>
      </trkpt>
      <trkpt lat="49.42586" lon="0.23209">
        <ele>5.2</ele>
        <time>2022-05-31T08:53:53Z</time>
      </trkpt>
      <trkpt lat="49.42584" lon="0.23212">
        <ele>5.2</ele>
        <time>2022-05-31T08:53:54Z</time>
      </trkpt>
      <trkpt lat="49.42583" lon="0.23214">
        <ele>5.2</ele>
        <time>2022-05-31T08:53:55Z</time>
      </trkpt>
      <trkpt lat="49.42581" lon="0.23216">
        <ele>5.2</ele>
        <time>2022-05-31T08:53:56Z</time>
      </trkpt>
      <trkpt lat="49.4258" lon="0.23217">
        <ele>5.2</ele>
        <time>2022-05-31T08:53:57Z</time>
      </trkpt>
      <trkpt lat="49.42579" lon="0.23218">
        <ele>5.2</ele>
        <time>2022-05-31T08:53:58Z</time>
      </trkpt>
      <trkpt lat="49.42578" lon="0.23218">
        <ele>5.2</ele>
        <time>2022-05-31T08:53:59Z</time>
      </trkpt>
      <trkpt lat="49.42577" lon="0.23219">
        <ele>5.2</ele>
        <time>2022-05-31T08:54:00Z</time>
      </trkpt>
      <trkpt lat="49.42576" lon="0.23221">
        <ele>5.2</ele>
        <time>2022-05-31T08:54:01Z</time>
      </trkpt>
      <trkpt lat="49.42575" lon="0.23222">
        <ele>5.2</ele>
        <time>2022-05-31T08:54:02Z</time>
      </trkpt>
      <trkpt lat="49.42574" lon="0.23223">
        <ele>5.2</ele>
        <time>2022-05-31T08:54:03Z</time>
      </trkpt>
      <trkpt lat="49.42573" lon="0.23224">
        <ele>5.2</ele>
        <time>2022-05-31T08:54:04Z</time>
      </trkpt>
      <trkpt lat="49.42571" lon="0.23225">
        <ele>5.2</ele>
        <time>2022-05-31T08:54:05Z</time>
      </trkpt>
      <trkpt lat="49.42569" lon="0.23227">
        <ele>5.2</ele>
        <time>2022-05-31T08:54:07Z</time>
      </trkpt>
      <trkpt lat="49.42568" lon="0.23227">
        <ele>5.2</ele>
        <time>2022-05-31T08:54:08Z</time>
      </trkpt>
      <trkpt lat="49.42566" lon="0.2323">
        <ele>5.2</ele>
        <time>2022-05-31T08:54:09Z</time>
      </trkpt>
      <trkpt lat="49.42566" lon="0.23231">
        <ele>5.2</ele>
        <time>2022-05-31T08:54:10Z</time>
      </trkpt>
      <trkpt lat="49.42565" lon="0.23232">
        <ele>5.2</ele>
        <time>2022-05-31T08:54:11Z</time>
      </trkpt>
      <trkpt lat="49.42563" lon="0.23234">
        <ele>5.2</ele>
        <time>2022-05-31T08:54:12Z</time>
      </trkpt>
      <trkpt lat="49.42563" lon="0.23235">
        <ele>5.2</ele>
        <time>2022-05-31T08:54:13Z</time>
      </trkpt>
      <trkpt lat="49.42562" lon="0.23235">
        <ele>5.2</ele>
        <time>2022-05-31T08:54:14Z</time>
      </trkpt>
      <trkpt lat="49.42561" lon="0.23237">
        <ele>5.2</ele>
        <time>2022-05-31T08:54:15Z</time>
      </trkpt>
      <trkpt lat="49.42559" lon="0.23238">
        <ele>5.2</ele>
        <time>2022-05-31T08:54:17Z</time>
      </trkpt>
      <trkpt lat="49.42558" lon="0.23239">
        <ele>5.3</ele>
        <time>2022-05-31T08:54:18Z</time>
      </trkpt>
      <trkpt lat="49.42557" lon="0.2324">
        <ele>5.3</ele>
        <time>2022-05-31T08:54:19Z</time>
      </trkpt>
      <trkpt lat="49.42557" lon="0.23241">
        <ele>5.3</ele>
        <time>2022-05-31T08:54:20Z</time>
      </trkpt>
      <trkpt lat="49.42555" lon="0.23243">
        <ele>5.3</ele>
        <time>2022-05-31T08:54:21Z</time>
      </trkpt>
      <trkpt lat="49.42554" lon="0.23243">
        <ele>5.3</ele>
        <time>2022-05-31T08:54:22Z</time>
      </trkpt>
      <trkpt lat="49.42553" lon="0.23244">
        <ele>5.3</ele>
        <time>2022-05-31T08:54:23Z</time>
      </trkpt>
      <trkpt lat="49.42552" lon="0.23245">
        <ele>5.3</ele>
        <time>2022-05-31T08:54:24Z</time>
      </trkpt>
      <trkpt lat="49.42551" lon="0.23246">
        <ele>5.3</ele>
        <time>2022-05-31T08:54:25Z</time>
      </trkpt>
      <trkpt lat="49.4255" lon="0.23247">
        <ele>5.3</ele>
        <time>2022-05-31T08:54:27Z</time>
      </trkpt>
      <trkpt lat="49.42549" lon="0.23248">
        <ele>5.3</ele>
        <time>2022-05-31T08:54:28Z</time>
      </trkpt>
      <trkpt lat="49.42548" lon="0.23249">
        <ele>5.3</ele>
        <time>2022-05-31T08:54:29Z</time>
      </trkpt>
      <trkpt lat="49.42547" lon="0.23249">
        <ele>5.3</ele>
        <time>2022-05-31T08:54:30Z</time>
      </trkpt>
      <trkpt lat="49.42545" lon="0.2325">
        <ele>5.3</ele>
        <time>2022-05-31T08:54:31Z</time>
      </trkpt>
      <trkpt lat="49.42544" lon="0.23251">
        <ele>5.3</ele>
        <time>2022-05-31T08:54:33Z</time>
      </trkpt>
      <trkpt lat="49.42543" lon="0.23251">
        <ele>5.3</ele>
        <time>2022-05-31T08:54:34Z</time>
      </trkpt>
      <trkpt lat="49.4254" lon="0.23253">
        <ele>5.3</ele>
        <time>2022-05-31T08:54:35Z</time>
      </trkpt>
      <trkpt lat="49.42539" lon="0.23254">
        <ele>5.3</ele>
        <time>2022-05-31T08:54:36Z</time>
      </trkpt>
      <trkpt lat="49.42538" lon="0.23255">
        <ele>5.3</ele>
        <time>2022-05-31T08:54:37Z</time>
      </trkpt>
      <trkpt lat="49.42537" lon="0.23256">
        <ele>5.3</ele>
        <time>2022-05-31T08:54:39Z</time>
      </trkpt>
      <trkpt lat="49.42536" lon="0.23257">
        <ele>5.3</ele>
        <time>2022-05-31T08:54:40Z</time>
      </trkpt>
      <trkpt lat="49.42534" lon="0.23258">
        <ele>5.3</ele>
        <time>2022-05-31T08:54:41Z</time>
      </trkpt>
      <trkpt lat="49.42533" lon="0.2326">
        <ele>5.3</ele>
        <time>2022-05-31T08:54:42Z</time>
      </trkpt>
      <trkpt lat="49.42532" lon="0.2326">
        <ele>5.3</ele>
        <time>2022-05-31T08:54:43Z</time>
      </trkpt>
      <trkpt lat="49.42531" lon="0.23261">
        <ele>5.3</ele>
        <time>2022-05-31T08:54:44Z</time>
      </trkpt>
      <trkpt lat="49.4253" lon="0.23262">
        <ele>5.3</ele>
        <time>2022-05-31T08:54:45Z</time>
      </trkpt>
      <trkpt lat="49.42529" lon="0.23263">
        <ele>5.3</ele>
        <time>2022-05-31T08:54:46Z</time>
      </trkpt>
      <trkpt lat="49.42527" lon="0.23265">
        <ele>5.3</ele>
        <time>2022-05-31T08:54:47Z</time>
      </trkpt>
      <trkpt lat="49.42526" lon="0.23265">
        <ele>5.3</ele>
        <time>2022-05-31T08:54:48Z</time>
      </trkpt>
      <trkpt lat="49.42525" lon="0.23266">
        <ele>5.3</ele>
        <time>2022-05-31T08:54:49Z</time>
      </trkpt>
      <trkpt lat="49.42523" lon="0.23268">
        <ele>5.3</ele>
        <time>2022-05-31T08:54:51Z</time>
      </trkpt>
      <trkpt lat="49.42523" lon="0.23269">
        <ele>5.3</ele>
        <time>2022-05-31T08:54:52Z</time>
      </trkpt>
      <trkpt lat="49.42522" lon="0.23269">
        <ele>5.3</ele>
        <time>2022-05-31T08:54:53Z</time>
      </trkpt>
      <trkpt lat="49.42521" lon="0.23271">
        <ele>5.3</ele>
        <time>2022-05-31T08:54:54Z</time>
      </trkpt>
      <trkpt lat="49.4252" lon="0.23272">
        <ele>5.3</ele>
        <time>2022-05-31T08:54:55Z</time>
      </trkpt>
      <trkpt lat="49.42519" lon="0.23273">
        <ele>5.3</ele>
        <time>2022-05-31T08:54:56Z</time>
      </trkpt>
      <trkpt lat="49.42518" lon="0.23274">
        <ele>5.3</ele>
        <time>2022-05-31T08:54:57Z</time>
      </trkpt>
      <trkpt lat="49.42517" lon="0.23275">
        <ele>5.3</ele>
        <time>2022-05-31T08:54:59Z</time>
      </trkpt>
      <trkpt lat="49.42515" lon="0.23277">
        <ele>5.3</ele>
        <time>2022-05-31T08:55:00Z</time>
      </trkpt>
      <trkpt lat="49.42514" lon="0.23277">
        <ele>5.3</ele>
        <time>2022-05-31T08:55:01Z</time>
      </trkpt>
      <trkpt lat="49.42513" lon="0.23278">
        <ele>5.3</ele>
        <time>2022-05-31T08:55:02Z</time>
      </trkpt>
      <trkpt lat="49.42511" lon="0.23279">
        <ele>5.3</ele>
        <time>2022-05-31T08:55:03Z</time>
      </trkpt>
      <trkpt lat="49.4251" lon="0.2328">
        <ele>5.3</ele>
        <time>2022-05-31T08:55:05Z</time>
      </trkpt>
      <trkpt lat="49.42509" lon="0.23281">
        <ele>5.3</ele>
        <time>2022-05-31T08:55:06Z</time>
      </trkpt>
      <trkpt lat="49.42508" lon="0.23281">
        <ele>5.3</ele>
        <time>2022-05-31T08:55:07Z</time>
      </trkpt>
      <trkpt lat="49.42507" lon="0.23282">
        <ele>5.3</ele>
        <time>2022-05-31T08:55:08Z</time>
      </trkpt>
      <trkpt lat="49.42505" lon="0.23283">
        <ele>5.3</ele>
        <time>2022-05-31T08:55:09Z</time>
      </trkpt>
      <trkpt lat="49.42504" lon="0.23283">
        <ele>5.3</ele>
        <time>2022-05-31T08:55:10Z</time>
      </trkpt>
      <trkpt lat="49.42503" lon="0.23284">
        <ele>5.3</ele>
        <time>2022-05-31T08:55:11Z</time>
      </trkpt>
      <trkpt lat="49.42501" lon="0.23285">
        <ele>5.3</ele>
        <time>2022-05-31T08:55:12Z</time>
      </trkpt>
      <trkpt lat="49.425" lon="0.23285">
        <ele>5.3</ele>
        <time>2022-05-31T08:55:13Z</time>
      </trkpt>
      <trkpt lat="49.42499" lon="0.23286">
        <ele>5.3</ele>
        <time>2022-05-31T08:55:14Z</time>
      </trkpt>
      <trkpt lat="49.42497" lon="0.23287">
        <ele>5.3</ele>
        <time>2022-05-31T08:55:15Z</time>
      </trkpt>
      <trkpt lat="49.42496" lon="0.23288">
        <ele>5.3</ele>
        <time>2022-05-31T08:55:17Z</time>
      </trkpt>
      <trkpt lat="49.42494" lon="0.23288">
        <ele>5.3</ele>
        <time>2022-05-31T08:55:18Z</time>
      </trkpt>
      <trkpt lat="49.42493" lon="0.23289">
        <ele>5.3</ele>
        <time>2022-05-31T08:55:19Z</time>
      </trkpt>
      <trkpt lat="49.42492" lon="0.2329">
        <ele>5.3</ele>
        <time>2022-05-31T08:55:21Z</time>
      </trkpt>
      <trkpt lat="49.42491" lon="0.23291">
        <ele>5.3</ele>
        <time>2022-05-31T08:55:22Z</time>
      </trkpt>
      <trkpt lat="49.4249" lon="0.23293">
        <ele>5.3</ele>
        <time>2022-05-31T08:55:23Z</time>
      </trkpt>
      <trkpt lat="49.42488" lon="0.23294">
        <ele>5.3</ele>
        <time>2022-05-31T08:55:24Z</time>
      </trkpt>
      <trkpt lat="49.42486" lon="0.23296">
        <ele>5.3</ele>
        <time>2022-05-31T08:55:26Z</time>
      </trkpt>
      <trkpt lat="49.42484" lon="0.23298">
        <ele>5.3</ele>
        <time>2022-05-31T08:55:27Z</time>
      </trkpt>
      <trkpt lat="49.42484" lon="0.23298">
        <ele>5.3</ele>
        <time>2022-05-31T08:55:28Z</time>
      </trkpt>
      <trkpt lat="49.42483" lon="0.23299">
        <ele>5.3</ele>
        <time>2022-05-31T08:55:29Z</time>
      </trkpt>
      <trkpt lat="49.42481" lon="0.23301">
        <ele>5.4</ele>
        <time>2022-05-31T08:55:30Z</time>
      </trkpt>
      <trkpt lat="49.4248" lon="0.23302">
        <ele>5.4</ele>
        <time>2022-05-31T08:55:32Z</time>
      </trkpt>
      <trkpt lat="49.42479" lon="0.23303">
        <ele>5.4</ele>
        <time>2022-05-31T08:55:33Z</time>
      </trkpt>
      <trkpt lat="49.42478" lon="0.23303">
        <ele>5.4</ele>
        <time>2022-05-31T08:55:34Z</time>
      </trkpt>
      <trkpt lat="49.42476" lon="0.23304">
        <ele>5.4</ele>
        <time>2022-05-31T08:55:35Z</time>
      </trkpt>
      <trkpt lat="49.42476" lon="0.23304">
        <ele>5.4</ele>
        <time>2022-05-31T08:55:37Z</time>
      </trkpt>
      <trkpt lat="49.42475" lon="0.23305">
        <ele>5.4</ele>
        <time>2022-05-31T08:55:38Z</time>
      </trkpt>
      <trkpt lat="49.42473" lon="0.23305">
        <ele>5.4</ele>
        <time>2022-05-31T08:55:39Z</time>
      </trkpt>
      <trkpt lat="49.42472" lon="0.23305">
        <ele>5.4</ele>
        <time>2022-05-31T08:55:40Z</time>
      </trkpt>
      <trkpt lat="49.42471" lon="0.23306">
        <ele>5.4</ele>
        <time>2022-05-31T08:55:41Z</time>
      </trkpt>
      <trkpt lat="49.4247" lon="0.23307">
        <ele>5.4</ele>
        <time>2022-05-31T08:55:42Z</time>
      </trkpt>
      <trkpt lat="49.42469" lon="0.23308">
        <ele>5.4</ele>
        <time>2022-05-31T08:55:44Z</time>
      </trkpt>
      <trkpt lat="49.42469" lon="0.23309">
        <ele>5.4</ele>
        <time>2022-05-31T08:55:45Z</time>
      </trkpt>
      <trkpt lat="49.42467" lon="0.2331">
        <ele>5.4</ele>
        <time>2022-05-31T08:55:46Z</time>
      </trkpt>
      <trkpt lat="49.42467" lon="0.23311">
        <ele>5.4</ele>
        <time>2022-05-31T08:55:47Z</time>
      </trkpt>
      <trkpt lat="49.42466" lon="0.23311">
        <ele>5.4</ele>
        <time>2022-05-31T08:55:48Z</time>
      </trkpt>
      <trkpt lat="49.42465" lon="0.23312">
        <ele>5.4</ele>
        <time>2022-05-31T08:55:49Z</time>
      </trkpt>
      <trkpt lat="49.42464" lon="0.23313">
        <ele>5.4</ele>
        <time>2022-05-31T08:55:50Z</time>
      </trkpt>
      <trkpt lat="49.42462" lon="0.23315">
        <ele>5.4</ele>
        <time>2022-05-31T08:55:51Z</time>
      </trkpt>
      <trkpt lat="49.42461" lon="0.23315">
        <ele>5.4</ele>
        <time>2022-05-31T08:55:52Z</time>
      </trkpt>
      <trkpt lat="49.4246" lon="0.23316">
        <ele>5.4</ele>
        <time>2022-05-31T08:55:53Z</time>
      </trkpt>
      <trkpt lat="49.42459" lon="0.23316">
        <ele>5.4</ele>
        <time>2022-05-31T08:55:54Z</time>
      </trkpt>
      <trkpt lat="49.42457" lon="0.23317">
        <ele>5.4</ele>
        <time>2022-05-31T08:55:56Z</time>
      </trkpt>
      <trkpt lat="49.42457" lon="0.23317">
        <ele>5.4</ele>
        <time>2022-05-31T08:55:57Z</time>
      </trkpt>
      <trkpt lat="49.42456" lon="0.23318">
        <ele>5.4</ele>
        <time>2022-05-31T08:55:58Z</time>
      </trkpt>
      <trkpt lat="49.42455" lon="0.23319">
        <ele>5.4</ele>
        <time>2022-05-31T08:55:59Z</time>
      </trkpt>
      <trkpt lat="49.42454" lon="0.23322">
        <ele>5.4</ele>
        <time>2022-05-31T08:56:01Z</time>
      </trkpt>
      <trkpt lat="49.42453" lon="0.23323">
        <ele>5.4</ele>
        <time>2022-05-31T08:56:02Z</time>
      </trkpt>
      <trkpt lat="49.42453" lon="0.23324">
        <ele>5.4</ele>
        <time>2022-05-31T08:56:03Z</time>
      </trkpt>
      <trkpt lat="49.42452" lon="0.23325">
        <ele>5.4</ele>
        <time>2022-05-31T08:56:04Z</time>
      </trkpt>
      <trkpt lat="49.4245" lon="0.23327">
        <ele>5.4</ele>
        <time>2022-05-31T08:56:06Z</time>
      </trkpt>
      <trkpt lat="49.42449" lon="0.23327">
        <ele>5.4</ele>
        <time>2022-05-31T08:56:07Z</time>
      </trkpt>
      <trkpt lat="49.42448" lon="0.23329">
        <ele>5.4</ele>
        <time>2022-05-31T08:56:08Z</time>
      </trkpt>
      <trkpt lat="49.42447" lon="0.23329">
        <ele>5.4</ele>
        <time>2022-05-31T08:56:10Z</time>
      </trkpt>
      <trkpt lat="49.42446" lon="0.2333">
        <ele>5.4</ele>
        <time>2022-05-31T08:56:11Z</time>
      </trkpt>
      <trkpt lat="49.42445" lon="0.23331">
        <ele>5.4</ele>
        <time>2022-05-31T08:56:12Z</time>
      </trkpt>
      <trkpt lat="49.42444" lon="0.23331">
        <ele>5.4</ele>
        <time>2022-05-31T08:56:13Z</time>
      </trkpt>
      <trkpt lat="49.42443" lon="0.23331">
        <ele>5.4</ele>
        <time>2022-05-31T08:56:14Z</time>
      </trkpt>
      <trkpt lat="49.42442" lon="0.23332">
        <ele>5.4</ele>
        <time>2022-05-31T08:56:15Z</time>
      </trkpt>
      <trkpt lat="49.4244" lon="0.23333">
        <ele>5.4</ele>
        <time>2022-05-31T08:56:17Z</time>
      </trkpt>
      <trkpt lat="49.42439" lon="0.23333">
        <ele>5.4</ele>
        <time>2022-05-31T08:56:18Z</time>
      </trkpt>
      <trkpt lat="49.42438" lon="0.23334">
        <ele>5.4</ele>
        <time>2022-05-31T08:56:19Z</time>
      </trkpt>
      <trkpt lat="49.42437" lon="0.23334">
        <ele>5.4</ele>
        <time>2022-05-31T08:56:20Z</time>
      </trkpt>
      <trkpt lat="49.42435" lon="0.23336">
        <ele>5.4</ele>
        <time>2022-05-31T08:56:21Z</time>
      </trkpt>
      <trkpt lat="49.42435" lon="0.23336">
        <ele>5.4</ele>
        <time>2022-05-31T08:56:22Z</time>
      </trkpt>
      <trkpt lat="49.42433" lon="0.23336">
        <ele>5.4</ele>
        <time>2022-05-31T08:56:23Z</time>
      </trkpt>
      <trkpt lat="49.42432" lon="0.23337">
        <ele>5.4</ele>
        <time>2022-05-31T08:56:24Z</time>
      </trkpt>
      <trkpt lat="49.42431" lon="0.23337">
        <ele>5.4</ele>
        <time>2022-05-31T08:56:25Z</time>
      </trkpt>
      <trkpt lat="49.42431" lon="0.23338">
        <ele>5.4</ele>
        <time>2022-05-31T08:56:26Z</time>
      </trkpt>
      <trkpt lat="49.4243" lon="0.23339">
        <ele>5.4</ele>
        <time>2022-05-31T08:56:27Z</time>
      </trkpt>
      <trkpt lat="49.42429" lon="0.23341">
        <ele>5.4</ele>
        <time>2022-05-31T08:56:28Z</time>
      </trkpt>
      <trkpt lat="49.42429" lon="0.23343">
        <ele>5.4</ele>
        <time>2022-05-31T08:56:30Z</time>
      </trkpt>
      <trkpt lat="49.42428" lon="0.23345">
        <ele>5.4</ele>
        <time>2022-05-31T08:56:31Z</time>
      </trkpt>
      <trkpt lat="49.42427" lon="0.23347">
        <ele>5.4</ele>
        <time>2022-05-31T08:56:32Z</time>
      </trkpt>
      <trkpt lat="49.42427" lon="0.23348">
        <ele>5.4</ele>
        <time>2022-05-31T08:56:33Z</time>
      </trkpt>
      <trkpt lat="49.42426" lon="0.23349">
        <ele>5.4</ele>
        <time>2022-05-31T08:56:34Z</time>
      </trkpt>
      <trkpt lat="49.42425" lon="0.2335">
        <ele>5.4</ele>
        <time>2022-05-31T08:56:35Z</time>
      </trkpt>
      <trkpt lat="49.42424" lon="0.23352">
        <ele>5.4</ele>
        <time>2022-05-31T08:56:36Z</time>
      </trkpt>
      <trkpt lat="49.42422" lon="0.23353">
        <ele>5.4</ele>
        <time>2022-05-31T08:56:38Z</time>
      </trkpt>
      <trkpt lat="49.42421" lon="0.23355">
        <ele>5.4</ele>
        <time>2022-05-31T08:56:39Z</time>
      </trkpt>
      <trkpt lat="49.42419" lon="0.23356">
        <ele>5.4</ele>
        <time>2022-05-31T08:56:40Z</time>
      </trkpt>
      <trkpt lat="49.42418" lon="0.23357">
        <ele>5.4</ele>
        <time>2022-05-31T08:56:41Z</time>
      </trkpt>
      <trkpt lat="49.42416" lon="0.23358">
        <ele>5.4</ele>
        <time>2022-05-31T08:56:42Z</time>
      </trkpt>
      <trkpt lat="49.42415" lon="0.23359">
        <ele>5.5</ele>
        <time>2022-05-31T08:56:43Z</time>
      </trkpt>
      <trkpt lat="49.42413" lon="0.2336">
        <ele>5.5</ele>
        <time>2022-05-31T08:56:45Z</time>
      </trkpt>
      <trkpt lat="49.42412" lon="0.23361">
        <ele>5.5</ele>
        <time>2022-05-31T08:56:46Z</time>
      </trkpt>
      <trkpt lat="49.4241" lon="0.23362">
        <ele>5.5</ele>
        <time>2022-05-31T08:56:47Z</time>
      </trkpt>
      <trkpt lat="49.42409" lon="0.23363">
        <ele>5.5</ele>
        <time>2022-05-31T08:56:48Z</time>
      </trkpt>
      <trkpt lat="49.42408" lon="0.23363">
        <ele>5.5</ele>
        <time>2022-05-31T08:56:49Z</time>
      </trkpt>
      <trkpt lat="49.42407" lon="0.23364">
        <ele>5.5</ele>
        <time>2022-05-31T08:56:50Z</time>
      </trkpt>
      <trkpt lat="49.42405" lon="0.23366">
        <ele>5.5</ele>
        <time>2022-05-31T08:56:51Z</time>
      </trkpt>
      <trkpt lat="49.42405" lon="0.23366">
        <ele>5.5</ele>
        <time>2022-05-31T08:56:52Z</time>
      </trkpt>
      <trkpt lat="49.42404" lon="0.23367">
        <ele>5.5</ele>
        <time>2022-05-31T08:56:53Z</time>
      </trkpt>
      <trkpt lat="49.42403" lon="0.23368">
        <ele>5.5</ele>
        <time>2022-05-31T08:56:54Z</time>
      </trkpt>
      <trkpt lat="49.42401" lon="0.23371">
        <ele>5.5</ele>
        <time>2022-05-31T08:56:55Z</time>
      </trkpt>
      <trkpt lat="49.424" lon="0.23372">
        <ele>5.5</ele>
        <time>2022-05-31T08:56:57Z</time>
      </trkpt>
      <trkpt lat="49.42399" lon="0.23372">
        <ele>5.5</ele>
        <time>2022-05-31T08:56:58Z</time>
      </trkpt>
      <trkpt lat="49.42398" lon="0.23373">
        <ele>5.5</ele>
        <time>2022-05-31T08:56:59Z</time>
      </trkpt>
      <trkpt lat="49.42397" lon="0.23374">
        <ele>5.5</ele>
        <time>2022-05-31T08:57:00Z</time>
      </trkpt>
      <trkpt lat="49.42395" lon="0.23374">
        <ele>5.5</ele>
        <time>2022-05-31T08:57:01Z</time>
      </trkpt>
      <trkpt lat="49.42394" lon="0.23374">
        <ele>5.5</ele>
        <time>2022-05-31T08:57:02Z</time>
      </trkpt>
      <trkpt lat="49.42392" lon="0.23374">
        <ele>5.5</ele>
        <time>2022-05-31T08:57:03Z</time>
      </trkpt>
      <trkpt lat="49.42391" lon="0.23375">
        <ele>5.4</ele>
        <time>2022-05-31T08:57:04Z</time>
      </trkpt>
      <trkpt lat="49.4239" lon="0.23375">
        <ele>5.4</ele>
        <time>2022-05-31T08:57:05Z</time>
      </trkpt>
      <trkpt lat="49.42388" lon="0.23376">
        <ele>5.4</ele>
        <time>2022-05-31T08:57:06Z</time>
      </trkpt>
      <trkpt lat="49.42387" lon="0.23376">
        <ele>5.4</ele>
        <time>2022-05-31T08:57:07Z</time>
      </trkpt>
      <trkpt lat="49.42386" lon="0.23377">
        <ele>5.4</ele>
        <time>2022-05-31T08:57:08Z</time>
      </trkpt>
      <trkpt lat="49.42385" lon="0.23377">
        <ele>5.4</ele>
        <time>2022-05-31T08:57:09Z</time>
      </trkpt>
      <trkpt lat="49.42384" lon="0.23377">
        <ele>5.4</ele>
        <time>2022-05-31T08:57:10Z</time>
      </trkpt>
      <trkpt lat="49.42383" lon="0.23376">
        <ele>5.4</ele>
        <time>2022-05-31T08:57:12Z</time>
      </trkpt>
      <trkpt lat="49.42382" lon="0.23376">
        <ele>5.4</ele>
        <time>2022-05-31T08:57:13Z</time>
      </trkpt>
      <trkpt lat="49.42381" lon="0.23375">
        <ele>5.4</ele>
        <time>2022-05-31T08:57:14Z</time>
      </trkpt>
      <trkpt lat="49.4238" lon="0.23375">
        <ele>5.4</ele>
        <time>2022-05-31T08:57:15Z</time>
      </trkpt>
      <trkpt lat="49.42379" lon="0.23375">
        <ele>5.4</ele>
        <time>2022-05-31T08:57:16Z</time>
      </trkpt>
      <trkpt lat="49.42377" lon="0.23375">
        <ele>5.4</ele>
        <time>2022-05-31T08:57:17Z</time>
      </trkpt>
      <trkpt lat="49.42375" lon="0.23377">
        <ele>5.4</ele>
        <time>2022-05-31T08:57:18Z</time>
      </trkpt>
      <trkpt lat="49.42375" lon="0.23377">
        <ele>5.4</ele>
        <time>2022-05-31T08:57:19Z</time>
      </trkpt>
      <trkpt lat="49.42374" lon="0.23378">
        <ele>5.4</ele>
        <time>2022-05-31T08:57:20Z</time>
      </trkpt>
      <trkpt lat="49.42372" lon="0.23379">
        <ele>5.4</ele>
        <time>2022-05-31T08:57:21Z</time>
      </trkpt>
      <trkpt lat="49.42372" lon="0.23379">
        <ele>5.4</ele>
        <time>2022-05-31T08:57:22Z</time>
      </trkpt>
      <trkpt lat="49.42371" lon="0.2338">
        <ele>5.4</ele>
        <time>2022-05-31T08:57:23Z</time>
      </trkpt>
      <trkpt lat="49.4237" lon="0.23381">
        <ele>5.4</ele>
        <time>2022-05-31T08:57:24Z</time>
      </trkpt>
      <trkpt lat="49.42368" lon="0.23383">
        <ele>5.4</ele>
        <time>2022-05-31T08:57:25Z</time>
      </trkpt>
      <trkpt lat="49.42366" lon="0.23384">
        <ele>5.4</ele>
        <time>2022-05-31T08:57:27Z</time>
      </trkpt>
      <trkpt lat="49.42365" lon="0.23385">
        <ele>5.4</ele>
        <time>2022-05-31T08:57:28Z</time>
      </trkpt>
      <trkpt lat="49.42365" lon="0.23385">
        <ele>5.4</ele>
        <time>2022-05-31T08:57:29Z</time>
      </trkpt>
      <trkpt lat="49.42363" lon="0.23387">
        <ele>5.4</ele>
        <time>2022-05-31T08:57:30Z</time>
      </trkpt>
      <trkpt lat="49.42362" lon="0.23388">
        <ele>5.4</ele>
        <time>2022-05-31T08:57:31Z</time>
      </trkpt>
      <trkpt lat="49.42361" lon="0.23388">
        <ele>5.4</ele>
        <time>2022-05-31T08:57:32Z</time>
      </trkpt>
      <trkpt lat="49.42359" lon="0.2339">
        <ele>5.4</ele>
        <time>2022-05-31T08:57:33Z</time>
      </trkpt>
      <trkpt lat="49.42359" lon="0.2339">
        <ele>5.4</ele>
        <time>2022-05-31T08:57:34Z</time>
      </trkpt>
      <trkpt lat="49.42358" lon="0.23391">
        <ele>5.4</ele>
        <time>2022-05-31T08:57:35Z</time>
      </trkpt>
      <trkpt lat="49.42356" lon="0.23392">
        <ele>5.4</ele>
        <time>2022-05-31T08:57:36Z</time>
      </trkpt>
      <trkpt lat="49.42356" lon="0.23393">
        <ele>5.4</ele>
        <time>2022-05-31T08:57:37Z</time>
      </trkpt>
      <trkpt lat="49.42355" lon="0.23393">
        <ele>5.4</ele>
        <time>2022-05-31T08:57:38Z</time>
      </trkpt>
      <trkpt lat="49.42354" lon="0.23394">
        <ele>5.4</ele>
        <time>2022-05-31T08:57:39Z</time>
      </trkpt>
      <trkpt lat="49.42353" lon="0.23395">
        <ele>5.4</ele>
        <time>2022-05-31T08:57:41Z</time>
      </trkpt>
      <trkpt lat="49.42352" lon="0.23396">
        <ele>5.4</ele>
        <time>2022-05-31T08:57:42Z</time>
      </trkpt>
      <trkpt lat="49.42351" lon="0.23396">
        <ele>5.4</ele>
        <time>2022-05-31T08:57:43Z</time>
      </trkpt>
      <trkpt lat="49.4235" lon="0.23396">
        <ele>5.4</ele>
        <time>2022-05-31T08:57:44Z</time>
      </trkpt>
      <trkpt lat="49.42349" lon="0.23397">
        <ele>5.4</ele>
        <time>2022-05-31T08:57:45Z</time>
      </trkpt>
      <trkpt lat="49.42348" lon="0.23398">
        <ele>5.5</ele>
        <time>2022-05-31T08:57:46Z</time>
      </trkpt>
      <trkpt lat="49.42347" lon="0.234">
        <ele>5.5</ele>
        <time>2022-05-31T08:57:47Z</time>
      </trkpt>
      <trkpt lat="49.42347" lon="0.23401">
        <ele>5.5</ele>
        <time>2022-05-31T08:57:48Z</time>
      </trkpt>
      <trkpt lat="49.42346" lon="0.23403">
        <ele>5.5</ele>
        <time>2022-05-31T08:57:50Z</time>
      </trkpt>
      <trkpt lat="49.42345" lon="0.23405">
        <ele>5.5</ele>
        <time>2022-05-31T08:57:51Z</time>
      </trkpt>
      <trkpt lat="49.42344" lon="0.23406">
        <ele>5.5</ele>
        <time>2022-05-31T08:57:53Z</time>
      </trkpt>
      <trkpt lat="49.42344" lon="0.23408">
        <ele>5.5</ele>
        <time>2022-05-31T08:57:54Z</time>
      </trkpt>
      <trkpt lat="49.42344" lon="0.23409">
        <ele>5.5</ele>
        <time>2022-05-31T08:57:55Z</time>
      </trkpt>
      <trkpt lat="49.42344" lon="0.2341">
        <ele>5.5</ele>
        <time>2022-05-31T08:57:57Z</time>
      </trkpt>
      <trkpt lat="49.42344" lon="0.23411">
        <ele>5.6</ele>
        <time>2022-05-31T08:57:58Z</time>
      </trkpt>
      <trkpt lat="49.42344" lon="0.23412">
        <ele>5.6</ele>
        <time>2022-05-31T08:57:59Z</time>
      </trkpt>
      <trkpt lat="49.42344" lon="0.23413">
        <ele>5.6</ele>
        <time>2022-05-31T08:58:00Z</time>
      </trkpt>
      <trkpt lat="49.42344" lon="0.23414">
        <ele>5.6</ele>
        <time>2022-05-31T08:58:01Z</time>
      </trkpt>
      <trkpt lat="49.42344" lon="0.23415">
        <ele>5.6</ele>
        <time>2022-05-31T08:58:02Z</time>
      </trkpt>
      <trkpt lat="49.42345" lon="0.23415">
        <ele>5.6</ele>
        <time>2022-05-31T08:58:03Z</time>
      </trkpt>
      <trkpt lat="49.42346" lon="0.23414">
        <ele>5.6</ele>
        <time>2022-05-31T08:58:04Z</time>
      </trkpt>
      <trkpt lat="49.42346" lon="0.23414">
        <ele>5.6</ele>
        <time>2022-05-31T08:58:05Z</time>
      </trkpt>
      <trkpt lat="49.42347" lon="0.23414">
        <ele>5.6</ele>
        <time>2022-05-31T08:58:06Z</time>
      </trkpt>
      <trkpt lat="49.42348" lon="0.23414">
        <ele>5.6</ele>
        <time>2022-05-31T08:58:07Z</time>
      </trkpt>
      <trkpt lat="49.42347" lon="0.23414">
        <ele>5.6</ele>
        <time>2022-05-31T08:58:08Z</time>
      </trkpt>
      <trkpt lat="49.42348" lon="0.23414">
        <ele>5.6</ele>
        <time>2022-05-31T08:58:09Z</time>
      </trkpt>
      <trkpt lat="49.42348" lon="0.23414">
        <ele>5.6</ele>
        <time>2022-05-31T08:58:10Z</time>
      </trkpt>
      <trkpt lat="49.42348" lon="0.23414">
        <ele>5.6</ele>
        <time>2022-05-31T08:58:11Z</time>
      </trkpt>
      <trkpt lat="49.42348" lon="0.23414">
        <ele>5.6</ele>
        <time>2022-05-31T08:58:12Z</time>
      </trkpt>
      <trkpt lat="49.42348" lon="0.23414">
        <ele>5.6</ele>
        <time>2022-05-31T08:58:13Z</time>
      </trkpt>
      <trkpt lat="49.42348" lon="0.23414">
        <ele>5.6</ele>
        <time>2022-05-31T08:58:15Z</time>
      </trkpt>
      <trkpt lat="49.42348" lon="0.23415">
        <ele>5.6</ele>
        <time>2022-05-31T08:58:16Z</time>
      </trkpt>
      <trkpt lat="49.42347" lon="0.23415">
        <ele>5.6</ele>
        <time>2022-05-31T08:58:17Z</time>
      </trkpt>
      <trkpt lat="49.42347" lon="0.23415">
        <ele>5.6</ele>
        <time>2022-05-31T08:58:18Z</time>
      </trkpt>
      <trkpt lat="49.42347" lon="0.23415">
        <ele>5.6</ele>
        <time>2022-05-31T08:58:19Z</time>
      </trkpt>
      <trkpt lat="49.42347" lon="0.23415">
        <ele>5.6</ele>
        <time>2022-05-31T08:58:20Z</time>
      </trkpt>
      <trkpt lat="49.42347" lon="0.23415">
        <ele>5.6</ele>
        <time>2022-05-31T08:58:21Z</time>
      </trkpt>
      <trkpt lat="49.42347" lon="0.23415">
        <ele>5.6</ele>
        <time>2022-05-31T08:58:22Z</time>
      </trkpt>
      <trkpt lat="49.42346" lon="0.23415">
        <ele>5.6</ele>
        <time>2022-05-31T08:58:24Z</time>
      </trkpt>
      <trkpt lat="49.42346" lon="0.23415">
        <ele>5.6</ele>
        <time>2022-05-31T08:58:25Z</time>
      </trkpt>
      <trkpt lat="49.42345" lon="0.23415">
        <ele>5.6</ele>
        <time>2022-05-31T08:58:26Z</time>
      </trkpt>
      <trkpt lat="49.42345" lon="0.23414">
        <ele>5.6</ele>
        <time>2022-05-31T08:58:27Z</time>
      </trkpt>
      <trkpt lat="49.42344" lon="0.23414">
        <ele>5.6</ele>
        <time>2022-05-31T08:58:28Z</time>
      </trkpt>
      <trkpt lat="49.42341" lon="0.23413">
        <ele>5.6</ele>
        <time>2022-05-31T08:58:29Z</time>
      </trkpt>
      <trkpt lat="49.4234" lon="0.23412">
        <ele>5.6</ele>
        <time>2022-05-31T08:58:31Z</time>
      </trkpt>
      <trkpt lat="49.42339" lon="0.23411">
        <ele>5.6</ele>
        <time>2022-05-31T08:58:32Z</time>
      </trkpt>
      <trkpt lat="49.42338" lon="0.2341">
        <ele>5.6</ele>
        <time>2022-05-31T08:58:33Z</time>
      </trkpt>
      <trkpt lat="49.42335" lon="0.23409">
        <ele>5.6</ele>
        <time>2022-05-31T08:58:34Z</time>
      </trkpt>
      <trkpt lat="49.42334" lon="0.23408">
        <ele>5.6</ele>
        <time>2022-05-31T08:58:35Z</time>
      </trkpt>
      <trkpt lat="49.42332" lon="0.23407">
        <ele>5.7</ele>
        <time>2022-05-31T08:58:36Z</time>
      </trkpt>
      <trkpt lat="49.42331" lon="0.23406">
        <ele>5.7</ele>
        <time>2022-05-31T08:58:37Z</time>
      </trkpt>
      <trkpt lat="49.4233" lon="0.23405">
        <ele>5.7</ele>
        <time>2022-05-31T08:58:38Z</time>
      </trkpt>
      <trkpt lat="49.42328" lon="0.23405">
        <ele>5.7</ele>
        <time>2022-05-31T08:58:40Z</time>
      </trkpt>
      <trkpt lat="49.42327" lon="0.23404">
        <ele>5.7</ele>
        <time>2022-05-31T08:58:41Z</time>
      </trkpt>
      <trkpt lat="49.42325" lon="0.23404">
        <ele>5.7</ele>
        <time>2022-05-31T08:58:42Z</time>
      </trkpt>
      <trkpt lat="49.42324" lon="0.23403">
        <ele>5.7</ele>
        <time>2022-05-31T08:58:43Z</time>
      </trkpt>
      <trkpt lat="49.42322" lon="0.23403">
        <ele>5.7</ele>
        <time>2022-05-31T08:58:44Z</time>
      </trkpt>
      <trkpt lat="49.42321" lon="0.23404">
        <ele>5.7</ele>
        <time>2022-05-31T08:58:45Z</time>
      </trkpt>
      <trkpt lat="49.42319" lon="0.23404">
        <ele>5.7</ele>
        <time>2022-05-31T08:58:46Z</time>
      </trkpt>
      <trkpt lat="49.42318" lon="0.23405">
        <ele>5.7</ele>
        <time>2022-05-31T08:58:48Z</time>
      </trkpt>
      <trkpt lat="49.42316" lon="0.23405">
        <ele>5.7</ele>
        <time>2022-05-31T08:58:49Z</time>
      </trkpt>
      <trkpt lat="49.42315" lon="0.23406">
        <ele>5.7</ele>
        <time>2022-05-31T08:58:50Z</time>
      </trkpt>
      <trkpt lat="49.42313" lon="0.23407">
        <ele>5.7</ele>
        <time>2022-05-31T08:58:51Z</time>
      </trkpt>
      <trkpt lat="49.42311" lon="0.23409">
        <ele>5.7</ele>
        <time>2022-05-31T08:58:52Z</time>
      </trkpt>
      <trkpt lat="49.4231" lon="0.2341">
        <ele>5.7</ele>
        <time>2022-05-31T08:58:53Z</time>
      </trkpt>
      <trkpt lat="49.4231" lon="0.23411">
        <ele>5.7</ele>
        <time>2022-05-31T08:58:54Z</time>
      </trkpt>
      <trkpt lat="49.42309" lon="0.23412">
        <ele>5.7</ele>
        <time>2022-05-31T08:58:55Z</time>
      </trkpt>
      <trkpt lat="49.42307" lon="0.23412">
        <ele>5.7</ele>
        <time>2022-05-31T08:58:57Z</time>
      </trkpt>
      <trkpt lat="49.42306" lon="0.23413">
        <ele>5.7</ele>
        <time>2022-05-31T08:58:58Z</time>
      </trkpt>
      <trkpt lat="49.42305" lon="0.23414">
        <ele>5.7</ele>
        <time>2022-05-31T08:58:59Z</time>
      </trkpt>
      <trkpt lat="49.42304" lon="0.23415">
        <ele>5.7</ele>
        <time>2022-05-31T08:59:00Z</time>
      </trkpt>
      <trkpt lat="49.42303" lon="0.23415">
        <ele>5.7</ele>
        <time>2022-05-31T08:59:01Z</time>
      </trkpt>
      <trkpt lat="49.42301" lon="0.23416">
        <ele>5.7</ele>
        <time>2022-05-31T08:59:02Z</time>
      </trkpt>
      <trkpt lat="49.42301" lon="0.23416">
        <ele>5.7</ele>
        <time>2022-05-31T08:59:03Z</time>
      </trkpt>
      <trkpt lat="49.423" lon="0.23416">
        <ele>5.7</ele>
        <time>2022-05-31T08:59:05Z</time>
      </trkpt>
      <trkpt lat="49.42299" lon="0.23416">
        <ele>5.7</ele>
        <time>2022-05-31T08:59:06Z</time>
      </trkpt>
      <trkpt lat="49.42296" lon="0.23417">
        <ele>5.7</ele>
        <time>2022-05-31T08:59:08Z</time>
      </trkpt>
      <trkpt lat="49.42296" lon="0.23417">
        <ele>5.7</ele>
        <time>2022-05-31T08:59:09Z</time>
      </trkpt>
      <trkpt lat="49.42296" lon="0.23418">
        <ele>5.7</ele>
        <time>2022-05-31T08:59:10Z</time>
      </trkpt>
      <trkpt lat="49.42296" lon="0.23419">
        <ele>5.7</ele>
        <time>2022-05-31T08:59:11Z</time>
      </trkpt>
      <trkpt lat="49.42297" lon="0.2342">
        <ele>5.7</ele>
        <time>2022-05-31T08:59:12Z</time>
      </trkpt>
      <trkpt lat="49.42298" lon="0.2342">
        <ele>5.7</ele>
        <time>2022-05-31T08:59:13Z</time>
      </trkpt>
      <trkpt lat="49.42298" lon="0.2342">
        <ele>5.7</ele>
        <time>2022-05-31T08:59:14Z</time>
      </trkpt>
      <trkpt lat="49.42298" lon="0.2342">
        <ele>5.7</ele>
        <time>2022-05-31T08:59:15Z</time>
      </trkpt>
      <trkpt lat="49.42298" lon="0.2342">
        <ele>5.7</ele>
        <time>2022-05-31T08:59:16Z</time>
      </trkpt>
      <trkpt lat="49.42298" lon="0.23419">
        <ele>5.7</ele>
        <time>2022-05-31T08:59:18Z</time>
      </trkpt>
      <trkpt lat="49.42298" lon="0.23419">
        <ele>5.7</ele>
        <time>2022-05-31T08:59:19Z</time>
      </trkpt>
      <trkpt lat="49.42298" lon="0.23419">
        <ele>5.7</ele>
        <time>2022-05-31T08:59:20Z</time>
      </trkpt>
      <trkpt lat="49.42298" lon="0.2342">
        <ele>5.7</ele>
        <time>2022-05-31T08:59:21Z</time>
      </trkpt>
      <trkpt lat="49.42298" lon="0.2342">
        <ele>5.7</ele>
        <time>2022-05-31T08:59:23Z</time>
      </trkpt>
      <trkpt lat="49.42298" lon="0.23419">
        <ele>5.7</ele>
        <time>2022-05-31T08:59:24Z</time>
      </trkpt>
      <trkpt lat="49.42298" lon="0.23419">
        <ele>5.7</ele>
        <time>2022-05-31T08:59:25Z</time>
      </trkpt>
      <trkpt lat="49.42297" lon="0.23419">
        <ele>5.7</ele>
        <time>2022-05-31T08:59:26Z</time>
      </trkpt>
      <trkpt lat="49.42296" lon="0.23418">
        <ele>5.7</ele>
        <time>2022-05-31T08:59:27Z</time>
      </trkpt>
      <trkpt lat="49.42295" lon="0.23418">
        <ele>5.7</ele>
        <time>2022-05-31T08:59:29Z</time>
      </trkpt>
      <trkpt lat="49.42294" lon="0.23418">
        <ele>5.7</ele>
        <time>2022-05-31T08:59:30Z</time>
      </trkpt>
      <trkpt lat="49.42293" lon="0.23418">
        <ele>5.7</ele>
        <time>2022-05-31T08:59:31Z</time>
      </trkpt>
      <trkpt lat="49.42291" lon="0.23418">
        <ele>5.7</ele>
        <time>2022-05-31T08:59:32Z</time>
      </trkpt>
      <trkpt lat="49.4229" lon="0.23416">
        <ele>5.7</ele>
        <time>2022-05-31T08:59:33Z</time>
      </trkpt>
      <trkpt lat="49.42289" lon="0.23416">
        <ele>5.7</ele>
        <time>2022-05-31T08:59:34Z</time>
      </trkpt>
      <trkpt lat="49.42287" lon="0.23415">
        <ele>5.7</ele>
        <time>2022-05-31T08:59:36Z</time>
      </trkpt>
      <trkpt lat="49.42285" lon="0.23414">
        <ele>5.7</ele>
        <time>2022-05-31T08:59:37Z</time>
      </trkpt>
      <trkpt lat="49.42284" lon="0.23413">
        <ele>5.7</ele>
        <time>2022-05-31T08:59:38Z</time>
      </trkpt>
      <trkpt lat="49.42282" lon="0.23413">
        <ele>5.7</ele>
        <time>2022-05-31T08:59:39Z</time>
      </trkpt>
      <trkpt lat="49.42281" lon="0.23413">
        <ele>5.7</ele>
        <time>2022-05-31T08:59:40Z</time>
      </trkpt>
      <trkpt lat="49.42281" lon="0.23412">
        <ele>5.7</ele>
        <time>2022-05-31T08:59:41Z</time>
      </trkpt>
      <trkpt lat="49.4228" lon="0.23412">
        <ele>5.7</ele>
        <time>2022-05-31T08:59:42Z</time>
      </trkpt>
      <trkpt lat="49.42278" lon="0.23412">
        <ele>5.7</ele>
        <time>2022-05-31T08:59:43Z</time>
      </trkpt>
      <trkpt lat="49.42277" lon="0.23412">
        <ele>5.7</ele>
        <time>2022-05-31T08:59:45Z</time>
      </trkpt>
      <trkpt lat="49.42276" lon="0.23412">
        <ele>5.7</ele>
        <time>2022-05-31T08:59:46Z</time>
      </trkpt>
      <trkpt lat="49.42275" lon="0.23413">
        <ele>5.7</ele>
        <time>2022-05-31T08:59:47Z</time>
      </trkpt>
      <trkpt lat="49.42273" lon="0.23413">
        <ele>5.8</ele>
        <time>2022-05-31T08:59:48Z</time>
      </trkpt>
      <trkpt lat="49.42273" lon="0.23413">
        <ele>5.8</ele>
        <time>2022-05-31T08:59:49Z</time>
      </trkpt>
      <trkpt lat="49.42271" lon="0.23413">
        <ele>5.8</ele>
        <time>2022-05-31T08:59:50Z</time>
      </trkpt>
      <trkpt lat="49.4227" lon="0.23413">
        <ele>5.8</ele>
        <time>2022-05-31T08:59:51Z</time>
      </trkpt>
      <trkpt lat="49.42269" lon="0.23413">
        <ele>5.8</ele>
        <time>2022-05-31T08:59:52Z</time>
      </trkpt>
      <trkpt lat="49.42268" lon="0.23413">
        <ele>5.8</ele>
        <time>2022-05-31T08:59:53Z</time>
      </trkpt>
      <trkpt lat="49.42268" lon="0.23414">
        <ele>5.8</ele>
        <time>2022-05-31T08:59:54Z</time>
      </trkpt>
      <trkpt lat="49.42267" lon="0.23414">
        <ele>5.8</ele>
        <time>2022-05-31T08:59:56Z</time>
      </trkpt>
      <trkpt lat="49.42265" lon="0.23413">
        <ele>5.8</ele>
        <time>2022-05-31T08:59:57Z</time>
      </trkpt>
      <trkpt lat="49.42264" lon="0.23413">
        <ele>5.8</ele>
        <time>2022-05-31T08:59:58Z</time>
      </trkpt>
      <trkpt lat="49.42264" lon="0.23413">
        <ele>5.8</ele>
        <time>2022-05-31T08:59:59Z</time>
      </trkpt>
      <trkpt lat="49.42262" lon="0.23413">
        <ele>5.8</ele>
        <time>2022-05-31T09:00:00Z</time>
      </trkpt>
      <trkpt lat="49.42261" lon="0.23413">
        <ele>5.8</ele>
        <time>2022-05-31T09:00:01Z</time>
      </trkpt>
      <trkpt lat="49.4226" lon="0.23412">
        <ele>5.8</ele>
        <time>2022-05-31T09:00:02Z</time>
      </trkpt>
      <trkpt lat="49.42257" lon="0.23411">
        <ele>5.8</ele>
        <time>2022-05-31T09:00:03Z</time>
      </trkpt>
      <trkpt lat="49.42256" lon="0.2341">
        <ele>5.8</ele>
        <time>2022-05-31T09:00:04Z</time>
      </trkpt>
      <trkpt lat="49.42256" lon="0.2341">
        <ele>5.8</ele>
        <time>2022-05-31T09:00:05Z</time>
      </trkpt>
      <trkpt lat="49.42254" lon="0.2341">
        <ele>5.8</ele>
        <time>2022-05-31T09:00:06Z</time>
      </trkpt>
      <trkpt lat="49.42253" lon="0.23411">
        <ele>5.8</ele>
        <time>2022-05-31T09:00:07Z</time>
      </trkpt>
      <trkpt lat="49.42251" lon="0.23412">
        <ele>5.8</ele>
        <time>2022-05-31T09:00:09Z</time>
      </trkpt>
      <trkpt lat="49.4225" lon="0.23412">
        <ele>5.7</ele>
        <time>2022-05-31T09:00:10Z</time>
      </trkpt>
      <trkpt lat="49.42248" lon="0.23413">
        <ele>5.7</ele>
        <time>2022-05-31T09:00:11Z</time>
      </trkpt>
      <trkpt lat="49.42246" lon="0.23414">
        <ele>5.7</ele>
        <time>2022-05-31T09:00:12Z</time>
      </trkpt>
      <trkpt lat="49.42245" lon="0.23414">
        <ele>5.7</ele>
        <time>2022-05-31T09:00:13Z</time>
      </trkpt>
      <trkpt lat="49.42246" lon="0.23414">
        <ele>5.7</ele>
        <time>2022-05-31T09:00:14Z</time>
      </trkpt>
      <trkpt lat="49.42245" lon="0.23414">
        <ele>5.7</ele>
        <time>2022-05-31T09:00:15Z</time>
      </trkpt>
      <trkpt lat="49.42245" lon="0.23414">
        <ele>5.7</ele>
        <time>2022-05-31T09:00:16Z</time>
      </trkpt>
      <trkpt lat="49.42245" lon="0.23415">
        <ele>5.7</ele>
        <time>2022-05-31T09:00:17Z</time>
      </trkpt>
      <trkpt lat="49.42245" lon="0.23416">
        <ele>5.7</ele>
        <time>2022-05-31T09:00:18Z</time>
      </trkpt>
      <trkpt lat="49.42245" lon="0.23417">
        <ele>5.7</ele>
        <time>2022-05-31T09:00:19Z</time>
      </trkpt>
      <trkpt lat="49.42245" lon="0.23418">
        <ele>5.7</ele>
        <time>2022-05-31T09:00:20Z</time>
      </trkpt>
      <trkpt lat="49.42245" lon="0.23419">
        <ele>5.7</ele>
        <time>2022-05-31T09:00:21Z</time>
      </trkpt>
      <trkpt lat="49.42246" lon="0.23419">
        <ele>5.7</ele>
        <time>2022-05-31T09:00:22Z</time>
      </trkpt>
      <trkpt lat="49.42246" lon="0.23419">
        <ele>5.7</ele>
        <time>2022-05-31T09:00:23Z</time>
      </trkpt>
      <trkpt lat="49.42246" lon="0.2342">
        <ele>5.7</ele>
        <time>2022-05-31T09:00:24Z</time>
      </trkpt>
      <trkpt lat="49.42247" lon="0.2342">
        <ele>5.7</ele>
        <time>2022-05-31T09:00:25Z</time>
      </trkpt>
      <trkpt lat="49.42247" lon="0.2342">
        <ele>5.7</ele>
        <time>2022-05-31T09:00:26Z</time>
      </trkpt>
      <trkpt lat="49.42247" lon="0.2342">
        <ele>5.7</ele>
        <time>2022-05-31T09:00:27Z</time>
      </trkpt>
      <trkpt lat="49.42247" lon="0.23421">
        <ele>5.7</ele>
        <time>2022-05-31T09:00:28Z</time>
      </trkpt>
      <trkpt lat="49.42248" lon="0.23421">
        <ele>5.7</ele>
        <time>2022-05-31T09:00:29Z</time>
      </trkpt>
      <trkpt lat="49.42248" lon="0.23421">
        <ele>5.7</ele>
        <time>2022-05-31T09:00:31Z</time>
      </trkpt>
      <trkpt lat="49.42248" lon="0.23421">
        <ele>5.7</ele>
        <time>2022-05-31T09:00:32Z</time>
      </trkpt>
      <trkpt lat="49.42248" lon="0.23422">
        <ele>5.6</ele>
        <time>2022-05-31T09:00:33Z</time>
      </trkpt>
      <trkpt lat="49.42249" lon="0.23422">
        <ele>5.6</ele>
        <time>2022-05-31T09:00:34Z</time>
      </trkpt>
      <trkpt lat="49.42249" lon="0.23422">
        <ele>5.6</ele>
        <time>2022-05-31T09:00:35Z</time>
      </trkpt>
      <trkpt lat="49.4225" lon="0.23422">
        <ele>5.6</ele>
        <time>2022-05-31T09:00:36Z</time>
      </trkpt>
      <trkpt lat="49.4225" lon="0.23421">
        <ele>5.6</ele>
        <time>2022-05-31T09:00:37Z</time>
      </trkpt>
      <trkpt lat="49.42251" lon="0.2342">
        <ele>5.6</ele>
        <time>2022-05-31T09:00:38Z</time>
      </trkpt>
      <trkpt lat="49.42251" lon="0.2342">
        <ele>5.6</ele>
        <time>2022-05-31T09:00:40Z</time>
      </trkpt>
      <trkpt lat="49.42251" lon="0.2342">
        <ele>5.6</ele>
        <time>2022-05-31T09:00:41Z</time>
      </trkpt>
      <trkpt lat="49.42251" lon="0.2342">
        <ele>5.6</ele>
        <time>2022-05-31T09:00:42Z</time>
      </trkpt>
      <trkpt lat="49.42251" lon="0.2342">
        <ele>5.6</ele>
        <time>2022-05-31T09:00:43Z</time>
      </trkpt>
      <trkpt lat="49.42251" lon="0.2342">
        <ele>5.6</ele>
        <time>2022-05-31T09:00:44Z</time>
      </trkpt>
      <trkpt lat="49.42251" lon="0.2342">
        <ele>5.6</ele>
        <time>2022-05-31T09:00:45Z</time>
      </trkpt>
      <trkpt lat="49.42251" lon="0.2342">
        <ele>5.6</ele>
        <time>2022-05-31T09:00:46Z</time>
      </trkpt>
      <trkpt lat="49.42251" lon="0.2342">
        <ele>5.6</ele>
        <time>2022-05-31T09:00:48Z</time>
      </trkpt>
      <trkpt lat="49.42251" lon="0.2342">
        <ele>5.6</ele>
        <time>2022-05-31T09:00:49Z</time>
      </trkpt>
      <trkpt lat="49.42251" lon="0.2342">
        <ele>5.6</ele>
        <time>2022-05-31T09:00:50Z</time>
      </trkpt>
      <trkpt lat="49.42251" lon="0.2342">
        <ele>5.6</ele>
        <time>2022-05-31T09:00:51Z</time>
      </trkpt>
      <trkpt lat="49.42251" lon="0.2342">
        <ele>5.6</ele>
        <time>2022-05-31T09:00:52Z</time>
      </trkpt>
      <trkpt lat="49.42251" lon="0.2342">
        <ele>5.6</ele>
        <time>2022-05-31T09:00:53Z</time>
      </trkpt>
      <trkpt lat="49.42251" lon="0.2342">
        <ele>5.6</ele>
        <time>2022-05-31T09:00:54Z</time>
      </trkpt>
      <trkpt lat="49.42251" lon="0.2342">
        <ele>5.6</ele>
        <time>2022-05-31T09:00:55Z</time>
      </trkpt>
      <trkpt lat="49.42251" lon="0.2342">
        <ele>5.6</ele>
        <time>2022-05-31T09:00:56Z</time>
      </trkpt>
      <trkpt lat="49.42251" lon="0.2342">
        <ele>5.6</ele>
        <time>2022-05-31T09:00:57Z</time>
      </trkpt>
      <trkpt lat="49.42251" lon="0.2342">
        <ele>5.6</ele>
        <time>2022-05-31T09:00:58Z</time>
      </trkpt>
      <trkpt lat="49.42251" lon="0.2342">
        <ele>5.6</ele>
        <time>2022-05-31T09:00:59Z</time>
      </trkpt>
      <trkpt lat="49.42251" lon="0.2342">
        <ele>5.6</ele>
        <time>2022-05-31T09:01:00Z</time>
      </trkpt>
      <trkpt lat="49.42251" lon="0.2342">
        <ele>5.6</ele>
        <time>2022-05-31T09:01:01Z</time>
      </trkpt>
      <trkpt lat="49.42251" lon="0.2342">
        <ele>5.6</ele>
        <time>2022-05-31T09:01:02Z</time>
      </trkpt>
      <trkpt lat="49.42251" lon="0.2342">
        <ele>5.6</ele>
        <time>2022-05-31T09:01:03Z</time>
      </trkpt>
      <trkpt lat="49.42251" lon="0.2342">
        <ele>5.6</ele>
        <time>2022-05-31T09:01:04Z</time>
      </trkpt>
      <trkpt lat="49.42251" lon="0.2342">
        <ele>5.6</ele>
        <time>2022-05-31T09:01:05Z</time>
      </trkpt>
      <trkpt lat="49.42251" lon="0.2342">
        <ele>5.6</ele>
        <time>2022-05-31T09:01:06Z</time>
      </trkpt>
      <trkpt lat="49.42251" lon="0.2342">
        <ele>5.6</ele>
        <time>2022-05-31T09:01:07Z</time>
      </trkpt>
      <trkpt lat="49.42251" lon="0.2342">
        <ele>5.6</ele>
        <time>2022-05-31T09:01:08Z</time>
      </trkpt>
      <trkpt lat="49.42251" lon="0.2342">
        <ele>5.6</ele>
        <time>2022-05-31T09:01:09Z</time>
      </trkpt>
      <trkpt lat="49.42251" lon="0.2342">
        <ele>5.6</ele>
        <time>2022-05-31T09:01:10Z</time>
      </trkpt>
      <trkpt lat="49.42251" lon="0.2342">
        <ele>5.6</ele>
        <time>2022-05-31T09:01:11Z</time>
      </trkpt>
      <trkpt lat="49.42251" lon="0.23422">
        <ele>5.6</ele>
        <time>2022-05-31T09:01:12Z</time>
      </trkpt>
      <trkpt lat="49.4225" lon="0.23423">
        <ele>5.6</ele>
        <time>2022-05-31T09:01:13Z</time>
      </trkpt>
      <trkpt lat="49.4225" lon="0.23423">
        <ele>5.6</ele>
        <time>2022-05-31T09:01:14Z</time>
      </trkpt>
      <trkpt lat="49.4225" lon="0.23424">
        <ele>5.6</ele>
        <time>2022-05-31T09:01:15Z</time>
      </trkpt>
      <trkpt lat="49.4225" lon="0.23424">
        <ele>5.6</ele>
        <time>2022-05-31T09:01:16Z</time>
      </trkpt>
      <trkpt lat="49.4225" lon="0.23424">
        <ele>5.6</ele>
        <time>2022-05-31T09:01:17Z</time>
      </trkpt>
      <trkpt lat="49.4225" lon="0.23424">
        <ele>5.6</ele>
        <time>2022-05-31T09:01:18Z</time>
      </trkpt>
      <trkpt lat="49.4225" lon="0.23424">
        <ele>5.6</ele>
        <time>2022-05-31T09:01:19Z</time>
      </trkpt>
      <trkpt lat="49.4225" lon="0.23424">
        <ele>5.6</ele>
        <time>2022-05-31T09:01:20Z</time>
      </trkpt>
      <trkpt lat="49.4225" lon="0.23424">
        <ele>5.6</ele>
        <time>2022-05-31T09:01:21Z</time>
      </trkpt>
      <trkpt lat="49.4225" lon="0.23424">
        <ele>5.6</ele>
        <time>2022-05-31T09:01:22Z</time>
      </trkpt>
      <trkpt lat="49.4225" lon="0.23424">
        <ele>5.6</ele>
        <time>2022-05-31T09:01:23Z</time>
      </trkpt>
      <trkpt lat="49.4225" lon="0.23425">
        <ele>5.6</ele>
        <time>2022-05-31T09:01:24Z</time>
      </trkpt>
      <trkpt lat="49.4225" lon="0.23424">
        <ele>5.6</ele>
        <time>2022-05-31T09:01:25Z</time>
      </trkpt>
      <trkpt lat="49.4225" lon="0.23424">
        <ele>5.6</ele>
        <time>2022-05-31T09:01:26Z</time>
      </trkpt>
      <trkpt lat="49.4225" lon="0.23424">
        <ele>5.6</ele>
        <time>2022-05-31T09:01:27Z</time>
      </trkpt>
      <trkpt lat="49.4225" lon="0.23424">
        <ele>5.6</ele>
        <time>2022-05-31T09:01:28Z</time>
      </trkpt>
      <trkpt lat="49.4225" lon="0.23424">
        <ele>5.6</ele>
        <time>2022-05-31T09:01:29Z</time>
      </trkpt>
      <trkpt lat="49.4225" lon="0.23424">
        <ele>5.6</ele>
        <time>2022-05-31T09:01:30Z</time>
      </trkpt>
      <trkpt lat="49.4225" lon="0.23424">
        <ele>5.6</ele>
        <time>2022-05-31T09:01:31Z</time>
      </trkpt>
      <trkpt lat="49.4225" lon="0.23424">
        <ele>5.6</ele>
        <time>2022-05-31T09:01:32Z</time>
      </trkpt>
      <trkpt lat="49.42249" lon="0.23425">
        <ele>5.6</ele>
        <time>2022-05-31T09:01:34Z</time>
      </trkpt>
      <trkpt lat="49.42248" lon="0.23425">
        <ele>5.6</ele>
        <time>2022-05-31T09:01:35Z</time>
      </trkpt>
      <trkpt lat="49.42248" lon="0.23425">
        <ele>5.6</ele>
        <time>2022-05-31T09:01:37Z</time>
      </trkpt>
      <trkpt lat="49.42247" lon="0.23425">
        <ele>5.6</ele>
        <time>2022-05-31T09:01:38Z</time>
      </trkpt>
      <trkpt lat="49.42245" lon="0.23424">
        <ele>5.5</ele>
        <time>2022-05-31T09:01:39Z</time>
      </trkpt>
      <trkpt lat="49.42244" lon="0.23424">
        <ele>5.5</ele>
        <time>2022-05-31T09:01:41Z</time>
      </trkpt>
      <trkpt lat="49.42243" lon="0.23424">
        <ele>5.5</ele>
        <time>2022-05-31T09:01:42Z</time>
      </trkpt>
      <trkpt lat="49.42241" lon="0.23424">
        <ele>5.5</ele>
        <time>2022-05-31T09:01:43Z</time>
      </trkpt>
      <trkpt lat="49.4224" lon="0.23424">
        <ele>5.5</ele>
        <time>2022-05-31T09:01:44Z</time>
      </trkpt>
      <trkpt lat="49.42238" lon="0.23423">
        <ele>5.5</ele>
        <time>2022-05-31T09:01:45Z</time>
      </trkpt>
      <trkpt lat="49.42236" lon="0.23421">
        <ele>5.5</ele>
        <time>2022-05-31T09:01:47Z</time>
      </trkpt>
      <trkpt lat="49.42234" lon="0.23418">
        <ele>5.5</ele>
        <time>2022-05-31T09:01:48Z</time>
      </trkpt>
      <trkpt lat="49.42232" lon="0.23418">
        <ele>5.5</ele>
        <time>2022-05-31T09:01:49Z</time>
      </trkpt>
      <trkpt lat="49.42232" lon="0.23418">
        <ele>5.5</ele>
        <time>2022-05-31T09:01:50Z</time>
      </trkpt>
      <trkpt lat="49.42231" lon="0.23419">
        <ele>5.5</ele>
        <time>2022-05-31T09:01:52Z</time>
      </trkpt>
      <trkpt lat="49.4223" lon="0.23419">
        <ele>5.5</ele>
        <time>2022-05-31T09:01:53Z</time>
      </trkpt>
      <trkpt lat="49.42229" lon="0.2342">
        <ele>5.5</ele>
        <time>2022-05-31T09:01:54Z</time>
      </trkpt>
      <trkpt lat="49.42228" lon="0.2342">
        <ele>5.5</ele>
        <time>2022-05-31T09:01:55Z</time>
      </trkpt>
      <trkpt lat="49.42226" lon="0.2342">
        <ele>5.4</ele>
        <time>2022-05-31T09:01:56Z</time>
      </trkpt>
      <trkpt lat="49.42225" lon="0.23421">
        <ele>5.4</ele>
        <time>2022-05-31T09:01:57Z</time>
      </trkpt>
      <trkpt lat="49.42225" lon="0.23421">
        <ele>5.4</ele>
        <time>2022-05-31T09:01:58Z</time>
      </trkpt>
      <trkpt lat="49.42225" lon="0.23422">
        <ele>5.4</ele>
        <time>2022-05-31T09:01:59Z</time>
      </trkpt>
      <trkpt lat="49.42226" lon="0.23422">
        <ele>5.4</ele>
        <time>2022-05-31T09:02:00Z</time>
      </trkpt>
      <trkpt lat="49.42226" lon="0.23422">
        <ele>5.4</ele>
        <time>2022-05-31T09:02:01Z</time>
      </trkpt>
      <trkpt lat="49.42226" lon="0.23422">
        <ele>5.4</ele>
        <time>2022-05-31T09:02:03Z</time>
      </trkpt>
      <trkpt lat="49.42226" lon="0.23421">
        <ele>5.4</ele>
        <time>2022-05-31T09:02:04Z</time>
      </trkpt>
      <trkpt lat="49.42226" lon="0.23421">
        <ele>5.4</ele>
        <time>2022-05-31T09:02:05Z</time>
      </trkpt>
      <trkpt lat="49.42225" lon="0.2342">
        <ele>5.4</ele>
        <time>2022-05-31T09:02:06Z</time>
      </trkpt>
      <trkpt lat="49.42224" lon="0.23419">
        <ele>5.4</ele>
        <time>2022-05-31T09:02:07Z</time>
      </trkpt>
      <trkpt lat="49.42222" lon="0.23419">
        <ele>5.5</ele>
        <time>2022-05-31T09:02:08Z</time>
      </trkpt>
      <trkpt lat="49.42219" lon="0.2342">
        <ele>5.5</ele>
        <time>2022-05-31T09:02:10Z</time>
      </trkpt>
      <trkpt lat="49.42218" lon="0.23421">
        <ele>5.5</ele>
        <time>2022-05-31T09:02:11Z</time>
      </trkpt>
      <trkpt lat="49.42218" lon="0.23422">
        <ele>5.5</ele>
        <time>2022-05-31T09:02:12Z</time>
      </trkpt>
      <trkpt lat="49.42217" lon="0.23422">
        <ele>5.6</ele>
        <time>2022-05-31T09:02:13Z</time>
      </trkpt>
      <trkpt lat="49.42216" lon="0.23423">
        <ele>5.6</ele>
        <time>2022-05-31T09:02:14Z</time>
      </trkpt>
      <trkpt lat="49.42216" lon="0.23423">
        <ele>5.6</ele>
        <time>2022-05-31T09:02:15Z</time>
      </trkpt>
      <trkpt lat="49.42215" lon="0.23423">
        <ele>5.6</ele>
        <time>2022-05-31T09:02:16Z</time>
      </trkpt>
      <trkpt lat="49.42215" lon="0.23423">
        <ele>5.6</ele>
        <time>2022-05-31T09:02:17Z</time>
      </trkpt>
      <trkpt lat="49.42214" lon="0.23423">
        <ele>5.6</ele>
        <time>2022-05-31T09:02:18Z</time>
      </trkpt>
      <trkpt lat="49.42213" lon="0.23423">
        <ele>5.6</ele>
        <time>2022-05-31T09:02:19Z</time>
      </trkpt>
      <trkpt lat="49.42213" lon="0.23423">
        <ele>5.6</ele>
        <time>2022-05-31T09:02:20Z</time>
      </trkpt>
      <trkpt lat="49.42212" lon="0.23423">
        <ele>5.6</ele>
        <time>2022-05-31T09:02:22Z</time>
      </trkpt>
      <trkpt lat="49.42212" lon="0.23423">
        <ele>5.7</ele>
        <time>2022-05-31T09:02:23Z</time>
      </trkpt>
      <trkpt lat="49.42211" lon="0.23423">
        <ele>5.7</ele>
        <time>2022-05-31T09:02:24Z</time>
      </trkpt>
      <trkpt lat="49.4221" lon="0.23423">
        <ele>5.7</ele>
        <time>2022-05-31T09:02:25Z</time>
      </trkpt>
      <trkpt lat="49.4221" lon="0.23423">
        <ele>5.7</ele>
        <time>2022-05-31T09:02:26Z</time>
      </trkpt>
      <trkpt lat="49.42209" lon="0.23423">
        <ele>5.7</ele>
        <time>2022-05-31T09:02:28Z</time>
      </trkpt>
      <trkpt lat="49.42209" lon="0.23423">
        <ele>5.7</ele>
        <time>2022-05-31T09:02:29Z</time>
      </trkpt>
      <trkpt lat="49.42208" lon="0.23423">
        <ele>5.7</ele>
        <time>2022-05-31T09:02:30Z</time>
      </trkpt>
      <trkpt lat="49.42206" lon="0.23422">
        <ele>5.8</ele>
        <time>2022-05-31T09:02:31Z</time>
      </trkpt>
      <trkpt lat="49.42205" lon="0.23422">
        <ele>5.8</ele>
        <time>2022-05-31T09:02:32Z</time>
      </trkpt>
      <trkpt lat="49.42204" lon="0.23422">
        <ele>5.8</ele>
        <time>2022-05-31T09:02:33Z</time>
      </trkpt>
      <trkpt lat="49.42203" lon="0.23421">
        <ele>5.8</ele>
        <time>2022-05-31T09:02:34Z</time>
      </trkpt>
      <trkpt lat="49.42201" lon="0.2342">
        <ele>5.8</ele>
        <time>2022-05-31T09:02:35Z</time>
      </trkpt>
      <trkpt lat="49.42201" lon="0.2342">
        <ele>5.9</ele>
        <time>2022-05-31T09:02:36Z</time>
      </trkpt>
      <trkpt lat="49.422" lon="0.2342">
        <ele>5.9</ele>
        <time>2022-05-31T09:02:38Z</time>
      </trkpt>
      <trkpt lat="49.42199" lon="0.2342">
        <ele>5.9</ele>
        <time>2022-05-31T09:02:39Z</time>
      </trkpt>
      <trkpt lat="49.42197" lon="0.2342">
        <ele>5.9</ele>
        <time>2022-05-31T09:02:40Z</time>
      </trkpt>
      <trkpt lat="49.42197" lon="0.23419">
        <ele>5.9</ele>
        <time>2022-05-31T09:02:41Z</time>
      </trkpt>
      <trkpt lat="49.42196" lon="0.23419">
        <ele>5.9</ele>
        <time>2022-05-31T09:02:42Z</time>
      </trkpt>
      <trkpt lat="49.42196" lon="0.23419">
        <ele>5.9</ele>
        <time>2022-05-31T09:02:43Z</time>
      </trkpt>
      <trkpt lat="49.42195" lon="0.23418">
        <ele>6</ele>
        <time>2022-05-31T09:02:44Z</time>
      </trkpt>
      <trkpt lat="49.42195" lon="0.23418">
        <ele>6</ele>
        <time>2022-05-31T09:02:45Z</time>
      </trkpt>
      <trkpt lat="49.42194" lon="0.23417">
        <ele>6</ele>
        <time>2022-05-31T09:02:46Z</time>
      </trkpt>
      <trkpt lat="49.42194" lon="0.23417">
        <ele>6</ele>
        <time>2022-05-31T09:02:47Z</time>
      </trkpt>
      <trkpt lat="49.42194" lon="0.23416">
        <ele>6</ele>
        <time>2022-05-31T09:02:48Z</time>
      </trkpt>
      <trkpt lat="49.42193" lon="0.23416">
        <ele>6</ele>
        <time>2022-05-31T09:02:49Z</time>
      </trkpt>
      <trkpt lat="49.42193" lon="0.23416">
        <ele>6</ele>
        <time>2022-05-31T09:02:50Z</time>
      </trkpt>
      <trkpt lat="49.42194" lon="0.23416">
        <ele>6</ele>
        <time>2022-05-31T09:02:51Z</time>
      </trkpt>
      <trkpt lat="49.42194" lon="0.23416">
        <ele>6</ele>
        <time>2022-05-31T09:02:52Z</time>
      </trkpt>
      <trkpt lat="49.42194" lon="0.23416">
        <ele>6</ele>
        <time>2022-05-31T09:02:53Z</time>
      </trkpt>
      <trkpt lat="49.42194" lon="0.23416">
        <ele>6</ele>
        <time>2022-05-31T09:02:54Z</time>
      </trkpt>
      <trkpt lat="49.42194" lon="0.23416">
        <ele>6</ele>
        <time>2022-05-31T09:02:55Z</time>
      </trkpt>
      <trkpt lat="49.42193" lon="0.23414">
        <ele>6</ele>
        <time>2022-05-31T09:02:56Z</time>
      </trkpt>
      <trkpt lat="49.42193" lon="0.23414">
        <ele>6</ele>
        <time>2022-05-31T09:02:57Z</time>
      </trkpt>
      <trkpt lat="49.42192" lon="0.23414">
        <ele>6.1</ele>
        <time>2022-05-31T09:02:59Z</time>
      </trkpt>
      <trkpt lat="49.42191" lon="0.23414">
        <ele>6.1</ele>
        <time>2022-05-31T09:03:00Z</time>
      </trkpt>
      <trkpt lat="49.42189" lon="0.23414">
        <ele>6.1</ele>
        <time>2022-05-31T09:03:01Z</time>
      </trkpt>
      <trkpt lat="49.42186" lon="0.23413">
        <ele>6.2</ele>
        <time>2022-05-31T09:03:02Z</time>
      </trkpt>
      <trkpt lat="49.42185" lon="0.23412">
        <ele>6.2</ele>
        <time>2022-05-31T09:03:04Z</time>
      </trkpt>
      <trkpt lat="49.42183" lon="0.23412">
        <ele>6.3</ele>
        <time>2022-05-31T09:03:05Z</time>
      </trkpt>
      <trkpt lat="49.42182" lon="0.23411">
        <ele>6.3</ele>
        <time>2022-05-31T09:03:06Z</time>
      </trkpt>
      <trkpt lat="49.42181" lon="0.2341">
        <ele>6.3</ele>
        <time>2022-05-31T09:03:07Z</time>
      </trkpt>
      <trkpt lat="49.4218" lon="0.23409">
        <ele>6.3</ele>
        <time>2022-05-31T09:03:08Z</time>
      </trkpt>
      <trkpt lat="49.42179" lon="0.23409">
        <ele>6.3</ele>
        <time>2022-05-31T09:03:10Z</time>
      </trkpt>
      <trkpt lat="49.42178" lon="0.23408">
        <ele>6.3</ele>
        <time>2022-05-31T09:03:11Z</time>
      </trkpt>
      <trkpt lat="49.42177" lon="0.23408">
        <ele>6.3</ele>
        <time>2022-05-31T09:03:13Z</time>
      </trkpt>
      <trkpt lat="49.42177" lon="0.23407">
        <ele>6.3</ele>
        <time>2022-05-31T09:03:14Z</time>
      </trkpt>
      <trkpt lat="49.42176" lon="0.23408">
        <ele>6.3</ele>
        <time>2022-05-31T09:03:15Z</time>
      </trkpt>
      <trkpt lat="49.42175" lon="0.23409">
        <ele>6.3</ele>
        <time>2022-05-31T09:03:16Z</time>
      </trkpt>
      <trkpt lat="49.42174" lon="0.2341">
        <ele>6.3</ele>
        <time>2022-05-31T09:03:17Z</time>
      </trkpt>
      <trkpt lat="49.42174" lon="0.2341">
        <ele>6.3</ele>
        <time>2022-05-31T09:03:18Z</time>
      </trkpt>
      <trkpt lat="49.42173" lon="0.2341">
        <ele>6.3</ele>
        <time>2022-05-31T09:03:19Z</time>
      </trkpt>
      <trkpt lat="49.42171" lon="0.23409">
        <ele>6.4</ele>
        <time>2022-05-31T09:03:21Z</time>
      </trkpt>
      <trkpt lat="49.42171" lon="0.23407">
        <ele>6.4</ele>
        <time>2022-05-31T09:03:22Z</time>
      </trkpt>
      <trkpt lat="49.4217" lon="0.23407">
        <ele>6.4</ele>
        <time>2022-05-31T09:03:23Z</time>
      </trkpt>
      <trkpt lat="49.42169" lon="0.23406">
        <ele>6.4</ele>
        <time>2022-05-31T09:03:24Z</time>
      </trkpt>
      <trkpt lat="49.42168" lon="0.23406">
        <ele>6.4</ele>
        <time>2022-05-31T09:03:25Z</time>
      </trkpt>
      <trkpt lat="49.42168" lon="0.23404">
        <ele>6.4</ele>
        <time>2022-05-31T09:03:27Z</time>
      </trkpt>
      <trkpt lat="49.42167" lon="0.23404">
        <ele>6.4</ele>
        <time>2022-05-31T09:03:28Z</time>
      </trkpt>
      <trkpt lat="49.42166" lon="0.23403">
        <ele>6.4</ele>
        <time>2022-05-31T09:03:29Z</time>
      </trkpt>
      <trkpt lat="49.42165" lon="0.23403">
        <ele>6.4</ele>
        <time>2022-05-31T09:03:30Z</time>
      </trkpt>
      <trkpt lat="49.42165" lon="0.23402">
        <ele>6.4</ele>
        <time>2022-05-31T09:03:31Z</time>
      </trkpt>
      <trkpt lat="49.42164" lon="0.23401">
        <ele>6.4</ele>
        <time>2022-05-31T09:03:32Z</time>
      </trkpt>
      <trkpt lat="49.42163" lon="0.234">
        <ele>6.4</ele>
        <time>2022-05-31T09:03:34Z</time>
      </trkpt>
      <trkpt lat="49.42162" lon="0.23399">
        <ele>6.5</ele>
        <time>2022-05-31T09:03:35Z</time>
      </trkpt>
      <trkpt lat="49.42161" lon="0.23398">
        <ele>6.5</ele>
        <time>2022-05-31T09:03:36Z</time>
      </trkpt>
      <trkpt lat="49.4216" lon="0.23398">
        <ele>6.5</ele>
        <time>2022-05-31T09:03:37Z</time>
      </trkpt>
      <trkpt lat="49.4216" lon="0.23397">
        <ele>6.5</ele>
        <time>2022-05-31T09:03:38Z</time>
      </trkpt>
      <trkpt lat="49.4216" lon="0.23397">
        <ele>6.5</ele>
        <time>2022-05-31T09:03:39Z</time>
      </trkpt>
      <trkpt lat="49.4216" lon="0.23396">
        <ele>6.5</ele>
        <time>2022-05-31T09:03:41Z</time>
      </trkpt>
      <trkpt lat="49.42159" lon="0.23394">
        <ele>6.5</ele>
        <time>2022-05-31T09:03:42Z</time>
      </trkpt>
      <trkpt lat="49.42158" lon="0.23393">
        <ele>6.5</ele>
        <time>2022-05-31T09:03:43Z</time>
      </trkpt>
      <trkpt lat="49.42157" lon="0.23393">
        <ele>6.6</ele>
        <time>2022-05-31T09:03:44Z</time>
      </trkpt>
      <trkpt lat="49.42155" lon="0.23392">
        <ele>6.6</ele>
        <time>2022-05-31T09:03:45Z</time>
      </trkpt>
      <trkpt lat="49.42153" lon="0.2339">
        <ele>6.6</ele>
        <time>2022-05-31T09:03:46Z</time>
      </trkpt>
      <trkpt lat="49.42153" lon="0.23389">
        <ele>6.7</ele>
        <time>2022-05-31T09:03:48Z</time>
      </trkpt>
      <trkpt lat="49.42152" lon="0.23388">
        <ele>6.7</ele>
        <time>2022-05-31T09:03:49Z</time>
      </trkpt>
      <trkpt lat="49.42149" lon="0.23386">
        <ele>6.7</ele>
        <time>2022-05-31T09:03:50Z</time>
      </trkpt>
      <trkpt lat="49.42148" lon="0.23384">
        <ele>6.8</ele>
        <time>2022-05-31T09:03:51Z</time>
      </trkpt>
      <trkpt lat="49.42148" lon="0.23384">
        <ele>6.8</ele>
        <time>2022-05-31T09:03:52Z</time>
      </trkpt>
      <trkpt lat="49.42147" lon="0.23383">
        <ele>6.8</ele>
        <time>2022-05-31T09:03:53Z</time>
      </trkpt>
      <trkpt lat="49.42146" lon="0.23382">
        <ele>6.8</ele>
        <time>2022-05-31T09:03:54Z</time>
      </trkpt>
      <trkpt lat="49.42143" lon="0.23379">
        <ele>6.9</ele>
        <time>2022-05-31T09:03:56Z</time>
      </trkpt>
      <trkpt lat="49.42142" lon="0.23378">
        <ele>6.9</ele>
        <time>2022-05-31T09:03:57Z</time>
      </trkpt>
      <trkpt lat="49.42141" lon="0.23377">
        <ele>6.9</ele>
        <time>2022-05-31T09:03:58Z</time>
      </trkpt>
      <trkpt lat="49.4214" lon="0.23376">
        <ele>7</ele>
        <time>2022-05-31T09:03:59Z</time>
      </trkpt>
      <trkpt lat="49.42138" lon="0.23373">
        <ele>7.1</ele>
        <time>2022-05-31T09:04:00Z</time>
      </trkpt>
      <trkpt lat="49.42137" lon="0.23372">
        <ele>7.1</ele>
        <time>2022-05-31T09:04:01Z</time>
      </trkpt>
      <trkpt lat="49.42135" lon="0.2337">
        <ele>7.1</ele>
        <time>2022-05-31T09:04:02Z</time>
      </trkpt>
      <trkpt lat="49.42135" lon="0.2337">
        <ele>7.2</ele>
        <time>2022-05-31T09:04:04Z</time>
      </trkpt>
      <trkpt lat="49.42134" lon="0.23369">
        <ele>7.2</ele>
        <time>2022-05-31T09:04:05Z</time>
      </trkpt>
      <trkpt lat="49.42133" lon="0.23368">
        <ele>7.2</ele>
        <time>2022-05-31T09:04:06Z</time>
      </trkpt>
      <trkpt lat="49.42132" lon="0.23366">
        <ele>7.2</ele>
        <time>2022-05-31T09:04:07Z</time>
      </trkpt>
      <trkpt lat="49.42132" lon="0.23364">
        <ele>7.3</ele>
        <time>2022-05-31T09:04:08Z</time>
      </trkpt>
      <trkpt lat="49.4213" lon="0.23362">
        <ele>7.3</ele>
        <time>2022-05-31T09:04:09Z</time>
      </trkpt>
      <trkpt lat="49.4213" lon="0.23361">
        <ele>7.3</ele>
        <time>2022-05-31T09:04:10Z</time>
      </trkpt>
      <trkpt lat="49.42129" lon="0.2336">
        <ele>7.4</ele>
        <time>2022-05-31T09:04:12Z</time>
      </trkpt>
      <trkpt lat="49.42129" lon="0.23359">
        <ele>7.4</ele>
        <time>2022-05-31T09:04:13Z</time>
      </trkpt>
      <trkpt lat="49.42128" lon="0.23358">
        <ele>7.4</ele>
        <time>2022-05-31T09:04:14Z</time>
      </trkpt>
      <trkpt lat="49.42127" lon="0.23357">
        <ele>7.4</ele>
        <time>2022-05-31T09:04:15Z</time>
      </trkpt>
      <trkpt lat="49.42127" lon="0.23355">
        <ele>7.5</ele>
        <time>2022-05-31T09:04:16Z</time>
      </trkpt>
      <trkpt lat="49.42126" lon="0.23354">
        <ele>7.5</ele>
        <time>2022-05-31T09:04:18Z</time>
      </trkpt>
      <trkpt lat="49.42125" lon="0.23353">
        <ele>7.5</ele>
        <time>2022-05-31T09:04:19Z</time>
      </trkpt>
      <trkpt lat="49.42124" lon="0.23353">
        <ele>7.5</ele>
        <time>2022-05-31T09:04:20Z</time>
      </trkpt>
      <trkpt lat="49.42123" lon="0.23353">
        <ele>7.6</ele>
        <time>2022-05-31T09:04:22Z</time>
      </trkpt>
      <trkpt lat="49.42123" lon="0.23351">
        <ele>7.4</ele>
        <time>2022-05-31T09:04:23Z</time>
      </trkpt>
      <trkpt lat="49.42122" lon="0.23351">
        <ele>7.4</ele>
        <time>2022-05-31T09:04:24Z</time>
      </trkpt>
      <trkpt lat="49.42122" lon="0.2335">
        <ele>7.4</ele>
        <time>2022-05-31T09:04:25Z</time>
      </trkpt>
      <trkpt lat="49.42123" lon="0.23349">
        <ele>7.4</ele>
        <time>2022-05-31T09:04:27Z</time>
      </trkpt>
      <trkpt lat="49.42123" lon="0.2335">
        <ele>7.4</ele>
        <time>2022-05-31T09:04:28Z</time>
      </trkpt>
      <trkpt lat="49.42124" lon="0.2335">
        <ele>7.4</ele>
        <time>2022-05-31T09:04:29Z</time>
      </trkpt>
      <trkpt lat="49.42124" lon="0.2335">
        <ele>7.4</ele>
        <time>2022-05-31T09:04:30Z</time>
      </trkpt>
      <trkpt lat="49.42125" lon="0.23351">
        <ele>7.4</ele>
        <time>2022-05-31T09:04:32Z</time>
      </trkpt>
      <trkpt lat="49.42125" lon="0.23351">
        <ele>7.4</ele>
        <time>2022-05-31T09:04:33Z</time>
      </trkpt>
      <trkpt lat="49.42125" lon="0.23351">
        <ele>7.4</ele>
        <time>2022-05-31T09:04:34Z</time>
      </trkpt>
      <trkpt lat="49.42125" lon="0.23351">
        <ele>7.4</ele>
        <time>2022-05-31T09:04:35Z</time>
      </trkpt>
      <trkpt lat="49.42126" lon="0.23352">
        <ele>7.4</ele>
        <time>2022-05-31T09:04:37Z</time>
      </trkpt>
      <trkpt lat="49.42127" lon="0.23352">
        <ele>7.4</ele>
        <time>2022-05-31T09:04:38Z</time>
      </trkpt>
      <trkpt lat="49.42127" lon="0.23353">
        <ele>7.4</ele>
        <time>2022-05-31T09:04:39Z</time>
      </trkpt>
      <trkpt lat="49.42128" lon="0.23353">
        <ele>7.4</ele>
        <time>2022-05-31T09:04:40Z</time>
      </trkpt>
      <trkpt lat="49.42129" lon="0.23355">
        <ele>7.4</ele>
        <time>2022-05-31T09:04:42Z</time>
      </trkpt>
      <trkpt lat="49.42129" lon="0.23356">
        <ele>7.4</ele>
        <time>2022-05-31T09:04:43Z</time>
      </trkpt>
      <trkpt lat="49.42129" lon="0.23356">
        <ele>7.4</ele>
        <time>2022-05-31T09:04:44Z</time>
      </trkpt>
      <trkpt lat="49.42129" lon="0.23356">
        <ele>7.4</ele>
        <time>2022-05-31T09:04:45Z</time>
      </trkpt>
      <trkpt lat="49.42129" lon="0.23356">
        <ele>7.4</ele>
        <time>2022-05-31T09:04:46Z</time>
      </trkpt>
      <trkpt lat="49.42129" lon="0.23357">
        <ele>7.4</ele>
        <time>2022-05-31T09:04:47Z</time>
      </trkpt>
      <trkpt lat="49.4213" lon="0.23358">
        <ele>7.4</ele>
        <time>2022-05-31T09:04:48Z</time>
      </trkpt>
      <trkpt lat="49.4213" lon="0.23359">
        <ele>7.4</ele>
        <time>2022-05-31T09:04:49Z</time>
      </trkpt>
      <trkpt lat="49.4213" lon="0.23359">
        <ele>7.4</ele>
        <time>2022-05-31T09:04:50Z</time>
      </trkpt>
      <trkpt lat="49.4213" lon="0.2336">
        <ele>7.4</ele>
        <time>2022-05-31T09:04:51Z</time>
      </trkpt>
      <trkpt lat="49.4213" lon="0.23361">
        <ele>7.4</ele>
        <time>2022-05-31T09:04:52Z</time>
      </trkpt>
      <trkpt lat="49.4213" lon="0.23362">
        <ele>7.4</ele>
        <time>2022-05-31T09:04:53Z</time>
      </trkpt>
      <trkpt lat="49.4213" lon="0.23362">
        <ele>7.4</ele>
        <time>2022-05-31T09:04:54Z</time>
      </trkpt>
      <trkpt lat="49.4213" lon="0.23362">
        <ele>7.4</ele>
        <time>2022-05-31T09:04:55Z</time>
      </trkpt>
      <trkpt lat="49.4213" lon="0.23362">
        <ele>7.4</ele>
        <time>2022-05-31T09:04:56Z</time>
      </trkpt>
      <trkpt lat="49.4213" lon="0.23362">
        <ele>7.4</ele>
        <time>2022-05-31T09:04:57Z</time>
      </trkpt>
      <trkpt lat="49.42129" lon="0.23362">
        <ele>7.4</ele>
        <time>2022-05-31T09:04:58Z</time>
      </trkpt>
      <trkpt lat="49.42129" lon="0.23362">
        <ele>7.4</ele>
        <time>2022-05-31T09:04:59Z</time>
      </trkpt>
      <trkpt lat="49.42129" lon="0.23362">
        <ele>7.4</ele>
        <time>2022-05-31T09:05:00Z</time>
      </trkpt>
      <trkpt lat="49.42129" lon="0.23363">
        <ele>7.4</ele>
        <time>2022-05-31T09:05:01Z</time>
      </trkpt>
      <trkpt lat="49.42129" lon="0.23363">
        <ele>7.4</ele>
        <time>2022-05-31T09:05:02Z</time>
      </trkpt>
      <trkpt lat="49.42129" lon="0.23363">
        <ele>7.4</ele>
        <time>2022-05-31T09:05:03Z</time>
      </trkpt>
      <trkpt lat="49.42129" lon="0.23363">
        <ele>7.4</ele>
        <time>2022-05-31T09:05:04Z</time>
      </trkpt>
      <trkpt lat="49.42128" lon="0.23363">
        <ele>7.3</ele>
        <time>2022-05-31T09:05:05Z</time>
      </trkpt>
      <trkpt lat="49.42128" lon="0.23363">
        <ele>7.3</ele>
        <time>2022-05-31T09:05:06Z</time>
      </trkpt>
      <trkpt lat="49.42128" lon="0.23363">
        <ele>7.3</ele>
        <time>2022-05-31T09:05:07Z</time>
      </trkpt>
      <trkpt lat="49.42128" lon="0.23363">
        <ele>7.3</ele>
        <time>2022-05-31T09:05:08Z</time>
      </trkpt>
      <trkpt lat="49.42128" lon="0.23363">
        <ele>7.3</ele>
        <time>2022-05-31T09:05:09Z</time>
      </trkpt>
      <trkpt lat="49.42128" lon="0.23364">
        <ele>7.3</ele>
        <time>2022-05-31T09:05:10Z</time>
      </trkpt>
      <trkpt lat="49.42128" lon="0.23364">
        <ele>7.3</ele>
        <time>2022-05-31T09:05:11Z</time>
      </trkpt>
      <trkpt lat="49.42127" lon="0.23364">
        <ele>7.3</ele>
        <time>2022-05-31T09:05:12Z</time>
      </trkpt>
      <trkpt lat="49.42127" lon="0.23364">
        <ele>7.3</ele>
        <time>2022-05-31T09:05:13Z</time>
      </trkpt>
      <trkpt lat="49.42127" lon="0.23364">
        <ele>7.3</ele>
        <time>2022-05-31T09:05:14Z</time>
      </trkpt>
      <trkpt lat="49.42127" lon="0.23364">
        <ele>7.2</ele>
        <time>2022-05-31T09:05:15Z</time>
      </trkpt>
      <trkpt lat="49.42127" lon="0.23364">
        <ele>7.2</ele>
        <time>2022-05-31T09:05:16Z</time>
      </trkpt>
      <trkpt lat="49.42127" lon="0.23364">
        <ele>7.2</ele>
        <time>2022-05-31T09:05:17Z</time>
      </trkpt>
      <trkpt lat="49.42127" lon="0.23364">
        <ele>7.2</ele>
        <time>2022-05-31T09:05:18Z</time>
      </trkpt>
      <trkpt lat="49.42126" lon="0.23365">
        <ele>7.2</ele>
        <time>2022-05-31T09:05:19Z</time>
      </trkpt>
      <trkpt lat="49.42126" lon="0.23365">
        <ele>7.2</ele>
        <time>2022-05-31T09:05:20Z</time>
      </trkpt>
      <trkpt lat="49.42126" lon="0.23365">
        <ele>7.2</ele>
        <time>2022-05-31T09:05:21Z</time>
      </trkpt>
      <trkpt lat="49.42126" lon="0.23365">
        <ele>7.2</ele>
        <time>2022-05-31T09:05:22Z</time>
      </trkpt>
      <trkpt lat="49.42126" lon="0.23365">
        <ele>7.2</ele>
        <time>2022-05-31T09:05:23Z</time>
      </trkpt>
      <trkpt lat="49.42126" lon="0.23365">
        <ele>7.2</ele>
        <time>2022-05-31T09:05:24Z</time>
      </trkpt>
      <trkpt lat="49.42126" lon="0.23365">
        <ele>7.2</ele>
        <time>2022-05-31T09:05:25Z</time>
      </trkpt>
      <trkpt lat="49.42122" lon="0.23366">
        <ele>7.2</ele>
        <time>2022-05-31T09:05:26Z</time>
      </trkpt>
      <trkpt lat="49.42122" lon="0.23365">
        <ele>7.2</ele>
        <time>2022-05-31T09:05:28Z</time>
      </trkpt>
      <trkpt lat="49.42122" lon="0.23365">
        <ele>7.2</ele>
        <time>2022-05-31T09:05:29Z</time>
      </trkpt>
      <trkpt lat="49.42121" lon="0.23364">
        <ele>7.2</ele>
        <time>2022-05-31T09:05:30Z</time>
      </trkpt>
      <trkpt lat="49.42121" lon="0.23364">
        <ele>7.2</ele>
        <time>2022-05-31T09:05:31Z</time>
      </trkpt>
      <trkpt lat="49.4212" lon="0.23363">
        <ele>7.2</ele>
        <time>2022-05-31T09:05:32Z</time>
      </trkpt>
      <trkpt lat="49.4212" lon="0.23362">
        <ele>7.2</ele>
        <time>2022-05-31T09:05:33Z</time>
      </trkpt>
      <trkpt lat="49.4212" lon="0.23362">
        <ele>7.2</ele>
        <time>2022-05-31T09:05:34Z</time>
      </trkpt>
      <trkpt lat="49.42118" lon="0.23359">
        <ele>7.2</ele>
        <time>2022-05-31T09:05:35Z</time>
      </trkpt>
      <trkpt lat="49.42118" lon="0.23357">
        <ele>7.1</ele>
        <time>2022-05-31T09:05:37Z</time>
      </trkpt>
      <trkpt lat="49.42117" lon="0.23359">
        <ele>7.1</ele>
        <time>2022-05-31T09:05:38Z</time>
      </trkpt>
      <trkpt lat="49.42116" lon="0.23361">
        <ele>7.1</ele>
        <time>2022-05-31T09:05:39Z</time>
      </trkpt>
      <trkpt lat="49.42116" lon="0.23363">
        <ele>7.1</ele>
        <time>2022-05-31T09:05:40Z</time>
      </trkpt>
      <trkpt lat="49.42115" lon="0.23366">
        <ele>7.1</ele>
        <time>2022-05-31T09:05:42Z</time>
      </trkpt>
      <trkpt lat="49.42115" lon="0.23368">
        <ele>7.1</ele>
        <time>2022-05-31T09:05:43Z</time>
      </trkpt>
      <trkpt lat="49.42115" lon="0.23369">
        <ele>7.1</ele>
        <time>2022-05-31T09:05:44Z</time>
      </trkpt>
      <trkpt lat="49.42116" lon="0.2337">
        <ele>7.1</ele>
        <time>2022-05-31T09:05:46Z</time>
      </trkpt>
      <trkpt lat="49.42116" lon="0.23371">
        <ele>7.1</ele>
        <time>2022-05-31T09:05:47Z</time>
      </trkpt>
      <trkpt lat="49.42116" lon="0.23372">
        <ele>7.1</ele>
        <time>2022-05-31T09:05:48Z</time>
      </trkpt>
      <trkpt lat="49.42115" lon="0.23373">
        <ele>7.1</ele>
        <time>2022-05-31T09:05:49Z</time>
      </trkpt>
      <trkpt lat="49.42115" lon="0.23374">
        <ele>7.1</ele>
        <time>2022-05-31T09:05:50Z</time>
      </trkpt>
      <trkpt lat="49.42113" lon="0.23373">
        <ele>7</ele>
        <time>2022-05-31T09:05:52Z</time>
      </trkpt>
      <trkpt lat="49.42111" lon="0.23373">
        <ele>7</ele>
        <time>2022-05-31T09:05:53Z</time>
      </trkpt>
      <trkpt lat="49.4211" lon="0.23373">
        <ele>7</ele>
        <time>2022-05-31T09:05:54Z</time>
      </trkpt>
      <trkpt lat="49.42109" lon="0.23373">
        <ele>7</ele>
        <time>2022-05-31T09:05:55Z</time>
      </trkpt>
      <trkpt lat="49.42107" lon="0.23373">
        <ele>7</ele>
        <time>2022-05-31T09:05:56Z</time>
      </trkpt>
      <trkpt lat="49.42107" lon="0.23374">
        <ele>7</ele>
        <time>2022-05-31T09:05:57Z</time>
      </trkpt>
      <trkpt lat="49.42106" lon="0.23375">
        <ele>7</ele>
        <time>2022-05-31T09:05:58Z</time>
      </trkpt>
      <trkpt lat="49.42105" lon="0.23376">
        <ele>7</ele>
        <time>2022-05-31T09:06:00Z</time>
      </trkpt>
      <trkpt lat="49.42104" lon="0.23377">
        <ele>7</ele>
        <time>2022-05-31T09:06:01Z</time>
      </trkpt>
      <trkpt lat="49.42103" lon="0.23378">
        <ele>7</ele>
        <time>2022-05-31T09:06:02Z</time>
      </trkpt>
      <trkpt lat="49.42103" lon="0.23379">
        <ele>6.9</ele>
        <time>2022-05-31T09:06:03Z</time>
      </trkpt>
      <trkpt lat="49.42102" lon="0.2338">
        <ele>6.9</ele>
        <time>2022-05-31T09:06:04Z</time>
      </trkpt>
      <trkpt lat="49.42102" lon="0.23381">
        <ele>6.9</ele>
        <time>2022-05-31T09:06:05Z</time>
      </trkpt>
      <trkpt lat="49.42102" lon="0.23381">
        <ele>6.9</ele>
        <time>2022-05-31T09:06:06Z</time>
      </trkpt>
      <trkpt lat="49.42103" lon="0.23381">
        <ele>6.9</ele>
        <time>2022-05-31T09:06:07Z</time>
      </trkpt>
      <trkpt lat="49.42103" lon="0.23381">
        <ele>6.9</ele>
        <time>2022-05-31T09:06:08Z</time>
      </trkpt>
      <trkpt lat="49.42103" lon="0.23381">
        <ele>6.9</ele>
        <time>2022-05-31T09:06:09Z</time>
      </trkpt>
      <trkpt lat="49.42103" lon="0.2338">
        <ele>6.9</ele>
        <time>2022-05-31T09:06:10Z</time>
      </trkpt>
      <trkpt lat="49.42103" lon="0.2338">
        <ele>6.9</ele>
        <time>2022-05-31T09:06:11Z</time>
      </trkpt>
      <trkpt lat="49.42103" lon="0.2338">
        <ele>6.9</ele>
        <time>2022-05-31T09:06:12Z</time>
      </trkpt>
      <trkpt lat="49.42103" lon="0.2338">
        <ele>6.9</ele>
        <time>2022-05-31T09:06:13Z</time>
      </trkpt>
      <trkpt lat="49.42103" lon="0.23381">
        <ele>6.9</ele>
        <time>2022-05-31T09:06:15Z</time>
      </trkpt>
      <trkpt lat="49.42103" lon="0.23381">
        <ele>6.9</ele>
        <time>2022-05-31T09:06:16Z</time>
      </trkpt>
      <trkpt lat="49.42103" lon="0.23381">
        <ele>6.9</ele>
        <time>2022-05-31T09:06:17Z</time>
      </trkpt>
      <trkpt lat="49.42102" lon="0.23381">
        <ele>6.9</ele>
        <time>2022-05-31T09:06:18Z</time>
      </trkpt>
      <trkpt lat="49.42102" lon="0.23381">
        <ele>6.9</ele>
        <time>2022-05-31T09:06:19Z</time>
      </trkpt>
      <trkpt lat="49.42102" lon="0.23381">
        <ele>6.9</ele>
        <time>2022-05-31T09:06:20Z</time>
      </trkpt>
      <trkpt lat="49.42102" lon="0.23381">
        <ele>6.9</ele>
        <time>2022-05-31T09:06:21Z</time>
      </trkpt>
      <trkpt lat="49.42102" lon="0.23381">
        <ele>6.9</ele>
        <time>2022-05-31T09:06:22Z</time>
      </trkpt>
      <trkpt lat="49.42102" lon="0.23381">
        <ele>6.9</ele>
        <time>2022-05-31T09:06:23Z</time>
      </trkpt>
      <trkpt lat="49.42102" lon="0.23381">
        <ele>6.9</ele>
        <time>2022-05-31T09:06:24Z</time>
      </trkpt>
      <trkpt lat="49.42102" lon="0.23381">
        <ele>6.9</ele>
        <time>2022-05-31T09:06:25Z</time>
      </trkpt>
      <trkpt lat="49.42102" lon="0.23381">
        <ele>6.9</ele>
        <time>2022-05-31T09:06:26Z</time>
      </trkpt>
      <trkpt lat="49.42102" lon="0.23381">
        <ele>6.9</ele>
        <time>2022-05-31T09:06:27Z</time>
      </trkpt>
      <trkpt lat="49.42102" lon="0.23381">
        <ele>6.9</ele>
        <time>2022-05-31T09:06:28Z</time>
      </trkpt>
      <trkpt lat="49.42102" lon="0.23381">
        <ele>6.9</ele>
        <time>2022-05-31T09:06:29Z</time>
      </trkpt>
      <trkpt lat="49.42102" lon="0.23381">
        <ele>6.9</ele>
        <time>2022-05-31T09:06:30Z</time>
      </trkpt>
      <trkpt lat="49.42102" lon="0.23381">
        <ele>6.9</ele>
        <time>2022-05-31T09:06:31Z</time>
      </trkpt>
      <trkpt lat="49.42102" lon="0.23381">
        <ele>6.9</ele>
        <time>2022-05-31T09:06:32Z</time>
      </trkpt>
      <trkpt lat="49.42102" lon="0.23381">
        <ele>6.9</ele>
        <time>2022-05-31T09:06:33Z</time>
      </trkpt>
      <trkpt lat="49.42102" lon="0.23381">
        <ele>6.9</ele>
        <time>2022-05-31T09:06:34Z</time>
      </trkpt>
      <trkpt lat="49.42102" lon="0.23381">
        <ele>6.9</ele>
        <time>2022-05-31T09:06:35Z</time>
      </trkpt>
      <trkpt lat="49.42102" lon="0.23381">
        <ele>6.9</ele>
        <time>2022-05-31T09:06:36Z</time>
      </trkpt>
      <trkpt lat="49.42102" lon="0.23381">
        <ele>6.9</ele>
        <time>2022-05-31T09:06:37Z</time>
      </trkpt>
      <trkpt lat="49.42102" lon="0.23381">
        <ele>6.9</ele>
        <time>2022-05-31T09:06:38Z</time>
      </trkpt>
      <trkpt lat="49.42102" lon="0.23381">
        <ele>6.9</ele>
        <time>2022-05-31T09:06:39Z</time>
      </trkpt>
      <trkpt lat="49.42102" lon="0.23381">
        <ele>6.9</ele>
        <time>2022-05-31T09:06:40Z</time>
      </trkpt>
      <trkpt lat="49.42102" lon="0.23381">
        <ele>6.9</ele>
        <time>2022-05-31T09:06:41Z</time>
      </trkpt>
      <trkpt lat="49.42102" lon="0.23381">
        <ele>6.9</ele>
        <time>2022-05-31T09:06:42Z</time>
      </trkpt>
      <trkpt lat="49.42102" lon="0.23381">
        <ele>6.9</ele>
        <time>2022-05-31T09:06:43Z</time>
      </trkpt>
      <trkpt lat="49.42102" lon="0.23381">
        <ele>6.9</ele>
        <time>2022-05-31T09:06:44Z</time>
      </trkpt>
      <trkpt lat="49.42102" lon="0.23381">
        <ele>6.9</ele>
        <time>2022-05-31T09:06:45Z</time>
      </trkpt>
      <trkpt lat="49.42102" lon="0.23381">
        <ele>6.9</ele>
        <time>2022-05-31T09:06:46Z</time>
      </trkpt>
      <trkpt lat="49.42102" lon="0.23381">
        <ele>6.9</ele>
        <time>2022-05-31T09:06:47Z</time>
      </trkpt>
      <trkpt lat="49.42102" lon="0.23381">
        <ele>6.9</ele>
        <time>2022-05-31T09:06:48Z</time>
      </trkpt>
      <trkpt lat="49.42102" lon="0.23381">
        <ele>6.9</ele>
        <time>2022-05-31T09:06:49Z</time>
      </trkpt>
      <trkpt lat="49.42102" lon="0.23381">
        <ele>6.9</ele>
        <time>2022-05-31T09:06:50Z</time>
      </trkpt>
      <trkpt lat="49.42102" lon="0.23381">
        <ele>6.9</ele>
        <time>2022-05-31T09:06:51Z</time>
      </trkpt>
      <trkpt lat="49.42102" lon="0.23381">
        <ele>6.9</ele>
        <time>2022-05-31T09:06:52Z</time>
      </trkpt>
      <trkpt lat="49.42102" lon="0.23381">
        <ele>6.9</ele>
        <time>2022-05-31T09:06:53Z</time>
      </trkpt>
      <trkpt lat="49.42102" lon="0.23381">
        <ele>6.9</ele>
        <time>2022-05-31T09:06:54Z</time>
      </trkpt>
      <trkpt lat="49.42102" lon="0.23381">
        <ele>6.9</ele>
        <time>2022-05-31T09:06:55Z</time>
      </trkpt>
      <trkpt lat="49.42102" lon="0.23381">
        <ele>6.9</ele>
        <time>2022-05-31T09:06:56Z</time>
      </trkpt>
      <trkpt lat="49.42102" lon="0.23381">
        <ele>6.9</ele>
        <time>2022-05-31T09:06:57Z</time>
      </trkpt>
      <trkpt lat="49.42102" lon="0.23381">
        <ele>6.9</ele>
        <time>2022-05-31T09:06:58Z</time>
      </trkpt>
      <trkpt lat="49.42102" lon="0.23381">
        <ele>6.9</ele>
        <time>2022-05-31T09:06:59Z</time>
      </trkpt>
      <trkpt lat="49.42102" lon="0.23381">
        <ele>6.9</ele>
        <time>2022-05-31T09:07:00Z</time>
      </trkpt>
      <trkpt lat="49.42102" lon="0.23381">
        <ele>6.9</ele>
        <time>2022-05-31T09:07:01Z</time>
      </trkpt>
      <trkpt lat="49.42102" lon="0.23381">
        <ele>6.9</ele>
        <time>2022-05-31T09:07:02Z</time>
      </trkpt>
      <trkpt lat="49.42102" lon="0.23381">
        <ele>6.9</ele>
        <time>2022-05-31T09:07:03Z</time>
      </trkpt>
      <trkpt lat="49.42102" lon="0.23381">
        <ele>6.9</ele>
        <time>2022-05-31T09:07:04Z</time>
      </trkpt>
      <trkpt lat="49.42102" lon="0.23381">
        <ele>6.9</ele>
        <time>2022-05-31T09:07:05Z</time>
      </trkpt>
      <trkpt lat="49.42102" lon="0.23381">
        <ele>6.9</ele>
        <time>2022-05-31T09:07:06Z</time>
      </trkpt>
      <trkpt lat="49.42102" lon="0.23381">
        <ele>6.9</ele>
        <time>2022-05-31T09:07:07Z</time>
      </trkpt>
      <trkpt lat="49.42102" lon="0.23381">
        <ele>6.9</ele>
        <time>2022-05-31T09:07:08Z</time>
      </trkpt>
      <trkpt lat="49.42102" lon="0.23381">
        <ele>6.9</ele>
        <time>2022-05-31T09:07:09Z</time>
      </trkpt>
      <trkpt lat="49.42102" lon="0.23381">
        <ele>6.9</ele>
        <time>2022-05-31T09:07:10Z</time>
      </trkpt>
      <trkpt lat="49.42105" lon="0.23382">
        <ele>6.9</ele>
        <time>2022-05-31T09:07:11Z</time>
      </trkpt>
      <trkpt lat="49.42108" lon="0.23383">
        <ele>6.9</ele>
        <time>2022-05-31T09:07:12Z</time>
      </trkpt>
      <trkpt lat="49.42108" lon="0.23383">
        <ele>6.9</ele>
        <time>2022-05-31T09:07:13Z</time>
      </trkpt>
      <trkpt lat="49.42107" lon="0.23383">
        <ele>6.9</ele>
        <time>2022-05-31T09:07:14Z</time>
      </trkpt>
      <trkpt lat="49.42106" lon="0.23382">
        <ele>6.9</ele>
        <time>2022-05-31T09:07:15Z</time>
      </trkpt>
      <trkpt lat="49.42106" lon="0.23382">
        <ele>6.9</ele>
        <time>2022-05-31T09:07:16Z</time>
      </trkpt>
      <trkpt lat="49.42105" lon="0.23381">
        <ele>6.8</ele>
        <time>2022-05-31T09:07:18Z</time>
      </trkpt>
      <trkpt lat="49.42104" lon="0.2338">
        <ele>6.8</ele>
        <time>2022-05-31T09:07:19Z</time>
      </trkpt>
      <trkpt lat="49.42103" lon="0.23379">
        <ele>6.8</ele>
        <time>2022-05-31T09:07:20Z</time>
      </trkpt>
      <trkpt lat="49.42102" lon="0.23378">
        <ele>6.8</ele>
        <time>2022-05-31T09:07:21Z</time>
      </trkpt>
      <trkpt lat="49.42101" lon="0.23377">
        <ele>6.8</ele>
        <time>2022-05-31T09:07:22Z</time>
      </trkpt>
      <trkpt lat="49.42101" lon="0.23376">
        <ele>6.8</ele>
        <time>2022-05-31T09:07:23Z</time>
      </trkpt>
      <trkpt lat="49.42101" lon="0.23375">
        <ele>6.8</ele>
        <time>2022-05-31T09:07:24Z</time>
      </trkpt>
      <trkpt lat="49.42101" lon="0.23375">
        <ele>6.8</ele>
        <time>2022-05-31T09:07:25Z</time>
      </trkpt>
      <trkpt lat="49.42101" lon="0.23374">
        <ele>6.8</ele>
        <time>2022-05-31T09:07:26Z</time>
      </trkpt>
      <trkpt lat="49.421" lon="0.23375">
        <ele>6.8</ele>
        <time>2022-05-31T09:07:28Z</time>
      </trkpt>
      <trkpt lat="49.421" lon="0.23375">
        <ele>6.8</ele>
        <time>2022-05-31T09:07:29Z</time>
      </trkpt>
      <trkpt lat="49.421" lon="0.23376">
        <ele>6.8</ele>
        <time>2022-05-31T09:07:30Z</time>
      </trkpt>
      <trkpt lat="49.421" lon="0.23376">
        <ele>6.8</ele>
        <time>2022-05-31T09:07:31Z</time>
      </trkpt>
      <trkpt lat="49.421" lon="0.23376">
        <ele>6.8</ele>
        <time>2022-05-31T09:07:33Z</time>
      </trkpt>
      <trkpt lat="49.421" lon="0.23376">
        <ele>6.8</ele>
        <time>2022-05-31T09:07:34Z</time>
      </trkpt>
      <trkpt lat="49.421" lon="0.23376">
        <ele>6.8</ele>
        <time>2022-05-31T09:07:35Z</time>
      </trkpt>
      <trkpt lat="49.421" lon="0.23375">
        <ele>6.8</ele>
        <time>2022-05-31T09:07:36Z</time>
      </trkpt>
      <trkpt lat="49.421" lon="0.23375">
        <ele>6.8</ele>
        <time>2022-05-31T09:07:37Z</time>
      </trkpt>
      <trkpt lat="49.421" lon="0.23375">
        <ele>6.8</ele>
        <time>2022-05-31T09:07:38Z</time>
      </trkpt>
      <trkpt lat="49.421" lon="0.23374">
        <ele>6.8</ele>
        <time>2022-05-31T09:07:40Z</time>
      </trkpt>
      <trkpt lat="49.421" lon="0.23374">
        <ele>6.8</ele>
        <time>2022-05-31T09:07:41Z</time>
      </trkpt>
      <trkpt lat="49.42101" lon="0.23375">
        <ele>6.8</ele>
        <time>2022-05-31T09:07:43Z</time>
      </trkpt>
      <trkpt lat="49.42101" lon="0.23374">
        <ele>6.8</ele>
        <time>2022-05-31T09:07:44Z</time>
      </trkpt>
      <trkpt lat="49.42101" lon="0.23374">
        <ele>6.8</ele>
        <time>2022-05-31T09:07:45Z</time>
      </trkpt>
      <trkpt lat="49.42102" lon="0.23374">
        <ele>6.8</ele>
        <time>2022-05-31T09:07:46Z</time>
      </trkpt>
      <trkpt lat="49.42102" lon="0.23375">
        <ele>6.8</ele>
        <time>2022-05-31T09:07:47Z</time>
      </trkpt>
      <trkpt lat="49.42102" lon="0.23375">
        <ele>6.8</ele>
        <time>2022-05-31T09:07:48Z</time>
      </trkpt>
      <trkpt lat="49.42102" lon="0.23375">
        <ele>6.8</ele>
        <time>2022-05-31T09:07:49Z</time>
      </trkpt>
      <trkpt lat="49.42101" lon="0.23375">
        <ele>6.7</ele>
        <time>2022-05-31T09:07:50Z</time>
      </trkpt>
      <trkpt lat="49.42101" lon="0.23376">
        <ele>6.7</ele>
        <time>2022-05-31T09:07:51Z</time>
      </trkpt>
      <trkpt lat="49.42101" lon="0.23376">
        <ele>6.7</ele>
        <time>2022-05-31T09:07:52Z</time>
      </trkpt>
      <trkpt lat="49.42101" lon="0.23376">
        <ele>6.7</ele>
        <time>2022-05-31T09:07:53Z</time>
      </trkpt>
      <trkpt lat="49.42101" lon="0.23376">
        <ele>6.7</ele>
        <time>2022-05-31T09:07:54Z</time>
      </trkpt>
      <trkpt lat="49.42101" lon="0.23376">
        <ele>6.7</ele>
        <time>2022-05-31T09:07:55Z</time>
      </trkpt>
      <trkpt lat="49.42101" lon="0.23376">
        <ele>6.7</ele>
        <time>2022-05-31T09:07:56Z</time>
      </trkpt>
      <trkpt lat="49.42101" lon="0.23376">
        <ele>6.7</ele>
        <time>2022-05-31T09:07:57Z</time>
      </trkpt>
      <trkpt lat="49.42101" lon="0.23376">
        <ele>6.7</ele>
        <time>2022-05-31T09:07:58Z</time>
      </trkpt>
      <trkpt lat="49.421" lon="0.23376">
        <ele>6.7</ele>
        <time>2022-05-31T09:07:59Z</time>
      </trkpt>
      <trkpt lat="49.421" lon="0.23377">
        <ele>6.7</ele>
        <time>2022-05-31T09:08:00Z</time>
      </trkpt>
      <trkpt lat="49.421" lon="0.23377">
        <ele>6.7</ele>
        <time>2022-05-31T09:08:02Z</time>
      </trkpt>
      <trkpt lat="49.42099" lon="0.23377">
        <ele>6.7</ele>
        <time>2022-05-31T09:08:03Z</time>
      </trkpt>
      <trkpt lat="49.42099" lon="0.23377">
        <ele>6.7</ele>
        <time>2022-05-31T09:08:04Z</time>
      </trkpt>
      <trkpt lat="49.42099" lon="0.23378">
        <ele>6.7</ele>
        <time>2022-05-31T09:08:05Z</time>
      </trkpt>
      <trkpt lat="49.42099" lon="0.23379">
        <ele>6.7</ele>
        <time>2022-05-31T09:08:06Z</time>
      </trkpt>
      <trkpt lat="49.42099" lon="0.2338">
        <ele>6.7</ele>
        <time>2022-05-31T09:08:07Z</time>
      </trkpt>
      <trkpt lat="49.42098" lon="0.23381">
        <ele>6.7</ele>
        <time>2022-05-31T09:08:09Z</time>
      </trkpt>
      <trkpt lat="49.42098" lon="0.23382">
        <ele>6.7</ele>
        <time>2022-05-31T09:08:11Z</time>
      </trkpt>
      <trkpt lat="49.42098" lon="0.23383">
        <ele>6.7</ele>
        <time>2022-05-31T09:08:12Z</time>
      </trkpt>
      <trkpt lat="49.42098" lon="0.23383">
        <ele>6.7</ele>
        <time>2022-05-31T09:08:13Z</time>
      </trkpt>
      <trkpt lat="49.42097" lon="0.23384">
        <ele>6.7</ele>
        <time>2022-05-31T09:08:14Z</time>
      </trkpt>
      <trkpt lat="49.42097" lon="0.23385">
        <ele>6.7</ele>
        <time>2022-05-31T09:08:15Z</time>
      </trkpt>
      <trkpt lat="49.42096" lon="0.23386">
        <ele>6.7</ele>
        <time>2022-05-31T09:08:16Z</time>
      </trkpt>
      <trkpt lat="49.42094" lon="0.23387">
        <ele>6.7</ele>
        <time>2022-05-31T09:08:18Z</time>
      </trkpt>
      <trkpt lat="49.42093" lon="0.23387">
        <ele>6.6</ele>
        <time>2022-05-31T09:08:19Z</time>
      </trkpt>
      <trkpt lat="49.42092" lon="0.23388">
        <ele>6.6</ele>
        <time>2022-05-31T09:08:20Z</time>
      </trkpt>
      <trkpt lat="49.42092" lon="0.2339">
        <ele>6.6</ele>
        <time>2022-05-31T09:08:21Z</time>
      </trkpt>
      <trkpt lat="49.42092" lon="0.23391">
        <ele>6.6</ele>
        <time>2022-05-31T09:08:22Z</time>
      </trkpt>
      <trkpt lat="49.42093" lon="0.23392">
        <ele>6.6</ele>
        <time>2022-05-31T09:08:23Z</time>
      </trkpt>
      <trkpt lat="49.42094" lon="0.23392">
        <ele>6.6</ele>
        <time>2022-05-31T09:08:25Z</time>
      </trkpt>
      <trkpt lat="49.42095" lon="0.23393">
        <ele>6.6</ele>
        <time>2022-05-31T09:08:26Z</time>
      </trkpt>
      <trkpt lat="49.42094" lon="0.23395">
        <ele>6.6</ele>
        <time>2022-05-31T09:08:27Z</time>
      </trkpt>
      <trkpt lat="49.42094" lon="0.23396">
        <ele>6.6</ele>
        <time>2022-05-31T09:08:28Z</time>
      </trkpt>
      <trkpt lat="49.42093" lon="0.23397">
        <ele>6.6</ele>
        <time>2022-05-31T09:08:29Z</time>
      </trkpt>
      <trkpt lat="49.42093" lon="0.23397">
        <ele>6.6</ele>
        <time>2022-05-31T09:08:30Z</time>
      </trkpt>
      <trkpt lat="49.42092" lon="0.23397">
        <ele>6.6</ele>
        <time>2022-05-31T09:08:32Z</time>
      </trkpt>
      <trkpt lat="49.42091" lon="0.23397">
        <ele>6.6</ele>
        <time>2022-05-31T09:08:33Z</time>
      </trkpt>
      <trkpt lat="49.42091" lon="0.23396">
        <ele>6.6</ele>
        <time>2022-05-31T09:08:34Z</time>
      </trkpt>
      <trkpt lat="49.42091" lon="0.23396">
        <ele>6.6</ele>
        <time>2022-05-31T09:08:35Z</time>
      </trkpt>
      <trkpt lat="49.42091" lon="0.23396">
        <ele>6.6</ele>
        <time>2022-05-31T09:08:36Z</time>
      </trkpt>
      <trkpt lat="49.42091" lon="0.23396">
        <ele>6.6</ele>
        <time>2022-05-31T09:08:37Z</time>
      </trkpt>
      <trkpt lat="49.42092" lon="0.23396">
        <ele>6.6</ele>
        <time>2022-05-31T09:08:38Z</time>
      </trkpt>
      <trkpt lat="49.42092" lon="0.23396">
        <ele>6.6</ele>
        <time>2022-05-31T09:08:39Z</time>
      </trkpt>
      <trkpt lat="49.42092" lon="0.23396">
        <ele>6.6</ele>
        <time>2022-05-31T09:08:40Z</time>
      </trkpt>
      <trkpt lat="49.42092" lon="0.23396">
        <ele>6.6</ele>
        <time>2022-05-31T09:08:41Z</time>
      </trkpt>
      <trkpt lat="49.42092" lon="0.23396">
        <ele>6.6</ele>
        <time>2022-05-31T09:08:43Z</time>
      </trkpt>
      <trkpt lat="49.42092" lon="0.23396">
        <ele>6.6</ele>
        <time>2022-05-31T09:08:44Z</time>
      </trkpt>
      <trkpt lat="49.42092" lon="0.23397">
        <ele>6.6</ele>
        <time>2022-05-31T09:08:46Z</time>
      </trkpt>
      <trkpt lat="49.42091" lon="0.23397">
        <ele>6.5</ele>
        <time>2022-05-31T09:08:47Z</time>
      </trkpt>
      <trkpt lat="49.4209" lon="0.23399">
        <ele>6.5</ele>
        <time>2022-05-31T09:08:48Z</time>
      </trkpt>
      <trkpt lat="49.42089" lon="0.23401">
        <ele>6.5</ele>
        <time>2022-05-31T09:08:50Z</time>
      </trkpt>
      <trkpt lat="49.42088" lon="0.23403">
        <ele>6.5</ele>
        <time>2022-05-31T09:08:51Z</time>
      </trkpt>
      <trkpt lat="49.42088" lon="0.23404">
        <ele>6.5</ele>
        <time>2022-05-31T09:08:52Z</time>
      </trkpt>
      <trkpt lat="49.42087" lon="0.23406">
        <ele>6.5</ele>
        <time>2022-05-31T09:08:53Z</time>
      </trkpt>
      <trkpt lat="49.42086" lon="0.23407">
        <ele>6.5</ele>
        <time>2022-05-31T09:08:55Z</time>
      </trkpt>
      <trkpt lat="49.42085" lon="0.23409">
        <ele>6.5</ele>
        <time>2022-05-31T09:08:56Z</time>
      </trkpt>
      <trkpt lat="49.42084" lon="0.23409">
        <ele>6.5</ele>
        <time>2022-05-31T09:08:57Z</time>
      </trkpt>
      <trkpt lat="49.42084" lon="0.2341">
        <ele>6.5</ele>
        <time>2022-05-31T09:08:58Z</time>
      </trkpt>
      <trkpt lat="49.42084" lon="0.23412">
        <ele>6.4</ele>
        <time>2022-05-31T09:08:59Z</time>
      </trkpt>
      <trkpt lat="49.42083" lon="0.23413">
        <ele>6.4</ele>
        <time>2022-05-31T09:09:00Z</time>
      </trkpt>
      <trkpt lat="49.42083" lon="0.23414">
        <ele>6.4</ele>
        <time>2022-05-31T09:09:01Z</time>
      </trkpt>
      <trkpt lat="49.42082" lon="0.23415">
        <ele>6.4</ele>
        <time>2022-05-31T09:09:03Z</time>
      </trkpt>
      <trkpt lat="49.42082" lon="0.23416">
        <ele>6.4</ele>
        <time>2022-05-31T09:09:04Z</time>
      </trkpt>
      <trkpt lat="49.42082" lon="0.23416">
        <ele>6.4</ele>
        <time>2022-05-31T09:09:05Z</time>
      </trkpt>
      <trkpt lat="49.42081" lon="0.23417">
        <ele>6.4</ele>
        <time>2022-05-31T09:09:06Z</time>
      </trkpt>
      <trkpt lat="49.42079" lon="0.23418">
        <ele>6.4</ele>
        <time>2022-05-31T09:09:08Z</time>
      </trkpt>
      <trkpt lat="49.42078" lon="0.23419">
        <ele>6.4</ele>
        <time>2022-05-31T09:09:09Z</time>
      </trkpt>
      <trkpt lat="49.42077" lon="0.23421">
        <ele>6.4</ele>
        <time>2022-05-31T09:09:10Z</time>
      </trkpt>
      <trkpt lat="49.42076" lon="0.23421">
        <ele>6.4</ele>
        <time>2022-05-31T09:09:11Z</time>
      </trkpt>
      <trkpt lat="49.42075" lon="0.23422">
        <ele>6.4</ele>
        <time>2022-05-31T09:09:13Z</time>
      </trkpt>
      <trkpt lat="49.42074" lon="0.23423">
        <ele>6.4</ele>
        <time>2022-05-31T09:09:14Z</time>
      </trkpt>
      <trkpt lat="49.42073" lon="0.23423">
        <ele>6.3</ele>
        <time>2022-05-31T09:09:15Z</time>
      </trkpt>
      <trkpt lat="49.42072" lon="0.23424">
        <ele>6.3</ele>
        <time>2022-05-31T09:09:16Z</time>
      </trkpt>
      <trkpt lat="49.42071" lon="0.23425">
        <ele>6.3</ele>
        <time>2022-05-31T09:09:17Z</time>
      </trkpt>
      <trkpt lat="49.42069" lon="0.23426">
        <ele>6.3</ele>
        <time>2022-05-31T09:09:18Z</time>
      </trkpt>
      <trkpt lat="49.42068" lon="0.23428">
        <ele>6.3</ele>
        <time>2022-05-31T09:09:19Z</time>
      </trkpt>
      <trkpt lat="49.42067" lon="0.23429">
        <ele>6.3</ele>
        <time>2022-05-31T09:09:20Z</time>
      </trkpt>
      <trkpt lat="49.42066" lon="0.2343">
        <ele>6.3</ele>
        <time>2022-05-31T09:09:22Z</time>
      </trkpt>
      <trkpt lat="49.42066" lon="0.23431">
        <ele>6.3</ele>
        <time>2022-05-31T09:09:23Z</time>
      </trkpt>
      <trkpt lat="49.42064" lon="0.23432">
        <ele>6.3</ele>
        <time>2022-05-31T09:09:24Z</time>
      </trkpt>
      <trkpt lat="49.42063" lon="0.23432">
        <ele>6.3</ele>
        <time>2022-05-31T09:09:25Z</time>
      </trkpt>
      <trkpt lat="49.42062" lon="0.23433">
        <ele>6.2</ele>
        <time>2022-05-31T09:09:26Z</time>
      </trkpt>
      <trkpt lat="49.42062" lon="0.23434">
        <ele>6.2</ele>
        <time>2022-05-31T09:09:27Z</time>
      </trkpt>
      <trkpt lat="49.42061" lon="0.23435">
        <ele>6.2</ele>
        <time>2022-05-31T09:09:29Z</time>
      </trkpt>
      <trkpt lat="49.4206" lon="0.23436">
        <ele>6.2</ele>
        <time>2022-05-31T09:09:30Z</time>
      </trkpt>
      <trkpt lat="49.4206" lon="0.23437">
        <ele>6.2</ele>
        <time>2022-05-31T09:09:31Z</time>
      </trkpt>
      <trkpt lat="49.42058" lon="0.23438">
        <ele>6.2</ele>
        <time>2022-05-31T09:09:32Z</time>
      </trkpt>
      <trkpt lat="49.42057" lon="0.23438">
        <ele>6.2</ele>
        <time>2022-05-31T09:09:33Z</time>
      </trkpt>
      <trkpt lat="49.42056" lon="0.23439">
        <ele>6.2</ele>
        <time>2022-05-31T09:09:34Z</time>
      </trkpt>
      <trkpt lat="49.42054" lon="0.2344">
        <ele>6.1</ele>
        <time>2022-05-31T09:09:36Z</time>
      </trkpt>
      <trkpt lat="49.42053" lon="0.23441">
        <ele>6.1</ele>
        <time>2022-05-31T09:09:37Z</time>
      </trkpt>
      <trkpt lat="49.4205" lon="0.23444">
        <ele>6.1</ele>
        <time>2022-05-31T09:09:38Z</time>
      </trkpt>
      <trkpt lat="49.42047" lon="0.23446">
        <ele>6.1</ele>
        <time>2022-05-31T09:09:39Z</time>
      </trkpt>
      <trkpt lat="49.42046" lon="0.23447">
        <ele>6</ele>
        <time>2022-05-31T09:09:40Z</time>
      </trkpt>
      <trkpt lat="49.42045" lon="0.23449">
        <ele>6</ele>
        <time>2022-05-31T09:09:41Z</time>
      </trkpt>
      <trkpt lat="49.42044" lon="0.2345">
        <ele>6</ele>
        <time>2022-05-31T09:09:43Z</time>
      </trkpt>
      <trkpt lat="49.42043" lon="0.23452">
        <ele>6</ele>
        <time>2022-05-31T09:09:44Z</time>
      </trkpt>
      <trkpt lat="49.42042" lon="0.23453">
        <ele>6.1</ele>
        <time>2022-05-31T09:09:45Z</time>
      </trkpt>
      <trkpt lat="49.42041" lon="0.23454">
        <ele>6.1</ele>
        <time>2022-05-31T09:09:46Z</time>
      </trkpt>
      <trkpt lat="49.42041" lon="0.23456">
        <ele>6.1</ele>
        <time>2022-05-31T09:09:47Z</time>
      </trkpt>
      <trkpt lat="49.4204" lon="0.23457">
        <ele>6.1</ele>
        <time>2022-05-31T09:09:48Z</time>
      </trkpt>
      <trkpt lat="49.42039" lon="0.23459">
        <ele>6.1</ele>
        <time>2022-05-31T09:09:49Z</time>
      </trkpt>
      <trkpt lat="49.42039" lon="0.2346">
        <ele>6.1</ele>
        <time>2022-05-31T09:09:51Z</time>
      </trkpt>
      <trkpt lat="49.42038" lon="0.23462">
        <ele>6.1</ele>
        <time>2022-05-31T09:09:52Z</time>
      </trkpt>
      <trkpt lat="49.42038" lon="0.23465">
        <ele>6.1</ele>
        <time>2022-05-31T09:09:53Z</time>
      </trkpt>
      <trkpt lat="49.42038" lon="0.23467">
        <ele>6.1</ele>
        <time>2022-05-31T09:09:54Z</time>
      </trkpt>
      <trkpt lat="49.42038" lon="0.2347">
        <ele>6.2</ele>
        <time>2022-05-31T09:09:55Z</time>
      </trkpt>
      <trkpt lat="49.42037" lon="0.23472">
        <ele>6.2</ele>
        <time>2022-05-31T09:09:56Z</time>
      </trkpt>
      <trkpt lat="49.42035" lon="0.23475">
        <ele>6.2</ele>
        <time>2022-05-31T09:09:57Z</time>
      </trkpt>
      <trkpt lat="49.42033" lon="0.23475">
        <ele>6.2</ele>
        <time>2022-05-31T09:09:59Z</time>
      </trkpt>
      <trkpt lat="49.42032" lon="0.23476">
        <ele>6.2</ele>
        <time>2022-05-31T09:10:00Z</time>
      </trkpt>
      <trkpt lat="49.4203" lon="0.23477">
        <ele>6.2</ele>
        <time>2022-05-31T09:10:01Z</time>
      </trkpt>
      <trkpt lat="49.42027" lon="0.23478">
        <ele>6.3</ele>
        <time>2022-05-31T09:10:02Z</time>
      </trkpt>
      <trkpt lat="49.42026" lon="0.23478">
        <ele>6.3</ele>
        <time>2022-05-31T09:10:03Z</time>
      </trkpt>
      <trkpt lat="49.42025" lon="0.23479">
        <ele>6.3</ele>
        <time>2022-05-31T09:10:04Z</time>
      </trkpt>
      <trkpt lat="49.42024" lon="0.23479">
        <ele>6.5</ele>
        <time>2022-05-31T09:10:05Z</time>
      </trkpt>
      <trkpt lat="49.42023" lon="0.2348">
        <ele>6.5</ele>
        <time>2022-05-31T09:10:06Z</time>
      </trkpt>
      <trkpt lat="49.42021" lon="0.23481">
        <ele>6.6</ele>
        <time>2022-05-31T09:10:08Z</time>
      </trkpt>
      <trkpt lat="49.4202" lon="0.23481">
        <ele>6.6</ele>
        <time>2022-05-31T09:10:09Z</time>
      </trkpt>
      <trkpt lat="49.4202" lon="0.23481">
        <ele>6.6</ele>
        <time>2022-05-31T09:10:10Z</time>
      </trkpt>
      <trkpt lat="49.42019" lon="0.23482">
        <ele>6.6</ele>
        <time>2022-05-31T09:10:11Z</time>
      </trkpt>
      <trkpt lat="49.42018" lon="0.23482">
        <ele>6.6</ele>
        <time>2022-05-31T09:10:12Z</time>
      </trkpt>
      <trkpt lat="49.42017" lon="0.23482">
        <ele>6.6</ele>
        <time>2022-05-31T09:10:13Z</time>
      </trkpt>
      <trkpt lat="49.42016" lon="0.23481">
        <ele>6.7</ele>
        <time>2022-05-31T09:10:14Z</time>
      </trkpt>
      <trkpt lat="49.42015" lon="0.2348">
        <ele>6.7</ele>
        <time>2022-05-31T09:10:16Z</time>
      </trkpt>
      <trkpt lat="49.42015" lon="0.23478">
        <ele>6.7</ele>
        <time>2022-05-31T09:10:17Z</time>
      </trkpt>
      <trkpt lat="49.42014" lon="0.23476">
        <ele>6.7</ele>
        <time>2022-05-31T09:10:18Z</time>
      </trkpt>
      <trkpt lat="49.42013" lon="0.23474">
        <ele>6.8</ele>
        <time>2022-05-31T09:10:19Z</time>
      </trkpt>
      <trkpt lat="49.42013" lon="0.23473">
        <ele>6.8</ele>
        <time>2022-05-31T09:10:20Z</time>
      </trkpt>
      <trkpt lat="49.42012" lon="0.23471">
        <ele>6.8</ele>
        <time>2022-05-31T09:10:22Z</time>
      </trkpt>
      <trkpt lat="49.42011" lon="0.23469">
        <ele>6.8</ele>
        <time>2022-05-31T09:10:23Z</time>
      </trkpt>
      <trkpt lat="49.42011" lon="0.23468">
        <ele>6.8</ele>
        <time>2022-05-31T09:10:24Z</time>
      </trkpt>
      <trkpt lat="49.4201" lon="0.23467">
        <ele>6.9</ele>
        <time>2022-05-31T09:10:25Z</time>
      </trkpt>
      <trkpt lat="49.4201" lon="0.23465">
        <ele>6.9</ele>
        <time>2022-05-31T09:10:26Z</time>
      </trkpt>
      <trkpt lat="49.42009" lon="0.23462">
        <ele>6.9</ele>
        <time>2022-05-31T09:10:28Z</time>
      </trkpt>
      <trkpt lat="49.42008" lon="0.23461">
        <ele>6.9</ele>
        <time>2022-05-31T09:10:29Z</time>
      </trkpt>
      <trkpt lat="49.42008" lon="0.2346">
        <ele>7</ele>
        <time>2022-05-31T09:10:30Z</time>
      </trkpt>
      <trkpt lat="49.42007" lon="0.23459">
        <ele>7</ele>
        <time>2022-05-31T09:10:31Z</time>
      </trkpt>
      <trkpt lat="49.42006" lon="0.23457">
        <ele>7</ele>
        <time>2022-05-31T09:10:32Z</time>
      </trkpt>
      <trkpt lat="49.42006" lon="0.23456">
        <ele>7</ele>
        <time>2022-05-31T09:10:33Z</time>
      </trkpt>
      <trkpt lat="49.42005" lon="0.23456">
        <ele>7</ele>
        <time>2022-05-31T09:10:35Z</time>
      </trkpt>
      <trkpt lat="49.42005" lon="0.23455">
        <ele>7</ele>
        <time>2022-05-31T09:10:36Z</time>
      </trkpt>
      <trkpt lat="49.42004" lon="0.23455">
        <ele>7</ele>
        <time>2022-05-31T09:10:37Z</time>
      </trkpt>
      <trkpt lat="49.42004" lon="0.23455">
        <ele>7</ele>
        <time>2022-05-31T09:10:38Z</time>
      </trkpt>
      <trkpt lat="49.42005" lon="0.23459">
        <ele>7.1</ele>
        <time>2022-05-31T09:10:39Z</time>
      </trkpt>
      <trkpt lat="49.42006" lon="0.23461">
        <ele>7.1</ele>
        <time>2022-05-31T09:10:41Z</time>
      </trkpt>
      <trkpt lat="49.42008" lon="0.23463">
        <ele>7.2</ele>
        <time>2022-05-31T09:10:42Z</time>
      </trkpt>
      <trkpt lat="49.42008" lon="0.23464">
        <ele>7.2</ele>
        <time>2022-05-31T09:10:43Z</time>
      </trkpt>
      <trkpt lat="49.42008" lon="0.23466">
        <ele>7.2</ele>
        <time>2022-05-31T09:10:44Z</time>
      </trkpt>
      <trkpt lat="49.42008" lon="0.23467">
        <ele>7.2</ele>
        <time>2022-05-31T09:10:45Z</time>
      </trkpt>
      <trkpt lat="49.42007" lon="0.23468">
        <ele>7.2</ele>
        <time>2022-05-31T09:10:47Z</time>
      </trkpt>
      <trkpt lat="49.42006" lon="0.23469">
        <ele>7.2</ele>
        <time>2022-05-31T09:10:48Z</time>
      </trkpt>
      <trkpt lat="49.42005" lon="0.23467">
        <ele>7.3</ele>
        <time>2022-05-31T09:10:50Z</time>
      </trkpt>
      <trkpt lat="49.42004" lon="0.23465">
        <ele>7.3</ele>
        <time>2022-05-31T09:10:51Z</time>
      </trkpt>
      <trkpt lat="49.42004" lon="0.23464">
        <ele>7.3</ele>
        <time>2022-05-31T09:10:52Z</time>
      </trkpt>
      <trkpt lat="49.42003" lon="0.23463">
        <ele>7.3</ele>
        <time>2022-05-31T09:10:53Z</time>
      </trkpt>
      <trkpt lat="49.42002" lon="0.23463">
        <ele>7.4</ele>
        <time>2022-05-31T09:10:54Z</time>
      </trkpt>
      <trkpt lat="49.42" lon="0.23463">
        <ele>7.4</ele>
        <time>2022-05-31T09:10:56Z</time>
      </trkpt>
      <trkpt lat="49.41999" lon="0.23462">
        <ele>7.4</ele>
        <time>2022-05-31T09:10:57Z</time>
      </trkpt>
      <trkpt lat="49.41998" lon="0.23462">
        <ele>7.4</ele>
        <time>2022-05-31T09:10:58Z</time>
      </trkpt>
      <trkpt lat="49.41997" lon="0.23461">
        <ele>7.4</ele>
        <time>2022-05-31T09:10:59Z</time>
      </trkpt>
      <trkpt lat="49.41997" lon="0.23461">
        <ele>7.5</ele>
        <time>2022-05-31T09:11:00Z</time>
      </trkpt>
      <trkpt lat="49.41996" lon="0.23461">
        <ele>7.5</ele>
        <time>2022-05-31T09:11:01Z</time>
      </trkpt>
      <trkpt lat="49.41995" lon="0.2346">
        <ele>7.5</ele>
        <time>2022-05-31T09:11:03Z</time>
      </trkpt>
      <trkpt lat="49.41995" lon="0.2346">
        <ele>7.5</ele>
        <time>2022-05-31T09:11:04Z</time>
      </trkpt>
      <trkpt lat="49.41994" lon="0.23459">
        <ele>7.4</ele>
        <time>2022-05-31T09:11:05Z</time>
      </trkpt>
      <trkpt lat="49.41994" lon="0.23458">
        <ele>7.4</ele>
        <time>2022-05-31T09:11:06Z</time>
      </trkpt>
      <trkpt lat="49.41994" lon="0.23458">
        <ele>7.4</ele>
        <time>2022-05-31T09:11:07Z</time>
      </trkpt>
      <trkpt lat="49.41993" lon="0.23457">
        <ele>7.4</ele>
        <time>2022-05-31T09:11:08Z</time>
      </trkpt>
      <trkpt lat="49.41993" lon="0.23456">
        <ele>7.4</ele>
        <time>2022-05-31T09:11:10Z</time>
      </trkpt>
      <trkpt lat="49.41992" lon="0.23455">
        <ele>7.4</ele>
        <time>2022-05-31T09:11:11Z</time>
      </trkpt>
      <trkpt lat="49.41992" lon="0.23454">
        <ele>7.4</ele>
        <time>2022-05-31T09:11:12Z</time>
      </trkpt>
      <trkpt lat="49.41992" lon="0.23453">
        <ele>7.4</ele>
        <time>2022-05-31T09:11:13Z</time>
      </trkpt>
      <trkpt lat="49.41992" lon="0.23452">
        <ele>7.3</ele>
        <time>2022-05-31T09:11:14Z</time>
      </trkpt>
      <trkpt lat="49.41992" lon="0.23452">
        <ele>7.3</ele>
        <time>2022-05-31T09:11:15Z</time>
      </trkpt>
      <trkpt lat="49.41992" lon="0.23451">
        <ele>7.3</ele>
        <time>2022-05-31T09:11:17Z</time>
      </trkpt>
      <trkpt lat="49.41991" lon="0.2345">
        <ele>7.3</ele>
        <time>2022-05-31T09:11:18Z</time>
      </trkpt>
      <trkpt lat="49.41991" lon="0.23449">
        <ele>7.3</ele>
        <time>2022-05-31T09:11:19Z</time>
      </trkpt>
      <trkpt lat="49.41989" lon="0.23448">
        <ele>7.3</ele>
        <time>2022-05-31T09:11:20Z</time>
      </trkpt>
      <trkpt lat="49.41988" lon="0.23446">
        <ele>7.3</ele>
        <time>2022-05-31T09:11:21Z</time>
      </trkpt>
      <trkpt lat="49.41987" lon="0.23445">
        <ele>7.2</ele>
        <time>2022-05-31T09:11:23Z</time>
      </trkpt>
      <trkpt lat="49.41985" lon="0.23444">
        <ele>7.2</ele>
        <time>2022-05-31T09:11:24Z</time>
      </trkpt>
      <trkpt lat="49.41985" lon="0.23443">
        <ele>7.2</ele>
        <time>2022-05-31T09:11:25Z</time>
      </trkpt>
      <trkpt lat="49.41984" lon="0.23442">
        <ele>7.2</ele>
        <time>2022-05-31T09:11:26Z</time>
      </trkpt>
      <trkpt lat="49.41984" lon="0.23441">
        <ele>7.2</ele>
        <time>2022-05-31T09:11:27Z</time>
      </trkpt>
      <trkpt lat="49.41984" lon="0.23442">
        <ele>7.2</ele>
        <time>2022-05-31T09:11:28Z</time>
      </trkpt>
      <trkpt lat="49.41984" lon="0.23442">
        <ele>7.2</ele>
        <time>2022-05-31T09:11:29Z</time>
      </trkpt>
      <trkpt lat="49.41984" lon="0.23442">
        <ele>7.2</ele>
        <time>2022-05-31T09:11:30Z</time>
      </trkpt>
      <trkpt lat="49.41984" lon="0.23442">
        <ele>7.2</ele>
        <time>2022-05-31T09:11:31Z</time>
      </trkpt>
      <trkpt lat="49.41985" lon="0.23443">
        <ele>7.2</ele>
        <time>2022-05-31T09:11:32Z</time>
      </trkpt>
      <trkpt lat="49.41985" lon="0.23443">
        <ele>7.2</ele>
        <time>2022-05-31T09:11:33Z</time>
      </trkpt>
      <trkpt lat="49.41985" lon="0.23443">
        <ele>7.1</ele>
        <time>2022-05-31T09:11:34Z</time>
      </trkpt>
      <trkpt lat="49.41985" lon="0.23444">
        <ele>7.1</ele>
        <time>2022-05-31T09:11:35Z</time>
      </trkpt>
      <trkpt lat="49.41985" lon="0.23444">
        <ele>7.1</ele>
        <time>2022-05-31T09:11:36Z</time>
      </trkpt>
      <trkpt lat="49.41985" lon="0.23444">
        <ele>7.1</ele>
        <time>2022-05-31T09:11:37Z</time>
      </trkpt>
      <trkpt lat="49.41985" lon="0.23444">
        <ele>7.1</ele>
        <time>2022-05-31T09:11:38Z</time>
      </trkpt>
      <trkpt lat="49.41985" lon="0.23444">
        <ele>7.1</ele>
        <time>2022-05-31T09:11:39Z</time>
      </trkpt>
      <trkpt lat="49.41985" lon="0.23444">
        <ele>7.1</ele>
        <time>2022-05-31T09:11:40Z</time>
      </trkpt>
      <trkpt lat="49.41986" lon="0.23444">
        <ele>7.1</ele>
        <time>2022-05-31T09:11:41Z</time>
      </trkpt>
      <trkpt lat="49.41986" lon="0.23445">
        <ele>7.1</ele>
        <time>2022-05-31T09:11:43Z</time>
      </trkpt>
      <trkpt lat="49.41987" lon="0.23445">
        <ele>7.1</ele>
        <time>2022-05-31T09:11:44Z</time>
      </trkpt>
      <trkpt lat="49.41987" lon="0.23445">
        <ele>7.1</ele>
        <time>2022-05-31T09:11:45Z</time>
      </trkpt>
      <trkpt lat="49.41989" lon="0.23444">
        <ele>7.1</ele>
        <time>2022-05-31T09:11:46Z</time>
      </trkpt>
      <trkpt lat="49.4199" lon="0.23442">
        <ele>7.1</ele>
        <time>2022-05-31T09:11:47Z</time>
      </trkpt>
      <trkpt lat="49.41991" lon="0.23441">
        <ele>7.1</ele>
        <time>2022-05-31T09:11:48Z</time>
      </trkpt>
      <trkpt lat="49.41991" lon="0.2344">
        <ele>7</ele>
        <time>2022-05-31T09:11:49Z</time>
      </trkpt>
      <trkpt lat="49.41991" lon="0.2344">
        <ele>7</ele>
        <time>2022-05-31T09:11:50Z</time>
      </trkpt>
      <trkpt lat="49.41991" lon="0.23439">
        <ele>7</ele>
        <time>2022-05-31T09:11:51Z</time>
      </trkpt>
      <trkpt lat="49.41991" lon="0.23439">
        <ele>7</ele>
        <time>2022-05-31T09:11:52Z</time>
      </trkpt>
      <trkpt lat="49.41991" lon="0.23439">
        <ele>7</ele>
        <time>2022-05-31T09:11:53Z</time>
      </trkpt>
      <trkpt lat="49.41991" lon="0.23439">
        <ele>7</ele>
        <time>2022-05-31T09:11:54Z</time>
      </trkpt>
      <trkpt lat="49.41991" lon="0.23439">
        <ele>7</ele>
        <time>2022-05-31T09:11:55Z</time>
      </trkpt>
      <trkpt lat="49.41991" lon="0.23439">
        <ele>7</ele>
        <time>2022-05-31T09:11:56Z</time>
      </trkpt>
      <trkpt lat="49.41991" lon="0.23439">
        <ele>7</ele>
        <time>2022-05-31T09:11:57Z</time>
      </trkpt>
      <trkpt lat="49.41991" lon="0.23439">
        <ele>7</ele>
        <time>2022-05-31T09:11:58Z</time>
      </trkpt>
      <trkpt lat="49.41991" lon="0.23439">
        <ele>7</ele>
        <time>2022-05-31T09:11:59Z</time>
      </trkpt>
      <trkpt lat="49.41991" lon="0.23439">
        <ele>7</ele>
        <time>2022-05-31T09:12:00Z</time>
      </trkpt>
      <trkpt lat="49.41991" lon="0.23439">
        <ele>7</ele>
        <time>2022-05-31T09:12:01Z</time>
      </trkpt>
      <trkpt lat="49.41991" lon="0.23439">
        <ele>7</ele>
        <time>2022-05-31T09:12:02Z</time>
      </trkpt>
      <trkpt lat="49.41991" lon="0.23439">
        <ele>7</ele>
        <time>2022-05-31T09:12:03Z</time>
      </trkpt>
      <trkpt lat="49.41991" lon="0.23439">
        <ele>7</ele>
        <time>2022-05-31T09:12:04Z</time>
      </trkpt>
      <trkpt lat="49.41991" lon="0.23439">
        <ele>7</ele>
        <time>2022-05-31T09:12:05Z</time>
      </trkpt>
      <trkpt lat="49.41991" lon="0.23439">
        <ele>7</ele>
        <time>2022-05-31T09:12:06Z</time>
      </trkpt>
      <trkpt lat="49.41991" lon="0.23439">
        <ele>7</ele>
        <time>2022-05-31T09:12:07Z</time>
      </trkpt>
      <trkpt lat="49.41991" lon="0.23439">
        <ele>7</ele>
        <time>2022-05-31T09:12:08Z</time>
      </trkpt>
      <trkpt lat="49.41991" lon="0.23439">
        <ele>7</ele>
        <time>2022-05-31T09:12:09Z</time>
      </trkpt>
      <trkpt lat="49.41991" lon="0.23439">
        <ele>7</ele>
        <time>2022-05-31T09:12:10Z</time>
      </trkpt>
      <trkpt lat="49.41991" lon="0.23439">
        <ele>7</ele>
        <time>2022-05-31T09:12:11Z</time>
      </trkpt>
      <trkpt lat="49.41991" lon="0.23439">
        <ele>7</ele>
        <time>2022-05-31T09:12:12Z</time>
      </trkpt>
      <trkpt lat="49.41991" lon="0.23439">
        <ele>7</ele>
        <time>2022-05-31T09:12:13Z</time>
      </trkpt>
      <trkpt lat="49.41991" lon="0.23439">
        <ele>7</ele>
        <time>2022-05-31T09:12:14Z</time>
      </trkpt>
      <trkpt lat="49.41991" lon="0.23439">
        <ele>7</ele>
        <time>2022-05-31T09:12:15Z</time>
      </trkpt>
      <trkpt lat="49.41991" lon="0.23439">
        <ele>7</ele>
        <time>2022-05-31T09:12:16Z</time>
      </trkpt>
      <trkpt lat="49.41991" lon="0.23439">
        <ele>7</ele>
        <time>2022-05-31T09:12:17Z</time>
      </trkpt>
      <trkpt lat="49.41991" lon="0.23439">
        <ele>7</ele>
        <time>2022-05-31T09:12:18Z</time>
      </trkpt>
      <trkpt lat="49.41991" lon="0.23439">
        <ele>7</ele>
        <time>2022-05-31T09:12:19Z</time>
      </trkpt>
      <trkpt lat="49.41991" lon="0.23439">
        <ele>7</ele>
        <time>2022-05-31T09:12:20Z</time>
      </trkpt>
      <trkpt lat="49.41991" lon="0.23439">
        <ele>7</ele>
        <time>2022-05-31T09:12:21Z</time>
      </trkpt>
      <trkpt lat="49.41991" lon="0.23439">
        <ele>7</ele>
        <time>2022-05-31T09:12:22Z</time>
      </trkpt>
      <trkpt lat="49.41991" lon="0.23439">
        <ele>7</ele>
        <time>2022-05-31T09:12:23Z</time>
      </trkpt>
      <trkpt lat="49.41991" lon="0.23439">
        <ele>7</ele>
        <time>2022-05-31T09:12:24Z</time>
      </trkpt>
      <trkpt lat="49.41991" lon="0.23439">
        <ele>7</ele>
        <time>2022-05-31T09:12:25Z</time>
      </trkpt>
      <trkpt lat="49.41991" lon="0.23439">
        <ele>7</ele>
        <time>2022-05-31T09:12:26Z</time>
      </trkpt>
      <trkpt lat="49.41991" lon="0.23439">
        <ele>7</ele>
        <time>2022-05-31T09:12:27Z</time>
      </trkpt>
      <trkpt lat="49.41991" lon="0.23439">
        <ele>7</ele>
        <time>2022-05-31T09:12:28Z</time>
      </trkpt>
      <trkpt lat="49.41991" lon="0.23439">
        <ele>7</ele>
        <time>2022-05-31T09:12:29Z</time>
      </trkpt>
      <trkpt lat="49.41991" lon="0.23439">
        <ele>7</ele>
        <time>2022-05-31T09:12:30Z</time>
      </trkpt>
      <trkpt lat="49.41991" lon="0.23439">
        <ele>7</ele>
        <time>2022-05-31T09:12:31Z</time>
      </trkpt>
      <trkpt lat="49.41991" lon="0.23439">
        <ele>7</ele>
        <time>2022-05-31T09:12:32Z</time>
      </trkpt>
      <trkpt lat="49.41991" lon="0.23439">
        <ele>7</ele>
        <time>2022-05-31T09:12:33Z</time>
      </trkpt>
      <trkpt lat="49.41991" lon="0.23439">
        <ele>7</ele>
        <time>2022-05-31T09:12:34Z</time>
      </trkpt>
      <trkpt lat="49.41991" lon="0.23439">
        <ele>7</ele>
        <time>2022-05-31T09:12:35Z</time>
      </trkpt>
      <trkpt lat="49.41991" lon="0.23439">
        <ele>7</ele>
        <time>2022-05-31T09:12:36Z</time>
      </trkpt>
      <trkpt lat="49.41991" lon="0.23439">
        <ele>7</ele>
        <time>2022-05-31T09:12:37Z</time>
      </trkpt>
      <trkpt lat="49.41991" lon="0.23439">
        <ele>7</ele>
        <time>2022-05-31T09:12:38Z</time>
      </trkpt>
      <trkpt lat="49.41991" lon="0.23439">
        <ele>7</ele>
        <time>2022-05-31T09:12:39Z</time>
      </trkpt>
      <trkpt lat="49.41991" lon="0.23439">
        <ele>7</ele>
        <time>2022-05-31T09:12:40Z</time>
      </trkpt>
      <trkpt lat="49.41991" lon="0.23439">
        <ele>7</ele>
        <time>2022-05-31T09:12:41Z</time>
      </trkpt>
      <trkpt lat="49.41991" lon="0.23439">
        <ele>7</ele>
        <time>2022-05-31T09:12:42Z</time>
      </trkpt>
      <trkpt lat="49.41991" lon="0.23439">
        <ele>7</ele>
        <time>2022-05-31T09:12:43Z</time>
      </trkpt>
      <trkpt lat="49.41991" lon="0.23439">
        <ele>7</ele>
        <time>2022-05-31T09:12:44Z</time>
      </trkpt>
      <trkpt lat="49.41991" lon="0.23439">
        <ele>7</ele>
        <time>2022-05-31T09:12:45Z</time>
      </trkpt>
      <trkpt lat="49.41991" lon="0.23439">
        <ele>7</ele>
        <time>2022-05-31T09:12:46Z</time>
      </trkpt>
      <trkpt lat="49.41991" lon="0.23439">
        <ele>7</ele>
        <time>2022-05-31T09:12:47Z</time>
      </trkpt>
      <trkpt lat="49.41991" lon="0.23439">
        <ele>7</ele>
        <time>2022-05-31T09:12:48Z</time>
      </trkpt>
      <trkpt lat="49.41991" lon="0.23439">
        <ele>7</ele>
        <time>2022-05-31T09:12:49Z</time>
      </trkpt>
      <trkpt lat="49.41991" lon="0.23439">
        <ele>7</ele>
        <time>2022-05-31T09:12:50Z</time>
      </trkpt>
      <trkpt lat="49.41991" lon="0.23439">
        <ele>7</ele>
        <time>2022-05-31T09:12:51Z</time>
      </trkpt>
      <trkpt lat="49.41991" lon="0.23439">
        <ele>7</ele>
        <time>2022-05-31T09:12:52Z</time>
      </trkpt>
      <trkpt lat="49.41991" lon="0.23439">
        <ele>7</ele>
        <time>2022-05-31T09:12:53Z</time>
      </trkpt>
      <trkpt lat="49.41991" lon="0.23439">
        <ele>7</ele>
        <time>2022-05-31T09:12:54Z</time>
      </trkpt>
      <trkpt lat="49.41991" lon="0.23439">
        <ele>7</ele>
        <time>2022-05-31T09:12:55Z</time>
      </trkpt>
      <trkpt lat="49.41991" lon="0.23439">
        <ele>7</ele>
        <time>2022-05-31T09:12:56Z</time>
      </trkpt>
      <trkpt lat="49.41991" lon="0.23439">
        <ele>7</ele>
        <time>2022-05-31T09:12:57Z</time>
      </trkpt>
      <trkpt lat="49.41991" lon="0.23439">
        <ele>7</ele>
        <time>2022-05-31T09:12:58Z</time>
      </trkpt>
      <trkpt lat="49.41991" lon="0.23439">
        <ele>7</ele>
        <time>2022-05-31T09:12:59Z</time>
      </trkpt>
      <trkpt lat="49.41991" lon="0.23439">
        <ele>7</ele>
        <time>2022-05-31T09:13:00Z</time>
      </trkpt>
      <trkpt lat="49.41991" lon="0.23439">
        <ele>7</ele>
        <time>2022-05-31T09:13:01Z</time>
      </trkpt>
      <trkpt lat="49.41991" lon="0.23439">
        <ele>7</ele>
        <time>2022-05-31T09:13:02Z</time>
      </trkpt>
      <trkpt lat="49.41991" lon="0.23439">
        <ele>7</ele>
        <time>2022-05-31T09:13:03Z</time>
      </trkpt>
      <trkpt lat="49.41991" lon="0.23439">
        <ele>7</ele>
        <time>2022-05-31T09:13:04Z</time>
      </trkpt>
      <trkpt lat="49.41991" lon="0.23439">
        <ele>7</ele>
        <time>2022-05-31T09:13:05Z</time>
      </trkpt>
      <trkpt lat="49.41991" lon="0.23439">
        <ele>7</ele>
        <time>2022-05-31T09:13:06Z</time>
      </trkpt>
      <trkpt lat="49.41991" lon="0.23439">
        <ele>7</ele>
        <time>2022-05-31T09:13:07Z</time>
      </trkpt>
      <trkpt lat="49.41991" lon="0.23439">
        <ele>7</ele>
        <time>2022-05-31T09:13:08Z</time>
      </trkpt>
      <trkpt lat="49.41991" lon="0.23439">
        <ele>7</ele>
        <time>2022-05-31T09:13:09Z</time>
      </trkpt>
      <trkpt lat="49.41991" lon="0.23439">
        <ele>7</ele>
        <time>2022-05-31T09:13:10Z</time>
      </trkpt>
      <trkpt lat="49.41991" lon="0.23439">
        <ele>7</ele>
        <time>2022-05-31T09:13:11Z</time>
      </trkpt>
      <trkpt lat="49.41991" lon="0.23439">
        <ele>7</ele>
        <time>2022-05-31T09:13:12Z</time>
      </trkpt>
      <trkpt lat="49.41991" lon="0.23439">
        <ele>7</ele>
        <time>2022-05-31T09:13:13Z</time>
      </trkpt>
      <trkpt lat="49.41991" lon="0.23439">
        <ele>7</ele>
        <time>2022-05-31T09:13:14Z</time>
      </trkpt>
      <trkpt lat="49.41991" lon="0.23439">
        <ele>7</ele>
        <time>2022-05-31T09:13:15Z</time>
      </trkpt>
      <trkpt lat="49.41991" lon="0.23439">
        <ele>7</ele>
        <time>2022-05-31T09:13:16Z</time>
      </trkpt>
      <trkpt lat="49.41991" lon="0.23439">
        <ele>7</ele>
        <time>2022-05-31T09:13:17Z</time>
      </trkpt>
      <trkpt lat="49.41991" lon="0.23439">
        <ele>7</ele>
        <time>2022-05-31T09:13:18Z</time>
      </trkpt>
      <trkpt lat="49.41991" lon="0.23439">
        <ele>7</ele>
        <time>2022-05-31T09:13:19Z</time>
      </trkpt>
      <trkpt lat="49.41991" lon="0.23439">
        <ele>7</ele>
        <time>2022-05-31T09:13:20Z</time>
      </trkpt>
      <trkpt lat="49.41991" lon="0.23439">
        <ele>7</ele>
        <time>2022-05-31T09:13:21Z</time>
      </trkpt>
      <trkpt lat="49.41991" lon="0.23439">
        <ele>7</ele>
        <time>2022-05-31T09:13:22Z</time>
      </trkpt>
      <trkpt lat="49.41991" lon="0.23439">
        <ele>7</ele>
        <time>2022-05-31T09:13:23Z</time>
      </trkpt>
      <trkpt lat="49.41991" lon="0.23439">
        <ele>7</ele>
        <time>2022-05-31T09:13:24Z</time>
      </trkpt>
      <trkpt lat="49.41991" lon="0.23439">
        <ele>7</ele>
        <time>2022-05-31T09:13:25Z</time>
      </trkpt>
      <trkpt lat="49.41991" lon="0.23439">
        <ele>7</ele>
        <time>2022-05-31T09:13:26Z</time>
      </trkpt>
      <trkpt lat="49.41991" lon="0.23439">
        <ele>7</ele>
        <time>2022-05-31T09:13:27Z</time>
      </trkpt>
      <trkpt lat="49.41991" lon="0.23439">
        <ele>7</ele>
        <time>2022-05-31T09:13:28Z</time>
      </trkpt>
      <trkpt lat="49.41991" lon="0.23439">
        <ele>7</ele>
        <time>2022-05-31T09:13:29Z</time>
      </trkpt>
      <trkpt lat="49.41991" lon="0.23439">
        <ele>7</ele>
        <time>2022-05-31T09:13:30Z</time>
      </trkpt>
      <trkpt lat="49.41991" lon="0.23439">
        <ele>7</ele>
        <time>2022-05-31T09:13:31Z</time>
      </trkpt>
      <trkpt lat="49.41992" lon="0.2344">
        <ele>7</ele>
        <time>2022-05-31T09:13:32Z</time>
      </trkpt>
      <trkpt lat="49.41993" lon="0.23441">
        <ele>7</ele>
        <time>2022-05-31T09:13:33Z</time>
      </trkpt>
      <trkpt lat="49.41993" lon="0.23441">
        <ele>7</ele>
        <time>2022-05-31T09:13:34Z</time>
      </trkpt>
      <trkpt lat="49.41993" lon="0.23441">
        <ele>7</ele>
        <time>2022-05-31T09:13:35Z</time>
      </trkpt>
      <trkpt lat="49.41993" lon="0.2344">
        <ele>7</ele>
        <time>2022-05-31T09:13:36Z</time>
      </trkpt>
      <trkpt lat="49.41994" lon="0.2344">
        <ele>7</ele>
        <time>2022-05-31T09:13:37Z</time>
      </trkpt>
      <trkpt lat="49.41995" lon="0.23439">
        <ele>6.9</ele>
        <time>2022-05-31T09:13:38Z</time>
      </trkpt>
      <trkpt lat="49.41996" lon="0.23443">
        <ele>6.9</ele>
        <time>2022-05-31T09:13:39Z</time>
      </trkpt>
      <trkpt lat="49.41995" lon="0.23442">
        <ele>6.9</ele>
        <time>2022-05-31T09:13:41Z</time>
      </trkpt>
      <trkpt lat="49.41995" lon="0.23441">
        <ele>6.9</ele>
        <time>2022-05-31T09:13:42Z</time>
      </trkpt>
      <trkpt lat="49.41995" lon="0.23441">
        <ele>6.9</ele>
        <time>2022-05-31T09:13:43Z</time>
      </trkpt>
      <trkpt lat="49.41995" lon="0.23441">
        <ele>6.9</ele>
        <time>2022-05-31T09:13:44Z</time>
      </trkpt>
      <trkpt lat="49.41996" lon="0.23441">
        <ele>6.9</ele>
        <time>2022-05-31T09:13:45Z</time>
      </trkpt>
      <trkpt lat="49.41996" lon="0.2344">
        <ele>6.9</ele>
        <time>2022-05-31T09:13:46Z</time>
      </trkpt>
      <trkpt lat="49.41996" lon="0.2344">
        <ele>6.9</ele>
        <time>2022-05-31T09:13:47Z</time>
      </trkpt>
      <trkpt lat="49.41996" lon="0.2344">
        <ele>6.9</ele>
        <time>2022-05-31T09:13:48Z</time>
      </trkpt>
      <trkpt lat="49.41996" lon="0.23439">
        <ele>6.9</ele>
        <time>2022-05-31T09:13:49Z</time>
      </trkpt>
      <trkpt lat="49.41996" lon="0.2344">
        <ele>6.8</ele>
        <time>2022-05-31T09:13:51Z</time>
      </trkpt>
      <trkpt lat="49.41996" lon="0.2344">
        <ele>6.8</ele>
        <time>2022-05-31T09:13:52Z</time>
      </trkpt>
      <trkpt lat="49.41997" lon="0.23441">
        <ele>6.8</ele>
        <time>2022-05-31T09:13:53Z</time>
      </trkpt>
      <trkpt lat="49.41997" lon="0.23441">
        <ele>6.8</ele>
        <time>2022-05-31T09:13:54Z</time>
      </trkpt>
      <trkpt lat="49.41998" lon="0.23441">
        <ele>6.8</ele>
        <time>2022-05-31T09:13:55Z</time>
      </trkpt>
      <trkpt lat="49.41998" lon="0.23439">
        <ele>6.8</ele>
        <time>2022-05-31T09:13:56Z</time>
      </trkpt>
      <trkpt lat="49.41998" lon="0.23437">
        <ele>6.8</ele>
        <time>2022-05-31T09:13:58Z</time>
      </trkpt>
      <trkpt lat="49.41998" lon="0.23436">
        <ele>6.8</ele>
        <time>2022-05-31T09:13:59Z</time>
      </trkpt>
      <trkpt lat="49.41998" lon="0.23435">
        <ele>6.7</ele>
        <time>2022-05-31T09:14:00Z</time>
      </trkpt>
      <trkpt lat="49.41998" lon="0.23434">
        <ele>6.7</ele>
        <time>2022-05-31T09:14:01Z</time>
      </trkpt>
      <trkpt lat="49.41998" lon="0.2343">
        <ele>6.7</ele>
        <time>2022-05-31T09:14:02Z</time>
      </trkpt>
      <trkpt lat="49.41997" lon="0.23428">
        <ele>6.7</ele>
        <time>2022-05-31T09:14:03Z</time>
      </trkpt>
      <trkpt lat="49.41997" lon="0.23426">
        <ele>6.6</ele>
        <time>2022-05-31T09:14:04Z</time>
      </trkpt>
      <trkpt lat="49.41996" lon="0.23422">
        <ele>6.6</ele>
        <time>2022-05-31T09:14:06Z</time>
      </trkpt>
      <trkpt lat="49.41996" lon="0.2342">
        <ele>6.6</ele>
        <time>2022-05-31T09:14:07Z</time>
      </trkpt>
      <trkpt lat="49.41996" lon="0.23418">
        <ele>6.6</ele>
        <time>2022-05-31T09:14:08Z</time>
      </trkpt>
      <trkpt lat="49.41997" lon="0.23417">
        <ele>6.5</ele>
        <time>2022-05-31T09:14:09Z</time>
      </trkpt>
      <trkpt lat="49.41997" lon="0.23416">
        <ele>6.5</ele>
        <time>2022-05-31T09:14:10Z</time>
      </trkpt>
      <trkpt lat="49.41998" lon="0.23414">
        <ele>6.5</ele>
        <time>2022-05-31T09:14:11Z</time>
      </trkpt>
      <trkpt lat="49.41999" lon="0.23413">
        <ele>6.5</ele>
        <time>2022-05-31T09:14:12Z</time>
      </trkpt>
      <trkpt lat="49.41999" lon="0.23412">
        <ele>6.5</ele>
        <time>2022-05-31T09:14:13Z</time>
      </trkpt>
      <trkpt lat="49.42" lon="0.23412">
        <ele>6.5</ele>
        <time>2022-05-31T09:14:14Z</time>
      </trkpt>
      <trkpt lat="49.42001" lon="0.23411">
        <ele>6.4</ele>
        <time>2022-05-31T09:14:16Z</time>
      </trkpt>
      <trkpt lat="49.42002" lon="0.2341">
        <ele>6.4</ele>
        <time>2022-05-31T09:14:17Z</time>
      </trkpt>
      <trkpt lat="49.42003" lon="0.23409">
        <ele>6.4</ele>
        <time>2022-05-31T09:14:18Z</time>
      </trkpt>
      <trkpt lat="49.42004" lon="0.23408">
        <ele>6.4</ele>
        <time>2022-05-31T09:14:19Z</time>
      </trkpt>
      <trkpt lat="49.42005" lon="0.23408">
        <ele>6.4</ele>
        <time>2022-05-31T09:14:20Z</time>
      </trkpt>
      <trkpt lat="49.42005" lon="0.23407">
        <ele>6.4</ele>
        <time>2022-05-31T09:14:21Z</time>
      </trkpt>
      <trkpt lat="49.42006" lon="0.23407">
        <ele>6.3</ele>
        <time>2022-05-31T09:14:22Z</time>
      </trkpt>
      <trkpt lat="49.42007" lon="0.23406">
        <ele>6.3</ele>
        <time>2022-05-31T09:14:23Z</time>
      </trkpt>
      <trkpt lat="49.42008" lon="0.23406">
        <ele>6.3</ele>
        <time>2022-05-31T09:14:24Z</time>
      </trkpt>
      <trkpt lat="49.4201" lon="0.23405">
        <ele>6.3</ele>
        <time>2022-05-31T09:14:26Z</time>
      </trkpt>
      <trkpt lat="49.42011" lon="0.23405">
        <ele>6.3</ele>
        <time>2022-05-31T09:14:27Z</time>
      </trkpt>
      <trkpt lat="49.42012" lon="0.23405">
        <ele>6.2</ele>
        <time>2022-05-31T09:14:28Z</time>
      </trkpt>
      <trkpt lat="49.42013" lon="0.23405">
        <ele>6.2</ele>
        <time>2022-05-31T09:14:29Z</time>
      </trkpt>
      <trkpt lat="49.42013" lon="0.23404">
        <ele>6.2</ele>
        <time>2022-05-31T09:14:30Z</time>
      </trkpt>
      <trkpt lat="49.42014" lon="0.23404">
        <ele>6.2</ele>
        <time>2022-05-31T09:14:31Z</time>
      </trkpt>
      <trkpt lat="49.42014" lon="0.23404">
        <ele>6.2</ele>
        <time>2022-05-31T09:14:32Z</time>
      </trkpt>
      <trkpt lat="49.42015" lon="0.23402">
        <ele>6.2</ele>
        <time>2022-05-31T09:14:34Z</time>
      </trkpt>
      <trkpt lat="49.42015" lon="0.23401">
        <ele>6.2</ele>
        <time>2022-05-31T09:14:35Z</time>
      </trkpt>
      <trkpt lat="49.42014" lon="0.23398">
        <ele>6.1</ele>
        <time>2022-05-31T09:14:36Z</time>
      </trkpt>
      <trkpt lat="49.42014" lon="0.23397">
        <ele>6.1</ele>
        <time>2022-05-31T09:14:37Z</time>
      </trkpt>
      <trkpt lat="49.42013" lon="0.23396">
        <ele>6.1</ele>
        <time>2022-05-31T09:14:39Z</time>
      </trkpt>
      <trkpt lat="49.42012" lon="0.23394">
        <ele>6.1</ele>
        <time>2022-05-31T09:14:40Z</time>
      </trkpt>
      <trkpt lat="49.42012" lon="0.23393">
        <ele>5.9</ele>
        <time>2022-05-31T09:14:41Z</time>
      </trkpt>
      <trkpt lat="49.42011" lon="0.23392">
        <ele>5.9</ele>
        <time>2022-05-31T09:14:42Z</time>
      </trkpt>
      <trkpt lat="49.4201" lon="0.2339">
        <ele>5.9</ele>
        <time>2022-05-31T09:14:43Z</time>
      </trkpt>
      <trkpt lat="49.42009" lon="0.23389">
        <ele>5.8</ele>
        <time>2022-05-31T09:14:45Z</time>
      </trkpt>
      <trkpt lat="49.42008" lon="0.23387">
        <ele>5.8</ele>
        <time>2022-05-31T09:14:46Z</time>
      </trkpt>
      <trkpt lat="49.42006" lon="0.23386">
        <ele>5.8</ele>
        <time>2022-05-31T09:14:48Z</time>
      </trkpt>
      <trkpt lat="49.42005" lon="0.23385">
        <ele>5.8</ele>
        <time>2022-05-31T09:14:49Z</time>
      </trkpt>
      <trkpt lat="49.42004" lon="0.23385">
        <ele>5.8</ele>
        <time>2022-05-31T09:14:50Z</time>
      </trkpt>
      <trkpt lat="49.42004" lon="0.23385">
        <ele>5.8</ele>
        <time>2022-05-31T09:14:51Z</time>
      </trkpt>
      <trkpt lat="49.42004" lon="0.23386">
        <ele>5.8</ele>
        <time>2022-05-31T09:14:52Z</time>
      </trkpt>
      <trkpt lat="49.42004" lon="0.23386">
        <ele>5.8</ele>
        <time>2022-05-31T09:14:53Z</time>
      </trkpt>
      <trkpt lat="49.42004" lon="0.23387">
        <ele>5.8</ele>
        <time>2022-05-31T09:14:54Z</time>
      </trkpt>
      <trkpt lat="49.42004" lon="0.23387">
        <ele>5.8</ele>
        <time>2022-05-31T09:14:55Z</time>
      </trkpt>
      <trkpt lat="49.42004" lon="0.23387">
        <ele>5.8</ele>
        <time>2022-05-31T09:14:56Z</time>
      </trkpt>
      <trkpt lat="49.42004" lon="0.23387">
        <ele>5.8</ele>
        <time>2022-05-31T09:14:57Z</time>
      </trkpt>
      <trkpt lat="49.42005" lon="0.23387">
        <ele>5.8</ele>
        <time>2022-05-31T09:14:58Z</time>
      </trkpt>
      <trkpt lat="49.42005" lon="0.23387">
        <ele>5.8</ele>
        <time>2022-05-31T09:14:59Z</time>
      </trkpt>
      <trkpt lat="49.42005" lon="0.23387">
        <ele>5.8</ele>
        <time>2022-05-31T09:15:00Z</time>
      </trkpt>
      <trkpt lat="49.42005" lon="0.23387">
        <ele>5.8</ele>
        <time>2022-05-31T09:15:01Z</time>
      </trkpt>
      <trkpt lat="49.42005" lon="0.23387">
        <ele>5.8</ele>
        <time>2022-05-31T09:15:02Z</time>
      </trkpt>
      <trkpt lat="49.42005" lon="0.23386">
        <ele>5.8</ele>
        <time>2022-05-31T09:15:03Z</time>
      </trkpt>
      <trkpt lat="49.42005" lon="0.23386">
        <ele>5.8</ele>
        <time>2022-05-31T09:15:04Z</time>
      </trkpt>
      <trkpt lat="49.42005" lon="0.23385">
        <ele>5.8</ele>
        <time>2022-05-31T09:15:06Z</time>
      </trkpt>
      <trkpt lat="49.42004" lon="0.23384">
        <ele>5.8</ele>
        <time>2022-05-31T09:15:07Z</time>
      </trkpt>
      <trkpt lat="49.42004" lon="0.23383">
        <ele>5.8</ele>
        <time>2022-05-31T09:15:08Z</time>
      </trkpt>
      <trkpt lat="49.42003" lon="0.23381">
        <ele>5.8</ele>
        <time>2022-05-31T09:15:10Z</time>
      </trkpt>
      <trkpt lat="49.42002" lon="0.2338">
        <ele>5.8</ele>
        <time>2022-05-31T09:15:11Z</time>
      </trkpt>
      <trkpt lat="49.42002" lon="0.2338">
        <ele>5.8</ele>
        <time>2022-05-31T09:15:12Z</time>
      </trkpt>
      <trkpt lat="49.42002" lon="0.23379">
        <ele>5.8</ele>
        <time>2022-05-31T09:15:13Z</time>
      </trkpt>
      <trkpt lat="49.42002" lon="0.23378">
        <ele>5.8</ele>
        <time>2022-05-31T09:15:14Z</time>
      </trkpt>
      <trkpt lat="49.42003" lon="0.23377">
        <ele>5.8</ele>
        <time>2022-05-31T09:15:15Z</time>
      </trkpt>
      <trkpt lat="49.42003" lon="0.23376">
        <ele>5.8</ele>
        <time>2022-05-31T09:15:16Z</time>
      </trkpt>
      <trkpt lat="49.42002" lon="0.23375">
        <ele>5.8</ele>
        <time>2022-05-31T09:15:17Z</time>
      </trkpt>
      <trkpt lat="49.42002" lon="0.23374">
        <ele>5.8</ele>
        <time>2022-05-31T09:15:18Z</time>
      </trkpt>
      <trkpt lat="49.42002" lon="0.23374">
        <ele>5.8</ele>
        <time>2022-05-31T09:15:19Z</time>
      </trkpt>
      <trkpt lat="49.42003" lon="0.23373">
        <ele>5.8</ele>
        <time>2022-05-31T09:15:21Z</time>
      </trkpt>
      <trkpt lat="49.42003" lon="0.23372">
        <ele>5.8</ele>
        <time>2022-05-31T09:15:22Z</time>
      </trkpt>
      <trkpt lat="49.42003" lon="0.23372">
        <ele>5.8</ele>
        <time>2022-05-31T09:15:23Z</time>
      </trkpt>
      <trkpt lat="49.42004" lon="0.23372">
        <ele>5.8</ele>
        <time>2022-05-31T09:15:24Z</time>
      </trkpt>
      <trkpt lat="49.42004" lon="0.23371">
        <ele>5.8</ele>
        <time>2022-05-31T09:15:25Z</time>
      </trkpt>
      <trkpt lat="49.42005" lon="0.2337">
        <ele>5.8</ele>
        <time>2022-05-31T09:15:26Z</time>
      </trkpt>
      <trkpt lat="49.42004" lon="0.23369">
        <ele>5.8</ele>
        <time>2022-05-31T09:15:27Z</time>
      </trkpt>
      <trkpt lat="49.42004" lon="0.23368">
        <ele>5.8</ele>
        <time>2022-05-31T09:15:28Z</time>
      </trkpt>
      <trkpt lat="49.42004" lon="0.23366">
        <ele>5.8</ele>
        <time>2022-05-31T09:15:29Z</time>
      </trkpt>
      <trkpt lat="49.42003" lon="0.23364">
        <ele>5.8</ele>
        <time>2022-05-31T09:15:30Z</time>
      </trkpt>
      <trkpt lat="49.42002" lon="0.23362">
        <ele>5.8</ele>
        <time>2022-05-31T09:15:32Z</time>
      </trkpt>
      <trkpt lat="49.42001" lon="0.23361">
        <ele>5.8</ele>
        <time>2022-05-31T09:15:33Z</time>
      </trkpt>
      <trkpt lat="49.42" lon="0.23359">
        <ele>5.8</ele>
        <time>2022-05-31T09:15:34Z</time>
      </trkpt>
      <trkpt lat="49.41999" lon="0.23358">
        <ele>5.8</ele>
        <time>2022-05-31T09:15:35Z</time>
      </trkpt>
      <trkpt lat="49.41998" lon="0.23357">
        <ele>5.8</ele>
        <time>2022-05-31T09:15:36Z</time>
      </trkpt>
      <trkpt lat="49.41997" lon="0.23356">
        <ele>5.8</ele>
        <time>2022-05-31T09:15:38Z</time>
      </trkpt>
      <trkpt lat="49.41996" lon="0.23355">
        <ele>5.8</ele>
        <time>2022-05-31T09:15:39Z</time>
      </trkpt>
      <trkpt lat="49.41995" lon="0.23354">
        <ele>5.8</ele>
        <time>2022-05-31T09:15:40Z</time>
      </trkpt>
      <trkpt lat="49.41994" lon="0.23354">
        <ele>5.8</ele>
        <time>2022-05-31T09:15:41Z</time>
      </trkpt>
      <trkpt lat="49.41993" lon="0.23354">
        <ele>5.8</ele>
        <time>2022-05-31T09:15:42Z</time>
      </trkpt>
      <trkpt lat="49.41992" lon="0.23354">
        <ele>5.8</ele>
        <time>2022-05-31T09:15:43Z</time>
      </trkpt>
      <trkpt lat="49.41992" lon="0.23354">
        <ele>5.8</ele>
        <time>2022-05-31T09:15:44Z</time>
      </trkpt>
      <trkpt lat="49.41992" lon="0.23353">
        <ele>5.8</ele>
        <time>2022-05-31T09:15:46Z</time>
      </trkpt>
      <trkpt lat="49.41992" lon="0.23352">
        <ele>5.8</ele>
        <time>2022-05-31T09:15:47Z</time>
      </trkpt>
      <trkpt lat="49.41992" lon="0.23351">
        <ele>5.8</ele>
        <time>2022-05-31T09:15:48Z</time>
      </trkpt>
      <trkpt lat="49.41992" lon="0.2335">
        <ele>5.8</ele>
        <time>2022-05-31T09:15:49Z</time>
      </trkpt>
      <trkpt lat="49.41991" lon="0.2335">
        <ele>5.8</ele>
        <time>2022-05-31T09:15:51Z</time>
      </trkpt>
      <trkpt lat="49.4199" lon="0.2335">
        <ele>5.7</ele>
        <time>2022-05-31T09:15:52Z</time>
      </trkpt>
      <trkpt lat="49.41989" lon="0.2335">
        <ele>5.7</ele>
        <time>2022-05-31T09:15:54Z</time>
      </trkpt>
      <trkpt lat="49.41988" lon="0.2335">
        <ele>5.7</ele>
        <time>2022-05-31T09:15:55Z</time>
      </trkpt>
      <trkpt lat="49.41987" lon="0.2335">
        <ele>5.7</ele>
        <time>2022-05-31T09:15:56Z</time>
      </trkpt>
      <trkpt lat="49.41986" lon="0.23351">
        <ele>5.7</ele>
        <time>2022-05-31T09:15:57Z</time>
      </trkpt>
      <trkpt lat="49.41986" lon="0.23351">
        <ele>5.7</ele>
        <time>2022-05-31T09:15:58Z</time>
      </trkpt>
      <trkpt lat="49.41985" lon="0.23352">
        <ele>5.7</ele>
        <time>2022-05-31T09:15:59Z</time>
      </trkpt>
      <trkpt lat="49.41984" lon="0.23352">
        <ele>5.7</ele>
        <time>2022-05-31T09:16:00Z</time>
      </trkpt>
      <trkpt lat="49.41984" lon="0.23353">
        <ele>5.7</ele>
        <time>2022-05-31T09:16:01Z</time>
      </trkpt>
      <trkpt lat="49.41984" lon="0.23354">
        <ele>5.7</ele>
        <time>2022-05-31T09:16:02Z</time>
      </trkpt>
      <trkpt lat="49.41984" lon="0.23354">
        <ele>5.7</ele>
        <time>2022-05-31T09:16:03Z</time>
      </trkpt>
      <trkpt lat="49.41984" lon="0.23355">
        <ele>5.7</ele>
        <time>2022-05-31T09:16:04Z</time>
      </trkpt>
      <trkpt lat="49.41983" lon="0.23355">
        <ele>5.7</ele>
        <time>2022-05-31T09:16:05Z</time>
      </trkpt>
      <trkpt lat="49.41983" lon="0.23354">
        <ele>5.7</ele>
        <time>2022-05-31T09:16:07Z</time>
      </trkpt>
      <trkpt lat="49.41982" lon="0.23354">
        <ele>5.7</ele>
        <time>2022-05-31T09:16:08Z</time>
      </trkpt>
      <trkpt lat="49.41982" lon="0.23354">
        <ele>5.7</ele>
        <time>2022-05-31T09:16:09Z</time>
      </trkpt>
      <trkpt lat="49.41982" lon="0.23354">
        <ele>5.7</ele>
        <time>2022-05-31T09:16:10Z</time>
      </trkpt>
      <trkpt lat="49.41982" lon="0.23354">
        <ele>5.7</ele>
        <time>2022-05-31T09:16:11Z</time>
      </trkpt>
      <trkpt lat="49.41981" lon="0.23354">
        <ele>5.7</ele>
        <time>2022-05-31T09:16:12Z</time>
      </trkpt>
      <trkpt lat="49.41981" lon="0.23355">
        <ele>5.7</ele>
        <time>2022-05-31T09:16:13Z</time>
      </trkpt>
      <trkpt lat="49.41981" lon="0.23355">
        <ele>5.7</ele>
        <time>2022-05-31T09:16:15Z</time>
      </trkpt>
      <trkpt lat="49.41981" lon="0.23355">
        <ele>5.7</ele>
        <time>2022-05-31T09:16:16Z</time>
      </trkpt>
      <trkpt lat="49.41981" lon="0.23355">
        <ele>5.7</ele>
        <time>2022-05-31T09:16:17Z</time>
      </trkpt>
      <trkpt lat="49.41981" lon="0.23355">
        <ele>5.7</ele>
        <time>2022-05-31T09:16:18Z</time>
      </trkpt>
      <trkpt lat="49.41981" lon="0.23354">
        <ele>5.7</ele>
        <time>2022-05-31T09:16:19Z</time>
      </trkpt>
      <trkpt lat="49.41981" lon="0.23354">
        <ele>5.7</ele>
        <time>2022-05-31T09:16:20Z</time>
      </trkpt>
      <trkpt lat="49.41981" lon="0.23354">
        <ele>5.7</ele>
        <time>2022-05-31T09:16:21Z</time>
      </trkpt>
      <trkpt lat="49.41981" lon="0.23354">
        <ele>5.7</ele>
        <time>2022-05-31T09:16:22Z</time>
      </trkpt>
      <trkpt lat="49.41981" lon="0.23354">
        <ele>5.7</ele>
        <time>2022-05-31T09:16:23Z</time>
      </trkpt>
      <trkpt lat="49.41981" lon="0.23354">
        <ele>5.7</ele>
        <time>2022-05-31T09:16:24Z</time>
      </trkpt>
      <trkpt lat="49.41981" lon="0.23354">
        <ele>5.7</ele>
        <time>2022-05-31T09:16:25Z</time>
      </trkpt>
      <trkpt lat="49.41981" lon="0.23354">
        <ele>5.7</ele>
        <time>2022-05-31T09:16:26Z</time>
      </trkpt>
      <trkpt lat="49.41981" lon="0.23353">
        <ele>5.7</ele>
        <time>2022-05-31T09:16:27Z</time>
      </trkpt>
      <trkpt lat="49.41981" lon="0.23352">
        <ele>5.7</ele>
        <time>2022-05-31T09:16:28Z</time>
      </trkpt>
      <trkpt lat="49.41981" lon="0.23352">
        <ele>5.7</ele>
        <time>2022-05-31T09:16:29Z</time>
      </trkpt>
      <trkpt lat="49.41981" lon="0.23352">
        <ele>5.7</ele>
        <time>2022-05-31T09:16:30Z</time>
      </trkpt>
      <trkpt lat="49.41981" lon="0.23352">
        <ele>5.7</ele>
        <time>2022-05-31T09:16:31Z</time>
      </trkpt>
      <trkpt lat="49.41981" lon="0.23352">
        <ele>5.7</ele>
        <time>2022-05-31T09:16:32Z</time>
      </trkpt>
      <trkpt lat="49.41981" lon="0.23352">
        <ele>5.7</ele>
        <time>2022-05-31T09:16:33Z</time>
      </trkpt>
      <trkpt lat="49.41981" lon="0.23352">
        <ele>5.7</ele>
        <time>2022-05-31T09:16:34Z</time>
      </trkpt>
      <trkpt lat="49.41981" lon="0.23352">
        <ele>5.7</ele>
        <time>2022-05-31T09:16:35Z</time>
      </trkpt>
      <trkpt lat="49.41981" lon="0.23352">
        <ele>5.7</ele>
        <time>2022-05-31T09:16:36Z</time>
      </trkpt>
      <trkpt lat="49.41981" lon="0.23352">
        <ele>5.7</ele>
        <time>2022-05-31T09:16:37Z</time>
      </trkpt>
      <trkpt lat="49.41981" lon="0.23352">
        <ele>5.7</ele>
        <time>2022-05-31T09:16:38Z</time>
      </trkpt>
      <trkpt lat="49.41981" lon="0.23352">
        <ele>5.7</ele>
        <time>2022-05-31T09:16:39Z</time>
      </trkpt>
      <trkpt lat="49.41981" lon="0.23352">
        <ele>5.7</ele>
        <time>2022-05-31T09:16:40Z</time>
      </trkpt>
      <trkpt lat="49.41981" lon="0.23352">
        <ele>5.7</ele>
        <time>2022-05-31T09:16:41Z</time>
      </trkpt>
      <trkpt lat="49.41981" lon="0.23352">
        <ele>5.7</ele>
        <time>2022-05-31T09:16:42Z</time>
      </trkpt>
      <trkpt lat="49.41981" lon="0.23352">
        <ele>5.7</ele>
        <time>2022-05-31T09:16:43Z</time>
      </trkpt>
      <trkpt lat="49.41981" lon="0.23352">
        <ele>5.7</ele>
        <time>2022-05-31T09:16:44Z</time>
      </trkpt>
      <trkpt lat="49.41981" lon="0.23352">
        <ele>5.7</ele>
        <time>2022-05-31T09:16:45Z</time>
      </trkpt>
      <trkpt lat="49.41981" lon="0.23352">
        <ele>5.7</ele>
        <time>2022-05-31T09:16:46Z</time>
      </trkpt>
      <trkpt lat="49.41981" lon="0.23351">
        <ele>5.7</ele>
        <time>2022-05-31T09:16:47Z</time>
      </trkpt>
      <trkpt lat="49.41982" lon="0.23351">
        <ele>5.7</ele>
        <time>2022-05-31T09:16:48Z</time>
      </trkpt>
      <trkpt lat="49.41982" lon="0.23351">
        <ele>5.7</ele>
        <time>2022-05-31T09:16:49Z</time>
      </trkpt>
      <trkpt lat="49.41982" lon="0.23351">
        <ele>5.7</ele>
        <time>2022-05-31T09:16:50Z</time>
      </trkpt>
      <trkpt lat="49.41983" lon="0.23351">
        <ele>5.7</ele>
        <time>2022-05-31T09:16:51Z</time>
      </trkpt>
      <trkpt lat="49.41984" lon="0.2335">
        <ele>5.7</ele>
        <time>2022-05-31T09:16:52Z</time>
      </trkpt>
      <trkpt lat="49.41985" lon="0.2335">
        <ele>5.7</ele>
        <time>2022-05-31T09:16:53Z</time>
      </trkpt>
      <trkpt lat="49.41986" lon="0.2335">
        <ele>5.7</ele>
        <time>2022-05-31T09:16:54Z</time>
      </trkpt>
      <trkpt lat="49.41985" lon="0.2335">
        <ele>5.7</ele>
        <time>2022-05-31T09:16:55Z</time>
      </trkpt>
      <trkpt lat="49.41985" lon="0.2335">
        <ele>5.7</ele>
        <time>2022-05-31T09:16:56Z</time>
      </trkpt>
      <trkpt lat="49.41984" lon="0.2335">
        <ele>5.7</ele>
        <time>2022-05-31T09:16:57Z</time>
      </trkpt>
      <trkpt lat="49.41983" lon="0.2335">
        <ele>5.7</ele>
        <time>2022-05-31T09:16:58Z</time>
      </trkpt>
      <trkpt lat="49.41983" lon="0.2335">
        <ele>5.7</ele>
        <time>2022-05-31T09:16:59Z</time>
      </trkpt>
      <trkpt lat="49.41982" lon="0.2335">
        <ele>5.7</ele>
        <time>2022-05-31T09:17:00Z</time>
      </trkpt>
      <trkpt lat="49.41981" lon="0.23351">
        <ele>5.7</ele>
        <time>2022-05-31T09:17:01Z</time>
      </trkpt>
      <trkpt lat="49.4198" lon="0.23349">
        <ele>5.7</ele>
        <time>2022-05-31T09:17:03Z</time>
      </trkpt>
      <trkpt lat="49.4198" lon="0.23348">
        <ele>5.7</ele>
        <time>2022-05-31T09:17:04Z</time>
      </trkpt>
      <trkpt lat="49.41979" lon="0.23346">
        <ele>5.7</ele>
        <time>2022-05-31T09:17:05Z</time>
      </trkpt>
      <trkpt lat="49.41979" lon="0.23345">
        <ele>5.7</ele>
        <time>2022-05-31T09:17:06Z</time>
      </trkpt>
      <trkpt lat="49.41978" lon="0.23344">
        <ele>5.7</ele>
        <time>2022-05-31T09:17:08Z</time>
      </trkpt>
      <trkpt lat="49.41978" lon="0.23344">
        <ele>5.7</ele>
        <time>2022-05-31T09:17:09Z</time>
      </trkpt>
      <trkpt lat="49.41977" lon="0.23344">
        <ele>5.7</ele>
        <time>2022-05-31T09:17:10Z</time>
      </trkpt>
      <trkpt lat="49.41976" lon="0.23345">
        <ele>5.7</ele>
        <time>2022-05-31T09:17:11Z</time>
      </trkpt>
      <trkpt lat="49.41976" lon="0.23345">
        <ele>5.7</ele>
        <time>2022-05-31T09:17:12Z</time>
      </trkpt>
      <trkpt lat="49.41975" lon="0.23346">
        <ele>5.7</ele>
        <time>2022-05-31T09:17:14Z</time>
      </trkpt>
      <trkpt lat="49.41974" lon="0.23347">
        <ele>5.8</ele>
        <time>2022-05-31T09:17:15Z</time>
      </trkpt>
      <trkpt lat="49.41974" lon="0.23347">
        <ele>5.8</ele>
        <time>2022-05-31T09:17:16Z</time>
      </trkpt>
      <trkpt lat="49.41973" lon="0.23348">
        <ele>5.8</ele>
        <time>2022-05-31T09:17:17Z</time>
      </trkpt>
      <trkpt lat="49.41973" lon="0.23349">
        <ele>5.8</ele>
        <time>2022-05-31T09:17:18Z</time>
      </trkpt>
      <trkpt lat="49.41973" lon="0.2335">
        <ele>5.9</ele>
        <time>2022-05-31T09:17:19Z</time>
      </trkpt>
      <trkpt lat="49.41972" lon="0.23352">
        <ele>5.9</ele>
        <time>2022-05-31T09:17:21Z</time>
      </trkpt>
      <trkpt lat="49.41971" lon="0.23352">
        <ele>5.9</ele>
        <time>2022-05-31T09:17:22Z</time>
      </trkpt>
      <trkpt lat="49.41971" lon="0.23353">
        <ele>5.9</ele>
        <time>2022-05-31T09:17:23Z</time>
      </trkpt>
      <trkpt lat="49.41971" lon="0.23354">
        <ele>6</ele>
        <time>2022-05-31T09:17:24Z</time>
      </trkpt>
      <trkpt lat="49.41971" lon="0.23356">
        <ele>6</ele>
        <time>2022-05-31T09:17:25Z</time>
      </trkpt>
      <trkpt lat="49.41971" lon="0.23358">
        <ele>6.1</ele>
        <time>2022-05-31T09:17:27Z</time>
      </trkpt>
      <trkpt lat="49.4197" lon="0.2336">
        <ele>6.1</ele>
        <time>2022-05-31T09:17:28Z</time>
      </trkpt>
      <trkpt lat="49.41971" lon="0.23362">
        <ele>6.2</ele>
        <time>2022-05-31T09:17:29Z</time>
      </trkpt>
      <trkpt lat="49.41971" lon="0.23362">
        <ele>6.2</ele>
        <time>2022-05-31T09:17:30Z</time>
      </trkpt>
      <trkpt lat="49.41971" lon="0.23362">
        <ele>6.2</ele>
        <time>2022-05-31T09:17:32Z</time>
      </trkpt>
      <trkpt lat="49.41971" lon="0.23362">
        <ele>6.2</ele>
        <time>2022-05-31T09:17:33Z</time>
      </trkpt>
      <trkpt lat="49.41971" lon="0.23362">
        <ele>6.2</ele>
        <time>2022-05-31T09:17:34Z</time>
      </trkpt>
      <trkpt lat="49.41971" lon="0.23362">
        <ele>6.2</ele>
        <time>2022-05-31T09:17:35Z</time>
      </trkpt>
      <trkpt lat="49.4197" lon="0.23362">
        <ele>6.2</ele>
        <time>2022-05-31T09:17:37Z</time>
      </trkpt>
      <trkpt lat="49.4197" lon="0.23362">
        <ele>6.2</ele>
        <time>2022-05-31T09:17:38Z</time>
      </trkpt>
      <trkpt lat="49.4197" lon="0.23362">
        <ele>6.2</ele>
        <time>2022-05-31T09:17:40Z</time>
      </trkpt>
      <trkpt lat="49.4197" lon="0.23362">
        <ele>6.2</ele>
        <time>2022-05-31T09:17:41Z</time>
      </trkpt>
      <trkpt lat="49.4197" lon="0.23362">
        <ele>6.2</ele>
        <time>2022-05-31T09:17:42Z</time>
      </trkpt>
      <trkpt lat="49.4197" lon="0.23362">
        <ele>6.2</ele>
        <time>2022-05-31T09:17:43Z</time>
      </trkpt>
      <trkpt lat="49.4197" lon="0.23363">
        <ele>6.2</ele>
        <time>2022-05-31T09:17:44Z</time>
      </trkpt>
      <trkpt lat="49.4197" lon="0.23363">
        <ele>6.2</ele>
        <time>2022-05-31T09:17:45Z</time>
      </trkpt>
      <trkpt lat="49.4197" lon="0.23363">
        <ele>6.2</ele>
        <time>2022-05-31T09:17:46Z</time>
      </trkpt>
      <trkpt lat="49.4197" lon="0.23363">
        <ele>6.2</ele>
        <time>2022-05-31T09:17:47Z</time>
      </trkpt>
      <trkpt lat="49.4197" lon="0.23363">
        <ele>6.2</ele>
        <time>2022-05-31T09:17:48Z</time>
      </trkpt>
      <trkpt lat="49.4197" lon="0.23363">
        <ele>6.2</ele>
        <time>2022-05-31T09:17:49Z</time>
      </trkpt>
      <trkpt lat="49.4197" lon="0.23363">
        <ele>6.2</ele>
        <time>2022-05-31T09:17:50Z</time>
      </trkpt>
      <trkpt lat="49.4197" lon="0.23363">
        <ele>6.2</ele>
        <time>2022-05-31T09:17:51Z</time>
      </trkpt>
      <trkpt lat="49.4197" lon="0.23363">
        <ele>6.2</ele>
        <time>2022-05-31T09:17:52Z</time>
      </trkpt>
      <trkpt lat="49.4197" lon="0.23363">
        <ele>6.2</ele>
        <time>2022-05-31T09:17:53Z</time>
      </trkpt>
      <trkpt lat="49.4197" lon="0.23363">
        <ele>6.2</ele>
        <time>2022-05-31T09:17:54Z</time>
      </trkpt>
      <trkpt lat="49.4197" lon="0.23363">
        <ele>6.2</ele>
        <time>2022-05-31T09:17:55Z</time>
      </trkpt>
      <trkpt lat="49.4197" lon="0.23363">
        <ele>6.2</ele>
        <time>2022-05-31T09:17:56Z</time>
      </trkpt>
      <trkpt lat="49.4197" lon="0.23364">
        <ele>6.2</ele>
        <time>2022-05-31T09:17:57Z</time>
      </trkpt>
      <trkpt lat="49.4197" lon="0.23364">
        <ele>6.2</ele>
        <time>2022-05-31T09:17:58Z</time>
      </trkpt>
      <trkpt lat="49.4197" lon="0.23364">
        <ele>6.2</ele>
        <time>2022-05-31T09:17:59Z</time>
      </trkpt>
      <trkpt lat="49.4197" lon="0.23364">
        <ele>6.2</ele>
        <time>2022-05-31T09:18:00Z</time>
      </trkpt>
      <trkpt lat="49.41969" lon="0.23364">
        <ele>6.2</ele>
        <time>2022-05-31T09:18:01Z</time>
      </trkpt>
      <trkpt lat="49.41969" lon="0.23364">
        <ele>6.2</ele>
        <time>2022-05-31T09:18:02Z</time>
      </trkpt>
      <trkpt lat="49.41969" lon="0.23364">
        <ele>6.2</ele>
        <time>2022-05-31T09:18:03Z</time>
      </trkpt>
      <trkpt lat="49.41969" lon="0.23364">
        <ele>6.2</ele>
        <time>2022-05-31T09:18:05Z</time>
      </trkpt>
      <trkpt lat="49.41969" lon="0.23364">
        <ele>6.3</ele>
        <time>2022-05-31T09:18:06Z</time>
      </trkpt>
      <trkpt lat="49.41969" lon="0.23364">
        <ele>6.3</ele>
        <time>2022-05-31T09:18:07Z</time>
      </trkpt>
      <trkpt lat="49.41969" lon="0.23364">
        <ele>6.3</ele>
        <time>2022-05-31T09:18:08Z</time>
      </trkpt>
      <trkpt lat="49.41969" lon="0.23364">
        <ele>6.3</ele>
        <time>2022-05-31T09:18:09Z</time>
      </trkpt>
      <trkpt lat="49.41969" lon="0.23364">
        <ele>6.3</ele>
        <time>2022-05-31T09:18:10Z</time>
      </trkpt>
      <trkpt lat="49.41969" lon="0.23365">
        <ele>6.3</ele>
        <time>2022-05-31T09:18:11Z</time>
      </trkpt>
      <trkpt lat="49.41969" lon="0.23365">
        <ele>6.3</ele>
        <time>2022-05-31T09:18:12Z</time>
      </trkpt>
      <trkpt lat="49.41969" lon="0.23365">
        <ele>6.3</ele>
        <time>2022-05-31T09:18:13Z</time>
      </trkpt>
      <trkpt lat="49.41969" lon="0.23365">
        <ele>6.3</ele>
        <time>2022-05-31T09:18:14Z</time>
      </trkpt>
      <trkpt lat="49.41969" lon="0.23365">
        <ele>6.3</ele>
        <time>2022-05-31T09:18:15Z</time>
      </trkpt>
      <trkpt lat="49.41969" lon="0.23365">
        <ele>6.3</ele>
        <time>2022-05-31T09:18:16Z</time>
      </trkpt>
      <trkpt lat="49.41969" lon="0.23365">
        <ele>6.3</ele>
        <time>2022-05-31T09:18:17Z</time>
      </trkpt>
      <trkpt lat="49.41969" lon="0.23365">
        <ele>6.3</ele>
        <time>2022-05-31T09:18:18Z</time>
      </trkpt>
      <trkpt lat="49.41969" lon="0.23365">
        <ele>6.3</ele>
        <time>2022-05-31T09:18:19Z</time>
      </trkpt>
      <trkpt lat="49.41969" lon="0.23365">
        <ele>6.3</ele>
        <time>2022-05-31T09:18:20Z</time>
      </trkpt>
      <trkpt lat="49.41969" lon="0.23365">
        <ele>6.3</ele>
        <time>2022-05-31T09:18:21Z</time>
      </trkpt>
      <trkpt lat="49.41969" lon="0.23365">
        <ele>6.3</ele>
        <time>2022-05-31T09:18:22Z</time>
      </trkpt>
      <trkpt lat="49.41969" lon="0.23365">
        <ele>6.3</ele>
        <time>2022-05-31T09:18:23Z</time>
      </trkpt>
      <trkpt lat="49.41969" lon="0.23366">
        <ele>6.3</ele>
        <time>2022-05-31T09:18:24Z</time>
      </trkpt>
      <trkpt lat="49.41968" lon="0.23366">
        <ele>6.3</ele>
        <time>2022-05-31T09:18:25Z</time>
      </trkpt>
      <trkpt lat="49.41968" lon="0.23366">
        <ele>6.3</ele>
        <time>2022-05-31T09:18:26Z</time>
      </trkpt>
      <trkpt lat="49.41968" lon="0.23366">
        <ele>6.3</ele>
        <time>2022-05-31T09:18:27Z</time>
      </trkpt>
      <trkpt lat="49.41968" lon="0.23366">
        <ele>6.3</ele>
        <time>2022-05-31T09:18:28Z</time>
      </trkpt>
      <trkpt lat="49.41968" lon="0.23366">
        <ele>6.3</ele>
        <time>2022-05-31T09:18:29Z</time>
      </trkpt>
      <trkpt lat="49.41968" lon="0.23366">
        <ele>6.3</ele>
        <time>2022-05-31T09:18:30Z</time>
      </trkpt>
      <trkpt lat="49.41968" lon="0.23366">
        <ele>6.3</ele>
        <time>2022-05-31T09:18:31Z</time>
      </trkpt>
      <trkpt lat="49.41968" lon="0.23366">
        <ele>6.3</ele>
        <time>2022-05-31T09:18:32Z</time>
      </trkpt>
      <trkpt lat="49.41968" lon="0.23366">
        <ele>6.3</ele>
        <time>2022-05-31T09:18:33Z</time>
      </trkpt>
      <trkpt lat="49.41968" lon="0.23366">
        <ele>6.3</ele>
        <time>2022-05-31T09:18:34Z</time>
      </trkpt>
      <trkpt lat="49.41968" lon="0.23366">
        <ele>6.3</ele>
        <time>2022-05-31T09:18:35Z</time>
      </trkpt>
      <trkpt lat="49.41968" lon="0.23366">
        <ele>6.3</ele>
        <time>2022-05-31T09:18:36Z</time>
      </trkpt>
      <trkpt lat="49.41968" lon="0.23367">
        <ele>6.3</ele>
        <time>2022-05-31T09:18:37Z</time>
      </trkpt>
      <trkpt lat="49.41968" lon="0.23367">
        <ele>6.3</ele>
        <time>2022-05-31T09:18:38Z</time>
      </trkpt>
      <trkpt lat="49.41968" lon="0.23367">
        <ele>6.4</ele>
        <time>2022-05-31T09:18:39Z</time>
      </trkpt>
      <trkpt lat="49.41968" lon="0.23367">
        <ele>6.4</ele>
        <time>2022-05-31T09:18:40Z</time>
      </trkpt>
      <trkpt lat="49.41968" lon="0.23367">
        <ele>6.4</ele>
        <time>2022-05-31T09:18:41Z</time>
      </trkpt>
      <trkpt lat="49.41968" lon="0.23367">
        <ele>6.4</ele>
        <time>2022-05-31T09:18:42Z</time>
      </trkpt>
      <trkpt lat="49.41968" lon="0.23367">
        <ele>6.4</ele>
        <time>2022-05-31T09:18:43Z</time>
      </trkpt>
      <trkpt lat="49.41968" lon="0.23367">
        <ele>6.4</ele>
        <time>2022-05-31T09:18:44Z</time>
      </trkpt>
      <trkpt lat="49.41968" lon="0.23367">
        <ele>6.4</ele>
        <time>2022-05-31T09:18:45Z</time>
      </trkpt>
      <trkpt lat="49.41968" lon="0.23367">
        <ele>6.4</ele>
        <time>2022-05-31T09:18:46Z</time>
      </trkpt>
      <trkpt lat="49.41968" lon="0.23367">
        <ele>6.4</ele>
        <time>2022-05-31T09:18:47Z</time>
      </trkpt>
      <trkpt lat="49.41967" lon="0.23367">
        <ele>6.4</ele>
        <time>2022-05-31T09:18:48Z</time>
      </trkpt>
      <trkpt lat="49.41967" lon="0.23367">
        <ele>6.4</ele>
        <time>2022-05-31T09:18:49Z</time>
      </trkpt>
      <trkpt lat="49.41967" lon="0.23368">
        <ele>6.4</ele>
        <time>2022-05-31T09:18:50Z</time>
      </trkpt>
      <trkpt lat="49.41967" lon="0.23368">
        <ele>6.4</ele>
        <time>2022-05-31T09:18:51Z</time>
      </trkpt>
      <trkpt lat="49.41967" lon="0.23368">
        <ele>6.4</ele>
        <time>2022-05-31T09:18:52Z</time>
      </trkpt>
      <trkpt lat="49.41967" lon="0.23368">
        <ele>6.4</ele>
        <time>2022-05-31T09:18:53Z</time>
      </trkpt>
      <trkpt lat="49.41967" lon="0.23368">
        <ele>6.4</ele>
        <time>2022-05-31T09:18:54Z</time>
      </trkpt>
      <trkpt lat="49.41967" lon="0.23368">
        <ele>6.4</ele>
        <time>2022-05-31T09:18:55Z</time>
      </trkpt>
      <trkpt lat="49.41967" lon="0.23368">
        <ele>6.4</ele>
        <time>2022-05-31T09:18:56Z</time>
      </trkpt>
      <trkpt lat="49.41967" lon="0.23368">
        <ele>6.4</ele>
        <time>2022-05-31T09:18:57Z</time>
      </trkpt>
      <trkpt lat="49.41967" lon="0.23368">
        <ele>6.4</ele>
        <time>2022-05-31T09:18:58Z</time>
      </trkpt>
      <trkpt lat="49.41967" lon="0.23368">
        <ele>6.4</ele>
        <time>2022-05-31T09:18:59Z</time>
      </trkpt>
      <trkpt lat="49.41967" lon="0.23368">
        <ele>6.4</ele>
        <time>2022-05-31T09:19:00Z</time>
      </trkpt>
      <trkpt lat="49.41967" lon="0.23368">
        <ele>6.4</ele>
        <time>2022-05-31T09:19:01Z</time>
      </trkpt>
      <trkpt lat="49.41967" lon="0.23368">
        <ele>6.4</ele>
        <time>2022-05-31T09:19:02Z</time>
      </trkpt>
      <trkpt lat="49.41967" lon="0.23369">
        <ele>6.4</ele>
        <time>2022-05-31T09:19:03Z</time>
      </trkpt>
      <trkpt lat="49.41967" lon="0.23369">
        <ele>6.4</ele>
        <time>2022-05-31T09:19:04Z</time>
      </trkpt>
      <trkpt lat="49.41967" lon="0.23369">
        <ele>6.4</ele>
        <time>2022-05-31T09:19:05Z</time>
      </trkpt>
      <trkpt lat="49.41967" lon="0.23369">
        <ele>6.4</ele>
        <time>2022-05-31T09:19:06Z</time>
      </trkpt>
      <trkpt lat="49.41967" lon="0.23369">
        <ele>6.4</ele>
        <time>2022-05-31T09:19:07Z</time>
      </trkpt>
      <trkpt lat="49.41967" lon="0.23369">
        <ele>6.4</ele>
        <time>2022-05-31T09:19:08Z</time>
      </trkpt>
      <trkpt lat="49.41967" lon="0.23369">
        <ele>6.4</ele>
        <time>2022-05-31T09:19:09Z</time>
      </trkpt>
      <trkpt lat="49.41967" lon="0.23369">
        <ele>6.4</ele>
        <time>2022-05-31T09:19:10Z</time>
      </trkpt>
      <trkpt lat="49.41966" lon="0.23369">
        <ele>6.4</ele>
        <time>2022-05-31T09:19:11Z</time>
      </trkpt>
      <trkpt lat="49.41965" lon="0.23371">
        <ele>6.5</ele>
        <time>2022-05-31T09:19:12Z</time>
      </trkpt>
      <trkpt lat="49.41964" lon="0.23371">
        <ele>6.6</ele>
        <time>2022-05-31T09:19:13Z</time>
      </trkpt>
      <trkpt lat="49.41963" lon="0.23372">
        <ele>6.6</ele>
        <time>2022-05-31T09:19:14Z</time>
      </trkpt>
      <trkpt lat="49.41961" lon="0.23373">
        <ele>6.7</ele>
        <time>2022-05-31T09:19:15Z</time>
      </trkpt>
      <trkpt lat="49.41961" lon="0.23374">
        <ele>6.7</ele>
        <time>2022-05-31T09:19:16Z</time>
      </trkpt>
      <trkpt lat="49.4196" lon="0.23375">
        <ele>6.7</ele>
        <time>2022-05-31T09:19:17Z</time>
      </trkpt>
      <trkpt lat="49.41959" lon="0.23376">
        <ele>6.8</ele>
        <time>2022-05-31T09:19:18Z</time>
      </trkpt>
      <trkpt lat="49.41959" lon="0.23378">
        <ele>6.8</ele>
        <time>2022-05-31T09:19:19Z</time>
      </trkpt>
      <trkpt lat="49.41958" lon="0.23379">
        <ele>6.8</ele>
        <time>2022-05-31T09:19:20Z</time>
      </trkpt>
      <trkpt lat="49.41958" lon="0.2338">
        <ele>6.9</ele>
        <time>2022-05-31T09:19:22Z</time>
      </trkpt>
      <trkpt lat="49.41957" lon="0.23381">
        <ele>6.9</ele>
        <time>2022-05-31T09:19:23Z</time>
      </trkpt>
      <trkpt lat="49.41958" lon="0.23381">
        <ele>6.9</ele>
        <time>2022-05-31T09:19:25Z</time>
      </trkpt>
      <trkpt lat="49.41958" lon="0.2338">
        <ele>6.9</ele>
        <time>2022-05-31T09:19:26Z</time>
      </trkpt>
      <trkpt lat="49.41959" lon="0.2338">
        <ele>6.9</ele>
        <time>2022-05-31T09:19:27Z</time>
      </trkpt>
      <trkpt lat="49.41959" lon="0.2338">
        <ele>6.9</ele>
        <time>2022-05-31T09:19:28Z</time>
      </trkpt>
      <trkpt lat="49.41959" lon="0.2338">
        <ele>7</ele>
        <time>2022-05-31T09:19:29Z</time>
      </trkpt>
      <trkpt lat="49.41959" lon="0.23381">
        <ele>7</ele>
        <time>2022-05-31T09:19:30Z</time>
      </trkpt>
      <trkpt lat="49.41959" lon="0.23381">
        <ele>7</ele>
        <time>2022-05-31T09:19:31Z</time>
      </trkpt>
      <trkpt lat="49.41959" lon="0.2338">
        <ele>7</ele>
        <time>2022-05-31T09:19:32Z</time>
      </trkpt>
      <trkpt lat="49.41959" lon="0.2338">
        <ele>7</ele>
        <time>2022-05-31T09:19:33Z</time>
      </trkpt>
      <trkpt lat="49.4196" lon="0.2338">
        <ele>7</ele>
        <time>2022-05-31T09:19:34Z</time>
      </trkpt>
      <trkpt lat="49.4196" lon="0.2338">
        <ele>7</ele>
        <time>2022-05-31T09:19:35Z</time>
      </trkpt>
      <trkpt lat="49.41961" lon="0.23381">
        <ele>7</ele>
        <time>2022-05-31T09:19:36Z</time>
      </trkpt>
      <trkpt lat="49.41961" lon="0.23382">
        <ele>7.1</ele>
        <time>2022-05-31T09:19:37Z</time>
      </trkpt>
      <trkpt lat="49.4196" lon="0.23382">
        <ele>7.1</ele>
        <time>2022-05-31T09:19:38Z</time>
      </trkpt>
      <trkpt lat="49.4196" lon="0.23384">
        <ele>7.1</ele>
        <time>2022-05-31T09:19:40Z</time>
      </trkpt>
      <trkpt lat="49.4196" lon="0.23386">
        <ele>7.2</ele>
        <time>2022-05-31T09:19:41Z</time>
      </trkpt>
      <trkpt lat="49.41959" lon="0.23389">
        <ele>7.2</ele>
        <time>2022-05-31T09:19:43Z</time>
      </trkpt>
      <trkpt lat="49.41959" lon="0.2339">
        <ele>7.2</ele>
        <time>2022-05-31T09:19:44Z</time>
      </trkpt>
      <trkpt lat="49.41959" lon="0.23392">
        <ele>7.2</ele>
        <time>2022-05-31T09:19:45Z</time>
      </trkpt>
      <trkpt lat="49.41959" lon="0.23395">
        <ele>7.3</ele>
        <time>2022-05-31T09:19:46Z</time>
      </trkpt>
      <trkpt lat="49.4196" lon="0.23398">
        <ele>7.3</ele>
        <time>2022-05-31T09:19:48Z</time>
      </trkpt>
      <trkpt lat="49.4196" lon="0.234">
        <ele>7.4</ele>
        <time>2022-05-31T09:19:49Z</time>
      </trkpt>
      <trkpt lat="49.41962" lon="0.23404">
        <ele>7.5</ele>
        <time>2022-05-31T09:19:50Z</time>
      </trkpt>
      <trkpt lat="49.41962" lon="0.23409">
        <ele>7.5</ele>
        <time>2022-05-31T09:19:51Z</time>
      </trkpt>
      <trkpt lat="49.41962" lon="0.2341">
        <ele>7.5</ele>
        <time>2022-05-31T09:19:52Z</time>
      </trkpt>
      <trkpt lat="49.41962" lon="0.23412">
        <ele>7.5</ele>
        <time>2022-05-31T09:19:53Z</time>
      </trkpt>
      <trkpt lat="49.41962" lon="0.23414">
        <ele>7.5</ele>
        <time>2022-05-31T09:19:54Z</time>
      </trkpt>
      <trkpt lat="49.41963" lon="0.23415">
        <ele>7.5</ele>
        <time>2022-05-31T09:19:55Z</time>
      </trkpt>
      <trkpt lat="49.41963" lon="0.23416">
        <ele>7.5</ele>
        <time>2022-05-31T09:19:56Z</time>
      </trkpt>
      <trkpt lat="49.41963" lon="0.23417">
        <ele>7.5</ele>
        <time>2022-05-31T09:19:57Z</time>
      </trkpt>
      <trkpt lat="49.41964" lon="0.23418">
        <ele>7.5</ele>
        <time>2022-05-31T09:19:58Z</time>
      </trkpt>
      <trkpt lat="49.41964" lon="0.23419">
        <ele>7.5</ele>
        <time>2022-05-31T09:20:00Z</time>
      </trkpt>
      <trkpt lat="49.41965" lon="0.2342">
        <ele>7.5</ele>
        <time>2022-05-31T09:20:01Z</time>
      </trkpt>
      <trkpt lat="49.41966" lon="0.23419">
        <ele>7.6</ele>
        <time>2022-05-31T09:20:02Z</time>
      </trkpt>
      <trkpt lat="49.41966" lon="0.23419">
        <ele>7.6</ele>
        <time>2022-05-31T09:20:03Z</time>
      </trkpt>
      <trkpt lat="49.41966" lon="0.23419">
        <ele>7.6</ele>
        <time>2022-05-31T09:20:04Z</time>
      </trkpt>
      <trkpt lat="49.41966" lon="0.23418">
        <ele>7.6</ele>
        <time>2022-05-31T09:20:05Z</time>
      </trkpt>
      <trkpt lat="49.41966" lon="0.23418">
        <ele>7.6</ele>
        <time>2022-05-31T09:20:06Z</time>
      </trkpt>
      <trkpt lat="49.41966" lon="0.23418">
        <ele>7.6</ele>
        <time>2022-05-31T09:20:07Z</time>
      </trkpt>
      <trkpt lat="49.41965" lon="0.23418">
        <ele>7.6</ele>
        <time>2022-05-31T09:20:08Z</time>
      </trkpt>
      <trkpt lat="49.41965" lon="0.23418">
        <ele>7.6</ele>
        <time>2022-05-31T09:20:09Z</time>
      </trkpt>
      <trkpt lat="49.41965" lon="0.23417">
        <ele>7.6</ele>
        <time>2022-05-31T09:20:10Z</time>
      </trkpt>
      <trkpt lat="49.41965" lon="0.23417">
        <ele>7.6</ele>
        <time>2022-05-31T09:20:11Z</time>
      </trkpt>
      <trkpt lat="49.41965" lon="0.23417">
        <ele>7.6</ele>
        <time>2022-05-31T09:20:12Z</time>
      </trkpt>
      <trkpt lat="49.41965" lon="0.23417">
        <ele>7.6</ele>
        <time>2022-05-31T09:20:13Z</time>
      </trkpt>
      <trkpt lat="49.41965" lon="0.23417">
        <ele>7.6</ele>
        <time>2022-05-31T09:20:14Z</time>
      </trkpt>
      <trkpt lat="49.41965" lon="0.23417">
        <ele>7.6</ele>
        <time>2022-05-31T09:20:15Z</time>
      </trkpt>
      <trkpt lat="49.41965" lon="0.23417">
        <ele>7.6</ele>
        <time>2022-05-31T09:20:16Z</time>
      </trkpt>
      <trkpt lat="49.41965" lon="0.23418">
        <ele>7.6</ele>
        <time>2022-05-31T09:20:17Z</time>
      </trkpt>
      <trkpt lat="49.41965" lon="0.23418">
        <ele>7.6</ele>
        <time>2022-05-31T09:20:18Z</time>
      </trkpt>
      <trkpt lat="49.41965" lon="0.23418">
        <ele>7.6</ele>
        <time>2022-05-31T09:20:19Z</time>
      </trkpt>
      <trkpt lat="49.41964" lon="0.23419">
        <ele>7.6</ele>
        <time>2022-05-31T09:20:21Z</time>
      </trkpt>
      <trkpt lat="49.41964" lon="0.23418">
        <ele>7.6</ele>
        <time>2022-05-31T09:20:22Z</time>
      </trkpt>
      <trkpt lat="49.41964" lon="0.23417">
        <ele>7.6</ele>
        <time>2022-05-31T09:20:23Z</time>
      </trkpt>
      <trkpt lat="49.41966" lon="0.23415">
        <ele>7.6</ele>
        <time>2022-05-31T09:20:25Z</time>
      </trkpt>
      <trkpt lat="49.41966" lon="0.23415">
        <ele>7.6</ele>
        <time>2022-05-31T09:20:26Z</time>
      </trkpt>
      <trkpt lat="49.41966" lon="0.23415">
        <ele>7.6</ele>
        <time>2022-05-31T09:20:27Z</time>
      </trkpt>
      <trkpt lat="49.41967" lon="0.23415">
        <ele>7.6</ele>
        <time>2022-05-31T09:20:28Z</time>
      </trkpt>
      <trkpt lat="49.41967" lon="0.23415">
        <ele>7.6</ele>
        <time>2022-05-31T09:20:29Z</time>
      </trkpt>
      <trkpt lat="49.41967" lon="0.23416">
        <ele>7.6</ele>
        <time>2022-05-31T09:20:30Z</time>
      </trkpt>
      <trkpt lat="49.41967" lon="0.23416">
        <ele>7.6</ele>
        <time>2022-05-31T09:20:31Z</time>
      </trkpt>
      <trkpt lat="49.41966" lon="0.23416">
        <ele>7.6</ele>
        <time>2022-05-31T09:20:32Z</time>
      </trkpt>
      <trkpt lat="49.41966" lon="0.23415">
        <ele>7.6</ele>
        <time>2022-05-31T09:20:34Z</time>
      </trkpt>
      <trkpt lat="49.41967" lon="0.23415">
        <ele>7.6</ele>
        <time>2022-05-31T09:20:35Z</time>
      </trkpt>
      <trkpt lat="49.41967" lon="0.23415">
        <ele>7.6</ele>
        <time>2022-05-31T09:20:36Z</time>
      </trkpt>
      <trkpt lat="49.41967" lon="0.23414">
        <ele>7.6</ele>
        <time>2022-05-31T09:20:38Z</time>
      </trkpt>
      <trkpt lat="49.41966" lon="0.23413">
        <ele>7.6</ele>
        <time>2022-05-31T09:20:39Z</time>
      </trkpt>
      <trkpt lat="49.41965" lon="0.23411">
        <ele>7.6</ele>
        <time>2022-05-31T09:20:41Z</time>
      </trkpt>
      <trkpt lat="49.41965" lon="0.23411">
        <ele>7.6</ele>
        <time>2022-05-31T09:20:42Z</time>
      </trkpt>
      <trkpt lat="49.41964" lon="0.2341">
        <ele>7.6</ele>
        <time>2022-05-31T09:20:43Z</time>
      </trkpt>
      <trkpt lat="49.41964" lon="0.23409">
        <ele>7.6</ele>
        <time>2022-05-31T09:20:44Z</time>
      </trkpt>
      <trkpt lat="49.41964" lon="0.23408">
        <ele>7.6</ele>
        <time>2022-05-31T09:20:45Z</time>
      </trkpt>
      <trkpt lat="49.41963" lon="0.23409">
        <ele>7.6</ele>
        <time>2022-05-31T09:20:47Z</time>
      </trkpt>
      <trkpt lat="49.41962" lon="0.23408">
        <ele>7.6</ele>
        <time>2022-05-31T09:20:48Z</time>
      </trkpt>
      <trkpt lat="49.41962" lon="0.23409">
        <ele>7.6</ele>
        <time>2022-05-31T09:20:49Z</time>
      </trkpt>
      <trkpt lat="49.41962" lon="0.23408">
        <ele>7.6</ele>
        <time>2022-05-31T09:20:51Z</time>
      </trkpt>
      <trkpt lat="49.41962" lon="0.23407">
        <ele>7.6</ele>
        <time>2022-05-31T09:20:52Z</time>
      </trkpt>
      <trkpt lat="49.41962" lon="0.23407">
        <ele>7.6</ele>
        <time>2022-05-31T09:20:53Z</time>
      </trkpt>
      <trkpt lat="49.41962" lon="0.23407">
        <ele>7.6</ele>
        <time>2022-05-31T09:20:54Z</time>
      </trkpt>
      <trkpt lat="49.41962" lon="0.23408">
        <ele>7.6</ele>
        <time>2022-05-31T09:20:56Z</time>
      </trkpt>
      <trkpt lat="49.41962" lon="0.23409">
        <ele>7.6</ele>
        <time>2022-05-31T09:20:58Z</time>
      </trkpt>
      <trkpt lat="49.41962" lon="0.23409">
        <ele>7.6</ele>
        <time>2022-05-31T09:20:59Z</time>
      </trkpt>
      <trkpt lat="49.41962" lon="0.23409">
        <ele>7.6</ele>
        <time>2022-05-31T09:21:00Z</time>
      </trkpt>
      <trkpt lat="49.41962" lon="0.23409">
        <ele>7.6</ele>
        <time>2022-05-31T09:21:02Z</time>
      </trkpt>
      <trkpt lat="49.41962" lon="0.23409">
        <ele>7.6</ele>
        <time>2022-05-31T09:21:03Z</time>
      </trkpt>
      <trkpt lat="49.41961" lon="0.2341">
        <ele>7.6</ele>
        <time>2022-05-31T09:21:04Z</time>
      </trkpt>
      <trkpt lat="49.41961" lon="0.2341">
        <ele>7.6</ele>
        <time>2022-05-31T09:21:05Z</time>
      </trkpt>
      <trkpt lat="49.4196" lon="0.23411">
        <ele>7.6</ele>
        <time>2022-05-31T09:21:07Z</time>
      </trkpt>
      <trkpt lat="49.4196" lon="0.23412">
        <ele>7.6</ele>
        <time>2022-05-31T09:21:08Z</time>
      </trkpt>
      <trkpt lat="49.4196" lon="0.23413">
        <ele>7.6</ele>
        <time>2022-05-31T09:21:09Z</time>
      </trkpt>
      <trkpt lat="49.4196" lon="0.23413">
        <ele>7.6</ele>
        <time>2022-05-31T09:21:11Z</time>
      </trkpt>
      <trkpt lat="49.4196" lon="0.23414">
        <ele>7.6</ele>
        <time>2022-05-31T09:21:12Z</time>
      </trkpt>
      <trkpt lat="49.41959" lon="0.23415">
        <ele>7.7</ele>
        <time>2022-05-31T09:21:13Z</time>
      </trkpt>
      <trkpt lat="49.41959" lon="0.23416">
        <ele>7.7</ele>
        <time>2022-05-31T09:21:14Z</time>
      </trkpt>
      <trkpt lat="49.41959" lon="0.23416">
        <ele>7.7</ele>
        <time>2022-05-31T09:21:15Z</time>
      </trkpt>
      <trkpt lat="49.41959" lon="0.23417">
        <ele>7.7</ele>
        <time>2022-05-31T09:21:16Z</time>
      </trkpt>
      <trkpt lat="49.41958" lon="0.23419">
        <ele>7.7</ele>
        <time>2022-05-31T09:21:18Z</time>
      </trkpt>
      <trkpt lat="49.41957" lon="0.23421">
        <ele>7.7</ele>
        <time>2022-05-31T09:21:19Z</time>
      </trkpt>
      <trkpt lat="49.41957" lon="0.23421">
        <ele>7.7</ele>
        <time>2022-05-31T09:21:21Z</time>
      </trkpt>
      <trkpt lat="49.41957" lon="0.23421">
        <ele>7.7</ele>
        <time>2022-05-31T09:21:22Z</time>
      </trkpt>
      <trkpt lat="49.41957" lon="0.23421">
        <ele>7.7</ele>
        <time>2022-05-31T09:21:23Z</time>
      </trkpt>
      <trkpt lat="49.41957" lon="0.23422">
        <ele>7.7</ele>
        <time>2022-05-31T09:21:24Z</time>
      </trkpt>
      <trkpt lat="49.41957" lon="0.23422">
        <ele>7.7</ele>
        <time>2022-05-31T09:21:26Z</time>
      </trkpt>
      <trkpt lat="49.41957" lon="0.23422">
        <ele>7.7</ele>
        <time>2022-05-31T09:21:27Z</time>
      </trkpt>
      <trkpt lat="49.41957" lon="0.23422">
        <ele>7.7</ele>
        <time>2022-05-31T09:21:29Z</time>
      </trkpt>
      <trkpt lat="49.41957" lon="0.23423">
        <ele>7.7</ele>
        <time>2022-05-31T09:21:30Z</time>
      </trkpt>
      <trkpt lat="49.41957" lon="0.23423">
        <ele>7.7</ele>
        <time>2022-05-31T09:21:31Z</time>
      </trkpt>
      <trkpt lat="49.41957" lon="0.23423">
        <ele>7.7</ele>
        <time>2022-05-31T09:21:32Z</time>
      </trkpt>
      <trkpt lat="49.41957" lon="0.23423">
        <ele>7.7</ele>
        <time>2022-05-31T09:21:33Z</time>
      </trkpt>
      <trkpt lat="49.41957" lon="0.23423">
        <ele>7.7</ele>
        <time>2022-05-31T09:21:34Z</time>
      </trkpt>
      <trkpt lat="49.41957" lon="0.23424">
        <ele>7.7</ele>
        <time>2022-05-31T09:21:36Z</time>
      </trkpt>
      <trkpt lat="49.41957" lon="0.23424">
        <ele>7.7</ele>
        <time>2022-05-31T09:21:37Z</time>
      </trkpt>
      <trkpt lat="49.41957" lon="0.23424">
        <ele>7.7</ele>
        <time>2022-05-31T09:21:38Z</time>
      </trkpt>
      <trkpt lat="49.41957" lon="0.23424">
        <ele>7.7</ele>
        <time>2022-05-31T09:21:39Z</time>
      </trkpt>
      <trkpt lat="49.41957" lon="0.23425">
        <ele>7.7</ele>
        <time>2022-05-31T09:21:40Z</time>
      </trkpt>
      <trkpt lat="49.41957" lon="0.23425">
        <ele>7.7</ele>
        <time>2022-05-31T09:21:41Z</time>
      </trkpt>
      <trkpt lat="49.41957" lon="0.23425">
        <ele>7.7</ele>
        <time>2022-05-31T09:21:42Z</time>
      </trkpt>
      <trkpt lat="49.41957" lon="0.23425">
        <ele>7.7</ele>
        <time>2022-05-31T09:21:43Z</time>
      </trkpt>
      <trkpt lat="49.41957" lon="0.23426">
        <ele>7.7</ele>
        <time>2022-05-31T09:21:44Z</time>
      </trkpt>
      <trkpt lat="49.41956" lon="0.23426">
        <ele>7.7</ele>
        <time>2022-05-31T09:21:45Z</time>
      </trkpt>
      <trkpt lat="49.41956" lon="0.23426">
        <ele>7.7</ele>
        <time>2022-05-31T09:21:46Z</time>
      </trkpt>
      <trkpt lat="49.41956" lon="0.23426">
        <ele>7.7</ele>
        <time>2022-05-31T09:21:47Z</time>
      </trkpt>
      <trkpt lat="49.41956" lon="0.23427">
        <ele>7.7</ele>
        <time>2022-05-31T09:21:48Z</time>
      </trkpt>
      <trkpt lat="49.41956" lon="0.23427">
        <ele>7.7</ele>
        <time>2022-05-31T09:21:49Z</time>
      </trkpt>
      <trkpt lat="49.41956" lon="0.23427">
        <ele>7.7</ele>
        <time>2022-05-31T09:21:50Z</time>
      </trkpt>
      <trkpt lat="49.41956" lon="0.23427">
        <ele>7.7</ele>
        <time>2022-05-31T09:21:51Z</time>
      </trkpt>
      <trkpt lat="49.41956" lon="0.23428">
        <ele>7.7</ele>
        <time>2022-05-31T09:21:52Z</time>
      </trkpt>
      <trkpt lat="49.41956" lon="0.23428">
        <ele>7.7</ele>
        <time>2022-05-31T09:21:54Z</time>
      </trkpt>
      <trkpt lat="49.41956" lon="0.23428">
        <ele>7.7</ele>
        <time>2022-05-31T09:21:55Z</time>
      </trkpt>
      <trkpt lat="49.41956" lon="0.23428">
        <ele>7.7</ele>
        <time>2022-05-31T09:21:56Z</time>
      </trkpt>
      <trkpt lat="49.41956" lon="0.23428">
        <ele>7.7</ele>
        <time>2022-05-31T09:21:57Z</time>
      </trkpt>
      <trkpt lat="49.41956" lon="0.23429">
        <ele>7.7</ele>
        <time>2022-05-31T09:21:58Z</time>
      </trkpt>
      <trkpt lat="49.41956" lon="0.23429">
        <ele>7.7</ele>
        <time>2022-05-31T09:21:59Z</time>
      </trkpt>
      <trkpt lat="49.41956" lon="0.23429">
        <ele>7.7</ele>
        <time>2022-05-31T09:22:00Z</time>
      </trkpt>
      <trkpt lat="49.41956" lon="0.23429">
        <ele>7.7</ele>
        <time>2022-05-31T09:22:01Z</time>
      </trkpt>
      <trkpt lat="49.41956" lon="0.2343">
        <ele>7.7</ele>
        <time>2022-05-31T09:22:02Z</time>
      </trkpt>
      <trkpt lat="49.41956" lon="0.23432">
        <ele>7.7</ele>
        <time>2022-05-31T09:22:03Z</time>
      </trkpt>
      <trkpt lat="49.41955" lon="0.23433">
        <ele>7.7</ele>
        <time>2022-05-31T09:22:04Z</time>
      </trkpt>
      <trkpt lat="49.41955" lon="0.23434">
        <ele>7.7</ele>
        <time>2022-05-31T09:22:05Z</time>
      </trkpt>
      <trkpt lat="49.41955" lon="0.23433">
        <ele>7.7</ele>
        <time>2022-05-31T09:22:06Z</time>
      </trkpt>
      <trkpt lat="49.41955" lon="0.23431">
        <ele>7.7</ele>
        <time>2022-05-31T09:22:07Z</time>
      </trkpt>
      <trkpt lat="49.41955" lon="0.2343">
        <ele>7.7</ele>
        <time>2022-05-31T09:22:08Z</time>
      </trkpt>
      <trkpt lat="49.41955" lon="0.23428">
        <ele>7.7</ele>
        <time>2022-05-31T09:22:09Z</time>
      </trkpt>
      <trkpt lat="49.41955" lon="0.23427">
        <ele>7.7</ele>
        <time>2022-05-31T09:22:10Z</time>
      </trkpt>
      <trkpt lat="49.41955" lon="0.23425">
        <ele>7.7</ele>
        <time>2022-05-31T09:22:11Z</time>
      </trkpt>
      <trkpt lat="49.41955" lon="0.23424">
        <ele>7.7</ele>
        <time>2022-05-31T09:22:12Z</time>
      </trkpt>
      <trkpt lat="49.41955" lon="0.23424">
        <ele>7.7</ele>
        <time>2022-05-31T09:22:13Z</time>
      </trkpt>
      <trkpt lat="49.41955" lon="0.23425">
        <ele>7.7</ele>
        <time>2022-05-31T09:22:14Z</time>
      </trkpt>
      <trkpt lat="49.41955" lon="0.23426">
        <ele>7.7</ele>
        <time>2022-05-31T09:22:15Z</time>
      </trkpt>
      <trkpt lat="49.41955" lon="0.23427">
        <ele>7.7</ele>
        <time>2022-05-31T09:22:16Z</time>
      </trkpt>
      <trkpt lat="49.41954" lon="0.23425">
        <ele>7.7</ele>
        <time>2022-05-31T09:22:17Z</time>
      </trkpt>
      <trkpt lat="49.41954" lon="0.23425">
        <ele>7.7</ele>
        <time>2022-05-31T09:22:18Z</time>
      </trkpt>
      <trkpt lat="49.41953" lon="0.23426">
        <ele>7.7</ele>
        <time>2022-05-31T09:22:19Z</time>
      </trkpt>
      <trkpt lat="49.41953" lon="0.23426">
        <ele>7.7</ele>
        <time>2022-05-31T09:22:20Z</time>
      </trkpt>
      <trkpt lat="49.41953" lon="0.23427">
        <ele>7.8</ele>
        <time>2022-05-31T09:22:21Z</time>
      </trkpt>
      <trkpt lat="49.41952" lon="0.23435">
        <ele>7.8</ele>
        <time>2022-05-31T09:22:22Z</time>
      </trkpt>
      <trkpt lat="49.41951" lon="0.23437">
        <ele>7.8</ele>
        <time>2022-05-31T09:22:23Z</time>
      </trkpt>
      <trkpt lat="49.41952" lon="0.23439">
        <ele>7.8</ele>
        <time>2022-05-31T09:22:25Z</time>
      </trkpt>
      <trkpt lat="49.41952" lon="0.2344">
        <ele>7.8</ele>
        <time>2022-05-31T09:22:26Z</time>
      </trkpt>
      <trkpt lat="49.4195" lon="0.2344">
        <ele>7.8</ele>
        <time>2022-05-31T09:22:27Z</time>
      </trkpt>
      <trkpt lat="49.4195" lon="0.23439">
        <ele>7.8</ele>
        <time>2022-05-31T09:22:28Z</time>
      </trkpt>
      <trkpt lat="49.41949" lon="0.23439">
        <ele>7.8</ele>
        <time>2022-05-31T09:22:29Z</time>
      </trkpt>
      <trkpt lat="49.41949" lon="0.23439">
        <ele>7.8</ele>
        <time>2022-05-31T09:22:30Z</time>
      </trkpt>
      <trkpt lat="49.41949" lon="0.23439">
        <ele>7.8</ele>
        <time>2022-05-31T09:22:31Z</time>
      </trkpt>
      <trkpt lat="49.41947" lon="0.23439">
        <ele>7.8</ele>
        <time>2022-05-31T09:22:32Z</time>
      </trkpt>
      <trkpt lat="49.41947" lon="0.23439">
        <ele>7.8</ele>
        <time>2022-05-31T09:22:33Z</time>
      </trkpt>
      <trkpt lat="49.41947" lon="0.23439">
        <ele>7.8</ele>
        <time>2022-05-31T09:22:34Z</time>
      </trkpt>
      <trkpt lat="49.41947" lon="0.23439">
        <ele>7.8</ele>
        <time>2022-05-31T09:22:35Z</time>
      </trkpt>
      <trkpt lat="49.41947" lon="0.23439">
        <ele>7.8</ele>
        <time>2022-05-31T09:22:36Z</time>
      </trkpt>
      <trkpt lat="49.41945" lon="0.23439">
        <ele>7.8</ele>
        <time>2022-05-31T09:22:38Z</time>
      </trkpt>
      <trkpt lat="49.41945" lon="0.23439">
        <ele>7.8</ele>
        <time>2022-05-31T09:22:39Z</time>
      </trkpt>
      <trkpt lat="49.41944" lon="0.23439">
        <ele>7.8</ele>
        <time>2022-05-31T09:22:40Z</time>
      </trkpt>
      <trkpt lat="49.41942" lon="0.23439">
        <ele>7.8</ele>
        <time>2022-05-31T09:22:42Z</time>
      </trkpt>
      <trkpt lat="49.41939" lon="0.23437">
        <ele>7.8</ele>
        <time>2022-05-31T09:22:43Z</time>
      </trkpt>
      <trkpt lat="49.41938" lon="0.23437">
        <ele>7.8</ele>
        <time>2022-05-31T09:22:44Z</time>
      </trkpt>
      <trkpt lat="49.41937" lon="0.23437">
        <ele>7.8</ele>
        <time>2022-05-31T09:22:45Z</time>
      </trkpt>
      <trkpt lat="49.41937" lon="0.23437">
        <ele>7.8</ele>
        <time>2022-05-31T09:22:46Z</time>
      </trkpt>
      <trkpt lat="49.41936" lon="0.23438">
        <ele>7.8</ele>
        <time>2022-05-31T09:22:47Z</time>
      </trkpt>
      <trkpt lat="49.41936" lon="0.23438">
        <ele>7.8</ele>
        <time>2022-05-31T09:22:48Z</time>
      </trkpt>
      <trkpt lat="49.41936" lon="0.23438">
        <ele>7.8</ele>
        <time>2022-05-31T09:22:49Z</time>
      </trkpt>
      <trkpt lat="49.41936" lon="0.23438">
        <ele>7.8</ele>
        <time>2022-05-31T09:22:50Z</time>
      </trkpt>
      <trkpt lat="49.41935" lon="0.23438">
        <ele>7.8</ele>
        <time>2022-05-31T09:22:51Z</time>
      </trkpt>
      <trkpt lat="49.41935" lon="0.23438">
        <ele>7.8</ele>
        <time>2022-05-31T09:22:52Z</time>
      </trkpt>
      <trkpt lat="49.41935" lon="0.23438">
        <ele>7.8</ele>
        <time>2022-05-31T09:22:53Z</time>
      </trkpt>
      <trkpt lat="49.41935" lon="0.23438">
        <ele>7.8</ele>
        <time>2022-05-31T09:22:54Z</time>
      </trkpt>
      <trkpt lat="49.41934" lon="0.23438">
        <ele>7.8</ele>
        <time>2022-05-31T09:22:55Z</time>
      </trkpt>
      <trkpt lat="49.41934" lon="0.23438">
        <ele>7.8</ele>
        <time>2022-05-31T09:22:56Z</time>
      </trkpt>
      <trkpt lat="49.41934" lon="0.23438">
        <ele>7.8</ele>
        <time>2022-05-31T09:22:57Z</time>
      </trkpt>
      <trkpt lat="49.41935" lon="0.23438">
        <ele>7.8</ele>
        <time>2022-05-31T09:22:58Z</time>
      </trkpt>
      <trkpt lat="49.41936" lon="0.23438">
        <ele>7.8</ele>
        <time>2022-05-31T09:22:59Z</time>
      </trkpt>
      <trkpt lat="49.41936" lon="0.23438">
        <ele>7.8</ele>
        <time>2022-05-31T09:23:00Z</time>
      </trkpt>
      <trkpt lat="49.41936" lon="0.23438">
        <ele>7.8</ele>
        <time>2022-05-31T09:23:01Z</time>
      </trkpt>
      <trkpt lat="49.41936" lon="0.23438">
        <ele>7.8</ele>
        <time>2022-05-31T09:23:02Z</time>
      </trkpt>
      <trkpt lat="49.41935" lon="0.23438">
        <ele>7.8</ele>
        <time>2022-05-31T09:23:03Z</time>
      </trkpt>
      <trkpt lat="49.41936" lon="0.23437">
        <ele>7.8</ele>
        <time>2022-05-31T09:23:04Z</time>
      </trkpt>
      <trkpt lat="49.41935" lon="0.23437">
        <ele>7.8</ele>
        <time>2022-05-31T09:23:05Z</time>
      </trkpt>
      <trkpt lat="49.41934" lon="0.23437">
        <ele>7.8</ele>
        <time>2022-05-31T09:23:06Z</time>
      </trkpt>
      <trkpt lat="49.41933" lon="0.23437">
        <ele>7.8</ele>
        <time>2022-05-31T09:23:07Z</time>
      </trkpt>
      <trkpt lat="49.41932" lon="0.23436">
        <ele>7.8</ele>
        <time>2022-05-31T09:23:09Z</time>
      </trkpt>
      <trkpt lat="49.41931" lon="0.23435">
        <ele>7.8</ele>
        <time>2022-05-31T09:23:10Z</time>
      </trkpt>
      <trkpt lat="49.4193" lon="0.23435">
        <ele>7.8</ele>
        <time>2022-05-31T09:23:11Z</time>
      </trkpt>
      <trkpt lat="49.41929" lon="0.23435">
        <ele>7.8</ele>
        <time>2022-05-31T09:23:12Z</time>
      </trkpt>
      <trkpt lat="49.4193" lon="0.23434">
        <ele>7.8</ele>
        <time>2022-05-31T09:23:13Z</time>
      </trkpt>
      <trkpt lat="49.41931" lon="0.23434">
        <ele>7.8</ele>
        <time>2022-05-31T09:23:14Z</time>
      </trkpt>
      <trkpt lat="49.41931" lon="0.23434">
        <ele>7.8</ele>
        <time>2022-05-31T09:23:15Z</time>
      </trkpt>
      <trkpt lat="49.41932" lon="0.23433">
        <ele>7.8</ele>
        <time>2022-05-31T09:23:16Z</time>
      </trkpt>
      <trkpt lat="49.41932" lon="0.23434">
        <ele>7.8</ele>
        <time>2022-05-31T09:23:17Z</time>
      </trkpt>
      <trkpt lat="49.41931" lon="0.23435">
        <ele>7.8</ele>
        <time>2022-05-31T09:23:18Z</time>
      </trkpt>
      <trkpt lat="49.4193" lon="0.23435">
        <ele>7.8</ele>
        <time>2022-05-31T09:23:19Z</time>
      </trkpt>
      <trkpt lat="49.41929" lon="0.23435">
        <ele>7.8</ele>
        <time>2022-05-31T09:23:21Z</time>
      </trkpt>
      <trkpt lat="49.41925" lon="0.23436">
        <ele>7.8</ele>
        <time>2022-05-31T09:23:22Z</time>
      </trkpt>
      <trkpt lat="49.41924" lon="0.23436">
        <ele>7.8</ele>
        <time>2022-05-31T09:23:23Z</time>
      </trkpt>
      <trkpt lat="49.41926" lon="0.23436">
        <ele>7.8</ele>
        <time>2022-05-31T09:23:24Z</time>
      </trkpt>
      <trkpt lat="49.41927" lon="0.23435">
        <ele>7.8</ele>
        <time>2022-05-31T09:23:25Z</time>
      </trkpt>
      <trkpt lat="49.41929" lon="0.23433">
        <ele>7.8</ele>
        <time>2022-05-31T09:23:26Z</time>
      </trkpt>
      <trkpt lat="49.4193" lon="0.23432">
        <ele>7.8</ele>
        <time>2022-05-31T09:23:27Z</time>
      </trkpt>
      <trkpt lat="49.41932" lon="0.23431">
        <ele>7.8</ele>
        <time>2022-05-31T09:23:28Z</time>
      </trkpt>
      <trkpt lat="49.41932" lon="0.23431">
        <ele>7.8</ele>
        <time>2022-05-31T09:23:29Z</time>
      </trkpt>
      <trkpt lat="49.41933" lon="0.2343">
        <ele>7.8</ele>
        <time>2022-05-31T09:23:30Z</time>
      </trkpt>
      <trkpt lat="49.41933" lon="0.2343">
        <ele>7.8</ele>
        <time>2022-05-31T09:23:31Z</time>
      </trkpt>
      <trkpt lat="49.41933" lon="0.2343">
        <ele>7.8</ele>
        <time>2022-05-31T09:23:32Z</time>
      </trkpt>
      <trkpt lat="49.41933" lon="0.23431">
        <ele>7.8</ele>
        <time>2022-05-31T09:23:33Z</time>
      </trkpt>
      <trkpt lat="49.41933" lon="0.23431">
        <ele>7.8</ele>
        <time>2022-05-31T09:23:34Z</time>
      </trkpt>
      <trkpt lat="49.41933" lon="0.23431">
        <ele>7.8</ele>
        <time>2022-05-31T09:23:35Z</time>
      </trkpt>
      <trkpt lat="49.41933" lon="0.23432">
        <ele>7.8</ele>
        <time>2022-05-31T09:23:36Z</time>
      </trkpt>
      <trkpt lat="49.41933" lon="0.23432">
        <ele>7.8</ele>
        <time>2022-05-31T09:23:37Z</time>
      </trkpt>
      <trkpt lat="49.41933" lon="0.23433">
        <ele>7.8</ele>
        <time>2022-05-31T09:23:38Z</time>
      </trkpt>
      <trkpt lat="49.41933" lon="0.23433">
        <ele>7.8</ele>
        <time>2022-05-31T09:23:39Z</time>
      </trkpt>
      <trkpt lat="49.41933" lon="0.23433">
        <ele>7.8</ele>
        <time>2022-05-31T09:23:40Z</time>
      </trkpt>
      <trkpt lat="49.41933" lon="0.23434">
        <ele>7.8</ele>
        <time>2022-05-31T09:23:41Z</time>
      </trkpt>
      <trkpt lat="49.41933" lon="0.23434">
        <ele>7.8</ele>
        <time>2022-05-31T09:23:42Z</time>
      </trkpt>
      <trkpt lat="49.41933" lon="0.23434">
        <ele>7.8</ele>
        <time>2022-05-31T09:23:44Z</time>
      </trkpt>
      <trkpt lat="49.41933" lon="0.23435">
        <ele>7.8</ele>
        <time>2022-05-31T09:23:45Z</time>
      </trkpt>
      <trkpt lat="49.41933" lon="0.23435">
        <ele>7.8</ele>
        <time>2022-05-31T09:23:46Z</time>
      </trkpt>
      <trkpt lat="49.41933" lon="0.23436">
        <ele>7.8</ele>
        <time>2022-05-31T09:23:47Z</time>
      </trkpt>
      <trkpt lat="49.41933" lon="0.23436">
        <ele>7.8</ele>
        <time>2022-05-31T09:23:48Z</time>
      </trkpt>
      <trkpt lat="49.41933" lon="0.23436">
        <ele>7.8</ele>
        <time>2022-05-31T09:23:49Z</time>
      </trkpt>
      <trkpt lat="49.41933" lon="0.23437">
        <ele>7.8</ele>
        <time>2022-05-31T09:23:50Z</time>
      </trkpt>
      <trkpt lat="49.41933" lon="0.23437">
        <ele>7.8</ele>
        <time>2022-05-31T09:23:51Z</time>
      </trkpt>
      <trkpt lat="49.41933" lon="0.23437">
        <ele>7.8</ele>
        <time>2022-05-31T09:23:52Z</time>
      </trkpt>
      <trkpt lat="49.41933" lon="0.23437">
        <ele>7.8</ele>
        <time>2022-05-31T09:23:53Z</time>
      </trkpt>
      <trkpt lat="49.41933" lon="0.23437">
        <ele>7.8</ele>
        <time>2022-05-31T09:23:54Z</time>
      </trkpt>
      <trkpt lat="49.41933" lon="0.23437">
        <ele>7.8</ele>
        <time>2022-05-31T09:23:55Z</time>
      </trkpt>
      <trkpt lat="49.41933" lon="0.23437">
        <ele>7.8</ele>
        <time>2022-05-31T09:23:56Z</time>
      </trkpt>
      <trkpt lat="49.41933" lon="0.23437">
        <ele>7.8</ele>
        <time>2022-05-31T09:23:57Z</time>
      </trkpt>
      <trkpt lat="49.41933" lon="0.23437">
        <ele>7.8</ele>
        <time>2022-05-31T09:23:58Z</time>
      </trkpt>
      <trkpt lat="49.41933" lon="0.23437">
        <ele>7.8</ele>
        <time>2022-05-31T09:23:59Z</time>
      </trkpt>
      <trkpt lat="49.41933" lon="0.23437">
        <ele>7.8</ele>
        <time>2022-05-31T09:24:00Z</time>
      </trkpt>
      <trkpt lat="49.41933" lon="0.23437">
        <ele>7.8</ele>
        <time>2022-05-31T09:24:01Z</time>
      </trkpt>
      <trkpt lat="49.41934" lon="0.23435">
        <ele>7.8</ele>
        <time>2022-05-31T09:24:03Z</time>
      </trkpt>
      <trkpt lat="49.41934" lon="0.23435">
        <ele>7.8</ele>
        <time>2022-05-31T09:24:04Z</time>
      </trkpt>
      <trkpt lat="49.41933" lon="0.23435">
        <ele>7.8</ele>
        <time>2022-05-31T09:24:05Z</time>
      </trkpt>
      <trkpt lat="49.41933" lon="0.23435">
        <ele>7.8</ele>
        <time>2022-05-31T09:24:06Z</time>
      </trkpt>
      <trkpt lat="49.41931" lon="0.23435">
        <ele>7.8</ele>
        <time>2022-05-31T09:24:08Z</time>
      </trkpt>
      <trkpt lat="49.4193" lon="0.23435">
        <ele>7.8</ele>
        <time>2022-05-31T09:24:09Z</time>
      </trkpt>
      <trkpt lat="49.4193" lon="0.23436">
        <ele>7.8</ele>
        <time>2022-05-31T09:24:10Z</time>
      </trkpt>
      <trkpt lat="49.41929" lon="0.23436">
        <ele>7.8</ele>
        <time>2022-05-31T09:24:12Z</time>
      </trkpt>
      <trkpt lat="49.41929" lon="0.23437">
        <ele>7.8</ele>
        <time>2022-05-31T09:24:13Z</time>
      </trkpt>
      <trkpt lat="49.41928" lon="0.23438">
        <ele>7.8</ele>
        <time>2022-05-31T09:24:14Z</time>
      </trkpt>
      <trkpt lat="49.41928" lon="0.23438">
        <ele>7.8</ele>
        <time>2022-05-31T09:24:15Z</time>
      </trkpt>
      <trkpt lat="49.41926" lon="0.23438">
        <ele>7.8</ele>
        <time>2022-05-31T09:24:16Z</time>
      </trkpt>
      <trkpt lat="49.41925" lon="0.23438">
        <ele>7.8</ele>
        <time>2022-05-31T09:24:18Z</time>
      </trkpt>
      <trkpt lat="49.41924" lon="0.23438">
        <ele>7.8</ele>
        <time>2022-05-31T09:24:19Z</time>
      </trkpt>
      <trkpt lat="49.41923" lon="0.23437">
        <ele>7.8</ele>
        <time>2022-05-31T09:24:20Z</time>
      </trkpt>
      <trkpt lat="49.41921" lon="0.23437">
        <ele>7.8</ele>
        <time>2022-05-31T09:24:22Z</time>
      </trkpt>
      <trkpt lat="49.41919" lon="0.23437">
        <ele>7.8</ele>
        <time>2022-05-31T09:24:23Z</time>
      </trkpt>
      <trkpt lat="49.41918" lon="0.23437">
        <ele>7.8</ele>
        <time>2022-05-31T09:24:24Z</time>
      </trkpt>
      <trkpt lat="49.41917" lon="0.23437">
        <ele>7.8</ele>
        <time>2022-05-31T09:24:25Z</time>
      </trkpt>
      <trkpt lat="49.41917" lon="0.23438">
        <ele>7.8</ele>
        <time>2022-05-31T09:24:26Z</time>
      </trkpt>
      <trkpt lat="49.41917" lon="0.23438">
        <ele>7.8</ele>
        <time>2022-05-31T09:24:28Z</time>
      </trkpt>
      <trkpt lat="49.41917" lon="0.23439">
        <ele>7.8</ele>
        <time>2022-05-31T09:24:29Z</time>
      </trkpt>
      <trkpt lat="49.41917" lon="0.23439">
        <ele>7.8</ele>
        <time>2022-05-31T09:24:30Z</time>
      </trkpt>
      <trkpt lat="49.41917" lon="0.23439">
        <ele>7.8</ele>
        <time>2022-05-31T09:24:31Z</time>
      </trkpt>
      <trkpt lat="49.41918" lon="0.23439">
        <ele>7.8</ele>
        <time>2022-05-31T09:24:32Z</time>
      </trkpt>
      <trkpt lat="49.41918" lon="0.23439">
        <ele>7.8</ele>
        <time>2022-05-31T09:24:33Z</time>
      </trkpt>
      <trkpt lat="49.41918" lon="0.23439">
        <ele>7.8</ele>
        <time>2022-05-31T09:24:34Z</time>
      </trkpt>
      <trkpt lat="49.41919" lon="0.23439">
        <ele>7.8</ele>
        <time>2022-05-31T09:24:35Z</time>
      </trkpt>
      <trkpt lat="49.4192" lon="0.23439">
        <ele>7.8</ele>
        <time>2022-05-31T09:24:36Z</time>
      </trkpt>
      <trkpt lat="49.4192" lon="0.23439">
        <ele>7.7</ele>
        <time>2022-05-31T09:24:37Z</time>
      </trkpt>
      <trkpt lat="49.41921" lon="0.23439">
        <ele>7.7</ele>
        <time>2022-05-31T09:24:38Z</time>
      </trkpt>
      <trkpt lat="49.41921" lon="0.23439">
        <ele>7.7</ele>
        <time>2022-05-31T09:24:39Z</time>
      </trkpt>
      <trkpt lat="49.41921" lon="0.23439">
        <ele>7.7</ele>
        <time>2022-05-31T09:24:40Z</time>
      </trkpt>
      <trkpt lat="49.41922" lon="0.23439">
        <ele>7.7</ele>
        <time>2022-05-31T09:24:41Z</time>
      </trkpt>
      <trkpt lat="49.41922" lon="0.23439">
        <ele>7.7</ele>
        <time>2022-05-31T09:24:42Z</time>
      </trkpt>
      <trkpt lat="49.41922" lon="0.23439">
        <ele>7.7</ele>
        <time>2022-05-31T09:24:43Z</time>
      </trkpt>
      <trkpt lat="49.41922" lon="0.23439">
        <ele>7.7</ele>
        <time>2022-05-31T09:24:44Z</time>
      </trkpt>
      <trkpt lat="49.41922" lon="0.23439">
        <ele>7.7</ele>
        <time>2022-05-31T09:24:45Z</time>
      </trkpt>
      <trkpt lat="49.41922" lon="0.23439">
        <ele>7.7</ele>
        <time>2022-05-31T09:24:46Z</time>
      </trkpt>
      <trkpt lat="49.41923" lon="0.23438">
        <ele>7.7</ele>
        <time>2022-05-31T09:24:47Z</time>
      </trkpt>
      <trkpt lat="49.41923" lon="0.23438">
        <ele>7.7</ele>
        <time>2022-05-31T09:24:48Z</time>
      </trkpt>
      <trkpt lat="49.41924" lon="0.23438">
        <ele>7.7</ele>
        <time>2022-05-31T09:24:49Z</time>
      </trkpt>
      <trkpt lat="49.41924" lon="0.23438">
        <ele>7.7</ele>
        <time>2022-05-31T09:24:50Z</time>
      </trkpt>
      <trkpt lat="49.41924" lon="0.23438">
        <ele>7.7</ele>
        <time>2022-05-31T09:24:51Z</time>
      </trkpt>
      <trkpt lat="49.41924" lon="0.23438">
        <ele>7.7</ele>
        <time>2022-05-31T09:24:52Z</time>
      </trkpt>
      <trkpt lat="49.41924" lon="0.23438">
        <ele>7.7</ele>
        <time>2022-05-31T09:24:53Z</time>
      </trkpt>
      <trkpt lat="49.41924" lon="0.23438">
        <ele>7.7</ele>
        <time>2022-05-31T09:24:54Z</time>
      </trkpt>
      <trkpt lat="49.41924" lon="0.23438">
        <ele>7.7</ele>
        <time>2022-05-31T09:24:55Z</time>
      </trkpt>
      <trkpt lat="49.41924" lon="0.23438">
        <ele>7.7</ele>
        <time>2022-05-31T09:24:56Z</time>
      </trkpt>
      <trkpt lat="49.41924" lon="0.23438">
        <ele>7.7</ele>
        <time>2022-05-31T09:24:57Z</time>
      </trkpt>
      <trkpt lat="49.41924" lon="0.23438">
        <ele>7.7</ele>
        <time>2022-05-31T09:24:58Z</time>
      </trkpt>
      <trkpt lat="49.41924" lon="0.23438">
        <ele>7.7</ele>
        <time>2022-05-31T09:24:59Z</time>
      </trkpt>
      <trkpt lat="49.41924" lon="0.23438">
        <ele>7.7</ele>
        <time>2022-05-31T09:25:00Z</time>
      </trkpt>
      <trkpt lat="49.41924" lon="0.23438">
        <ele>7.7</ele>
        <time>2022-05-31T09:25:01Z</time>
      </trkpt>
      <trkpt lat="49.41924" lon="0.23438">
        <ele>7.7</ele>
        <time>2022-05-31T09:25:02Z</time>
      </trkpt>
      <trkpt lat="49.41924" lon="0.23438">
        <ele>7.7</ele>
        <time>2022-05-31T09:25:03Z</time>
      </trkpt>
      <trkpt lat="49.41924" lon="0.23438">
        <ele>7.7</ele>
        <time>2022-05-31T09:25:04Z</time>
      </trkpt>
      <trkpt lat="49.41924" lon="0.23438">
        <ele>7.7</ele>
        <time>2022-05-31T09:25:05Z</time>
      </trkpt>
      <trkpt lat="49.41924" lon="0.23438">
        <ele>7.7</ele>
        <time>2022-05-31T09:25:06Z</time>
      </trkpt>
      <trkpt lat="49.41924" lon="0.23438">
        <ele>7.7</ele>
        <time>2022-05-31T09:25:07Z</time>
      </trkpt>
      <trkpt lat="49.41924" lon="0.23438">
        <ele>7.7</ele>
        <time>2022-05-31T09:25:08Z</time>
      </trkpt>
      <trkpt lat="49.41924" lon="0.23438">
        <ele>7.7</ele>
        <time>2022-05-31T09:25:09Z</time>
      </trkpt>
      <trkpt lat="49.41924" lon="0.23438">
        <ele>7.7</ele>
        <time>2022-05-31T09:25:10Z</time>
      </trkpt>
      <trkpt lat="49.41924" lon="0.23438">
        <ele>7.7</ele>
        <time>2022-05-31T09:25:11Z</time>
      </trkpt>
      <trkpt lat="49.41923" lon="0.23438">
        <ele>7.7</ele>
        <time>2022-05-31T09:25:12Z</time>
      </trkpt>
      <trkpt lat="49.41924" lon="0.2344">
        <ele>7.7</ele>
        <time>2022-05-31T09:25:13Z</time>
      </trkpt>
      <trkpt lat="49.41923" lon="0.2344">
        <ele>7.7</ele>
        <time>2022-05-31T09:25:14Z</time>
      </trkpt>
      <trkpt lat="49.41922" lon="0.2344">
        <ele>7.7</ele>
        <time>2022-05-31T09:25:15Z</time>
      </trkpt>
      <trkpt lat="49.41922" lon="0.2344">
        <ele>7.7</ele>
        <time>2022-05-31T09:25:16Z</time>
      </trkpt>
      <trkpt lat="49.4192" lon="0.23438">
        <ele>7.7</ele>
        <time>2022-05-31T09:25:17Z</time>
      </trkpt>
      <trkpt lat="49.41919" lon="0.23438">
        <ele>7.7</ele>
        <time>2022-05-31T09:25:18Z</time>
      </trkpt>
      <trkpt lat="49.41919" lon="0.23438">
        <ele>7.7</ele>
        <time>2022-05-31T09:25:19Z</time>
      </trkpt>
      <trkpt lat="49.41919" lon="0.23438">
        <ele>7.7</ele>
        <time>2022-05-31T09:25:20Z</time>
      </trkpt>
      <trkpt lat="49.41919" lon="0.23438">
        <ele>7.7</ele>
        <time>2022-05-31T09:25:21Z</time>
      </trkpt>
      <trkpt lat="49.41919" lon="0.23438">
        <ele>7.7</ele>
        <time>2022-05-31T09:25:23Z</time>
      </trkpt>
      <trkpt lat="49.41919" lon="0.23438">
        <ele>7.7</ele>
        <time>2022-05-31T09:25:24Z</time>
      </trkpt>
      <trkpt lat="49.41919" lon="0.23438">
        <ele>7.7</ele>
        <time>2022-05-31T09:25:25Z</time>
      </trkpt>
      <trkpt lat="49.41919" lon="0.23438">
        <ele>7.7</ele>
        <time>2022-05-31T09:25:26Z</time>
      </trkpt>
      <trkpt lat="49.41919" lon="0.23438">
        <ele>7.7</ele>
        <time>2022-05-31T09:25:27Z</time>
      </trkpt>
      <trkpt lat="49.41919" lon="0.23438">
        <ele>7.7</ele>
        <time>2022-05-31T09:25:28Z</time>
      </trkpt>
      <trkpt lat="49.41919" lon="0.23438">
        <ele>7.7</ele>
        <time>2022-05-31T09:25:29Z</time>
      </trkpt>
      <trkpt lat="49.41919" lon="0.23438">
        <ele>7.7</ele>
        <time>2022-05-31T09:25:30Z</time>
      </trkpt>
      <trkpt lat="49.41918" lon="0.23438">
        <ele>7.7</ele>
        <time>2022-05-31T09:25:31Z</time>
      </trkpt>
      <trkpt lat="49.41918" lon="0.23438">
        <ele>7.7</ele>
        <time>2022-05-31T09:25:32Z</time>
      </trkpt>
      <trkpt lat="49.41918" lon="0.23438">
        <ele>7.7</ele>
        <time>2022-05-31T09:25:33Z</time>
      </trkpt>
      <trkpt lat="49.41918" lon="0.23438">
        <ele>7.7</ele>
        <time>2022-05-31T09:25:34Z</time>
      </trkpt>
      <trkpt lat="49.41918" lon="0.23438">
        <ele>7.7</ele>
        <time>2022-05-31T09:25:35Z</time>
      </trkpt>
      <trkpt lat="49.41918" lon="0.23438">
        <ele>7.7</ele>
        <time>2022-05-31T09:25:36Z</time>
      </trkpt>
      <trkpt lat="49.41918" lon="0.23438">
        <ele>7.7</ele>
        <time>2022-05-31T09:25:37Z</time>
      </trkpt>
      <trkpt lat="49.41918" lon="0.23438">
        <ele>7.7</ele>
        <time>2022-05-31T09:25:38Z</time>
      </trkpt>
      <trkpt lat="49.41918" lon="0.23438">
        <ele>7.7</ele>
        <time>2022-05-31T09:25:39Z</time>
      </trkpt>
      <trkpt lat="49.41918" lon="0.23438">
        <ele>7.7</ele>
        <time>2022-05-31T09:25:40Z</time>
      </trkpt>
      <trkpt lat="49.41918" lon="0.23438">
        <ele>7.7</ele>
        <time>2022-05-31T09:25:41Z</time>
      </trkpt>
      <trkpt lat="49.41918" lon="0.23437">
        <ele>7.7</ele>
        <time>2022-05-31T09:25:42Z</time>
      </trkpt>
      <trkpt lat="49.41917" lon="0.23437">
        <ele>7.7</ele>
        <time>2022-05-31T09:25:43Z</time>
      </trkpt>
      <trkpt lat="49.41917" lon="0.23437">
        <ele>7.7</ele>
        <time>2022-05-31T09:25:58Z</time>
      </trkpt>
      <trkpt lat="49.41917" lon="0.23437">
        <ele>7.7</ele>
        <time>2022-05-31T09:25:59Z</time>
      </trkpt>
      <trkpt lat="49.41917" lon="0.23437">
        <ele>7.7</ele>
        <time>2022-05-31T09:26:00Z</time>
      </trkpt>
      <trkpt lat="49.41917" lon="0.23437">
        <ele>7.7</ele>
        <time>2022-05-31T09:26:01Z</time>
      </trkpt>
      <trkpt lat="49.41917" lon="0.23437">
        <ele>7.7</ele>
        <time>2022-05-31T09:26:02Z</time>
      </trkpt>
      <trkpt lat="49.41917" lon="0.23437">
        <ele>7.7</ele>
        <time>2022-05-31T09:26:03Z</time>
      </trkpt>
      <trkpt lat="49.41917" lon="0.23437">
        <ele>7.7</ele>
        <time>2022-05-31T09:26:04Z</time>
      </trkpt>
      <trkpt lat="49.41917" lon="0.23437">
        <ele>7.7</ele>
        <time>2022-05-31T09:26:05Z</time>
      </trkpt>
      <trkpt lat="49.41917" lon="0.23437">
        <ele>7.7</ele>
        <time>2022-05-31T09:26:06Z</time>
      </trkpt>
      <trkpt lat="49.41917" lon="0.23437">
        <ele>7.7</ele>
        <time>2022-05-31T09:26:07Z</time>
      </trkpt>
      <trkpt lat="49.41916" lon="0.23437">
        <ele>7.7</ele>
        <time>2022-05-31T09:26:08Z</time>
      </trkpt>
      <trkpt lat="49.41916" lon="0.23437">
        <ele>7.7</ele>
        <time>2022-05-31T09:26:09Z</time>
      </trkpt>
      <trkpt lat="49.41916" lon="0.23437">
        <ele>7.7</ele>
        <time>2022-05-31T09:26:10Z</time>
      </trkpt>
      <trkpt lat="49.41916" lon="0.23437">
        <ele>7.7</ele>
        <time>2022-05-31T09:26:11Z</time>
      </trkpt>
      <trkpt lat="49.41916" lon="0.23437">
        <ele>7.7</ele>
        <time>2022-05-31T09:26:12Z</time>
      </trkpt>
      <trkpt lat="49.41916" lon="0.23437">
        <ele>7.7</ele>
        <time>2022-05-31T09:26:13Z</time>
      </trkpt>
      <trkpt lat="49.41916" lon="0.23437">
        <ele>7.7</ele>
        <time>2022-05-31T09:26:14Z</time>
      </trkpt>
      <trkpt lat="49.41916" lon="0.23437">
        <ele>7.7</ele>
        <time>2022-05-31T09:26:15Z</time>
      </trkpt>
      <trkpt lat="49.41916" lon="0.23437">
        <ele>7.7</ele>
        <time>2022-05-31T09:26:50Z</time>
      </trkpt>
      <trkpt lat="49.41916" lon="0.23437">
        <ele>7.7</ele>
        <time>2022-05-31T09:26:59Z</time>
      </trkpt>
      <trkpt lat="49.41916" lon="0.23437">
        <ele>7.7</ele>
        <time>2022-05-31T09:27:17Z</time>
      </trkpt>
      <trkpt lat="49.41916" lon="0.23437">
        <ele>7.7</ele>
        <time>2022-05-31T09:27:18Z</time>
      </trkpt>
      <trkpt lat="49.41915" lon="0.23437">
        <ele>7.7</ele>
        <time>2022-05-31T09:27:19Z</time>
      </trkpt>
      <trkpt lat="49.41915" lon="0.23437">
        <ele>7.7</ele>
        <time>2022-05-31T09:27:21Z</time>
      </trkpt>
      <trkpt lat="49.41915" lon="0.23437">
        <ele>7.7</ele>
        <time>2022-05-31T09:27:22Z</time>
      </trkpt>
      <trkpt lat="49.41916" lon="0.23437">
        <ele>7.7</ele>
        <time>2022-05-31T09:27:24Z</time>
      </trkpt>
      <trkpt lat="49.41918" lon="0.23435">
        <ele>7.7</ele>
        <time>2022-05-31T09:27:26Z</time>
      </trkpt>
      <trkpt lat="49.41918" lon="0.23434">
        <ele>7.7</ele>
        <time>2022-05-31T09:27:27Z</time>
      </trkpt>
      <trkpt lat="49.41918" lon="0.23433">
        <ele>7.7</ele>
        <time>2022-05-31T09:27:28Z</time>
      </trkpt>
      <trkpt lat="49.41919" lon="0.23433">
        <ele>7.7</ele>
        <time>2022-05-31T09:27:29Z</time>
      </trkpt>
      <trkpt lat="49.41919" lon="0.23432">
        <ele>7.7</ele>
        <time>2022-05-31T09:27:30Z</time>
      </trkpt>
      <trkpt lat="49.41919" lon="0.23431">
        <ele>7.7</ele>
        <time>2022-05-31T09:27:31Z</time>
      </trkpt>
      <trkpt lat="49.4192" lon="0.2343">
        <ele>7.7</ele>
        <time>2022-05-31T09:27:32Z</time>
      </trkpt>
      <trkpt lat="49.4192" lon="0.2343">
        <ele>7.7</ele>
        <time>2022-05-31T09:27:33Z</time>
      </trkpt>
      <trkpt lat="49.4192" lon="0.2343">
        <ele>7.7</ele>
        <time>2022-05-31T09:27:34Z</time>
      </trkpt>
      <trkpt lat="49.4192" lon="0.2343">
        <ele>7.7</ele>
        <time>2022-05-31T09:27:35Z</time>
      </trkpt>
      <trkpt lat="49.4192" lon="0.23429">
        <ele>7.7</ele>
        <time>2022-05-31T09:27:36Z</time>
      </trkpt>
      <trkpt lat="49.4192" lon="0.23429">
        <ele>7.7</ele>
        <time>2022-05-31T09:27:37Z</time>
      </trkpt>
      <trkpt lat="49.4192" lon="0.23429">
        <ele>7.7</ele>
        <time>2022-05-31T09:27:38Z</time>
      </trkpt>
      <trkpt lat="49.4192" lon="0.23429">
        <ele>7.7</ele>
        <time>2022-05-31T09:27:39Z</time>
      </trkpt>
      <trkpt lat="49.4192" lon="0.23429">
        <ele>7.7</ele>
        <time>2022-05-31T09:27:40Z</time>
      </trkpt>
      <trkpt lat="49.4192" lon="0.23429">
        <ele>7.7</ele>
        <time>2022-05-31T09:27:41Z</time>
      </trkpt>
      <trkpt lat="49.41921" lon="0.23428">
        <ele>7.7</ele>
        <time>2022-05-31T09:27:42Z</time>
      </trkpt>
      <trkpt lat="49.41921" lon="0.23427">
        <ele>7.7</ele>
        <time>2022-05-31T09:27:43Z</time>
      </trkpt>
      <trkpt lat="49.41921" lon="0.23427">
        <ele>7.7</ele>
        <time>2022-05-31T09:27:44Z</time>
      </trkpt>
      <trkpt lat="49.41921" lon="0.23427">
        <ele>7.7</ele>
        <time>2022-05-31T09:27:45Z</time>
      </trkpt>
      <trkpt lat="49.41922" lon="0.23425">
        <ele>7.7</ele>
        <time>2022-05-31T09:27:46Z</time>
      </trkpt>
      <trkpt lat="49.41922" lon="0.23426">
        <ele>7.7</ele>
        <time>2022-05-31T09:27:47Z</time>
      </trkpt>
      <trkpt lat="49.41921" lon="0.23428">
        <ele>7.7</ele>
        <time>2022-05-31T09:27:49Z</time>
      </trkpt>
      <trkpt lat="49.41921" lon="0.23429">
        <ele>7.7</ele>
        <time>2022-05-31T09:27:50Z</time>
      </trkpt>
      <trkpt lat="49.41921" lon="0.23428">
        <ele>7.7</ele>
        <time>2022-05-31T09:27:51Z</time>
      </trkpt>
      <trkpt lat="49.41922" lon="0.23427">
        <ele>7.7</ele>
        <time>2022-05-31T09:27:52Z</time>
      </trkpt>
      <trkpt lat="49.41922" lon="0.23427">
        <ele>7.7</ele>
        <time>2022-05-31T09:27:53Z</time>
      </trkpt>
      <trkpt lat="49.41922" lon="0.23427">
        <ele>7.7</ele>
        <time>2022-05-31T09:27:54Z</time>
      </trkpt>
      <trkpt lat="49.41922" lon="0.23426">
        <ele>7.8</ele>
        <time>2022-05-31T09:27:55Z</time>
      </trkpt>
      <trkpt lat="49.41922" lon="0.23426">
        <ele>7.8</ele>
        <time>2022-05-31T09:27:56Z</time>
      </trkpt>
      <trkpt lat="49.41921" lon="0.23426">
        <ele>7.8</ele>
        <time>2022-05-31T09:27:57Z</time>
      </trkpt>
      <trkpt lat="49.41921" lon="0.23426">
        <ele>7.8</ele>
        <time>2022-05-31T09:27:58Z</time>
      </trkpt>
      <trkpt lat="49.41921" lon="0.23426">
        <ele>7.8</ele>
        <time>2022-05-31T09:27:59Z</time>
      </trkpt>
      <trkpt lat="49.4192" lon="0.23426">
        <ele>7.8</ele>
        <time>2022-05-31T09:28:01Z</time>
      </trkpt>
      <trkpt lat="49.4192" lon="0.23426">
        <ele>7.8</ele>
        <time>2022-05-31T09:28:02Z</time>
      </trkpt>
      <trkpt lat="49.4192" lon="0.23426">
        <ele>7.8</ele>
        <time>2022-05-31T09:28:03Z</time>
      </trkpt>
      <trkpt lat="49.4192" lon="0.23426">
        <ele>7.8</ele>
        <time>2022-05-31T09:28:04Z</time>
      </trkpt>
      <trkpt lat="49.4192" lon="0.23426">
        <ele>7.8</ele>
        <time>2022-05-31T09:28:05Z</time>
      </trkpt>
      <trkpt lat="49.4192" lon="0.23426">
        <ele>7.8</ele>
        <time>2022-05-31T09:28:06Z</time>
      </trkpt>
      <trkpt lat="49.4192" lon="0.23426">
        <ele>7.8</ele>
        <time>2022-05-31T09:28:07Z</time>
      </trkpt>
      <trkpt lat="49.4192" lon="0.23426">
        <ele>7.8</ele>
        <time>2022-05-31T09:28:08Z</time>
      </trkpt>
      <trkpt lat="49.4192" lon="0.23426">
        <ele>7.8</ele>
        <time>2022-05-31T09:28:09Z</time>
      </trkpt>
      <trkpt lat="49.41921" lon="0.23426">
        <ele>7.8</ele>
        <time>2022-05-31T09:28:10Z</time>
      </trkpt>
      <trkpt lat="49.4192" lon="0.23426">
        <ele>7.8</ele>
        <time>2022-05-31T09:28:11Z</time>
      </trkpt>
      <trkpt lat="49.4192" lon="0.23425">
        <ele>7.8</ele>
        <time>2022-05-31T09:28:12Z</time>
      </trkpt>
      <trkpt lat="49.4192" lon="0.23425">
        <ele>7.8</ele>
        <time>2022-05-31T09:28:13Z</time>
      </trkpt>
      <trkpt lat="49.4192" lon="0.23425">
        <ele>7.8</ele>
        <time>2022-05-31T09:28:14Z</time>
      </trkpt>
      <trkpt lat="49.4192" lon="0.23425">
        <ele>7.8</ele>
        <time>2022-05-31T09:28:15Z</time>
      </trkpt>
      <trkpt lat="49.4192" lon="0.23425">
        <ele>7.8</ele>
        <time>2022-05-31T09:28:16Z</time>
      </trkpt>
      <trkpt lat="49.4192" lon="0.23425">
        <ele>7.8</ele>
        <time>2022-05-31T09:28:17Z</time>
      </trkpt>
      <trkpt lat="49.4192" lon="0.23425">
        <ele>7.8</ele>
        <time>2022-05-31T09:28:18Z</time>
      </trkpt>
      <trkpt lat="49.4192" lon="0.23425">
        <ele>7.8</ele>
        <time>2022-05-31T09:28:19Z</time>
      </trkpt>
      <trkpt lat="49.4192" lon="0.23425">
        <ele>7.8</ele>
        <time>2022-05-31T09:28:20Z</time>
      </trkpt>
      <trkpt lat="49.4192" lon="0.23425">
        <ele>7.8</ele>
        <time>2022-05-31T09:28:21Z</time>
      </trkpt>
      <trkpt lat="49.4192" lon="0.23425">
        <ele>7.8</ele>
        <time>2022-05-31T09:28:22Z</time>
      </trkpt>
      <trkpt lat="49.4192" lon="0.23425">
        <ele>7.8</ele>
        <time>2022-05-31T09:28:23Z</time>
      </trkpt>
      <trkpt lat="49.4192" lon="0.23425">
        <ele>7.8</ele>
        <time>2022-05-31T09:28:24Z</time>
      </trkpt>
      <trkpt lat="49.4192" lon="0.23425">
        <ele>7.8</ele>
        <time>2022-05-31T09:28:25Z</time>
      </trkpt>
      <trkpt lat="49.4192" lon="0.23425">
        <ele>7.8</ele>
        <time>2022-05-31T09:28:26Z</time>
      </trkpt>
      <trkpt lat="49.4192" lon="0.23425">
        <ele>7.8</ele>
        <time>2022-05-31T09:28:27Z</time>
      </trkpt>
      <trkpt lat="49.4192" lon="0.23425">
        <ele>7.8</ele>
        <time>2022-05-31T09:28:28Z</time>
      </trkpt>
      <trkpt lat="49.4192" lon="0.23425">
        <ele>7.8</ele>
        <time>2022-05-31T09:28:29Z</time>
      </trkpt>
      <trkpt lat="49.4192" lon="0.23425">
        <ele>7.8</ele>
        <time>2022-05-31T09:28:30Z</time>
      </trkpt>
      <trkpt lat="49.4192" lon="0.23425">
        <ele>7.8</ele>
        <time>2022-05-31T09:28:31Z</time>
      </trkpt>
      <trkpt lat="49.4192" lon="0.23425">
        <ele>7.8</ele>
        <time>2022-05-31T09:28:32Z</time>
      </trkpt>
      <trkpt lat="49.4192" lon="0.23425">
        <ele>7.8</ele>
        <time>2022-05-31T09:28:33Z</time>
      </trkpt>
      <trkpt lat="49.4192" lon="0.23425">
        <ele>7.8</ele>
        <time>2022-05-31T09:28:34Z</time>
      </trkpt>
      <trkpt lat="49.4192" lon="0.23425">
        <ele>7.8</ele>
        <time>2022-05-31T09:28:35Z</time>
      </trkpt>
      <trkpt lat="49.4192" lon="0.23425">
        <ele>7.8</ele>
        <time>2022-05-31T09:28:36Z</time>
      </trkpt>
      <trkpt lat="49.4192" lon="0.23425">
        <ele>7.8</ele>
        <time>2022-05-31T09:28:37Z</time>
      </trkpt>
      <trkpt lat="49.4192" lon="0.23425">
        <ele>7.8</ele>
        <time>2022-05-31T09:28:38Z</time>
      </trkpt>
      <trkpt lat="49.4192" lon="0.23425">
        <ele>7.8</ele>
        <time>2022-05-31T09:28:39Z</time>
      </trkpt>
      <trkpt lat="49.4192" lon="0.23425">
        <ele>7.8</ele>
        <time>2022-05-31T09:28:40Z</time>
      </trkpt>
      <trkpt lat="49.4192" lon="0.23425">
        <ele>7.8</ele>
        <time>2022-05-31T09:28:41Z</time>
      </trkpt>
      <trkpt lat="49.4192" lon="0.23425">
        <ele>7.8</ele>
        <time>2022-05-31T09:28:42Z</time>
      </trkpt>
      <trkpt lat="49.4192" lon="0.23425">
        <ele>7.8</ele>
        <time>2022-05-31T09:28:43Z</time>
      </trkpt>
      <trkpt lat="49.4192" lon="0.23425">
        <ele>7.8</ele>
        <time>2022-05-31T09:28:44Z</time>
      </trkpt>
      <trkpt lat="49.4192" lon="0.23425">
        <ele>7.8</ele>
        <time>2022-05-31T09:28:45Z</time>
      </trkpt>
      <trkpt lat="49.4192" lon="0.23425">
        <ele>7.8</ele>
        <time>2022-05-31T09:28:46Z</time>
      </trkpt>
      <trkpt lat="49.4192" lon="0.23425">
        <ele>7.8</ele>
        <time>2022-05-31T09:28:47Z</time>
      </trkpt>
      <trkpt lat="49.4192" lon="0.23425">
        <ele>7.8</ele>
        <time>2022-05-31T09:28:48Z</time>
      </trkpt>
      <trkpt lat="49.4192" lon="0.23425">
        <ele>7.8</ele>
        <time>2022-05-31T09:28:49Z</time>
      </trkpt>
      <trkpt lat="49.4192" lon="0.23425">
        <ele>7.8</ele>
        <time>2022-05-31T09:28:50Z</time>
      </trkpt>
      <trkpt lat="49.4192" lon="0.23425">
        <ele>7.8</ele>
        <time>2022-05-31T09:28:51Z</time>
      </trkpt>
      <trkpt lat="49.4192" lon="0.23425">
        <ele>7.8</ele>
        <time>2022-05-31T09:28:52Z</time>
      </trkpt>
      <trkpt lat="49.4192" lon="0.23425">
        <ele>7.8</ele>
        <time>2022-05-31T09:28:53Z</time>
      </trkpt>
      <trkpt lat="49.4192" lon="0.23425">
        <ele>7.8</ele>
        <time>2022-05-31T09:28:54Z</time>
      </trkpt>
      <trkpt lat="49.4192" lon="0.23425">
        <ele>7.8</ele>
        <time>2022-05-31T09:28:55Z</time>
      </trkpt>
      <trkpt lat="49.4192" lon="0.23425">
        <ele>7.8</ele>
        <time>2022-05-31T09:28:56Z</time>
      </trkpt>
      <trkpt lat="49.4192" lon="0.23425">
        <ele>7.8</ele>
        <time>2022-05-31T09:28:57Z</time>
      </trkpt>
      <trkpt lat="49.4192" lon="0.23425">
        <ele>7.8</ele>
        <time>2022-05-31T09:28:58Z</time>
      </trkpt>
      <trkpt lat="49.4192" lon="0.23425">
        <ele>7.8</ele>
        <time>2022-05-31T09:28:59Z</time>
      </trkpt>
      <trkpt lat="49.4192" lon="0.23425">
        <ele>7.8</ele>
        <time>2022-05-31T09:29:00Z</time>
      </trkpt>
      <trkpt lat="49.4192" lon="0.2343">
        <ele>7.8</ele>
        <time>2022-05-31T09:29:01Z</time>
      </trkpt>
      <trkpt lat="49.41919" lon="0.23433">
        <ele>7.8</ele>
        <time>2022-05-31T09:29:02Z</time>
      </trkpt>
      <trkpt lat="49.41918" lon="0.23433">
        <ele>7.8</ele>
        <time>2022-05-31T09:29:03Z</time>
      </trkpt>
      <trkpt lat="49.41917" lon="0.23433">
        <ele>7.8</ele>
        <time>2022-05-31T09:29:04Z</time>
      </trkpt>
      <trkpt lat="49.41917" lon="0.23433">
        <ele>7.8</ele>
        <time>2022-05-31T09:29:05Z</time>
      </trkpt>
      <trkpt lat="49.41916" lon="0.23433">
        <ele>7.8</ele>
        <time>2022-05-31T09:29:06Z</time>
      </trkpt>
      <trkpt lat="49.41915" lon="0.23433">
        <ele>7.8</ele>
        <time>2022-05-31T09:29:08Z</time>
      </trkpt>
      <trkpt lat="49.41915" lon="0.23433">
        <ele>7.8</ele>
        <time>2022-05-31T09:29:09Z</time>
      </trkpt>
      <trkpt lat="49.41914" lon="0.23433">
        <ele>7.8</ele>
        <time>2022-05-31T09:29:10Z</time>
      </trkpt>
      <trkpt lat="49.41913" lon="0.23434">
        <ele>7.8</ele>
        <time>2022-05-31T09:29:11Z</time>
      </trkpt>
      <trkpt lat="49.41912" lon="0.23434">
        <ele>7.8</ele>
        <time>2022-05-31T09:29:12Z</time>
      </trkpt>
      <trkpt lat="49.41912" lon="0.23434">
        <ele>7.8</ele>
        <time>2022-05-31T09:29:13Z</time>
      </trkpt>
      <trkpt lat="49.41911" lon="0.23433">
        <ele>7.8</ele>
        <time>2022-05-31T09:29:14Z</time>
      </trkpt>
      <trkpt lat="49.4191" lon="0.23433">
        <ele>7.8</ele>
        <time>2022-05-31T09:29:16Z</time>
      </trkpt>
      <trkpt lat="49.41908" lon="0.23433">
        <ele>7.8</ele>
        <time>2022-05-31T09:29:17Z</time>
      </trkpt>
      <trkpt lat="49.41907" lon="0.23432">
        <ele>7.8</ele>
        <time>2022-05-31T09:29:18Z</time>
      </trkpt>
      <trkpt lat="49.41906" lon="0.23432">
        <ele>7.8</ele>
        <time>2022-05-31T09:29:19Z</time>
      </trkpt>
      <trkpt lat="49.41904" lon="0.23432">
        <ele>7.8</ele>
        <time>2022-05-31T09:29:20Z</time>
      </trkpt>
      <trkpt lat="49.41903" lon="0.23433">
        <ele>7.8</ele>
        <time>2022-05-31T09:29:22Z</time>
      </trkpt>
      <trkpt lat="49.41901" lon="0.23433">
        <ele>7.8</ele>
        <time>2022-05-31T09:29:23Z</time>
      </trkpt>
      <trkpt lat="49.41899" lon="0.23433">
        <ele>7.8</ele>
        <time>2022-05-31T09:29:24Z</time>
      </trkpt>
      <trkpt lat="49.41898" lon="0.23433">
        <ele>7.8</ele>
        <time>2022-05-31T09:29:25Z</time>
      </trkpt>
      <trkpt lat="49.41898" lon="0.23433">
        <ele>7.8</ele>
        <time>2022-05-31T09:29:26Z</time>
      </trkpt>
      <trkpt lat="49.41896" lon="0.23433">
        <ele>7.8</ele>
        <time>2022-05-31T09:29:28Z</time>
      </trkpt>
      <trkpt lat="49.41896" lon="0.23432">
        <ele>7.8</ele>
        <time>2022-05-31T09:29:29Z</time>
      </trkpt>
      <trkpt lat="49.41896" lon="0.23431">
        <ele>7.8</ele>
        <time>2022-05-31T09:29:30Z</time>
      </trkpt>
      <trkpt lat="49.41896" lon="0.2343">
        <ele>7.8</ele>
        <time>2022-05-31T09:29:31Z</time>
      </trkpt>
      <trkpt lat="49.41897" lon="0.2343">
        <ele>7.8</ele>
        <time>2022-05-31T09:29:32Z</time>
      </trkpt>
      <trkpt lat="49.41897" lon="0.2343">
        <ele>7.8</ele>
        <time>2022-05-31T09:29:33Z</time>
      </trkpt>
      <trkpt lat="49.41897" lon="0.2343">
        <ele>7.8</ele>
        <time>2022-05-31T09:29:34Z</time>
      </trkpt>
      <trkpt lat="49.41897" lon="0.23431">
        <ele>7.8</ele>
        <time>2022-05-31T09:29:35Z</time>
      </trkpt>
      <trkpt lat="49.41898" lon="0.23431">
        <ele>7.8</ele>
        <time>2022-05-31T09:29:36Z</time>
      </trkpt>
      <trkpt lat="49.41898" lon="0.23432">
        <ele>7.8</ele>
        <time>2022-05-31T09:29:37Z</time>
      </trkpt>
      <trkpt lat="49.41898" lon="0.23432">
        <ele>7.8</ele>
        <time>2022-05-31T09:29:38Z</time>
      </trkpt>
      <trkpt lat="49.41898" lon="0.23432">
        <ele>7.8</ele>
        <time>2022-05-31T09:29:40Z</time>
      </trkpt>
      <trkpt lat="49.41898" lon="0.23432">
        <ele>7.8</ele>
        <time>2022-05-31T09:29:41Z</time>
      </trkpt>
      <trkpt lat="49.41897" lon="0.2343">
        <ele>7.8</ele>
        <time>2022-05-31T09:29:42Z</time>
      </trkpt>
      <trkpt lat="49.41897" lon="0.2343">
        <ele>7.8</ele>
        <time>2022-05-31T09:29:43Z</time>
      </trkpt>
      <trkpt lat="49.41898" lon="0.23429">
        <ele>7.8</ele>
        <time>2022-05-31T09:29:44Z</time>
      </trkpt>
      <trkpt lat="49.41898" lon="0.23429">
        <ele>7.8</ele>
        <time>2022-05-31T09:29:45Z</time>
      </trkpt>
      <trkpt lat="49.41899" lon="0.23428">
        <ele>7.8</ele>
        <time>2022-05-31T09:29:46Z</time>
      </trkpt>
      <trkpt lat="49.41899" lon="0.2343">
        <ele>7.8</ele>
        <time>2022-05-31T09:29:47Z</time>
      </trkpt>
      <trkpt lat="49.419" lon="0.23431">
        <ele>7.8</ele>
        <time>2022-05-31T09:29:48Z</time>
      </trkpt>
      <trkpt lat="49.419" lon="0.23431">
        <ele>7.8</ele>
        <time>2022-05-31T09:29:49Z</time>
      </trkpt>
      <trkpt lat="49.419" lon="0.23431">
        <ele>7.8</ele>
        <time>2022-05-31T09:29:50Z</time>
      </trkpt>
      <trkpt lat="49.41899" lon="0.23431">
        <ele>7.8</ele>
        <time>2022-05-31T09:29:51Z</time>
      </trkpt>
      <trkpt lat="49.41899" lon="0.23431">
        <ele>7.8</ele>
        <time>2022-05-31T09:29:52Z</time>
      </trkpt>
      <trkpt lat="49.419" lon="0.23431">
        <ele>7.8</ele>
        <time>2022-05-31T09:29:54Z</time>
      </trkpt>
      <trkpt lat="49.419" lon="0.23431">
        <ele>7.8</ele>
        <time>2022-05-31T09:29:55Z</time>
      </trkpt>
      <trkpt lat="49.419" lon="0.23432">
        <ele>7.8</ele>
        <time>2022-05-31T09:29:57Z</time>
      </trkpt>
      <trkpt lat="49.419" lon="0.23432">
        <ele>7.8</ele>
        <time>2022-05-31T09:29:58Z</time>
      </trkpt>
      <trkpt lat="49.419" lon="0.23431">
        <ele>7.8</ele>
        <time>2022-05-31T09:29:59Z</time>
      </trkpt>
      <trkpt lat="49.419" lon="0.2343">
        <ele>7.8</ele>
        <time>2022-05-31T09:30:01Z</time>
      </trkpt>
      <trkpt lat="49.41901" lon="0.2343">
        <ele>7.8</ele>
        <time>2022-05-31T09:30:02Z</time>
      </trkpt>
      <trkpt lat="49.41902" lon="0.23431">
        <ele>7.8</ele>
        <time>2022-05-31T09:30:03Z</time>
      </trkpt>
      <trkpt lat="49.41901" lon="0.23431">
        <ele>7.8</ele>
        <time>2022-05-31T09:30:04Z</time>
      </trkpt>
      <trkpt lat="49.41901" lon="0.23432">
        <ele>7.8</ele>
        <time>2022-05-31T09:30:05Z</time>
      </trkpt>
      <trkpt lat="49.41901" lon="0.23433">
        <ele>7.8</ele>
        <time>2022-05-31T09:30:06Z</time>
      </trkpt>
      <trkpt lat="49.419" lon="0.23433">
        <ele>7.8</ele>
        <time>2022-05-31T09:30:07Z</time>
      </trkpt>
      <trkpt lat="49.41899" lon="0.23432">
        <ele>7.8</ele>
        <time>2022-05-31T09:30:09Z</time>
      </trkpt>
      <trkpt lat="49.41898" lon="0.23433">
        <ele>7.8</ele>
        <time>2022-05-31T09:30:10Z</time>
      </trkpt>
      <trkpt lat="49.41897" lon="0.23433">
        <ele>7.8</ele>
        <time>2022-05-31T09:30:11Z</time>
      </trkpt>
      <trkpt lat="49.41897" lon="0.23433">
        <ele>7.8</ele>
        <time>2022-05-31T09:30:12Z</time>
      </trkpt>
      <trkpt lat="49.41896" lon="0.23434">
        <ele>7.8</ele>
        <time>2022-05-31T09:30:13Z</time>
      </trkpt>
      <trkpt lat="49.41896" lon="0.23435">
        <ele>7.8</ele>
        <time>2022-05-31T09:30:14Z</time>
      </trkpt>
      <trkpt lat="49.41895" lon="0.23435">
        <ele>7.8</ele>
        <time>2022-05-31T09:30:15Z</time>
      </trkpt>
      <trkpt lat="49.41894" lon="0.23436">
        <ele>7.8</ele>
        <time>2022-05-31T09:30:17Z</time>
      </trkpt>
      <trkpt lat="49.41893" lon="0.23434">
        <ele>7.8</ele>
        <time>2022-05-31T09:30:18Z</time>
      </trkpt>
      <trkpt lat="49.41892" lon="0.23433">
        <ele>7.8</ele>
        <time>2022-05-31T09:30:20Z</time>
      </trkpt>
      <trkpt lat="49.41892" lon="0.23432">
        <ele>7.8</ele>
        <time>2022-05-31T09:30:21Z</time>
      </trkpt>
      <trkpt lat="49.41892" lon="0.23433">
        <ele>7.8</ele>
        <time>2022-05-31T09:30:23Z</time>
      </trkpt>
      <trkpt lat="49.41893" lon="0.23434">
        <ele>7.8</ele>
        <time>2022-05-31T09:30:25Z</time>
      </trkpt>
      <trkpt lat="49.41893" lon="0.23434">
        <ele>7.8</ele>
        <time>2022-05-31T09:30:26Z</time>
      </trkpt>
      <trkpt lat="49.41893" lon="0.23434">
        <ele>7.8</ele>
        <time>2022-05-31T09:30:27Z</time>
      </trkpt>
      <trkpt lat="49.41893" lon="0.23434">
        <ele>7.8</ele>
        <time>2022-05-31T09:30:28Z</time>
      </trkpt>
      <trkpt lat="49.41894" lon="0.23435">
        <ele>7.8</ele>
        <time>2022-05-31T09:30:30Z</time>
      </trkpt>
      <trkpt lat="49.41894" lon="0.23434">
        <ele>7.8</ele>
        <time>2022-05-31T09:30:31Z</time>
      </trkpt>
      <trkpt lat="49.41894" lon="0.23434">
        <ele>7.8</ele>
        <time>2022-05-31T09:30:32Z</time>
      </trkpt>
      <trkpt lat="49.41895" lon="0.23434">
        <ele>7.8</ele>
        <time>2022-05-31T09:30:33Z</time>
      </trkpt>
      <trkpt lat="49.41895" lon="0.23434">
        <ele>7.8</ele>
        <time>2022-05-31T09:30:35Z</time>
      </trkpt>
      <trkpt lat="49.41895" lon="0.23434">
        <ele>7.8</ele>
        <time>2022-05-31T09:30:36Z</time>
      </trkpt>
      <trkpt lat="49.41895" lon="0.23434">
        <ele>7.8</ele>
        <time>2022-05-31T09:30:37Z</time>
      </trkpt>
      <trkpt lat="49.41894" lon="0.23435">
        <ele>7.8</ele>
        <time>2022-05-31T09:30:38Z</time>
      </trkpt>
      <trkpt lat="49.41894" lon="0.23435">
        <ele>7.8</ele>
        <time>2022-05-31T09:30:39Z</time>
      </trkpt>
      <trkpt lat="49.41894" lon="0.23436">
        <ele>7.8</ele>
        <time>2022-05-31T09:30:40Z</time>
      </trkpt>
      <trkpt lat="49.41894" lon="0.23436">
        <ele>7.8</ele>
        <time>2022-05-31T09:30:41Z</time>
      </trkpt>
      <trkpt lat="49.41894" lon="0.23436">
        <ele>7.8</ele>
        <time>2022-05-31T09:30:42Z</time>
      </trkpt>
      <trkpt lat="49.41894" lon="0.23436">
        <ele>7.8</ele>
        <time>2022-05-31T09:30:43Z</time>
      </trkpt>
      <trkpt lat="49.41894" lon="0.23436">
        <ele>7.8</ele>
        <time>2022-05-31T09:30:44Z</time>
      </trkpt>
      <trkpt lat="49.41894" lon="0.23436">
        <ele>7.8</ele>
        <time>2022-05-31T09:30:45Z</time>
      </trkpt>
      <trkpt lat="49.41894" lon="0.23436">
        <ele>7.8</ele>
        <time>2022-05-31T09:30:46Z</time>
      </trkpt>
      <trkpt lat="49.41894" lon="0.23436">
        <ele>7.8</ele>
        <time>2022-05-31T09:30:47Z</time>
      </trkpt>
      <trkpt lat="49.41894" lon="0.23436">
        <ele>7.8</ele>
        <time>2022-05-31T09:30:48Z</time>
      </trkpt>
      <trkpt lat="49.41894" lon="0.23436">
        <ele>7.8</ele>
        <time>2022-05-31T09:30:49Z</time>
      </trkpt>
      <trkpt lat="49.41894" lon="0.23436">
        <ele>7.8</ele>
        <time>2022-05-31T09:30:50Z</time>
      </trkpt>
      <trkpt lat="49.41894" lon="0.23436">
        <ele>7.8</ele>
        <time>2022-05-31T09:30:51Z</time>
      </trkpt>
      <trkpt lat="49.41894" lon="0.23436">
        <ele>7.8</ele>
        <time>2022-05-31T09:30:52Z</time>
      </trkpt>
      <trkpt lat="49.41894" lon="0.23436">
        <ele>7.8</ele>
        <time>2022-05-31T09:30:53Z</time>
      </trkpt>
      <trkpt lat="49.41893" lon="0.23436">
        <ele>7.8</ele>
        <time>2022-05-31T09:30:54Z</time>
      </trkpt>
      <trkpt lat="49.41893" lon="0.23436">
        <ele>7.8</ele>
        <time>2022-05-31T09:30:55Z</time>
      </trkpt>
      <trkpt lat="49.41894" lon="0.23433">
        <ele>7.8</ele>
        <time>2022-05-31T09:30:56Z</time>
      </trkpt>
      <trkpt lat="49.41895" lon="0.23432">
        <ele>7.8</ele>
        <time>2022-05-31T09:30:57Z</time>
      </trkpt>
      <trkpt lat="49.41895" lon="0.2343">
        <ele>7.8</ele>
        <time>2022-05-31T09:30:59Z</time>
      </trkpt>
      <trkpt lat="49.41893" lon="0.2343">
        <ele>7.8</ele>
        <time>2022-05-31T09:31:00Z</time>
      </trkpt>
      <trkpt lat="49.41892" lon="0.23431">
        <ele>7.8</ele>
        <time>2022-05-31T09:31:01Z</time>
      </trkpt>
      <trkpt lat="49.41891" lon="0.23431">
        <ele>7.8</ele>
        <time>2022-05-31T09:31:03Z</time>
      </trkpt>
      <trkpt lat="49.4189" lon="0.23432">
        <ele>7.8</ele>
        <time>2022-05-31T09:31:04Z</time>
      </trkpt>
      <trkpt lat="49.41889" lon="0.23432">
        <ele>7.8</ele>
        <time>2022-05-31T09:31:05Z</time>
      </trkpt>
      <trkpt lat="49.41887" lon="0.23434">
        <ele>7.8</ele>
        <time>2022-05-31T09:31:06Z</time>
      </trkpt>
      <trkpt lat="49.41887" lon="0.23436">
        <ele>7.8</ele>
        <time>2022-05-31T09:31:08Z</time>
      </trkpt>
      <trkpt lat="49.41887" lon="0.23437">
        <ele>7.8</ele>
        <time>2022-05-31T09:31:09Z</time>
      </trkpt>
      <trkpt lat="49.41887" lon="0.23439">
        <ele>7.8</ele>
        <time>2022-05-31T09:31:10Z</time>
      </trkpt>
      <trkpt lat="49.41886" lon="0.2344">
        <ele>7.8</ele>
        <time>2022-05-31T09:31:11Z</time>
      </trkpt>
      <trkpt lat="49.41886" lon="0.23442">
        <ele>7.8</ele>
        <time>2022-05-31T09:31:12Z</time>
      </trkpt>
      <trkpt lat="49.41887" lon="0.23444">
        <ele>7.8</ele>
        <time>2022-05-31T09:31:13Z</time>
      </trkpt>
      <trkpt lat="49.41887" lon="0.23446">
        <ele>7.8</ele>
        <time>2022-05-31T09:31:15Z</time>
      </trkpt>
      <trkpt lat="49.41886" lon="0.23447">
        <ele>7.8</ele>
        <time>2022-05-31T09:31:16Z</time>
      </trkpt>
      <trkpt lat="49.41886" lon="0.23447">
        <ele>7.8</ele>
        <time>2022-05-31T09:31:17Z</time>
      </trkpt>
      <trkpt lat="49.41885" lon="0.23449">
        <ele>7.8</ele>
        <time>2022-05-31T09:31:18Z</time>
      </trkpt>
      <trkpt lat="49.41885" lon="0.23451">
        <ele>7.8</ele>
        <time>2022-05-31T09:31:19Z</time>
      </trkpt>
      <trkpt lat="49.41884" lon="0.23452">
        <ele>7.8</ele>
        <time>2022-05-31T09:31:20Z</time>
      </trkpt>
      <trkpt lat="49.41884" lon="0.23453">
        <ele>7.7</ele>
        <time>2022-05-31T09:31:21Z</time>
      </trkpt>
      <trkpt lat="49.41884" lon="0.23454">
        <ele>7.7</ele>
        <time>2022-05-31T09:31:22Z</time>
      </trkpt>
      <trkpt lat="49.41883" lon="0.23458">
        <ele>7.7</ele>
        <time>2022-05-31T09:31:24Z</time>
      </trkpt>
      <trkpt lat="49.41882" lon="0.2346">
        <ele>7.7</ele>
        <time>2022-05-31T09:31:25Z</time>
      </trkpt>
      <trkpt lat="49.41882" lon="0.23461">
        <ele>7.7</ele>
        <time>2022-05-31T09:31:26Z</time>
      </trkpt>
      <trkpt lat="49.41882" lon="0.23462">
        <ele>7.7</ele>
        <time>2022-05-31T09:31:27Z</time>
      </trkpt>
      <trkpt lat="49.41882" lon="0.23464">
        <ele>7.7</ele>
        <time>2022-05-31T09:31:28Z</time>
      </trkpt>
      <trkpt lat="49.41882" lon="0.23465">
        <ele>7.7</ele>
        <time>2022-05-31T09:31:29Z</time>
      </trkpt>
      <trkpt lat="49.41882" lon="0.23466">
        <ele>7.7</ele>
        <time>2022-05-31T09:31:30Z</time>
      </trkpt>
      <trkpt lat="49.41881" lon="0.23467">
        <ele>7.7</ele>
        <time>2022-05-31T09:31:31Z</time>
      </trkpt>
      <trkpt lat="49.41881" lon="0.23468">
        <ele>7.7</ele>
        <time>2022-05-31T09:31:32Z</time>
      </trkpt>
      <trkpt lat="49.41881" lon="0.2347">
        <ele>7.6</ele>
        <time>2022-05-31T09:31:33Z</time>
      </trkpt>
      <trkpt lat="49.41881" lon="0.23472">
        <ele>7.6</ele>
        <time>2022-05-31T09:31:35Z</time>
      </trkpt>
      <trkpt lat="49.41881" lon="0.23474">
        <ele>7.6</ele>
        <time>2022-05-31T09:31:36Z</time>
      </trkpt>
      <trkpt lat="49.41881" lon="0.23476">
        <ele>7.6</ele>
        <time>2022-05-31T09:31:37Z</time>
      </trkpt>
      <trkpt lat="49.41881" lon="0.23479">
        <ele>7.6</ele>
        <time>2022-05-31T09:31:38Z</time>
      </trkpt>
      <trkpt lat="49.41881" lon="0.23481">
        <ele>7.6</ele>
        <time>2022-05-31T09:31:39Z</time>
      </trkpt>
      <trkpt lat="49.4188" lon="0.23484">
        <ele>7.5</ele>
        <time>2022-05-31T09:31:40Z</time>
      </trkpt>
      <trkpt lat="49.4188" lon="0.23486">
        <ele>7.5</ele>
        <time>2022-05-31T09:31:41Z</time>
      </trkpt>
      <trkpt lat="49.41881" lon="0.23489">
        <ele>7.5</ele>
        <time>2022-05-31T09:31:42Z</time>
      </trkpt>
      <trkpt lat="49.41881" lon="0.23491">
        <ele>7.5</ele>
        <time>2022-05-31T09:31:43Z</time>
      </trkpt>
      <trkpt lat="49.41881" lon="0.23494">
        <ele>7.5</ele>
        <time>2022-05-31T09:31:44Z</time>
      </trkpt>
      <trkpt lat="49.41881" lon="0.23496">
        <ele>7.4</ele>
        <time>2022-05-31T09:31:46Z</time>
      </trkpt>
      <trkpt lat="49.41881" lon="0.23497">
        <ele>7.4</ele>
        <time>2022-05-31T09:31:47Z</time>
      </trkpt>
      <trkpt lat="49.41881" lon="0.23499">
        <ele>7.4</ele>
        <time>2022-05-31T09:31:48Z</time>
      </trkpt>
      <trkpt lat="49.41881" lon="0.23501">
        <ele>7.4</ele>
        <time>2022-05-31T09:31:49Z</time>
      </trkpt>
      <trkpt lat="49.4188" lon="0.23503">
        <ele>7.4</ele>
        <time>2022-05-31T09:31:50Z</time>
      </trkpt>
      <trkpt lat="49.4188" lon="0.23505">
        <ele>7.4</ele>
        <time>2022-05-31T09:31:51Z</time>
      </trkpt>
      <trkpt lat="49.4188" lon="0.23507">
        <ele>7.4</ele>
        <time>2022-05-31T09:31:52Z</time>
      </trkpt>
      <trkpt lat="49.41879" lon="0.23509">
        <ele>7.4</ele>
        <time>2022-05-31T09:31:53Z</time>
      </trkpt>
      <trkpt lat="49.41879" lon="0.23511">
        <ele>7.4</ele>
        <time>2022-05-31T09:31:54Z</time>
      </trkpt>
      <trkpt lat="49.41879" lon="0.23512">
        <ele>7.3</ele>
        <time>2022-05-31T09:31:55Z</time>
      </trkpt>
      <trkpt lat="49.41879" lon="0.23513">
        <ele>7.3</ele>
        <time>2022-05-31T09:31:57Z</time>
      </trkpt>
      <trkpt lat="49.41879" lon="0.23515">
        <ele>7.3</ele>
        <time>2022-05-31T09:31:58Z</time>
      </trkpt>
      <trkpt lat="49.41879" lon="0.23516">
        <ele>7.3</ele>
        <time>2022-05-31T09:31:59Z</time>
      </trkpt>
      <trkpt lat="49.41879" lon="0.23518">
        <ele>7.3</ele>
        <time>2022-05-31T09:32:00Z</time>
      </trkpt>
      <trkpt lat="49.41878" lon="0.2352">
        <ele>7.3</ele>
        <time>2022-05-31T09:32:01Z</time>
      </trkpt>
      <trkpt lat="49.41878" lon="0.23523">
        <ele>7.3</ele>
        <time>2022-05-31T09:32:02Z</time>
      </trkpt>
      <trkpt lat="49.41878" lon="0.23524">
        <ele>7.3</ele>
        <time>2022-05-31T09:32:03Z</time>
      </trkpt>
      <trkpt lat="49.41878" lon="0.23525">
        <ele>7.3</ele>
        <time>2022-05-31T09:32:04Z</time>
      </trkpt>
      <trkpt lat="49.41878" lon="0.23526">
        <ele>7.3</ele>
        <time>2022-05-31T09:32:05Z</time>
      </trkpt>
      <trkpt lat="49.41878" lon="0.23528">
        <ele>7.3</ele>
        <time>2022-05-31T09:32:07Z</time>
      </trkpt>
      <trkpt lat="49.41878" lon="0.23531">
        <ele>7.3</ele>
        <time>2022-05-31T09:32:08Z</time>
      </trkpt>
      <trkpt lat="49.41878" lon="0.23534">
        <ele>7.3</ele>
        <time>2022-05-31T09:32:09Z</time>
      </trkpt>
      <trkpt lat="49.41878" lon="0.23538">
        <ele>7.3</ele>
        <time>2022-05-31T09:32:10Z</time>
      </trkpt>
      <trkpt lat="49.41879" lon="0.23539">
        <ele>7.3</ele>
        <time>2022-05-31T09:32:11Z</time>
      </trkpt>
      <trkpt lat="49.41879" lon="0.23542">
        <ele>7.3</ele>
        <time>2022-05-31T09:32:12Z</time>
      </trkpt>
      <trkpt lat="49.41879" lon="0.23542">
        <ele>7.3</ele>
        <time>2022-05-31T09:32:13Z</time>
      </trkpt>
      <trkpt lat="49.41879" lon="0.23543">
        <ele>7.3</ele>
        <time>2022-05-31T09:32:15Z</time>
      </trkpt>
      <trkpt lat="49.41879" lon="0.23544">
        <ele>7.2</ele>
        <time>2022-05-31T09:32:16Z</time>
      </trkpt>
      <trkpt lat="49.41878" lon="0.23546">
        <ele>7.2</ele>
        <time>2022-05-31T09:32:17Z</time>
      </trkpt>
      <trkpt lat="49.41877" lon="0.23547">
        <ele>7.2</ele>
        <time>2022-05-31T09:32:18Z</time>
      </trkpt>
      <trkpt lat="49.41877" lon="0.23551">
        <ele>7.1</ele>
        <time>2022-05-31T09:32:20Z</time>
      </trkpt>
      <trkpt lat="49.41876" lon="0.23553">
        <ele>7.1</ele>
        <time>2022-05-31T09:32:21Z</time>
      </trkpt>
      <trkpt lat="49.41876" lon="0.23554">
        <ele>7.1</ele>
        <time>2022-05-31T09:32:22Z</time>
      </trkpt>
      <trkpt lat="49.41874" lon="0.23553">
        <ele>7</ele>
        <time>2022-05-31T09:32:24Z</time>
      </trkpt>
      <trkpt lat="49.41874" lon="0.23553">
        <ele>7</ele>
        <time>2022-05-31T09:32:25Z</time>
      </trkpt>
      <trkpt lat="49.41873" lon="0.23552">
        <ele>7</ele>
        <time>2022-05-31T09:32:27Z</time>
      </trkpt>
      <trkpt lat="49.41872" lon="0.23552">
        <ele>7</ele>
        <time>2022-05-31T09:32:29Z</time>
      </trkpt>
      <trkpt lat="49.41872" lon="0.23554">
        <ele>7</ele>
        <time>2022-05-31T09:32:30Z</time>
      </trkpt>
      <trkpt lat="49.41872" lon="0.23555">
        <ele>6.9</ele>
        <time>2022-05-31T09:32:31Z</time>
      </trkpt>
      <trkpt lat="49.41872" lon="0.23557">
        <ele>6.9</ele>
        <time>2022-05-31T09:32:32Z</time>
      </trkpt>
      <trkpt lat="49.41872" lon="0.23559">
        <ele>6.9</ele>
        <time>2022-05-31T09:32:34Z</time>
      </trkpt>
      <trkpt lat="49.41873" lon="0.23561">
        <ele>6.9</ele>
        <time>2022-05-31T09:32:35Z</time>
      </trkpt>
      <trkpt lat="49.41874" lon="0.23562">
        <ele>6.8</ele>
        <time>2022-05-31T09:32:36Z</time>
      </trkpt>
      <trkpt lat="49.41875" lon="0.23564">
        <ele>6.8</ele>
        <time>2022-05-31T09:32:37Z</time>
      </trkpt>
      <trkpt lat="49.41875" lon="0.23565">
        <ele>6.8</ele>
        <time>2022-05-31T09:32:38Z</time>
      </trkpt>
      <trkpt lat="49.41876" lon="0.23567">
        <ele>6.7</ele>
        <time>2022-05-31T09:32:40Z</time>
      </trkpt>
      <trkpt lat="49.41876" lon="0.23568">
        <ele>6.7</ele>
        <time>2022-05-31T09:32:41Z</time>
      </trkpt>
      <trkpt lat="49.41877" lon="0.2357">
        <ele>6.7</ele>
        <time>2022-05-31T09:32:42Z</time>
      </trkpt>
      <trkpt lat="49.41877" lon="0.23572">
        <ele>6.7</ele>
        <time>2022-05-31T09:32:43Z</time>
      </trkpt>
      <trkpt lat="49.41877" lon="0.23574">
        <ele>6.7</ele>
        <time>2022-05-31T09:32:44Z</time>
      </trkpt>
      <trkpt lat="49.41877" lon="0.23575">
        <ele>6.7</ele>
        <time>2022-05-31T09:32:45Z</time>
      </trkpt>
      <trkpt lat="49.41877" lon="0.23577">
        <ele>6.7</ele>
        <time>2022-05-31T09:32:46Z</time>
      </trkpt>
      <trkpt lat="49.41876" lon="0.2358">
        <ele>6.7</ele>
        <time>2022-05-31T09:32:48Z</time>
      </trkpt>
      <trkpt lat="49.41875" lon="0.23581">
        <ele>6.7</ele>
        <time>2022-05-31T09:32:49Z</time>
      </trkpt>
      <trkpt lat="49.41874" lon="0.23582">
        <ele>6.7</ele>
        <time>2022-05-31T09:32:50Z</time>
      </trkpt>
      <trkpt lat="49.41873" lon="0.23583">
        <ele>6.7</ele>
        <time>2022-05-31T09:32:51Z</time>
      </trkpt>
      <trkpt lat="49.41872" lon="0.23586">
        <ele>6.7</ele>
        <time>2022-05-31T09:32:52Z</time>
      </trkpt>
      <trkpt lat="49.41871" lon="0.23588">
        <ele>6.7</ele>
        <time>2022-05-31T09:32:54Z</time>
      </trkpt>
      <trkpt lat="49.41871" lon="0.2359">
        <ele>6.7</ele>
        <time>2022-05-31T09:32:55Z</time>
      </trkpt>
      <trkpt lat="49.41871" lon="0.23591">
        <ele>6.7</ele>
        <time>2022-05-31T09:32:56Z</time>
      </trkpt>
      <trkpt lat="49.4187" lon="0.23592">
        <ele>6.7</ele>
        <time>2022-05-31T09:32:57Z</time>
      </trkpt>
      <trkpt lat="49.4187" lon="0.23593">
        <ele>6.7</ele>
        <time>2022-05-31T09:32:58Z</time>
      </trkpt>
      <trkpt lat="49.4187" lon="0.23593">
        <ele>6.7</ele>
        <time>2022-05-31T09:33:00Z</time>
      </trkpt>
      <trkpt lat="49.41869" lon="0.23593">
        <ele>6.7</ele>
        <time>2022-05-31T09:33:01Z</time>
      </trkpt>
      <trkpt lat="49.41868" lon="0.23593">
        <ele>6.7</ele>
        <time>2022-05-31T09:33:02Z</time>
      </trkpt>
      <trkpt lat="49.41868" lon="0.23594">
        <ele>6.7</ele>
        <time>2022-05-31T09:33:03Z</time>
      </trkpt>
      <trkpt lat="49.41867" lon="0.23596">
        <ele>6.7</ele>
        <time>2022-05-31T09:33:04Z</time>
      </trkpt>
      <trkpt lat="49.41866" lon="0.23597">
        <ele>6.7</ele>
        <time>2022-05-31T09:33:05Z</time>
      </trkpt>
      <trkpt lat="49.41865" lon="0.23598">
        <ele>6.7</ele>
        <time>2022-05-31T09:33:06Z</time>
      </trkpt>
      <trkpt lat="49.41865" lon="0.23596">
        <ele>6.7</ele>
        <time>2022-05-31T09:33:07Z</time>
      </trkpt>
      <trkpt lat="49.41865" lon="0.23597">
        <ele>6.7</ele>
        <time>2022-05-31T09:33:08Z</time>
      </trkpt>
      <trkpt lat="49.41864" lon="0.23598">
        <ele>6.7</ele>
        <time>2022-05-31T09:33:09Z</time>
      </trkpt>
      <trkpt lat="49.41863" lon="0.236">
        <ele>6.7</ele>
        <time>2022-05-31T09:33:11Z</time>
      </trkpt>
      <trkpt lat="49.41862" lon="0.23601">
        <ele>6.7</ele>
        <time>2022-05-31T09:33:12Z</time>
      </trkpt>
      <trkpt lat="49.41862" lon="0.23603">
        <ele>6.7</ele>
        <time>2022-05-31T09:33:13Z</time>
      </trkpt>
      <trkpt lat="49.41861" lon="0.23604">
        <ele>6.7</ele>
        <time>2022-05-31T09:33:15Z</time>
      </trkpt>
      <trkpt lat="49.41861" lon="0.23605">
        <ele>6.7</ele>
        <time>2022-05-31T09:33:16Z</time>
      </trkpt>
      <trkpt lat="49.4186" lon="0.23604">
        <ele>6.7</ele>
        <time>2022-05-31T09:33:17Z</time>
      </trkpt>
      <trkpt lat="49.4186" lon="0.23604">
        <ele>6.7</ele>
        <time>2022-05-31T09:33:18Z</time>
      </trkpt>
      <trkpt lat="49.4186" lon="0.23604">
        <ele>6.7</ele>
        <time>2022-05-31T09:33:19Z</time>
      </trkpt>
      <trkpt lat="49.4186" lon="0.23603">
        <ele>6.7</ele>
        <time>2022-05-31T09:33:20Z</time>
      </trkpt>
      <trkpt lat="49.4186" lon="0.23603">
        <ele>6.7</ele>
        <time>2022-05-31T09:33:21Z</time>
      </trkpt>
      <trkpt lat="49.4186" lon="0.23603">
        <ele>6.7</ele>
        <time>2022-05-31T09:33:22Z</time>
      </trkpt>
      <trkpt lat="49.41861" lon="0.23603">
        <ele>6.7</ele>
        <time>2022-05-31T09:33:23Z</time>
      </trkpt>
      <trkpt lat="49.4186" lon="0.23603">
        <ele>6.7</ele>
        <time>2022-05-31T09:33:24Z</time>
      </trkpt>
      <trkpt lat="49.4186" lon="0.23603">
        <ele>6.7</ele>
        <time>2022-05-31T09:33:25Z</time>
      </trkpt>
      <trkpt lat="49.4186" lon="0.23602">
        <ele>6.7</ele>
        <time>2022-05-31T09:33:26Z</time>
      </trkpt>
      <trkpt lat="49.4186" lon="0.23602">
        <ele>6.7</ele>
        <time>2022-05-31T09:33:27Z</time>
      </trkpt>
      <trkpt lat="49.4186" lon="0.23602">
        <ele>6.7</ele>
        <time>2022-05-31T09:33:28Z</time>
      </trkpt>
      <trkpt lat="49.41861" lon="0.23602">
        <ele>6.7</ele>
        <time>2022-05-31T09:33:29Z</time>
      </trkpt>
      <trkpt lat="49.41861" lon="0.23602">
        <ele>6.7</ele>
        <time>2022-05-31T09:33:30Z</time>
      </trkpt>
      <trkpt lat="49.41862" lon="0.23602">
        <ele>6.7</ele>
        <time>2022-05-31T09:33:31Z</time>
      </trkpt>
      <trkpt lat="49.41863" lon="0.23602">
        <ele>6.7</ele>
        <time>2022-05-31T09:33:32Z</time>
      </trkpt>
      <trkpt lat="49.41863" lon="0.23602">
        <ele>6.7</ele>
        <time>2022-05-31T09:33:33Z</time>
      </trkpt>
      <trkpt lat="49.41863" lon="0.23602">
        <ele>6.7</ele>
        <time>2022-05-31T09:33:34Z</time>
      </trkpt>
      <trkpt lat="49.41863" lon="0.23602">
        <ele>6.7</ele>
        <time>2022-05-31T09:33:35Z</time>
      </trkpt>
      <trkpt lat="49.41862" lon="0.23604">
        <ele>6.7</ele>
        <time>2022-05-31T09:33:36Z</time>
      </trkpt>
      <trkpt lat="49.41862" lon="0.23605">
        <ele>6.7</ele>
        <time>2022-05-31T09:33:37Z</time>
      </trkpt>
      <trkpt lat="49.41862" lon="0.23606">
        <ele>6.7</ele>
        <time>2022-05-31T09:33:38Z</time>
      </trkpt>
      <trkpt lat="49.41861" lon="0.23606">
        <ele>6.7</ele>
        <time>2022-05-31T09:33:39Z</time>
      </trkpt>
      <trkpt lat="49.41861" lon="0.23606">
        <ele>6.7</ele>
        <time>2022-05-31T09:33:40Z</time>
      </trkpt>
      <trkpt lat="49.41861" lon="0.23606">
        <ele>6.7</ele>
        <time>2022-05-31T09:33:41Z</time>
      </trkpt>
      <trkpt lat="49.41861" lon="0.23607">
        <ele>6.7</ele>
        <time>2022-05-31T09:33:42Z</time>
      </trkpt>
      <trkpt lat="49.41861" lon="0.23607">
        <ele>6.7</ele>
        <time>2022-05-31T09:33:43Z</time>
      </trkpt>
      <trkpt lat="49.41861" lon="0.23607">
        <ele>6.7</ele>
        <time>2022-05-31T09:33:44Z</time>
      </trkpt>
      <trkpt lat="49.41861" lon="0.23607">
        <ele>6.7</ele>
        <time>2022-05-31T09:33:45Z</time>
      </trkpt>
      <trkpt lat="49.41861" lon="0.23607">
        <ele>6.7</ele>
        <time>2022-05-31T09:33:46Z</time>
      </trkpt>
      <trkpt lat="49.41861" lon="0.23607">
        <ele>6.7</ele>
        <time>2022-05-31T09:33:47Z</time>
      </trkpt>
      <trkpt lat="49.41861" lon="0.23607">
        <ele>6.7</ele>
        <time>2022-05-31T09:33:48Z</time>
      </trkpt>
      <trkpt lat="49.41861" lon="0.23607">
        <ele>6.7</ele>
        <time>2022-05-31T09:33:49Z</time>
      </trkpt>
      <trkpt lat="49.41861" lon="0.23607">
        <ele>6.7</ele>
        <time>2022-05-31T09:33:50Z</time>
      </trkpt>
      <trkpt lat="49.41861" lon="0.23607">
        <ele>6.7</ele>
        <time>2022-05-31T09:33:51Z</time>
      </trkpt>
      <trkpt lat="49.41861" lon="0.23607">
        <ele>6.7</ele>
        <time>2022-05-31T09:33:52Z</time>
      </trkpt>
      <trkpt lat="49.41861" lon="0.23607">
        <ele>6.7</ele>
        <time>2022-05-31T09:33:53Z</time>
      </trkpt>
      <trkpt lat="49.41861" lon="0.23607">
        <ele>6.7</ele>
        <time>2022-05-31T09:33:54Z</time>
      </trkpt>
      <trkpt lat="49.41861" lon="0.23606">
        <ele>6.7</ele>
        <time>2022-05-31T09:33:55Z</time>
      </trkpt>
      <trkpt lat="49.41861" lon="0.23604">
        <ele>6.7</ele>
        <time>2022-05-31T09:33:57Z</time>
      </trkpt>
      <trkpt lat="49.41862" lon="0.23603">
        <ele>6.7</ele>
        <time>2022-05-31T09:33:58Z</time>
      </trkpt>
      <trkpt lat="49.41863" lon="0.23602">
        <ele>6.7</ele>
        <time>2022-05-31T09:34:00Z</time>
      </trkpt>
      <trkpt lat="49.41864" lon="0.236">
        <ele>6.7</ele>
        <time>2022-05-31T09:34:01Z</time>
      </trkpt>
      <trkpt lat="49.41865" lon="0.23598">
        <ele>6.7</ele>
        <time>2022-05-31T09:34:02Z</time>
      </trkpt>
      <trkpt lat="49.41865" lon="0.23595">
        <ele>6.7</ele>
        <time>2022-05-31T09:34:04Z</time>
      </trkpt>
      <trkpt lat="49.41865" lon="0.23594">
        <ele>6.7</ele>
        <time>2022-05-31T09:34:05Z</time>
      </trkpt>
      <trkpt lat="49.41864" lon="0.23594">
        <ele>6.7</ele>
        <time>2022-05-31T09:34:06Z</time>
      </trkpt>
      <trkpt lat="49.41864" lon="0.23595">
        <ele>6.7</ele>
        <time>2022-05-31T09:34:07Z</time>
      </trkpt>
      <trkpt lat="49.41863" lon="0.23597">
        <ele>6.7</ele>
        <time>2022-05-31T09:34:08Z</time>
      </trkpt>
      <trkpt lat="49.41863" lon="0.23598">
        <ele>6.7</ele>
        <time>2022-05-31T09:34:09Z</time>
      </trkpt>
      <trkpt lat="49.41863" lon="0.23599">
        <ele>6.7</ele>
        <time>2022-05-31T09:34:10Z</time>
      </trkpt>
      <trkpt lat="49.41863" lon="0.236">
        <ele>6.7</ele>
        <time>2022-05-31T09:34:12Z</time>
      </trkpt>
      <trkpt lat="49.41862" lon="0.23601">
        <ele>6.7</ele>
        <time>2022-05-31T09:34:13Z</time>
      </trkpt>
      <trkpt lat="49.41861" lon="0.23604">
        <ele>6.7</ele>
        <time>2022-05-31T09:34:14Z</time>
      </trkpt>
      <trkpt lat="49.4186" lon="0.23605">
        <ele>6.7</ele>
        <time>2022-05-31T09:34:15Z</time>
      </trkpt>
      <trkpt lat="49.41859" lon="0.23606">
        <ele>6.7</ele>
        <time>2022-05-31T09:34:16Z</time>
      </trkpt>
      <trkpt lat="49.41858" lon="0.23607">
        <ele>6.7</ele>
        <time>2022-05-31T09:34:17Z</time>
      </trkpt>
      <trkpt lat="49.41857" lon="0.23608">
        <ele>6.7</ele>
        <time>2022-05-31T09:34:18Z</time>
      </trkpt>
      <trkpt lat="49.41856" lon="0.23608">
        <ele>6.7</ele>
        <time>2022-05-31T09:34:19Z</time>
      </trkpt>
      <trkpt lat="49.41855" lon="0.23608">
        <ele>6.7</ele>
        <time>2022-05-31T09:34:20Z</time>
      </trkpt>
      <trkpt lat="49.41855" lon="0.23607">
        <ele>6.7</ele>
        <time>2022-05-31T09:34:21Z</time>
      </trkpt>
      <trkpt lat="49.41854" lon="0.23607">
        <ele>6.7</ele>
        <time>2022-05-31T09:34:22Z</time>
      </trkpt>
      <trkpt lat="49.41854" lon="0.23607">
        <ele>6.7</ele>
        <time>2022-05-31T09:34:24Z</time>
      </trkpt>
      <trkpt lat="49.41853" lon="0.23606">
        <ele>6.7</ele>
        <time>2022-05-31T09:34:25Z</time>
      </trkpt>
      <trkpt lat="49.41853" lon="0.23606">
        <ele>6.7</ele>
        <time>2022-05-31T09:34:26Z</time>
      </trkpt>
      <trkpt lat="49.41853" lon="0.23606">
        <ele>6.8</ele>
        <time>2022-05-31T09:34:27Z</time>
      </trkpt>
      <trkpt lat="49.41852" lon="0.23605">
        <ele>6.8</ele>
        <time>2022-05-31T09:34:28Z</time>
      </trkpt>
      <trkpt lat="49.4185" lon="0.23605">
        <ele>6.8</ele>
        <time>2022-05-31T09:34:29Z</time>
      </trkpt>
      <trkpt lat="49.41849" lon="0.23605">
        <ele>6.8</ele>
        <time>2022-05-31T09:34:31Z</time>
      </trkpt>
      <trkpt lat="49.41848" lon="0.23604">
        <ele>6.8</ele>
        <time>2022-05-31T09:34:32Z</time>
      </trkpt>
      <trkpt lat="49.41847" lon="0.23605">
        <ele>6.9</ele>
        <time>2022-05-31T09:34:33Z</time>
      </trkpt>
      <trkpt lat="49.41846" lon="0.23605">
        <ele>6.9</ele>
        <time>2022-05-31T09:34:34Z</time>
      </trkpt>
      <trkpt lat="49.41845" lon="0.23606">
        <ele>6.9</ele>
        <time>2022-05-31T09:34:35Z</time>
      </trkpt>
      <trkpt lat="49.41844" lon="0.23606">
        <ele>6.9</ele>
        <time>2022-05-31T09:34:36Z</time>
      </trkpt>
      <trkpt lat="49.41844" lon="0.23605">
        <ele>6.9</ele>
        <time>2022-05-31T09:34:37Z</time>
      </trkpt>
      <trkpt lat="49.41844" lon="0.23603">
        <ele>6.9</ele>
        <time>2022-05-31T09:34:39Z</time>
      </trkpt>
      <trkpt lat="49.41844" lon="0.23602">
        <ele>6.9</ele>
        <time>2022-05-31T09:34:40Z</time>
      </trkpt>
      <trkpt lat="49.41845" lon="0.23601">
        <ele>7</ele>
        <time>2022-05-31T09:34:41Z</time>
      </trkpt>
      <trkpt lat="49.41844" lon="0.236">
        <ele>7</ele>
        <time>2022-05-31T09:34:42Z</time>
      </trkpt>
      <trkpt lat="49.41843" lon="0.23599">
        <ele>7</ele>
        <time>2022-05-31T09:34:43Z</time>
      </trkpt>
      <trkpt lat="49.41843" lon="0.23597">
        <ele>7</ele>
        <time>2022-05-31T09:34:44Z</time>
      </trkpt>
      <trkpt lat="49.41842" lon="0.23596">
        <ele>7</ele>
        <time>2022-05-31T09:34:45Z</time>
      </trkpt>
      <trkpt lat="49.41841" lon="0.23595">
        <ele>7</ele>
        <time>2022-05-31T09:34:47Z</time>
      </trkpt>
      <trkpt lat="49.41841" lon="0.23594">
        <ele>7.1</ele>
        <time>2022-05-31T09:34:48Z</time>
      </trkpt>
      <trkpt lat="49.41841" lon="0.2359">
        <ele>7.1</ele>
        <time>2022-05-31T09:34:50Z</time>
      </trkpt>
      <trkpt lat="49.41841" lon="0.23589">
        <ele>7.1</ele>
        <time>2022-05-31T09:34:51Z</time>
      </trkpt>
      <trkpt lat="49.41842" lon="0.23587">
        <ele>7.1</ele>
        <time>2022-05-31T09:34:52Z</time>
      </trkpt>
      <trkpt lat="49.41842" lon="0.23586">
        <ele>7.1</ele>
        <time>2022-05-31T09:34:53Z</time>
      </trkpt>
      <trkpt lat="49.41842" lon="0.23584">
        <ele>7.1</ele>
        <time>2022-05-31T09:34:54Z</time>
      </trkpt>
      <trkpt lat="49.41843" lon="0.23583">
        <ele>7.1</ele>
        <time>2022-05-31T09:34:55Z</time>
      </trkpt>
      <trkpt lat="49.41843" lon="0.23583">
        <ele>7.1</ele>
        <time>2022-05-31T09:34:56Z</time>
      </trkpt>
      <trkpt lat="49.41843" lon="0.23582">
        <ele>7.1</ele>
        <time>2022-05-31T09:34:58Z</time>
      </trkpt>
      <trkpt lat="49.41844" lon="0.23582">
        <ele>7.1</ele>
        <time>2022-05-31T09:34:59Z</time>
      </trkpt>
      <trkpt lat="49.41844" lon="0.23582">
        <ele>7.1</ele>
        <time>2022-05-31T09:35:00Z</time>
      </trkpt>
      <trkpt lat="49.41844" lon="0.23581">
        <ele>7.1</ele>
        <time>2022-05-31T09:35:01Z</time>
      </trkpt>
      <trkpt lat="49.41844" lon="0.23581">
        <ele>7.1</ele>
        <time>2022-05-31T09:35:02Z</time>
      </trkpt>
      <trkpt lat="49.41845" lon="0.23581">
        <ele>7.1</ele>
        <time>2022-05-31T09:35:04Z</time>
      </trkpt>
      <trkpt lat="49.41845" lon="0.23581">
        <ele>7.1</ele>
        <time>2022-05-31T09:35:05Z</time>
      </trkpt>
      <trkpt lat="49.41845" lon="0.2358">
        <ele>7.1</ele>
        <time>2022-05-31T09:35:06Z</time>
      </trkpt>
      <trkpt lat="49.41845" lon="0.23576">
        <ele>7</ele>
        <time>2022-05-31T09:35:08Z</time>
      </trkpt>
      <trkpt lat="49.41844" lon="0.23574">
        <ele>7</ele>
        <time>2022-05-31T09:35:09Z</time>
      </trkpt>
      <trkpt lat="49.41844" lon="0.23571">
        <ele>7</ele>
        <time>2022-05-31T09:35:10Z</time>
      </trkpt>
      <trkpt lat="49.41844" lon="0.23569">
        <ele>7</ele>
        <time>2022-05-31T09:35:11Z</time>
      </trkpt>
      <trkpt lat="49.41844" lon="0.23568">
        <ele>7</ele>
        <time>2022-05-31T09:35:12Z</time>
      </trkpt>
      <trkpt lat="49.41844" lon="0.23569">
        <ele>7</ele>
        <time>2022-05-31T09:35:13Z</time>
      </trkpt>
      <trkpt lat="49.41845" lon="0.23569">
        <ele>7</ele>
        <time>2022-05-31T09:35:14Z</time>
      </trkpt>
      <trkpt lat="49.41845" lon="0.23568">
        <ele>7</ele>
        <time>2022-05-31T09:35:15Z</time>
      </trkpt>
      <trkpt lat="49.41845" lon="0.23569">
        <ele>7</ele>
        <time>2022-05-31T09:35:16Z</time>
      </trkpt>
      <trkpt lat="49.41845" lon="0.23568">
        <ele>7</ele>
        <time>2022-05-31T09:35:17Z</time>
      </trkpt>
      <trkpt lat="49.41846" lon="0.23566">
        <ele>7</ele>
        <time>2022-05-31T09:35:18Z</time>
      </trkpt>
      <trkpt lat="49.41846" lon="0.23565">
        <ele>7</ele>
        <time>2022-05-31T09:35:19Z</time>
      </trkpt>
      <trkpt lat="49.41846" lon="0.23563">
        <ele>7</ele>
        <time>2022-05-31T09:35:21Z</time>
      </trkpt>
      <trkpt lat="49.41846" lon="0.23562">
        <ele>7</ele>
        <time>2022-05-31T09:35:22Z</time>
      </trkpt>
      <trkpt lat="49.41846" lon="0.2356">
        <ele>7</ele>
        <time>2022-05-31T09:35:23Z</time>
      </trkpt>
      <trkpt lat="49.41847" lon="0.23559">
        <ele>7</ele>
        <time>2022-05-31T09:35:24Z</time>
      </trkpt>
      <trkpt lat="49.41847" lon="0.23557">
        <ele>7</ele>
        <time>2022-05-31T09:35:25Z</time>
      </trkpt>
      <trkpt lat="49.41846" lon="0.23557">
        <ele>7</ele>
        <time>2022-05-31T09:35:26Z</time>
      </trkpt>
      <trkpt lat="49.41846" lon="0.23555">
        <ele>7</ele>
        <time>2022-05-31T09:35:27Z</time>
      </trkpt>
      <trkpt lat="49.41846" lon="0.23554">
        <ele>7</ele>
        <time>2022-05-31T09:35:28Z</time>
      </trkpt>
      <trkpt lat="49.41846" lon="0.23555">
        <ele>7</ele>
        <time>2022-05-31T09:35:29Z</time>
      </trkpt>
      <trkpt lat="49.41845" lon="0.23553">
        <ele>7</ele>
        <time>2022-05-31T09:35:30Z</time>
      </trkpt>
      <trkpt lat="49.41846" lon="0.23551">
        <ele>7</ele>
        <time>2022-05-31T09:35:31Z</time>
      </trkpt>
      <trkpt lat="49.41846" lon="0.23548">
        <ele>7</ele>
        <time>2022-05-31T09:35:32Z</time>
      </trkpt>
      <trkpt lat="49.41846" lon="0.23546">
        <ele>7</ele>
        <time>2022-05-31T09:35:34Z</time>
      </trkpt>
      <trkpt lat="49.41847" lon="0.23543">
        <ele>7</ele>
        <time>2022-05-31T09:35:35Z</time>
      </trkpt>
      <trkpt lat="49.41847" lon="0.23539">
        <ele>7.1</ele>
        <time>2022-05-31T09:35:36Z</time>
      </trkpt>
      <trkpt lat="49.41847" lon="0.23537">
        <ele>7.1</ele>
        <time>2022-05-31T09:35:37Z</time>
      </trkpt>
      <trkpt lat="49.41847" lon="0.23533">
        <ele>7.1</ele>
        <time>2022-05-31T09:35:38Z</time>
      </trkpt>
      <trkpt lat="49.41847" lon="0.23531">
        <ele>7.1</ele>
        <time>2022-05-31T09:35:39Z</time>
      </trkpt>
      <trkpt lat="49.41847" lon="0.23526">
        <ele>7.9</ele>
        <time>2022-05-31T09:35:41Z</time>
      </trkpt>
      <trkpt lat="49.41846" lon="0.23525">
        <ele>7.9</ele>
        <time>2022-05-31T09:35:42Z</time>
      </trkpt>
      <trkpt lat="49.41846" lon="0.23523">
        <ele>8.1</ele>
        <time>2022-05-31T09:35:43Z</time>
      </trkpt>
      <trkpt lat="49.41845" lon="0.23522">
        <ele>8.1</ele>
        <time>2022-05-31T09:35:44Z</time>
      </trkpt>
      <trkpt lat="49.41844" lon="0.23522">
        <ele>8.1</ele>
        <time>2022-05-31T09:35:45Z</time>
      </trkpt>
      <trkpt lat="49.41842" lon="0.23521">
        <ele>8.1</ele>
        <time>2022-05-31T09:35:46Z</time>
      </trkpt>
      <trkpt lat="49.41842" lon="0.23521">
        <ele>8.2</ele>
        <time>2022-05-31T09:35:48Z</time>
      </trkpt>
      <trkpt lat="49.41841" lon="0.23521">
        <ele>8.2</ele>
        <time>2022-05-31T09:35:49Z</time>
      </trkpt>
      <trkpt lat="49.4184" lon="0.2352">
        <ele>8.2</ele>
        <time>2022-05-31T09:35:50Z</time>
      </trkpt>
      <trkpt lat="49.41839" lon="0.2352">
        <ele>8.2</ele>
        <time>2022-05-31T09:35:51Z</time>
      </trkpt>
      <trkpt lat="49.41838" lon="0.23519">
        <ele>8.2</ele>
        <time>2022-05-31T09:35:52Z</time>
      </trkpt>
      <trkpt lat="49.41836" lon="0.23518">
        <ele>8.3</ele>
        <time>2022-05-31T09:35:54Z</time>
      </trkpt>
      <trkpt lat="49.41835" lon="0.23517">
        <ele>8.3</ele>
        <time>2022-05-31T09:35:55Z</time>
      </trkpt>
      <trkpt lat="49.41833" lon="0.23516">
        <ele>8.3</ele>
        <time>2022-05-31T09:35:56Z</time>
      </trkpt>
      <trkpt lat="49.41833" lon="0.23515">
        <ele>8.4</ele>
        <time>2022-05-31T09:35:57Z</time>
      </trkpt>
      <trkpt lat="49.41831" lon="0.23513">
        <ele>8.4</ele>
        <time>2022-05-31T09:35:59Z</time>
      </trkpt>
      <trkpt lat="49.4183" lon="0.23511">
        <ele>8.4</ele>
        <time>2022-05-31T09:36:00Z</time>
      </trkpt>
      <trkpt lat="49.4183" lon="0.23508">
        <ele>8.5</ele>
        <time>2022-05-31T09:36:01Z</time>
      </trkpt>
      <trkpt lat="49.4183" lon="0.23507">
        <ele>8.5</ele>
        <time>2022-05-31T09:36:02Z</time>
      </trkpt>
      <trkpt lat="49.4183" lon="0.23504">
        <ele>8.5</ele>
        <time>2022-05-31T09:36:04Z</time>
      </trkpt>
      <trkpt lat="49.4183" lon="0.23502">
        <ele>8.6</ele>
        <time>2022-05-31T09:36:05Z</time>
      </trkpt>
      <trkpt lat="49.41829" lon="0.23501">
        <ele>8.6</ele>
        <time>2022-05-31T09:36:06Z</time>
      </trkpt>
      <trkpt lat="49.41829" lon="0.235">
        <ele>8.6</ele>
        <time>2022-05-31T09:36:07Z</time>
      </trkpt>
      <trkpt lat="49.41828" lon="0.23499">
        <ele>8.6</ele>
        <time>2022-05-31T09:36:08Z</time>
      </trkpt>
      <trkpt lat="49.41827" lon="0.23498">
        <ele>8.7</ele>
        <time>2022-05-31T09:36:09Z</time>
      </trkpt>
      <trkpt lat="49.41827" lon="0.23498">
        <ele>8.7</ele>
        <time>2022-05-31T09:36:10Z</time>
      </trkpt>
      <trkpt lat="49.41827" lon="0.23498">
        <ele>8.7</ele>
        <time>2022-05-31T09:36:11Z</time>
      </trkpt>
      <trkpt lat="49.41827" lon="0.23497">
        <ele>8.7</ele>
        <time>2022-05-31T09:36:12Z</time>
      </trkpt>
      <trkpt lat="49.41826" lon="0.23496">
        <ele>8.7</ele>
        <time>2022-05-31T09:36:13Z</time>
      </trkpt>
      <trkpt lat="49.41826" lon="0.23495">
        <ele>8.7</ele>
        <time>2022-05-31T09:36:14Z</time>
      </trkpt>
      <trkpt lat="49.41826" lon="0.23495">
        <ele>8.7</ele>
        <time>2022-05-31T09:36:15Z</time>
      </trkpt>
      <trkpt lat="49.41826" lon="0.23496">
        <ele>8.7</ele>
        <time>2022-05-31T09:36:16Z</time>
      </trkpt>
      <trkpt lat="49.41827" lon="0.23496">
        <ele>8.7</ele>
        <time>2022-05-31T09:36:17Z</time>
      </trkpt>
      <trkpt lat="49.41827" lon="0.23496">
        <ele>8.7</ele>
        <time>2022-05-31T09:36:18Z</time>
      </trkpt>
      <trkpt lat="49.41827" lon="0.23497">
        <ele>8.7</ele>
        <time>2022-05-31T09:36:19Z</time>
      </trkpt>
      <trkpt lat="49.41827" lon="0.23497">
        <ele>8.7</ele>
        <time>2022-05-31T09:36:20Z</time>
      </trkpt>
      <trkpt lat="49.41827" lon="0.23497">
        <ele>8.7</ele>
        <time>2022-05-31T09:36:21Z</time>
      </trkpt>
      <trkpt lat="49.41827" lon="0.23498">
        <ele>8.8</ele>
        <time>2022-05-31T09:36:23Z</time>
      </trkpt>
      <trkpt lat="49.41827" lon="0.23498">
        <ele>8.8</ele>
        <time>2022-05-31T09:36:24Z</time>
      </trkpt>
      <trkpt lat="49.41827" lon="0.23498">
        <ele>8.8</ele>
        <time>2022-05-31T09:36:25Z</time>
      </trkpt>
      <trkpt lat="49.41827" lon="0.23498">
        <ele>8.8</ele>
        <time>2022-05-31T09:36:27Z</time>
      </trkpt>
      <trkpt lat="49.41826" lon="0.23499">
        <ele>8.8</ele>
        <time>2022-05-31T09:36:28Z</time>
      </trkpt>
      <trkpt lat="49.41826" lon="0.23499">
        <ele>8.8</ele>
        <time>2022-05-31T09:36:29Z</time>
      </trkpt>
      <trkpt lat="49.41826" lon="0.23499">
        <ele>8.8</ele>
        <time>2022-05-31T09:36:30Z</time>
      </trkpt>
      <trkpt lat="49.41826" lon="0.23499">
        <ele>8.8</ele>
        <time>2022-05-31T09:36:31Z</time>
      </trkpt>
      <trkpt lat="49.41826" lon="0.23499">
        <ele>8.8</ele>
        <time>2022-05-31T09:36:32Z</time>
      </trkpt>
      <trkpt lat="49.41826" lon="0.23499">
        <ele>8.8</ele>
        <time>2022-05-31T09:36:33Z</time>
      </trkpt>
      <trkpt lat="49.41826" lon="0.23499">
        <ele>8.8</ele>
        <time>2022-05-31T09:36:34Z</time>
      </trkpt>
      <trkpt lat="49.41826" lon="0.23499">
        <ele>8.8</ele>
        <time>2022-05-31T09:36:36Z</time>
      </trkpt>
      <trkpt lat="49.41826" lon="0.23499">
        <ele>8.8</ele>
        <time>2022-05-31T09:36:37Z</time>
      </trkpt>
      <trkpt lat="49.41826" lon="0.23499">
        <ele>8.8</ele>
        <time>2022-05-31T09:36:38Z</time>
      </trkpt>
      <trkpt lat="49.41826" lon="0.23499">
        <ele>8.8</ele>
        <time>2022-05-31T09:36:39Z</time>
      </trkpt>
      <trkpt lat="49.41826" lon="0.23499">
        <ele>8.8</ele>
        <time>2022-05-31T09:36:40Z</time>
      </trkpt>
      <trkpt lat="49.41826" lon="0.23499">
        <ele>8.8</ele>
        <time>2022-05-31T09:36:41Z</time>
      </trkpt>
      <trkpt lat="49.41826" lon="0.23499">
        <ele>8.8</ele>
        <time>2022-05-31T09:36:42Z</time>
      </trkpt>
      <trkpt lat="49.41826" lon="0.23499">
        <ele>8.8</ele>
        <time>2022-05-31T09:36:43Z</time>
      </trkpt>
      <trkpt lat="49.41826" lon="0.23499">
        <ele>8.8</ele>
        <time>2022-05-31T09:36:44Z</time>
      </trkpt>
      <trkpt lat="49.41826" lon="0.23499">
        <ele>8.8</ele>
        <time>2022-05-31T09:36:45Z</time>
      </trkpt>
      <trkpt lat="49.41826" lon="0.23499">
        <ele>8.8</ele>
        <time>2022-05-31T09:36:46Z</time>
      </trkpt>
      <trkpt lat="49.41826" lon="0.23499">
        <ele>8.8</ele>
        <time>2022-05-31T09:36:47Z</time>
      </trkpt>
      <trkpt lat="49.41826" lon="0.23499">
        <ele>8.8</ele>
        <time>2022-05-31T09:36:48Z</time>
      </trkpt>
      <trkpt lat="49.41826" lon="0.23499">
        <ele>8.8</ele>
        <time>2022-05-31T09:36:49Z</time>
      </trkpt>
      <trkpt lat="49.41826" lon="0.23499">
        <ele>8.8</ele>
        <time>2022-05-31T09:36:50Z</time>
      </trkpt>
      <trkpt lat="49.41826" lon="0.23499">
        <ele>8.8</ele>
        <time>2022-05-31T09:36:51Z</time>
      </trkpt>
      <trkpt lat="49.41826" lon="0.23501">
        <ele>8.8</ele>
        <time>2022-05-31T09:36:52Z</time>
      </trkpt>
      <trkpt lat="49.41827" lon="0.23502">
        <ele>8.8</ele>
        <time>2022-05-31T09:36:53Z</time>
      </trkpt>
      <trkpt lat="49.41828" lon="0.23503">
        <ele>8.9</ele>
        <time>2022-05-31T09:36:54Z</time>
      </trkpt>
      <trkpt lat="49.41829" lon="0.23502">
        <ele>8.9</ele>
        <time>2022-05-31T09:36:55Z</time>
      </trkpt>
      <trkpt lat="49.41829" lon="0.23501">
        <ele>8.9</ele>
        <time>2022-05-31T09:36:56Z</time>
      </trkpt>
      <trkpt lat="49.4183" lon="0.23501">
        <ele>8.9</ele>
        <time>2022-05-31T09:36:57Z</time>
      </trkpt>
      <trkpt lat="49.4183" lon="0.235">
        <ele>8.9</ele>
        <time>2022-05-31T09:36:58Z</time>
      </trkpt>
      <trkpt lat="49.4183" lon="0.235">
        <ele>9</ele>
        <time>2022-05-31T09:37:00Z</time>
      </trkpt>
      <trkpt lat="49.4183" lon="0.23498">
        <ele>9</ele>
        <time>2022-05-31T09:37:01Z</time>
      </trkpt>
      <trkpt lat="49.41831" lon="0.23497">
        <ele>9</ele>
        <time>2022-05-31T09:37:02Z</time>
      </trkpt>
      <trkpt lat="49.41831" lon="0.23497">
        <ele>9</ele>
        <time>2022-05-31T09:37:03Z</time>
      </trkpt>
      <trkpt lat="49.41831" lon="0.23495">
        <ele>9</ele>
        <time>2022-05-31T09:37:04Z</time>
      </trkpt>
      <trkpt lat="49.41831" lon="0.23493">
        <ele>9.1</ele>
        <time>2022-05-31T09:37:05Z</time>
      </trkpt>
      <trkpt lat="49.41831" lon="0.23491">
        <ele>9.1</ele>
        <time>2022-05-31T09:37:06Z</time>
      </trkpt>
      <trkpt lat="49.41831" lon="0.2349">
        <ele>9.1</ele>
        <time>2022-05-31T09:37:07Z</time>
      </trkpt>
      <trkpt lat="49.41831" lon="0.23488">
        <ele>9.2</ele>
        <time>2022-05-31T09:37:08Z</time>
      </trkpt>
      <trkpt lat="49.41831" lon="0.23486">
        <ele>9.2</ele>
        <time>2022-05-31T09:37:10Z</time>
      </trkpt>
      <trkpt lat="49.41831" lon="0.23484">
        <ele>9.2</ele>
        <time>2022-05-31T09:37:11Z</time>
      </trkpt>
      <trkpt lat="49.4183" lon="0.23483">
        <ele>9.2</ele>
        <time>2022-05-31T09:37:12Z</time>
      </trkpt>
      <trkpt lat="49.4183" lon="0.23482">
        <ele>9.3</ele>
        <time>2022-05-31T09:37:13Z</time>
      </trkpt>
      <trkpt lat="49.4183" lon="0.23481">
        <ele>9.3</ele>
        <time>2022-05-31T09:37:14Z</time>
      </trkpt>
      <trkpt lat="49.4183" lon="0.2348">
        <ele>9.3</ele>
        <time>2022-05-31T09:37:15Z</time>
      </trkpt>
      <trkpt lat="49.41831" lon="0.23478">
        <ele>9.3</ele>
        <time>2022-05-31T09:37:16Z</time>
      </trkpt>
      <trkpt lat="49.41831" lon="0.23478">
        <ele>9.3</ele>
        <time>2022-05-31T09:37:17Z</time>
      </trkpt>
      <trkpt lat="49.41832" lon="0.23478">
        <ele>9.4</ele>
        <time>2022-05-31T09:37:18Z</time>
      </trkpt>
      <trkpt lat="49.41832" lon="0.23478">
        <ele>9.4</ele>
        <time>2022-05-31T09:37:19Z</time>
      </trkpt>
      <trkpt lat="49.41832" lon="0.23479">
        <ele>9.4</ele>
        <time>2022-05-31T09:37:20Z</time>
      </trkpt>
      <trkpt lat="49.41832" lon="0.2348">
        <ele>9.4</ele>
        <time>2022-05-31T09:37:21Z</time>
      </trkpt>
      <trkpt lat="49.41832" lon="0.23481">
        <ele>9.4</ele>
        <time>2022-05-31T09:37:22Z</time>
      </trkpt>
      <trkpt lat="49.41833" lon="0.23481">
        <ele>9.4</ele>
        <time>2022-05-31T09:37:24Z</time>
      </trkpt>
      <trkpt lat="49.41833" lon="0.23482">
        <ele>9.4</ele>
        <time>2022-05-31T09:37:25Z</time>
      </trkpt>
      <trkpt lat="49.41833" lon="0.23481">
        <ele>9.5</ele>
        <time>2022-05-31T09:37:26Z</time>
      </trkpt>
      <trkpt lat="49.41833" lon="0.23481">
        <ele>9.5</ele>
        <time>2022-05-31T09:37:27Z</time>
      </trkpt>
      <trkpt lat="49.41834" lon="0.23481">
        <ele>9.5</ele>
        <time>2022-05-31T09:37:29Z</time>
      </trkpt>
      <trkpt lat="49.41834" lon="0.23481">
        <ele>9.5</ele>
        <time>2022-05-31T09:37:30Z</time>
      </trkpt>
      <trkpt lat="49.41834" lon="0.23481">
        <ele>9.5</ele>
        <time>2022-05-31T09:37:31Z</time>
      </trkpt>
      <trkpt lat="49.41832" lon="0.23481">
        <ele>9.6</ele>
        <time>2022-05-31T09:37:32Z</time>
      </trkpt>
      <trkpt lat="49.41832" lon="0.23481">
        <ele>9.6</ele>
        <time>2022-05-31T09:37:34Z</time>
      </trkpt>
      <trkpt lat="49.41832" lon="0.23481">
        <ele>9.6</ele>
        <time>2022-05-31T09:37:35Z</time>
      </trkpt>
      <trkpt lat="49.41832" lon="0.23481">
        <ele>9.6</ele>
        <time>2022-05-31T09:37:36Z</time>
      </trkpt>
      <trkpt lat="49.41831" lon="0.23481">
        <ele>9.6</ele>
        <time>2022-05-31T09:37:37Z</time>
      </trkpt>
      <trkpt lat="49.41831" lon="0.2348">
        <ele>9.6</ele>
        <time>2022-05-31T09:37:38Z</time>
      </trkpt>
      <trkpt lat="49.41831" lon="0.2348">
        <ele>9.6</ele>
        <time>2022-05-31T09:37:39Z</time>
      </trkpt>
      <trkpt lat="49.4183" lon="0.23479">
        <ele>9.7</ele>
        <time>2022-05-31T09:37:41Z</time>
      </trkpt>
      <trkpt lat="49.4183" lon="0.2348">
        <ele>9.7</ele>
        <time>2022-05-31T09:37:42Z</time>
      </trkpt>
      <trkpt lat="49.4183" lon="0.2348">
        <ele>9.7</ele>
        <time>2022-05-31T09:37:43Z</time>
      </trkpt>
      <trkpt lat="49.4183" lon="0.23479">
        <ele>9.7</ele>
        <time>2022-05-31T09:37:44Z</time>
      </trkpt>
      <trkpt lat="49.41829" lon="0.23478">
        <ele>9.7</ele>
        <time>2022-05-31T09:37:46Z</time>
      </trkpt>
      <trkpt lat="49.41829" lon="0.23479">
        <ele>9.7</ele>
        <time>2022-05-31T09:37:47Z</time>
      </trkpt>
      <trkpt lat="49.41829" lon="0.23479">
        <ele>9.7</ele>
        <time>2022-05-31T09:37:48Z</time>
      </trkpt>
      <trkpt lat="49.41828" lon="0.23479">
        <ele>9.8</ele>
        <time>2022-05-31T09:37:49Z</time>
      </trkpt>
      <trkpt lat="49.41828" lon="0.23479">
        <ele>9.8</ele>
        <time>2022-05-31T09:37:50Z</time>
      </trkpt>
      <trkpt lat="49.41828" lon="0.23479">
        <ele>9.8</ele>
        <time>2022-05-31T09:37:51Z</time>
      </trkpt>
      <trkpt lat="49.41828" lon="0.23481">
        <ele>9.8</ele>
        <time>2022-05-31T09:37:52Z</time>
      </trkpt>
      <trkpt lat="49.41828" lon="0.23482">
        <ele>9.8</ele>
        <time>2022-05-31T09:37:53Z</time>
      </trkpt>
      <trkpt lat="49.41829" lon="0.23483">
        <ele>9.8</ele>
        <time>2022-05-31T09:37:54Z</time>
      </trkpt>
      <trkpt lat="49.41829" lon="0.23483">
        <ele>9.9</ele>
        <time>2022-05-31T09:37:55Z</time>
      </trkpt>
      <trkpt lat="49.41829" lon="0.23483">
        <ele>9.9</ele>
        <time>2022-05-31T09:37:56Z</time>
      </trkpt>
      <trkpt lat="49.41829" lon="0.23484">
        <ele>9.9</ele>
        <time>2022-05-31T09:37:58Z</time>
      </trkpt>
      <trkpt lat="49.41829" lon="0.23484">
        <ele>9.9</ele>
        <time>2022-05-31T09:37:59Z</time>
      </trkpt>
      <trkpt lat="49.41829" lon="0.23484">
        <ele>9.9</ele>
        <time>2022-05-31T09:38:00Z</time>
      </trkpt>
      <trkpt lat="49.41828" lon="0.23485">
        <ele>9.9</ele>
        <time>2022-05-31T09:38:01Z</time>
      </trkpt>
      <trkpt lat="49.41828" lon="0.23485">
        <ele>9.9</ele>
        <time>2022-05-31T09:38:02Z</time>
      </trkpt>
      <trkpt lat="49.41828" lon="0.23486">
        <ele>9.9</ele>
        <time>2022-05-31T09:38:03Z</time>
      </trkpt>
      <trkpt lat="49.41828" lon="0.23488">
        <ele>10</ele>
        <time>2022-05-31T09:38:05Z</time>
      </trkpt>
      <trkpt lat="49.41828" lon="0.23489">
        <ele>10</ele>
        <time>2022-05-31T09:38:07Z</time>
      </trkpt>
      <trkpt lat="49.41828" lon="0.2349">
        <ele>10</ele>
        <time>2022-05-31T09:38:08Z</time>
      </trkpt>
      <trkpt lat="49.41829" lon="0.23491">
        <ele>10</ele>
        <time>2022-05-31T09:38:09Z</time>
      </trkpt>
      <trkpt lat="49.41829" lon="0.23491">
        <ele>10</ele>
        <time>2022-05-31T09:38:10Z</time>
      </trkpt>
      <trkpt lat="49.41829" lon="0.23491">
        <ele>10</ele>
        <time>2022-05-31T09:38:11Z</time>
      </trkpt>
      <trkpt lat="49.41829" lon="0.23491">
        <ele>10</ele>
        <time>2022-05-31T09:38:12Z</time>
      </trkpt>
      <trkpt lat="49.41829" lon="0.23491">
        <ele>10</ele>
        <time>2022-05-31T09:38:13Z</time>
      </trkpt>
      <trkpt lat="49.41829" lon="0.23491">
        <ele>10</ele>
        <time>2022-05-31T09:38:14Z</time>
      </trkpt>
      <trkpt lat="49.41828" lon="0.23491">
        <ele>10.1</ele>
        <time>2022-05-31T09:38:15Z</time>
      </trkpt>
      <trkpt lat="49.41828" lon="0.23491">
        <ele>10.1</ele>
        <time>2022-05-31T09:38:16Z</time>
      </trkpt>
      <trkpt lat="49.41828" lon="0.23492">
        <ele>10.1</ele>
        <time>2022-05-31T09:38:17Z</time>
      </trkpt>
      <trkpt lat="49.41828" lon="0.23492">
        <ele>10.1</ele>
        <time>2022-05-31T09:38:18Z</time>
      </trkpt>
      <trkpt lat="49.41828" lon="0.23492">
        <ele>10.1</ele>
        <time>2022-05-31T09:38:19Z</time>
      </trkpt>
      <trkpt lat="49.41828" lon="0.23493">
        <ele>10.1</ele>
        <time>2022-05-31T09:38:20Z</time>
      </trkpt>
      <trkpt lat="49.41828" lon="0.23493">
        <ele>10.1</ele>
        <time>2022-05-31T09:38:21Z</time>
      </trkpt>
      <trkpt lat="49.41828" lon="0.23493">
        <ele>10.1</ele>
        <time>2022-05-31T09:38:22Z</time>
      </trkpt>
      <trkpt lat="49.41828" lon="0.23493">
        <ele>10.1</ele>
        <time>2022-05-31T09:38:23Z</time>
      </trkpt>
      <trkpt lat="49.41828" lon="0.23493">
        <ele>10.1</ele>
        <time>2022-05-31T09:38:24Z</time>
      </trkpt>
      <trkpt lat="49.41829" lon="0.23493">
        <ele>10.1</ele>
        <time>2022-05-31T09:38:25Z</time>
      </trkpt>
      <trkpt lat="49.41829" lon="0.23494">
        <ele>10.2</ele>
        <time>2022-05-31T09:38:26Z</time>
      </trkpt>
      <trkpt lat="49.41828" lon="0.23495">
        <ele>10.2</ele>
        <time>2022-05-31T09:38:27Z</time>
      </trkpt>
      <trkpt lat="49.41828" lon="0.23497">
        <ele>10.2</ele>
        <time>2022-05-31T09:38:28Z</time>
      </trkpt>
      <trkpt lat="49.41829" lon="0.23498">
        <ele>10.3</ele>
        <time>2022-05-31T09:38:29Z</time>
      </trkpt>
      <trkpt lat="49.41829" lon="0.23499">
        <ele>10.3</ele>
        <time>2022-05-31T09:38:30Z</time>
      </trkpt>
      <trkpt lat="49.41829" lon="0.235">
        <ele>10.3</ele>
        <time>2022-05-31T09:38:31Z</time>
      </trkpt>
      <trkpt lat="49.41829" lon="0.235">
        <ele>10.3</ele>
        <time>2022-05-31T09:38:32Z</time>
      </trkpt>
      <trkpt lat="49.41829" lon="0.235">
        <ele>10.3</ele>
        <time>2022-05-31T09:38:33Z</time>
      </trkpt>
      <trkpt lat="49.41829" lon="0.23501">
        <ele>10.4</ele>
        <time>2022-05-31T09:38:34Z</time>
      </trkpt>
      <trkpt lat="49.4183" lon="0.23501">
        <ele>10.4</ele>
        <time>2022-05-31T09:38:35Z</time>
      </trkpt>
      <trkpt lat="49.41829" lon="0.23501">
        <ele>10.4</ele>
        <time>2022-05-31T09:38:36Z</time>
      </trkpt>
      <trkpt lat="49.41829" lon="0.23501">
        <ele>10.4</ele>
        <time>2022-05-31T09:38:37Z</time>
      </trkpt>
      <trkpt lat="49.41829" lon="0.23501">
        <ele>10.4</ele>
        <time>2022-05-31T09:38:38Z</time>
      </trkpt>
      <trkpt lat="49.41829" lon="0.23501">
        <ele>10.4</ele>
        <time>2022-05-31T09:38:39Z</time>
      </trkpt>
      <trkpt lat="49.41829" lon="0.23501">
        <ele>10.4</ele>
        <time>2022-05-31T09:38:40Z</time>
      </trkpt>
      <trkpt lat="49.41829" lon="0.23502">
        <ele>10.4</ele>
        <time>2022-05-31T09:38:42Z</time>
      </trkpt>
      <trkpt lat="49.41829" lon="0.23504">
        <ele>10.5</ele>
        <time>2022-05-31T09:38:43Z</time>
      </trkpt>
      <trkpt lat="49.41829" lon="0.23504">
        <ele>10.5</ele>
        <time>2022-05-31T09:38:44Z</time>
      </trkpt>
      <trkpt lat="49.41828" lon="0.23504">
        <ele>10.5</ele>
        <time>2022-05-31T09:38:45Z</time>
      </trkpt>
      <trkpt lat="49.41826" lon="0.23504">
        <ele>10.6</ele>
        <time>2022-05-31T09:38:47Z</time>
      </trkpt>
      <trkpt lat="49.41825" lon="0.23503">
        <ele>10.6</ele>
        <time>2022-05-31T09:38:48Z</time>
      </trkpt>
      <trkpt lat="49.41824" lon="0.23502">
        <ele>10.7</ele>
        <time>2022-05-31T09:38:49Z</time>
      </trkpt>
      <trkpt lat="49.41823" lon="0.23502">
        <ele>10.7</ele>
        <time>2022-05-31T09:38:50Z</time>
      </trkpt>
      <trkpt lat="49.41822" lon="0.23502">
        <ele>10.7</ele>
        <time>2022-05-31T09:38:51Z</time>
      </trkpt>
      <trkpt lat="49.41821" lon="0.23502">
        <ele>10.8</ele>
        <time>2022-05-31T09:38:52Z</time>
      </trkpt>
      <trkpt lat="49.41821" lon="0.23502">
        <ele>10.8</ele>
        <time>2022-05-31T09:38:53Z</time>
      </trkpt>
      <trkpt lat="49.4182" lon="0.23502">
        <ele>10.8</ele>
        <time>2022-05-31T09:38:54Z</time>
      </trkpt>
      <trkpt lat="49.4182" lon="0.23502">
        <ele>10.8</ele>
        <time>2022-05-31T09:38:55Z</time>
      </trkpt>
      <trkpt lat="49.41819" lon="0.23501">
        <ele>10.9</ele>
        <time>2022-05-31T09:38:56Z</time>
      </trkpt>
      <trkpt lat="49.41818" lon="0.23502">
        <ele>10.9</ele>
        <time>2022-05-31T09:38:57Z</time>
      </trkpt>
      <trkpt lat="49.41818" lon="0.23501">
        <ele>10.9</ele>
        <time>2022-05-31T09:38:58Z</time>
      </trkpt>
      <trkpt lat="49.41818" lon="0.23502">
        <ele>10.9</ele>
        <time>2022-05-31T09:38:59Z</time>
      </trkpt>
      <trkpt lat="49.41818" lon="0.23502">
        <ele>10.9</ele>
        <time>2022-05-31T09:39:00Z</time>
      </trkpt>
      <trkpt lat="49.41818" lon="0.23503">
        <ele>10.9</ele>
        <time>2022-05-31T09:39:02Z</time>
      </trkpt>
      <trkpt lat="49.41817" lon="0.23503">
        <ele>10.9</ele>
        <time>2022-05-31T09:39:03Z</time>
      </trkpt>
      <trkpt lat="49.41817" lon="0.23503">
        <ele>11</ele>
        <time>2022-05-31T09:39:04Z</time>
      </trkpt>
      <trkpt lat="49.41816" lon="0.23503">
        <ele>11</ele>
        <time>2022-05-31T09:39:05Z</time>
      </trkpt>
      <trkpt lat="49.41815" lon="0.23502">
        <ele>11</ele>
        <time>2022-05-31T09:39:06Z</time>
      </trkpt>
      <trkpt lat="49.41814" lon="0.23502">
        <ele>11.1</ele>
        <time>2022-05-31T09:39:08Z</time>
      </trkpt>
      <trkpt lat="49.41812" lon="0.23501">
        <ele>11.2</ele>
        <time>2022-05-31T09:39:09Z</time>
      </trkpt>
      <trkpt lat="49.41811" lon="0.235">
        <ele>11.2</ele>
        <time>2022-05-31T09:39:10Z</time>
      </trkpt>
      <trkpt lat="49.4181" lon="0.235">
        <ele>11.2</ele>
        <time>2022-05-31T09:39:11Z</time>
      </trkpt>
      <trkpt lat="49.4181" lon="0.23499">
        <ele>11.3</ele>
        <time>2022-05-31T09:39:13Z</time>
      </trkpt>
      <trkpt lat="49.41809" lon="0.23498">
        <ele>11.3</ele>
        <time>2022-05-31T09:39:14Z</time>
      </trkpt>
      <trkpt lat="49.41809" lon="0.23497">
        <ele>11.3</ele>
        <time>2022-05-31T09:39:15Z</time>
      </trkpt>
      <trkpt lat="49.41809" lon="0.23496">
        <ele>11.3</ele>
        <time>2022-05-31T09:39:16Z</time>
      </trkpt>
      <trkpt lat="49.41808" lon="0.23495">
        <ele>11.4</ele>
        <time>2022-05-31T09:39:18Z</time>
      </trkpt>
      <trkpt lat="49.41807" lon="0.23494">
        <ele>11.4</ele>
        <time>2022-05-31T09:39:19Z</time>
      </trkpt>
      <trkpt lat="49.41806" lon="0.23494">
        <ele>11.4</ele>
        <time>2022-05-31T09:39:20Z</time>
      </trkpt>
      <trkpt lat="49.41806" lon="0.23493">
        <ele>11.5</ele>
        <time>2022-05-31T09:39:21Z</time>
      </trkpt>
      <trkpt lat="49.41806" lon="0.23492">
        <ele>11.5</ele>
        <time>2022-05-31T09:39:22Z</time>
      </trkpt>
      <trkpt lat="49.41805" lon="0.23492">
        <ele>11.5</ele>
        <time>2022-05-31T09:39:24Z</time>
      </trkpt>
      <trkpt lat="49.41804" lon="0.23491">
        <ele>11.5</ele>
        <time>2022-05-31T09:39:25Z</time>
      </trkpt>
      <trkpt lat="49.41804" lon="0.2349">
        <ele>11.5</ele>
        <time>2022-05-31T09:39:26Z</time>
      </trkpt>
      <trkpt lat="49.41803" lon="0.2349">
        <ele>11.6</ele>
        <time>2022-05-31T09:39:28Z</time>
      </trkpt>
      <trkpt lat="49.41803" lon="0.23489">
        <ele>11.6</ele>
        <time>2022-05-31T09:39:29Z</time>
      </trkpt>
      <trkpt lat="49.41802" lon="0.23489">
        <ele>11.6</ele>
        <time>2022-05-31T09:39:30Z</time>
      </trkpt>
      <trkpt lat="49.41801" lon="0.23489">
        <ele>11.6</ele>
        <time>2022-05-31T09:39:31Z</time>
      </trkpt>
      <trkpt lat="49.418" lon="0.23488">
        <ele>11.7</ele>
        <time>2022-05-31T09:39:33Z</time>
      </trkpt>
      <trkpt lat="49.41799" lon="0.23488">
        <ele>11.7</ele>
        <time>2022-05-31T09:39:34Z</time>
      </trkpt>
      <trkpt lat="49.41799" lon="0.23487">
        <ele>11.7</ele>
        <time>2022-05-31T09:39:35Z</time>
      </trkpt>
      <trkpt lat="49.41798" lon="0.23487">
        <ele>11.8</ele>
        <time>2022-05-31T09:39:36Z</time>
      </trkpt>
      <trkpt lat="49.41798" lon="0.23486">
        <ele>11.8</ele>
        <time>2022-05-31T09:39:37Z</time>
      </trkpt>
      <trkpt lat="49.41798" lon="0.23484">
        <ele>11.8</ele>
        <time>2022-05-31T09:39:39Z</time>
      </trkpt>
      <trkpt lat="49.41798" lon="0.23483">
        <ele>11.9</ele>
        <time>2022-05-31T09:39:40Z</time>
      </trkpt>
      <trkpt lat="49.41797" lon="0.23483">
        <ele>11.9</ele>
        <time>2022-05-31T09:39:41Z</time>
      </trkpt>
      <trkpt lat="49.41796" lon="0.23483">
        <ele>11.9</ele>
        <time>2022-05-31T09:39:42Z</time>
      </trkpt>
      <trkpt lat="49.41795" lon="0.23483">
        <ele>12</ele>
        <time>2022-05-31T09:39:43Z</time>
      </trkpt>
      <trkpt lat="49.41794" lon="0.23483">
        <ele>12</ele>
        <time>2022-05-31T09:39:44Z</time>
      </trkpt>
      <trkpt lat="49.41792" lon="0.23482">
        <ele>12</ele>
        <time>2022-05-31T09:39:45Z</time>
      </trkpt>
      <trkpt lat="49.41791" lon="0.23481">
        <ele>12.1</ele>
        <time>2022-05-31T09:39:47Z</time>
      </trkpt>
      <trkpt lat="49.4179" lon="0.23481">
        <ele>12.1</ele>
        <time>2022-05-31T09:39:48Z</time>
      </trkpt>
      <trkpt lat="49.41789" lon="0.2348">
        <ele>12.2</ele>
        <time>2022-05-31T09:39:49Z</time>
      </trkpt>
      <trkpt lat="49.41789" lon="0.23479">
        <ele>12.2</ele>
        <time>2022-05-31T09:39:51Z</time>
      </trkpt>
      <trkpt lat="49.41788" lon="0.23477">
        <ele>12.4</ele>
        <time>2022-05-31T09:39:52Z</time>
      </trkpt>
      <trkpt lat="49.41787" lon="0.23475">
        <ele>12.5</ele>
        <time>2022-05-31T09:39:54Z</time>
      </trkpt>
      <trkpt lat="49.41785" lon="0.23475">
        <ele>12.6</ele>
        <time>2022-05-31T09:39:55Z</time>
      </trkpt>
      <trkpt lat="49.41785" lon="0.23475">
        <ele>12.7</ele>
        <time>2022-05-31T09:39:56Z</time>
      </trkpt>
      <trkpt lat="49.41784" lon="0.23475">
        <ele>12.7</ele>
        <time>2022-05-31T09:39:57Z</time>
      </trkpt>
      <trkpt lat="49.41782" lon="0.23476">
        <ele>12.9</ele>
        <time>2022-05-31T09:39:58Z</time>
      </trkpt>
      <trkpt lat="49.41781" lon="0.23477">
        <ele>12.9</ele>
        <time>2022-05-31T09:40:00Z</time>
      </trkpt>
      <trkpt lat="49.4178" lon="0.23477">
        <ele>13</ele>
        <time>2022-05-31T09:40:01Z</time>
      </trkpt>
      <trkpt lat="49.41779" lon="0.23478">
        <ele>13.1</ele>
        <time>2022-05-31T09:40:02Z</time>
      </trkpt>
      <trkpt lat="49.41778" lon="0.23479">
        <ele>13.1</ele>
        <time>2022-05-31T09:40:04Z</time>
      </trkpt>
      <trkpt lat="49.41777" lon="0.23479">
        <ele>13.6</ele>
        <time>2022-05-31T09:40:05Z</time>
      </trkpt>
      <trkpt lat="49.41779" lon="0.2348">
        <ele>13.6</ele>
        <time>2022-05-31T09:40:06Z</time>
      </trkpt>
      <trkpt lat="49.4178" lon="0.2348">
        <ele>13.6</ele>
        <time>2022-05-31T09:40:07Z</time>
      </trkpt>
      <trkpt lat="49.41782" lon="0.2348">
        <ele>13.6</ele>
        <time>2022-05-31T09:40:08Z</time>
      </trkpt>
      <trkpt lat="49.41782" lon="0.2348">
        <ele>13.6</ele>
        <time>2022-05-31T09:40:09Z</time>
      </trkpt>
      <trkpt lat="49.41784" lon="0.23479">
        <ele>13.6</ele>
        <time>2022-05-31T09:40:10Z</time>
      </trkpt>
      <trkpt lat="49.41784" lon="0.23479">
        <ele>13.6</ele>
        <time>2022-05-31T09:40:11Z</time>
      </trkpt>
      <trkpt lat="49.41784" lon="0.23479">
        <ele>13.6</ele>
        <time>2022-05-31T09:40:12Z</time>
      </trkpt>
      <trkpt lat="49.41784" lon="0.23479">
        <ele>13.6</ele>
        <time>2022-05-31T09:40:13Z</time>
      </trkpt>
      <trkpt lat="49.41784" lon="0.23479">
        <ele>13.6</ele>
        <time>2022-05-31T09:40:14Z</time>
      </trkpt>
      <trkpt lat="49.41784" lon="0.23479">
        <ele>13.6</ele>
        <time>2022-05-31T09:40:15Z</time>
      </trkpt>
      <trkpt lat="49.41784" lon="0.23479">
        <ele>13.6</ele>
        <time>2022-05-31T09:40:16Z</time>
      </trkpt>
      <trkpt lat="49.41784" lon="0.23479">
        <ele>13.6</ele>
        <time>2022-05-31T09:40:17Z</time>
      </trkpt>
      <trkpt lat="49.41784" lon="0.23479">
        <ele>13.6</ele>
        <time>2022-05-31T09:40:18Z</time>
      </trkpt>
      <trkpt lat="49.41784" lon="0.23479">
        <ele>13.6</ele>
        <time>2022-05-31T09:40:19Z</time>
      </trkpt>
      <trkpt lat="49.41784" lon="0.23479">
        <ele>13.6</ele>
        <time>2022-05-31T09:40:20Z</time>
      </trkpt>
      <trkpt lat="49.41784" lon="0.23479">
        <ele>13.6</ele>
        <time>2022-05-31T09:40:21Z</time>
      </trkpt>
      <trkpt lat="49.41784" lon="0.23479">
        <ele>13.6</ele>
        <time>2022-05-31T09:40:22Z</time>
      </trkpt>
      <trkpt lat="49.41783" lon="0.23479">
        <ele>13.6</ele>
        <time>2022-05-31T09:40:23Z</time>
      </trkpt>
      <trkpt lat="49.41783" lon="0.23479">
        <ele>13.6</ele>
        <time>2022-05-31T09:40:24Z</time>
      </trkpt>
      <trkpt lat="49.41785" lon="0.23476">
        <ele>13.7</ele>
        <time>2022-05-31T09:40:25Z</time>
      </trkpt>
      <trkpt lat="49.41785" lon="0.23476">
        <ele>13.7</ele>
        <time>2022-05-31T09:40:26Z</time>
      </trkpt>
      <trkpt lat="49.41785" lon="0.23476">
        <ele>13.7</ele>
        <time>2022-05-31T09:40:27Z</time>
      </trkpt>
      <trkpt lat="49.41785" lon="0.23476">
        <ele>13.7</ele>
        <time>2022-05-31T09:40:28Z</time>
      </trkpt>
      <trkpt lat="49.41783" lon="0.23477">
        <ele>13.7</ele>
        <time>2022-05-31T09:40:29Z</time>
      </trkpt>
      <trkpt lat="49.41781" lon="0.23474">
        <ele>13.7</ele>
        <time>2022-05-31T09:40:31Z</time>
      </trkpt>
      <trkpt lat="49.41781" lon="0.23473">
        <ele>13.7</ele>
        <time>2022-05-31T09:40:32Z</time>
      </trkpt>
      <trkpt lat="49.41782" lon="0.23472">
        <ele>13.7</ele>
        <time>2022-05-31T09:40:34Z</time>
      </trkpt>
      <trkpt lat="49.4178" lon="0.2347">
        <ele>13.7</ele>
        <time>2022-05-31T09:40:35Z</time>
      </trkpt>
      <trkpt lat="49.4178" lon="0.23467">
        <ele>13.7</ele>
        <time>2022-05-31T09:40:37Z</time>
      </trkpt>
      <trkpt lat="49.41779" lon="0.23465">
        <ele>13.9</ele>
        <time>2022-05-31T09:40:38Z</time>
      </trkpt>
      <trkpt lat="49.41778" lon="0.23464">
        <ele>13.9</ele>
        <time>2022-05-31T09:40:39Z</time>
      </trkpt>
      <trkpt lat="49.41778" lon="0.23462">
        <ele>14</ele>
        <time>2022-05-31T09:40:40Z</time>
      </trkpt>
      <trkpt lat="49.41777" lon="0.2346">
        <ele>14</ele>
        <time>2022-05-31T09:40:41Z</time>
      </trkpt>
      <trkpt lat="49.41777" lon="0.23459">
        <ele>14</ele>
        <time>2022-05-31T09:40:42Z</time>
      </trkpt>
      <trkpt lat="49.41777" lon="0.23457">
        <ele>14</ele>
        <time>2022-05-31T09:40:43Z</time>
      </trkpt>
      <trkpt lat="49.41777" lon="0.23456">
        <ele>14</ele>
        <time>2022-05-31T09:40:44Z</time>
      </trkpt>
      <trkpt lat="49.41776" lon="0.23453">
        <ele>14</ele>
        <time>2022-05-31T09:40:45Z</time>
      </trkpt>
      <trkpt lat="49.41775" lon="0.23452">
        <ele>14</ele>
        <time>2022-05-31T09:40:47Z</time>
      </trkpt>
      <trkpt lat="49.41774" lon="0.2345">
        <ele>14</ele>
        <time>2022-05-31T09:40:48Z</time>
      </trkpt>
      <trkpt lat="49.41774" lon="0.23452">
        <ele>14</ele>
        <time>2022-05-31T09:40:49Z</time>
      </trkpt>
      <trkpt lat="49.41775" lon="0.23453">
        <ele>14.1</ele>
        <time>2022-05-31T09:40:50Z</time>
      </trkpt>
      <trkpt lat="49.41775" lon="0.23451">
        <ele>14.1</ele>
        <time>2022-05-31T09:40:52Z</time>
      </trkpt>
      <trkpt lat="49.41774" lon="0.2345">
        <ele>14.1</ele>
        <time>2022-05-31T09:40:53Z</time>
      </trkpt>
      <trkpt lat="49.41774" lon="0.23448">
        <ele>14.1</ele>
        <time>2022-05-31T09:40:54Z</time>
      </trkpt>
      <trkpt lat="49.41774" lon="0.23448">
        <ele>14.1</ele>
        <time>2022-05-31T09:40:55Z</time>
      </trkpt>
      <trkpt lat="49.41773" lon="0.23448">
        <ele>14.1</ele>
        <time>2022-05-31T09:40:56Z</time>
      </trkpt>
      <trkpt lat="49.41773" lon="0.23449">
        <ele>14.1</ele>
        <time>2022-05-31T09:40:58Z</time>
      </trkpt>
      <trkpt lat="49.41772" lon="0.2345">
        <ele>14.1</ele>
        <time>2022-05-31T09:40:59Z</time>
      </trkpt>
      <trkpt lat="49.41771" lon="0.23451">
        <ele>14.1</ele>
        <time>2022-05-31T09:41:01Z</time>
      </trkpt>
      <trkpt lat="49.41771" lon="0.23452">
        <ele>14.1</ele>
        <time>2022-05-31T09:41:02Z</time>
      </trkpt>
      <trkpt lat="49.4177" lon="0.23453">
        <ele>14.1</ele>
        <time>2022-05-31T09:41:03Z</time>
      </trkpt>
      <trkpt lat="49.41769" lon="0.23454">
        <ele>14.1</ele>
        <time>2022-05-31T09:41:04Z</time>
      </trkpt>
      <trkpt lat="49.41769" lon="0.23457">
        <ele>14.2</ele>
        <time>2022-05-31T09:41:06Z</time>
      </trkpt>
      <trkpt lat="49.41769" lon="0.23459">
        <ele>14.2</ele>
        <time>2022-05-31T09:41:07Z</time>
      </trkpt>
      <trkpt lat="49.4177" lon="0.2346">
        <ele>14.2</ele>
        <time>2022-05-31T09:41:08Z</time>
      </trkpt>
      <trkpt lat="49.4177" lon="0.23462">
        <ele>14.2</ele>
        <time>2022-05-31T09:41:09Z</time>
      </trkpt>
      <trkpt lat="49.41768" lon="0.23462">
        <ele>14.2</ele>
        <time>2022-05-31T09:41:11Z</time>
      </trkpt>
      <trkpt lat="49.41767" lon="0.23461">
        <ele>14.2</ele>
        <time>2022-05-31T09:41:12Z</time>
      </trkpt>
      <trkpt lat="49.41766" lon="0.23461">
        <ele>14.2</ele>
        <time>2022-05-31T09:41:13Z</time>
      </trkpt>
      <trkpt lat="49.41765" lon="0.2346">
        <ele>14.2</ele>
        <time>2022-05-31T09:41:14Z</time>
      </trkpt>
      <trkpt lat="49.41763" lon="0.2346">
        <ele>14.3</ele>
        <time>2022-05-31T09:41:15Z</time>
      </trkpt>
      <trkpt lat="49.41763" lon="0.2346">
        <ele>14.3</ele>
        <time>2022-05-31T09:41:16Z</time>
      </trkpt>
      <trkpt lat="49.41762" lon="0.23461">
        <ele>14.3</ele>
        <time>2022-05-31T09:41:17Z</time>
      </trkpt>
      <trkpt lat="49.4176" lon="0.23459">
        <ele>14.3</ele>
        <time>2022-05-31T09:41:19Z</time>
      </trkpt>
      <trkpt lat="49.41759" lon="0.23458">
        <ele>14.5</ele>
        <time>2022-05-31T09:41:20Z</time>
      </trkpt>
      <trkpt lat="49.41758" lon="0.23456">
        <ele>14.5</ele>
        <time>2022-05-31T09:41:21Z</time>
      </trkpt>
      <trkpt lat="49.41757" lon="0.23456">
        <ele>14.5</ele>
        <time>2022-05-31T09:41:23Z</time>
      </trkpt>
      <trkpt lat="49.41756" lon="0.23457">
        <ele>14.5</ele>
        <time>2022-05-31T09:41:24Z</time>
      </trkpt>
      <trkpt lat="49.41757" lon="0.23458">
        <ele>14.5</ele>
        <time>2022-05-31T09:41:25Z</time>
      </trkpt>
      <trkpt lat="49.41756" lon="0.23458">
        <ele>14.5</ele>
        <time>2022-05-31T09:41:27Z</time>
      </trkpt>
      <trkpt lat="49.41756" lon="0.23457">
        <ele>14.5</ele>
        <time>2022-05-31T09:41:28Z</time>
      </trkpt>
      <trkpt lat="49.41755" lon="0.23457">
        <ele>14.5</ele>
        <time>2022-05-31T09:41:29Z</time>
      </trkpt>
      <trkpt lat="49.41754" lon="0.23457">
        <ele>14.5</ele>
        <time>2022-05-31T09:41:31Z</time>
      </trkpt>
      <trkpt lat="49.41754" lon="0.23457">
        <ele>14.5</ele>
        <time>2022-05-31T09:41:32Z</time>
      </trkpt>
      <trkpt lat="49.41755" lon="0.23458">
        <ele>14.5</ele>
        <time>2022-05-31T09:41:33Z</time>
      </trkpt>
      <trkpt lat="49.41755" lon="0.23459">
        <ele>14.5</ele>
        <time>2022-05-31T09:41:35Z</time>
      </trkpt>
      <trkpt lat="49.41756" lon="0.2346">
        <ele>14.5</ele>
        <time>2022-05-31T09:41:36Z</time>
      </trkpt>
      <trkpt lat="49.41756" lon="0.23461">
        <ele>14.5</ele>
        <time>2022-05-31T09:41:37Z</time>
      </trkpt>
      <trkpt lat="49.41757" lon="0.23462">
        <ele>14.5</ele>
        <time>2022-05-31T09:41:39Z</time>
      </trkpt>
      <trkpt lat="49.41758" lon="0.23463">
        <ele>14.5</ele>
        <time>2022-05-31T09:41:40Z</time>
      </trkpt>
      <trkpt lat="49.41758" lon="0.23463">
        <ele>14.5</ele>
        <time>2022-05-31T09:41:41Z</time>
      </trkpt>
      <trkpt lat="49.41759" lon="0.23463">
        <ele>14.5</ele>
        <time>2022-05-31T09:41:43Z</time>
      </trkpt>
      <trkpt lat="49.41759" lon="0.23464">
        <ele>14.5</ele>
        <time>2022-05-31T09:41:44Z</time>
      </trkpt>
      <trkpt lat="49.41759" lon="0.23465">
        <ele>14.5</ele>
        <time>2022-05-31T09:41:45Z</time>
      </trkpt>
      <trkpt lat="49.41759" lon="0.23467">
        <ele>14.5</ele>
        <time>2022-05-31T09:41:46Z</time>
      </trkpt>
      <trkpt lat="49.41758" lon="0.23467">
        <ele>14.5</ele>
        <time>2022-05-31T09:41:47Z</time>
      </trkpt>
      <trkpt lat="49.41758" lon="0.23468">
        <ele>14.5</ele>
        <time>2022-05-31T09:41:49Z</time>
      </trkpt>
      <trkpt lat="49.41757" lon="0.23469">
        <ele>14.5</ele>
        <time>2022-05-31T09:41:50Z</time>
      </trkpt>
      <trkpt lat="49.41757" lon="0.2347">
        <ele>14.5</ele>
        <time>2022-05-31T09:41:51Z</time>
      </trkpt>
      <trkpt lat="49.41757" lon="0.23469">
        <ele>14.5</ele>
        <time>2022-05-31T09:41:52Z</time>
      </trkpt>
      <trkpt lat="49.41757" lon="0.23469">
        <ele>14.5</ele>
        <time>2022-05-31T09:41:53Z</time>
      </trkpt>
      <trkpt lat="49.41757" lon="0.23468">
        <ele>14.5</ele>
        <time>2022-05-31T09:41:54Z</time>
      </trkpt>
      <trkpt lat="49.41757" lon="0.23468">
        <ele>14.5</ele>
        <time>2022-05-31T09:41:55Z</time>
      </trkpt>
      <trkpt lat="49.41757" lon="0.23468">
        <ele>14.5</ele>
        <time>2022-05-31T09:41:56Z</time>
      </trkpt>
      <trkpt lat="49.41757" lon="0.23467">
        <ele>14.5</ele>
        <time>2022-05-31T09:41:57Z</time>
      </trkpt>
      <trkpt lat="49.41757" lon="0.23467">
        <ele>14.5</ele>
        <time>2022-05-31T09:41:58Z</time>
      </trkpt>
      <trkpt lat="49.41757" lon="0.23466">
        <ele>14.5</ele>
        <time>2022-05-31T09:41:59Z</time>
      </trkpt>
      <trkpt lat="49.41757" lon="0.23466">
        <ele>14.5</ele>
        <time>2022-05-31T09:42:00Z</time>
      </trkpt>
      <trkpt lat="49.41757" lon="0.23465">
        <ele>14.5</ele>
        <time>2022-05-31T09:42:01Z</time>
      </trkpt>
      <trkpt lat="49.41757" lon="0.23465">
        <ele>14.5</ele>
        <time>2022-05-31T09:42:02Z</time>
      </trkpt>
      <trkpt lat="49.41757" lon="0.23464">
        <ele>14.5</ele>
        <time>2022-05-31T09:42:03Z</time>
      </trkpt>
      <trkpt lat="49.41757" lon="0.23464">
        <ele>14.5</ele>
        <time>2022-05-31T09:42:04Z</time>
      </trkpt>
      <trkpt lat="49.41757" lon="0.23463">
        <ele>14.6</ele>
        <time>2022-05-31T09:42:05Z</time>
      </trkpt>
      <trkpt lat="49.41757" lon="0.23463">
        <ele>14.6</ele>
        <time>2022-05-31T09:42:06Z</time>
      </trkpt>
      <trkpt lat="49.41756" lon="0.23464">
        <ele>14.6</ele>
        <time>2022-05-31T09:42:07Z</time>
      </trkpt>
      <trkpt lat="49.41756" lon="0.23466">
        <ele>14.6</ele>
        <time>2022-05-31T09:42:08Z</time>
      </trkpt>
      <trkpt lat="49.41755" lon="0.23468">
        <ele>14.6</ele>
        <time>2022-05-31T09:42:09Z</time>
      </trkpt>
      <trkpt lat="49.41754" lon="0.2347">
        <ele>14.6</ele>
        <time>2022-05-31T09:42:10Z</time>
      </trkpt>
      <trkpt lat="49.41754" lon="0.23472">
        <ele>14.6</ele>
        <time>2022-05-31T09:42:11Z</time>
      </trkpt>
      <trkpt lat="49.41753" lon="0.23474">
        <ele>14.6</ele>
        <time>2022-05-31T09:42:12Z</time>
      </trkpt>
      <trkpt lat="49.41752" lon="0.23476">
        <ele>14.6</ele>
        <time>2022-05-31T09:42:13Z</time>
      </trkpt>
      <trkpt lat="49.41752" lon="0.23478">
        <ele>14.6</ele>
        <time>2022-05-31T09:42:14Z</time>
      </trkpt>
      <trkpt lat="49.41751" lon="0.2348">
        <ele>14.6</ele>
        <time>2022-05-31T09:42:15Z</time>
      </trkpt>
      <trkpt lat="49.4175" lon="0.23482">
        <ele>14.6</ele>
        <time>2022-05-31T09:42:16Z</time>
      </trkpt>
      <trkpt lat="49.41749" lon="0.23485">
        <ele>14.6</ele>
        <time>2022-05-31T09:42:17Z</time>
      </trkpt>
      <trkpt lat="49.41749" lon="0.23487">
        <ele>14.6</ele>
        <time>2022-05-31T09:42:18Z</time>
      </trkpt>
      <trkpt lat="49.41748" lon="0.23489">
        <ele>14.6</ele>
        <time>2022-05-31T09:42:19Z</time>
      </trkpt>
      <trkpt lat="49.41747" lon="0.23491">
        <ele>14.6</ele>
        <time>2022-05-31T09:42:20Z</time>
      </trkpt>
      <trkpt lat="49.41747" lon="0.23493">
        <ele>14.6</ele>
        <time>2022-05-31T09:42:21Z</time>
      </trkpt>
      <trkpt lat="49.41746" lon="0.23495">
        <ele>14.6</ele>
        <time>2022-05-31T09:42:22Z</time>
      </trkpt>
      <trkpt lat="49.41746" lon="0.23495">
        <ele>14.6</ele>
        <time>2022-05-31T09:42:23Z</time>
      </trkpt>
      <trkpt lat="49.41746" lon="0.23495">
        <ele>14.6</ele>
        <time>2022-05-31T09:42:24Z</time>
      </trkpt>
      <trkpt lat="49.41746" lon="0.23495">
        <ele>14.6</ele>
        <time>2022-05-31T09:42:25Z</time>
      </trkpt>
      <trkpt lat="49.41747" lon="0.2349">
        <ele>14.6</ele>
        <time>2022-05-31T09:42:26Z</time>
      </trkpt>
      <trkpt lat="49.41747" lon="0.23491">
        <ele>14.6</ele>
        <time>2022-05-31T09:42:27Z</time>
      </trkpt>
      <trkpt lat="49.41747" lon="0.23492">
        <ele>14.6</ele>
        <time>2022-05-31T09:42:28Z</time>
      </trkpt>
      <trkpt lat="49.41747" lon="0.23494">
        <ele>14.6</ele>
        <time>2022-05-31T09:42:29Z</time>
      </trkpt>
      <trkpt lat="49.41746" lon="0.23495">
        <ele>14.6</ele>
        <time>2022-05-31T09:42:30Z</time>
      </trkpt>
      <trkpt lat="49.41746" lon="0.23496">
        <ele>14.7</ele>
        <time>2022-05-31T09:42:31Z</time>
      </trkpt>
      <trkpt lat="49.41746" lon="0.23496">
        <ele>14.7</ele>
        <time>2022-05-31T09:42:32Z</time>
      </trkpt>
      <trkpt lat="49.41746" lon="0.23496">
        <ele>14.7</ele>
        <time>2022-05-31T09:42:33Z</time>
      </trkpt>
      <trkpt lat="49.41746" lon="0.23496">
        <ele>14.7</ele>
        <time>2022-05-31T09:42:34Z</time>
      </trkpt>
      <trkpt lat="49.41746" lon="0.23496">
        <ele>14.7</ele>
        <time>2022-05-31T09:42:35Z</time>
      </trkpt>
      <trkpt lat="49.41746" lon="0.23496">
        <ele>14.7</ele>
        <time>2022-05-31T09:42:36Z</time>
      </trkpt>
      <trkpt lat="49.41747" lon="0.23496">
        <ele>14.7</ele>
        <time>2022-05-31T09:42:38Z</time>
      </trkpt>
      <trkpt lat="49.41749" lon="0.23495">
        <ele>14.7</ele>
        <time>2022-05-31T09:42:39Z</time>
      </trkpt>
      <trkpt lat="49.41752" lon="0.23494">
        <ele>14.7</ele>
        <time>2022-05-31T09:42:40Z</time>
      </trkpt>
      <trkpt lat="49.4176" lon="0.2349">
        <ele>14.7</ele>
        <time>2022-05-31T09:42:42Z</time>
      </trkpt>
      <trkpt lat="49.41759" lon="0.23492">
        <ele>14.7</ele>
        <time>2022-05-31T09:42:43Z</time>
      </trkpt>
      <trkpt lat="49.41757" lon="0.23494">
        <ele>14.7</ele>
        <time>2022-05-31T09:42:44Z</time>
      </trkpt>
      <trkpt lat="49.41756" lon="0.23494">
        <ele>14.7</ele>
        <time>2022-05-31T09:42:45Z</time>
      </trkpt>
      <trkpt lat="49.41747" lon="0.23495">
        <ele>14.7</ele>
        <time>2022-05-31T09:42:47Z</time>
      </trkpt>
      <trkpt lat="49.41741" lon="0.23494">
        <ele>14.8</ele>
        <time>2022-05-31T09:42:48Z</time>
      </trkpt>
      <trkpt lat="49.41736" lon="0.23493">
        <ele>14.8</ele>
        <time>2022-05-31T09:42:49Z</time>
      </trkpt>
      <trkpt lat="49.41739" lon="0.23491">
        <ele>14.8</ele>
        <time>2022-05-31T09:42:50Z</time>
      </trkpt>
      <trkpt lat="49.41747" lon="0.23495">
        <ele>14.8</ele>
        <time>2022-05-31T09:42:51Z</time>
      </trkpt>
      <trkpt lat="49.41748" lon="0.23496">
        <ele>14.8</ele>
        <time>2022-05-31T09:42:53Z</time>
      </trkpt>
      <trkpt lat="49.41748" lon="0.23496">
        <ele>14.8</ele>
        <time>2022-05-31T09:42:54Z</time>
      </trkpt>
      <trkpt lat="49.41749" lon="0.23495">
        <ele>14.8</ele>
        <time>2022-05-31T09:42:55Z</time>
      </trkpt>
      <trkpt lat="49.41749" lon="0.23494">
        <ele>14.8</ele>
        <time>2022-05-31T09:42:56Z</time>
      </trkpt>
      <trkpt lat="49.4175" lon="0.23494">
        <ele>14.8</ele>
        <time>2022-05-31T09:42:57Z</time>
      </trkpt>
      <trkpt lat="49.4175" lon="0.23493">
        <ele>14.8</ele>
        <time>2022-05-31T09:42:58Z</time>
      </trkpt>
      <trkpt lat="49.41751" lon="0.23493">
        <ele>14.8</ele>
        <time>2022-05-31T09:42:59Z</time>
      </trkpt>
      <trkpt lat="49.41752" lon="0.23492">
        <ele>14.8</ele>
        <time>2022-05-31T09:43:00Z</time>
      </trkpt>
      <trkpt lat="49.41752" lon="0.23491">
        <ele>14.8</ele>
        <time>2022-05-31T09:43:01Z</time>
      </trkpt>
      <trkpt lat="49.41754" lon="0.23488">
        <ele>14.8</ele>
        <time>2022-05-31T09:43:02Z</time>
      </trkpt>
      <trkpt lat="49.41755" lon="0.23488">
        <ele>14.8</ele>
        <time>2022-05-31T09:43:03Z</time>
      </trkpt>
      <trkpt lat="49.41756" lon="0.23487">
        <ele>14.9</ele>
        <time>2022-05-31T09:43:04Z</time>
      </trkpt>
      <trkpt lat="49.41758" lon="0.23487">
        <ele>14.9</ele>
        <time>2022-05-31T09:43:05Z</time>
      </trkpt>
      <trkpt lat="49.41767" lon="0.23484">
        <ele>14.9</ele>
        <time>2022-05-31T09:43:07Z</time>
      </trkpt>
      <trkpt lat="49.4177" lon="0.23482">
        <ele>14.9</ele>
        <time>2022-05-31T09:43:08Z</time>
      </trkpt>
      <trkpt lat="49.41771" lon="0.23481">
        <ele>14.9</ele>
        <time>2022-05-31T09:43:09Z</time>
      </trkpt>
      <trkpt lat="49.41772" lon="0.23481">
        <ele>14.9</ele>
        <time>2022-05-31T09:43:10Z</time>
      </trkpt>
      <trkpt lat="49.41772" lon="0.2348">
        <ele>14.9</ele>
        <time>2022-05-31T09:43:11Z</time>
      </trkpt>
      <trkpt lat="49.41772" lon="0.2348">
        <ele>14.9</ele>
        <time>2022-05-31T09:43:12Z</time>
      </trkpt>
      <trkpt lat="49.41772" lon="0.2348">
        <ele>14.9</ele>
        <time>2022-05-31T09:43:13Z</time>
      </trkpt>
      <trkpt lat="49.41772" lon="0.2348">
        <ele>14.9</ele>
        <time>2022-05-31T09:43:14Z</time>
      </trkpt>
      <trkpt lat="49.41771" lon="0.23481">
        <ele>14.9</ele>
        <time>2022-05-31T09:43:15Z</time>
      </trkpt>
      <trkpt lat="49.41771" lon="0.23481">
        <ele>14.9</ele>
        <time>2022-05-31T09:43:16Z</time>
      </trkpt>
      <trkpt lat="49.41771" lon="0.23481">
        <ele>14.9</ele>
        <time>2022-05-31T09:43:17Z</time>
      </trkpt>
      <trkpt lat="49.41771" lon="0.23481">
        <ele>14.9</ele>
        <time>2022-05-31T09:43:18Z</time>
      </trkpt>
      <trkpt lat="49.41771" lon="0.23481">
        <ele>14.9</ele>
        <time>2022-05-31T09:43:19Z</time>
      </trkpt>
      <trkpt lat="49.41771" lon="0.23481">
        <ele>14.9</ele>
        <time>2022-05-31T09:43:20Z</time>
      </trkpt>
      <trkpt lat="49.41771" lon="0.23481">
        <ele>14.9</ele>
        <time>2022-05-31T09:43:21Z</time>
      </trkpt>
      <trkpt lat="49.41771" lon="0.23481">
        <ele>14.9</ele>
        <time>2022-05-31T09:43:22Z</time>
      </trkpt>
      <trkpt lat="49.41771" lon="0.23481">
        <ele>14.9</ele>
        <time>2022-05-31T09:43:23Z</time>
      </trkpt>
      <trkpt lat="49.41771" lon="0.23481">
        <ele>14.9</ele>
        <time>2022-05-31T09:43:24Z</time>
      </trkpt>
      <trkpt lat="49.41771" lon="0.23481">
        <ele>14.9</ele>
        <time>2022-05-31T09:43:25Z</time>
      </trkpt>
      <trkpt lat="49.41771" lon="0.23481">
        <ele>14.9</ele>
        <time>2022-05-31T09:43:26Z</time>
      </trkpt>
      <trkpt lat="49.41771" lon="0.23481">
        <ele>14.9</ele>
        <time>2022-05-31T09:43:27Z</time>
      </trkpt>
      <trkpt lat="49.41771" lon="0.23481">
        <ele>14.9</ele>
        <time>2022-05-31T09:43:28Z</time>
      </trkpt>
      <trkpt lat="49.41771" lon="0.23481">
        <ele>14.9</ele>
        <time>2022-05-31T09:43:29Z</time>
      </trkpt>
      <trkpt lat="49.41771" lon="0.23481">
        <ele>14.9</ele>
        <time>2022-05-31T09:43:30Z</time>
      </trkpt>
      <trkpt lat="49.41771" lon="0.23481">
        <ele>14.9</ele>
        <time>2022-05-31T09:43:31Z</time>
      </trkpt>
      <trkpt lat="49.41771" lon="0.23481">
        <ele>14.9</ele>
        <time>2022-05-31T09:43:32Z</time>
      </trkpt>
      <trkpt lat="49.41771" lon="0.23481">
        <ele>14.9</ele>
        <time>2022-05-31T09:43:33Z</time>
      </trkpt>
      <trkpt lat="49.41771" lon="0.23481">
        <ele>14.9</ele>
        <time>2022-05-31T09:43:34Z</time>
      </trkpt>
      <trkpt lat="49.41771" lon="0.23481">
        <ele>14.9</ele>
        <time>2022-05-31T09:43:35Z</time>
      </trkpt>
      <trkpt lat="49.41771" lon="0.23481">
        <ele>14.9</ele>
        <time>2022-05-31T09:43:36Z</time>
      </trkpt>
      <trkpt lat="49.4177" lon="0.23481">
        <ele>14.9</ele>
        <time>2022-05-31T09:43:37Z</time>
      </trkpt>
      <trkpt lat="49.4177" lon="0.23481">
        <ele>14.9</ele>
        <time>2022-05-31T09:43:38Z</time>
      </trkpt>
      <trkpt lat="49.4177" lon="0.23482">
        <ele>14.9</ele>
        <time>2022-05-31T09:43:40Z</time>
      </trkpt>
      <trkpt lat="49.41768" lon="0.23486">
        <ele>14.9</ele>
        <time>2022-05-31T09:43:42Z</time>
      </trkpt>
      <trkpt lat="49.41766" lon="0.23488">
        <ele>14.9</ele>
        <time>2022-05-31T09:43:43Z</time>
      </trkpt>
      <trkpt lat="49.41766" lon="0.2349">
        <ele>14.9</ele>
        <time>2022-05-31T09:43:44Z</time>
      </trkpt>
      <trkpt lat="49.41766" lon="0.23491">
        <ele>14.9</ele>
        <time>2022-05-31T09:43:45Z</time>
      </trkpt>
      <trkpt lat="49.41766" lon="0.23491">
        <ele>14.9</ele>
        <time>2022-05-31T09:43:46Z</time>
      </trkpt>
      <trkpt lat="49.41764" lon="0.23494">
        <ele>15</ele>
        <time>2022-05-31T09:43:47Z</time>
      </trkpt>
      <trkpt lat="49.41764" lon="0.23494">
        <ele>15</ele>
        <time>2022-05-31T09:43:48Z</time>
      </trkpt>
      <trkpt lat="49.41764" lon="0.23494">
        <ele>15</ele>
        <time>2022-05-31T09:43:49Z</time>
      </trkpt>
      <trkpt lat="49.41764" lon="0.23494">
        <ele>15</ele>
        <time>2022-05-31T09:43:50Z</time>
      </trkpt>
      <trkpt lat="49.41767" lon="0.23493">
        <ele>15</ele>
        <time>2022-05-31T09:43:52Z</time>
      </trkpt>
      <trkpt lat="49.41767" lon="0.23493">
        <ele>15</ele>
        <time>2022-05-31T09:43:53Z</time>
      </trkpt>
      <trkpt lat="49.41767" lon="0.23493">
        <ele>15</ele>
        <time>2022-05-31T09:43:54Z</time>
      </trkpt>
      <trkpt lat="49.41768" lon="0.23493">
        <ele>15</ele>
        <time>2022-05-31T09:43:55Z</time>
      </trkpt>
      <trkpt lat="49.41768" lon="0.23493">
        <ele>15</ele>
        <time>2022-05-31T09:43:57Z</time>
      </trkpt>
      <trkpt lat="49.41768" lon="0.23493">
        <ele>15</ele>
        <time>2022-05-31T09:43:58Z</time>
      </trkpt>
      <trkpt lat="49.41768" lon="0.23493">
        <ele>15</ele>
        <time>2022-05-31T09:43:59Z</time>
      </trkpt>
      <trkpt lat="49.41768" lon="0.23493">
        <ele>15</ele>
        <time>2022-05-31T09:44:00Z</time>
      </trkpt>
      <trkpt lat="49.41768" lon="0.23494">
        <ele>15</ele>
        <time>2022-05-31T09:44:01Z</time>
      </trkpt>
      <trkpt lat="49.41768" lon="0.23494">
        <ele>15</ele>
        <time>2022-05-31T09:44:02Z</time>
      </trkpt>
      <trkpt lat="49.41768" lon="0.23494">
        <ele>15</ele>
        <time>2022-05-31T09:44:03Z</time>
      </trkpt>
      <trkpt lat="49.41767" lon="0.23494">
        <ele>15</ele>
        <time>2022-05-31T09:44:05Z</time>
      </trkpt>
      <trkpt lat="49.41767" lon="0.23494">
        <ele>15</ele>
        <time>2022-05-31T09:44:06Z</time>
      </trkpt>
      <trkpt lat="49.41766" lon="0.23495">
        <ele>15</ele>
        <time>2022-05-31T09:44:07Z</time>
      </trkpt>
      <trkpt lat="49.41766" lon="0.23496">
        <ele>15</ele>
        <time>2022-05-31T09:44:08Z</time>
      </trkpt>
      <trkpt lat="49.41765" lon="0.23498">
        <ele>15</ele>
        <time>2022-05-31T09:44:09Z</time>
      </trkpt>
      <trkpt lat="49.41764" lon="0.23502">
        <ele>15</ele>
        <time>2022-05-31T09:44:10Z</time>
      </trkpt>
      <trkpt lat="49.41764" lon="0.23503">
        <ele>15</ele>
        <time>2022-05-31T09:44:11Z</time>
      </trkpt>
      <trkpt lat="49.41762" lon="0.23506">
        <ele>15</ele>
        <time>2022-05-31T09:44:12Z</time>
      </trkpt>
      <trkpt lat="49.41762" lon="0.23506">
        <ele>15</ele>
        <time>2022-05-31T09:44:13Z</time>
      </trkpt>
      <trkpt lat="49.41762" lon="0.23506">
        <ele>15</ele>
        <time>2022-05-31T09:44:14Z</time>
      </trkpt>
      <trkpt lat="49.41762" lon="0.23506">
        <ele>15</ele>
        <time>2022-05-31T09:44:15Z</time>
      </trkpt>
      <trkpt lat="49.41762" lon="0.23506">
        <ele>15</ele>
        <time>2022-05-31T09:44:16Z</time>
      </trkpt>
      <trkpt lat="49.41761" lon="0.23507">
        <ele>15</ele>
        <time>2022-05-31T09:44:17Z</time>
      </trkpt>
      <trkpt lat="49.41761" lon="0.23506">
        <ele>15</ele>
        <time>2022-05-31T09:44:18Z</time>
      </trkpt>
      <trkpt lat="49.41761" lon="0.23507">
        <ele>15</ele>
        <time>2022-05-31T09:44:19Z</time>
      </trkpt>
      <trkpt lat="49.41761" lon="0.23507">
        <ele>15</ele>
        <time>2022-05-31T09:44:20Z</time>
      </trkpt>
      <trkpt lat="49.4176" lon="0.23506">
        <ele>15</ele>
        <time>2022-05-31T09:44:22Z</time>
      </trkpt>
      <trkpt lat="49.41759" lon="0.23506">
        <ele>15</ele>
        <time>2022-05-31T09:44:23Z</time>
      </trkpt>
      <trkpt lat="49.41757" lon="0.23507">
        <ele>15</ele>
        <time>2022-05-31T09:44:24Z</time>
      </trkpt>
      <trkpt lat="49.41757" lon="0.23507">
        <ele>15</ele>
        <time>2022-05-31T09:44:26Z</time>
      </trkpt>
      <trkpt lat="49.41756" lon="0.23508">
        <ele>15</ele>
        <time>2022-05-31T09:44:27Z</time>
      </trkpt>
      <trkpt lat="49.41754" lon="0.23509">
        <ele>15</ele>
        <time>2022-05-31T09:44:28Z</time>
      </trkpt>
      <trkpt lat="49.41754" lon="0.2351">
        <ele>15</ele>
        <time>2022-05-31T09:44:30Z</time>
      </trkpt>
      <trkpt lat="49.41753" lon="0.2351">
        <ele>15</ele>
        <time>2022-05-31T09:44:31Z</time>
      </trkpt>
      <trkpt lat="49.41753" lon="0.23511">
        <ele>15</ele>
        <time>2022-05-31T09:44:32Z</time>
      </trkpt>
      <trkpt lat="49.41753" lon="0.23511">
        <ele>15</ele>
        <time>2022-05-31T09:44:33Z</time>
      </trkpt>
      <trkpt lat="49.41753" lon="0.23512">
        <ele>15</ele>
        <time>2022-05-31T09:44:34Z</time>
      </trkpt>
      <trkpt lat="49.41753" lon="0.23512">
        <ele>15</ele>
        <time>2022-05-31T09:44:35Z</time>
      </trkpt>
      <trkpt lat="49.41753" lon="0.23512">
        <ele>15</ele>
        <time>2022-05-31T09:44:36Z</time>
      </trkpt>
      <trkpt lat="49.41753" lon="0.23512">
        <ele>15</ele>
        <time>2022-05-31T09:44:37Z</time>
      </trkpt>
      <trkpt lat="49.41752" lon="0.23512">
        <ele>15</ele>
        <time>2022-05-31T09:44:38Z</time>
      </trkpt>
      <trkpt lat="49.41752" lon="0.23512">
        <ele>15</ele>
        <time>2022-05-31T09:44:39Z</time>
      </trkpt>
      <trkpt lat="49.41752" lon="0.23513">
        <ele>15</ele>
        <time>2022-05-31T09:44:40Z</time>
      </trkpt>
      <trkpt lat="49.41752" lon="0.23513">
        <ele>15</ele>
        <time>2022-05-31T09:44:41Z</time>
      </trkpt>
      <trkpt lat="49.41751" lon="0.23512">
        <ele>15</ele>
        <time>2022-05-31T09:44:42Z</time>
      </trkpt>
      <trkpt lat="49.41751" lon="0.23512">
        <ele>15</ele>
        <time>2022-05-31T09:44:43Z</time>
      </trkpt>
      <trkpt lat="49.41751" lon="0.23512">
        <ele>15</ele>
        <time>2022-05-31T09:44:44Z</time>
      </trkpt>
      <trkpt lat="49.41751" lon="0.23512">
        <ele>15</ele>
        <time>2022-05-31T09:44:45Z</time>
      </trkpt>
      <trkpt lat="49.41751" lon="0.23512">
        <ele>15</ele>
        <time>2022-05-31T09:44:46Z</time>
      </trkpt>
      <trkpt lat="49.4175" lon="0.23509">
        <ele>15</ele>
        <time>2022-05-31T09:44:48Z</time>
      </trkpt>
      <trkpt lat="49.4175" lon="0.23509">
        <ele>15</ele>
        <time>2022-05-31T09:44:49Z</time>
      </trkpt>
      <trkpt lat="49.41749" lon="0.23507">
        <ele>15</ele>
        <time>2022-05-31T09:44:51Z</time>
      </trkpt>
      <trkpt lat="49.41748" lon="0.23506">
        <ele>15</ele>
        <time>2022-05-31T09:44:52Z</time>
      </trkpt>
      <trkpt lat="49.41748" lon="0.23506">
        <ele>15</ele>
        <time>2022-05-31T09:44:53Z</time>
      </trkpt>
      <trkpt lat="49.41748" lon="0.23506">
        <ele>15</ele>
        <time>2022-05-31T09:44:54Z</time>
      </trkpt>
      <trkpt lat="49.41748" lon="0.23506">
        <ele>15</ele>
        <time>2022-05-31T09:44:55Z</time>
      </trkpt>
      <trkpt lat="49.41748" lon="0.23506">
        <ele>15</ele>
        <time>2022-05-31T09:44:56Z</time>
      </trkpt>
      <trkpt lat="49.41748" lon="0.23506">
        <ele>15</ele>
        <time>2022-05-31T09:44:57Z</time>
      </trkpt>
      <trkpt lat="49.41748" lon="0.23506">
        <ele>15</ele>
        <time>2022-05-31T09:44:58Z</time>
      </trkpt>
      <trkpt lat="49.41749" lon="0.23505">
        <ele>15</ele>
        <time>2022-05-31T09:44:59Z</time>
      </trkpt>
      <trkpt lat="49.41749" lon="0.23505">
        <ele>15</ele>
        <time>2022-05-31T09:45:00Z</time>
      </trkpt>
      <trkpt lat="49.41748" lon="0.23504">
        <ele>15</ele>
        <time>2022-05-31T09:45:01Z</time>
      </trkpt>
      <trkpt lat="49.41748" lon="0.23502">
        <ele>15</ele>
        <time>2022-05-31T09:45:02Z</time>
      </trkpt>
      <trkpt lat="49.41747" lon="0.23502">
        <ele>15</ele>
        <time>2022-05-31T09:45:04Z</time>
      </trkpt>
      <trkpt lat="49.41747" lon="0.23501">
        <ele>15</ele>
        <time>2022-05-31T09:45:05Z</time>
      </trkpt>
      <trkpt lat="49.41747" lon="0.235">
        <ele>15</ele>
        <time>2022-05-31T09:45:06Z</time>
      </trkpt>
      <trkpt lat="49.41747" lon="0.23498">
        <ele>15</ele>
        <time>2022-05-31T09:45:07Z</time>
      </trkpt>
      <trkpt lat="49.41747" lon="0.23498">
        <ele>15</ele>
        <time>2022-05-31T09:45:08Z</time>
      </trkpt>
      <trkpt lat="49.41747" lon="0.23497">
        <ele>15</ele>
        <time>2022-05-31T09:45:09Z</time>
      </trkpt>
      <trkpt lat="49.41747" lon="0.23494">
        <ele>15</ele>
        <time>2022-05-31T09:45:10Z</time>
      </trkpt>
      <trkpt lat="49.41746" lon="0.23493">
        <ele>14.9</ele>
        <time>2022-05-31T09:45:11Z</time>
      </trkpt>
      <trkpt lat="49.41746" lon="0.23491">
        <ele>14.9</ele>
        <time>2022-05-31T09:45:12Z</time>
      </trkpt>
      <trkpt lat="49.41746" lon="0.23491">
        <ele>14.9</ele>
        <time>2022-05-31T09:45:13Z</time>
      </trkpt>
      <trkpt lat="49.41746" lon="0.23491">
        <ele>14.9</ele>
        <time>2022-05-31T09:45:14Z</time>
      </trkpt>
      <trkpt lat="49.41747" lon="0.23491">
        <ele>14.9</ele>
        <time>2022-05-31T09:45:15Z</time>
      </trkpt>
      <trkpt lat="49.41747" lon="0.23491">
        <ele>14.9</ele>
        <time>2022-05-31T09:45:16Z</time>
      </trkpt>
      <trkpt lat="49.41747" lon="0.23489">
        <ele>14.9</ele>
        <time>2022-05-31T09:45:18Z</time>
      </trkpt>
      <trkpt lat="49.41747" lon="0.23488">
        <ele>14.9</ele>
        <time>2022-05-31T09:45:19Z</time>
      </trkpt>
      <trkpt lat="49.41747" lon="0.23487">
        <ele>14.9</ele>
        <time>2022-05-31T09:45:20Z</time>
      </trkpt>
      <trkpt lat="49.41748" lon="0.23486">
        <ele>14.9</ele>
        <time>2022-05-31T09:45:21Z</time>
      </trkpt>
      <trkpt lat="49.41749" lon="0.23483">
        <ele>14.9</ele>
        <time>2022-05-31T09:45:22Z</time>
      </trkpt>
      <trkpt lat="49.41749" lon="0.23483">
        <ele>14.9</ele>
        <time>2022-05-31T09:45:24Z</time>
      </trkpt>
      <trkpt lat="49.41749" lon="0.23481">
        <ele>14.9</ele>
        <time>2022-05-31T09:45:25Z</time>
      </trkpt>
      <trkpt lat="49.41749" lon="0.2348">
        <ele>14.9</ele>
        <time>2022-05-31T09:45:27Z</time>
      </trkpt>
      <trkpt lat="49.4175" lon="0.23479">
        <ele>14.9</ele>
        <time>2022-05-31T09:45:28Z</time>
      </trkpt>
      <trkpt lat="49.41751" lon="0.23478">
        <ele>14.9</ele>
        <time>2022-05-31T09:45:29Z</time>
      </trkpt>
      <trkpt lat="49.41752" lon="0.23477">
        <ele>14.9</ele>
        <time>2022-05-31T09:45:31Z</time>
      </trkpt>
      <trkpt lat="49.41753" lon="0.23475">
        <ele>14.9</ele>
        <time>2022-05-31T09:45:32Z</time>
      </trkpt>
      <trkpt lat="49.41753" lon="0.23475">
        <ele>14.9</ele>
        <time>2022-05-31T09:45:34Z</time>
      </trkpt>
      <trkpt lat="49.41754" lon="0.23473">
        <ele>14.9</ele>
        <time>2022-05-31T09:45:35Z</time>
      </trkpt>
      <trkpt lat="49.41754" lon="0.23473">
        <ele>14.9</ele>
        <time>2022-05-31T09:45:36Z</time>
      </trkpt>
      <trkpt lat="49.41754" lon="0.23471">
        <ele>14.9</ele>
        <time>2022-05-31T09:45:38Z</time>
      </trkpt>
      <trkpt lat="49.41754" lon="0.23469">
        <ele>14.9</ele>
        <time>2022-05-31T09:45:39Z</time>
      </trkpt>
      <trkpt lat="49.41755" lon="0.23469">
        <ele>14.9</ele>
        <time>2022-05-31T09:45:40Z</time>
      </trkpt>
      <trkpt lat="49.41755" lon="0.23468">
        <ele>14.9</ele>
        <time>2022-05-31T09:45:41Z</time>
      </trkpt>
      <trkpt lat="49.41755" lon="0.23468">
        <ele>14.9</ele>
        <time>2022-05-31T09:45:43Z</time>
      </trkpt>
      <trkpt lat="49.41755" lon="0.23467">
        <ele>14.9</ele>
        <time>2022-05-31T09:45:44Z</time>
      </trkpt>
      <trkpt lat="49.41756" lon="0.23467">
        <ele>14.9</ele>
        <time>2022-05-31T09:45:46Z</time>
      </trkpt>
      <trkpt lat="49.41756" lon="0.23465">
        <ele>14.9</ele>
        <time>2022-05-31T09:45:47Z</time>
      </trkpt>
      <trkpt lat="49.41756" lon="0.23464">
        <ele>14.9</ele>
        <time>2022-05-31T09:45:48Z</time>
      </trkpt>
      <trkpt lat="49.41756" lon="0.23464">
        <ele>14.9</ele>
        <time>2022-05-31T09:45:49Z</time>
      </trkpt>
      <trkpt lat="49.41756" lon="0.23464">
        <ele>14.9</ele>
        <time>2022-05-31T09:45:50Z</time>
      </trkpt>
      <trkpt lat="49.41756" lon="0.23464">
        <ele>14.9</ele>
        <time>2022-05-31T09:45:51Z</time>
      </trkpt>
      <trkpt lat="49.41756" lon="0.23464">
        <ele>14.9</ele>
        <time>2022-05-31T09:45:53Z</time>
      </trkpt>
      <trkpt lat="49.41756" lon="0.23464">
        <ele>14.9</ele>
        <time>2022-05-31T09:45:54Z</time>
      </trkpt>
      <trkpt lat="49.41756" lon="0.23464">
        <ele>14.9</ele>
        <time>2022-05-31T09:45:55Z</time>
      </trkpt>
      <trkpt lat="49.41757" lon="0.23464">
        <ele>14.9</ele>
        <time>2022-05-31T09:45:57Z</time>
      </trkpt>
      <trkpt lat="49.41759" lon="0.23463">
        <ele>14.9</ele>
        <time>2022-05-31T09:45:58Z</time>
      </trkpt>
      <trkpt lat="49.41761" lon="0.23462">
        <ele>14.9</ele>
        <time>2022-05-31T09:45:59Z</time>
      </trkpt>
      <trkpt lat="49.41763" lon="0.23461">
        <ele>14.9</ele>
        <time>2022-05-31T09:46:00Z</time>
      </trkpt>
      <trkpt lat="49.41764" lon="0.2346">
        <ele>14.8</ele>
        <time>2022-05-31T09:46:01Z</time>
      </trkpt>
      <trkpt lat="49.41766" lon="0.23459">
        <ele>14.8</ele>
        <time>2022-05-31T09:46:02Z</time>
      </trkpt>
      <trkpt lat="49.41767" lon="0.23458">
        <ele>14.8</ele>
        <time>2022-05-31T09:46:03Z</time>
      </trkpt>
      <trkpt lat="49.41768" lon="0.23457">
        <ele>14.8</ele>
        <time>2022-05-31T09:46:04Z</time>
      </trkpt>
      <trkpt lat="49.41768" lon="0.23457">
        <ele>14.8</ele>
        <time>2022-05-31T09:46:05Z</time>
      </trkpt>
      <trkpt lat="49.41769" lon="0.23456">
        <ele>14.8</ele>
        <time>2022-05-31T09:46:06Z</time>
      </trkpt>
      <trkpt lat="49.4177" lon="0.23461">
        <ele>14.8</ele>
        <time>2022-05-31T09:46:08Z</time>
      </trkpt>
      <trkpt lat="49.41769" lon="0.23463">
        <ele>14.8</ele>
        <time>2022-05-31T09:46:09Z</time>
      </trkpt>
      <trkpt lat="49.41769" lon="0.23465">
        <ele>14.8</ele>
        <time>2022-05-31T09:46:10Z</time>
      </trkpt>
      <trkpt lat="49.41769" lon="0.23464">
        <ele>14.8</ele>
        <time>2022-05-31T09:46:12Z</time>
      </trkpt>
      <trkpt lat="49.41769" lon="0.23462">
        <ele>14.8</ele>
        <time>2022-05-31T09:46:13Z</time>
      </trkpt>
      <trkpt lat="49.41768" lon="0.23461">
        <ele>14.8</ele>
        <time>2022-05-31T09:46:15Z</time>
      </trkpt>
      <trkpt lat="49.41768" lon="0.23459">
        <ele>14.8</ele>
        <time>2022-05-31T09:46:16Z</time>
      </trkpt>
      <trkpt lat="49.41768" lon="0.23457">
        <ele>14.8</ele>
        <time>2022-05-31T09:46:17Z</time>
      </trkpt>
      <trkpt lat="49.41768" lon="0.23457">
        <ele>14.8</ele>
        <time>2022-05-31T09:46:18Z</time>
      </trkpt>
      <trkpt lat="49.41767" lon="0.23456">
        <ele>14.8</ele>
        <time>2022-05-31T09:46:19Z</time>
      </trkpt>
      <trkpt lat="49.41767" lon="0.23455">
        <ele>14.8</ele>
        <time>2022-05-31T09:46:20Z</time>
      </trkpt>
      <trkpt lat="49.41766" lon="0.23455">
        <ele>14.8</ele>
        <time>2022-05-31T09:46:21Z</time>
      </trkpt>
      <trkpt lat="49.41766" lon="0.23455">
        <ele>14.8</ele>
        <time>2022-05-31T09:46:22Z</time>
      </trkpt>
      <trkpt lat="49.41766" lon="0.23455">
        <ele>14.8</ele>
        <time>2022-05-31T09:46:23Z</time>
      </trkpt>
      <trkpt lat="49.41765" lon="0.23455">
        <ele>14.8</ele>
        <time>2022-05-31T09:46:24Z</time>
      </trkpt>
      <trkpt lat="49.41765" lon="0.23455">
        <ele>14.8</ele>
        <time>2022-05-31T09:46:25Z</time>
      </trkpt>
      <trkpt lat="49.41765" lon="0.23455">
        <ele>14.8</ele>
        <time>2022-05-31T09:46:26Z</time>
      </trkpt>
      <trkpt lat="49.41765" lon="0.23455">
        <ele>14.8</ele>
        <time>2022-05-31T09:46:27Z</time>
      </trkpt>
      <trkpt lat="49.41765" lon="0.23455">
        <ele>14.8</ele>
        <time>2022-05-31T09:46:28Z</time>
      </trkpt>
      <trkpt lat="49.41765" lon="0.23455">
        <ele>14.8</ele>
        <time>2022-05-31T09:46:29Z</time>
      </trkpt>
      <trkpt lat="49.41765" lon="0.23455">
        <ele>14.8</ele>
        <time>2022-05-31T09:46:31Z</time>
      </trkpt>
      <trkpt lat="49.41765" lon="0.23455">
        <ele>14.8</ele>
        <time>2022-05-31T09:46:32Z</time>
      </trkpt>
      <trkpt lat="49.41765" lon="0.23455">
        <ele>14.8</ele>
        <time>2022-05-31T09:46:33Z</time>
      </trkpt>
      <trkpt lat="49.41765" lon="0.23455">
        <ele>14.8</ele>
        <time>2022-05-31T09:46:34Z</time>
      </trkpt>
      <trkpt lat="49.41765" lon="0.23455">
        <ele>14.8</ele>
        <time>2022-05-31T09:46:35Z</time>
      </trkpt>
      <trkpt lat="49.41766" lon="0.23456">
        <ele>14.8</ele>
        <time>2022-05-31T09:46:36Z</time>
      </trkpt>
      <trkpt lat="49.41766" lon="0.23456">
        <ele>14.8</ele>
        <time>2022-05-31T09:46:37Z</time>
      </trkpt>
      <trkpt lat="49.41765" lon="0.23455">
        <ele>14.8</ele>
        <time>2022-05-31T09:46:38Z</time>
      </trkpt>
      <trkpt lat="49.41765" lon="0.23454">
        <ele>14.8</ele>
        <time>2022-05-31T09:46:39Z</time>
      </trkpt>
      <trkpt lat="49.41764" lon="0.23453">
        <ele>14.8</ele>
        <time>2022-05-31T09:46:40Z</time>
      </trkpt>
      <trkpt lat="49.41764" lon="0.23453">
        <ele>14.8</ele>
        <time>2022-05-31T09:46:41Z</time>
      </trkpt>
      <trkpt lat="49.41764" lon="0.23452">
        <ele>14.8</ele>
        <time>2022-05-31T09:46:42Z</time>
      </trkpt>
      <trkpt lat="49.41763" lon="0.23452">
        <ele>14.8</ele>
        <time>2022-05-31T09:46:43Z</time>
      </trkpt>
      <trkpt lat="49.41763" lon="0.23452">
        <ele>14.8</ele>
        <time>2022-05-31T09:46:44Z</time>
      </trkpt>
      <trkpt lat="49.41763" lon="0.23452">
        <ele>14.8</ele>
        <time>2022-05-31T09:46:45Z</time>
      </trkpt>
      <trkpt lat="49.41763" lon="0.23452">
        <ele>14.8</ele>
        <time>2022-05-31T09:46:46Z</time>
      </trkpt>
      <trkpt lat="49.41763" lon="0.23452">
        <ele>14.8</ele>
        <time>2022-05-31T09:46:48Z</time>
      </trkpt>
      <trkpt lat="49.41763" lon="0.23452">
        <ele>14.8</ele>
        <time>2022-05-31T09:46:49Z</time>
      </trkpt>
      <trkpt lat="49.41764" lon="0.23453">
        <ele>14.8</ele>
        <time>2022-05-31T09:46:50Z</time>
      </trkpt>
      <trkpt lat="49.41764" lon="0.23453">
        <ele>14.8</ele>
        <time>2022-05-31T09:46:51Z</time>
      </trkpt>
      <trkpt lat="49.41764" lon="0.23453">
        <ele>14.8</ele>
        <time>2022-05-31T09:46:52Z</time>
      </trkpt>
      <trkpt lat="49.41764" lon="0.23453">
        <ele>14.8</ele>
        <time>2022-05-31T09:46:54Z</time>
      </trkpt>
      <trkpt lat="49.41763" lon="0.23451">
        <ele>14.8</ele>
        <time>2022-05-31T09:46:55Z</time>
      </trkpt>
      <trkpt lat="49.41763" lon="0.23449">
        <ele>14.8</ele>
        <time>2022-05-31T09:46:56Z</time>
      </trkpt>
      <trkpt lat="49.41762" lon="0.23447">
        <ele>14.8</ele>
        <time>2022-05-31T09:46:57Z</time>
      </trkpt>
      <trkpt lat="49.41762" lon="0.23446">
        <ele>14.8</ele>
        <time>2022-05-31T09:46:58Z</time>
      </trkpt>
      <trkpt lat="49.41761" lon="0.23446">
        <ele>14.7</ele>
        <time>2022-05-31T09:46:59Z</time>
      </trkpt>
      <trkpt lat="49.4176" lon="0.23446">
        <ele>14.7</ele>
        <time>2022-05-31T09:47:00Z</time>
      </trkpt>
      <trkpt lat="49.41756" lon="0.23449">
        <ele>14.7</ele>
        <time>2022-05-31T09:47:02Z</time>
      </trkpt>
      <trkpt lat="49.41755" lon="0.23451">
        <ele>14.7</ele>
        <time>2022-05-31T09:47:03Z</time>
      </trkpt>
      <trkpt lat="49.41754" lon="0.23452">
        <ele>14.7</ele>
        <time>2022-05-31T09:47:04Z</time>
      </trkpt>
      <trkpt lat="49.41754" lon="0.23454">
        <ele>14.7</ele>
        <time>2022-05-31T09:47:05Z</time>
      </trkpt>
      <trkpt lat="49.41753" lon="0.23456">
        <ele>14.7</ele>
        <time>2022-05-31T09:47:06Z</time>
      </trkpt>
      <trkpt lat="49.41753" lon="0.23457">
        <ele>14.7</ele>
        <time>2022-05-31T09:47:08Z</time>
      </trkpt>
      <trkpt lat="49.41753" lon="0.23458">
        <ele>14.7</ele>
        <time>2022-05-31T09:47:09Z</time>
      </trkpt>
      <trkpt lat="49.41752" lon="0.23459">
        <ele>14.7</ele>
        <time>2022-05-31T09:47:10Z</time>
      </trkpt>
      <trkpt lat="49.41752" lon="0.23461">
        <ele>14.7</ele>
        <time>2022-05-31T09:47:11Z</time>
      </trkpt>
      <trkpt lat="49.41752" lon="0.23463">
        <ele>14.7</ele>
        <time>2022-05-31T09:47:12Z</time>
      </trkpt>
      <trkpt lat="49.41752" lon="0.23464">
        <ele>14.7</ele>
        <time>2022-05-31T09:47:13Z</time>
      </trkpt>
      <trkpt lat="49.41752" lon="0.23466">
        <ele>14.7</ele>
        <time>2022-05-31T09:47:15Z</time>
      </trkpt>
      <trkpt lat="49.41752" lon="0.23469">
        <ele>14.7</ele>
        <time>2022-05-31T09:47:16Z</time>
      </trkpt>
      <trkpt lat="49.41751" lon="0.23471">
        <ele>14.7</ele>
        <time>2022-05-31T09:47:17Z</time>
      </trkpt>
      <trkpt lat="49.41751" lon="0.23473">
        <ele>14.7</ele>
        <time>2022-05-31T09:47:18Z</time>
      </trkpt>
      <trkpt lat="49.41751" lon="0.23475">
        <ele>14.7</ele>
        <time>2022-05-31T09:47:19Z</time>
      </trkpt>
      <trkpt lat="49.41751" lon="0.23476">
        <ele>14.7</ele>
        <time>2022-05-31T09:47:20Z</time>
      </trkpt>
      <trkpt lat="49.41751" lon="0.23476">
        <ele>14.7</ele>
        <time>2022-05-31T09:47:21Z</time>
      </trkpt>
      <trkpt lat="49.41751" lon="0.23476">
        <ele>14.7</ele>
        <time>2022-05-31T09:47:22Z</time>
      </trkpt>
      <trkpt lat="49.41751" lon="0.23476">
        <ele>14.7</ele>
        <time>2022-05-31T09:47:23Z</time>
      </trkpt>
      <trkpt lat="49.41751" lon="0.23475">
        <ele>14.7</ele>
        <time>2022-05-31T09:47:24Z</time>
      </trkpt>
      <trkpt lat="49.41751" lon="0.23475">
        <ele>14.7</ele>
        <time>2022-05-31T09:47:25Z</time>
      </trkpt>
      <trkpt lat="49.41751" lon="0.23476">
        <ele>14.7</ele>
        <time>2022-05-31T09:47:26Z</time>
      </trkpt>
      <trkpt lat="49.41751" lon="0.23476">
        <ele>14.7</ele>
        <time>2022-05-31T09:47:28Z</time>
      </trkpt>
      <trkpt lat="49.41751" lon="0.23477">
        <ele>14.7</ele>
        <time>2022-05-31T09:47:29Z</time>
      </trkpt>
      <trkpt lat="49.41751" lon="0.23478">
        <ele>14.7</ele>
        <time>2022-05-31T09:47:30Z</time>
      </trkpt>
      <trkpt lat="49.4175" lon="0.23479">
        <ele>14.7</ele>
        <time>2022-05-31T09:47:31Z</time>
      </trkpt>
      <trkpt lat="49.4175" lon="0.23481">
        <ele>14.7</ele>
        <time>2022-05-31T09:47:32Z</time>
      </trkpt>
      <trkpt lat="49.41749" lon="0.23484">
        <ele>14.7</ele>
        <time>2022-05-31T09:47:33Z</time>
      </trkpt>
      <trkpt lat="49.41749" lon="0.23485">
        <ele>14.7</ele>
        <time>2022-05-31T09:47:34Z</time>
      </trkpt>
      <trkpt lat="49.41748" lon="0.23487">
        <ele>14.7</ele>
        <time>2022-05-31T09:47:36Z</time>
      </trkpt>
      <trkpt lat="49.41748" lon="0.23489">
        <ele>14.7</ele>
        <time>2022-05-31T09:47:37Z</time>
      </trkpt>
      <trkpt lat="49.41747" lon="0.23491">
        <ele>14.6</ele>
        <time>2022-05-31T09:47:38Z</time>
      </trkpt>
      <trkpt lat="49.41746" lon="0.23492">
        <ele>14.6</ele>
        <time>2022-05-31T09:47:39Z</time>
      </trkpt>
      <trkpt lat="49.41745" lon="0.23491">
        <ele>14.6</ele>
        <time>2022-05-31T09:47:41Z</time>
      </trkpt>
      <trkpt lat="49.41743" lon="0.23492">
        <ele>14.6</ele>
        <time>2022-05-31T09:47:42Z</time>
      </trkpt>
      <trkpt lat="49.41742" lon="0.23492">
        <ele>14.6</ele>
        <time>2022-05-31T09:47:44Z</time>
      </trkpt>
      <trkpt lat="49.41741" lon="0.23492">
        <ele>14.6</ele>
        <time>2022-05-31T09:47:45Z</time>
      </trkpt>
      <trkpt lat="49.4174" lon="0.23491">
        <ele>14.6</ele>
        <time>2022-05-31T09:47:46Z</time>
      </trkpt>
      <trkpt lat="49.41739" lon="0.23491">
        <ele>14.6</ele>
        <time>2022-05-31T09:47:47Z</time>
      </trkpt>
      <trkpt lat="49.41739" lon="0.23492">
        <ele>14.6</ele>
        <time>2022-05-31T09:47:48Z</time>
      </trkpt>
      <trkpt lat="49.41739" lon="0.23492">
        <ele>14.6</ele>
        <time>2022-05-31T09:47:49Z</time>
      </trkpt>
      <trkpt lat="49.41739" lon="0.23492">
        <ele>14.6</ele>
        <time>2022-05-31T09:47:50Z</time>
      </trkpt>
      <trkpt lat="49.4174" lon="0.23491">
        <ele>14.6</ele>
        <time>2022-05-31T09:47:51Z</time>
      </trkpt>
      <trkpt lat="49.4174" lon="0.23491">
        <ele>14.6</ele>
        <time>2022-05-31T09:47:52Z</time>
      </trkpt>
      <trkpt lat="49.4174" lon="0.23491">
        <ele>14.6</ele>
        <time>2022-05-31T09:47:53Z</time>
      </trkpt>
      <trkpt lat="49.4174" lon="0.23491">
        <ele>14.6</ele>
        <time>2022-05-31T09:47:54Z</time>
      </trkpt>
      <trkpt lat="49.4174" lon="0.2349">
        <ele>14.6</ele>
        <time>2022-05-31T09:47:55Z</time>
      </trkpt>
      <trkpt lat="49.4174" lon="0.23489">
        <ele>14.6</ele>
        <time>2022-05-31T09:47:56Z</time>
      </trkpt>
      <trkpt lat="49.4174" lon="0.23489">
        <ele>14.6</ele>
        <time>2022-05-31T09:47:57Z</time>
      </trkpt>
      <trkpt lat="49.4174" lon="0.23489">
        <ele>14.6</ele>
        <time>2022-05-31T09:47:58Z</time>
      </trkpt>
      <trkpt lat="49.4174" lon="0.23489">
        <ele>14.6</ele>
        <time>2022-05-31T09:47:59Z</time>
      </trkpt>
      <trkpt lat="49.4174" lon="0.23489">
        <ele>14.6</ele>
        <time>2022-05-31T09:48:00Z</time>
      </trkpt>
      <trkpt lat="49.41741" lon="0.23486">
        <ele>14.6</ele>
        <time>2022-05-31T09:48:02Z</time>
      </trkpt>
      <trkpt lat="49.41741" lon="0.23486">
        <ele>14.6</ele>
        <time>2022-05-31T09:48:03Z</time>
      </trkpt>
      <trkpt lat="49.41741" lon="0.23486">
        <ele>14.6</ele>
        <time>2022-05-31T09:48:04Z</time>
      </trkpt>
      <trkpt lat="49.4174" lon="0.23486">
        <ele>14.6</ele>
        <time>2022-05-31T09:48:05Z</time>
      </trkpt>
      <trkpt lat="49.4174" lon="0.23485">
        <ele>14.6</ele>
        <time>2022-05-31T09:48:06Z</time>
      </trkpt>
      <trkpt lat="49.4174" lon="0.23485">
        <ele>14.6</ele>
        <time>2022-05-31T09:48:07Z</time>
      </trkpt>
      <trkpt lat="49.4174" lon="0.23485">
        <ele>14.6</ele>
        <time>2022-05-31T09:48:08Z</time>
      </trkpt>
      <trkpt lat="49.4174" lon="0.23484">
        <ele>14.6</ele>
        <time>2022-05-31T09:48:09Z</time>
      </trkpt>
      <trkpt lat="49.4174" lon="0.23484">
        <ele>14.6</ele>
        <time>2022-05-31T09:48:10Z</time>
      </trkpt>
      <trkpt lat="49.4174" lon="0.23484">
        <ele>14.6</ele>
        <time>2022-05-31T09:48:11Z</time>
      </trkpt>
      <trkpt lat="49.4174" lon="0.23484">
        <ele>14.6</ele>
        <time>2022-05-31T09:48:12Z</time>
      </trkpt>
      <trkpt lat="49.4174" lon="0.23483">
        <ele>14.6</ele>
        <time>2022-05-31T09:48:13Z</time>
      </trkpt>
      <trkpt lat="49.41741" lon="0.23483">
        <ele>14.6</ele>
        <time>2022-05-31T09:48:14Z</time>
      </trkpt>
      <trkpt lat="49.41741" lon="0.23483">
        <ele>14.6</ele>
        <time>2022-05-31T09:48:15Z</time>
      </trkpt>
      <trkpt lat="49.41741" lon="0.23483">
        <ele>14.6</ele>
        <time>2022-05-31T09:48:16Z</time>
      </trkpt>
      <trkpt lat="49.41741" lon="0.23482">
        <ele>14.6</ele>
        <time>2022-05-31T09:48:17Z</time>
      </trkpt>
      <trkpt lat="49.41741" lon="0.23482">
        <ele>14.6</ele>
        <time>2022-05-31T09:48:18Z</time>
      </trkpt>
      <trkpt lat="49.41741" lon="0.23482">
        <ele>14.6</ele>
        <time>2022-05-31T09:48:19Z</time>
      </trkpt>
      <trkpt lat="49.41741" lon="0.23481">
        <ele>14.6</ele>
        <time>2022-05-31T09:48:20Z</time>
      </trkpt>
      <trkpt lat="49.41742" lon="0.23481">
        <ele>14.6</ele>
        <time>2022-05-31T09:48:21Z</time>
      </trkpt>
      <trkpt lat="49.41742" lon="0.23481">
        <ele>14.6</ele>
        <time>2022-05-31T09:48:22Z</time>
      </trkpt>
      <trkpt lat="49.41742" lon="0.23481">
        <ele>14.6</ele>
        <time>2022-05-31T09:48:23Z</time>
      </trkpt>
      <trkpt lat="49.41742" lon="0.2348">
        <ele>14.6</ele>
        <time>2022-05-31T09:48:24Z</time>
      </trkpt>
      <trkpt lat="49.41742" lon="0.2348">
        <ele>14.6</ele>
        <time>2022-05-31T09:48:25Z</time>
      </trkpt>
      <trkpt lat="49.41742" lon="0.2348">
        <ele>14.6</ele>
        <time>2022-05-31T09:48:26Z</time>
      </trkpt>
      <trkpt lat="49.41742" lon="0.2348">
        <ele>14.6</ele>
        <time>2022-05-31T09:48:27Z</time>
      </trkpt>
      <trkpt lat="49.41742" lon="0.2348">
        <ele>14.6</ele>
        <time>2022-05-31T09:48:28Z</time>
      </trkpt>
      <trkpt lat="49.41742" lon="0.2348">
        <ele>14.6</ele>
        <time>2022-05-31T09:48:29Z</time>
      </trkpt>
      <trkpt lat="49.41742" lon="0.2348">
        <ele>14.6</ele>
        <time>2022-05-31T09:48:30Z</time>
      </trkpt>
      <trkpt lat="49.41742" lon="0.2348">
        <ele>14.6</ele>
        <time>2022-05-31T09:48:31Z</time>
      </trkpt>
      <trkpt lat="49.41742" lon="0.2348">
        <ele>14.6</ele>
        <time>2022-05-31T09:48:32Z</time>
      </trkpt>
      <trkpt lat="49.41742" lon="0.2348">
        <ele>14.6</ele>
        <time>2022-05-31T09:48:33Z</time>
      </trkpt>
      <trkpt lat="49.4174" lon="0.23482">
        <ele>14.6</ele>
        <time>2022-05-31T09:48:34Z</time>
      </trkpt>
      <trkpt lat="49.4174" lon="0.23482">
        <ele>14.6</ele>
        <time>2022-05-31T09:48:35Z</time>
      </trkpt>
      <trkpt lat="49.41739" lon="0.23482">
        <ele>14.6</ele>
        <time>2022-05-31T09:48:36Z</time>
      </trkpt>
      <trkpt lat="49.41739" lon="0.23482">
        <ele>14.6</ele>
        <time>2022-05-31T09:48:37Z</time>
      </trkpt>
      <trkpt lat="49.41738" lon="0.23482">
        <ele>14.6</ele>
        <time>2022-05-31T09:48:38Z</time>
      </trkpt>
      <trkpt lat="49.41738" lon="0.23481">
        <ele>14.6</ele>
        <time>2022-05-31T09:48:39Z</time>
      </trkpt>
      <trkpt lat="49.41738" lon="0.23481">
        <ele>14.6</ele>
        <time>2022-05-31T09:48:40Z</time>
      </trkpt>
      <trkpt lat="49.41738" lon="0.23481">
        <ele>14.6</ele>
        <time>2022-05-31T09:48:42Z</time>
      </trkpt>
      <trkpt lat="49.41738" lon="0.23482">
        <ele>14.6</ele>
        <time>2022-05-31T09:48:43Z</time>
      </trkpt>
      <trkpt lat="49.41738" lon="0.23481">
        <ele>14.6</ele>
        <time>2022-05-31T09:48:44Z</time>
      </trkpt>
      <trkpt lat="49.41738" lon="0.23481">
        <ele>14.6</ele>
        <time>2022-05-31T09:48:45Z</time>
      </trkpt>
      <trkpt lat="49.41738" lon="0.23481">
        <ele>14.6</ele>
        <time>2022-05-31T09:48:46Z</time>
      </trkpt>
      <trkpt lat="49.41738" lon="0.23481">
        <ele>14.6</ele>
        <time>2022-05-31T09:48:47Z</time>
      </trkpt>
      <trkpt lat="49.41738" lon="0.23481">
        <ele>14.6</ele>
        <time>2022-05-31T09:48:48Z</time>
      </trkpt>
      <trkpt lat="49.41738" lon="0.23481">
        <ele>14.6</ele>
        <time>2022-05-31T09:48:49Z</time>
      </trkpt>
      <trkpt lat="49.41738" lon="0.23481">
        <ele>14.6</ele>
        <time>2022-05-31T09:48:50Z</time>
      </trkpt>
      <trkpt lat="49.41738" lon="0.2348">
        <ele>14.6</ele>
        <time>2022-05-31T09:48:51Z</time>
      </trkpt>
      <trkpt lat="49.41738" lon="0.2348">
        <ele>14.6</ele>
        <time>2022-05-31T09:48:52Z</time>
      </trkpt>
      <trkpt lat="49.41738" lon="0.2348">
        <ele>14.6</ele>
        <time>2022-05-31T09:48:53Z</time>
      </trkpt>
      <trkpt lat="49.41738" lon="0.2348">
        <ele>14.6</ele>
        <time>2022-05-31T09:48:54Z</time>
      </trkpt>
      <trkpt lat="49.41738" lon="0.2348">
        <ele>14.6</ele>
        <time>2022-05-31T09:48:55Z</time>
      </trkpt>
      <trkpt lat="49.41741" lon="0.2348">
        <ele>14.6</ele>
        <time>2022-05-31T09:48:56Z</time>
      </trkpt>
      <trkpt lat="49.41742" lon="0.2348">
        <ele>14.6</ele>
        <time>2022-05-31T09:48:57Z</time>
      </trkpt>
      <trkpt lat="49.41742" lon="0.2348">
        <ele>14.6</ele>
        <time>2022-05-31T09:48:58Z</time>
      </trkpt>
      <trkpt lat="49.41743" lon="0.2348">
        <ele>14.6</ele>
        <time>2022-05-31T09:48:59Z</time>
      </trkpt>
      <trkpt lat="49.41743" lon="0.2348">
        <ele>14.6</ele>
        <time>2022-05-31T09:49:00Z</time>
      </trkpt>
      <trkpt lat="49.41745" lon="0.23483">
        <ele>14.6</ele>
        <time>2022-05-31T09:49:01Z</time>
      </trkpt>
      <trkpt lat="49.41745" lon="0.23483">
        <ele>14.6</ele>
        <time>2022-05-31T09:49:02Z</time>
      </trkpt>
      <trkpt lat="49.41745" lon="0.23483">
        <ele>14.6</ele>
        <time>2022-05-31T09:49:03Z</time>
      </trkpt>
      <trkpt lat="49.41745" lon="0.23483">
        <ele>14.6</ele>
        <time>2022-05-31T09:49:04Z</time>
      </trkpt>
      <trkpt lat="49.41745" lon="0.23483">
        <ele>14.6</ele>
        <time>2022-05-31T09:49:05Z</time>
      </trkpt>
      <trkpt lat="49.41745" lon="0.23483">
        <ele>14.6</ele>
        <time>2022-05-31T09:49:10Z</time>
      </trkpt>
      <trkpt lat="49.41745" lon="0.23482">
        <ele>14.6</ele>
        <time>2022-05-31T09:49:11Z</time>
      </trkpt>
      <trkpt lat="49.41745" lon="0.23482">
        <ele>14.6</ele>
        <time>2022-05-31T09:49:12Z</time>
      </trkpt>
      <trkpt lat="49.41745" lon="0.23482">
        <ele>14.6</ele>
        <time>2022-05-31T09:49:13Z</time>
      </trkpt>
      <trkpt lat="49.41745" lon="0.23482">
        <ele>14.6</ele>
        <time>2022-05-31T09:49:14Z</time>
      </trkpt>
      <trkpt lat="49.41745" lon="0.23482">
        <ele>14.6</ele>
        <time>2022-05-31T09:49:15Z</time>
      </trkpt>
      <trkpt lat="49.41745" lon="0.23481">
        <ele>14.6</ele>
        <time>2022-05-31T09:49:16Z</time>
      </trkpt>
      <trkpt lat="49.41745" lon="0.23481">
        <ele>14.6</ele>
        <time>2022-05-31T09:49:17Z</time>
      </trkpt>
      <trkpt lat="49.41744" lon="0.23481">
        <ele>14.6</ele>
        <time>2022-05-31T09:49:18Z</time>
      </trkpt>
      <trkpt lat="49.41744" lon="0.23481">
        <ele>14.6</ele>
        <time>2022-05-31T09:49:19Z</time>
      </trkpt>
      <trkpt lat="49.41744" lon="0.23481">
        <ele>14.5</ele>
        <time>2022-05-31T09:49:20Z</time>
      </trkpt>
      <trkpt lat="49.41743" lon="0.23481">
        <ele>14.5</ele>
        <time>2022-05-31T09:49:21Z</time>
      </trkpt>
      <trkpt lat="49.41743" lon="0.2348">
        <ele>14.5</ele>
        <time>2022-05-31T09:49:22Z</time>
      </trkpt>
      <trkpt lat="49.41743" lon="0.2348">
        <ele>14.5</ele>
        <time>2022-05-31T09:49:23Z</time>
      </trkpt>
      <trkpt lat="49.41745" lon="0.2348">
        <ele>14.5</ele>
        <time>2022-05-31T09:49:25Z</time>
      </trkpt>
      <trkpt lat="49.41746" lon="0.2348">
        <ele>14.5</ele>
        <time>2022-05-31T09:49:27Z</time>
      </trkpt>
      <trkpt lat="49.41748" lon="0.2348">
        <ele>14.5</ele>
        <time>2022-05-31T09:49:28Z</time>
      </trkpt>
      <trkpt lat="49.4175" lon="0.23479">
        <ele>14.5</ele>
        <time>2022-05-31T09:49:29Z</time>
      </trkpt>
      <trkpt lat="49.41751" lon="0.23479">
        <ele>14.5</ele>
        <time>2022-05-31T09:49:30Z</time>
      </trkpt>
      <trkpt lat="49.41752" lon="0.23479">
        <ele>14.5</ele>
        <time>2022-05-31T09:49:31Z</time>
      </trkpt>
      <trkpt lat="49.41752" lon="0.23479">
        <ele>14.5</ele>
        <time>2022-05-31T09:49:32Z</time>
      </trkpt>
      <trkpt lat="49.41752" lon="0.23479">
        <ele>14.5</ele>
        <time>2022-05-31T09:49:34Z</time>
      </trkpt>
      <trkpt lat="49.41754" lon="0.23475">
        <ele>14.5</ele>
        <time>2022-05-31T09:49:35Z</time>
      </trkpt>
      <trkpt lat="49.41754" lon="0.23474">
        <ele>14.5</ele>
        <time>2022-05-31T09:49:36Z</time>
      </trkpt>
      <trkpt lat="49.41755" lon="0.23474">
        <ele>14.5</ele>
        <time>2022-05-31T09:49:37Z</time>
      </trkpt>
      <trkpt lat="49.41757" lon="0.23474">
        <ele>14.5</ele>
        <time>2022-05-31T09:49:38Z</time>
      </trkpt>
      <trkpt lat="49.41759" lon="0.23474">
        <ele>14.5</ele>
        <time>2022-05-31T09:49:39Z</time>
      </trkpt>
      <trkpt lat="49.41759" lon="0.23473">
        <ele>14.5</ele>
        <time>2022-05-31T09:49:40Z</time>
      </trkpt>
      <trkpt lat="49.41758" lon="0.23473">
        <ele>14.5</ele>
        <time>2022-05-31T09:49:41Z</time>
      </trkpt>
      <trkpt lat="49.41759" lon="0.23473">
        <ele>14.5</ele>
        <time>2022-05-31T09:49:42Z</time>
      </trkpt>
      <trkpt lat="49.41759" lon="0.23472">
        <ele>14.5</ele>
        <time>2022-05-31T09:49:43Z</time>
      </trkpt>
      <trkpt lat="49.4176" lon="0.23472">
        <ele>14.5</ele>
        <time>2022-05-31T09:49:44Z</time>
      </trkpt>
      <trkpt lat="49.41758" lon="0.23473">
        <ele>14.5</ele>
        <time>2022-05-31T09:49:45Z</time>
      </trkpt>
      <trkpt lat="49.41758" lon="0.23472">
        <ele>14.5</ele>
        <time>2022-05-31T09:49:46Z</time>
      </trkpt>
      <trkpt lat="49.41758" lon="0.23472">
        <ele>14.5</ele>
        <time>2022-05-31T09:49:47Z</time>
      </trkpt>
      <trkpt lat="49.41758" lon="0.23471">
        <ele>14.5</ele>
        <time>2022-05-31T09:49:48Z</time>
      </trkpt>
      <trkpt lat="49.41758" lon="0.2347">
        <ele>14.5</ele>
        <time>2022-05-31T09:49:49Z</time>
      </trkpt>
      <trkpt lat="49.41758" lon="0.2347">
        <ele>14.5</ele>
        <time>2022-05-31T09:49:50Z</time>
      </trkpt>
      <trkpt lat="49.41758" lon="0.23469">
        <ele>14.5</ele>
        <time>2022-05-31T09:49:51Z</time>
      </trkpt>
      <trkpt lat="49.41758" lon="0.23469">
        <ele>14.5</ele>
        <time>2022-05-31T09:49:52Z</time>
      </trkpt>
      <trkpt lat="49.41758" lon="0.23468">
        <ele>14.5</ele>
        <time>2022-05-31T09:49:54Z</time>
      </trkpt>
      <trkpt lat="49.41758" lon="0.23467">
        <ele>14.5</ele>
        <time>2022-05-31T09:49:55Z</time>
      </trkpt>
      <trkpt lat="49.41758" lon="0.23467">
        <ele>14.5</ele>
        <time>2022-05-31T09:49:56Z</time>
      </trkpt>
      <trkpt lat="49.41758" lon="0.23463">
        <ele>14.5</ele>
        <time>2022-05-31T09:49:57Z</time>
      </trkpt>
      <trkpt lat="49.41758" lon="0.23461">
        <ele>14.5</ele>
        <time>2022-05-31T09:49:58Z</time>
      </trkpt>
      <trkpt lat="49.41758" lon="0.23458">
        <ele>14.5</ele>
        <time>2022-05-31T09:49:59Z</time>
      </trkpt>
      <trkpt lat="49.41757" lon="0.23455">
        <ele>14.5</ele>
        <time>2022-05-31T09:50:01Z</time>
      </trkpt>
      <trkpt lat="49.41757" lon="0.23452">
        <ele>14.4</ele>
        <time>2022-05-31T09:50:02Z</time>
      </trkpt>
      <trkpt lat="49.41756" lon="0.23451">
        <ele>14.4</ele>
        <time>2022-05-31T09:50:03Z</time>
      </trkpt>
      <trkpt lat="49.41755" lon="0.2345">
        <ele>14.4</ele>
        <time>2022-05-31T09:50:04Z</time>
      </trkpt>
      <trkpt lat="49.41755" lon="0.23446">
        <ele>14.4</ele>
        <time>2022-05-31T09:50:05Z</time>
      </trkpt>
      <trkpt lat="49.41755" lon="0.23445">
        <ele>14.4</ele>
        <time>2022-05-31T09:50:06Z</time>
      </trkpt>
      <trkpt lat="49.41755" lon="0.23445">
        <ele>14.4</ele>
        <time>2022-05-31T09:50:07Z</time>
      </trkpt>
      <trkpt lat="49.41755" lon="0.23444">
        <ele>14.3</ele>
        <time>2022-05-31T09:50:08Z</time>
      </trkpt>
      <trkpt lat="49.41755" lon="0.23443">
        <ele>14.3</ele>
        <time>2022-05-31T09:50:10Z</time>
      </trkpt>
      <trkpt lat="49.41755" lon="0.23442">
        <ele>14.3</ele>
        <time>2022-05-31T09:50:11Z</time>
      </trkpt>
      <trkpt lat="49.41755" lon="0.23441">
        <ele>14.3</ele>
        <time>2022-05-31T09:50:12Z</time>
      </trkpt>
      <trkpt lat="49.41755" lon="0.23441">
        <ele>14.3</ele>
        <time>2022-05-31T09:50:13Z</time>
      </trkpt>
      <trkpt lat="49.41755" lon="0.23438">
        <ele>14.3</ele>
        <time>2022-05-31T09:50:14Z</time>
      </trkpt>
      <trkpt lat="49.41756" lon="0.23436">
        <ele>14.3</ele>
        <time>2022-05-31T09:50:15Z</time>
      </trkpt>
      <trkpt lat="49.41756" lon="0.23434">
        <ele>14.3</ele>
        <time>2022-05-31T09:50:17Z</time>
      </trkpt>
      <trkpt lat="49.41756" lon="0.23432">
        <ele>14.2</ele>
        <time>2022-05-31T09:50:18Z</time>
      </trkpt>
      <trkpt lat="49.41757" lon="0.23428">
        <ele>14.2</ele>
        <time>2022-05-31T09:50:19Z</time>
      </trkpt>
      <trkpt lat="49.41758" lon="0.23427">
        <ele>14.2</ele>
        <time>2022-05-31T09:50:20Z</time>
      </trkpt>
      <trkpt lat="49.41759" lon="0.23422">
        <ele>14.1</ele>
        <time>2022-05-31T09:50:22Z</time>
      </trkpt>
      <trkpt lat="49.4176" lon="0.2342">
        <ele>14.1</ele>
        <time>2022-05-31T09:50:23Z</time>
      </trkpt>
      <trkpt lat="49.4176" lon="0.23419">
        <ele>14.1</ele>
        <time>2022-05-31T09:50:24Z</time>
      </trkpt>
      <trkpt lat="49.4176" lon="0.23417">
        <ele>14.1</ele>
        <time>2022-05-31T09:50:25Z</time>
      </trkpt>
      <trkpt lat="49.41761" lon="0.23414">
        <ele>14</ele>
        <time>2022-05-31T09:50:26Z</time>
      </trkpt>
      <trkpt lat="49.41762" lon="0.23414">
        <ele>14</ele>
        <time>2022-05-31T09:50:27Z</time>
      </trkpt>
      <trkpt lat="49.41764" lon="0.23414">
        <ele>14</ele>
        <time>2022-05-31T09:50:28Z</time>
      </trkpt>
      <trkpt lat="49.41764" lon="0.23413">
        <ele>14</ele>
        <time>2022-05-31T09:50:30Z</time>
      </trkpt>
      <trkpt lat="49.41765" lon="0.23412">
        <ele>14</ele>
        <time>2022-05-31T09:50:31Z</time>
      </trkpt>
      <trkpt lat="49.41766" lon="0.2341">
        <ele>13.9</ele>
        <time>2022-05-31T09:50:32Z</time>
      </trkpt>
      <trkpt lat="49.41767" lon="0.23409">
        <ele>13.9</ele>
        <time>2022-05-31T09:50:33Z</time>
      </trkpt>
      <trkpt lat="49.4177" lon="0.23408">
        <ele>13.6</ele>
        <time>2022-05-31T09:50:34Z</time>
      </trkpt>
      <trkpt lat="49.41772" lon="0.23408">
        <ele>13.6</ele>
        <time>2022-05-31T09:50:35Z</time>
      </trkpt>
      <trkpt lat="49.41774" lon="0.23408">
        <ele>13.5</ele>
        <time>2022-05-31T09:50:36Z</time>
      </trkpt>
      <trkpt lat="49.41778" lon="0.23407">
        <ele>13.3</ele>
        <time>2022-05-31T09:50:38Z</time>
      </trkpt>
      <trkpt lat="49.41779" lon="0.23406">
        <ele>13.3</ele>
        <time>2022-05-31T09:50:39Z</time>
      </trkpt>
      <trkpt lat="49.4178" lon="0.23404">
        <ele>13.2</ele>
        <time>2022-05-31T09:50:40Z</time>
      </trkpt>
      <trkpt lat="49.41779" lon="0.23402">
        <ele>13.3</ele>
        <time>2022-05-31T09:50:42Z</time>
      </trkpt>
      <trkpt lat="49.41779" lon="0.234">
        <ele>13.3</ele>
        <time>2022-05-31T09:50:43Z</time>
      </trkpt>
      <trkpt lat="49.41779" lon="0.23397">
        <ele>13.4</ele>
        <time>2022-05-31T09:50:44Z</time>
      </trkpt>
      <trkpt lat="49.41776" lon="0.23396">
        <ele>13.4</ele>
        <time>2022-05-31T09:50:46Z</time>
      </trkpt>
      <trkpt lat="49.41775" lon="0.23398">
        <ele>13.5</ele>
        <time>2022-05-31T09:50:47Z</time>
      </trkpt>
      <trkpt lat="49.41773" lon="0.23399">
        <ele>13.5</ele>
        <time>2022-05-31T09:50:49Z</time>
      </trkpt>
      <trkpt lat="49.41772" lon="0.23401">
        <ele>13.6</ele>
        <time>2022-05-31T09:50:50Z</time>
      </trkpt>
      <trkpt lat="49.4177" lon="0.23403">
        <ele>13.6</ele>
        <time>2022-05-31T09:50:51Z</time>
      </trkpt>
      <trkpt lat="49.4177" lon="0.23403">
        <ele>13.7</ele>
        <time>2022-05-31T09:50:52Z</time>
      </trkpt>
      <trkpt lat="49.41769" lon="0.23402">
        <ele>13.7</ele>
        <time>2022-05-31T09:50:53Z</time>
      </trkpt>
      <trkpt lat="49.41769" lon="0.23402">
        <ele>13.7</ele>
        <time>2022-05-31T09:50:54Z</time>
      </trkpt>
      <trkpt lat="49.41768" lon="0.23399">
        <ele>13.8</ele>
        <time>2022-05-31T09:50:56Z</time>
      </trkpt>
      <trkpt lat="49.41767" lon="0.23399">
        <ele>13.7</ele>
        <time>2022-05-31T09:50:57Z</time>
      </trkpt>
      <trkpt lat="49.41767" lon="0.23398">
        <ele>13.7</ele>
        <time>2022-05-31T09:50:58Z</time>
      </trkpt>
      <trkpt lat="49.41766" lon="0.23398">
        <ele>13.7</ele>
        <time>2022-05-31T09:51:00Z</time>
      </trkpt>
      <trkpt lat="49.41764" lon="0.23398">
        <ele>13.7</ele>
        <time>2022-05-31T09:51:01Z</time>
      </trkpt>
      <trkpt lat="49.41764" lon="0.234">
        <ele>13.7</ele>
        <time>2022-05-31T09:51:03Z</time>
      </trkpt>
      <trkpt lat="49.41764" lon="0.234">
        <ele>13.7</ele>
        <time>2022-05-31T09:51:04Z</time>
      </trkpt>
      <trkpt lat="49.41764" lon="0.23402">
        <ele>13.7</ele>
        <time>2022-05-31T09:51:05Z</time>
      </trkpt>
      <trkpt lat="49.4176" lon="0.234">
        <ele>13.6</ele>
        <time>2022-05-31T09:51:07Z</time>
      </trkpt>
      <trkpt lat="49.41759" lon="0.234">
        <ele>13.6</ele>
        <time>2022-05-31T09:51:08Z</time>
      </trkpt>
      <trkpt lat="49.41758" lon="0.234">
        <ele>13.6</ele>
        <time>2022-05-31T09:51:09Z</time>
      </trkpt>
      <trkpt lat="49.41757" lon="0.23399">
        <ele>13.6</ele>
        <time>2022-05-31T09:51:11Z</time>
      </trkpt>
      <trkpt lat="49.41754" lon="0.23398">
        <ele>13.6</ele>
        <time>2022-05-31T09:51:12Z</time>
      </trkpt>
      <trkpt lat="49.41754" lon="0.23398">
        <ele>13.6</ele>
        <time>2022-05-31T09:51:13Z</time>
      </trkpt>
      <trkpt lat="49.41753" lon="0.23398">
        <ele>13.6</ele>
        <time>2022-05-31T09:51:14Z</time>
      </trkpt>
      <trkpt lat="49.41753" lon="0.23398">
        <ele>13.6</ele>
        <time>2022-05-31T09:51:15Z</time>
      </trkpt>
      <trkpt lat="49.41753" lon="0.23398">
        <ele>13.6</ele>
        <time>2022-05-31T09:51:16Z</time>
      </trkpt>
      <trkpt lat="49.41754" lon="0.23398">
        <ele>13.5</ele>
        <time>2022-05-31T09:51:17Z</time>
      </trkpt>
      <trkpt lat="49.41754" lon="0.23398">
        <ele>13.5</ele>
        <time>2022-05-31T09:51:18Z</time>
      </trkpt>
      <trkpt lat="49.41754" lon="0.23398">
        <ele>13.5</ele>
        <time>2022-05-31T09:51:19Z</time>
      </trkpt>
      <trkpt lat="49.41755" lon="0.23399">
        <ele>13.5</ele>
        <time>2022-05-31T09:51:20Z</time>
      </trkpt>
      <trkpt lat="49.41756" lon="0.23399">
        <ele>13.5</ele>
        <time>2022-05-31T09:51:21Z</time>
      </trkpt>
      <trkpt lat="49.41756" lon="0.23399">
        <ele>13.5</ele>
        <time>2022-05-31T09:51:22Z</time>
      </trkpt>
      <trkpt lat="49.41757" lon="0.23399">
        <ele>13.5</ele>
        <time>2022-05-31T09:51:24Z</time>
      </trkpt>
      <trkpt lat="49.41757" lon="0.23399">
        <ele>13.5</ele>
        <time>2022-05-31T09:51:25Z</time>
      </trkpt>
      <trkpt lat="49.41759" lon="0.234">
        <ele>13.5</ele>
        <time>2022-05-31T09:51:26Z</time>
      </trkpt>
      <trkpt lat="49.4176" lon="0.234">
        <ele>13.5</ele>
        <time>2022-05-31T09:51:28Z</time>
      </trkpt>
      <trkpt lat="49.41761" lon="0.23401">
        <ele>13.5</ele>
        <time>2022-05-31T09:51:29Z</time>
      </trkpt>
      <trkpt lat="49.41762" lon="0.23401">
        <ele>13.4</ele>
        <time>2022-05-31T09:51:30Z</time>
      </trkpt>
      <trkpt lat="49.41763" lon="0.23402">
        <ele>13.4</ele>
        <time>2022-05-31T09:51:32Z</time>
      </trkpt>
      <trkpt lat="49.41765" lon="0.234">
        <ele>13.4</ele>
        <time>2022-05-31T09:51:33Z</time>
      </trkpt>
      <trkpt lat="49.41766" lon="0.23399">
        <ele>13.4</ele>
        <time>2022-05-31T09:51:34Z</time>
      </trkpt>
      <trkpt lat="49.41766" lon="0.23398">
        <ele>13.4</ele>
        <time>2022-05-31T09:51:36Z</time>
      </trkpt>
      <trkpt lat="49.41767" lon="0.23397">
        <ele>13.4</ele>
        <time>2022-05-31T09:51:37Z</time>
      </trkpt>
      <trkpt lat="49.41768" lon="0.23396">
        <ele>13.4</ele>
        <time>2022-05-31T09:51:38Z</time>
      </trkpt>
      <trkpt lat="49.41769" lon="0.23395">
        <ele>13.4</ele>
        <time>2022-05-31T09:51:40Z</time>
      </trkpt>
      <trkpt lat="49.41769" lon="0.23394">
        <ele>13.3</ele>
        <time>2022-05-31T09:51:41Z</time>
      </trkpt>
      <trkpt lat="49.4177" lon="0.23393">
        <ele>13.3</ele>
        <time>2022-05-31T09:51:42Z</time>
      </trkpt>
      <trkpt lat="49.41771" lon="0.2339">
        <ele>13.3</ele>
        <time>2022-05-31T09:51:43Z</time>
      </trkpt>
      <trkpt lat="49.41771" lon="0.23388">
        <ele>13.3</ele>
        <time>2022-05-31T09:51:45Z</time>
      </trkpt>
      <trkpt lat="49.41772" lon="0.23384">
        <ele>13.3</ele>
        <time>2022-05-31T09:51:47Z</time>
      </trkpt>
      <trkpt lat="49.41772" lon="0.23383">
        <ele>13.2</ele>
        <time>2022-05-31T09:51:48Z</time>
      </trkpt>
      <trkpt lat="49.41773" lon="0.23382">
        <ele>13.2</ele>
        <time>2022-05-31T09:51:49Z</time>
      </trkpt>
      <trkpt lat="49.41773" lon="0.23381">
        <ele>13.2</ele>
        <time>2022-05-31T09:51:50Z</time>
      </trkpt>
      <trkpt lat="49.41773" lon="0.2338">
        <ele>13.2</ele>
        <time>2022-05-31T09:51:51Z</time>
      </trkpt>
      <trkpt lat="49.41773" lon="0.23378">
        <ele>13.2</ele>
        <time>2022-05-31T09:51:52Z</time>
      </trkpt>
      <trkpt lat="49.41772" lon="0.23373">
        <ele>13.2</ele>
        <time>2022-05-31T09:51:54Z</time>
      </trkpt>
      <trkpt lat="49.41772" lon="0.23372">
        <ele>13.2</ele>
        <time>2022-05-31T09:51:55Z</time>
      </trkpt>
      <trkpt lat="49.41773" lon="0.23369">
        <ele>13.1</ele>
        <time>2022-05-31T09:51:56Z</time>
      </trkpt>
      <trkpt lat="49.41773" lon="0.23368">
        <ele>13.1</ele>
        <time>2022-05-31T09:51:57Z</time>
      </trkpt>
      <trkpt lat="49.41774" lon="0.23366">
        <ele>13.1</ele>
        <time>2022-05-31T09:51:58Z</time>
      </trkpt>
      <trkpt lat="49.41774" lon="0.23364">
        <ele>13.1</ele>
        <time>2022-05-31T09:52:00Z</time>
      </trkpt>
      <trkpt lat="49.41775" lon="0.23362">
        <ele>13.1</ele>
        <time>2022-05-31T09:52:01Z</time>
      </trkpt>
      <trkpt lat="49.41774" lon="0.23361">
        <ele>13.1</ele>
        <time>2022-05-31T09:52:02Z</time>
      </trkpt>
      <trkpt lat="49.41774" lon="0.2336">
        <ele>13.1</ele>
        <time>2022-05-31T09:52:03Z</time>
      </trkpt>
      <trkpt lat="49.41773" lon="0.23361">
        <ele>13.1</ele>
        <time>2022-05-31T09:52:04Z</time>
      </trkpt>
      <trkpt lat="49.41772" lon="0.23364">
        <ele>13</ele>
        <time>2022-05-31T09:52:06Z</time>
      </trkpt>
      <trkpt lat="49.41772" lon="0.23364">
        <ele>13</ele>
        <time>2022-05-31T09:52:07Z</time>
      </trkpt>
      <trkpt lat="49.41772" lon="0.23365">
        <ele>13</ele>
        <time>2022-05-31T09:52:08Z</time>
      </trkpt>
      <trkpt lat="49.41772" lon="0.23365">
        <ele>13</ele>
        <time>2022-05-31T09:52:09Z</time>
      </trkpt>
      <trkpt lat="49.41772" lon="0.23365">
        <ele>13</ele>
        <time>2022-05-31T09:52:10Z</time>
      </trkpt>
      <trkpt lat="49.41772" lon="0.23365">
        <ele>13</ele>
        <time>2022-05-31T09:52:12Z</time>
      </trkpt>
      <trkpt lat="49.41772" lon="0.23366">
        <ele>13</ele>
        <time>2022-05-31T09:52:13Z</time>
      </trkpt>
      <trkpt lat="49.41772" lon="0.23366">
        <ele>13</ele>
        <time>2022-05-31T09:52:14Z</time>
      </trkpt>
      <trkpt lat="49.41772" lon="0.23366">
        <ele>13</ele>
        <time>2022-05-31T09:52:15Z</time>
      </trkpt>
      <trkpt lat="49.41773" lon="0.23366">
        <ele>13</ele>
        <time>2022-05-31T09:52:16Z</time>
      </trkpt>
      <trkpt lat="49.41773" lon="0.23366">
        <ele>13</ele>
        <time>2022-05-31T09:52:17Z</time>
      </trkpt>
      <trkpt lat="49.41773" lon="0.23366">
        <ele>13</ele>
        <time>2022-05-31T09:52:18Z</time>
      </trkpt>
      <trkpt lat="49.41774" lon="0.23367">
        <ele>13</ele>
        <time>2022-05-31T09:52:19Z</time>
      </trkpt>
      <trkpt lat="49.41774" lon="0.23367">
        <ele>13</ele>
        <time>2022-05-31T09:52:20Z</time>
      </trkpt>
      <trkpt lat="49.41774" lon="0.23367">
        <ele>13</ele>
        <time>2022-05-31T09:52:21Z</time>
      </trkpt>
      <trkpt lat="49.41775" lon="0.23367">
        <ele>13</ele>
        <time>2022-05-31T09:52:22Z</time>
      </trkpt>
      <trkpt lat="49.41775" lon="0.23368">
        <ele>13</ele>
        <time>2022-05-31T09:52:23Z</time>
      </trkpt>
      <trkpt lat="49.41776" lon="0.23368">
        <ele>13</ele>
        <time>2022-05-31T09:52:24Z</time>
      </trkpt>
      <trkpt lat="49.41776" lon="0.23368">
        <ele>13</ele>
        <time>2022-05-31T09:52:25Z</time>
      </trkpt>
      <trkpt lat="49.41776" lon="0.23368">
        <ele>13</ele>
        <time>2022-05-31T09:52:26Z</time>
      </trkpt>
      <trkpt lat="49.41777" lon="0.23369">
        <ele>13</ele>
        <time>2022-05-31T09:52:27Z</time>
      </trkpt>
      <trkpt lat="49.41777" lon="0.23369">
        <ele>13</ele>
        <time>2022-05-31T09:52:28Z</time>
      </trkpt>
      <trkpt lat="49.41777" lon="0.2337">
        <ele>13</ele>
        <time>2022-05-31T09:52:29Z</time>
      </trkpt>
      <trkpt lat="49.41775" lon="0.23366">
        <ele>12.9</ele>
        <time>2022-05-31T09:52:30Z</time>
      </trkpt>
      <trkpt lat="49.41774" lon="0.23365">
        <ele>12.9</ele>
        <time>2022-05-31T09:52:31Z</time>
      </trkpt>
      <trkpt lat="49.41774" lon="0.23364">
        <ele>12.9</ele>
        <time>2022-05-31T09:52:32Z</time>
      </trkpt>
      <trkpt lat="49.41774" lon="0.23364">
        <ele>12.9</ele>
        <time>2022-05-31T09:52:33Z</time>
      </trkpt>
      <trkpt lat="49.41774" lon="0.23364">
        <ele>12.9</ele>
        <time>2022-05-31T09:52:34Z</time>
      </trkpt>
      <trkpt lat="49.41774" lon="0.23365">
        <ele>12.9</ele>
        <time>2022-05-31T09:52:36Z</time>
      </trkpt>
      <trkpt lat="49.41775" lon="0.23367">
        <ele>12.9</ele>
        <time>2022-05-31T09:52:37Z</time>
      </trkpt>
      <trkpt lat="49.41775" lon="0.23367">
        <ele>12.9</ele>
        <time>2022-05-31T09:52:38Z</time>
      </trkpt>
      <trkpt lat="49.41776" lon="0.23367">
        <ele>12.9</ele>
        <time>2022-05-31T09:52:39Z</time>
      </trkpt>
      <trkpt lat="49.41776" lon="0.23367">
        <ele>12.9</ele>
        <time>2022-05-31T09:52:40Z</time>
      </trkpt>
      <trkpt lat="49.41777" lon="0.23368">
        <ele>12.9</ele>
        <time>2022-05-31T09:52:41Z</time>
      </trkpt>
      <trkpt lat="49.41777" lon="0.23368">
        <ele>12.9</ele>
        <time>2022-05-31T09:52:42Z</time>
      </trkpt>
      <trkpt lat="49.41778" lon="0.23369">
        <ele>12.8</ele>
        <time>2022-05-31T09:52:43Z</time>
      </trkpt>
      <trkpt lat="49.41779" lon="0.2337">
        <ele>12.8</ele>
        <time>2022-05-31T09:52:44Z</time>
      </trkpt>
      <trkpt lat="49.41779" lon="0.2337">
        <ele>12.8</ele>
        <time>2022-05-31T09:52:45Z</time>
      </trkpt>
      <trkpt lat="49.4178" lon="0.23371">
        <ele>12.8</ele>
        <time>2022-05-31T09:52:46Z</time>
      </trkpt>
      <trkpt lat="49.4178" lon="0.23371">
        <ele>12.8</ele>
        <time>2022-05-31T09:52:47Z</time>
      </trkpt>
      <trkpt lat="49.4178" lon="0.23371">
        <ele>12.8</ele>
        <time>2022-05-31T09:52:48Z</time>
      </trkpt>
      <trkpt lat="49.41781" lon="0.23371">
        <ele>12.8</ele>
        <time>2022-05-31T09:52:49Z</time>
      </trkpt>
      <trkpt lat="49.41781" lon="0.23371">
        <ele>12.8</ele>
        <time>2022-05-31T09:52:50Z</time>
      </trkpt>
      <trkpt lat="49.41781" lon="0.23371">
        <ele>12.8</ele>
        <time>2022-05-31T09:52:51Z</time>
      </trkpt>
      <trkpt lat="49.41781" lon="0.23371">
        <ele>12.8</ele>
        <time>2022-05-31T09:52:52Z</time>
      </trkpt>
      <trkpt lat="49.41781" lon="0.23371">
        <ele>12.8</ele>
        <time>2022-05-31T09:52:53Z</time>
      </trkpt>
      <trkpt lat="49.41781" lon="0.23371">
        <ele>12.8</ele>
        <time>2022-05-31T09:52:54Z</time>
      </trkpt>
      <trkpt lat="49.41781" lon="0.23371">
        <ele>12.8</ele>
        <time>2022-05-31T09:52:55Z</time>
      </trkpt>
      <trkpt lat="49.41781" lon="0.23371">
        <ele>12.8</ele>
        <time>2022-05-31T09:52:56Z</time>
      </trkpt>
      <trkpt lat="49.41781" lon="0.23371">
        <ele>12.8</ele>
        <time>2022-05-31T09:52:57Z</time>
      </trkpt>
      <trkpt lat="49.41781" lon="0.23371">
        <ele>12.8</ele>
        <time>2022-05-31T09:52:58Z</time>
      </trkpt>
      <trkpt lat="49.41781" lon="0.23371">
        <ele>12.8</ele>
        <time>2022-05-31T09:52:59Z</time>
      </trkpt>
      <trkpt lat="49.41781" lon="0.23371">
        <ele>12.8</ele>
        <time>2022-05-31T09:53:00Z</time>
      </trkpt>
      <trkpt lat="49.41781" lon="0.23371">
        <ele>12.8</ele>
        <time>2022-05-31T09:53:01Z</time>
      </trkpt>
      <trkpt lat="49.41781" lon="0.23371">
        <ele>12.8</ele>
        <time>2022-05-31T09:53:02Z</time>
      </trkpt>
      <trkpt lat="49.41781" lon="0.23371">
        <ele>12.8</ele>
        <time>2022-05-31T09:53:03Z</time>
      </trkpt>
      <trkpt lat="49.41781" lon="0.23372">
        <ele>12.8</ele>
        <time>2022-05-31T09:53:04Z</time>
      </trkpt>
      <trkpt lat="49.41782" lon="0.23372">
        <ele>12.8</ele>
        <time>2022-05-31T09:53:05Z</time>
      </trkpt>
      <trkpt lat="49.41783" lon="0.23373">
        <ele>12.8</ele>
        <time>2022-05-31T09:53:06Z</time>
      </trkpt>
      <trkpt lat="49.41783" lon="0.23373">
        <ele>12.8</ele>
        <time>2022-05-31T09:53:07Z</time>
      </trkpt>
      <trkpt lat="49.41783" lon="0.23373">
        <ele>12.8</ele>
        <time>2022-05-31T09:53:09Z</time>
      </trkpt>
      <trkpt lat="49.41783" lon="0.23373">
        <ele>12.8</ele>
        <time>2022-05-31T09:53:10Z</time>
      </trkpt>
      <trkpt lat="49.41783" lon="0.23373">
        <ele>12.8</ele>
        <time>2022-05-31T09:53:11Z</time>
      </trkpt>
      <trkpt lat="49.41783" lon="0.23373">
        <ele>12.8</ele>
        <time>2022-05-31T09:53:12Z</time>
      </trkpt>
      <trkpt lat="49.41783" lon="0.23373">
        <ele>12.8</ele>
        <time>2022-05-31T09:53:13Z</time>
      </trkpt>
      <trkpt lat="49.41783" lon="0.23373">
        <ele>12.8</ele>
        <time>2022-05-31T09:53:14Z</time>
      </trkpt>
      <trkpt lat="49.41783" lon="0.23373">
        <ele>12.8</ele>
        <time>2022-05-31T09:53:15Z</time>
      </trkpt>
      <trkpt lat="49.41783" lon="0.23373">
        <ele>12.8</ele>
        <time>2022-05-31T09:53:16Z</time>
      </trkpt>
      <trkpt lat="49.41783" lon="0.23373">
        <ele>12.8</ele>
        <time>2022-05-31T09:53:17Z</time>
      </trkpt>
      <trkpt lat="49.41784" lon="0.23373">
        <ele>12.8</ele>
        <time>2022-05-31T09:53:18Z</time>
      </trkpt>
      <trkpt lat="49.41784" lon="0.23373">
        <ele>12.8</ele>
        <time>2022-05-31T09:53:19Z</time>
      </trkpt>
      <trkpt lat="49.41784" lon="0.23373">
        <ele>12.8</ele>
        <time>2022-05-31T09:53:20Z</time>
      </trkpt>
      <trkpt lat="49.41784" lon="0.23373">
        <ele>12.8</ele>
        <time>2022-05-31T09:53:21Z</time>
      </trkpt>
      <trkpt lat="49.41784" lon="0.23373">
        <ele>12.8</ele>
        <time>2022-05-31T09:53:22Z</time>
      </trkpt>
      <trkpt lat="49.41784" lon="0.23373">
        <ele>12.8</ele>
        <time>2022-05-31T09:53:23Z</time>
      </trkpt>
      <trkpt lat="49.41784" lon="0.23373">
        <ele>12.8</ele>
        <time>2022-05-31T09:53:24Z</time>
      </trkpt>
      <trkpt lat="49.41782" lon="0.2337">
        <ele>12.7</ele>
        <time>2022-05-31T09:53:25Z</time>
      </trkpt>
      <trkpt lat="49.41782" lon="0.23367">
        <ele>12.7</ele>
        <time>2022-05-31T09:53:26Z</time>
      </trkpt>
      <trkpt lat="49.41781" lon="0.23365">
        <ele>12.7</ele>
        <time>2022-05-31T09:53:27Z</time>
      </trkpt>
      <trkpt lat="49.41782" lon="0.23367">
        <ele>12.7</ele>
        <time>2022-05-31T09:53:28Z</time>
      </trkpt>
      <trkpt lat="49.41783" lon="0.23372">
        <ele>12.7</ele>
        <time>2022-05-31T09:53:29Z</time>
      </trkpt>
      <trkpt lat="49.41783" lon="0.23372">
        <ele>12.7</ele>
        <time>2022-05-31T09:53:30Z</time>
      </trkpt>
      <trkpt lat="49.41783" lon="0.23372">
        <ele>12.7</ele>
        <time>2022-05-31T09:53:31Z</time>
      </trkpt>
      <trkpt lat="49.41781" lon="0.23367">
        <ele>12.6</ele>
        <time>2022-05-31T09:53:32Z</time>
      </trkpt>
      <trkpt lat="49.41778" lon="0.23365">
        <ele>12.6</ele>
        <time>2022-05-31T09:53:33Z</time>
      </trkpt>
      <trkpt lat="49.41777" lon="0.23365">
        <ele>12.6</ele>
        <time>2022-05-31T09:53:35Z</time>
      </trkpt>
      <trkpt lat="49.41777" lon="0.23364">
        <ele>12.6</ele>
        <time>2022-05-31T09:53:36Z</time>
      </trkpt>
      <trkpt lat="49.41776" lon="0.23363">
        <ele>12.6</ele>
        <time>2022-05-31T09:53:37Z</time>
      </trkpt>
      <trkpt lat="49.41776" lon="0.23363">
        <ele>12.5</ele>
        <time>2022-05-31T09:53:38Z</time>
      </trkpt>
      <trkpt lat="49.41775" lon="0.23362">
        <ele>12.5</ele>
        <time>2022-05-31T09:53:39Z</time>
      </trkpt>
      <trkpt lat="49.41775" lon="0.23361">
        <ele>12.5</ele>
        <time>2022-05-31T09:53:40Z</time>
      </trkpt>
      <trkpt lat="49.41775" lon="0.2336">
        <ele>12.5</ele>
        <time>2022-05-31T09:53:41Z</time>
      </trkpt>
      <trkpt lat="49.41775" lon="0.2336">
        <ele>12.5</ele>
        <time>2022-05-31T09:53:43Z</time>
      </trkpt>
      <trkpt lat="49.41775" lon="0.23358">
        <ele>12.5</ele>
        <time>2022-05-31T09:53:44Z</time>
      </trkpt>
      <trkpt lat="49.41775" lon="0.23358">
        <ele>12.5</ele>
        <time>2022-05-31T09:53:46Z</time>
      </trkpt>
      <trkpt lat="49.41775" lon="0.23359">
        <ele>12.5</ele>
        <time>2022-05-31T09:53:47Z</time>
      </trkpt>
      <trkpt lat="49.41776" lon="0.23358">
        <ele>12.5</ele>
        <time>2022-05-31T09:53:48Z</time>
      </trkpt>
      <trkpt lat="49.41776" lon="0.23358">
        <ele>12.5</ele>
        <time>2022-05-31T09:53:49Z</time>
      </trkpt>
      <trkpt lat="49.41776" lon="0.23358">
        <ele>12.5</ele>
        <time>2022-05-31T09:53:50Z</time>
      </trkpt>
      <trkpt lat="49.41776" lon="0.23358">
        <ele>12.5</ele>
        <time>2022-05-31T09:53:51Z</time>
      </trkpt>
      <trkpt lat="49.41776" lon="0.23358">
        <ele>12.5</ele>
        <time>2022-05-31T09:53:52Z</time>
      </trkpt>
      <trkpt lat="49.41776" lon="0.23357">
        <ele>12.5</ele>
        <time>2022-05-31T09:53:54Z</time>
      </trkpt>
      <trkpt lat="49.41776" lon="0.23356">
        <ele>12.5</ele>
        <time>2022-05-31T09:53:55Z</time>
      </trkpt>
      <trkpt lat="49.41776" lon="0.23355">
        <ele>12.5</ele>
        <time>2022-05-31T09:53:56Z</time>
      </trkpt>
      <trkpt lat="49.41776" lon="0.23356">
        <ele>12.5</ele>
        <time>2022-05-31T09:53:57Z</time>
      </trkpt>
      <trkpt lat="49.41776" lon="0.23356">
        <ele>12.5</ele>
        <time>2022-05-31T09:53:58Z</time>
      </trkpt>
      <trkpt lat="49.41776" lon="0.23356">
        <ele>12.5</ele>
        <time>2022-05-31T09:53:59Z</time>
      </trkpt>
      <trkpt lat="49.41776" lon="0.23356">
        <ele>12.5</ele>
        <time>2022-05-31T09:54:00Z</time>
      </trkpt>
      <trkpt lat="49.41776" lon="0.23356">
        <ele>12.5</ele>
        <time>2022-05-31T09:54:01Z</time>
      </trkpt>
      <trkpt lat="49.41777" lon="0.23356">
        <ele>12.5</ele>
        <time>2022-05-31T09:54:02Z</time>
      </trkpt>
      <trkpt lat="49.41777" lon="0.23356">
        <ele>12.5</ele>
        <time>2022-05-31T09:54:03Z</time>
      </trkpt>
      <trkpt lat="49.41777" lon="0.23356">
        <ele>12.4</ele>
        <time>2022-05-31T09:54:04Z</time>
      </trkpt>
      <trkpt lat="49.41778" lon="0.23355">
        <ele>12.4</ele>
        <time>2022-05-31T09:54:05Z</time>
      </trkpt>
      <trkpt lat="49.41778" lon="0.23355">
        <ele>12.4</ele>
        <time>2022-05-31T09:54:06Z</time>
      </trkpt>
      <trkpt lat="49.41778" lon="0.23355">
        <ele>12.4</ele>
        <time>2022-05-31T09:54:07Z</time>
      </trkpt>
      <trkpt lat="49.41779" lon="0.23355">
        <ele>12.4</ele>
        <time>2022-05-31T09:54:08Z</time>
      </trkpt>
      <trkpt lat="49.4178" lon="0.23354">
        <ele>12.4</ele>
        <time>2022-05-31T09:54:09Z</time>
      </trkpt>
      <trkpt lat="49.41781" lon="0.23354">
        <ele>12.4</ele>
        <time>2022-05-31T09:54:10Z</time>
      </trkpt>
      <trkpt lat="49.41781" lon="0.23354">
        <ele>12.4</ele>
        <time>2022-05-31T09:54:11Z</time>
      </trkpt>
      <trkpt lat="49.41781" lon="0.23353">
        <ele>12.4</ele>
        <time>2022-05-31T09:54:12Z</time>
      </trkpt>
      <trkpt lat="49.41781" lon="0.23352">
        <ele>12.4</ele>
        <time>2022-05-31T09:54:14Z</time>
      </trkpt>
      <trkpt lat="49.4178" lon="0.23352">
        <ele>12.4</ele>
        <time>2022-05-31T09:54:15Z</time>
      </trkpt>
      <trkpt lat="49.4178" lon="0.23352">
        <ele>12.4</ele>
        <time>2022-05-31T09:54:16Z</time>
      </trkpt>
      <trkpt lat="49.4178" lon="0.23352">
        <ele>12.4</ele>
        <time>2022-05-31T09:54:17Z</time>
      </trkpt>
      <trkpt lat="49.4178" lon="0.23352">
        <ele>12.4</ele>
        <time>2022-05-31T09:54:18Z</time>
      </trkpt>
      <trkpt lat="49.4178" lon="0.23351">
        <ele>12.4</ele>
        <time>2022-05-31T09:54:19Z</time>
      </trkpt>
      <trkpt lat="49.4178" lon="0.23351">
        <ele>12.4</ele>
        <time>2022-05-31T09:54:20Z</time>
      </trkpt>
      <trkpt lat="49.4178" lon="0.23351">
        <ele>12.4</ele>
        <time>2022-05-31T09:54:21Z</time>
      </trkpt>
      <trkpt lat="49.4178" lon="0.23351">
        <ele>12.4</ele>
        <time>2022-05-31T09:54:22Z</time>
      </trkpt>
      <trkpt lat="49.4178" lon="0.23351">
        <ele>12.4</ele>
        <time>2022-05-31T09:54:23Z</time>
      </trkpt>
      <trkpt lat="49.4178" lon="0.23351">
        <ele>12.4</ele>
        <time>2022-05-31T09:54:24Z</time>
      </trkpt>
      <trkpt lat="49.4178" lon="0.23351">
        <ele>12.4</ele>
        <time>2022-05-31T09:54:25Z</time>
      </trkpt>
      <trkpt lat="49.4178" lon="0.23351">
        <ele>12.4</ele>
        <time>2022-05-31T09:54:26Z</time>
      </trkpt>
      <trkpt lat="49.4178" lon="0.23352">
        <ele>12.4</ele>
        <time>2022-05-31T09:54:27Z</time>
      </trkpt>
      <trkpt lat="49.4178" lon="0.23352">
        <ele>12.4</ele>
        <time>2022-05-31T09:54:28Z</time>
      </trkpt>
      <trkpt lat="49.41781" lon="0.23352">
        <ele>12.4</ele>
        <time>2022-05-31T09:54:29Z</time>
      </trkpt>
      <trkpt lat="49.41781" lon="0.23352">
        <ele>12.4</ele>
        <time>2022-05-31T09:54:30Z</time>
      </trkpt>
      <trkpt lat="49.41781" lon="0.23352">
        <ele>12.4</ele>
        <time>2022-05-31T09:54:31Z</time>
      </trkpt>
      <trkpt lat="49.41781" lon="0.23351">
        <ele>12.4</ele>
        <time>2022-05-31T09:54:32Z</time>
      </trkpt>
      <trkpt lat="49.41781" lon="0.23351">
        <ele>12.4</ele>
        <time>2022-05-31T09:54:33Z</time>
      </trkpt>
      <trkpt lat="49.41781" lon="0.23351">
        <ele>12.3</ele>
        <time>2022-05-31T09:54:34Z</time>
      </trkpt>
      <trkpt lat="49.41781" lon="0.23351">
        <ele>12.3</ele>
        <time>2022-05-31T09:54:35Z</time>
      </trkpt>
      <trkpt lat="49.41781" lon="0.23351">
        <ele>12.3</ele>
        <time>2022-05-31T09:54:36Z</time>
      </trkpt>
      <trkpt lat="49.41782" lon="0.23352">
        <ele>12.3</ele>
        <time>2022-05-31T09:54:37Z</time>
      </trkpt>
      <trkpt lat="49.41782" lon="0.23352">
        <ele>12.3</ele>
        <time>2022-05-31T09:54:39Z</time>
      </trkpt>
      <trkpt lat="49.41782" lon="0.23353">
        <ele>12.3</ele>
        <time>2022-05-31T09:54:40Z</time>
      </trkpt>
      <trkpt lat="49.41783" lon="0.23353">
        <ele>12.3</ele>
        <time>2022-05-31T09:54:42Z</time>
      </trkpt>
      <trkpt lat="49.41784" lon="0.23353">
        <ele>12.3</ele>
        <time>2022-05-31T09:54:43Z</time>
      </trkpt>
      <trkpt lat="49.41786" lon="0.23355">
        <ele>12.3</ele>
        <time>2022-05-31T09:54:45Z</time>
      </trkpt>
      <trkpt lat="49.41787" lon="0.23356">
        <ele>12.3</ele>
        <time>2022-05-31T09:54:46Z</time>
      </trkpt>
      <trkpt lat="49.41788" lon="0.23356">
        <ele>12.3</ele>
        <time>2022-05-31T09:54:47Z</time>
      </trkpt>
      <trkpt lat="49.41788" lon="0.23356">
        <ele>12.3</ele>
        <time>2022-05-31T09:54:48Z</time>
      </trkpt>
      <trkpt lat="49.41788" lon="0.23355">
        <ele>12.3</ele>
        <time>2022-05-31T09:54:49Z</time>
      </trkpt>
      <trkpt lat="49.41789" lon="0.23355">
        <ele>12.3</ele>
        <time>2022-05-31T09:54:50Z</time>
      </trkpt>
      <trkpt lat="49.41789" lon="0.23354">
        <ele>12.3</ele>
        <time>2022-05-31T09:54:52Z</time>
      </trkpt>
      <trkpt lat="49.4179" lon="0.23352">
        <ele>12.2</ele>
        <time>2022-05-31T09:54:53Z</time>
      </trkpt>
      <trkpt lat="49.4179" lon="0.2335">
        <ele>12.2</ele>
        <time>2022-05-31T09:54:54Z</time>
      </trkpt>
      <trkpt lat="49.4179" lon="0.23349">
        <ele>12.2</ele>
        <time>2022-05-31T09:54:55Z</time>
      </trkpt>
      <trkpt lat="49.4179" lon="0.23347">
        <ele>12.2</ele>
        <time>2022-05-31T09:54:57Z</time>
      </trkpt>
      <trkpt lat="49.4179" lon="0.23345">
        <ele>12.2</ele>
        <time>2022-05-31T09:54:58Z</time>
      </trkpt>
      <trkpt lat="49.41791" lon="0.23344">
        <ele>12.2</ele>
        <time>2022-05-31T09:54:59Z</time>
      </trkpt>
      <trkpt lat="49.41791" lon="0.23343">
        <ele>12.2</ele>
        <time>2022-05-31T09:55:01Z</time>
      </trkpt>
      <trkpt lat="49.41792" lon="0.23342">
        <ele>12.2</ele>
        <time>2022-05-31T09:55:02Z</time>
      </trkpt>
      <trkpt lat="49.41792" lon="0.2334">
        <ele>12.2</ele>
        <time>2022-05-31T09:55:03Z</time>
      </trkpt>
      <trkpt lat="49.41792" lon="0.23338">
        <ele>12.1</ele>
        <time>2022-05-31T09:55:05Z</time>
      </trkpt>
      <trkpt lat="49.41791" lon="0.23337">
        <ele>12.1</ele>
        <time>2022-05-31T09:55:06Z</time>
      </trkpt>
      <trkpt lat="49.41791" lon="0.23335">
        <ele>12.1</ele>
        <time>2022-05-31T09:55:07Z</time>
      </trkpt>
      <trkpt lat="49.41788" lon="0.23331">
        <ele>12.1</ele>
        <time>2022-05-31T09:55:08Z</time>
      </trkpt>
      <trkpt lat="49.41787" lon="0.23326">
        <ele>12.1</ele>
        <time>2022-05-31T09:55:10Z</time>
      </trkpt>
      <trkpt lat="49.41787" lon="0.23325">
        <ele>12.1</ele>
        <time>2022-05-31T09:55:11Z</time>
      </trkpt>
      <trkpt lat="49.41786" lon="0.23324">
        <ele>12.1</ele>
        <time>2022-05-31T09:55:12Z</time>
      </trkpt>
      <trkpt lat="49.41786" lon="0.23324">
        <ele>12.1</ele>
        <time>2022-05-31T09:55:13Z</time>
      </trkpt>
      <trkpt lat="49.41786" lon="0.23323">
        <ele>12.1</ele>
        <time>2022-05-31T09:55:14Z</time>
      </trkpt>
      <trkpt lat="49.41786" lon="0.23323">
        <ele>12</ele>
        <time>2022-05-31T09:55:16Z</time>
      </trkpt>
      <trkpt lat="49.41787" lon="0.23322">
        <ele>12</ele>
        <time>2022-05-31T09:55:17Z</time>
      </trkpt>
      <trkpt lat="49.41787" lon="0.23321">
        <ele>12</ele>
        <time>2022-05-31T09:55:18Z</time>
      </trkpt>
      <trkpt lat="49.41787" lon="0.2332">
        <ele>12</ele>
        <time>2022-05-31T09:55:19Z</time>
      </trkpt>
      <trkpt lat="49.41788" lon="0.23318">
        <ele>12</ele>
        <time>2022-05-31T09:55:20Z</time>
      </trkpt>
      <trkpt lat="49.41788" lon="0.23318">
        <ele>12</ele>
        <time>2022-05-31T09:55:21Z</time>
      </trkpt>
      <trkpt lat="49.41788" lon="0.23317">
        <ele>12</ele>
        <time>2022-05-31T09:55:22Z</time>
      </trkpt>
      <trkpt lat="49.41789" lon="0.23314">
        <ele>12</ele>
        <time>2022-05-31T09:55:24Z</time>
      </trkpt>
      <trkpt lat="49.4179" lon="0.23313">
        <ele>12</ele>
        <time>2022-05-31T09:55:25Z</time>
      </trkpt>
      <trkpt lat="49.4179" lon="0.23311">
        <ele>12</ele>
        <time>2022-05-31T09:55:26Z</time>
      </trkpt>
      <trkpt lat="49.41791" lon="0.23309">
        <ele>12</ele>
        <time>2022-05-31T09:55:27Z</time>
      </trkpt>
      <trkpt lat="49.41792" lon="0.23307">
        <ele>12</ele>
        <time>2022-05-31T09:55:28Z</time>
      </trkpt>
      <trkpt lat="49.41794" lon="0.23303">
        <ele>11.9</ele>
        <time>2022-05-31T09:55:30Z</time>
      </trkpt>
      <trkpt lat="49.41794" lon="0.23301">
        <ele>11.9</ele>
        <time>2022-05-31T09:55:31Z</time>
      </trkpt>
      <trkpt lat="49.41795" lon="0.233">
        <ele>11.9</ele>
        <time>2022-05-31T09:55:32Z</time>
      </trkpt>
      <trkpt lat="49.41796" lon="0.23297">
        <ele>11.9</ele>
        <time>2022-05-31T09:55:33Z</time>
      </trkpt>
      <trkpt lat="49.41797" lon="0.23295">
        <ele>11.9</ele>
        <time>2022-05-31T09:55:34Z</time>
      </trkpt>
      <trkpt lat="49.41798" lon="0.23293">
        <ele>11.8</ele>
        <time>2022-05-31T09:55:36Z</time>
      </trkpt>
      <trkpt lat="49.41798" lon="0.23292">
        <ele>11.8</ele>
        <time>2022-05-31T09:55:37Z</time>
      </trkpt>
      <trkpt lat="49.41799" lon="0.2329">
        <ele>11.8</ele>
        <time>2022-05-31T09:55:38Z</time>
      </trkpt>
      <trkpt lat="49.418" lon="0.23289">
        <ele>11.8</ele>
        <time>2022-05-31T09:55:40Z</time>
      </trkpt>
      <trkpt lat="49.41801" lon="0.23294">
        <ele>11.7</ele>
        <time>2022-05-31T09:55:41Z</time>
      </trkpt>
      <trkpt lat="49.41802" lon="0.23293">
        <ele>11.7</ele>
        <time>2022-05-31T09:55:42Z</time>
      </trkpt>
      <trkpt lat="49.41802" lon="0.23292">
        <ele>11.7</ele>
        <time>2022-05-31T09:55:43Z</time>
      </trkpt>
      <trkpt lat="49.41802" lon="0.23291">
        <ele>11.7</ele>
        <time>2022-05-31T09:55:45Z</time>
      </trkpt>
      <trkpt lat="49.41802" lon="0.23292">
        <ele>11.7</ele>
        <time>2022-05-31T09:55:46Z</time>
      </trkpt>
      <trkpt lat="49.41803" lon="0.23293">
        <ele>11.7</ele>
        <time>2022-05-31T09:55:47Z</time>
      </trkpt>
      <trkpt lat="49.41803" lon="0.23293">
        <ele>11.7</ele>
        <time>2022-05-31T09:55:48Z</time>
      </trkpt>
      <trkpt lat="49.41804" lon="0.23293">
        <ele>11.7</ele>
        <time>2022-05-31T09:55:50Z</time>
      </trkpt>
      <trkpt lat="49.41804" lon="0.23294">
        <ele>11.7</ele>
        <time>2022-05-31T09:55:51Z</time>
      </trkpt>
      <trkpt lat="49.41804" lon="0.23293">
        <ele>11.7</ele>
        <time>2022-05-31T09:55:52Z</time>
      </trkpt>
      <trkpt lat="49.41805" lon="0.23292">
        <ele>11.7</ele>
        <time>2022-05-31T09:55:54Z</time>
      </trkpt>
      <trkpt lat="49.41805" lon="0.2329">
        <ele>11.6</ele>
        <time>2022-05-31T09:55:55Z</time>
      </trkpt>
      <trkpt lat="49.41805" lon="0.23289">
        <ele>11.6</ele>
        <time>2022-05-31T09:55:56Z</time>
      </trkpt>
      <trkpt lat="49.41805" lon="0.23287">
        <ele>11.6</ele>
        <time>2022-05-31T09:55:57Z</time>
      </trkpt>
      <trkpt lat="49.41805" lon="0.23286">
        <ele>11.6</ele>
        <time>2022-05-31T09:55:58Z</time>
      </trkpt>
      <trkpt lat="49.41805" lon="0.23285">
        <ele>11.6</ele>
        <time>2022-05-31T09:56:00Z</time>
      </trkpt>
      <trkpt lat="49.41805" lon="0.23283">
        <ele>11.6</ele>
        <time>2022-05-31T09:56:01Z</time>
      </trkpt>
      <trkpt lat="49.41805" lon="0.23282">
        <ele>11.5</ele>
        <time>2022-05-31T09:56:02Z</time>
      </trkpt>
      <trkpt lat="49.41805" lon="0.2328">
        <ele>11.5</ele>
        <time>2022-05-31T09:56:03Z</time>
      </trkpt>
      <trkpt lat="49.41806" lon="0.23278">
        <ele>11.5</ele>
        <time>2022-05-31T09:56:04Z</time>
      </trkpt>
      <trkpt lat="49.41806" lon="0.23276">
        <ele>11.5</ele>
        <time>2022-05-31T09:56:05Z</time>
      </trkpt>
      <trkpt lat="49.41806" lon="0.23275">
        <ele>11.5</ele>
        <time>2022-05-31T09:56:06Z</time>
      </trkpt>
      <trkpt lat="49.41805" lon="0.23272">
        <ele>11.4</ele>
        <time>2022-05-31T09:56:07Z</time>
      </trkpt>
      <trkpt lat="49.41804" lon="0.23271">
        <ele>11.4</ele>
        <time>2022-05-31T09:56:08Z</time>
      </trkpt>
      <trkpt lat="49.41803" lon="0.2327">
        <ele>11.4</ele>
        <time>2022-05-31T09:56:10Z</time>
      </trkpt>
      <trkpt lat="49.41802" lon="0.23269">
        <ele>11.4</ele>
        <time>2022-05-31T09:56:11Z</time>
      </trkpt>
      <trkpt lat="49.41802" lon="0.23268">
        <ele>11.3</ele>
        <time>2022-05-31T09:56:12Z</time>
      </trkpt>
      <trkpt lat="49.41802" lon="0.23266">
        <ele>11.3</ele>
        <time>2022-05-31T09:56:13Z</time>
      </trkpt>
      <trkpt lat="49.41802" lon="0.23264">
        <ele>11.3</ele>
        <time>2022-05-31T09:56:14Z</time>
      </trkpt>
      <trkpt lat="49.41803" lon="0.23263">
        <ele>11.3</ele>
        <time>2022-05-31T09:56:15Z</time>
      </trkpt>
      <trkpt lat="49.41803" lon="0.23261">
        <ele>11.3</ele>
        <time>2022-05-31T09:56:16Z</time>
      </trkpt>
      <trkpt lat="49.41804" lon="0.2326">
        <ele>11.2</ele>
        <time>2022-05-31T09:56:18Z</time>
      </trkpt>
      <trkpt lat="49.41804" lon="0.23259">
        <ele>11.2</ele>
        <time>2022-05-31T09:56:19Z</time>
      </trkpt>
      <trkpt lat="49.41804" lon="0.23258">
        <ele>11.2</ele>
        <time>2022-05-31T09:56:20Z</time>
      </trkpt>
      <trkpt lat="49.41804" lon="0.23256">
        <ele>11.2</ele>
        <time>2022-05-31T09:56:21Z</time>
      </trkpt>
      <trkpt lat="49.41804" lon="0.23254">
        <ele>11.2</ele>
        <time>2022-05-31T09:56:23Z</time>
      </trkpt>
      <trkpt lat="49.41805" lon="0.23253">
        <ele>11.2</ele>
        <time>2022-05-31T09:56:24Z</time>
      </trkpt>
      <trkpt lat="49.41806" lon="0.23251">
        <ele>11.1</ele>
        <time>2022-05-31T09:56:25Z</time>
      </trkpt>
      <trkpt lat="49.41806" lon="0.23248">
        <ele>11.1</ele>
        <time>2022-05-31T09:56:26Z</time>
      </trkpt>
      <trkpt lat="49.41806" lon="0.23247">
        <ele>11.1</ele>
        <time>2022-05-31T09:56:27Z</time>
      </trkpt>
      <trkpt lat="49.41806" lon="0.23246">
        <ele>11.1</ele>
        <time>2022-05-31T09:56:28Z</time>
      </trkpt>
      <trkpt lat="49.41807" lon="0.23244">
        <ele>11.1</ele>
        <time>2022-05-31T09:56:29Z</time>
      </trkpt>
      <trkpt lat="49.41808" lon="0.23242">
        <ele>11</ele>
        <time>2022-05-31T09:56:30Z</time>
      </trkpt>
      <trkpt lat="49.41808" lon="0.2324">
        <ele>11</ele>
        <time>2022-05-31T09:56:31Z</time>
      </trkpt>
      <trkpt lat="49.41809" lon="0.23236">
        <ele>11</ele>
        <time>2022-05-31T09:56:33Z</time>
      </trkpt>
      <trkpt lat="49.4181" lon="0.23232">
        <ele>10.9</ele>
        <time>2022-05-31T09:56:34Z</time>
      </trkpt>
      <trkpt lat="49.4181" lon="0.23231">
        <ele>10.9</ele>
        <time>2022-05-31T09:56:35Z</time>
      </trkpt>
      <trkpt lat="49.41811" lon="0.23229">
        <ele>10.9</ele>
        <time>2022-05-31T09:56:36Z</time>
      </trkpt>
      <trkpt lat="49.41812" lon="0.23226">
        <ele>10.9</ele>
        <time>2022-05-31T09:56:37Z</time>
      </trkpt>
      <trkpt lat="49.41812" lon="0.23223">
        <ele>10.8</ele>
        <time>2022-05-31T09:56:38Z</time>
      </trkpt>
      <trkpt lat="49.41813" lon="0.23222">
        <ele>10.8</ele>
        <time>2022-05-31T09:56:39Z</time>
      </trkpt>
      <trkpt lat="49.41813" lon="0.23221">
        <ele>10.8</ele>
        <time>2022-05-31T09:56:40Z</time>
      </trkpt>
      <trkpt lat="49.41813" lon="0.2322">
        <ele>10.8</ele>
        <time>2022-05-31T09:56:42Z</time>
      </trkpt>
      <trkpt lat="49.41813" lon="0.23219">
        <ele>10.8</ele>
        <time>2022-05-31T09:56:43Z</time>
      </trkpt>
      <trkpt lat="49.41814" lon="0.23217">
        <ele>10.8</ele>
        <time>2022-05-31T09:56:44Z</time>
      </trkpt>
      <trkpt lat="49.41814" lon="0.23216">
        <ele>10.7</ele>
        <time>2022-05-31T09:56:45Z</time>
      </trkpt>
      <trkpt lat="49.41814" lon="0.23214">
        <ele>10.7</ele>
        <time>2022-05-31T09:56:46Z</time>
      </trkpt>
      <trkpt lat="49.41814" lon="0.23214">
        <ele>10.7</ele>
        <time>2022-05-31T09:56:47Z</time>
      </trkpt>
      <trkpt lat="49.41814" lon="0.23214">
        <ele>10.7</ele>
        <time>2022-05-31T09:56:48Z</time>
      </trkpt>
      <trkpt lat="49.41815" lon="0.23212">
        <ele>10.7</ele>
        <time>2022-05-31T09:56:50Z</time>
      </trkpt>
      <trkpt lat="49.41815" lon="0.23211">
        <ele>10.7</ele>
        <time>2022-05-31T09:56:51Z</time>
      </trkpt>
      <trkpt lat="49.41815" lon="0.2321">
        <ele>10.7</ele>
        <time>2022-05-31T09:56:52Z</time>
      </trkpt>
      <trkpt lat="49.41815" lon="0.2321">
        <ele>10.7</ele>
        <time>2022-05-31T09:56:53Z</time>
      </trkpt>
      <trkpt lat="49.41816" lon="0.23209">
        <ele>10.7</ele>
        <time>2022-05-31T09:56:54Z</time>
      </trkpt>
      <trkpt lat="49.41816" lon="0.23208">
        <ele>10.7</ele>
        <time>2022-05-31T09:56:55Z</time>
      </trkpt>
      <trkpt lat="49.41817" lon="0.23207">
        <ele>10.6</ele>
        <time>2022-05-31T09:56:56Z</time>
      </trkpt>
      <trkpt lat="49.41818" lon="0.23204">
        <ele>10.6</ele>
        <time>2022-05-31T09:56:58Z</time>
      </trkpt>
      <trkpt lat="49.41818" lon="0.23202">
        <ele>10.6</ele>
        <time>2022-05-31T09:56:59Z</time>
      </trkpt>
      <trkpt lat="49.4182" lon="0.23197">
        <ele>10.5</ele>
        <time>2022-05-31T09:57:00Z</time>
      </trkpt>
      <trkpt lat="49.41821" lon="0.23196">
        <ele>10.5</ele>
        <time>2022-05-31T09:57:01Z</time>
      </trkpt>
      <trkpt lat="49.41822" lon="0.23192">
        <ele>10.5</ele>
        <time>2022-05-31T09:57:03Z</time>
      </trkpt>
      <trkpt lat="49.41822" lon="0.23191">
        <ele>10.5</ele>
        <time>2022-05-31T09:57:04Z</time>
      </trkpt>
      <trkpt lat="49.41822" lon="0.2319">
        <ele>10.4</ele>
        <time>2022-05-31T09:57:05Z</time>
      </trkpt>
      <trkpt lat="49.41823" lon="0.23189">
        <ele>10.4</ele>
        <time>2022-05-31T09:57:06Z</time>
      </trkpt>
      <trkpt lat="49.41823" lon="0.23188">
        <ele>10.4</ele>
        <time>2022-05-31T09:57:07Z</time>
      </trkpt>
      <trkpt lat="49.41823" lon="0.23187">
        <ele>10.4</ele>
        <time>2022-05-31T09:57:09Z</time>
      </trkpt>
      <trkpt lat="49.41823" lon="0.23186">
        <ele>10.4</ele>
        <time>2022-05-31T09:57:10Z</time>
      </trkpt>
      <trkpt lat="49.41824" lon="0.23184">
        <ele>10.4</ele>
        <time>2022-05-31T09:57:11Z</time>
      </trkpt>
      <trkpt lat="49.41825" lon="0.23182">
        <ele>10.3</ele>
        <time>2022-05-31T09:57:12Z</time>
      </trkpt>
      <trkpt lat="49.41826" lon="0.23179">
        <ele>10.3</ele>
        <time>2022-05-31T09:57:13Z</time>
      </trkpt>
      <trkpt lat="49.41826" lon="0.23178">
        <ele>10.3</ele>
        <time>2022-05-31T09:57:14Z</time>
      </trkpt>
      <trkpt lat="49.41827" lon="0.23176">
        <ele>10.3</ele>
        <time>2022-05-31T09:57:16Z</time>
      </trkpt>
      <trkpt lat="49.41827" lon="0.23175">
        <ele>10.3</ele>
        <time>2022-05-31T09:57:17Z</time>
      </trkpt>
      <trkpt lat="49.41828" lon="0.23174">
        <ele>10.3</ele>
        <time>2022-05-31T09:57:18Z</time>
      </trkpt>
      <trkpt lat="49.41828" lon="0.23173">
        <ele>10.2</ele>
        <time>2022-05-31T09:57:19Z</time>
      </trkpt>
      <trkpt lat="49.41828" lon="0.23172">
        <ele>10.2</ele>
        <time>2022-05-31T09:57:20Z</time>
      </trkpt>
      <trkpt lat="49.41828" lon="0.23171">
        <ele>10.1</ele>
        <time>2022-05-31T09:57:21Z</time>
      </trkpt>
      <trkpt lat="49.41829" lon="0.23171">
        <ele>10.1</ele>
        <time>2022-05-31T09:57:23Z</time>
      </trkpt>
      <trkpt lat="49.41831" lon="0.2317">
        <ele>10.1</ele>
        <time>2022-05-31T09:57:24Z</time>
      </trkpt>
      <trkpt lat="49.41832" lon="0.2317">
        <ele>10.1</ele>
        <time>2022-05-31T09:57:25Z</time>
      </trkpt>
      <trkpt lat="49.41833" lon="0.23172">
        <ele>10.1</ele>
        <time>2022-05-31T09:57:27Z</time>
      </trkpt>
      <trkpt lat="49.41835" lon="0.23175">
        <ele>10.2</ele>
        <time>2022-05-31T09:57:28Z</time>
      </trkpt>
      <trkpt lat="49.41836" lon="0.23176">
        <ele>10.2</ele>
        <time>2022-05-31T09:57:29Z</time>
      </trkpt>
      <trkpt lat="49.41835" lon="0.23176">
        <ele>10.2</ele>
        <time>2022-05-31T09:57:30Z</time>
      </trkpt>
      <trkpt lat="49.41835" lon="0.23176">
        <ele>10.2</ele>
        <time>2022-05-31T09:57:31Z</time>
      </trkpt>
      <trkpt lat="49.41835" lon="0.23175">
        <ele>10.2</ele>
        <time>2022-05-31T09:57:32Z</time>
      </trkpt>
      <trkpt lat="49.41835" lon="0.23175">
        <ele>10.2</ele>
        <time>2022-05-31T09:57:33Z</time>
      </trkpt>
      <trkpt lat="49.41834" lon="0.23175">
        <ele>10.2</ele>
        <time>2022-05-31T09:57:34Z</time>
      </trkpt>
      <trkpt lat="49.41834" lon="0.23175">
        <ele>10.2</ele>
        <time>2022-05-31T09:57:35Z</time>
      </trkpt>
      <trkpt lat="49.41834" lon="0.23174">
        <ele>10.2</ele>
        <time>2022-05-31T09:57:36Z</time>
      </trkpt>
      <trkpt lat="49.41834" lon="0.23174">
        <ele>10.2</ele>
        <time>2022-05-31T09:57:37Z</time>
      </trkpt>
      <trkpt lat="49.41833" lon="0.23174">
        <ele>10.2</ele>
        <time>2022-05-31T09:57:38Z</time>
      </trkpt>
      <trkpt lat="49.41833" lon="0.23173">
        <ele>10.2</ele>
        <time>2022-05-31T09:57:40Z</time>
      </trkpt>
      <trkpt lat="49.41833" lon="0.23173">
        <ele>10.2</ele>
        <time>2022-05-31T09:57:41Z</time>
      </trkpt>
      <trkpt lat="49.41832" lon="0.23173">
        <ele>10.2</ele>
        <time>2022-05-31T09:57:42Z</time>
      </trkpt>
      <trkpt lat="49.41832" lon="0.23173">
        <ele>10.2</ele>
        <time>2022-05-31T09:57:43Z</time>
      </trkpt>
      <trkpt lat="49.41832" lon="0.23172">
        <ele>10.2</ele>
        <time>2022-05-31T09:57:44Z</time>
      </trkpt>
      <trkpt lat="49.4183" lon="0.23172">
        <ele>10.2</ele>
        <time>2022-05-31T09:57:45Z</time>
      </trkpt>
      <trkpt lat="49.41829" lon="0.23171">
        <ele>10.2</ele>
        <time>2022-05-31T09:57:46Z</time>
      </trkpt>
      <trkpt lat="49.41828" lon="0.23171">
        <ele>10.2</ele>
        <time>2022-05-31T09:57:47Z</time>
      </trkpt>
      <trkpt lat="49.41828" lon="0.2317">
        <ele>10.2</ele>
        <time>2022-05-31T09:57:48Z</time>
      </trkpt>
      <trkpt lat="49.41826" lon="0.2317">
        <ele>10.2</ele>
        <time>2022-05-31T09:57:49Z</time>
      </trkpt>
      <trkpt lat="49.41826" lon="0.2317">
        <ele>10.2</ele>
        <time>2022-05-31T09:57:50Z</time>
      </trkpt>
      <trkpt lat="49.41826" lon="0.2317">
        <ele>10.2</ele>
        <time>2022-05-31T09:57:51Z</time>
      </trkpt>
      <trkpt lat="49.41825" lon="0.23168">
        <ele>10.2</ele>
        <time>2022-05-31T09:57:53Z</time>
      </trkpt>
      <trkpt lat="49.41825" lon="0.23167">
        <ele>10.2</ele>
        <time>2022-05-31T09:57:54Z</time>
      </trkpt>
      <trkpt lat="49.41825" lon="0.23166">
        <ele>10.2</ele>
        <time>2022-05-31T09:57:55Z</time>
      </trkpt>
      <trkpt lat="49.41825" lon="0.23166">
        <ele>10.2</ele>
        <time>2022-05-31T09:57:56Z</time>
      </trkpt>
      <trkpt lat="49.41825" lon="0.23164">
        <ele>10.2</ele>
        <time>2022-05-31T09:57:57Z</time>
      </trkpt>
      <trkpt lat="49.41825" lon="0.23164">
        <ele>10.2</ele>
        <time>2022-05-31T09:57:58Z</time>
      </trkpt>
      <trkpt lat="49.41825" lon="0.23164">
        <ele>10.2</ele>
        <time>2022-05-31T09:57:59Z</time>
      </trkpt>
      <trkpt lat="49.41825" lon="0.23164">
        <ele>10.2</ele>
        <time>2022-05-31T09:58:00Z</time>
      </trkpt>
      <trkpt lat="49.41823" lon="0.23164">
        <ele>10.2</ele>
        <time>2022-05-31T09:58:02Z</time>
      </trkpt>
      <trkpt lat="49.41823" lon="0.23164">
        <ele>10.2</ele>
        <time>2022-05-31T09:58:03Z</time>
      </trkpt>
      <trkpt lat="49.41822" lon="0.23164">
        <ele>10.2</ele>
        <time>2022-05-31T09:58:04Z</time>
      </trkpt>
      <trkpt lat="49.41821" lon="0.23165">
        <ele>10.2</ele>
        <time>2022-05-31T09:58:05Z</time>
      </trkpt>
      <trkpt lat="49.41819" lon="0.23163">
        <ele>10.2</ele>
        <time>2022-05-31T09:58:07Z</time>
      </trkpt>
      <trkpt lat="49.41818" lon="0.23162">
        <ele>10.2</ele>
        <time>2022-05-31T09:58:08Z</time>
      </trkpt>
      <trkpt lat="49.41818" lon="0.23162">
        <ele>10.2</ele>
        <time>2022-05-31T09:58:09Z</time>
      </trkpt>
      <trkpt lat="49.41817" lon="0.23162">
        <ele>10.2</ele>
        <time>2022-05-31T09:58:10Z</time>
      </trkpt>
      <trkpt lat="49.41814" lon="0.2316">
        <ele>10.2</ele>
        <time>2022-05-31T09:58:12Z</time>
      </trkpt>
      <trkpt lat="49.41813" lon="0.23159">
        <ele>10.2</ele>
        <time>2022-05-31T09:58:13Z</time>
      </trkpt>
      <trkpt lat="49.41812" lon="0.23158">
        <ele>10.2</ele>
        <time>2022-05-31T09:58:14Z</time>
      </trkpt>
      <trkpt lat="49.4181" lon="0.23157">
        <ele>10.2</ele>
        <time>2022-05-31T09:58:15Z</time>
      </trkpt>
      <trkpt lat="49.41805" lon="0.23152">
        <ele>10.2</ele>
        <time>2022-05-31T09:58:17Z</time>
      </trkpt>
      <trkpt lat="49.41804" lon="0.23151">
        <ele>10.2</ele>
        <time>2022-05-31T09:58:18Z</time>
      </trkpt>
      <trkpt lat="49.41803" lon="0.2315">
        <ele>10.2</ele>
        <time>2022-05-31T09:58:19Z</time>
      </trkpt>
      <trkpt lat="49.41801" lon="0.23149">
        <ele>10.2</ele>
        <time>2022-05-31T09:58:21Z</time>
      </trkpt>
      <trkpt lat="49.41798" lon="0.23147">
        <ele>10.2</ele>
        <time>2022-05-31T09:58:22Z</time>
      </trkpt>
      <trkpt lat="49.41798" lon="0.23147">
        <ele>10.2</ele>
        <time>2022-05-31T09:58:23Z</time>
      </trkpt>
      <trkpt lat="49.41797" lon="0.23146">
        <ele>10.2</ele>
        <time>2022-05-31T09:58:24Z</time>
      </trkpt>
      <trkpt lat="49.41796" lon="0.23145">
        <ele>10.2</ele>
        <time>2022-05-31T09:58:25Z</time>
      </trkpt>
      <trkpt lat="49.41795" lon="0.23144">
        <ele>10.2</ele>
        <time>2022-05-31T09:58:26Z</time>
      </trkpt>
      <trkpt lat="49.41794" lon="0.23142">
        <ele>10.3</ele>
        <time>2022-05-31T09:58:27Z</time>
      </trkpt>
      <trkpt lat="49.41793" lon="0.2314">
        <ele>10.3</ele>
        <time>2022-05-31T09:58:29Z</time>
      </trkpt>
      <trkpt lat="49.41792" lon="0.23139">
        <ele>10.3</ele>
        <time>2022-05-31T09:58:30Z</time>
      </trkpt>
      <trkpt lat="49.41792" lon="0.23139">
        <ele>10.3</ele>
        <time>2022-05-31T09:58:31Z</time>
      </trkpt>
      <trkpt lat="49.41792" lon="0.23139">
        <ele>10.3</ele>
        <time>2022-05-31T09:58:32Z</time>
      </trkpt>
      <trkpt lat="49.41792" lon="0.23138">
        <ele>10.3</ele>
        <time>2022-05-31T09:58:33Z</time>
      </trkpt>
      <trkpt lat="49.41793" lon="0.23138">
        <ele>10.3</ele>
        <time>2022-05-31T09:58:34Z</time>
      </trkpt>
      <trkpt lat="49.41793" lon="0.23138">
        <ele>10.3</ele>
        <time>2022-05-31T09:58:35Z</time>
      </trkpt>
      <trkpt lat="49.41793" lon="0.23138">
        <ele>10.3</ele>
        <time>2022-05-31T09:58:36Z</time>
      </trkpt>
      <trkpt lat="49.41793" lon="0.23138">
        <ele>10.3</ele>
        <time>2022-05-31T09:58:37Z</time>
      </trkpt>
      <trkpt lat="49.41793" lon="0.23137">
        <ele>10.3</ele>
        <time>2022-05-31T09:58:38Z</time>
      </trkpt>
      <trkpt lat="49.41793" lon="0.23137">
        <ele>10.3</ele>
        <time>2022-05-31T09:58:39Z</time>
      </trkpt>
      <trkpt lat="49.41794" lon="0.23137">
        <ele>10.3</ele>
        <time>2022-05-31T09:58:40Z</time>
      </trkpt>
      <trkpt lat="49.41794" lon="0.23137">
        <ele>10.3</ele>
        <time>2022-05-31T09:58:41Z</time>
      </trkpt>
      <trkpt lat="49.41794" lon="0.23137">
        <ele>10.3</ele>
        <time>2022-05-31T09:58:42Z</time>
      </trkpt>
      <trkpt lat="49.41794" lon="0.23136">
        <ele>10.3</ele>
        <time>2022-05-31T09:58:43Z</time>
      </trkpt>
      <trkpt lat="49.41794" lon="0.23136">
        <ele>10.3</ele>
        <time>2022-05-31T09:58:44Z</time>
      </trkpt>
      <trkpt lat="49.41794" lon="0.23136">
        <ele>10.3</ele>
        <time>2022-05-31T09:58:45Z</time>
      </trkpt>
      <trkpt lat="49.41795" lon="0.23136">
        <ele>10.3</ele>
        <time>2022-05-31T09:58:46Z</time>
      </trkpt>
      <trkpt lat="49.41795" lon="0.23136">
        <ele>10.3</ele>
        <time>2022-05-31T09:58:47Z</time>
      </trkpt>
      <trkpt lat="49.41795" lon="0.23135">
        <ele>10.3</ele>
        <time>2022-05-31T09:58:48Z</time>
      </trkpt>
      <trkpt lat="49.41795" lon="0.23135">
        <ele>10.3</ele>
        <time>2022-05-31T09:58:49Z</time>
      </trkpt>
      <trkpt lat="49.41795" lon="0.23135">
        <ele>10.3</ele>
        <time>2022-05-31T09:58:50Z</time>
      </trkpt>
      <trkpt lat="49.41795" lon="0.23135">
        <ele>10.3</ele>
        <time>2022-05-31T09:58:51Z</time>
      </trkpt>
      <trkpt lat="49.41795" lon="0.23135">
        <ele>10.3</ele>
        <time>2022-05-31T09:58:52Z</time>
      </trkpt>
      <trkpt lat="49.41795" lon="0.23135">
        <ele>10.3</ele>
        <time>2022-05-31T09:58:53Z</time>
      </trkpt>
      <trkpt lat="49.41795" lon="0.23135">
        <ele>10.3</ele>
        <time>2022-05-31T09:58:54Z</time>
      </trkpt>
      <trkpt lat="49.41795" lon="0.23135">
        <ele>10.3</ele>
        <time>2022-05-31T09:58:55Z</time>
      </trkpt>
      <trkpt lat="49.41795" lon="0.23135">
        <ele>10.3</ele>
        <time>2022-05-31T09:58:56Z</time>
      </trkpt>
      <trkpt lat="49.41795" lon="0.23135">
        <ele>10.3</ele>
        <time>2022-05-31T09:58:57Z</time>
      </trkpt>
      <trkpt lat="49.41795" lon="0.23135">
        <ele>10.3</ele>
        <time>2022-05-31T09:58:58Z</time>
      </trkpt>
      <trkpt lat="49.41795" lon="0.23135">
        <ele>10.3</ele>
        <time>2022-05-31T09:58:59Z</time>
      </trkpt>
      <trkpt lat="49.41795" lon="0.23135">
        <ele>10.3</ele>
        <time>2022-05-31T09:59:00Z</time>
      </trkpt>
      <trkpt lat="49.41795" lon="0.23135">
        <ele>10.3</ele>
        <time>2022-05-31T09:59:01Z</time>
      </trkpt>
      <trkpt lat="49.41795" lon="0.23135">
        <ele>10.3</ele>
        <time>2022-05-31T09:59:02Z</time>
      </trkpt>
      <trkpt lat="49.41793" lon="0.23136">
        <ele>10.3</ele>
        <time>2022-05-31T09:59:03Z</time>
      </trkpt>
      <trkpt lat="49.41793" lon="0.23136">
        <ele>10.3</ele>
        <time>2022-05-31T09:59:04Z</time>
      </trkpt>
      <trkpt lat="49.41792" lon="0.23136">
        <ele>10.3</ele>
        <time>2022-05-31T09:59:05Z</time>
      </trkpt>
      <trkpt lat="49.41792" lon="0.23137">
        <ele>10.3</ele>
        <time>2022-05-31T09:59:06Z</time>
      </trkpt>
      <trkpt lat="49.41791" lon="0.23137">
        <ele>10.3</ele>
        <time>2022-05-31T09:59:07Z</time>
      </trkpt>
      <trkpt lat="49.41791" lon="0.23137">
        <ele>10.3</ele>
        <time>2022-05-31T09:59:08Z</time>
      </trkpt>
      <trkpt lat="49.41791" lon="0.23137">
        <ele>10.3</ele>
        <time>2022-05-31T09:59:09Z</time>
      </trkpt>
      <trkpt lat="49.4179" lon="0.23138">
        <ele>10.3</ele>
        <time>2022-05-31T09:59:10Z</time>
      </trkpt>
      <trkpt lat="49.4179" lon="0.23138">
        <ele>10.3</ele>
        <time>2022-05-31T09:59:11Z</time>
      </trkpt>
      <trkpt lat="49.4179" lon="0.23138">
        <ele>10.3</ele>
        <time>2022-05-31T09:59:13Z</time>
      </trkpt>
      <trkpt lat="49.41789" lon="0.23138">
        <ele>10.3</ele>
        <time>2022-05-31T09:59:14Z</time>
      </trkpt>
      <trkpt lat="49.41789" lon="0.23138">
        <ele>10.3</ele>
        <time>2022-05-31T09:59:15Z</time>
      </trkpt>
      <trkpt lat="49.41789" lon="0.23138">
        <ele>10.3</ele>
        <time>2022-05-31T09:59:16Z</time>
      </trkpt>
      <trkpt lat="49.41789" lon="0.23139">
        <ele>10.3</ele>
        <time>2022-05-31T09:59:17Z</time>
      </trkpt>
      <trkpt lat="49.41788" lon="0.23139">
        <ele>10.3</ele>
        <time>2022-05-31T09:59:18Z</time>
      </trkpt>
      <trkpt lat="49.41788" lon="0.23138">
        <ele>10.3</ele>
        <time>2022-05-31T09:59:20Z</time>
      </trkpt>
      <trkpt lat="49.41787" lon="0.23138">
        <ele>10.3</ele>
        <time>2022-05-31T09:59:21Z</time>
      </trkpt>
      <trkpt lat="49.41786" lon="0.23138">
        <ele>10.3</ele>
        <time>2022-05-31T09:59:22Z</time>
      </trkpt>
      <trkpt lat="49.41786" lon="0.23138">
        <ele>10.3</ele>
        <time>2022-05-31T09:59:23Z</time>
      </trkpt>
      <trkpt lat="49.41786" lon="0.23138">
        <ele>10.3</ele>
        <time>2022-05-31T09:59:24Z</time>
      </trkpt>
      <trkpt lat="49.41785" lon="0.23137">
        <ele>10.3</ele>
        <time>2022-05-31T09:59:25Z</time>
      </trkpt>
      <trkpt lat="49.41784" lon="0.23137">
        <ele>10.3</ele>
        <time>2022-05-31T09:59:26Z</time>
      </trkpt>
      <trkpt lat="49.41783" lon="0.23136">
        <ele>10.3</ele>
        <time>2022-05-31T09:59:27Z</time>
      </trkpt>
      <trkpt lat="49.41783" lon="0.23136">
        <ele>10.3</ele>
        <time>2022-05-31T09:59:29Z</time>
      </trkpt>
      <trkpt lat="49.41782" lon="0.23135">
        <ele>10.3</ele>
        <time>2022-05-31T09:59:30Z</time>
      </trkpt>
      <trkpt lat="49.41781" lon="0.23135">
        <ele>10.3</ele>
        <time>2022-05-31T09:59:31Z</time>
      </trkpt>
      <trkpt lat="49.4178" lon="0.23135">
        <ele>10.3</ele>
        <time>2022-05-31T09:59:32Z</time>
      </trkpt>
      <trkpt lat="49.41779" lon="0.23133">
        <ele>10.3</ele>
        <time>2022-05-31T09:59:33Z</time>
      </trkpt>
      <trkpt lat="49.41777" lon="0.23132">
        <ele>10.3</ele>
        <time>2022-05-31T09:59:35Z</time>
      </trkpt>
      <trkpt lat="49.41776" lon="0.23131">
        <ele>10.3</ele>
        <time>2022-05-31T09:59:36Z</time>
      </trkpt>
      <trkpt lat="49.41774" lon="0.23128">
        <ele>10.3</ele>
        <time>2022-05-31T09:59:37Z</time>
      </trkpt>
      <trkpt lat="49.41773" lon="0.23126">
        <ele>10.3</ele>
        <time>2022-05-31T09:59:38Z</time>
      </trkpt>
      <trkpt lat="49.41772" lon="0.23125">
        <ele>10.3</ele>
        <time>2022-05-31T09:59:39Z</time>
      </trkpt>
      <trkpt lat="49.41771" lon="0.23124">
        <ele>10.3</ele>
        <time>2022-05-31T09:59:40Z</time>
      </trkpt>
      <trkpt lat="49.41769" lon="0.23122">
        <ele>10.3</ele>
        <time>2022-05-31T09:59:41Z</time>
      </trkpt>
      <trkpt lat="49.41768" lon="0.23121">
        <ele>10.3</ele>
        <time>2022-05-31T09:59:43Z</time>
      </trkpt>
      <trkpt lat="49.41767" lon="0.2312">
        <ele>10.3</ele>
        <time>2022-05-31T09:59:44Z</time>
      </trkpt>
      <trkpt lat="49.41768" lon="0.2312">
        <ele>10.4</ele>
        <time>2022-05-31T09:59:45Z</time>
      </trkpt>
      <trkpt lat="49.41767" lon="0.23119">
        <ele>10.4</ele>
        <time>2022-05-31T09:59:46Z</time>
      </trkpt>
      <trkpt lat="49.41766" lon="0.23119">
        <ele>10.4</ele>
        <time>2022-05-31T09:59:47Z</time>
      </trkpt>
      <trkpt lat="49.41764" lon="0.23118">
        <ele>10.4</ele>
        <time>2022-05-31T09:59:48Z</time>
      </trkpt>
      <trkpt lat="49.41764" lon="0.23118">
        <ele>10.4</ele>
        <time>2022-05-31T09:59:49Z</time>
      </trkpt>
      <trkpt lat="49.41763" lon="0.23118">
        <ele>10.4</ele>
        <time>2022-05-31T09:59:50Z</time>
      </trkpt>
      <trkpt lat="49.41761" lon="0.23118">
        <ele>10.4</ele>
        <time>2022-05-31T09:59:51Z</time>
      </trkpt>
      <trkpt lat="49.4176" lon="0.23117">
        <ele>10.4</ele>
        <time>2022-05-31T09:59:53Z</time>
      </trkpt>
      <trkpt lat="49.41759" lon="0.23117">
        <ele>10.4</ele>
        <time>2022-05-31T09:59:54Z</time>
      </trkpt>
      <trkpt lat="49.41758" lon="0.23116">
        <ele>10.4</ele>
        <time>2022-05-31T09:59:55Z</time>
      </trkpt>
      <trkpt lat="49.41756" lon="0.23116">
        <ele>10.5</ele>
        <time>2022-05-31T09:59:56Z</time>
      </trkpt>
      <trkpt lat="49.41755" lon="0.23116">
        <ele>10.5</ele>
        <time>2022-05-31T09:59:57Z</time>
      </trkpt>
      <trkpt lat="49.41755" lon="0.23117">
        <ele>10.5</ele>
        <time>2022-05-31T09:59:58Z</time>
      </trkpt>
      <trkpt lat="49.41755" lon="0.23118">
        <ele>10.5</ele>
        <time>2022-05-31T09:59:59Z</time>
      </trkpt>
      <trkpt lat="49.41754" lon="0.23118">
        <ele>10.5</ele>
        <time>2022-05-31T10:00:00Z</time>
      </trkpt>
      <trkpt lat="49.41754" lon="0.23118">
        <ele>10.5</ele>
        <time>2022-05-31T10:00:02Z</time>
      </trkpt>
      <trkpt lat="49.41753" lon="0.23118">
        <ele>10.5</ele>
        <time>2022-05-31T10:00:03Z</time>
      </trkpt>
      <trkpt lat="49.41755" lon="0.23117">
        <ele>10.5</ele>
        <time>2022-05-31T10:00:04Z</time>
      </trkpt>
      <trkpt lat="49.41756" lon="0.23116">
        <ele>10.5</ele>
        <time>2022-05-31T10:00:05Z</time>
      </trkpt>
      <trkpt lat="49.41756" lon="0.23114">
        <ele>10.5</ele>
        <time>2022-05-31T10:00:06Z</time>
      </trkpt>
      <trkpt lat="49.41756" lon="0.23113">
        <ele>10.5</ele>
        <time>2022-05-31T10:00:07Z</time>
      </trkpt>
      <trkpt lat="49.41755" lon="0.23112">
        <ele>10.5</ele>
        <time>2022-05-31T10:00:08Z</time>
      </trkpt>
      <trkpt lat="49.41755" lon="0.23109">
        <ele>10.5</ele>
        <time>2022-05-31T10:00:09Z</time>
      </trkpt>
      <trkpt lat="49.41755" lon="0.23107">
        <ele>10.5</ele>
        <time>2022-05-31T10:00:11Z</time>
      </trkpt>
      <trkpt lat="49.41755" lon="0.23106">
        <ele>10.5</ele>
        <time>2022-05-31T10:00:12Z</time>
      </trkpt>
      <trkpt lat="49.41754" lon="0.23105">
        <ele>10.6</ele>
        <time>2022-05-31T10:00:13Z</time>
      </trkpt>
      <trkpt lat="49.41754" lon="0.23104">
        <ele>10.6</ele>
        <time>2022-05-31T10:00:14Z</time>
      </trkpt>
      <trkpt lat="49.41754" lon="0.23103">
        <ele>10.6</ele>
        <time>2022-05-31T10:00:15Z</time>
      </trkpt>
      <trkpt lat="49.41753" lon="0.23101">
        <ele>10.6</ele>
        <time>2022-05-31T10:00:17Z</time>
      </trkpt>
      <trkpt lat="49.41754" lon="0.23099">
        <ele>10.6</ele>
        <time>2022-05-31T10:00:18Z</time>
      </trkpt>
      <trkpt lat="49.41754" lon="0.23096">
        <ele>10.6</ele>
        <time>2022-05-31T10:00:19Z</time>
      </trkpt>
      <trkpt lat="49.41754" lon="0.23093">
        <ele>10.6</ele>
        <time>2022-05-31T10:00:20Z</time>
      </trkpt>
      <trkpt lat="49.41754" lon="0.23092">
        <ele>10.5</ele>
        <time>2022-05-31T10:00:21Z</time>
      </trkpt>
      <trkpt lat="49.41754" lon="0.23091">
        <ele>10.5</ele>
        <time>2022-05-31T10:00:22Z</time>
      </trkpt>
      <trkpt lat="49.41755" lon="0.23089">
        <ele>10.5</ele>
        <time>2022-05-31T10:00:23Z</time>
      </trkpt>
      <trkpt lat="49.41755" lon="0.23087">
        <ele>10.5</ele>
        <time>2022-05-31T10:00:24Z</time>
      </trkpt>
      <trkpt lat="49.41755" lon="0.23086">
        <ele>10.5</ele>
        <time>2022-05-31T10:00:26Z</time>
      </trkpt>
      <trkpt lat="49.41756" lon="0.23084">
        <ele>10.5</ele>
        <time>2022-05-31T10:00:27Z</time>
      </trkpt>
      <trkpt lat="49.41756" lon="0.23081">
        <ele>10.5</ele>
        <time>2022-05-31T10:00:28Z</time>
      </trkpt>
      <trkpt lat="49.41757" lon="0.23079">
        <ele>10.5</ele>
        <time>2022-05-31T10:00:29Z</time>
      </trkpt>
      <trkpt lat="49.41758" lon="0.23077">
        <ele>10.4</ele>
        <time>2022-05-31T10:00:30Z</time>
      </trkpt>
      <trkpt lat="49.4176" lon="0.23073">
        <ele>10.5</ele>
        <time>2022-05-31T10:00:31Z</time>
      </trkpt>
      <trkpt lat="49.41761" lon="0.23071">
        <ele>10.5</ele>
        <time>2022-05-31T10:00:32Z</time>
      </trkpt>
      <trkpt lat="49.41763" lon="0.23067">
        <ele>10.5</ele>
        <time>2022-05-31T10:00:34Z</time>
      </trkpt>
      <trkpt lat="49.41763" lon="0.23066">
        <ele>10.5</ele>
        <time>2022-05-31T10:00:35Z</time>
      </trkpt>
      <trkpt lat="49.41765" lon="0.23062">
        <ele>10.5</ele>
        <time>2022-05-31T10:00:36Z</time>
      </trkpt>
      <trkpt lat="49.41766" lon="0.23057">
        <ele>10.5</ele>
        <time>2022-05-31T10:00:37Z</time>
      </trkpt>
      <trkpt lat="49.41766" lon="0.23055">
        <ele>10.5</ele>
        <time>2022-05-31T10:00:38Z</time>
      </trkpt>
      <trkpt lat="49.41766" lon="0.23053">
        <ele>10.5</ele>
        <time>2022-05-31T10:00:39Z</time>
      </trkpt>
      <trkpt lat="49.41766" lon="0.23051">
        <ele>10.5</ele>
        <time>2022-05-31T10:00:40Z</time>
      </trkpt>
      <trkpt lat="49.41767" lon="0.23048">
        <ele>10.5</ele>
        <time>2022-05-31T10:00:42Z</time>
      </trkpt>
      <trkpt lat="49.41767" lon="0.23047">
        <ele>10.5</ele>
        <time>2022-05-31T10:00:43Z</time>
      </trkpt>
      <trkpt lat="49.41767" lon="0.23046">
        <ele>10.5</ele>
        <time>2022-05-31T10:00:44Z</time>
      </trkpt>
      <trkpt lat="49.41767" lon="0.23044">
        <ele>10.5</ele>
        <time>2022-05-31T10:00:45Z</time>
      </trkpt>
      <trkpt lat="49.41768" lon="0.23043">
        <ele>10.5</ele>
        <time>2022-05-31T10:00:46Z</time>
      </trkpt>
      <trkpt lat="49.41768" lon="0.23041">
        <ele>10.5</ele>
        <time>2022-05-31T10:00:47Z</time>
      </trkpt>
      <trkpt lat="49.41768" lon="0.23039">
        <ele>10.5</ele>
        <time>2022-05-31T10:00:49Z</time>
      </trkpt>
      <trkpt lat="49.41768" lon="0.23037">
        <ele>10.5</ele>
        <time>2022-05-31T10:00:50Z</time>
      </trkpt>
      <trkpt lat="49.41768" lon="0.23035">
        <ele>10.5</ele>
        <time>2022-05-31T10:00:51Z</time>
      </trkpt>
      <trkpt lat="49.41769" lon="0.23034">
        <ele>10.6</ele>
        <time>2022-05-31T10:00:52Z</time>
      </trkpt>
      <trkpt lat="49.41769" lon="0.23033">
        <ele>10.6</ele>
        <time>2022-05-31T10:00:53Z</time>
      </trkpt>
      <trkpt lat="49.41769" lon="0.23031">
        <ele>10.6</ele>
        <time>2022-05-31T10:00:54Z</time>
      </trkpt>
      <trkpt lat="49.41769" lon="0.2303">
        <ele>10.6</ele>
        <time>2022-05-31T10:00:55Z</time>
      </trkpt>
      <trkpt lat="49.41769" lon="0.23029">
        <ele>10.6</ele>
        <time>2022-05-31T10:00:56Z</time>
      </trkpt>
      <trkpt lat="49.41769" lon="0.23028">
        <ele>10.6</ele>
        <time>2022-05-31T10:00:58Z</time>
      </trkpt>
      <trkpt lat="49.41769" lon="0.23028">
        <ele>10.6</ele>
        <time>2022-05-31T10:00:59Z</time>
      </trkpt>
      <trkpt lat="49.41769" lon="0.23027">
        <ele>10.6</ele>
        <time>2022-05-31T10:01:00Z</time>
      </trkpt>
      <trkpt lat="49.4177" lon="0.23026">
        <ele>10.6</ele>
        <time>2022-05-31T10:01:02Z</time>
      </trkpt>
      <trkpt lat="49.4177" lon="0.23025">
        <ele>10.6</ele>
        <time>2022-05-31T10:01:03Z</time>
      </trkpt>
      <trkpt lat="49.4177" lon="0.23024">
        <ele>10.6</ele>
        <time>2022-05-31T10:01:05Z</time>
      </trkpt>
      <trkpt lat="49.41771" lon="0.23023">
        <ele>10.6</ele>
        <time>2022-05-31T10:01:06Z</time>
      </trkpt>
      <trkpt lat="49.41771" lon="0.23026">
        <ele>10.6</ele>
        <time>2022-05-31T10:01:07Z</time>
      </trkpt>
      <trkpt lat="49.41771" lon="0.23025">
        <ele>10.6</ele>
        <time>2022-05-31T10:01:08Z</time>
      </trkpt>
      <trkpt lat="49.41771" lon="0.23024">
        <ele>10.6</ele>
        <time>2022-05-31T10:01:09Z</time>
      </trkpt>
      <trkpt lat="49.41771" lon="0.23023">
        <ele>10.6</ele>
        <time>2022-05-31T10:01:10Z</time>
      </trkpt>
      <trkpt lat="49.41771" lon="0.23022">
        <ele>10.6</ele>
        <time>2022-05-31T10:01:11Z</time>
      </trkpt>
      <trkpt lat="49.41771" lon="0.23022">
        <ele>10.6</ele>
        <time>2022-05-31T10:01:12Z</time>
      </trkpt>
      <trkpt lat="49.41771" lon="0.23021">
        <ele>10.6</ele>
        <time>2022-05-31T10:01:13Z</time>
      </trkpt>
      <trkpt lat="49.41771" lon="0.23021">
        <ele>10.6</ele>
        <time>2022-05-31T10:01:15Z</time>
      </trkpt>
      <trkpt lat="49.41772" lon="0.23022">
        <ele>10.6</ele>
        <time>2022-05-31T10:01:16Z</time>
      </trkpt>
      <trkpt lat="49.41772" lon="0.23024">
        <ele>10.6</ele>
        <time>2022-05-31T10:01:18Z</time>
      </trkpt>
      <trkpt lat="49.41772" lon="0.23026">
        <ele>10.6</ele>
        <time>2022-05-31T10:01:19Z</time>
      </trkpt>
      <trkpt lat="49.41772" lon="0.23028">
        <ele>10.6</ele>
        <time>2022-05-31T10:01:20Z</time>
      </trkpt>
      <trkpt lat="49.41772" lon="0.23029">
        <ele>10.6</ele>
        <time>2022-05-31T10:01:21Z</time>
      </trkpt>
      <trkpt lat="49.41773" lon="0.23032">
        <ele>10.6</ele>
        <time>2022-05-31T10:01:22Z</time>
      </trkpt>
      <trkpt lat="49.41773" lon="0.23032">
        <ele>10.6</ele>
        <time>2022-05-31T10:01:23Z</time>
      </trkpt>
      <trkpt lat="49.41772" lon="0.23031">
        <ele>10.6</ele>
        <time>2022-05-31T10:01:24Z</time>
      </trkpt>
      <trkpt lat="49.41772" lon="0.2303">
        <ele>10.6</ele>
        <time>2022-05-31T10:01:25Z</time>
      </trkpt>
      <trkpt lat="49.41771" lon="0.23029">
        <ele>10.6</ele>
        <time>2022-05-31T10:01:26Z</time>
      </trkpt>
      <trkpt lat="49.41771" lon="0.23028">
        <ele>10.6</ele>
        <time>2022-05-31T10:01:27Z</time>
      </trkpt>
      <trkpt lat="49.41771" lon="0.23028">
        <ele>10.6</ele>
        <time>2022-05-31T10:01:28Z</time>
      </trkpt>
      <trkpt lat="49.4177" lon="0.23027">
        <ele>10.6</ele>
        <time>2022-05-31T10:01:29Z</time>
      </trkpt>
      <trkpt lat="49.4177" lon="0.23026">
        <ele>10.6</ele>
        <time>2022-05-31T10:01:30Z</time>
      </trkpt>
      <trkpt lat="49.41769" lon="0.23025">
        <ele>10.6</ele>
        <time>2022-05-31T10:01:31Z</time>
      </trkpt>
      <trkpt lat="49.41769" lon="0.23024">
        <ele>10.6</ele>
        <time>2022-05-31T10:01:32Z</time>
      </trkpt>
      <trkpt lat="49.41769" lon="0.23024">
        <ele>10.6</ele>
        <time>2022-05-31T10:01:33Z</time>
      </trkpt>
      <trkpt lat="49.41768" lon="0.23023">
        <ele>10.6</ele>
        <time>2022-05-31T10:01:34Z</time>
      </trkpt>
      <trkpt lat="49.41768" lon="0.23022">
        <ele>10.6</ele>
        <time>2022-05-31T10:01:35Z</time>
      </trkpt>
      <trkpt lat="49.41767" lon="0.23021">
        <ele>10.6</ele>
        <time>2022-05-31T10:01:36Z</time>
      </trkpt>
      <trkpt lat="49.41767" lon="0.2302">
        <ele>10.6</ele>
        <time>2022-05-31T10:01:37Z</time>
      </trkpt>
      <trkpt lat="49.41767" lon="0.23019">
        <ele>10.7</ele>
        <time>2022-05-31T10:01:38Z</time>
      </trkpt>
      <trkpt lat="49.41766" lon="0.23019">
        <ele>10.7</ele>
        <time>2022-05-31T10:01:39Z</time>
      </trkpt>
      <trkpt lat="49.41766" lon="0.23018">
        <ele>10.7</ele>
        <time>2022-05-31T10:01:40Z</time>
      </trkpt>
      <trkpt lat="49.41765" lon="0.23017">
        <ele>10.7</ele>
        <time>2022-05-31T10:01:41Z</time>
      </trkpt>
      <trkpt lat="49.41765" lon="0.23016">
        <ele>10.7</ele>
        <time>2022-05-31T10:01:42Z</time>
      </trkpt>
      <trkpt lat="49.41765" lon="0.23015">
        <ele>10.7</ele>
        <time>2022-05-31T10:01:43Z</time>
      </trkpt>
      <trkpt lat="49.41764" lon="0.23013">
        <ele>10.7</ele>
        <time>2022-05-31T10:01:44Z</time>
      </trkpt>
      <trkpt lat="49.41763" lon="0.23011">
        <ele>10.7</ele>
        <time>2022-05-31T10:01:45Z</time>
      </trkpt>
      <trkpt lat="49.41763" lon="0.23009">
        <ele>10.7</ele>
        <time>2022-05-31T10:01:46Z</time>
      </trkpt>
      <trkpt lat="49.41762" lon="0.23007">
        <ele>10.7</ele>
        <time>2022-05-31T10:01:47Z</time>
      </trkpt>
      <trkpt lat="49.41762" lon="0.23007">
        <ele>10.7</ele>
        <time>2022-05-31T10:01:48Z</time>
      </trkpt>
      <trkpt lat="49.41762" lon="0.23007">
        <ele>10.7</ele>
        <time>2022-05-31T10:01:49Z</time>
      </trkpt>
      <trkpt lat="49.41762" lon="0.23007">
        <ele>10.7</ele>
        <time>2022-05-31T10:01:50Z</time>
      </trkpt>
      <trkpt lat="49.41762" lon="0.23006">
        <ele>10.7</ele>
        <time>2022-05-31T10:01:51Z</time>
      </trkpt>
      <trkpt lat="49.41763" lon="0.23006">
        <ele>10.7</ele>
        <time>2022-05-31T10:01:52Z</time>
      </trkpt>
      <trkpt lat="49.41763" lon="0.23005">
        <ele>10.7</ele>
        <time>2022-05-31T10:01:53Z</time>
      </trkpt>
      <trkpt lat="49.41763" lon="0.23004">
        <ele>10.7</ele>
        <time>2022-05-31T10:01:54Z</time>
      </trkpt>
      <trkpt lat="49.41763" lon="0.23004">
        <ele>10.7</ele>
        <time>2022-05-31T10:01:55Z</time>
      </trkpt>
      <trkpt lat="49.41764" lon="0.23003">
        <ele>10.7</ele>
        <time>2022-05-31T10:01:56Z</time>
      </trkpt>
      <trkpt lat="49.41772" lon="0.23031">
        <ele>10.8</ele>
        <time>2022-05-31T10:01:58Z</time>
      </trkpt>
      <trkpt lat="49.41771" lon="0.2303">
        <ele>10.8</ele>
        <time>2022-05-31T10:01:59Z</time>
      </trkpt>
      <trkpt lat="49.41771" lon="0.23029">
        <ele>10.8</ele>
        <time>2022-05-31T10:02:01Z</time>
      </trkpt>
      <trkpt lat="49.4177" lon="0.23026">
        <ele>10.8</ele>
        <time>2022-05-31T10:02:02Z</time>
      </trkpt>
      <trkpt lat="49.4177" lon="0.23026">
        <ele>10.8</ele>
        <time>2022-05-31T10:02:03Z</time>
      </trkpt>
      <trkpt lat="49.4177" lon="0.23026">
        <ele>10.8</ele>
        <time>2022-05-31T10:02:04Z</time>
      </trkpt>
      <trkpt lat="49.41771" lon="0.23026">
        <ele>10.8</ele>
        <time>2022-05-31T10:02:05Z</time>
      </trkpt>
      <trkpt lat="49.41771" lon="0.23026">
        <ele>10.8</ele>
        <time>2022-05-31T10:02:06Z</time>
      </trkpt>
      <trkpt lat="49.4177" lon="0.23025">
        <ele>10.8</ele>
        <time>2022-05-31T10:02:07Z</time>
      </trkpt>
      <trkpt lat="49.4177" lon="0.23025">
        <ele>10.8</ele>
        <time>2022-05-31T10:02:08Z</time>
      </trkpt>
      <trkpt lat="49.4177" lon="0.23025">
        <ele>10.8</ele>
        <time>2022-05-31T10:02:09Z</time>
      </trkpt>
      <trkpt lat="49.4177" lon="0.23025">
        <ele>10.8</ele>
        <time>2022-05-31T10:02:10Z</time>
      </trkpt>
      <trkpt lat="49.4177" lon="0.23025">
        <ele>10.8</ele>
        <time>2022-05-31T10:02:11Z</time>
      </trkpt>
      <trkpt lat="49.4177" lon="0.23024">
        <ele>10.8</ele>
        <time>2022-05-31T10:02:12Z</time>
      </trkpt>
      <trkpt lat="49.41769" lon="0.23024">
        <ele>10.8</ele>
        <time>2022-05-31T10:02:13Z</time>
      </trkpt>
      <trkpt lat="49.41769" lon="0.23023">
        <ele>10.8</ele>
        <time>2022-05-31T10:02:14Z</time>
      </trkpt>
      <trkpt lat="49.41769" lon="0.23022">
        <ele>10.8</ele>
        <time>2022-05-31T10:02:22Z</time>
      </trkpt>
      <trkpt lat="49.41762" lon="0.23004">
        <ele>10.9</ele>
        <time>2022-05-31T10:02:37Z</time>
      </trkpt>
      <trkpt lat="49.41761" lon="0.23005">
        <ele>10.9</ele>
        <time>2022-05-31T10:02:43Z</time>
      </trkpt>
      <trkpt lat="49.41762" lon="0.23005">
        <ele>10.9</ele>
        <time>2022-05-31T10:02:49Z</time>
      </trkpt>
      <trkpt lat="49.41762" lon="0.23006">
        <ele>10.9</ele>
        <time>2022-05-31T10:02:59Z</time>
      </trkpt>
      <trkpt lat="49.41761" lon="0.23009">
        <ele>10.9</ele>
        <time>2022-05-31T10:03:04Z</time>
      </trkpt>
      <trkpt lat="49.41762" lon="0.23011">
        <ele>10.9</ele>
        <time>2022-05-31T10:03:09Z</time>
      </trkpt>
      <trkpt lat="49.41761" lon="0.23006">
        <ele>10.9</ele>
        <time>2022-05-31T10:03:14Z</time>
      </trkpt>
      <trkpt lat="49.41761" lon="0.23007">
        <ele>10.9</ele>
        <time>2022-05-31T10:03:20Z</time>
      </trkpt>
      <trkpt lat="49.41765" lon="0.23004">
        <ele>11</ele>
        <time>2022-05-31T10:03:25Z</time>
      </trkpt>
      <trkpt lat="49.41761" lon="0.2301">
        <ele>11</ele>
        <time>2022-05-31T10:03:35Z</time>
      </trkpt>
      <trkpt lat="49.41762" lon="0.2301">
        <ele>11</ele>
        <time>2022-05-31T10:03:40Z</time>
      </trkpt>
      <trkpt lat="49.41762" lon="0.23013">
        <ele>11</ele>
        <time>2022-05-31T10:03:45Z</time>
      </trkpt>
      <trkpt lat="49.41761" lon="0.2301">
        <ele>11</ele>
        <time>2022-05-31T10:03:50Z</time>
      </trkpt>
      <trkpt lat="49.4176" lon="0.2301">
        <ele>11</ele>
        <time>2022-05-31T10:03:55Z</time>
      </trkpt>
      <trkpt lat="49.41759" lon="0.2301">
        <ele>11</ele>
        <time>2022-05-31T10:04:00Z</time>
      </trkpt>
      <trkpt lat="49.41762" lon="0.23006">
        <ele>11</ele>
        <time>2022-05-31T10:04:05Z</time>
      </trkpt>
      <trkpt lat="49.41762" lon="0.23004">
        <ele>11</ele>
        <time>2022-05-31T10:04:15Z</time>
      </trkpt>
      <trkpt lat="49.41763" lon="0.23003">
        <ele>11.1</ele>
        <time>2022-05-31T10:04:20Z</time>
      </trkpt>
      <trkpt lat="49.41764" lon="0.23002">
        <ele>11.1</ele>
        <time>2022-05-31T10:04:30Z</time>
      </trkpt>
      <trkpt lat="49.41763" lon="0.23007">
        <ele>11.1</ele>
        <time>2022-05-31T10:04:40Z</time>
      </trkpt>
      <trkpt lat="49.41765" lon="0.23004">
        <ele>11.1</ele>
        <time>2022-05-31T10:04:45Z</time>
      </trkpt>
      <trkpt lat="49.41763" lon="0.23007">
        <ele>11.1</ele>
        <time>2022-05-31T10:04:50Z</time>
      </trkpt>
      <trkpt lat="49.41761" lon="0.23016">
        <ele>11.1</ele>
        <time>2022-05-31T10:04:55Z</time>
      </trkpt>
      <trkpt lat="49.41757" lon="0.23017">
        <ele>11.1</ele>
        <time>2022-05-31T10:05:05Z</time>
      </trkpt>
      <trkpt lat="49.41763" lon="0.23006">
        <ele>11.2</ele>
        <time>2022-05-31T10:05:10Z</time>
      </trkpt>
      <trkpt lat="49.41763" lon="0.23006">
        <ele>11.2</ele>
        <time>2022-05-31T10:05:15Z</time>
      </trkpt>
      <trkpt lat="49.41762" lon="0.23004">
        <ele>11.2</ele>
        <time>2022-05-31T10:05:25Z</time>
      </trkpt>
      <trkpt lat="49.4176" lon="0.23003">
        <ele>11.2</ele>
        <time>2022-05-31T10:05:30Z</time>
      </trkpt>
      <trkpt lat="49.4176" lon="0.23007">
        <ele>11.2</ele>
        <time>2022-05-31T10:05:35Z</time>
      </trkpt>
      <trkpt lat="49.41761" lon="0.23006">
        <ele>11.2</ele>
        <time>2022-05-31T10:05:41Z</time>
      </trkpt>
      <trkpt lat="49.41763" lon="0.23002">
        <ele>11.3</ele>
        <time>2022-05-31T10:05:46Z</time>
      </trkpt>
      <trkpt lat="49.41759" lon="0.23007">
        <ele>11.3</ele>
        <time>2022-05-31T10:05:51Z</time>
      </trkpt>
      <trkpt lat="49.41761" lon="0.23007">
        <ele>11.3</ele>
        <time>2022-05-31T10:06:01Z</time>
      </trkpt>
      <trkpt lat="49.41764" lon="0.23044">
        <ele>11.4</ele>
        <time>2022-05-31T10:06:06Z</time>
      </trkpt>
      <trkpt lat="49.41745" lon="0.23067">
        <ele>11.6</ele>
        <time>2022-05-31T10:06:11Z</time>
      </trkpt>
      <trkpt lat="49.41764" lon="0.23003">
        <ele>11.9</ele>
        <time>2022-05-31T10:06:21Z</time>
      </trkpt>
      <trkpt lat="49.41757" lon="0.23008">
        <ele>11.6</ele>
        <time>2022-05-31T10:06:29Z</time>
      </trkpt>
      <trkpt lat="49.41757" lon="0.23009">
        <ele>11.6</ele>
        <time>2022-05-31T10:06:32Z</time>
      </trkpt>
      <trkpt lat="49.41757" lon="0.23011">
        <ele>11.6</ele>
        <time>2022-05-31T10:06:41Z</time>
      </trkpt>
      <trkpt lat="49.41757" lon="0.23013">
        <ele>11.6</ele>
        <time>2022-05-31T10:06:46Z</time>
      </trkpt>
      <trkpt lat="49.41759" lon="0.23046">
        <ele>11.4</ele>
        <time>2022-05-31T10:06:51Z</time>
      </trkpt>
      <trkpt lat="49.41765" lon="0.23038">
        <ele>11.4</ele>
        <time>2022-05-31T10:06:56Z</time>
      </trkpt>
      <trkpt lat="49.41758" lon="0.23056">
        <ele>11.3</ele>
        <time>2022-05-31T10:07:00Z</time>
      </trkpt>
      <trkpt lat="49.41769" lon="0.23026">
        <ele>11.1</ele>
        <time>2022-05-31T10:07:01Z</time>
      </trkpt>
      <trkpt lat="49.41767" lon="0.23025">
        <ele>11.1</ele>
        <time>2022-05-31T10:07:02Z</time>
      </trkpt>
      <trkpt lat="49.41766" lon="0.23025">
        <ele>11.1</ele>
        <time>2022-05-31T10:07:03Z</time>
      </trkpt>
      <trkpt lat="49.41765" lon="0.23025">
        <ele>11.1</ele>
        <time>2022-05-31T10:07:04Z</time>
      </trkpt>
      <trkpt lat="49.41764" lon="0.2302">
        <ele>11</ele>
        <time>2022-05-31T10:07:05Z</time>
      </trkpt>
      <trkpt lat="49.41764" lon="0.23016">
        <ele>11</ele>
        <time>2022-05-31T10:07:06Z</time>
      </trkpt>
      <trkpt lat="49.41762" lon="0.23017">
        <ele>11</ele>
        <time>2022-05-31T10:07:07Z</time>
      </trkpt>
      <trkpt lat="49.41761" lon="0.23017">
        <ele>11</ele>
        <time>2022-05-31T10:07:08Z</time>
      </trkpt>
      <trkpt lat="49.41759" lon="0.23018">
        <ele>11</ele>
        <time>2022-05-31T10:07:09Z</time>
      </trkpt>
      <trkpt lat="49.41757" lon="0.23018">
        <ele>11</ele>
        <time>2022-05-31T10:07:10Z</time>
      </trkpt>
      <trkpt lat="49.41755" lon="0.23019">
        <ele>11</ele>
        <time>2022-05-31T10:07:11Z</time>
      </trkpt>
      <trkpt lat="49.41754" lon="0.23027">
        <ele>10.9</ele>
        <time>2022-05-31T10:07:12Z</time>
      </trkpt>
      <trkpt lat="49.41752" lon="0.23034">
        <ele>10.9</ele>
        <time>2022-05-31T10:07:13Z</time>
      </trkpt>
      <trkpt lat="49.41751" lon="0.23042">
        <ele>10.9</ele>
        <time>2022-05-31T10:07:14Z</time>
      </trkpt>
      <trkpt lat="49.41749" lon="0.23049">
        <ele>10.8</ele>
        <time>2022-05-31T10:07:15Z</time>
      </trkpt>
      <trkpt lat="49.41748" lon="0.23057">
        <ele>10.8</ele>
        <time>2022-05-31T10:07:16Z</time>
      </trkpt>
      <trkpt lat="49.41746" lon="0.23064">
        <ele>10.7</ele>
        <time>2022-05-31T10:07:17Z</time>
      </trkpt>
      <trkpt lat="49.41746" lon="0.23065">
        <ele>10.7</ele>
        <time>2022-05-31T10:07:18Z</time>
      </trkpt>
      <trkpt lat="49.41746" lon="0.23065">
        <ele>10.7</ele>
        <time>2022-05-31T10:07:19Z</time>
      </trkpt>
      <trkpt lat="49.41746" lon="0.23065">
        <ele>10.7</ele>
        <time>2022-05-31T10:07:20Z</time>
      </trkpt>
      <trkpt lat="49.41746" lon="0.23065">
        <ele>10.7</ele>
        <time>2022-05-31T10:07:21Z</time>
      </trkpt>
      <trkpt lat="49.41746" lon="0.23065">
        <ele>10.7</ele>
        <time>2022-05-31T10:07:22Z</time>
      </trkpt>
      <trkpt lat="49.41746" lon="0.23065">
        <ele>10.7</ele>
        <time>2022-05-31T10:07:23Z</time>
      </trkpt>
      <trkpt lat="49.41747" lon="0.23064">
        <ele>10.7</ele>
        <time>2022-05-31T10:07:24Z</time>
      </trkpt>
      <trkpt lat="49.41747" lon="0.23062">
        <ele>10.7</ele>
        <time>2022-05-31T10:07:25Z</time>
      </trkpt>
      <trkpt lat="49.41748" lon="0.2306">
        <ele>10.7</ele>
        <time>2022-05-31T10:07:26Z</time>
      </trkpt>
      <trkpt lat="49.41746" lon="0.23064">
        <ele>10.7</ele>
        <time>2022-05-31T10:07:27Z</time>
      </trkpt>
      <trkpt lat="49.41746" lon="0.23064">
        <ele>10.7</ele>
        <time>2022-05-31T10:07:28Z</time>
      </trkpt>
      <trkpt lat="49.41746" lon="0.23063">
        <ele>10.7</ele>
        <time>2022-05-31T10:07:29Z</time>
      </trkpt>
      <trkpt lat="49.41746" lon="0.23063">
        <ele>10.7</ele>
        <time>2022-05-31T10:07:30Z</time>
      </trkpt>
      <trkpt lat="49.41746" lon="0.23063">
        <ele>10.7</ele>
        <time>2022-05-31T10:07:31Z</time>
      </trkpt>
      <trkpt lat="49.41746" lon="0.23062">
        <ele>10.7</ele>
        <time>2022-05-31T10:07:32Z</time>
      </trkpt>
      <trkpt lat="49.41746" lon="0.23062">
        <ele>10.7</ele>
        <time>2022-05-31T10:07:33Z</time>
      </trkpt>
      <trkpt lat="49.41746" lon="0.23061">
        <ele>10.7</ele>
        <time>2022-05-31T10:07:34Z</time>
      </trkpt>
      <trkpt lat="49.41746" lon="0.23061">
        <ele>10.7</ele>
        <time>2022-05-31T10:07:35Z</time>
      </trkpt>
      <trkpt lat="49.41745" lon="0.2306">
        <ele>10.7</ele>
        <time>2022-05-31T10:07:36Z</time>
      </trkpt>
      <trkpt lat="49.41745" lon="0.2306">
        <ele>10.7</ele>
        <time>2022-05-31T10:07:37Z</time>
      </trkpt>
      <trkpt lat="49.41745" lon="0.23059">
        <ele>10.7</ele>
        <time>2022-05-31T10:07:38Z</time>
      </trkpt>
      <trkpt lat="49.41745" lon="0.23059">
        <ele>10.7</ele>
        <time>2022-05-31T10:07:39Z</time>
      </trkpt>
      <trkpt lat="49.41745" lon="0.23058">
        <ele>10.7</ele>
        <time>2022-05-31T10:07:40Z</time>
      </trkpt>
      <trkpt lat="49.41745" lon="0.23058">
        <ele>10.7</ele>
        <time>2022-05-31T10:07:41Z</time>
      </trkpt>
      <trkpt lat="49.41745" lon="0.23057">
        <ele>10.7</ele>
        <time>2022-05-31T10:07:42Z</time>
      </trkpt>
      <trkpt lat="49.41745" lon="0.23057">
        <ele>10.7</ele>
        <time>2022-05-31T10:07:43Z</time>
      </trkpt>
      <trkpt lat="49.41745" lon="0.23056">
        <ele>10.7</ele>
        <time>2022-05-31T10:07:44Z</time>
      </trkpt>
      <trkpt lat="49.41745" lon="0.23056">
        <ele>10.7</ele>
        <time>2022-05-31T10:07:45Z</time>
      </trkpt>
      <trkpt lat="49.41744" lon="0.23055">
        <ele>10.7</ele>
        <time>2022-05-31T10:07:46Z</time>
      </trkpt>
      <trkpt lat="49.41744" lon="0.23055">
        <ele>10.7</ele>
        <time>2022-05-31T10:07:47Z</time>
      </trkpt>
      <trkpt lat="49.41744" lon="0.23055">
        <ele>10.7</ele>
        <time>2022-05-31T10:07:48Z</time>
      </trkpt>
      <trkpt lat="49.41744" lon="0.23054">
        <ele>10.7</ele>
        <time>2022-05-31T10:07:49Z</time>
      </trkpt>
      <trkpt lat="49.41744" lon="0.23054">
        <ele>10.7</ele>
        <time>2022-05-31T10:07:50Z</time>
      </trkpt>
      <trkpt lat="49.41744" lon="0.23053">
        <ele>10.7</ele>
        <time>2022-05-31T10:07:51Z</time>
      </trkpt>
      <trkpt lat="49.41744" lon="0.23053">
        <ele>10.7</ele>
        <time>2022-05-31T10:07:52Z</time>
      </trkpt>
      <trkpt lat="49.41744" lon="0.23052">
        <ele>10.7</ele>
        <time>2022-05-31T10:07:53Z</time>
      </trkpt>
      <trkpt lat="49.41744" lon="0.23052">
        <ele>10.7</ele>
        <time>2022-05-31T10:07:54Z</time>
      </trkpt>
      <trkpt lat="49.41744" lon="0.23051">
        <ele>10.7</ele>
        <time>2022-05-31T10:07:55Z</time>
      </trkpt>
      <trkpt lat="49.41743" lon="0.23051">
        <ele>10.6</ele>
        <time>2022-05-31T10:07:56Z</time>
      </trkpt>
      <trkpt lat="49.41743" lon="0.2305">
        <ele>10.6</ele>
        <time>2022-05-31T10:07:57Z</time>
      </trkpt>
      <trkpt lat="49.41743" lon="0.2305">
        <ele>10.6</ele>
        <time>2022-05-31T10:07:58Z</time>
      </trkpt>
      <trkpt lat="49.41743" lon="0.23049">
        <ele>10.6</ele>
        <time>2022-05-31T10:07:59Z</time>
      </trkpt>
      <trkpt lat="49.41743" lon="0.23049">
        <ele>10.6</ele>
        <time>2022-05-31T10:08:00Z</time>
      </trkpt>
      <trkpt lat="49.41743" lon="0.23048">
        <ele>10.6</ele>
        <time>2022-05-31T10:08:01Z</time>
      </trkpt>
      <trkpt lat="49.41743" lon="0.23048">
        <ele>10.6</ele>
        <time>2022-05-31T10:08:02Z</time>
      </trkpt>
      <trkpt lat="49.41743" lon="0.23047">
        <ele>10.6</ele>
        <time>2022-05-31T10:08:03Z</time>
      </trkpt>
      <trkpt lat="49.41743" lon="0.23047">
        <ele>10.6</ele>
        <time>2022-05-31T10:08:04Z</time>
      </trkpt>
      <trkpt lat="49.41743" lon="0.23047">
        <ele>10.6</ele>
        <time>2022-05-31T10:08:05Z</time>
      </trkpt>
      <trkpt lat="49.41742" lon="0.23046">
        <ele>10.6</ele>
        <time>2022-05-31T10:08:06Z</time>
      </trkpt>
      <trkpt lat="49.41742" lon="0.23046">
        <ele>10.6</ele>
        <time>2022-05-31T10:08:07Z</time>
      </trkpt>
      <trkpt lat="49.41742" lon="0.23045">
        <ele>10.6</ele>
        <time>2022-05-31T10:08:08Z</time>
      </trkpt>
      <trkpt lat="49.41742" lon="0.23045">
        <ele>10.6</ele>
        <time>2022-05-31T10:08:09Z</time>
      </trkpt>
      <trkpt lat="49.41742" lon="0.23044">
        <ele>10.6</ele>
        <time>2022-05-31T10:08:10Z</time>
      </trkpt>
      <trkpt lat="49.41742" lon="0.23044">
        <ele>10.6</ele>
        <time>2022-05-31T10:08:11Z</time>
      </trkpt>
      <trkpt lat="49.41742" lon="0.23043">
        <ele>10.6</ele>
        <time>2022-05-31T10:08:12Z</time>
      </trkpt>
      <trkpt lat="49.41742" lon="0.23043">
        <ele>10.6</ele>
        <time>2022-05-31T10:08:13Z</time>
      </trkpt>
      <trkpt lat="49.41742" lon="0.23042">
        <ele>10.6</ele>
        <time>2022-05-31T10:08:14Z</time>
      </trkpt>
      <trkpt lat="49.41742" lon="0.23042">
        <ele>10.6</ele>
        <time>2022-05-31T10:08:15Z</time>
      </trkpt>
      <trkpt lat="49.41741" lon="0.23041">
        <ele>10.6</ele>
        <time>2022-05-31T10:08:16Z</time>
      </trkpt>
      <trkpt lat="49.41741" lon="0.23041">
        <ele>10.6</ele>
        <time>2022-05-31T10:08:17Z</time>
      </trkpt>
      <trkpt lat="49.41741" lon="0.2304">
        <ele>10.6</ele>
        <time>2022-05-31T10:08:18Z</time>
      </trkpt>
      <trkpt lat="49.41741" lon="0.2304">
        <ele>10.6</ele>
        <time>2022-05-31T10:08:19Z</time>
      </trkpt>
      <trkpt lat="49.41741" lon="0.23039">
        <ele>10.6</ele>
        <time>2022-05-31T10:08:20Z</time>
      </trkpt>
      <trkpt lat="49.41741" lon="0.23039">
        <ele>10.6</ele>
        <time>2022-05-31T10:08:21Z</time>
      </trkpt>
      <trkpt lat="49.41741" lon="0.23039">
        <ele>10.6</ele>
        <time>2022-05-31T10:08:22Z</time>
      </trkpt>
      <trkpt lat="49.41741" lon="0.23038">
        <ele>10.6</ele>
        <time>2022-05-31T10:08:23Z</time>
      </trkpt>
      <trkpt lat="49.41741" lon="0.23038">
        <ele>10.6</ele>
        <time>2022-05-31T10:08:24Z</time>
      </trkpt>
      <trkpt lat="49.41741" lon="0.23038">
        <ele>10.6</ele>
        <time>2022-05-31T10:08:25Z</time>
      </trkpt>
      <trkpt lat="49.41741" lon="0.23038">
        <ele>10.6</ele>
        <time>2022-05-31T10:08:26Z</time>
      </trkpt>
      <trkpt lat="49.41741" lon="0.23038">
        <ele>10.6</ele>
        <time>2022-05-31T10:08:27Z</time>
      </trkpt>
      <trkpt lat="49.41741" lon="0.23038">
        <ele>10.6</ele>
        <time>2022-05-31T10:08:28Z</time>
      </trkpt>
      <trkpt lat="49.41741" lon="0.23038">
        <ele>10.6</ele>
        <time>2022-05-31T10:08:29Z</time>
      </trkpt>
      <trkpt lat="49.41741" lon="0.23038">
        <ele>10.6</ele>
        <time>2022-05-31T10:08:30Z</time>
      </trkpt>
      <trkpt lat="49.41741" lon="0.23038">
        <ele>10.6</ele>
        <time>2022-05-31T10:08:31Z</time>
      </trkpt>
      <trkpt lat="49.41741" lon="0.23038">
        <ele>10.6</ele>
        <time>2022-05-31T10:08:32Z</time>
      </trkpt>
      <trkpt lat="49.41741" lon="0.23038">
        <ele>10.6</ele>
        <time>2022-05-31T10:08:33Z</time>
      </trkpt>
      <trkpt lat="49.41741" lon="0.23038">
        <ele>10.6</ele>
        <time>2022-05-31T10:08:34Z</time>
      </trkpt>
      <trkpt lat="49.41741" lon="0.23038">
        <ele>10.6</ele>
        <time>2022-05-31T10:08:35Z</time>
      </trkpt>
      <trkpt lat="49.41741" lon="0.23038">
        <ele>10.6</ele>
        <time>2022-05-31T10:08:36Z</time>
      </trkpt>
      <trkpt lat="49.41741" lon="0.23038">
        <ele>10.6</ele>
        <time>2022-05-31T10:08:37Z</time>
      </trkpt>
      <trkpt lat="49.41741" lon="0.23038">
        <ele>10.6</ele>
        <time>2022-05-31T10:08:38Z</time>
      </trkpt>
      <trkpt lat="49.41741" lon="0.23038">
        <ele>10.6</ele>
        <time>2022-05-31T10:08:39Z</time>
      </trkpt>
      <trkpt lat="49.41741" lon="0.23038">
        <ele>10.6</ele>
        <time>2022-05-31T10:08:40Z</time>
      </trkpt>
      <trkpt lat="49.41741" lon="0.23038">
        <ele>10.6</ele>
        <time>2022-05-31T10:08:41Z</time>
      </trkpt>
      <trkpt lat="49.41741" lon="0.23038">
        <ele>10.6</ele>
        <time>2022-05-31T10:08:42Z</time>
      </trkpt>
      <trkpt lat="49.41741" lon="0.23038">
        <ele>10.6</ele>
        <time>2022-05-31T10:08:43Z</time>
      </trkpt>
      <trkpt lat="49.41741" lon="0.23038">
        <ele>10.6</ele>
        <time>2022-05-31T10:08:44Z</time>
      </trkpt>
      <trkpt lat="49.41741" lon="0.23038">
        <ele>10.6</ele>
        <time>2022-05-31T10:08:45Z</time>
      </trkpt>
      <trkpt lat="49.41741" lon="0.23038">
        <ele>10.6</ele>
        <time>2022-05-31T10:08:46Z</time>
      </trkpt>
      <trkpt lat="49.41741" lon="0.23038">
        <ele>10.6</ele>
        <time>2022-05-31T10:08:47Z</time>
      </trkpt>
      <trkpt lat="49.41741" lon="0.23038">
        <ele>10.6</ele>
        <time>2022-05-31T10:08:48Z</time>
      </trkpt>
      <trkpt lat="49.41741" lon="0.23038">
        <ele>10.6</ele>
        <time>2022-05-31T10:08:49Z</time>
      </trkpt>
      <trkpt lat="49.41741" lon="0.23038">
        <ele>10.6</ele>
        <time>2022-05-31T10:08:50Z</time>
      </trkpt>
      <trkpt lat="49.41741" lon="0.23038">
        <ele>10.6</ele>
        <time>2022-05-31T10:08:51Z</time>
      </trkpt>
      <trkpt lat="49.41741" lon="0.23038">
        <ele>10.6</ele>
        <time>2022-05-31T10:08:52Z</time>
      </trkpt>
      <trkpt lat="49.41741" lon="0.23038">
        <ele>10.6</ele>
        <time>2022-05-31T10:08:53Z</time>
      </trkpt>
      <trkpt lat="49.41741" lon="0.23038">
        <ele>10.6</ele>
        <time>2022-05-31T10:08:54Z</time>
      </trkpt>
      <trkpt lat="49.41741" lon="0.23038">
        <ele>10.6</ele>
        <time>2022-05-31T10:08:55Z</time>
      </trkpt>
      <trkpt lat="49.41741" lon="0.23038">
        <ele>10.6</ele>
        <time>2022-05-31T10:08:56Z</time>
      </trkpt>
      <trkpt lat="49.41741" lon="0.23038">
        <ele>10.6</ele>
        <time>2022-05-31T10:08:57Z</time>
      </trkpt>
      <trkpt lat="49.41741" lon="0.23038">
        <ele>10.6</ele>
        <time>2022-05-31T10:08:58Z</time>
      </trkpt>
      <trkpt lat="49.41741" lon="0.23038">
        <ele>10.6</ele>
        <time>2022-05-31T10:08:59Z</time>
      </trkpt>
      <trkpt lat="49.41741" lon="0.23038">
        <ele>10.6</ele>
        <time>2022-05-31T10:09:00Z</time>
      </trkpt>
      <trkpt lat="49.41741" lon="0.23038">
        <ele>10.6</ele>
        <time>2022-05-31T10:09:01Z</time>
      </trkpt>
      <trkpt lat="49.41741" lon="0.23038">
        <ele>10.6</ele>
        <time>2022-05-31T10:09:02Z</time>
      </trkpt>
      <trkpt lat="49.41741" lon="0.23038">
        <ele>10.6</ele>
        <time>2022-05-31T10:09:03Z</time>
      </trkpt>
      <trkpt lat="49.4174" lon="0.23038">
        <ele>10.6</ele>
        <time>2022-05-31T10:09:04Z</time>
      </trkpt>
      <trkpt lat="49.4174" lon="0.23038">
        <ele>10.6</ele>
        <time>2022-05-31T10:09:05Z</time>
      </trkpt>
      <trkpt lat="49.4174" lon="0.23041">
        <ele>10.6</ele>
        <time>2022-05-31T10:09:06Z</time>
      </trkpt>
      <trkpt lat="49.4174" lon="0.23041">
        <ele>10.6</ele>
        <time>2022-05-31T10:09:07Z</time>
      </trkpt>
      <trkpt lat="49.4174" lon="0.23041">
        <ele>10.6</ele>
        <time>2022-05-31T10:09:08Z</time>
      </trkpt>
      <trkpt lat="49.4174" lon="0.23041">
        <ele>10.6</ele>
        <time>2022-05-31T10:09:09Z</time>
      </trkpt>
      <trkpt lat="49.4174" lon="0.23041">
        <ele>10.6</ele>
        <time>2022-05-31T10:09:10Z</time>
      </trkpt>
      <trkpt lat="49.4174" lon="0.23041">
        <ele>10.6</ele>
        <time>2022-05-31T10:09:11Z</time>
      </trkpt>
      <trkpt lat="49.4174" lon="0.23041">
        <ele>10.6</ele>
        <time>2022-05-31T10:09:12Z</time>
      </trkpt>
      <trkpt lat="49.4174" lon="0.23041">
        <ele>10.6</ele>
        <time>2022-05-31T10:09:13Z</time>
      </trkpt>
      <trkpt lat="49.4174" lon="0.23041">
        <ele>10.6</ele>
        <time>2022-05-31T10:09:14Z</time>
      </trkpt>
      <trkpt lat="49.4174" lon="0.23041">
        <ele>10.6</ele>
        <time>2022-05-31T10:09:15Z</time>
      </trkpt>
      <trkpt lat="49.4174" lon="0.23041">
        <ele>10.6</ele>
        <time>2022-05-31T10:09:16Z</time>
      </trkpt>
      <trkpt lat="49.4174" lon="0.23041">
        <ele>10.6</ele>
        <time>2022-05-31T10:09:17Z</time>
      </trkpt>
      <trkpt lat="49.4174" lon="0.23041">
        <ele>10.6</ele>
        <time>2022-05-31T10:09:18Z</time>
      </trkpt>
      <trkpt lat="49.4174" lon="0.23041">
        <ele>10.6</ele>
        <time>2022-05-31T10:09:19Z</time>
      </trkpt>
      <trkpt lat="49.4174" lon="0.23041">
        <ele>10.6</ele>
        <time>2022-05-31T10:09:20Z</time>
      </trkpt>
      <trkpt lat="49.4174" lon="0.23041">
        <ele>10.6</ele>
        <time>2022-05-31T10:09:21Z</time>
      </trkpt>
      <trkpt lat="49.4174" lon="0.23041">
        <ele>10.6</ele>
        <time>2022-05-31T10:09:22Z</time>
      </trkpt>
      <trkpt lat="49.4174" lon="0.23041">
        <ele>10.6</ele>
        <time>2022-05-31T10:09:23Z</time>
      </trkpt>
      <trkpt lat="49.4174" lon="0.23041">
        <ele>10.6</ele>
        <time>2022-05-31T10:09:24Z</time>
      </trkpt>
      <trkpt lat="49.4174" lon="0.23041">
        <ele>10.6</ele>
        <time>2022-05-31T10:09:25Z</time>
      </trkpt>
      <trkpt lat="49.4174" lon="0.23041">
        <ele>10.6</ele>
        <time>2022-05-31T10:09:26Z</time>
      </trkpt>
      <trkpt lat="49.4174" lon="0.23041">
        <ele>10.6</ele>
        <time>2022-05-31T10:09:27Z</time>
      </trkpt>
      <trkpt lat="49.4174" lon="0.23041">
        <ele>10.6</ele>
        <time>2022-05-31T10:09:28Z</time>
      </trkpt>
      <trkpt lat="49.4174" lon="0.23041">
        <ele>10.6</ele>
        <time>2022-05-31T10:09:29Z</time>
      </trkpt>
      <trkpt lat="49.4174" lon="0.23041">
        <ele>10.6</ele>
        <time>2022-05-31T10:09:30Z</time>
      </trkpt>
      <trkpt lat="49.4174" lon="0.23041">
        <ele>10.6</ele>
        <time>2022-05-31T10:09:31Z</time>
      </trkpt>
      <trkpt lat="49.4174" lon="0.23041">
        <ele>10.6</ele>
        <time>2022-05-31T10:09:32Z</time>
      </trkpt>
      <trkpt lat="49.4174" lon="0.23043">
        <ele>10.6</ele>
        <time>2022-05-31T10:09:33Z</time>
      </trkpt>
      <trkpt lat="49.4174" lon="0.23045">
        <ele>10.6</ele>
        <time>2022-05-31T10:09:34Z</time>
      </trkpt>
      <trkpt lat="49.4174" lon="0.23046">
        <ele>10.6</ele>
        <time>2022-05-31T10:09:35Z</time>
      </trkpt>
      <trkpt lat="49.41741" lon="0.23048">
        <ele>10.6</ele>
        <time>2022-05-31T10:09:36Z</time>
      </trkpt>
      <trkpt lat="49.41741" lon="0.2305">
        <ele>10.6</ele>
        <time>2022-05-31T10:09:37Z</time>
      </trkpt>
      <trkpt lat="49.41741" lon="0.23051">
        <ele>10.6</ele>
        <time>2022-05-31T10:09:38Z</time>
      </trkpt>
      <trkpt lat="49.41741" lon="0.23053">
        <ele>10.6</ele>
        <time>2022-05-31T10:09:39Z</time>
      </trkpt>
      <trkpt lat="49.41741" lon="0.2305">
        <ele>10.5</ele>
        <time>2022-05-31T10:09:40Z</time>
      </trkpt>
      <trkpt lat="49.41741" lon="0.23045">
        <ele>10.5</ele>
        <time>2022-05-31T10:09:41Z</time>
      </trkpt>
      <trkpt lat="49.41741" lon="0.23048">
        <ele>10.5</ele>
        <time>2022-05-31T10:09:42Z</time>
      </trkpt>
      <trkpt lat="49.41741" lon="0.23051">
        <ele>10.5</ele>
        <time>2022-05-31T10:09:43Z</time>
      </trkpt>
      <trkpt lat="49.41741" lon="0.23054">
        <ele>10.5</ele>
        <time>2022-05-31T10:09:44Z</time>
      </trkpt>
      <trkpt lat="49.41741" lon="0.23057">
        <ele>10.5</ele>
        <time>2022-05-31T10:09:45Z</time>
      </trkpt>
      <trkpt lat="49.41741" lon="0.2306">
        <ele>10.5</ele>
        <time>2022-05-31T10:09:46Z</time>
      </trkpt>
      <trkpt lat="49.4174" lon="0.23063">
        <ele>10.5</ele>
        <time>2022-05-31T10:09:47Z</time>
      </trkpt>
      <trkpt lat="49.4174" lon="0.2306">
        <ele>10.5</ele>
        <time>2022-05-31T10:09:48Z</time>
      </trkpt>
      <trkpt lat="49.41741" lon="0.23058">
        <ele>10.5</ele>
        <time>2022-05-31T10:09:49Z</time>
      </trkpt>
      <trkpt lat="49.41741" lon="0.23055">
        <ele>10.5</ele>
        <time>2022-05-31T10:09:50Z</time>
      </trkpt>
      <trkpt lat="49.41741" lon="0.23055">
        <ele>10.5</ele>
        <time>2022-05-31T10:09:51Z</time>
      </trkpt>
      <trkpt lat="49.41741" lon="0.23056">
        <ele>10.5</ele>
        <time>2022-05-31T10:09:52Z</time>
      </trkpt>
      <trkpt lat="49.41741" lon="0.23057">
        <ele>10.5</ele>
        <time>2022-05-31T10:09:53Z</time>
      </trkpt>
      <trkpt lat="49.4174" lon="0.23058">
        <ele>10.5</ele>
        <time>2022-05-31T10:09:54Z</time>
      </trkpt>
      <trkpt lat="49.4174" lon="0.23059">
        <ele>10.5</ele>
        <time>2022-05-31T10:09:55Z</time>
      </trkpt>
      <trkpt lat="49.4174" lon="0.2306">
        <ele>10.5</ele>
        <time>2022-05-31T10:09:56Z</time>
      </trkpt>
      <trkpt lat="49.4174" lon="0.23061">
        <ele>10.5</ele>
        <time>2022-05-31T10:09:57Z</time>
      </trkpt>
      <trkpt lat="49.4174" lon="0.23062">
        <ele>10.5</ele>
        <time>2022-05-31T10:09:58Z</time>
      </trkpt>
      <trkpt lat="49.4174" lon="0.23063">
        <ele>10.4</ele>
        <time>2022-05-31T10:09:59Z</time>
      </trkpt>
      <trkpt lat="49.41741" lon="0.23066">
        <ele>10.4</ele>
        <time>2022-05-31T10:10:00Z</time>
      </trkpt>
      <trkpt lat="49.41741" lon="0.23067">
        <ele>10.4</ele>
        <time>2022-05-31T10:10:01Z</time>
      </trkpt>
      <trkpt lat="49.41742" lon="0.23069">
        <ele>10.4</ele>
        <time>2022-05-31T10:10:02Z</time>
      </trkpt>
      <trkpt lat="49.41742" lon="0.2307">
        <ele>10.4</ele>
        <time>2022-05-31T10:10:03Z</time>
      </trkpt>
      <trkpt lat="49.41743" lon="0.23072">
        <ele>10.4</ele>
        <time>2022-05-31T10:10:04Z</time>
      </trkpt>
      <trkpt lat="49.41743" lon="0.23073">
        <ele>10.4</ele>
        <time>2022-05-31T10:10:05Z</time>
      </trkpt>
      <trkpt lat="49.41744" lon="0.23074">
        <ele>10.5</ele>
        <time>2022-05-31T10:10:06Z</time>
      </trkpt>
      <trkpt lat="49.41744" lon="0.23076">
        <ele>10.5</ele>
        <time>2022-05-31T10:10:07Z</time>
      </trkpt>
      <trkpt lat="49.41745" lon="0.23077">
        <ele>10.5</ele>
        <time>2022-05-31T10:10:08Z</time>
      </trkpt>
      <trkpt lat="49.41745" lon="0.23079">
        <ele>10.5</ele>
        <time>2022-05-31T10:10:09Z</time>
      </trkpt>
      <trkpt lat="49.41746" lon="0.2308">
        <ele>10.5</ele>
        <time>2022-05-31T10:10:10Z</time>
      </trkpt>
      <trkpt lat="49.41746" lon="0.23082">
        <ele>10.5</ele>
        <time>2022-05-31T10:10:11Z</time>
      </trkpt>
      <trkpt lat="49.41747" lon="0.23084">
        <ele>10.5</ele>
        <time>2022-05-31T10:10:12Z</time>
      </trkpt>
      <trkpt lat="49.41748" lon="0.23086">
        <ele>10.5</ele>
        <time>2022-05-31T10:10:13Z</time>
      </trkpt>
      <trkpt lat="49.41749" lon="0.23088">
        <ele>10.5</ele>
        <time>2022-05-31T10:10:14Z</time>
      </trkpt>
      <trkpt lat="49.41749" lon="0.23087">
        <ele>10.5</ele>
        <time>2022-05-31T10:10:15Z</time>
      </trkpt>
      <trkpt lat="49.4175" lon="0.23086">
        <ele>10.5</ele>
        <time>2022-05-31T10:10:16Z</time>
      </trkpt>
      <trkpt lat="49.4175" lon="0.23084">
        <ele>10.5</ele>
        <time>2022-05-31T10:10:17Z</time>
      </trkpt>
      <trkpt lat="49.4175" lon="0.23083">
        <ele>10.5</ele>
        <time>2022-05-31T10:10:18Z</time>
      </trkpt>
      <trkpt lat="49.4175" lon="0.23082">
        <ele>10.5</ele>
        <time>2022-05-31T10:10:19Z</time>
      </trkpt>
      <trkpt lat="49.4175" lon="0.2308">
        <ele>10.5</ele>
        <time>2022-05-31T10:10:20Z</time>
      </trkpt>
      <trkpt lat="49.4175" lon="0.23079">
        <ele>10.5</ele>
        <time>2022-05-31T10:10:21Z</time>
      </trkpt>
      <trkpt lat="49.41751" lon="0.23072">
        <ele>10.5</ele>
        <time>2022-05-31T10:10:22Z</time>
      </trkpt>
      <trkpt lat="49.4175" lon="0.23086">
        <ele>10.5</ele>
        <time>2022-05-31T10:10:23Z</time>
      </trkpt>
      <trkpt lat="49.4175" lon="0.23085">
        <ele>10.5</ele>
        <time>2022-05-31T10:10:24Z</time>
      </trkpt>
      <trkpt lat="49.4175" lon="0.23082">
        <ele>10.5</ele>
        <time>2022-05-31T10:10:25Z</time>
      </trkpt>
      <trkpt lat="49.4175" lon="0.23078">
        <ele>10.4</ele>
        <time>2022-05-31T10:10:26Z</time>
      </trkpt>
      <trkpt lat="49.41751" lon="0.23072">
        <ele>10.4</ele>
        <time>2022-05-31T10:10:27Z</time>
      </trkpt>
      <trkpt lat="49.4175" lon="0.23068">
        <ele>10.4</ele>
        <time>2022-05-31T10:10:28Z</time>
      </trkpt>
      <trkpt lat="49.41749" lon="0.23062">
        <ele>10.4</ele>
        <time>2022-05-31T10:10:29Z</time>
      </trkpt>
      <trkpt lat="49.41749" lon="0.23057">
        <ele>10.4</ele>
        <time>2022-05-31T10:10:30Z</time>
      </trkpt>
      <trkpt lat="49.41748" lon="0.23053">
        <ele>10.4</ele>
        <time>2022-05-31T10:10:31Z</time>
      </trkpt>
      <trkpt lat="49.41748" lon="0.23048">
        <ele>10.4</ele>
        <time>2022-05-31T10:10:32Z</time>
      </trkpt>
      <trkpt lat="49.41747" lon="0.23046">
        <ele>10.4</ele>
        <time>2022-05-31T10:10:33Z</time>
      </trkpt>
      <trkpt lat="49.41747" lon="0.23044">
        <ele>10.4</ele>
        <time>2022-05-31T10:10:34Z</time>
      </trkpt>
      <trkpt lat="49.41747" lon="0.23041">
        <ele>10.7</ele>
        <time>2022-05-31T10:10:35Z</time>
      </trkpt>
      <trkpt lat="49.41747" lon="0.2304">
        <ele>10.7</ele>
        <time>2022-05-31T10:10:36Z</time>
      </trkpt>
      <trkpt lat="49.41746" lon="0.23038">
        <ele>10.7</ele>
        <time>2022-05-31T10:10:37Z</time>
      </trkpt>
      <trkpt lat="49.41746" lon="0.23037">
        <ele>10.7</ele>
        <time>2022-05-31T10:10:38Z</time>
      </trkpt>
      <trkpt lat="49.41757" lon="0.23062">
        <ele>10.8</ele>
        <time>2022-05-31T10:10:39Z</time>
      </trkpt>
      <trkpt lat="49.41757" lon="0.23062">
        <ele>10.8</ele>
        <time>2022-05-31T10:10:40Z</time>
      </trkpt>
      <trkpt lat="49.41757" lon="0.23056">
        <ele>10.8</ele>
        <time>2022-05-31T10:10:41Z</time>
      </trkpt>
      <trkpt lat="49.41756" lon="0.2305">
        <ele>10.8</ele>
        <time>2022-05-31T10:10:42Z</time>
      </trkpt>
      <trkpt lat="49.41756" lon="0.23045">
        <ele>10.8</ele>
        <time>2022-05-31T10:10:43Z</time>
      </trkpt>
      <trkpt lat="49.41755" lon="0.23039">
        <ele>10.8</ele>
        <time>2022-05-31T10:10:44Z</time>
      </trkpt>
      <trkpt lat="49.41755" lon="0.23033">
        <ele>10.8</ele>
        <time>2022-05-31T10:10:45Z</time>
      </trkpt>
      <trkpt lat="49.41755" lon="0.23037">
        <ele>10.8</ele>
        <time>2022-05-31T10:10:46Z</time>
      </trkpt>
      <trkpt lat="49.41755" lon="0.2304">
        <ele>10.8</ele>
        <time>2022-05-31T10:10:47Z</time>
      </trkpt>
      <trkpt lat="49.41755" lon="0.23044">
        <ele>10.8</ele>
        <time>2022-05-31T10:10:48Z</time>
      </trkpt>
      <trkpt lat="49.41756" lon="0.23048">
        <ele>10.8</ele>
        <time>2022-05-31T10:10:49Z</time>
      </trkpt>
      <trkpt lat="49.41754" lon="0.23045">
        <ele>10.8</ele>
        <time>2022-05-31T10:10:50Z</time>
      </trkpt>
      <trkpt lat="49.41753" lon="0.23043">
        <ele>10.8</ele>
        <time>2022-05-31T10:10:51Z</time>
      </trkpt>
      <trkpt lat="49.41752" lon="0.23041">
        <ele>10.8</ele>
        <time>2022-05-31T10:10:52Z</time>
      </trkpt>
      <trkpt lat="49.41751" lon="0.23039">
        <ele>10.8</ele>
        <time>2022-05-31T10:10:53Z</time>
      </trkpt>
      <trkpt lat="49.4175" lon="0.23037">
        <ele>10.8</ele>
        <time>2022-05-31T10:10:54Z</time>
      </trkpt>
      <trkpt lat="49.41749" lon="0.23034">
        <ele>10.8</ele>
        <time>2022-05-31T10:10:55Z</time>
      </trkpt>
      <trkpt lat="49.41749" lon="0.23035">
        <ele>10.8</ele>
        <time>2022-05-31T10:10:56Z</time>
      </trkpt>
      <trkpt lat="49.41749" lon="0.23035">
        <ele>10.8</ele>
        <time>2022-05-31T10:10:57Z</time>
      </trkpt>
      <trkpt lat="49.41749" lon="0.23035">
        <ele>10.8</ele>
        <time>2022-05-31T10:10:58Z</time>
      </trkpt>
      <trkpt lat="49.41749" lon="0.2304">
        <ele>10.8</ele>
        <time>2022-05-31T10:10:59Z</time>
      </trkpt>
      <trkpt lat="49.41749" lon="0.23045">
        <ele>10.8</ele>
        <time>2022-05-31T10:11:00Z</time>
      </trkpt>
      <trkpt lat="49.41749" lon="0.23049">
        <ele>10.8</ele>
        <time>2022-05-31T10:11:01Z</time>
      </trkpt>
      <trkpt lat="49.41749" lon="0.23053">
        <ele>10.8</ele>
        <time>2022-05-31T10:11:02Z</time>
      </trkpt>
      <trkpt lat="49.41749" lon="0.23059">
        <ele>10.9</ele>
        <time>2022-05-31T10:11:03Z</time>
      </trkpt>
      <trkpt lat="49.41749" lon="0.2306">
        <ele>10.9</ele>
        <time>2022-05-31T10:11:04Z</time>
      </trkpt>
      <trkpt lat="49.41749" lon="0.23063">
        <ele>10.9</ele>
        <time>2022-05-31T10:11:05Z</time>
      </trkpt>
      <trkpt lat="49.41749" lon="0.23065">
        <ele>10.7</ele>
        <time>2022-05-31T10:11:06Z</time>
      </trkpt>
      <trkpt lat="49.41749" lon="0.23069">
        <ele>10.6</ele>
        <time>2022-05-31T10:11:07Z</time>
      </trkpt>
      <trkpt lat="49.41749" lon="0.2307">
        <ele>10.6</ele>
        <time>2022-05-31T10:11:08Z</time>
      </trkpt>
      <trkpt lat="49.41749" lon="0.23071">
        <ele>10.6</ele>
        <time>2022-05-31T10:11:09Z</time>
      </trkpt>
      <trkpt lat="49.41749" lon="0.23073">
        <ele>10.6</ele>
        <time>2022-05-31T10:11:10Z</time>
      </trkpt>
      <trkpt lat="49.41749" lon="0.23075">
        <ele>10.5</ele>
        <time>2022-05-31T10:11:11Z</time>
      </trkpt>
      <trkpt lat="49.41749" lon="0.23076">
        <ele>10.5</ele>
        <time>2022-05-31T10:11:12Z</time>
      </trkpt>
      <trkpt lat="49.41749" lon="0.23077">
        <ele>10.5</ele>
        <time>2022-05-31T10:11:13Z</time>
      </trkpt>
      <trkpt lat="49.41749" lon="0.23078">
        <ele>10.5</ele>
        <time>2022-05-31T10:11:14Z</time>
      </trkpt>
      <trkpt lat="49.41749" lon="0.23079">
        <ele>10.5</ele>
        <time>2022-05-31T10:11:15Z</time>
      </trkpt>
      <trkpt lat="49.41749" lon="0.2308">
        <ele>10.5</ele>
        <time>2022-05-31T10:11:16Z</time>
      </trkpt>
      <trkpt lat="49.41749" lon="0.23081">
        <ele>10.5</ele>
        <time>2022-05-31T10:11:17Z</time>
      </trkpt>
      <trkpt lat="49.41749" lon="0.23081">
        <ele>10.5</ele>
        <time>2022-05-31T10:11:18Z</time>
      </trkpt>
      <trkpt lat="49.41749" lon="0.23082">
        <ele>10.5</ele>
        <time>2022-05-31T10:11:19Z</time>
      </trkpt>
      <trkpt lat="49.41749" lon="0.23082">
        <ele>10.5</ele>
        <time>2022-05-31T10:11:20Z</time>
      </trkpt>
      <trkpt lat="49.41749" lon="0.23083">
        <ele>10.5</ele>
        <time>2022-05-31T10:11:21Z</time>
      </trkpt>
      <trkpt lat="49.41749" lon="0.23083">
        <ele>10.5</ele>
        <time>2022-05-31T10:11:22Z</time>
      </trkpt>
      <trkpt lat="49.41749" lon="0.23084">
        <ele>10.4</ele>
        <time>2022-05-31T10:11:23Z</time>
      </trkpt>
      <trkpt lat="49.41749" lon="0.23084">
        <ele>10.4</ele>
        <time>2022-05-31T10:11:24Z</time>
      </trkpt>
      <trkpt lat="49.41749" lon="0.23085">
        <ele>10.4</ele>
        <time>2022-05-31T10:11:25Z</time>
      </trkpt>
      <trkpt lat="49.41749" lon="0.23085">
        <ele>10.4</ele>
        <time>2022-05-31T10:11:26Z</time>
      </trkpt>
      <trkpt lat="49.41749" lon="0.23086">
        <ele>10.4</ele>
        <time>2022-05-31T10:11:27Z</time>
      </trkpt>
      <trkpt lat="49.41749" lon="0.23086">
        <ele>10.4</ele>
        <time>2022-05-31T10:11:28Z</time>
      </trkpt>
      <trkpt lat="49.41749" lon="0.23086">
        <ele>10.4</ele>
        <time>2022-05-31T10:11:29Z</time>
      </trkpt>
      <trkpt lat="49.41751" lon="0.23084">
        <ele>10.4</ele>
        <time>2022-05-31T10:11:30Z</time>
      </trkpt>
      <trkpt lat="49.41752" lon="0.23083">
        <ele>10.4</ele>
        <time>2022-05-31T10:11:31Z</time>
      </trkpt>
      <trkpt lat="49.41753" lon="0.23081">
        <ele>10.4</ele>
        <time>2022-05-31T10:11:32Z</time>
      </trkpt>
      <trkpt lat="49.41754" lon="0.23079">
        <ele>10.4</ele>
        <time>2022-05-31T10:11:33Z</time>
      </trkpt>
      <trkpt lat="49.41764" lon="0.23062">
        <ele>10.4</ele>
        <time>2022-05-31T10:11:34Z</time>
      </trkpt>
      <trkpt lat="49.41764" lon="0.23061">
        <ele>10.4</ele>
        <time>2022-05-31T10:11:35Z</time>
      </trkpt>
      <trkpt lat="49.41764" lon="0.23061">
        <ele>10.4</ele>
        <time>2022-05-31T10:11:36Z</time>
      </trkpt>
      <trkpt lat="49.41764" lon="0.2306">
        <ele>10.4</ele>
        <time>2022-05-31T10:11:37Z</time>
      </trkpt>
      <trkpt lat="49.41764" lon="0.23059">
        <ele>10.4</ele>
        <time>2022-05-31T10:11:38Z</time>
      </trkpt>
      <trkpt lat="49.41763" lon="0.23058">
        <ele>10.4</ele>
        <time>2022-05-31T10:11:39Z</time>
      </trkpt>
      <trkpt lat="49.41764" lon="0.23056">
        <ele>10.4</ele>
        <time>2022-05-31T10:11:40Z</time>
      </trkpt>
      <trkpt lat="49.41763" lon="0.23055">
        <ele>10.4</ele>
        <time>2022-05-31T10:11:41Z</time>
      </trkpt>
      <trkpt lat="49.41763" lon="0.23056">
        <ele>10.4</ele>
        <time>2022-05-31T10:11:42Z</time>
      </trkpt>
      <trkpt lat="49.41762" lon="0.23057">
        <ele>10.4</ele>
        <time>2022-05-31T10:11:44Z</time>
      </trkpt>
      <trkpt lat="49.41761" lon="0.23057">
        <ele>10.4</ele>
        <time>2022-05-31T10:11:45Z</time>
      </trkpt>
      <trkpt lat="49.41761" lon="0.23058">
        <ele>10.4</ele>
        <time>2022-05-31T10:11:46Z</time>
      </trkpt>
      <trkpt lat="49.4176" lon="0.23059">
        <ele>10.4</ele>
        <time>2022-05-31T10:11:47Z</time>
      </trkpt>
      <trkpt lat="49.4176" lon="0.23059">
        <ele>10.4</ele>
        <time>2022-05-31T10:11:48Z</time>
      </trkpt>
      <trkpt lat="49.4176" lon="0.2306">
        <ele>10.4</ele>
        <time>2022-05-31T10:11:50Z</time>
      </trkpt>
      <trkpt lat="49.4176" lon="0.23061">
        <ele>10.4</ele>
        <time>2022-05-31T10:11:51Z</time>
      </trkpt>
      <trkpt lat="49.41759" lon="0.23062">
        <ele>10.4</ele>
        <time>2022-05-31T10:11:52Z</time>
      </trkpt>
      <trkpt lat="49.41759" lon="0.23063">
        <ele>10.4</ele>
        <time>2022-05-31T10:11:53Z</time>
      </trkpt>
      <trkpt lat="49.41758" lon="0.23063">
        <ele>10.4</ele>
        <time>2022-05-31T10:11:54Z</time>
      </trkpt>
      <trkpt lat="49.41757" lon="0.23063">
        <ele>10.4</ele>
        <time>2022-05-31T10:11:56Z</time>
      </trkpt>
      <trkpt lat="49.41756" lon="0.23063">
        <ele>10.4</ele>
        <time>2022-05-31T10:11:57Z</time>
      </trkpt>
      <trkpt lat="49.41756" lon="0.23064">
        <ele>10.4</ele>
        <time>2022-05-31T10:11:58Z</time>
      </trkpt>
      <trkpt lat="49.41755" lon="0.23065">
        <ele>10.4</ele>
        <time>2022-05-31T10:11:59Z</time>
      </trkpt>
      <trkpt lat="49.41755" lon="0.23066">
        <ele>10.4</ele>
        <time>2022-05-31T10:12:00Z</time>
      </trkpt>
      <trkpt lat="49.41755" lon="0.23067">
        <ele>10.4</ele>
        <time>2022-05-31T10:12:01Z</time>
      </trkpt>
      <trkpt lat="49.41756" lon="0.23068">
        <ele>10.4</ele>
        <time>2022-05-31T10:12:02Z</time>
      </trkpt>
      <trkpt lat="49.41757" lon="0.23068">
        <ele>10.4</ele>
        <time>2022-05-31T10:12:04Z</time>
      </trkpt>
      <trkpt lat="49.41757" lon="0.23069">
        <ele>10.4</ele>
        <time>2022-05-31T10:12:05Z</time>
      </trkpt>
      <trkpt lat="49.41756" lon="0.23069">
        <ele>10.4</ele>
        <time>2022-05-31T10:12:06Z</time>
      </trkpt>
      <trkpt lat="49.41756" lon="0.2307">
        <ele>10.4</ele>
        <time>2022-05-31T10:12:07Z</time>
      </trkpt>
      <trkpt lat="49.41755" lon="0.2307">
        <ele>10.4</ele>
        <time>2022-05-31T10:12:08Z</time>
      </trkpt>
      <trkpt lat="49.41755" lon="0.2307">
        <ele>10.4</ele>
        <time>2022-05-31T10:12:09Z</time>
      </trkpt>
      <trkpt lat="49.41755" lon="0.23071">
        <ele>10.4</ele>
        <time>2022-05-31T10:12:11Z</time>
      </trkpt>
      <trkpt lat="49.41755" lon="0.23072">
        <ele>10.4</ele>
        <time>2022-05-31T10:12:12Z</time>
      </trkpt>
      <trkpt lat="49.41755" lon="0.23074">
        <ele>10.4</ele>
        <time>2022-05-31T10:12:13Z</time>
      </trkpt>
      <trkpt lat="49.41756" lon="0.23074">
        <ele>10.4</ele>
        <time>2022-05-31T10:12:14Z</time>
      </trkpt>
      <trkpt lat="49.41756" lon="0.23075">
        <ele>10.4</ele>
        <time>2022-05-31T10:12:15Z</time>
      </trkpt>
      <trkpt lat="49.41756" lon="0.23075">
        <ele>10.4</ele>
        <time>2022-05-31T10:12:16Z</time>
      </trkpt>
      <trkpt lat="49.41757" lon="0.23076">
        <ele>10.4</ele>
        <time>2022-05-31T10:12:17Z</time>
      </trkpt>
      <trkpt lat="49.41757" lon="0.23076">
        <ele>10.4</ele>
        <time>2022-05-31T10:12:18Z</time>
      </trkpt>
      <trkpt lat="49.41758" lon="0.23077">
        <ele>10.4</ele>
        <time>2022-05-31T10:12:19Z</time>
      </trkpt>
      <trkpt lat="49.41758" lon="0.23077">
        <ele>10.4</ele>
        <time>2022-05-31T10:12:20Z</time>
      </trkpt>
      <trkpt lat="49.41758" lon="0.23078">
        <ele>10.4</ele>
        <time>2022-05-31T10:12:21Z</time>
      </trkpt>
      <trkpt lat="49.41758" lon="0.23078">
        <ele>10.4</ele>
        <time>2022-05-31T10:12:22Z</time>
      </trkpt>
      <trkpt lat="49.41759" lon="0.23079">
        <ele>10.4</ele>
        <time>2022-05-31T10:12:23Z</time>
      </trkpt>
      <trkpt lat="49.41759" lon="0.23079">
        <ele>10.4</ele>
        <time>2022-05-31T10:12:24Z</time>
      </trkpt>
      <trkpt lat="49.41759" lon="0.23079">
        <ele>10.4</ele>
        <time>2022-05-31T10:12:25Z</time>
      </trkpt>
      <trkpt lat="49.41759" lon="0.23078">
        <ele>10.4</ele>
        <time>2022-05-31T10:12:26Z</time>
      </trkpt>
      <trkpt lat="49.41759" lon="0.23079">
        <ele>10.4</ele>
        <time>2022-05-31T10:12:27Z</time>
      </trkpt>
      <trkpt lat="49.4176" lon="0.23079">
        <ele>10.5</ele>
        <time>2022-05-31T10:12:28Z</time>
      </trkpt>
      <trkpt lat="49.4176" lon="0.23079">
        <ele>10.5</ele>
        <time>2022-05-31T10:12:29Z</time>
      </trkpt>
      <trkpt lat="49.4176" lon="0.23079">
        <ele>10.5</ele>
        <time>2022-05-31T10:12:30Z</time>
      </trkpt>
      <trkpt lat="49.4176" lon="0.23078">
        <ele>10.5</ele>
        <time>2022-05-31T10:12:31Z</time>
      </trkpt>
      <trkpt lat="49.41759" lon="0.23077">
        <ele>10.5</ele>
        <time>2022-05-31T10:12:32Z</time>
      </trkpt>
      <trkpt lat="49.41759" lon="0.23076">
        <ele>10.5</ele>
        <time>2022-05-31T10:12:33Z</time>
      </trkpt>
      <trkpt lat="49.41759" lon="0.23076">
        <ele>10.5</ele>
        <time>2022-05-31T10:12:34Z</time>
      </trkpt>
      <trkpt lat="49.41759" lon="0.23076">
        <ele>10.5</ele>
        <time>2022-05-31T10:12:35Z</time>
      </trkpt>
      <trkpt lat="49.41759" lon="0.23076">
        <ele>10.5</ele>
        <time>2022-05-31T10:12:36Z</time>
      </trkpt>
      <trkpt lat="49.41759" lon="0.23076">
        <ele>10.5</ele>
        <time>2022-05-31T10:12:37Z</time>
      </trkpt>
      <trkpt lat="49.41759" lon="0.23076">
        <ele>10.5</ele>
        <time>2022-05-31T10:12:38Z</time>
      </trkpt>
      <trkpt lat="49.41759" lon="0.23076">
        <ele>10.5</ele>
        <time>2022-05-31T10:12:39Z</time>
      </trkpt>
      <trkpt lat="49.41759" lon="0.23076">
        <ele>10.5</ele>
        <time>2022-05-31T10:12:40Z</time>
      </trkpt>
      <trkpt lat="49.41759" lon="0.23076">
        <ele>10.5</ele>
        <time>2022-05-31T10:12:41Z</time>
      </trkpt>
      <trkpt lat="49.4176" lon="0.23077">
        <ele>10.5</ele>
        <time>2022-05-31T10:12:42Z</time>
      </trkpt>
      <trkpt lat="49.4176" lon="0.23078">
        <ele>10.5</ele>
        <time>2022-05-31T10:12:43Z</time>
      </trkpt>
      <trkpt lat="49.41761" lon="0.23078">
        <ele>10.5</ele>
        <time>2022-05-31T10:12:44Z</time>
      </trkpt>
      <trkpt lat="49.41761" lon="0.23077">
        <ele>10.5</ele>
        <time>2022-05-31T10:12:45Z</time>
      </trkpt>
      <trkpt lat="49.41762" lon="0.23077">
        <ele>10.5</ele>
        <time>2022-05-31T10:12:46Z</time>
      </trkpt>
      <trkpt lat="49.41762" lon="0.23076">
        <ele>10.5</ele>
        <time>2022-05-31T10:12:48Z</time>
      </trkpt>
      <trkpt lat="49.41763" lon="0.23074">
        <ele>10.6</ele>
        <time>2022-05-31T10:12:49Z</time>
      </trkpt>
      <trkpt lat="49.41763" lon="0.23073">
        <ele>10.6</ele>
        <time>2022-05-31T10:12:50Z</time>
      </trkpt>
      <trkpt lat="49.41764" lon="0.2307">
        <ele>10.6</ele>
        <time>2022-05-31T10:12:51Z</time>
      </trkpt>
      <trkpt lat="49.41765" lon="0.23069">
        <ele>10.6</ele>
        <time>2022-05-31T10:12:52Z</time>
      </trkpt>
      <trkpt lat="49.41765" lon="0.23068">
        <ele>10.7</ele>
        <time>2022-05-31T10:12:53Z</time>
      </trkpt>
      <trkpt lat="49.41766" lon="0.23066">
        <ele>10.7</ele>
        <time>2022-05-31T10:12:55Z</time>
      </trkpt>
      <trkpt lat="49.41766" lon="0.23065">
        <ele>10.7</ele>
        <time>2022-05-31T10:12:56Z</time>
      </trkpt>
      <trkpt lat="49.41766" lon="0.23065">
        <ele>10.7</ele>
        <time>2022-05-31T10:12:57Z</time>
      </trkpt>
      <trkpt lat="49.41766" lon="0.23065">
        <ele>10.7</ele>
        <time>2022-05-31T10:12:58Z</time>
      </trkpt>
      <trkpt lat="49.41766" lon="0.23064">
        <ele>10.7</ele>
        <time>2022-05-31T10:12:59Z</time>
      </trkpt>
      <trkpt lat="49.41766" lon="0.23064">
        <ele>10.7</ele>
        <time>2022-05-31T10:13:00Z</time>
      </trkpt>
      <trkpt lat="49.41766" lon="0.23063">
        <ele>10.7</ele>
        <time>2022-05-31T10:13:02Z</time>
      </trkpt>
      <trkpt lat="49.41766" lon="0.23063">
        <ele>10.7</ele>
        <time>2022-05-31T10:13:03Z</time>
      </trkpt>
      <trkpt lat="49.41766" lon="0.23063">
        <ele>10.7</ele>
        <time>2022-05-31T10:13:04Z</time>
      </trkpt>
      <trkpt lat="49.41766" lon="0.23062">
        <ele>10.7</ele>
        <time>2022-05-31T10:13:05Z</time>
      </trkpt>
      <trkpt lat="49.41766" lon="0.23062">
        <ele>10.8</ele>
        <time>2022-05-31T10:13:06Z</time>
      </trkpt>
      <trkpt lat="49.41767" lon="0.23058">
        <ele>10.8</ele>
        <time>2022-05-31T10:13:07Z</time>
      </trkpt>
      <trkpt lat="49.41768" lon="0.23053">
        <ele>10.9</ele>
        <time>2022-05-31T10:13:09Z</time>
      </trkpt>
      <trkpt lat="49.41769" lon="0.23047">
        <ele>11</ele>
        <time>2022-05-31T10:13:10Z</time>
      </trkpt>
      <trkpt lat="49.41769" lon="0.23045">
        <ele>11</ele>
        <time>2022-05-31T10:13:11Z</time>
      </trkpt>
      <trkpt lat="49.4177" lon="0.23041">
        <ele>11.1</ele>
        <time>2022-05-31T10:13:12Z</time>
      </trkpt>
      <trkpt lat="49.4177" lon="0.23039">
        <ele>11.2</ele>
        <time>2022-05-31T10:13:13Z</time>
      </trkpt>
      <trkpt lat="49.4177" lon="0.23035">
        <ele>11.3</ele>
        <time>2022-05-31T10:13:14Z</time>
      </trkpt>
      <trkpt lat="49.4177" lon="0.23033">
        <ele>11.3</ele>
        <time>2022-05-31T10:13:15Z</time>
      </trkpt>
      <trkpt lat="49.41771" lon="0.23032">
        <ele>11.3</ele>
        <time>2022-05-31T10:13:16Z</time>
      </trkpt>
      <trkpt lat="49.4177" lon="0.2303">
        <ele>11.4</ele>
        <time>2022-05-31T10:13:18Z</time>
      </trkpt>
      <trkpt lat="49.4177" lon="0.2303">
        <ele>11.4</ele>
        <time>2022-05-31T10:13:19Z</time>
      </trkpt>
      <trkpt lat="49.41771" lon="0.23029">
        <ele>11.4</ele>
        <time>2022-05-31T10:13:21Z</time>
      </trkpt>
      <trkpt lat="49.41771" lon="0.23028">
        <ele>11.4</ele>
        <time>2022-05-31T10:13:22Z</time>
      </trkpt>
      <trkpt lat="49.41771" lon="0.23027">
        <ele>11.4</ele>
        <time>2022-05-31T10:13:23Z</time>
      </trkpt>
      <trkpt lat="49.41771" lon="0.23026">
        <ele>11.4</ele>
        <time>2022-05-31T10:13:24Z</time>
      </trkpt>
      <trkpt lat="49.41771" lon="0.23025">
        <ele>11.5</ele>
        <time>2022-05-31T10:13:26Z</time>
      </trkpt>
      <trkpt lat="49.41772" lon="0.23024">
        <ele>11.5</ele>
        <time>2022-05-31T10:13:27Z</time>
      </trkpt>
      <trkpt lat="49.41772" lon="0.23023">
        <ele>11.5</ele>
        <time>2022-05-31T10:13:28Z</time>
      </trkpt>
      <trkpt lat="49.41772" lon="0.23021">
        <ele>11.6</ele>
        <time>2022-05-31T10:13:29Z</time>
      </trkpt>
      <trkpt lat="49.41772" lon="0.2302">
        <ele>11.6</ele>
        <time>2022-05-31T10:13:30Z</time>
      </trkpt>
      <trkpt lat="49.41772" lon="0.23018">
        <ele>11.6</ele>
        <time>2022-05-31T10:13:31Z</time>
      </trkpt>
      <trkpt lat="49.41772" lon="0.23015">
        <ele>11.7</ele>
        <time>2022-05-31T10:13:32Z</time>
      </trkpt>
      <trkpt lat="49.41772" lon="0.23013">
        <ele>11.7</ele>
        <time>2022-05-31T10:13:34Z</time>
      </trkpt>
      <trkpt lat="49.41772" lon="0.23012">
        <ele>11.8</ele>
        <time>2022-05-31T10:13:35Z</time>
      </trkpt>
      <trkpt lat="49.41773" lon="0.2301">
        <ele>11.8</ele>
        <time>2022-05-31T10:13:36Z</time>
      </trkpt>
      <trkpt lat="49.41774" lon="0.23005">
        <ele>12</ele>
        <time>2022-05-31T10:13:37Z</time>
      </trkpt>
      <trkpt lat="49.41774" lon="0.23004">
        <ele>12</ele>
        <time>2022-05-31T10:13:38Z</time>
      </trkpt>
      <trkpt lat="49.41775" lon="0.23001">
        <ele>12.1</ele>
        <time>2022-05-31T10:13:39Z</time>
      </trkpt>
      <trkpt lat="49.41775" lon="0.23">
        <ele>12.1</ele>
        <time>2022-05-31T10:13:40Z</time>
      </trkpt>
      <trkpt lat="49.41776" lon="0.22999">
        <ele>12.2</ele>
        <time>2022-05-31T10:13:41Z</time>
      </trkpt>
      <trkpt lat="49.41777" lon="0.22998">
        <ele>12.2</ele>
        <time>2022-05-31T10:13:42Z</time>
      </trkpt>
      <trkpt lat="49.41778" lon="0.22994">
        <ele>12.3</ele>
        <time>2022-05-31T10:13:44Z</time>
      </trkpt>
      <trkpt lat="49.41778" lon="0.22988">
        <ele>12.5</ele>
        <time>2022-05-31T10:13:45Z</time>
      </trkpt>
      <trkpt lat="49.41779" lon="0.22987">
        <ele>12.5</ele>
        <time>2022-05-31T10:13:46Z</time>
      </trkpt>
      <trkpt lat="49.41779" lon="0.22986">
        <ele>12.5</ele>
        <time>2022-05-31T10:13:47Z</time>
      </trkpt>
      <trkpt lat="49.41779" lon="0.22985">
        <ele>12.6</ele>
        <time>2022-05-31T10:13:48Z</time>
      </trkpt>
      <trkpt lat="49.41779" lon="0.22984">
        <ele>12.6</ele>
        <time>2022-05-31T10:13:49Z</time>
      </trkpt>
      <trkpt lat="49.41779" lon="0.22984">
        <ele>12.6</ele>
        <time>2022-05-31T10:13:51Z</time>
      </trkpt>
      <trkpt lat="49.41779" lon="0.22983">
        <ele>12.7</ele>
        <time>2022-05-31T10:13:52Z</time>
      </trkpt>
      <trkpt lat="49.41779" lon="0.22982">
        <ele>12.7</ele>
        <time>2022-05-31T10:13:53Z</time>
      </trkpt>
      <trkpt lat="49.4178" lon="0.2298">
        <ele>12.8</ele>
        <time>2022-05-31T10:13:54Z</time>
      </trkpt>
      <trkpt lat="49.4178" lon="0.22979">
        <ele>12.8</ele>
        <time>2022-05-31T10:13:55Z</time>
      </trkpt>
      <trkpt lat="49.41782" lon="0.22979">
        <ele>12.9</ele>
        <time>2022-05-31T10:13:56Z</time>
      </trkpt>
      <trkpt lat="49.41782" lon="0.22979">
        <ele>12.9</ele>
        <time>2022-05-31T10:13:57Z</time>
      </trkpt>
      <trkpt lat="49.41783" lon="0.22977">
        <ele>13</ele>
        <time>2022-05-31T10:13:59Z</time>
      </trkpt>
      <trkpt lat="49.41783" lon="0.22974">
        <ele>13.1</ele>
        <time>2022-05-31T10:14:00Z</time>
      </trkpt>
      <trkpt lat="49.41784" lon="0.22972">
        <ele>13.2</ele>
        <time>2022-05-31T10:14:01Z</time>
      </trkpt>
      <trkpt lat="49.41784" lon="0.2297">
        <ele>13.3</ele>
        <time>2022-05-31T10:14:02Z</time>
      </trkpt>
      <trkpt lat="49.41785" lon="0.22966">
        <ele>13.4</ele>
        <time>2022-05-31T10:14:03Z</time>
      </trkpt>
      <trkpt lat="49.41786" lon="0.22965">
        <ele>13.5</ele>
        <time>2022-05-31T10:14:04Z</time>
      </trkpt>
      <trkpt lat="49.41787" lon="0.22962">
        <ele>13.6</ele>
        <time>2022-05-31T10:14:05Z</time>
      </trkpt>
      <trkpt lat="49.41787" lon="0.2296">
        <ele>13.7</ele>
        <time>2022-05-31T10:14:07Z</time>
      </trkpt>
      <trkpt lat="49.41788" lon="0.22958">
        <ele>13.8</ele>
        <time>2022-05-31T10:14:08Z</time>
      </trkpt>
      <trkpt lat="49.41788" lon="0.22957">
        <ele>13.9</ele>
        <time>2022-05-31T10:14:09Z</time>
      </trkpt>
      <trkpt lat="49.41788" lon="0.22956">
        <ele>13.9</ele>
        <time>2022-05-31T10:14:10Z</time>
      </trkpt>
      <trkpt lat="49.41788" lon="0.22955">
        <ele>13.9</ele>
        <time>2022-05-31T10:14:11Z</time>
      </trkpt>
      <trkpt lat="49.41787" lon="0.22955">
        <ele>14</ele>
        <time>2022-05-31T10:14:12Z</time>
      </trkpt>
      <trkpt lat="49.41787" lon="0.22955">
        <ele>14</ele>
        <time>2022-05-31T10:14:13Z</time>
      </trkpt>
      <trkpt lat="49.41787" lon="0.22954">
        <ele>14</ele>
        <time>2022-05-31T10:14:14Z</time>
      </trkpt>
      <trkpt lat="49.41787" lon="0.22952">
        <ele>14.1</ele>
        <time>2022-05-31T10:14:15Z</time>
      </trkpt>
      <trkpt lat="49.41787" lon="0.2295">
        <ele>14.2</ele>
        <time>2022-05-31T10:14:16Z</time>
      </trkpt>
      <trkpt lat="49.41787" lon="0.22948">
        <ele>14.3</ele>
        <time>2022-05-31T10:14:17Z</time>
      </trkpt>
      <trkpt lat="49.41787" lon="0.22947">
        <ele>14.3</ele>
        <time>2022-05-31T10:14:18Z</time>
      </trkpt>
      <trkpt lat="49.41787" lon="0.22945">
        <ele>14.4</ele>
        <time>2022-05-31T10:14:20Z</time>
      </trkpt>
      <trkpt lat="49.41787" lon="0.22942">
        <ele>14.5</ele>
        <time>2022-05-31T10:14:21Z</time>
      </trkpt>
      <trkpt lat="49.41787" lon="0.22941">
        <ele>14.6</ele>
        <time>2022-05-31T10:14:22Z</time>
      </trkpt>
      <trkpt lat="49.41788" lon="0.22939">
        <ele>14.6</ele>
        <time>2022-05-31T10:14:23Z</time>
      </trkpt>
      <trkpt lat="49.41788" lon="0.22939">
        <ele>14.6</ele>
        <time>2022-05-31T10:14:24Z</time>
      </trkpt>
      <trkpt lat="49.41788" lon="0.22938">
        <ele>14.7</ele>
        <time>2022-05-31T10:14:25Z</time>
      </trkpt>
      <trkpt lat="49.41788" lon="0.22937">
        <ele>14.7</ele>
        <time>2022-05-31T10:14:27Z</time>
      </trkpt>
      <trkpt lat="49.41788" lon="0.22935">
        <ele>14.8</ele>
        <time>2022-05-31T10:14:28Z</time>
      </trkpt>
      <trkpt lat="49.41789" lon="0.22933">
        <ele>14.8</ele>
        <time>2022-05-31T10:14:29Z</time>
      </trkpt>
      <trkpt lat="49.41789" lon="0.22933">
        <ele>14.9</ele>
        <time>2022-05-31T10:14:30Z</time>
      </trkpt>
      <trkpt lat="49.41789" lon="0.22934">
        <ele>15</ele>
        <time>2022-05-31T10:14:31Z</time>
      </trkpt>
      <trkpt lat="49.41789" lon="0.22935">
        <ele>15</ele>
        <time>2022-05-31T10:14:32Z</time>
      </trkpt>
      <trkpt lat="49.4179" lon="0.22934">
        <ele>15</ele>
        <time>2022-05-31T10:14:33Z</time>
      </trkpt>
      <trkpt lat="49.4179" lon="0.22932">
        <ele>15.1</ele>
        <time>2022-05-31T10:14:34Z</time>
      </trkpt>
      <trkpt lat="49.4179" lon="0.2293">
        <ele>15.2</ele>
        <time>2022-05-31T10:14:36Z</time>
      </trkpt>
      <trkpt lat="49.4179" lon="0.22927">
        <ele>15.2</ele>
        <time>2022-05-31T10:14:37Z</time>
      </trkpt>
      <trkpt lat="49.4179" lon="0.22925">
        <ele>15.3</ele>
        <time>2022-05-31T10:14:38Z</time>
      </trkpt>
      <trkpt lat="49.4179" lon="0.22923">
        <ele>15.4</ele>
        <time>2022-05-31T10:14:39Z</time>
      </trkpt>
      <trkpt lat="49.41791" lon="0.22921">
        <ele>15.5</ele>
        <time>2022-05-31T10:14:40Z</time>
      </trkpt>
      <trkpt lat="49.41791" lon="0.22918">
        <ele>15.6</ele>
        <time>2022-05-31T10:14:41Z</time>
      </trkpt>
      <trkpt lat="49.41792" lon="0.22915">
        <ele>15.7</ele>
        <time>2022-05-31T10:14:43Z</time>
      </trkpt>
      <trkpt lat="49.41792" lon="0.22913">
        <ele>15.8</ele>
        <time>2022-05-31T10:14:44Z</time>
      </trkpt>
      <trkpt lat="49.41793" lon="0.22913">
        <ele>15.8</ele>
        <time>2022-05-31T10:14:45Z</time>
      </trkpt>
      <trkpt lat="49.41793" lon="0.22912">
        <ele>15.9</ele>
        <time>2022-05-31T10:14:46Z</time>
      </trkpt>
      <trkpt lat="49.41793" lon="0.2291">
        <ele>16</ele>
        <time>2022-05-31T10:14:47Z</time>
      </trkpt>
      <trkpt lat="49.41794" lon="0.22908">
        <ele>16</ele>
        <time>2022-05-31T10:14:48Z</time>
      </trkpt>
      <trkpt lat="49.41794" lon="0.22906">
        <ele>16.1</ele>
        <time>2022-05-31T10:14:50Z</time>
      </trkpt>
      <trkpt lat="49.41795" lon="0.22904">
        <ele>16.2</ele>
        <time>2022-05-31T10:14:51Z</time>
      </trkpt>
      <trkpt lat="49.41795" lon="0.22902">
        <ele>16.3</ele>
        <time>2022-05-31T10:14:52Z</time>
      </trkpt>
      <trkpt lat="49.41796" lon="0.22899">
        <ele>16.4</ele>
        <time>2022-05-31T10:14:53Z</time>
      </trkpt>
      <trkpt lat="49.41796" lon="0.22897">
        <ele>16.5</ele>
        <time>2022-05-31T10:14:54Z</time>
      </trkpt>
      <trkpt lat="49.41797" lon="0.22896">
        <ele>16.5</ele>
        <time>2022-05-31T10:14:55Z</time>
      </trkpt>
      <trkpt lat="49.41797" lon="0.22895">
        <ele>16.6</ele>
        <time>2022-05-31T10:14:56Z</time>
      </trkpt>
      <trkpt lat="49.41798" lon="0.22894">
        <ele>16.7</ele>
        <time>2022-05-31T10:14:57Z</time>
      </trkpt>
      <trkpt lat="49.41798" lon="0.22895">
        <ele>16.7</ele>
        <time>2022-05-31T10:14:59Z</time>
      </trkpt>
      <trkpt lat="49.41798" lon="0.22896">
        <ele>16.7</ele>
        <time>2022-05-31T10:15:00Z</time>
      </trkpt>
      <trkpt lat="49.41798" lon="0.22896">
        <ele>16.8</ele>
        <time>2022-05-31T10:15:01Z</time>
      </trkpt>
      <trkpt lat="49.41798" lon="0.22895">
        <ele>16.8</ele>
        <time>2022-05-31T10:15:02Z</time>
      </trkpt>
      <trkpt lat="49.41798" lon="0.22893">
        <ele>16.8</ele>
        <time>2022-05-31T10:15:03Z</time>
      </trkpt>
      <trkpt lat="49.41799" lon="0.22891">
        <ele>16.9</ele>
        <time>2022-05-31T10:15:04Z</time>
      </trkpt>
      <trkpt lat="49.41798" lon="0.22889">
        <ele>17</ele>
        <time>2022-05-31T10:15:06Z</time>
      </trkpt>
      <trkpt lat="49.41799" lon="0.22887">
        <ele>17</ele>
        <time>2022-05-31T10:15:07Z</time>
      </trkpt>
      <trkpt lat="49.41799" lon="0.22885">
        <ele>17.1</ele>
        <time>2022-05-31T10:15:08Z</time>
      </trkpt>
      <trkpt lat="49.418" lon="0.22883">
        <ele>17.2</ele>
        <time>2022-05-31T10:15:09Z</time>
      </trkpt>
      <trkpt lat="49.418" lon="0.22882">
        <ele>17.2</ele>
        <time>2022-05-31T10:15:10Z</time>
      </trkpt>
      <trkpt lat="49.418" lon="0.22881">
        <ele>17.3</ele>
        <time>2022-05-31T10:15:11Z</time>
      </trkpt>
      <trkpt lat="49.41801" lon="0.2288">
        <ele>17.3</ele>
        <time>2022-05-31T10:15:12Z</time>
      </trkpt>
      <trkpt lat="49.41801" lon="0.22878">
        <ele>17.4</ele>
        <time>2022-05-31T10:15:13Z</time>
      </trkpt>
      <trkpt lat="49.41802" lon="0.22876">
        <ele>17.4</ele>
        <time>2022-05-31T10:15:15Z</time>
      </trkpt>
      <trkpt lat="49.41802" lon="0.22874">
        <ele>17.5</ele>
        <time>2022-05-31T10:15:16Z</time>
      </trkpt>
      <trkpt lat="49.41803" lon="0.22873">
        <ele>17.6</ele>
        <time>2022-05-31T10:15:17Z</time>
      </trkpt>
      <trkpt lat="49.41803" lon="0.22871">
        <ele>17.6</ele>
        <time>2022-05-31T10:15:18Z</time>
      </trkpt>
      <trkpt lat="49.41804" lon="0.22869">
        <ele>17.7</ele>
        <time>2022-05-31T10:15:19Z</time>
      </trkpt>
      <trkpt lat="49.41804" lon="0.22868">
        <ele>18.3</ele>
        <time>2022-05-31T10:15:20Z</time>
      </trkpt>
      <trkpt lat="49.41805" lon="0.22867">
        <ele>18.2</ele>
        <time>2022-05-31T10:15:21Z</time>
      </trkpt>
      <trkpt lat="49.41806" lon="0.22866">
        <ele>18.2</ele>
        <time>2022-05-31T10:15:22Z</time>
      </trkpt>
      <trkpt lat="49.41808" lon="0.22866">
        <ele>18.2</ele>
        <time>2022-05-31T10:15:23Z</time>
      </trkpt>
      <trkpt lat="49.4181" lon="0.22865">
        <ele>18.2</ele>
        <time>2022-05-31T10:15:24Z</time>
      </trkpt>
      <trkpt lat="49.4181" lon="0.22865">
        <ele>18.1</ele>
        <time>2022-05-31T10:15:25Z</time>
      </trkpt>
      <trkpt lat="49.41811" lon="0.22864">
        <ele>18.1</ele>
        <time>2022-05-31T10:15:26Z</time>
      </trkpt>
      <trkpt lat="49.41812" lon="0.22864">
        <ele>18.1</ele>
        <time>2022-05-31T10:15:28Z</time>
      </trkpt>
      <trkpt lat="49.41813" lon="0.22865">
        <ele>18.1</ele>
        <time>2022-05-31T10:15:29Z</time>
      </trkpt>
      <trkpt lat="49.41813" lon="0.22865">
        <ele>18.1</ele>
        <time>2022-05-31T10:15:30Z</time>
      </trkpt>
      <trkpt lat="49.41814" lon="0.22866">
        <ele>18</ele>
        <time>2022-05-31T10:15:31Z</time>
      </trkpt>
      <trkpt lat="49.41815" lon="0.22867">
        <ele>18</ele>
        <time>2022-05-31T10:15:32Z</time>
      </trkpt>
      <trkpt lat="49.41817" lon="0.22867">
        <ele>18</ele>
        <time>2022-05-31T10:15:33Z</time>
      </trkpt>
      <trkpt lat="49.41818" lon="0.22868">
        <ele>18</ele>
        <time>2022-05-31T10:15:34Z</time>
      </trkpt>
      <trkpt lat="49.4182" lon="0.22869">
        <ele>17.9</ele>
        <time>2022-05-31T10:15:35Z</time>
      </trkpt>
      <trkpt lat="49.41821" lon="0.22869">
        <ele>17.9</ele>
        <time>2022-05-31T10:15:37Z</time>
      </trkpt>
      <trkpt lat="49.41822" lon="0.22869">
        <ele>17.9</ele>
        <time>2022-05-31T10:15:38Z</time>
      </trkpt>
      <trkpt lat="49.41823" lon="0.2287">
        <ele>17.9</ele>
        <time>2022-05-31T10:15:39Z</time>
      </trkpt>
      <trkpt lat="49.41824" lon="0.2287">
        <ele>17.8</ele>
        <time>2022-05-31T10:15:40Z</time>
      </trkpt>
      <trkpt lat="49.41825" lon="0.22871">
        <ele>17.8</ele>
        <time>2022-05-31T10:15:41Z</time>
      </trkpt>
      <trkpt lat="49.41826" lon="0.22872">
        <ele>17.8</ele>
        <time>2022-05-31T10:15:43Z</time>
      </trkpt>
      <trkpt lat="49.41826" lon="0.22873">
        <ele>17.7</ele>
        <time>2022-05-31T10:15:44Z</time>
      </trkpt>
      <trkpt lat="49.41827" lon="0.22875">
        <ele>17.7</ele>
        <time>2022-05-31T10:15:45Z</time>
      </trkpt>
      <trkpt lat="49.41828" lon="0.22876">
        <ele>17.7</ele>
        <time>2022-05-31T10:15:46Z</time>
      </trkpt>
      <trkpt lat="49.41829" lon="0.22877">
        <ele>17.7</ele>
        <time>2022-05-31T10:15:47Z</time>
      </trkpt>
      <trkpt lat="49.4183" lon="0.22878">
        <ele>17.6</ele>
        <time>2022-05-31T10:15:48Z</time>
      </trkpt>
      <trkpt lat="49.41831" lon="0.22879">
        <ele>17.6</ele>
        <time>2022-05-31T10:15:49Z</time>
      </trkpt>
      <trkpt lat="49.41831" lon="0.22879">
        <ele>17.6</ele>
        <time>2022-05-31T10:15:50Z</time>
      </trkpt>
      <trkpt lat="49.41832" lon="0.2288">
        <ele>17.6</ele>
        <time>2022-05-31T10:15:51Z</time>
      </trkpt>
      <trkpt lat="49.41832" lon="0.2288">
        <ele>17.6</ele>
        <time>2022-05-31T10:15:52Z</time>
      </trkpt>
      <trkpt lat="49.41833" lon="0.22881">
        <ele>17.6</ele>
        <time>2022-05-31T10:15:53Z</time>
      </trkpt>
      <trkpt lat="49.41833" lon="0.22881">
        <ele>17.6</ele>
        <time>2022-05-31T10:15:55Z</time>
      </trkpt>
      <trkpt lat="49.41833" lon="0.22882">
        <ele>17.5</ele>
        <time>2022-05-31T10:15:56Z</time>
      </trkpt>
      <trkpt lat="49.41834" lon="0.22883">
        <ele>17.5</ele>
        <time>2022-05-31T10:15:57Z</time>
      </trkpt>
      <trkpt lat="49.41835" lon="0.22883">
        <ele>17.5</ele>
        <time>2022-05-31T10:15:58Z</time>
      </trkpt>
      <trkpt lat="49.41835" lon="0.22885">
        <ele>17.5</ele>
        <time>2022-05-31T10:15:59Z</time>
      </trkpt>
      <trkpt lat="49.41837" lon="0.22886">
        <ele>17.4</ele>
        <time>2022-05-31T10:16:00Z</time>
      </trkpt>
      <trkpt lat="49.41838" lon="0.22888">
        <ele>17.4</ele>
        <time>2022-05-31T10:16:01Z</time>
      </trkpt>
      <trkpt lat="49.41839" lon="0.2289">
        <ele>17.4</ele>
        <time>2022-05-31T10:16:02Z</time>
      </trkpt>
      <trkpt lat="49.4184" lon="0.22891">
        <ele>17.3</ele>
        <time>2022-05-31T10:16:03Z</time>
      </trkpt>
      <trkpt lat="49.41842" lon="0.22894">
        <ele>17.3</ele>
        <time>2022-05-31T10:16:04Z</time>
      </trkpt>
      <trkpt lat="49.41843" lon="0.22894">
        <ele>17.2</ele>
        <time>2022-05-31T10:16:06Z</time>
      </trkpt>
      <trkpt lat="49.41844" lon="0.22895">
        <ele>17.2</ele>
        <time>2022-05-31T10:16:07Z</time>
      </trkpt>
      <trkpt lat="49.41845" lon="0.22894">
        <ele>17.2</ele>
        <time>2022-05-31T10:16:08Z</time>
      </trkpt>
      <trkpt lat="49.41845" lon="0.22892">
        <ele>17.2</ele>
        <time>2022-05-31T10:16:09Z</time>
      </trkpt>
      <trkpt lat="49.41846" lon="0.22892">
        <ele>17.1</ele>
        <time>2022-05-31T10:16:11Z</time>
      </trkpt>
      <trkpt lat="49.41848" lon="0.22891">
        <ele>17.1</ele>
        <time>2022-05-31T10:16:12Z</time>
      </trkpt>
      <trkpt lat="49.41849" lon="0.22892">
        <ele>17.1</ele>
        <time>2022-05-31T10:16:13Z</time>
      </trkpt>
      <trkpt lat="49.41849" lon="0.22893">
        <ele>17.1</ele>
        <time>2022-05-31T10:16:14Z</time>
      </trkpt>
      <trkpt lat="49.4185" lon="0.22895">
        <ele>17</ele>
        <time>2022-05-31T10:16:15Z</time>
      </trkpt>
      <trkpt lat="49.41851" lon="0.22897">
        <ele>17</ele>
        <time>2022-05-31T10:16:16Z</time>
      </trkpt>
      <trkpt lat="49.41851" lon="0.22899">
        <ele>17</ele>
        <time>2022-05-31T10:16:17Z</time>
      </trkpt>
      <trkpt lat="49.41852" lon="0.229">
        <ele>16.9</ele>
        <time>2022-05-31T10:16:18Z</time>
      </trkpt>
      <trkpt lat="49.41853" lon="0.22901">
        <ele>16.9</ele>
        <time>2022-05-31T10:16:19Z</time>
      </trkpt>
      <trkpt lat="49.41853" lon="0.22902">
        <ele>16.9</ele>
        <time>2022-05-31T10:16:20Z</time>
      </trkpt>
      <trkpt lat="49.41853" lon="0.22904">
        <ele>16.9</ele>
        <time>2022-05-31T10:16:21Z</time>
      </trkpt>
      <trkpt lat="49.41853" lon="0.22904">
        <ele>16.9</ele>
        <time>2022-05-31T10:16:22Z</time>
      </trkpt>
      <trkpt lat="49.41854" lon="0.22904">
        <ele>16.9</ele>
        <time>2022-05-31T10:16:23Z</time>
      </trkpt>
      <trkpt lat="49.41854" lon="0.22904">
        <ele>16.9</ele>
        <time>2022-05-31T10:16:24Z</time>
      </trkpt>
      <trkpt lat="49.41854" lon="0.22904">
        <ele>16.9</ele>
        <time>2022-05-31T10:16:25Z</time>
      </trkpt>
      <trkpt lat="49.41853" lon="0.22904">
        <ele>16.9</ele>
        <time>2022-05-31T10:16:26Z</time>
      </trkpt>
      <trkpt lat="49.41853" lon="0.22903">
        <ele>16.9</ele>
        <time>2022-05-31T10:16:27Z</time>
      </trkpt>
      <trkpt lat="49.41853" lon="0.22903">
        <ele>16.9</ele>
        <time>2022-05-31T10:16:28Z</time>
      </trkpt>
      <trkpt lat="49.41852" lon="0.22903">
        <ele>16.8</ele>
        <time>2022-05-31T10:16:29Z</time>
      </trkpt>
      <trkpt lat="49.41852" lon="0.22903">
        <ele>16.8</ele>
        <time>2022-05-31T10:16:30Z</time>
      </trkpt>
      <trkpt lat="49.41852" lon="0.22903">
        <ele>16.8</ele>
        <time>2022-05-31T10:16:31Z</time>
      </trkpt>
      <trkpt lat="49.41852" lon="0.22903">
        <ele>16.8</ele>
        <time>2022-05-31T10:16:32Z</time>
      </trkpt>
      <trkpt lat="49.41852" lon="0.22902">
        <ele>16.8</ele>
        <time>2022-05-31T10:16:33Z</time>
      </trkpt>
      <trkpt lat="49.41852" lon="0.22902">
        <ele>16.8</ele>
        <time>2022-05-31T10:16:34Z</time>
      </trkpt>
      <trkpt lat="49.41852" lon="0.22901">
        <ele>16.8</ele>
        <time>2022-05-31T10:16:35Z</time>
      </trkpt>
      <trkpt lat="49.41852" lon="0.22901">
        <ele>16.8</ele>
        <time>2022-05-31T10:16:36Z</time>
      </trkpt>
      <trkpt lat="49.41852" lon="0.22901">
        <ele>16.8</ele>
        <time>2022-05-31T10:16:37Z</time>
      </trkpt>
      <trkpt lat="49.41851" lon="0.22899">
        <ele>16.8</ele>
        <time>2022-05-31T10:16:38Z</time>
      </trkpt>
      <trkpt lat="49.41851" lon="0.22899">
        <ele>16.8</ele>
        <time>2022-05-31T10:16:39Z</time>
      </trkpt>
      <trkpt lat="49.4185" lon="0.22899">
        <ele>16.8</ele>
        <time>2022-05-31T10:16:40Z</time>
      </trkpt>
      <trkpt lat="49.4185" lon="0.22898">
        <ele>16.8</ele>
        <time>2022-05-31T10:16:41Z</time>
      </trkpt>
      <trkpt lat="49.4185" lon="0.22898">
        <ele>16.8</ele>
        <time>2022-05-31T10:16:42Z</time>
      </trkpt>
      <trkpt lat="49.4185" lon="0.22898">
        <ele>16.8</ele>
        <time>2022-05-31T10:16:43Z</time>
      </trkpt>
      <trkpt lat="49.4185" lon="0.22898">
        <ele>16.8</ele>
        <time>2022-05-31T10:16:44Z</time>
      </trkpt>
      <trkpt lat="49.4185" lon="0.22899">
        <ele>16.8</ele>
        <time>2022-05-31T10:16:45Z</time>
      </trkpt>
      <trkpt lat="49.4185" lon="0.22899">
        <ele>16.8</ele>
        <time>2022-05-31T10:16:46Z</time>
      </trkpt>
      <trkpt lat="49.4185" lon="0.22899">
        <ele>16.8</ele>
        <time>2022-05-31T10:16:47Z</time>
      </trkpt>
      <trkpt lat="49.4185" lon="0.22899">
        <ele>16.8</ele>
        <time>2022-05-31T10:16:48Z</time>
      </trkpt>
      <trkpt lat="49.4185" lon="0.22899">
        <ele>16.8</ele>
        <time>2022-05-31T10:16:49Z</time>
      </trkpt>
      <trkpt lat="49.4185" lon="0.22899">
        <ele>16.8</ele>
        <time>2022-05-31T10:16:50Z</time>
      </trkpt>
      <trkpt lat="49.4185" lon="0.22899">
        <ele>16.8</ele>
        <time>2022-05-31T10:16:51Z</time>
      </trkpt>
      <trkpt lat="49.4185" lon="0.22899">
        <ele>16.8</ele>
        <time>2022-05-31T10:16:52Z</time>
      </trkpt>
      <trkpt lat="49.41851" lon="0.22899">
        <ele>16.8</ele>
        <time>2022-05-31T10:16:53Z</time>
      </trkpt>
      <trkpt lat="49.41851" lon="0.22899">
        <ele>16.8</ele>
        <time>2022-05-31T10:16:54Z</time>
      </trkpt>
      <trkpt lat="49.41851" lon="0.22899">
        <ele>16.8</ele>
        <time>2022-05-31T10:16:55Z</time>
      </trkpt>
      <trkpt lat="49.41851" lon="0.22899">
        <ele>16.8</ele>
        <time>2022-05-31T10:16:56Z</time>
      </trkpt>
      <trkpt lat="49.41851" lon="0.22899">
        <ele>16.8</ele>
        <time>2022-05-31T10:16:57Z</time>
      </trkpt>
      <trkpt lat="49.41851" lon="0.22899">
        <ele>16.8</ele>
        <time>2022-05-31T10:16:58Z</time>
      </trkpt>
      <trkpt lat="49.41851" lon="0.22899">
        <ele>16.8</ele>
        <time>2022-05-31T10:16:59Z</time>
      </trkpt>
      <trkpt lat="49.41851" lon="0.22899">
        <ele>16.8</ele>
        <time>2022-05-31T10:17:00Z</time>
      </trkpt>
      <trkpt lat="49.41851" lon="0.22899">
        <ele>16.8</ele>
        <time>2022-05-31T10:17:01Z</time>
      </trkpt>
      <trkpt lat="49.41851" lon="0.22899">
        <ele>16.8</ele>
        <time>2022-05-31T10:17:02Z</time>
      </trkpt>
      <trkpt lat="49.41851" lon="0.22899">
        <ele>16.8</ele>
        <time>2022-05-31T10:17:03Z</time>
      </trkpt>
      <trkpt lat="49.41851" lon="0.22899">
        <ele>16.8</ele>
        <time>2022-05-31T10:17:04Z</time>
      </trkpt>
      <trkpt lat="49.41851" lon="0.22899">
        <ele>16.7</ele>
        <time>2022-05-31T10:17:05Z</time>
      </trkpt>
      <trkpt lat="49.41851" lon="0.22899">
        <ele>16.7</ele>
        <time>2022-05-31T10:17:06Z</time>
      </trkpt>
      <trkpt lat="49.41851" lon="0.22899">
        <ele>16.7</ele>
        <time>2022-05-31T10:17:07Z</time>
      </trkpt>
      <trkpt lat="49.41851" lon="0.22899">
        <ele>16.7</ele>
        <time>2022-05-31T10:17:08Z</time>
      </trkpt>
      <trkpt lat="49.41851" lon="0.22899">
        <ele>16.7</ele>
        <time>2022-05-31T10:17:09Z</time>
      </trkpt>
      <trkpt lat="49.41851" lon="0.22899">
        <ele>16.7</ele>
        <time>2022-05-31T10:17:10Z</time>
      </trkpt>
      <trkpt lat="49.41851" lon="0.22899">
        <ele>16.7</ele>
        <time>2022-05-31T10:17:11Z</time>
      </trkpt>
      <trkpt lat="49.41851" lon="0.22899">
        <ele>16.7</ele>
        <time>2022-05-31T10:17:12Z</time>
      </trkpt>
      <trkpt lat="49.41851" lon="0.22899">
        <ele>16.7</ele>
        <time>2022-05-31T10:17:13Z</time>
      </trkpt>
      <trkpt lat="49.41851" lon="0.22899">
        <ele>16.7</ele>
        <time>2022-05-31T10:17:14Z</time>
      </trkpt>
      <trkpt lat="49.41851" lon="0.22899">
        <ele>16.7</ele>
        <time>2022-05-31T10:17:15Z</time>
      </trkpt>
      <trkpt lat="49.41851" lon="0.22899">
        <ele>16.7</ele>
        <time>2022-05-31T10:17:16Z</time>
      </trkpt>
      <trkpt lat="49.41851" lon="0.22899">
        <ele>16.7</ele>
        <time>2022-05-31T10:17:17Z</time>
      </trkpt>
      <trkpt lat="49.41851" lon="0.22899">
        <ele>16.7</ele>
        <time>2022-05-31T10:17:18Z</time>
      </trkpt>
      <trkpt lat="49.41851" lon="0.229">
        <ele>16.7</ele>
        <time>2022-05-31T10:17:19Z</time>
      </trkpt>
      <trkpt lat="49.41851" lon="0.229">
        <ele>16.7</ele>
        <time>2022-05-31T10:17:20Z</time>
      </trkpt>
      <trkpt lat="49.41851" lon="0.229">
        <ele>16.7</ele>
        <time>2022-05-31T10:17:21Z</time>
      </trkpt>
      <trkpt lat="49.41851" lon="0.229">
        <ele>16.7</ele>
        <time>2022-05-31T10:17:22Z</time>
      </trkpt>
      <trkpt lat="49.41851" lon="0.229">
        <ele>16.7</ele>
        <time>2022-05-31T10:17:23Z</time>
      </trkpt>
      <trkpt lat="49.41851" lon="0.229">
        <ele>16.7</ele>
        <time>2022-05-31T10:17:24Z</time>
      </trkpt>
      <trkpt lat="49.41851" lon="0.229">
        <ele>16.7</ele>
        <time>2022-05-31T10:17:25Z</time>
      </trkpt>
      <trkpt lat="49.41851" lon="0.229">
        <ele>16.7</ele>
        <time>2022-05-31T10:17:26Z</time>
      </trkpt>
      <trkpt lat="49.41851" lon="0.229">
        <ele>16.7</ele>
        <time>2022-05-31T10:17:27Z</time>
      </trkpt>
      <trkpt lat="49.41851" lon="0.229">
        <ele>16.7</ele>
        <time>2022-05-31T10:17:28Z</time>
      </trkpt>
      <trkpt lat="49.41851" lon="0.229">
        <ele>16.7</ele>
        <time>2022-05-31T10:17:29Z</time>
      </trkpt>
      <trkpt lat="49.41851" lon="0.229">
        <ele>16.7</ele>
        <time>2022-05-31T10:17:30Z</time>
      </trkpt>
      <trkpt lat="49.41851" lon="0.229">
        <ele>16.7</ele>
        <time>2022-05-31T10:17:31Z</time>
      </trkpt>
      <trkpt lat="49.41851" lon="0.229">
        <ele>16.7</ele>
        <time>2022-05-31T10:17:32Z</time>
      </trkpt>
      <trkpt lat="49.41851" lon="0.229">
        <ele>16.7</ele>
        <time>2022-05-31T10:17:33Z</time>
      </trkpt>
      <trkpt lat="49.41851" lon="0.229">
        <ele>16.7</ele>
        <time>2022-05-31T10:17:34Z</time>
      </trkpt>
      <trkpt lat="49.41851" lon="0.229">
        <ele>16.7</ele>
        <time>2022-05-31T10:17:35Z</time>
      </trkpt>
      <trkpt lat="49.41851" lon="0.229">
        <ele>16.7</ele>
        <time>2022-05-31T10:17:36Z</time>
      </trkpt>
      <trkpt lat="49.41851" lon="0.229">
        <ele>16.7</ele>
        <time>2022-05-31T10:17:37Z</time>
      </trkpt>
      <trkpt lat="49.41851" lon="0.229">
        <ele>16.7</ele>
        <time>2022-05-31T10:17:38Z</time>
      </trkpt>
      <trkpt lat="49.41851" lon="0.229">
        <ele>16.7</ele>
        <time>2022-05-31T10:17:39Z</time>
      </trkpt>
      <trkpt lat="49.41851" lon="0.229">
        <ele>16.7</ele>
        <time>2022-05-31T10:17:40Z</time>
      </trkpt>
      <trkpt lat="49.41851" lon="0.229">
        <ele>16.7</ele>
        <time>2022-05-31T10:17:41Z</time>
      </trkpt>
      <trkpt lat="49.41851" lon="0.229">
        <ele>16.7</ele>
        <time>2022-05-31T10:17:42Z</time>
      </trkpt>
      <trkpt lat="49.41851" lon="0.229">
        <ele>16.7</ele>
        <time>2022-05-31T10:17:43Z</time>
      </trkpt>
      <trkpt lat="49.41851" lon="0.229">
        <ele>16.7</ele>
        <time>2022-05-31T10:17:44Z</time>
      </trkpt>
      <trkpt lat="49.41851" lon="0.229">
        <ele>16.7</ele>
        <time>2022-05-31T10:17:45Z</time>
      </trkpt>
      <trkpt lat="49.41851" lon="0.229">
        <ele>16.7</ele>
        <time>2022-05-31T10:17:46Z</time>
      </trkpt>
      <trkpt lat="49.41851" lon="0.229">
        <ele>16.7</ele>
        <time>2022-05-31T10:17:47Z</time>
      </trkpt>
      <trkpt lat="49.41851" lon="0.229">
        <ele>16.7</ele>
        <time>2022-05-31T10:17:48Z</time>
      </trkpt>
      <trkpt lat="49.41851" lon="0.229">
        <ele>16.7</ele>
        <time>2022-05-31T10:17:49Z</time>
      </trkpt>
      <trkpt lat="49.41851" lon="0.229">
        <ele>16.7</ele>
        <time>2022-05-31T10:17:50Z</time>
      </trkpt>
      <trkpt lat="49.41851" lon="0.229">
        <ele>16.7</ele>
        <time>2022-05-31T10:17:51Z</time>
      </trkpt>
      <trkpt lat="49.41851" lon="0.229">
        <ele>16.7</ele>
        <time>2022-05-31T10:17:52Z</time>
      </trkpt>
      <trkpt lat="49.41851" lon="0.22901">
        <ele>16.7</ele>
        <time>2022-05-31T10:17:53Z</time>
      </trkpt>
      <trkpt lat="49.41852" lon="0.22901">
        <ele>16.7</ele>
        <time>2022-05-31T10:17:54Z</time>
      </trkpt>
      <trkpt lat="49.41852" lon="0.22901">
        <ele>16.7</ele>
        <time>2022-05-31T10:17:55Z</time>
      </trkpt>
      <trkpt lat="49.41852" lon="0.22901">
        <ele>16.7</ele>
        <time>2022-05-31T10:17:56Z</time>
      </trkpt>
      <trkpt lat="49.41852" lon="0.22901">
        <ele>16.7</ele>
        <time>2022-05-31T10:17:57Z</time>
      </trkpt>
      <trkpt lat="49.41852" lon="0.22901">
        <ele>16.7</ele>
        <time>2022-05-31T10:17:58Z</time>
      </trkpt>
      <trkpt lat="49.41852" lon="0.22901">
        <ele>16.7</ele>
        <time>2022-05-31T10:17:59Z</time>
      </trkpt>
      <trkpt lat="49.41852" lon="0.22901">
        <ele>16.7</ele>
        <time>2022-05-31T10:18:00Z</time>
      </trkpt>
      <trkpt lat="49.41852" lon="0.22901">
        <ele>16.7</ele>
        <time>2022-05-31T10:18:01Z</time>
      </trkpt>
      <trkpt lat="49.41852" lon="0.22901">
        <ele>16.7</ele>
        <time>2022-05-31T10:18:02Z</time>
      </trkpt>
      <trkpt lat="49.41852" lon="0.22901">
        <ele>16.7</ele>
        <time>2022-05-31T10:18:03Z</time>
      </trkpt>
      <trkpt lat="49.41852" lon="0.22901">
        <ele>16.7</ele>
        <time>2022-05-31T10:18:04Z</time>
      </trkpt>
      <trkpt lat="49.41852" lon="0.22901">
        <ele>16.7</ele>
        <time>2022-05-31T10:18:05Z</time>
      </trkpt>
      <trkpt lat="49.41852" lon="0.22901">
        <ele>16.7</ele>
        <time>2022-05-31T10:18:06Z</time>
      </trkpt>
      <trkpt lat="49.41852" lon="0.22901">
        <ele>16.7</ele>
        <time>2022-05-31T10:18:07Z</time>
      </trkpt>
      <trkpt lat="49.41852" lon="0.22901">
        <ele>16.7</ele>
        <time>2022-05-31T10:18:08Z</time>
      </trkpt>
      <trkpt lat="49.41852" lon="0.22901">
        <ele>16.7</ele>
        <time>2022-05-31T10:18:09Z</time>
      </trkpt>
      <trkpt lat="49.41852" lon="0.22901">
        <ele>16.7</ele>
        <time>2022-05-31T10:18:10Z</time>
      </trkpt>
      <trkpt lat="49.41852" lon="0.22901">
        <ele>16.7</ele>
        <time>2022-05-31T10:18:11Z</time>
      </trkpt>
      <trkpt lat="49.41852" lon="0.22901">
        <ele>16.7</ele>
        <time>2022-05-31T10:18:12Z</time>
      </trkpt>
      <trkpt lat="49.41852" lon="0.22901">
        <ele>16.7</ele>
        <time>2022-05-31T10:18:13Z</time>
      </trkpt>
      <trkpt lat="49.41852" lon="0.22901">
        <ele>16.7</ele>
        <time>2022-05-31T10:18:14Z</time>
      </trkpt>
      <trkpt lat="49.41852" lon="0.22901">
        <ele>16.7</ele>
        <time>2022-05-31T10:18:15Z</time>
      </trkpt>
      <trkpt lat="49.41852" lon="0.22901">
        <ele>16.7</ele>
        <time>2022-05-31T10:18:16Z</time>
      </trkpt>
      <trkpt lat="49.41852" lon="0.22901">
        <ele>16.7</ele>
        <time>2022-05-31T10:18:17Z</time>
      </trkpt>
      <trkpt lat="49.41852" lon="0.22901">
        <ele>16.7</ele>
        <time>2022-05-31T10:18:18Z</time>
      </trkpt>
      <trkpt lat="49.41852" lon="0.22901">
        <ele>16.7</ele>
        <time>2022-05-31T10:18:19Z</time>
      </trkpt>
      <trkpt lat="49.41852" lon="0.22901">
        <ele>16.7</ele>
        <time>2022-05-31T10:18:20Z</time>
      </trkpt>
      <trkpt lat="49.41852" lon="0.22901">
        <ele>16.7</ele>
        <time>2022-05-31T10:18:21Z</time>
      </trkpt>
      <trkpt lat="49.41852" lon="0.22901">
        <ele>16.7</ele>
        <time>2022-05-31T10:18:22Z</time>
      </trkpt>
      <trkpt lat="49.41852" lon="0.22901">
        <ele>16.7</ele>
        <time>2022-05-31T10:18:23Z</time>
      </trkpt>
      <trkpt lat="49.41852" lon="0.22901">
        <ele>16.7</ele>
        <time>2022-05-31T10:18:24Z</time>
      </trkpt>
      <trkpt lat="49.41852" lon="0.22901">
        <ele>16.7</ele>
        <time>2022-05-31T10:18:25Z</time>
      </trkpt>
      <trkpt lat="49.41852" lon="0.22902">
        <ele>16.7</ele>
        <time>2022-05-31T10:18:26Z</time>
      </trkpt>
      <trkpt lat="49.41852" lon="0.22902">
        <ele>16.7</ele>
        <time>2022-05-31T10:18:27Z</time>
      </trkpt>
      <trkpt lat="49.41852" lon="0.22902">
        <ele>16.7</ele>
        <time>2022-05-31T10:18:28Z</time>
      </trkpt>
      <trkpt lat="49.41852" lon="0.22902">
        <ele>16.7</ele>
        <time>2022-05-31T10:18:29Z</time>
      </trkpt>
      <trkpt lat="49.41852" lon="0.22902">
        <ele>16.7</ele>
        <time>2022-05-31T10:18:30Z</time>
      </trkpt>
      <trkpt lat="49.41852" lon="0.22902">
        <ele>16.7</ele>
        <time>2022-05-31T10:18:31Z</time>
      </trkpt>
      <trkpt lat="49.41852" lon="0.22902">
        <ele>16.7</ele>
        <time>2022-05-31T10:18:32Z</time>
      </trkpt>
      <trkpt lat="49.41852" lon="0.22902">
        <ele>16.7</ele>
        <time>2022-05-31T10:18:33Z</time>
      </trkpt>
      <trkpt lat="49.41852" lon="0.22902">
        <ele>16.7</ele>
        <time>2022-05-31T10:18:34Z</time>
      </trkpt>
      <trkpt lat="49.41852" lon="0.22902">
        <ele>16.7</ele>
        <time>2022-05-31T10:18:35Z</time>
      </trkpt>
      <trkpt lat="49.41852" lon="0.22902">
        <ele>16.7</ele>
        <time>2022-05-31T10:18:36Z</time>
      </trkpt>
      <trkpt lat="49.41852" lon="0.22902">
        <ele>16.7</ele>
        <time>2022-05-31T10:18:37Z</time>
      </trkpt>
      <trkpt lat="49.41852" lon="0.22902">
        <ele>16.7</ele>
        <time>2022-05-31T10:18:38Z</time>
      </trkpt>
      <trkpt lat="49.41852" lon="0.22902">
        <ele>16.7</ele>
        <time>2022-05-31T10:18:39Z</time>
      </trkpt>
      <trkpt lat="49.41852" lon="0.22902">
        <ele>16.7</ele>
        <time>2022-05-31T10:18:40Z</time>
      </trkpt>
      <trkpt lat="49.41852" lon="0.22902">
        <ele>16.7</ele>
        <time>2022-05-31T10:18:41Z</time>
      </trkpt>
      <trkpt lat="49.41852" lon="0.22902">
        <ele>16.7</ele>
        <time>2022-05-31T10:18:42Z</time>
      </trkpt>
      <trkpt lat="49.41852" lon="0.22902">
        <ele>16.7</ele>
        <time>2022-05-31T10:18:43Z</time>
      </trkpt>
      <trkpt lat="49.41852" lon="0.22902">
        <ele>16.7</ele>
        <time>2022-05-31T10:18:44Z</time>
      </trkpt>
      <trkpt lat="49.41852" lon="0.22902">
        <ele>16.7</ele>
        <time>2022-05-31T10:18:45Z</time>
      </trkpt>
      <trkpt lat="49.41852" lon="0.22902">
        <ele>16.7</ele>
        <time>2022-05-31T10:18:46Z</time>
      </trkpt>
      <trkpt lat="49.41852" lon="0.22902">
        <ele>16.7</ele>
        <time>2022-05-31T10:18:47Z</time>
      </trkpt>
      <trkpt lat="49.41852" lon="0.22902">
        <ele>16.7</ele>
        <time>2022-05-31T10:18:48Z</time>
      </trkpt>
      <trkpt lat="49.41852" lon="0.22902">
        <ele>16.7</ele>
        <time>2022-05-31T10:18:49Z</time>
      </trkpt>
      <trkpt lat="49.41852" lon="0.22902">
        <ele>16.7</ele>
        <time>2022-05-31T10:18:50Z</time>
      </trkpt>
      <trkpt lat="49.41852" lon="0.22902">
        <ele>16.7</ele>
        <time>2022-05-31T10:18:51Z</time>
      </trkpt>
      <trkpt lat="49.41852" lon="0.22902">
        <ele>16.7</ele>
        <time>2022-05-31T10:18:52Z</time>
      </trkpt>
      <trkpt lat="49.41852" lon="0.22902">
        <ele>16.7</ele>
        <time>2022-05-31T10:18:53Z</time>
      </trkpt>
      <trkpt lat="49.41852" lon="0.22902">
        <ele>16.7</ele>
        <time>2022-05-31T10:18:54Z</time>
      </trkpt>
      <trkpt lat="49.41852" lon="0.22902">
        <ele>16.7</ele>
        <time>2022-05-31T10:18:55Z</time>
      </trkpt>
      <trkpt lat="49.41853" lon="0.22902">
        <ele>16.7</ele>
        <time>2022-05-31T10:18:56Z</time>
      </trkpt>
      <trkpt lat="49.41853" lon="0.22902">
        <ele>16.7</ele>
        <time>2022-05-31T10:18:57Z</time>
      </trkpt>
      <trkpt lat="49.41853" lon="0.22902">
        <ele>16.7</ele>
        <time>2022-05-31T10:18:58Z</time>
      </trkpt>
      <trkpt lat="49.41853" lon="0.22902">
        <ele>16.7</ele>
        <time>2022-05-31T10:18:59Z</time>
      </trkpt>
      <trkpt lat="49.41853" lon="0.22903">
        <ele>16.7</ele>
        <time>2022-05-31T10:19:00Z</time>
      </trkpt>
      <trkpt lat="49.41853" lon="0.22903">
        <ele>16.7</ele>
        <time>2022-05-31T10:19:01Z</time>
      </trkpt>
      <trkpt lat="49.41853" lon="0.22903">
        <ele>16.7</ele>
        <time>2022-05-31T10:19:02Z</time>
      </trkpt>
      <trkpt lat="49.41853" lon="0.22903">
        <ele>16.7</ele>
        <time>2022-05-31T10:19:03Z</time>
      </trkpt>
      <trkpt lat="49.41853" lon="0.22903">
        <ele>16.7</ele>
        <time>2022-05-31T10:19:04Z</time>
      </trkpt>
      <trkpt lat="49.41853" lon="0.22903">
        <ele>16.7</ele>
        <time>2022-05-31T10:19:05Z</time>
      </trkpt>
      <trkpt lat="49.41853" lon="0.22903">
        <ele>16.7</ele>
        <time>2022-05-31T10:19:06Z</time>
      </trkpt>
      <trkpt lat="49.41853" lon="0.22903">
        <ele>16.7</ele>
        <time>2022-05-31T10:19:07Z</time>
      </trkpt>
      <trkpt lat="49.41853" lon="0.22903">
        <ele>16.7</ele>
        <time>2022-05-31T10:19:08Z</time>
      </trkpt>
      <trkpt lat="49.41853" lon="0.22903">
        <ele>16.7</ele>
        <time>2022-05-31T10:19:09Z</time>
      </trkpt>
      <trkpt lat="49.41853" lon="0.22903">
        <ele>16.7</ele>
        <time>2022-05-31T10:19:10Z</time>
      </trkpt>
      <trkpt lat="49.41853" lon="0.22903">
        <ele>16.7</ele>
        <time>2022-05-31T10:19:11Z</time>
      </trkpt>
      <trkpt lat="49.41853" lon="0.22903">
        <ele>16.7</ele>
        <time>2022-05-31T10:19:12Z</time>
      </trkpt>
      <trkpt lat="49.41853" lon="0.22903">
        <ele>16.7</ele>
        <time>2022-05-31T10:19:13Z</time>
      </trkpt>
      <trkpt lat="49.41853" lon="0.22903">
        <ele>16.7</ele>
        <time>2022-05-31T10:19:14Z</time>
      </trkpt>
      <trkpt lat="49.41853" lon="0.22903">
        <ele>16.7</ele>
        <time>2022-05-31T10:19:15Z</time>
      </trkpt>
      <trkpt lat="49.41853" lon="0.22903">
        <ele>16.7</ele>
        <time>2022-05-31T10:19:16Z</time>
      </trkpt>
      <trkpt lat="49.41853" lon="0.22903">
        <ele>16.7</ele>
        <time>2022-05-31T10:19:17Z</time>
      </trkpt>
      <trkpt lat="49.41853" lon="0.22903">
        <ele>16.7</ele>
        <time>2022-05-31T10:19:18Z</time>
      </trkpt>
      <trkpt lat="49.41853" lon="0.22903">
        <ele>16.7</ele>
        <time>2022-05-31T10:19:19Z</time>
      </trkpt>
      <trkpt lat="49.41853" lon="0.22903">
        <ele>16.7</ele>
        <time>2022-05-31T10:19:20Z</time>
      </trkpt>
      <trkpt lat="49.41853" lon="0.22903">
        <ele>16.7</ele>
        <time>2022-05-31T10:19:21Z</time>
      </trkpt>
      <trkpt lat="49.41853" lon="0.22903">
        <ele>16.7</ele>
        <time>2022-05-31T10:19:22Z</time>
      </trkpt>
      <trkpt lat="49.41853" lon="0.22903">
        <ele>16.7</ele>
        <time>2022-05-31T10:19:23Z</time>
      </trkpt>
      <trkpt lat="49.41853" lon="0.22903">
        <ele>16.7</ele>
        <time>2022-05-31T10:19:24Z</time>
      </trkpt>
      <trkpt lat="49.41853" lon="0.22903">
        <ele>16.7</ele>
        <time>2022-05-31T10:19:25Z</time>
      </trkpt>
      <trkpt lat="49.41853" lon="0.22903">
        <ele>16.7</ele>
        <time>2022-05-31T10:19:26Z</time>
      </trkpt>
      <trkpt lat="49.41853" lon="0.22903">
        <ele>16.7</ele>
        <time>2022-05-31T10:19:27Z</time>
      </trkpt>
      <trkpt lat="49.41853" lon="0.22903">
        <ele>16.7</ele>
        <time>2022-05-31T10:19:28Z</time>
      </trkpt>
      <trkpt lat="49.41853" lon="0.22903">
        <ele>16.7</ele>
        <time>2022-05-31T10:19:29Z</time>
      </trkpt>
      <trkpt lat="49.41853" lon="0.22903">
        <ele>16.6</ele>
        <time>2022-05-31T10:19:30Z</time>
      </trkpt>
      <trkpt lat="49.41853" lon="0.22903">
        <ele>16.6</ele>
        <time>2022-05-31T10:19:31Z</time>
      </trkpt>
      <trkpt lat="49.41853" lon="0.22903">
        <ele>16.6</ele>
        <time>2022-05-31T10:19:32Z</time>
      </trkpt>
      <trkpt lat="49.41853" lon="0.22903">
        <ele>16.6</ele>
        <time>2022-05-31T10:19:33Z</time>
      </trkpt>
      <trkpt lat="49.41853" lon="0.22903">
        <ele>16.6</ele>
        <time>2022-05-31T10:19:34Z</time>
      </trkpt>
      <trkpt lat="49.41853" lon="0.22903">
        <ele>16.6</ele>
        <time>2022-05-31T10:19:35Z</time>
      </trkpt>
      <trkpt lat="49.41853" lon="0.22903">
        <ele>16.6</ele>
        <time>2022-05-31T10:19:36Z</time>
      </trkpt>
      <trkpt lat="49.41853" lon="0.22903">
        <ele>16.6</ele>
        <time>2022-05-31T10:19:37Z</time>
      </trkpt>
      <trkpt lat="49.41853" lon="0.22903">
        <ele>16.6</ele>
        <time>2022-05-31T10:19:38Z</time>
      </trkpt>
      <trkpt lat="49.41853" lon="0.22903">
        <ele>16.6</ele>
        <time>2022-05-31T10:19:39Z</time>
      </trkpt>
      <trkpt lat="49.41853" lon="0.22903">
        <ele>16.6</ele>
        <time>2022-05-31T10:19:40Z</time>
      </trkpt>
      <trkpt lat="49.41853" lon="0.22903">
        <ele>16.6</ele>
        <time>2022-05-31T10:19:41Z</time>
      </trkpt>
      <trkpt lat="49.41853" lon="0.22903">
        <ele>16.6</ele>
        <time>2022-05-31T10:19:42Z</time>
      </trkpt>
      <trkpt lat="49.41853" lon="0.22903">
        <ele>16.6</ele>
        <time>2022-05-31T10:19:43Z</time>
      </trkpt>
      <trkpt lat="49.41853" lon="0.22903">
        <ele>16.6</ele>
        <time>2022-05-31T10:19:44Z</time>
      </trkpt>
      <trkpt lat="49.41853" lon="0.22903">
        <ele>16.6</ele>
        <time>2022-05-31T10:19:45Z</time>
      </trkpt>
      <trkpt lat="49.41853" lon="0.22903">
        <ele>16.6</ele>
        <time>2022-05-31T10:19:46Z</time>
      </trkpt>
      <trkpt lat="49.41853" lon="0.22903">
        <ele>16.6</ele>
        <time>2022-05-31T10:19:47Z</time>
      </trkpt>
      <trkpt lat="49.41853" lon="0.22903">
        <ele>16.6</ele>
        <time>2022-05-31T10:19:48Z</time>
      </trkpt>
      <trkpt lat="49.41853" lon="0.22903">
        <ele>16.6</ele>
        <time>2022-05-31T10:19:49Z</time>
      </trkpt>
      <trkpt lat="49.41853" lon="0.22903">
        <ele>16.6</ele>
        <time>2022-05-31T10:19:50Z</time>
      </trkpt>
      <trkpt lat="49.41853" lon="0.22903">
        <ele>16.6</ele>
        <time>2022-05-31T10:19:51Z</time>
      </trkpt>
      <trkpt lat="49.41853" lon="0.22903">
        <ele>16.6</ele>
        <time>2022-05-31T10:19:52Z</time>
      </trkpt>
      <trkpt lat="49.41853" lon="0.22903">
        <ele>16.6</ele>
        <time>2022-05-31T10:19:53Z</time>
      </trkpt>
      <trkpt lat="49.41853" lon="0.22903">
        <ele>16.6</ele>
        <time>2022-05-31T10:19:54Z</time>
      </trkpt>
      <trkpt lat="49.41853" lon="0.22903">
        <ele>16.6</ele>
        <time>2022-05-31T10:19:55Z</time>
      </trkpt>
      <trkpt lat="49.41853" lon="0.22903">
        <ele>16.6</ele>
        <time>2022-05-31T10:19:56Z</time>
      </trkpt>
      <trkpt lat="49.41853" lon="0.22903">
        <ele>16.6</ele>
        <time>2022-05-31T10:19:57Z</time>
      </trkpt>
      <trkpt lat="49.41853" lon="0.22903">
        <ele>16.6</ele>
        <time>2022-05-31T10:19:58Z</time>
      </trkpt>
      <trkpt lat="49.41853" lon="0.22903">
        <ele>16.6</ele>
        <time>2022-05-31T10:19:59Z</time>
      </trkpt>
      <trkpt lat="49.41853" lon="0.22903">
        <ele>16.6</ele>
        <time>2022-05-31T10:20:00Z</time>
      </trkpt>
      <trkpt lat="49.41853" lon="0.22903">
        <ele>16.6</ele>
        <time>2022-05-31T10:20:01Z</time>
      </trkpt>
      <trkpt lat="49.41853" lon="0.22903">
        <ele>16.6</ele>
        <time>2022-05-31T10:20:02Z</time>
      </trkpt>
      <trkpt lat="49.41853" lon="0.22903">
        <ele>16.6</ele>
        <time>2022-05-31T10:20:03Z</time>
      </trkpt>
      <trkpt lat="49.41853" lon="0.22903">
        <ele>16.6</ele>
        <time>2022-05-31T10:20:04Z</time>
      </trkpt>
      <trkpt lat="49.41853" lon="0.22903">
        <ele>16.6</ele>
        <time>2022-05-31T10:20:05Z</time>
      </trkpt>
      <trkpt lat="49.41853" lon="0.22903">
        <ele>16.6</ele>
        <time>2022-05-31T10:20:06Z</time>
      </trkpt>
      <trkpt lat="49.41853" lon="0.22903">
        <ele>16.6</ele>
        <time>2022-05-31T10:20:07Z</time>
      </trkpt>
      <trkpt lat="49.41853" lon="0.22903">
        <ele>16.6</ele>
        <time>2022-05-31T10:20:08Z</time>
      </trkpt>
      <trkpt lat="49.41853" lon="0.22903">
        <ele>16.6</ele>
        <time>2022-05-31T10:20:09Z</time>
      </trkpt>
      <trkpt lat="49.41853" lon="0.22903">
        <ele>16.6</ele>
        <time>2022-05-31T10:20:10Z</time>
      </trkpt>
      <trkpt lat="49.41853" lon="0.22903">
        <ele>16.6</ele>
        <time>2022-05-31T10:20:11Z</time>
      </trkpt>
      <trkpt lat="49.41853" lon="0.22903">
        <ele>16.6</ele>
        <time>2022-05-31T10:20:12Z</time>
      </trkpt>
      <trkpt lat="49.41853" lon="0.22903">
        <ele>16.6</ele>
        <time>2022-05-31T10:20:13Z</time>
      </trkpt>
      <trkpt lat="49.41853" lon="0.22903">
        <ele>16.6</ele>
        <time>2022-05-31T10:20:14Z</time>
      </trkpt>
      <trkpt lat="49.41853" lon="0.22903">
        <ele>16.6</ele>
        <time>2022-05-31T10:20:15Z</time>
      </trkpt>
      <trkpt lat="49.41853" lon="0.22903">
        <ele>16.6</ele>
        <time>2022-05-31T10:20:16Z</time>
      </trkpt>
      <trkpt lat="49.41853" lon="0.22903">
        <ele>16.6</ele>
        <time>2022-05-31T10:20:17Z</time>
      </trkpt>
      <trkpt lat="49.41853" lon="0.22903">
        <ele>16.6</ele>
        <time>2022-05-31T10:20:18Z</time>
      </trkpt>
      <trkpt lat="49.41853" lon="0.22903">
        <ele>16.6</ele>
        <time>2022-05-31T10:20:19Z</time>
      </trkpt>
      <trkpt lat="49.41853" lon="0.22903">
        <ele>16.6</ele>
        <time>2022-05-31T10:20:20Z</time>
      </trkpt>
      <trkpt lat="49.41853" lon="0.22903">
        <ele>16.6</ele>
        <time>2022-05-31T10:20:21Z</time>
      </trkpt>
      <trkpt lat="49.41853" lon="0.22903">
        <ele>16.6</ele>
        <time>2022-05-31T10:20:22Z</time>
      </trkpt>
      <trkpt lat="49.41853" lon="0.22903">
        <ele>16.6</ele>
        <time>2022-05-31T10:20:23Z</time>
      </trkpt>
      <trkpt lat="49.41853" lon="0.22903">
        <ele>16.6</ele>
        <time>2022-05-31T10:20:24Z</time>
      </trkpt>
      <trkpt lat="49.41853" lon="0.22903">
        <ele>16.6</ele>
        <time>2022-05-31T10:20:25Z</time>
      </trkpt>
      <trkpt lat="49.41853" lon="0.22903">
        <ele>16.6</ele>
        <time>2022-05-31T10:20:26Z</time>
      </trkpt>
      <trkpt lat="49.41853" lon="0.22903">
        <ele>16.6</ele>
        <time>2022-05-31T10:20:27Z</time>
      </trkpt>
      <trkpt lat="49.41854" lon="0.22902">
        <ele>16.6</ele>
        <time>2022-05-31T10:20:28Z</time>
      </trkpt>
      <trkpt lat="49.41854" lon="0.22902">
        <ele>16.6</ele>
        <time>2022-05-31T10:20:29Z</time>
      </trkpt>
      <trkpt lat="49.41854" lon="0.22901">
        <ele>16.6</ele>
        <time>2022-05-31T10:20:30Z</time>
      </trkpt>
      <trkpt lat="49.41854" lon="0.229">
        <ele>16.5</ele>
        <time>2022-05-31T10:20:32Z</time>
      </trkpt>
      <trkpt lat="49.41854" lon="0.229">
        <ele>16.5</ele>
        <time>2022-05-31T10:20:33Z</time>
      </trkpt>
      <trkpt lat="49.41855" lon="0.229">
        <ele>16.5</ele>
        <time>2022-05-31T10:20:34Z</time>
      </trkpt>
      <trkpt lat="49.41856" lon="0.22901">
        <ele>16.5</ele>
        <time>2022-05-31T10:20:35Z</time>
      </trkpt>
      <trkpt lat="49.41856" lon="0.22903">
        <ele>16.5</ele>
        <time>2022-05-31T10:20:36Z</time>
      </trkpt>
      <trkpt lat="49.41857" lon="0.22904">
        <ele>16.5</ele>
        <time>2022-05-31T10:20:37Z</time>
      </trkpt>
      <trkpt lat="49.41857" lon="0.22905">
        <ele>16.4</ele>
        <time>2022-05-31T10:20:38Z</time>
      </trkpt>
      <trkpt lat="49.41858" lon="0.22908">
        <ele>16.4</ele>
        <time>2022-05-31T10:20:40Z</time>
      </trkpt>
      <trkpt lat="49.41859" lon="0.2291">
        <ele>16.4</ele>
        <time>2022-05-31T10:20:41Z</time>
      </trkpt>
      <trkpt lat="49.41859" lon="0.22912">
        <ele>16.3</ele>
        <time>2022-05-31T10:20:42Z</time>
      </trkpt>
      <trkpt lat="49.4186" lon="0.22914">
        <ele>16.3</ele>
        <time>2022-05-31T10:20:43Z</time>
      </trkpt>
      <trkpt lat="49.41861" lon="0.22917">
        <ele>16.3</ele>
        <time>2022-05-31T10:20:44Z</time>
      </trkpt>
      <trkpt lat="49.41862" lon="0.22918">
        <ele>16.3</ele>
        <time>2022-05-31T10:20:46Z</time>
      </trkpt>
      <trkpt lat="49.41863" lon="0.22918">
        <ele>16.2</ele>
        <time>2022-05-31T10:20:47Z</time>
      </trkpt>
      <trkpt lat="49.41865" lon="0.22919">
        <ele>16.2</ele>
        <time>2022-05-31T10:20:48Z</time>
      </trkpt>
      <trkpt lat="49.41867" lon="0.22919">
        <ele>16.2</ele>
        <time>2022-05-31T10:20:49Z</time>
      </trkpt>
      <trkpt lat="49.41868" lon="0.22919">
        <ele>16.2</ele>
        <time>2022-05-31T10:20:50Z</time>
      </trkpt>
      <trkpt lat="49.4187" lon="0.22919">
        <ele>16.1</ele>
        <time>2022-05-31T10:20:51Z</time>
      </trkpt>
      <trkpt lat="49.41871" lon="0.2292">
        <ele>16.1</ele>
        <time>2022-05-31T10:20:53Z</time>
      </trkpt>
      <trkpt lat="49.41872" lon="0.22921">
        <ele>16.1</ele>
        <time>2022-05-31T10:20:54Z</time>
      </trkpt>
      <trkpt lat="49.41872" lon="0.2292">
        <ele>16.1</ele>
        <time>2022-05-31T10:20:55Z</time>
      </trkpt>
      <trkpt lat="49.41872" lon="0.2292">
        <ele>16.1</ele>
        <time>2022-05-31T10:20:56Z</time>
      </trkpt>
      <trkpt lat="49.41873" lon="0.2292">
        <ele>16.1</ele>
        <time>2022-05-31T10:20:57Z</time>
      </trkpt>
      <trkpt lat="49.41874" lon="0.22921">
        <ele>16.1</ele>
        <time>2022-05-31T10:20:58Z</time>
      </trkpt>
      <trkpt lat="49.41876" lon="0.22922">
        <ele>16.1</ele>
        <time>2022-05-31T10:20:59Z</time>
      </trkpt>
      <trkpt lat="49.41878" lon="0.22923">
        <ele>16</ele>
        <time>2022-05-31T10:21:01Z</time>
      </trkpt>
      <trkpt lat="49.41878" lon="0.22922">
        <ele>16</ele>
        <time>2022-05-31T10:21:02Z</time>
      </trkpt>
      <trkpt lat="49.41878" lon="0.22921">
        <ele>16</ele>
        <time>2022-05-31T10:21:03Z</time>
      </trkpt>
      <trkpt lat="49.41878" lon="0.22921">
        <ele>16</ele>
        <time>2022-05-31T10:21:04Z</time>
      </trkpt>
      <trkpt lat="49.41877" lon="0.22923">
        <ele>16</ele>
        <time>2022-05-31T10:21:05Z</time>
      </trkpt>
      <trkpt lat="49.41877" lon="0.22924">
        <ele>16</ele>
        <time>2022-05-31T10:21:06Z</time>
      </trkpt>
      <trkpt lat="49.41877" lon="0.22924">
        <ele>16</ele>
        <time>2022-05-31T10:21:07Z</time>
      </trkpt>
      <trkpt lat="49.41876" lon="0.22924">
        <ele>16</ele>
        <time>2022-05-31T10:21:08Z</time>
      </trkpt>
      <trkpt lat="49.41876" lon="0.22925">
        <ele>16</ele>
        <time>2022-05-31T10:21:10Z</time>
      </trkpt>
      <trkpt lat="49.41876" lon="0.22924">
        <ele>16</ele>
        <time>2022-05-31T10:21:11Z</time>
      </trkpt>
      <trkpt lat="49.41876" lon="0.22924">
        <ele>16</ele>
        <time>2022-05-31T10:21:12Z</time>
      </trkpt>
      <trkpt lat="49.41877" lon="0.22925">
        <ele>16</ele>
        <time>2022-05-31T10:21:13Z</time>
      </trkpt>
      <trkpt lat="49.41878" lon="0.22925">
        <ele>16</ele>
        <time>2022-05-31T10:21:15Z</time>
      </trkpt>
      <trkpt lat="49.41878" lon="0.22925">
        <ele>16</ele>
        <time>2022-05-31T10:21:16Z</time>
      </trkpt>
      <trkpt lat="49.41879" lon="0.22926">
        <ele>16</ele>
        <time>2022-05-31T10:21:17Z</time>
      </trkpt>
      <trkpt lat="49.4188" lon="0.22926">
        <ele>16</ele>
        <time>2022-05-31T10:21:18Z</time>
      </trkpt>
      <trkpt lat="49.41881" lon="0.22928">
        <ele>16</ele>
        <time>2022-05-31T10:21:19Z</time>
      </trkpt>
      <trkpt lat="49.41882" lon="0.22929">
        <ele>15.9</ele>
        <time>2022-05-31T10:21:20Z</time>
      </trkpt>
      <trkpt lat="49.41883" lon="0.22929">
        <ele>15.9</ele>
        <time>2022-05-31T10:21:21Z</time>
      </trkpt>
      <trkpt lat="49.41883" lon="0.2293">
        <ele>15.9</ele>
        <time>2022-05-31T10:21:23Z</time>
      </trkpt>
      <trkpt lat="49.41884" lon="0.22931">
        <ele>15.9</ele>
        <time>2022-05-31T10:21:24Z</time>
      </trkpt>
      <trkpt lat="49.41885" lon="0.22932">
        <ele>15.9</ele>
        <time>2022-05-31T10:21:25Z</time>
      </trkpt>
      <trkpt lat="49.41886" lon="0.22935">
        <ele>15.9</ele>
        <time>2022-05-31T10:21:26Z</time>
      </trkpt>
      <trkpt lat="49.41887" lon="0.22936">
        <ele>15.9</ele>
        <time>2022-05-31T10:21:27Z</time>
      </trkpt>
      <trkpt lat="49.41888" lon="0.22938">
        <ele>15.9</ele>
        <time>2022-05-31T10:21:28Z</time>
      </trkpt>
      <trkpt lat="49.41889" lon="0.2294">
        <ele>15.9</ele>
        <time>2022-05-31T10:21:30Z</time>
      </trkpt>
      <trkpt lat="49.41892" lon="0.22946">
        <ele>15.9</ele>
        <time>2022-05-31T10:21:31Z</time>
      </trkpt>
      <trkpt lat="49.41892" lon="0.22946">
        <ele>15.9</ele>
        <time>2022-05-31T10:21:32Z</time>
      </trkpt>
      <trkpt lat="49.41893" lon="0.22948">
        <ele>15.9</ele>
        <time>2022-05-31T10:21:33Z</time>
      </trkpt>
      <trkpt lat="49.41894" lon="0.2295">
        <ele>15.9</ele>
        <time>2022-05-31T10:21:34Z</time>
      </trkpt>
      <trkpt lat="49.41895" lon="0.22953">
        <ele>15.8</ele>
        <time>2022-05-31T10:21:35Z</time>
      </trkpt>
      <trkpt lat="49.41895" lon="0.22954">
        <ele>15.8</ele>
        <time>2022-05-31T10:21:36Z</time>
      </trkpt>
      <trkpt lat="49.41897" lon="0.22957">
        <ele>15.8</ele>
        <time>2022-05-31T10:21:38Z</time>
      </trkpt>
      <trkpt lat="49.41897" lon="0.22958">
        <ele>15.8</ele>
        <time>2022-05-31T10:21:39Z</time>
      </trkpt>
      <trkpt lat="49.41898" lon="0.22959">
        <ele>15.8</ele>
        <time>2022-05-31T10:21:40Z</time>
      </trkpt>
      <trkpt lat="49.41901" lon="0.22961">
        <ele>15.8</ele>
        <time>2022-05-31T10:21:41Z</time>
      </trkpt>
      <trkpt lat="49.41901" lon="0.22961">
        <ele>15.8</ele>
        <time>2022-05-31T10:21:42Z</time>
      </trkpt>
      <trkpt lat="49.41902" lon="0.22962">
        <ele>15.8</ele>
        <time>2022-05-31T10:21:43Z</time>
      </trkpt>
      <trkpt lat="49.41903" lon="0.22963">
        <ele>15.8</ele>
        <time>2022-05-31T10:21:44Z</time>
      </trkpt>
      <trkpt lat="49.41904" lon="0.22964">
        <ele>15.8</ele>
        <time>2022-05-31T10:21:46Z</time>
      </trkpt>
      <trkpt lat="49.41905" lon="0.22965">
        <ele>15.8</ele>
        <time>2022-05-31T10:21:47Z</time>
      </trkpt>
      <trkpt lat="49.41904" lon="0.22964">
        <ele>15.8</ele>
        <time>2022-05-31T10:21:48Z</time>
      </trkpt>
      <trkpt lat="49.41903" lon="0.22963">
        <ele>15.8</ele>
        <time>2022-05-31T10:21:49Z</time>
      </trkpt>
      <trkpt lat="49.41903" lon="0.22962">
        <ele>15.8</ele>
        <time>2022-05-31T10:21:50Z</time>
      </trkpt>
      <trkpt lat="49.41903" lon="0.22963">
        <ele>15.8</ele>
        <time>2022-05-31T10:21:52Z</time>
      </trkpt>
      <trkpt lat="49.41904" lon="0.22964">
        <ele>15.7</ele>
        <time>2022-05-31T10:21:53Z</time>
      </trkpt>
      <trkpt lat="49.41904" lon="0.22965">
        <ele>15.7</ele>
        <time>2022-05-31T10:21:54Z</time>
      </trkpt>
      <trkpt lat="49.41905" lon="0.22967">
        <ele>15.7</ele>
        <time>2022-05-31T10:21:55Z</time>
      </trkpt>
      <trkpt lat="49.41903" lon="0.22965">
        <ele>15.7</ele>
        <time>2022-05-31T10:21:57Z</time>
      </trkpt>
      <trkpt lat="49.41903" lon="0.22965">
        <ele>15.7</ele>
        <time>2022-05-31T10:21:58Z</time>
      </trkpt>
      <trkpt lat="49.41902" lon="0.22964">
        <ele>15.7</ele>
        <time>2022-05-31T10:21:59Z</time>
      </trkpt>
      <trkpt lat="49.41902" lon="0.22963">
        <ele>15.7</ele>
        <time>2022-05-31T10:22:00Z</time>
      </trkpt>
      <trkpt lat="49.41903" lon="0.22963">
        <ele>15.7</ele>
        <time>2022-05-31T10:22:01Z</time>
      </trkpt>
      <trkpt lat="49.41906" lon="0.22964">
        <ele>15.7</ele>
        <time>2022-05-31T10:22:03Z</time>
      </trkpt>
      <trkpt lat="49.41907" lon="0.22965">
        <ele>15.7</ele>
        <time>2022-05-31T10:22:04Z</time>
      </trkpt>
      <trkpt lat="49.41907" lon="0.22967">
        <ele>15.7</ele>
        <time>2022-05-31T10:22:05Z</time>
      </trkpt>
      <trkpt lat="49.41908" lon="0.22968">
        <ele>15.7</ele>
        <time>2022-05-31T10:22:06Z</time>
      </trkpt>
      <trkpt lat="49.41909" lon="0.2297">
        <ele>15.6</ele>
        <time>2022-05-31T10:22:07Z</time>
      </trkpt>
      <trkpt lat="49.4191" lon="0.2297">
        <ele>15.6</ele>
        <time>2022-05-31T10:22:08Z</time>
      </trkpt>
      <trkpt lat="49.4191" lon="0.2297">
        <ele>15.6</ele>
        <time>2022-05-31T10:22:09Z</time>
      </trkpt>
      <trkpt lat="49.4191" lon="0.2297">
        <ele>15.6</ele>
        <time>2022-05-31T10:22:10Z</time>
      </trkpt>
      <trkpt lat="49.4191" lon="0.2297">
        <ele>15.6</ele>
        <time>2022-05-31T10:22:11Z</time>
      </trkpt>
      <trkpt lat="49.41911" lon="0.2297">
        <ele>15.6</ele>
        <time>2022-05-31T10:22:12Z</time>
      </trkpt>
      <trkpt lat="49.41911" lon="0.2297">
        <ele>15.6</ele>
        <time>2022-05-31T10:22:13Z</time>
      </trkpt>
      <trkpt lat="49.41911" lon="0.2297">
        <ele>15.6</ele>
        <time>2022-05-31T10:22:14Z</time>
      </trkpt>
      <trkpt lat="49.41912" lon="0.2297">
        <ele>15.6</ele>
        <time>2022-05-31T10:22:15Z</time>
      </trkpt>
      <trkpt lat="49.41912" lon="0.2297">
        <ele>15.6</ele>
        <time>2022-05-31T10:22:16Z</time>
      </trkpt>
      <trkpt lat="49.41912" lon="0.2297">
        <ele>15.6</ele>
        <time>2022-05-31T10:22:17Z</time>
      </trkpt>
      <trkpt lat="49.41914" lon="0.22971">
        <ele>15.6</ele>
        <time>2022-05-31T10:22:18Z</time>
      </trkpt>
      <trkpt lat="49.41916" lon="0.22971">
        <ele>15.6</ele>
        <time>2022-05-31T10:22:20Z</time>
      </trkpt>
      <trkpt lat="49.41917" lon="0.22972">
        <ele>15.5</ele>
        <time>2022-05-31T10:22:21Z</time>
      </trkpt>
      <trkpt lat="49.41918" lon="0.22973">
        <ele>15.5</ele>
        <time>2022-05-31T10:22:22Z</time>
      </trkpt>
      <trkpt lat="49.41919" lon="0.22973">
        <ele>15.5</ele>
        <time>2022-05-31T10:22:23Z</time>
      </trkpt>
      <trkpt lat="49.4192" lon="0.22973">
        <ele>15.5</ele>
        <time>2022-05-31T10:22:24Z</time>
      </trkpt>
      <trkpt lat="49.41921" lon="0.22974">
        <ele>15.5</ele>
        <time>2022-05-31T10:22:25Z</time>
      </trkpt>
      <trkpt lat="49.41923" lon="0.22976">
        <ele>15.5</ele>
        <time>2022-05-31T10:22:27Z</time>
      </trkpt>
      <trkpt lat="49.41924" lon="0.22978">
        <ele>15.4</ele>
        <time>2022-05-31T10:22:28Z</time>
      </trkpt>
      <trkpt lat="49.41925" lon="0.22979">
        <ele>15.4</ele>
        <time>2022-05-31T10:22:29Z</time>
      </trkpt>
      <trkpt lat="49.41926" lon="0.2298">
        <ele>15.4</ele>
        <time>2022-05-31T10:22:30Z</time>
      </trkpt>
      <trkpt lat="49.41927" lon="0.22981">
        <ele>15.4</ele>
        <time>2022-05-31T10:22:31Z</time>
      </trkpt>
      <trkpt lat="49.4193" lon="0.22982">
        <ele>15.4</ele>
        <time>2022-05-31T10:22:32Z</time>
      </trkpt>
      <trkpt lat="49.41931" lon="0.22983">
        <ele>15.3</ele>
        <time>2022-05-31T10:22:34Z</time>
      </trkpt>
      <trkpt lat="49.41932" lon="0.22984">
        <ele>15.3</ele>
        <time>2022-05-31T10:22:35Z</time>
      </trkpt>
      <trkpt lat="49.41933" lon="0.22985">
        <ele>15.3</ele>
        <time>2022-05-31T10:22:36Z</time>
      </trkpt>
      <trkpt lat="49.41935" lon="0.22987">
        <ele>15.3</ele>
        <time>2022-05-31T10:22:38Z</time>
      </trkpt>
      <trkpt lat="49.41935" lon="0.22988">
        <ele>15.3</ele>
        <time>2022-05-31T10:22:39Z</time>
      </trkpt>
      <trkpt lat="49.41936" lon="0.2299">
        <ele>15.2</ele>
        <time>2022-05-31T10:22:40Z</time>
      </trkpt>
      <trkpt lat="49.41937" lon="0.22991">
        <ele>15.2</ele>
        <time>2022-05-31T10:22:41Z</time>
      </trkpt>
      <trkpt lat="49.41938" lon="0.22993">
        <ele>15.2</ele>
        <time>2022-05-31T10:22:42Z</time>
      </trkpt>
      <trkpt lat="49.41938" lon="0.22993">
        <ele>15.2</ele>
        <time>2022-05-31T10:22:44Z</time>
      </trkpt>
      <trkpt lat="49.41939" lon="0.22993">
        <ele>15.2</ele>
        <time>2022-05-31T10:22:45Z</time>
      </trkpt>
      <trkpt lat="49.41939" lon="0.22991">
        <ele>15.2</ele>
        <time>2022-05-31T10:22:46Z</time>
      </trkpt>
      <trkpt lat="49.41939" lon="0.22991">
        <ele>15.2</ele>
        <time>2022-05-31T10:22:48Z</time>
      </trkpt>
      <trkpt lat="49.4194" lon="0.22992">
        <ele>15.2</ele>
        <time>2022-05-31T10:22:49Z</time>
      </trkpt>
      <trkpt lat="49.41941" lon="0.22994">
        <ele>15.1</ele>
        <time>2022-05-31T10:22:50Z</time>
      </trkpt>
      <trkpt lat="49.41941" lon="0.22995">
        <ele>15.1</ele>
        <time>2022-05-31T10:22:51Z</time>
      </trkpt>
      <trkpt lat="49.41942" lon="0.22997">
        <ele>15.1</ele>
        <time>2022-05-31T10:22:52Z</time>
      </trkpt>
      <trkpt lat="49.41942" lon="0.22997">
        <ele>15.1</ele>
        <time>2022-05-31T10:22:53Z</time>
      </trkpt>
      <trkpt lat="49.41943" lon="0.22998">
        <ele>15.1</ele>
        <time>2022-05-31T10:22:55Z</time>
      </trkpt>
      <trkpt lat="49.41944" lon="0.23">
        <ele>15.1</ele>
        <time>2022-05-31T10:22:56Z</time>
      </trkpt>
      <trkpt lat="49.41946" lon="0.23005">
        <ele>15.1</ele>
        <time>2022-05-31T10:22:57Z</time>
      </trkpt>
      <trkpt lat="49.41947" lon="0.23009">
        <ele>15</ele>
        <time>2022-05-31T10:22:59Z</time>
      </trkpt>
      <trkpt lat="49.41948" lon="0.2301">
        <ele>15</ele>
        <time>2022-05-31T10:23:00Z</time>
      </trkpt>
      <trkpt lat="49.41948" lon="0.23011">
        <ele>15</ele>
        <time>2022-05-31T10:23:01Z</time>
      </trkpt>
      <trkpt lat="49.4195" lon="0.23015">
        <ele>15</ele>
        <time>2022-05-31T10:23:03Z</time>
      </trkpt>
      <trkpt lat="49.41951" lon="0.23018">
        <ele>14.9</ele>
        <time>2022-05-31T10:23:04Z</time>
      </trkpt>
      <trkpt lat="49.41951" lon="0.23019">
        <ele>15</ele>
        <time>2022-05-31T10:23:05Z</time>
      </trkpt>
      <trkpt lat="49.41952" lon="0.2302">
        <ele>15</ele>
        <time>2022-05-31T10:23:06Z</time>
      </trkpt>
      <trkpt lat="49.41952" lon="0.23022">
        <ele>15.1</ele>
        <time>2022-05-31T10:23:07Z</time>
      </trkpt>
      <trkpt lat="49.41952" lon="0.23022">
        <ele>15.1</ele>
        <time>2022-05-31T10:23:09Z</time>
      </trkpt>
      <trkpt lat="49.41953" lon="0.23023">
        <ele>15.1</ele>
        <time>2022-05-31T10:23:10Z</time>
      </trkpt>
      <trkpt lat="49.41953" lon="0.23023">
        <ele>15.2</ele>
        <time>2022-05-31T10:23:11Z</time>
      </trkpt>
      <trkpt lat="49.41954" lon="0.23019">
        <ele>15.3</ele>
        <time>2022-05-31T10:23:13Z</time>
      </trkpt>
      <trkpt lat="49.41954" lon="0.23019">
        <ele>15.3</ele>
        <time>2022-05-31T10:23:14Z</time>
      </trkpt>
      <trkpt lat="49.41954" lon="0.23019">
        <ele>15.3</ele>
        <time>2022-05-31T10:23:15Z</time>
      </trkpt>
      <trkpt lat="49.41954" lon="0.23019">
        <ele>15.3</ele>
        <time>2022-05-31T10:23:16Z</time>
      </trkpt>
      <trkpt lat="49.41954" lon="0.23018">
        <ele>15.3</ele>
        <time>2022-05-31T10:23:17Z</time>
      </trkpt>
      <trkpt lat="49.41955" lon="0.23018">
        <ele>15.3</ele>
        <time>2022-05-31T10:23:18Z</time>
      </trkpt>
      <trkpt lat="49.41955" lon="0.23018">
        <ele>15.4</ele>
        <time>2022-05-31T10:23:20Z</time>
      </trkpt>
      <trkpt lat="49.41956" lon="0.23019">
        <ele>15.4</ele>
        <time>2022-05-31T10:23:21Z</time>
      </trkpt>
      <trkpt lat="49.41956" lon="0.23019">
        <ele>15.4</ele>
        <time>2022-05-31T10:23:22Z</time>
      </trkpt>
      <trkpt lat="49.41955" lon="0.23019">
        <ele>15.4</ele>
        <time>2022-05-31T10:23:23Z</time>
      </trkpt>
      <trkpt lat="49.41955" lon="0.2302">
        <ele>15.4</ele>
        <time>2022-05-31T10:23:24Z</time>
      </trkpt>
      <trkpt lat="49.41954" lon="0.23018">
        <ele>15.5</ele>
        <time>2022-05-31T10:23:25Z</time>
      </trkpt>
      <trkpt lat="49.41954" lon="0.23018">
        <ele>15.5</ele>
        <time>2022-05-31T10:23:26Z</time>
      </trkpt>
      <trkpt lat="49.41954" lon="0.23017">
        <ele>15.6</ele>
        <time>2022-05-31T10:23:27Z</time>
      </trkpt>
      <trkpt lat="49.41953" lon="0.23017">
        <ele>15.6</ele>
        <time>2022-05-31T10:23:28Z</time>
      </trkpt>
      <trkpt lat="49.41953" lon="0.23018">
        <ele>15.6</ele>
        <time>2022-05-31T10:23:29Z</time>
      </trkpt>
      <trkpt lat="49.41953" lon="0.23018">
        <ele>15.6</ele>
        <time>2022-05-31T10:23:31Z</time>
      </trkpt>
      <trkpt lat="49.41953" lon="0.23019">
        <ele>15.7</ele>
        <time>2022-05-31T10:23:32Z</time>
      </trkpt>
      <trkpt lat="49.41953" lon="0.23018">
        <ele>15.7</ele>
        <time>2022-05-31T10:23:34Z</time>
      </trkpt>
      <trkpt lat="49.41953" lon="0.23018">
        <ele>15.7</ele>
        <time>2022-05-31T10:23:35Z</time>
      </trkpt>
      <trkpt lat="49.41953" lon="0.23017">
        <ele>15.7</ele>
        <time>2022-05-31T10:23:36Z</time>
      </trkpt>
      <trkpt lat="49.41953" lon="0.23016">
        <ele>15.8</ele>
        <time>2022-05-31T10:23:37Z</time>
      </trkpt>
      <trkpt lat="49.41953" lon="0.23015">
        <ele>15.8</ele>
        <time>2022-05-31T10:23:39Z</time>
      </trkpt>
      <trkpt lat="49.41952" lon="0.23013">
        <ele>15.9</ele>
        <time>2022-05-31T10:23:40Z</time>
      </trkpt>
      <trkpt lat="49.41953" lon="0.23012">
        <ele>15.9</ele>
        <time>2022-05-31T10:23:41Z</time>
      </trkpt>
      <trkpt lat="49.41953" lon="0.23011">
        <ele>16</ele>
        <time>2022-05-31T10:23:42Z</time>
      </trkpt>
      <trkpt lat="49.41954" lon="0.23011">
        <ele>16</ele>
        <time>2022-05-31T10:23:43Z</time>
      </trkpt>
      <trkpt lat="49.41957" lon="0.23009">
        <ele>16.2</ele>
        <time>2022-05-31T10:23:45Z</time>
      </trkpt>
      <trkpt lat="49.41958" lon="0.23008">
        <ele>16.2</ele>
        <time>2022-05-31T10:23:46Z</time>
      </trkpt>
      <trkpt lat="49.41958" lon="0.23007">
        <ele>16.3</ele>
        <time>2022-05-31T10:23:47Z</time>
      </trkpt>
      <trkpt lat="49.41959" lon="0.23006">
        <ele>16.3</ele>
        <time>2022-05-31T10:23:48Z</time>
      </trkpt>
      <trkpt lat="49.4196" lon="0.23004">
        <ele>16.4</ele>
        <time>2022-05-31T10:23:50Z</time>
      </trkpt>
      <trkpt lat="49.41961" lon="0.23002">
        <ele>16.5</ele>
        <time>2022-05-31T10:23:51Z</time>
      </trkpt>
      <trkpt lat="49.41961" lon="0.23">
        <ele>16.6</ele>
        <time>2022-05-31T10:23:52Z</time>
      </trkpt>
      <trkpt lat="49.41963" lon="0.22996">
        <ele>16.8</ele>
        <time>2022-05-31T10:23:53Z</time>
      </trkpt>
      <trkpt lat="49.41964" lon="0.22993">
        <ele>16.9</ele>
        <time>2022-05-31T10:23:54Z</time>
      </trkpt>
      <trkpt lat="49.41965" lon="0.22991">
        <ele>17</ele>
        <time>2022-05-31T10:23:55Z</time>
      </trkpt>
      <trkpt lat="49.41966" lon="0.22989">
        <ele>17.1</ele>
        <time>2022-05-31T10:23:56Z</time>
      </trkpt>
      <trkpt lat="49.41967" lon="0.22988">
        <ele>17.1</ele>
        <time>2022-05-31T10:23:58Z</time>
      </trkpt>
      <trkpt lat="49.41967" lon="0.22986">
        <ele>17.2</ele>
        <time>2022-05-31T10:23:59Z</time>
      </trkpt>
      <trkpt lat="49.41968" lon="0.22985">
        <ele>17.3</ele>
        <time>2022-05-31T10:24:01Z</time>
      </trkpt>
      <trkpt lat="49.41969" lon="0.22983">
        <ele>17.3</ele>
        <time>2022-05-31T10:24:02Z</time>
      </trkpt>
      <trkpt lat="49.41969" lon="0.22982">
        <ele>17.4</ele>
        <time>2022-05-31T10:24:03Z</time>
      </trkpt>
      <trkpt lat="49.4197" lon="0.2298">
        <ele>17.5</ele>
        <time>2022-05-31T10:24:04Z</time>
      </trkpt>
      <trkpt lat="49.4197" lon="0.22978">
        <ele>17.6</ele>
        <time>2022-05-31T10:24:06Z</time>
      </trkpt>
      <trkpt lat="49.41971" lon="0.22977">
        <ele>17.6</ele>
        <time>2022-05-31T10:24:07Z</time>
      </trkpt>
      <trkpt lat="49.41971" lon="0.22976">
        <ele>17.7</ele>
        <time>2022-05-31T10:24:08Z</time>
      </trkpt>
      <trkpt lat="49.41972" lon="0.22976">
        <ele>17.7</ele>
        <time>2022-05-31T10:24:09Z</time>
      </trkpt>
      <trkpt lat="49.41972" lon="0.22977">
        <ele>17.7</ele>
        <time>2022-05-31T10:24:10Z</time>
      </trkpt>
      <trkpt lat="49.41972" lon="0.22976">
        <ele>17.7</ele>
        <time>2022-05-31T10:24:11Z</time>
      </trkpt>
      <trkpt lat="49.41972" lon="0.22975">
        <ele>17.8</ele>
        <time>2022-05-31T10:24:12Z</time>
      </trkpt>
      <trkpt lat="49.41973" lon="0.22974">
        <ele>17.8</ele>
        <time>2022-05-31T10:24:13Z</time>
      </trkpt>
      <trkpt lat="49.41973" lon="0.22974">
        <ele>17.8</ele>
        <time>2022-05-31T10:24:14Z</time>
      </trkpt>
      <trkpt lat="49.41973" lon="0.22974">
        <ele>17.9</ele>
        <time>2022-05-31T10:24:15Z</time>
      </trkpt>
      <trkpt lat="49.41974" lon="0.22975">
        <ele>17.9</ele>
        <time>2022-05-31T10:24:16Z</time>
      </trkpt>
      <trkpt lat="49.41974" lon="0.22976">
        <ele>18</ele>
        <time>2022-05-31T10:24:17Z</time>
      </trkpt>
      <trkpt lat="49.41974" lon="0.22977">
        <ele>18</ele>
        <time>2022-05-31T10:24:18Z</time>
      </trkpt>
      <trkpt lat="49.41974" lon="0.22977">
        <ele>18</ele>
        <time>2022-05-31T10:24:19Z</time>
      </trkpt>
      <trkpt lat="49.41974" lon="0.22977">
        <ele>18.1</ele>
        <time>2022-05-31T10:24:21Z</time>
      </trkpt>
      <trkpt lat="49.41974" lon="0.22976">
        <ele>18.1</ele>
        <time>2022-05-31T10:24:22Z</time>
      </trkpt>
      <trkpt lat="49.41974" lon="0.22975">
        <ele>18.1</ele>
        <time>2022-05-31T10:24:23Z</time>
      </trkpt>
      <trkpt lat="49.41974" lon="0.22974">
        <ele>18.2</ele>
        <time>2022-05-31T10:24:24Z</time>
      </trkpt>
      <trkpt lat="49.41974" lon="0.22972">
        <ele>18.2</ele>
        <time>2022-05-31T10:24:25Z</time>
      </trkpt>
      <trkpt lat="49.41975" lon="0.22971">
        <ele>18.3</ele>
        <time>2022-05-31T10:24:27Z</time>
      </trkpt>
      <trkpt lat="49.41975" lon="0.2297">
        <ele>18.3</ele>
        <time>2022-05-31T10:24:28Z</time>
      </trkpt>
      <trkpt lat="49.41975" lon="0.2297">
        <ele>18.3</ele>
        <time>2022-05-31T10:24:29Z</time>
      </trkpt>
      <trkpt lat="49.41976" lon="0.22967">
        <ele>18.4</ele>
        <time>2022-05-31T10:24:30Z</time>
      </trkpt>
      <trkpt lat="49.41976" lon="0.22966">
        <ele>18.5</ele>
        <time>2022-05-31T10:24:31Z</time>
      </trkpt>
      <trkpt lat="49.41976" lon="0.22965">
        <ele>18.5</ele>
        <time>2022-05-31T10:24:33Z</time>
      </trkpt>
      <trkpt lat="49.41976" lon="0.22964">
        <ele>18.6</ele>
        <time>2022-05-31T10:24:34Z</time>
      </trkpt>
      <trkpt lat="49.41976" lon="0.22963">
        <ele>18.6</ele>
        <time>2022-05-31T10:24:35Z</time>
      </trkpt>
      <trkpt lat="49.41977" lon="0.22962">
        <ele>18.7</ele>
        <time>2022-05-31T10:24:36Z</time>
      </trkpt>
      <trkpt lat="49.41977" lon="0.2296">
        <ele>18.8</ele>
        <time>2022-05-31T10:24:37Z</time>
      </trkpt>
      <trkpt lat="49.41978" lon="0.22959">
        <ele>18.8</ele>
        <time>2022-05-31T10:24:38Z</time>
      </trkpt>
      <trkpt lat="49.41979" lon="0.22958">
        <ele>18.9</ele>
        <time>2022-05-31T10:24:40Z</time>
      </trkpt>
      <trkpt lat="49.41979" lon="0.22957">
        <ele>18.9</ele>
        <time>2022-05-31T10:24:41Z</time>
      </trkpt>
      <trkpt lat="49.4198" lon="0.22956">
        <ele>19</ele>
        <time>2022-05-31T10:24:42Z</time>
      </trkpt>
      <trkpt lat="49.41981" lon="0.22954">
        <ele>19.1</ele>
        <time>2022-05-31T10:24:43Z</time>
      </trkpt>
      <trkpt lat="49.41983" lon="0.22951">
        <ele>19.2</ele>
        <time>2022-05-31T10:24:45Z</time>
      </trkpt>
      <trkpt lat="49.41984" lon="0.2295">
        <ele>19.3</ele>
        <time>2022-05-31T10:24:46Z</time>
      </trkpt>
      <trkpt lat="49.41985" lon="0.22949">
        <ele>19.4</ele>
        <time>2022-05-31T10:24:47Z</time>
      </trkpt>
      <trkpt lat="49.41986" lon="0.22947">
        <ele>19.4</ele>
        <time>2022-05-31T10:24:49Z</time>
      </trkpt>
      <trkpt lat="49.41987" lon="0.22943">
        <ele>19.6</ele>
        <time>2022-05-31T10:24:50Z</time>
      </trkpt>
      <trkpt lat="49.41988" lon="0.22942">
        <ele>19.6</ele>
        <time>2022-05-31T10:24:51Z</time>
      </trkpt>
      <trkpt lat="49.41988" lon="0.2294">
        <ele>19.7</ele>
        <time>2022-05-31T10:24:52Z</time>
      </trkpt>
      <trkpt lat="49.41989" lon="0.22938">
        <ele>19.8</ele>
        <time>2022-05-31T10:24:53Z</time>
      </trkpt>
      <trkpt lat="49.4199" lon="0.22933">
        <ele>20</ele>
        <time>2022-05-31T10:24:54Z</time>
      </trkpt>
      <trkpt lat="49.41992" lon="0.22928">
        <ele>20.2</ele>
        <time>2022-05-31T10:24:56Z</time>
      </trkpt>
      <trkpt lat="49.41992" lon="0.22926">
        <ele>20.3</ele>
        <time>2022-05-31T10:24:57Z</time>
      </trkpt>
      <trkpt lat="49.41993" lon="0.22924">
        <ele>20.3</ele>
        <time>2022-05-31T10:24:58Z</time>
      </trkpt>
      <trkpt lat="49.41994" lon="0.22922">
        <ele>20.4</ele>
        <time>2022-05-31T10:24:59Z</time>
      </trkpt>
      <trkpt lat="49.41994" lon="0.22921">
        <ele>20.5</ele>
        <time>2022-05-31T10:25:00Z</time>
      </trkpt>
      <trkpt lat="49.41994" lon="0.2292">
        <ele>20.5</ele>
        <time>2022-05-31T10:25:01Z</time>
      </trkpt>
      <trkpt lat="49.41995" lon="0.22919">
        <ele>20.5</ele>
        <time>2022-05-31T10:25:03Z</time>
      </trkpt>
      <trkpt lat="49.41995" lon="0.22918">
        <ele>20.6</ele>
        <time>2022-05-31T10:25:04Z</time>
      </trkpt>
      <trkpt lat="49.41995" lon="0.22917">
        <ele>20.6</ele>
        <time>2022-05-31T10:25:05Z</time>
      </trkpt>
      <trkpt lat="49.41996" lon="0.22916">
        <ele>20.6</ele>
        <time>2022-05-31T10:25:06Z</time>
      </trkpt>
      <trkpt lat="49.41996" lon="0.22916">
        <ele>20.6</ele>
        <time>2022-05-31T10:25:07Z</time>
      </trkpt>
      <trkpt lat="49.41996" lon="0.22916">
        <ele>20.7</ele>
        <time>2022-05-31T10:25:09Z</time>
      </trkpt>
      <trkpt lat="49.41996" lon="0.22915">
        <ele>20.7</ele>
        <time>2022-05-31T10:25:10Z</time>
      </trkpt>
      <trkpt lat="49.41998" lon="0.22914">
        <ele>20.8</ele>
        <time>2022-05-31T10:25:11Z</time>
      </trkpt>
      <trkpt lat="49.41999" lon="0.22914">
        <ele>20.9</ele>
        <time>2022-05-31T10:25:12Z</time>
      </trkpt>
      <trkpt lat="49.42" lon="0.22914">
        <ele>20.9</ele>
        <time>2022-05-31T10:25:13Z</time>
      </trkpt>
      <trkpt lat="49.42002" lon="0.22917">
        <ele>21.1</ele>
        <time>2022-05-31T10:25:14Z</time>
      </trkpt>
      <trkpt lat="49.42003" lon="0.22917">
        <ele>21.1</ele>
        <time>2022-05-31T10:25:15Z</time>
      </trkpt>
      <trkpt lat="49.42004" lon="0.22916">
        <ele>21.2</ele>
        <time>2022-05-31T10:25:16Z</time>
      </trkpt>
      <trkpt lat="49.42004" lon="0.22915">
        <ele>21.2</ele>
        <time>2022-05-31T10:25:17Z</time>
      </trkpt>
      <trkpt lat="49.42004" lon="0.22914">
        <ele>21.3</ele>
        <time>2022-05-31T10:25:18Z</time>
      </trkpt>
      <trkpt lat="49.42005" lon="0.22913">
        <ele>21.3</ele>
        <time>2022-05-31T10:25:19Z</time>
      </trkpt>
      <trkpt lat="49.42005" lon="0.22912">
        <ele>21.4</ele>
        <time>2022-05-31T10:25:20Z</time>
      </trkpt>
      <trkpt lat="49.42005" lon="0.22912">
        <ele>21.4</ele>
        <time>2022-05-31T10:25:21Z</time>
      </trkpt>
      <trkpt lat="49.42006" lon="0.22911">
        <ele>21.5</ele>
        <time>2022-05-31T10:25:22Z</time>
      </trkpt>
      <trkpt lat="49.42006" lon="0.2291">
        <ele>21.5</ele>
        <time>2022-05-31T10:25:23Z</time>
      </trkpt>
      <trkpt lat="49.42007" lon="0.22909">
        <ele>21.6</ele>
        <time>2022-05-31T10:25:24Z</time>
      </trkpt>
      <trkpt lat="49.42007" lon="0.22908">
        <ele>21.7</ele>
        <time>2022-05-31T10:25:25Z</time>
      </trkpt>
      <trkpt lat="49.42007" lon="0.22907">
        <ele>21.8</ele>
        <time>2022-05-31T10:25:26Z</time>
      </trkpt>
      <trkpt lat="49.42008" lon="0.22905">
        <ele>21.9</ele>
        <time>2022-05-31T10:25:28Z</time>
      </trkpt>
      <trkpt lat="49.42008" lon="0.22903">
        <ele>22</ele>
        <time>2022-05-31T10:25:29Z</time>
      </trkpt>
      <trkpt lat="49.42009" lon="0.22901">
        <ele>22.1</ele>
        <time>2022-05-31T10:25:30Z</time>
      </trkpt>
      <trkpt lat="49.42009" lon="0.22896">
        <ele>22.4</ele>
        <time>2022-05-31T10:25:31Z</time>
      </trkpt>
      <trkpt lat="49.4201" lon="0.22894">
        <ele>22.5</ele>
        <time>2022-05-31T10:25:32Z</time>
      </trkpt>
      <trkpt lat="49.4201" lon="0.2289">
        <ele>22.8</ele>
        <time>2022-05-31T10:25:33Z</time>
      </trkpt>
      <trkpt lat="49.4201" lon="0.22888">
        <ele>22.8</ele>
        <time>2022-05-31T10:25:34Z</time>
      </trkpt>
      <trkpt lat="49.42011" lon="0.22886">
        <ele>23</ele>
        <time>2022-05-31T10:25:36Z</time>
      </trkpt>
      <trkpt lat="49.42011" lon="0.22884">
        <ele>23.1</ele>
        <time>2022-05-31T10:25:37Z</time>
      </trkpt>
      <trkpt lat="49.42012" lon="0.22883">
        <ele>23.2</ele>
        <time>2022-05-31T10:25:38Z</time>
      </trkpt>
      <trkpt lat="49.42012" lon="0.22882">
        <ele>23.2</ele>
        <time>2022-05-31T10:25:39Z</time>
      </trkpt>
      <trkpt lat="49.42012" lon="0.22881">
        <ele>23.3</ele>
        <time>2022-05-31T10:25:40Z</time>
      </trkpt>
      <trkpt lat="49.42013" lon="0.2288">
        <ele>23.4</ele>
        <time>2022-05-31T10:25:41Z</time>
      </trkpt>
      <trkpt lat="49.42013" lon="0.22879">
        <ele>23.5</ele>
        <time>2022-05-31T10:25:42Z</time>
      </trkpt>
      <trkpt lat="49.42014" lon="0.22876">
        <ele>23.6</ele>
        <time>2022-05-31T10:25:44Z</time>
      </trkpt>
      <trkpt lat="49.42014" lon="0.22875">
        <ele>23.7</ele>
        <time>2022-05-31T10:25:45Z</time>
      </trkpt>
      <trkpt lat="49.42014" lon="0.22875">
        <ele>23.7</ele>
        <time>2022-05-31T10:25:46Z</time>
      </trkpt>
      <trkpt lat="49.42014" lon="0.22874">
        <ele>23.8</ele>
        <time>2022-05-31T10:25:48Z</time>
      </trkpt>
      <trkpt lat="49.42015" lon="0.22873">
        <ele>23.9</ele>
        <time>2022-05-31T10:25:49Z</time>
      </trkpt>
      <trkpt lat="49.42015" lon="0.22872">
        <ele>23.9</ele>
        <time>2022-05-31T10:25:50Z</time>
      </trkpt>
      <trkpt lat="49.42015" lon="0.22871">
        <ele>24</ele>
        <time>2022-05-31T10:25:51Z</time>
      </trkpt>
      <trkpt lat="49.42016" lon="0.22869">
        <ele>24.1</ele>
        <time>2022-05-31T10:25:53Z</time>
      </trkpt>
      <trkpt lat="49.42017" lon="0.22867">
        <ele>24.3</ele>
        <time>2022-05-31T10:25:54Z</time>
      </trkpt>
      <trkpt lat="49.42018" lon="0.22863">
        <ele>24.6</ele>
        <time>2022-05-31T10:25:55Z</time>
      </trkpt>
      <trkpt lat="49.42019" lon="0.22861">
        <ele>24.7</ele>
        <time>2022-05-31T10:25:56Z</time>
      </trkpt>
      <trkpt lat="49.4202" lon="0.22855">
        <ele>25.2</ele>
        <time>2022-05-31T10:25:58Z</time>
      </trkpt>
      <trkpt lat="49.42021" lon="0.2285">
        <ele>25.5</ele>
        <time>2022-05-31T10:25:59Z</time>
      </trkpt>
      <trkpt lat="49.42021" lon="0.22848">
        <ele>25.7</ele>
        <time>2022-05-31T10:26:00Z</time>
      </trkpt>
      <trkpt lat="49.42022" lon="0.22846">
        <ele>25.9</ele>
        <time>2022-05-31T10:26:02Z</time>
      </trkpt>
      <trkpt lat="49.42023" lon="0.22845">
        <ele>25.9</ele>
        <time>2022-05-31T10:26:03Z</time>
      </trkpt>
      <trkpt lat="49.42023" lon="0.22844">
        <ele>26</ele>
        <time>2022-05-31T10:26:05Z</time>
      </trkpt>
      <trkpt lat="49.42024" lon="0.22843">
        <ele>26.1</ele>
        <time>2022-05-31T10:26:06Z</time>
      </trkpt>
      <trkpt lat="49.42025" lon="0.22842">
        <ele>26.2</ele>
        <time>2022-05-31T10:26:07Z</time>
      </trkpt>
      <trkpt lat="49.42026" lon="0.2284">
        <ele>26.4</ele>
        <time>2022-05-31T10:26:08Z</time>
      </trkpt>
      <trkpt lat="49.42026" lon="0.22839">
        <ele>26.5</ele>
        <time>2022-05-31T10:26:10Z</time>
      </trkpt>
      <trkpt lat="49.42027" lon="0.22839">
        <ele>26.6</ele>
        <time>2022-05-31T10:26:11Z</time>
      </trkpt>
      <trkpt lat="49.42028" lon="0.22838">
        <ele>27</ele>
        <time>2022-05-31T10:26:12Z</time>
      </trkpt>
      <trkpt lat="49.42029" lon="0.22838">
        <ele>27.1</ele>
        <time>2022-05-31T10:26:13Z</time>
      </trkpt>
      <trkpt lat="49.4203" lon="0.22838">
        <ele>27.1</ele>
        <time>2022-05-31T10:26:14Z</time>
      </trkpt>
      <trkpt lat="49.42031" lon="0.22838">
        <ele>27.2</ele>
        <time>2022-05-31T10:26:15Z</time>
      </trkpt>
      <trkpt lat="49.42031" lon="0.22837">
        <ele>27.2</ele>
        <time>2022-05-31T10:26:16Z</time>
      </trkpt>
      <trkpt lat="49.42032" lon="0.22837">
        <ele>27.2</ele>
        <time>2022-05-31T10:26:17Z</time>
      </trkpt>
      <trkpt lat="49.42032" lon="0.22837">
        <ele>27.2</ele>
        <time>2022-05-31T10:26:18Z</time>
      </trkpt>
      <trkpt lat="49.42032" lon="0.22837">
        <ele>27.2</ele>
        <time>2022-05-31T10:26:19Z</time>
      </trkpt>
      <trkpt lat="49.42032" lon="0.22837">
        <ele>27.3</ele>
        <time>2022-05-31T10:26:21Z</time>
      </trkpt>
      <trkpt lat="49.42032" lon="0.22838">
        <ele>27.3</ele>
        <time>2022-05-31T10:26:22Z</time>
      </trkpt>
      <trkpt lat="49.42032" lon="0.22838">
        <ele>27.3</ele>
        <time>2022-05-31T10:26:23Z</time>
      </trkpt>
      <trkpt lat="49.42032" lon="0.22838">
        <ele>27.3</ele>
        <time>2022-05-31T10:26:24Z</time>
      </trkpt>
      <trkpt lat="49.42033" lon="0.22838">
        <ele>27.3</ele>
        <time>2022-05-31T10:26:25Z</time>
      </trkpt>
      <trkpt lat="49.42033" lon="0.22839">
        <ele>27.3</ele>
        <time>2022-05-31T10:26:26Z</time>
      </trkpt>
      <trkpt lat="49.42033" lon="0.2284">
        <ele>27.3</ele>
        <time>2022-05-31T10:26:27Z</time>
      </trkpt>
      <trkpt lat="49.42032" lon="0.2284">
        <ele>27.4</ele>
        <time>2022-05-31T10:26:28Z</time>
      </trkpt>
      <trkpt lat="49.42032" lon="0.22841">
        <ele>27.4</ele>
        <time>2022-05-31T10:26:29Z</time>
      </trkpt>
      <trkpt lat="49.42031" lon="0.22841">
        <ele>27.4</ele>
        <time>2022-05-31T10:26:30Z</time>
      </trkpt>
      <trkpt lat="49.42031" lon="0.22841">
        <ele>27.4</ele>
        <time>2022-05-31T10:26:31Z</time>
      </trkpt>
      <trkpt lat="49.42031" lon="0.22842">
        <ele>27.4</ele>
        <time>2022-05-31T10:26:32Z</time>
      </trkpt>
      <trkpt lat="49.42031" lon="0.22842">
        <ele>27.5</ele>
        <time>2022-05-31T10:26:33Z</time>
      </trkpt>
      <trkpt lat="49.42032" lon="0.22843">
        <ele>27.5</ele>
        <time>2022-05-31T10:26:34Z</time>
      </trkpt>
      <trkpt lat="49.42032" lon="0.22843">
        <ele>27.5</ele>
        <time>2022-05-31T10:26:35Z</time>
      </trkpt>
      <trkpt lat="49.42032" lon="0.22843">
        <ele>27.5</ele>
        <time>2022-05-31T10:26:36Z</time>
      </trkpt>
      <trkpt lat="49.42032" lon="0.22843">
        <ele>27.5</ele>
        <time>2022-05-31T10:26:37Z</time>
      </trkpt>
      <trkpt lat="49.42032" lon="0.22843">
        <ele>27.5</ele>
        <time>2022-05-31T10:26:38Z</time>
      </trkpt>
      <trkpt lat="49.42032" lon="0.22843">
        <ele>27.5</ele>
        <time>2022-05-31T10:26:39Z</time>
      </trkpt>
      <trkpt lat="49.42032" lon="0.22843">
        <ele>27.5</ele>
        <time>2022-05-31T10:26:40Z</time>
      </trkpt>
      <trkpt lat="49.42032" lon="0.22842">
        <ele>27.5</ele>
        <time>2022-05-31T10:26:42Z</time>
      </trkpt>
      <trkpt lat="49.42032" lon="0.22842">
        <ele>27.6</ele>
        <time>2022-05-31T10:26:43Z</time>
      </trkpt>
      <trkpt lat="49.42032" lon="0.22842">
        <ele>27.6</ele>
        <time>2022-05-31T10:26:44Z</time>
      </trkpt>
      <trkpt lat="49.42031" lon="0.22842">
        <ele>27.6</ele>
        <time>2022-05-31T10:26:46Z</time>
      </trkpt>
      <trkpt lat="49.42031" lon="0.22842">
        <ele>27.6</ele>
        <time>2022-05-31T10:26:47Z</time>
      </trkpt>
      <trkpt lat="49.42031" lon="0.22842">
        <ele>27.6</ele>
        <time>2022-05-31T10:26:48Z</time>
      </trkpt>
      <trkpt lat="49.42031" lon="0.22841">
        <ele>27.6</ele>
        <time>2022-05-31T10:26:49Z</time>
      </trkpt>
      <trkpt lat="49.4203" lon="0.2284">
        <ele>27.7</ele>
        <time>2022-05-31T10:26:50Z</time>
      </trkpt>
      <trkpt lat="49.4203" lon="0.2284">
        <ele>27.7</ele>
        <time>2022-05-31T10:26:51Z</time>
      </trkpt>
      <trkpt lat="49.4203" lon="0.2284">
        <ele>27.7</ele>
        <time>2022-05-31T10:26:52Z</time>
      </trkpt>
      <trkpt lat="49.4203" lon="0.22839">
        <ele>27.7</ele>
        <time>2022-05-31T10:26:53Z</time>
      </trkpt>
      <trkpt lat="49.42029" lon="0.2284">
        <ele>27.7</ele>
        <time>2022-05-31T10:26:54Z</time>
      </trkpt>
      <trkpt lat="49.42028" lon="0.2284">
        <ele>27.8</ele>
        <time>2022-05-31T10:26:55Z</time>
      </trkpt>
      <trkpt lat="49.42027" lon="0.22841">
        <ele>27.9</ele>
        <time>2022-05-31T10:26:57Z</time>
      </trkpt>
      <trkpt lat="49.42026" lon="0.22842">
        <ele>27.9</ele>
        <time>2022-05-31T10:26:58Z</time>
      </trkpt>
      <trkpt lat="49.42026" lon="0.22842">
        <ele>27.9</ele>
        <time>2022-05-31T10:26:59Z</time>
      </trkpt>
      <trkpt lat="49.42025" lon="0.2284">
        <ele>28</ele>
        <time>2022-05-31T10:27:00Z</time>
      </trkpt>
      <trkpt lat="49.42024" lon="0.22838">
        <ele>28.1</ele>
        <time>2022-05-31T10:27:01Z</time>
      </trkpt>
      <trkpt lat="49.42023" lon="0.22835">
        <ele>28.2</ele>
        <time>2022-05-31T10:27:02Z</time>
      </trkpt>
      <trkpt lat="49.42023" lon="0.22834">
        <ele>28.3</ele>
        <time>2022-05-31T10:27:04Z</time>
      </trkpt>
      <trkpt lat="49.42022" lon="0.22832">
        <ele>28.3</ele>
        <time>2022-05-31T10:27:05Z</time>
      </trkpt>
      <trkpt lat="49.42021" lon="0.22827">
        <ele>28.5</ele>
        <time>2022-05-31T10:27:06Z</time>
      </trkpt>
      <trkpt lat="49.4202" lon="0.22826">
        <ele>28.6</ele>
        <time>2022-05-31T10:27:07Z</time>
      </trkpt>
      <trkpt lat="49.42019" lon="0.22822">
        <ele>28.8</ele>
        <time>2022-05-31T10:27:08Z</time>
      </trkpt>
      <trkpt lat="49.42019" lon="0.22821">
        <ele>28.8</ele>
        <time>2022-05-31T10:27:09Z</time>
      </trkpt>
      <trkpt lat="49.42017" lon="0.22819">
        <ele>28.9</ele>
        <time>2022-05-31T10:27:11Z</time>
      </trkpt>
      <trkpt lat="49.42016" lon="0.22818">
        <ele>29</ele>
        <time>2022-05-31T10:27:12Z</time>
      </trkpt>
      <trkpt lat="49.42015" lon="0.22817">
        <ele>29.1</ele>
        <time>2022-05-31T10:27:13Z</time>
      </trkpt>
      <trkpt lat="49.42014" lon="0.22816">
        <ele>29.2</ele>
        <time>2022-05-31T10:27:14Z</time>
      </trkpt>
      <trkpt lat="49.42013" lon="0.22816">
        <ele>29.2</ele>
        <time>2022-05-31T10:27:15Z</time>
      </trkpt>
      <trkpt lat="49.42012" lon="0.22815">
        <ele>29.3</ele>
        <time>2022-05-31T10:27:16Z</time>
      </trkpt>
      <trkpt lat="49.42012" lon="0.22815">
        <ele>29.3</ele>
        <time>2022-05-31T10:27:17Z</time>
      </trkpt>
      <trkpt lat="49.42011" lon="0.22814">
        <ele>29.4</ele>
        <time>2022-05-31T10:27:18Z</time>
      </trkpt>
      <trkpt lat="49.42011" lon="0.22814">
        <ele>29.4</ele>
        <time>2022-05-31T10:27:19Z</time>
      </trkpt>
      <trkpt lat="49.42009" lon="0.22812">
        <ele>29.5</ele>
        <time>2022-05-31T10:27:20Z</time>
      </trkpt>
      <trkpt lat="49.42008" lon="0.22811">
        <ele>29.6</ele>
        <time>2022-05-31T10:27:22Z</time>
      </trkpt>
      <trkpt lat="49.42008" lon="0.2281">
        <ele>29.6</ele>
        <time>2022-05-31T10:27:23Z</time>
      </trkpt>
      <trkpt lat="49.42007" lon="0.22809">
        <ele>29.7</ele>
        <time>2022-05-31T10:27:24Z</time>
      </trkpt>
      <trkpt lat="49.42008" lon="0.22808">
        <ele>29.8</ele>
        <time>2022-05-31T10:27:25Z</time>
      </trkpt>
      <trkpt lat="49.42008" lon="0.22806">
        <ele>29.8</ele>
        <time>2022-05-31T10:27:26Z</time>
      </trkpt>
      <trkpt lat="49.42008" lon="0.22804">
        <ele>29.9</ele>
        <time>2022-05-31T10:27:28Z</time>
      </trkpt>
      <trkpt lat="49.42008" lon="0.22803">
        <ele>30</ele>
        <time>2022-05-31T10:27:29Z</time>
      </trkpt>
      <trkpt lat="49.42008" lon="0.22802">
        <ele>30</ele>
        <time>2022-05-31T10:27:30Z</time>
      </trkpt>
      <trkpt lat="49.42006" lon="0.22802">
        <ele>30.1</ele>
        <time>2022-05-31T10:27:31Z</time>
      </trkpt>
      <trkpt lat="49.42005" lon="0.22801">
        <ele>30.2</ele>
        <time>2022-05-31T10:27:33Z</time>
      </trkpt>
      <trkpt lat="49.42004" lon="0.22799">
        <ele>30.3</ele>
        <time>2022-05-31T10:27:34Z</time>
      </trkpt>
      <trkpt lat="49.42003" lon="0.22798">
        <ele>30.4</ele>
        <time>2022-05-31T10:27:35Z</time>
      </trkpt>
      <trkpt lat="49.42" lon="0.22795">
        <ele>30.6</ele>
        <time>2022-05-31T10:27:36Z</time>
      </trkpt>
      <trkpt lat="49.41999" lon="0.22794">
        <ele>30.7</ele>
        <time>2022-05-31T10:27:37Z</time>
      </trkpt>
      <trkpt lat="49.41997" lon="0.22791">
        <ele>31.1</ele>
        <time>2022-05-31T10:27:39Z</time>
      </trkpt>
      <trkpt lat="49.41996" lon="0.22789">
        <ele>31.2</ele>
        <time>2022-05-31T10:27:40Z</time>
      </trkpt>
      <trkpt lat="49.41995" lon="0.22787">
        <ele>31.5</ele>
        <time>2022-05-31T10:27:41Z</time>
      </trkpt>
      <trkpt lat="49.41994" lon="0.22786">
        <ele>31.5</ele>
        <time>2022-05-31T10:27:42Z</time>
      </trkpt>
      <trkpt lat="49.41993" lon="0.22785">
        <ele>31.7</ele>
        <time>2022-05-31T10:27:43Z</time>
      </trkpt>
      <trkpt lat="49.41992" lon="0.22784">
        <ele>31.8</ele>
        <time>2022-05-31T10:27:45Z</time>
      </trkpt>
      <trkpt lat="49.41991" lon="0.22783">
        <ele>31.9</ele>
        <time>2022-05-31T10:27:46Z</time>
      </trkpt>
      <trkpt lat="49.41991" lon="0.22782">
        <ele>32</ele>
        <time>2022-05-31T10:27:47Z</time>
      </trkpt>
      <trkpt lat="49.4199" lon="0.22781">
        <ele>32.1</ele>
        <time>2022-05-31T10:27:48Z</time>
      </trkpt>
      <trkpt lat="49.4199" lon="0.22781">
        <ele>32.2</ele>
        <time>2022-05-31T10:27:49Z</time>
      </trkpt>
      <trkpt lat="49.41989" lon="0.2278">
        <ele>32.2</ele>
        <time>2022-05-31T10:27:50Z</time>
      </trkpt>
      <trkpt lat="49.41989" lon="0.2278">
        <ele>32.3</ele>
        <time>2022-05-31T10:27:51Z</time>
      </trkpt>
      <trkpt lat="49.41989" lon="0.2278">
        <ele>32.3</ele>
        <time>2022-05-31T10:27:52Z</time>
      </trkpt>
      <trkpt lat="49.41989" lon="0.2278">
        <ele>32.3</ele>
        <time>2022-05-31T10:27:54Z</time>
      </trkpt>
      <trkpt lat="49.41989" lon="0.2278">
        <ele>32.3</ele>
        <time>2022-05-31T10:27:55Z</time>
      </trkpt>
      <trkpt lat="49.41989" lon="0.22781">
        <ele>32.4</ele>
        <time>2022-05-31T10:27:56Z</time>
      </trkpt>
      <trkpt lat="49.41989" lon="0.22781">
        <ele>32.5</ele>
        <time>2022-05-31T10:27:57Z</time>
      </trkpt>
      <trkpt lat="49.4199" lon="0.22782">
        <ele>32.5</ele>
        <time>2022-05-31T10:27:58Z</time>
      </trkpt>
      <trkpt lat="49.4199" lon="0.22782">
        <ele>32.6</ele>
        <time>2022-05-31T10:28:00Z</time>
      </trkpt>
      <trkpt lat="49.41989" lon="0.22782">
        <ele>32.6</ele>
        <time>2022-05-31T10:28:01Z</time>
      </trkpt>
      <trkpt lat="49.41988" lon="0.22781">
        <ele>32.8</ele>
        <time>2022-05-31T10:28:02Z</time>
      </trkpt>
      <trkpt lat="49.41988" lon="0.22781">
        <ele>32.9</ele>
        <time>2022-05-31T10:28:03Z</time>
      </trkpt>
      <trkpt lat="49.41986" lon="0.2278">
        <ele>33.1</ele>
        <time>2022-05-31T10:28:05Z</time>
      </trkpt>
      <trkpt lat="49.41986" lon="0.22779">
        <ele>33.1</ele>
        <time>2022-05-31T10:28:06Z</time>
      </trkpt>
      <trkpt lat="49.41986" lon="0.22779">
        <ele>33.2</ele>
        <time>2022-05-31T10:28:07Z</time>
      </trkpt>
      <trkpt lat="49.41987" lon="0.22778">
        <ele>33.2</ele>
        <time>2022-05-31T10:28:08Z</time>
      </trkpt>
      <trkpt lat="49.41986" lon="0.22778">
        <ele>33.3</ele>
        <time>2022-05-31T10:28:09Z</time>
      </trkpt>
      <trkpt lat="49.41986" lon="0.22777">
        <ele>33.3</ele>
        <time>2022-05-31T10:28:10Z</time>
      </trkpt>
      <trkpt lat="49.41986" lon="0.22777">
        <ele>33.4</ele>
        <time>2022-05-31T10:28:11Z</time>
      </trkpt>
      <trkpt lat="49.41986" lon="0.22777">
        <ele>33.4</ele>
        <time>2022-05-31T10:28:12Z</time>
      </trkpt>
      <trkpt lat="49.41986" lon="0.22777">
        <ele>33.4</ele>
        <time>2022-05-31T10:28:13Z</time>
      </trkpt>
      <trkpt lat="49.41986" lon="0.22777">
        <ele>33.4</ele>
        <time>2022-05-31T10:28:14Z</time>
      </trkpt>
      <trkpt lat="49.41986" lon="0.22777">
        <ele>33.4</ele>
        <time>2022-05-31T10:28:15Z</time>
      </trkpt>
      <trkpt lat="49.41986" lon="0.22777">
        <ele>33.4</ele>
        <time>2022-05-31T10:28:16Z</time>
      </trkpt>
      <trkpt lat="49.41986" lon="0.22777">
        <ele>33.5</ele>
        <time>2022-05-31T10:28:17Z</time>
      </trkpt>
      <trkpt lat="49.41985" lon="0.22777">
        <ele>33.5</ele>
        <time>2022-05-31T10:28:18Z</time>
      </trkpt>
      <trkpt lat="49.41985" lon="0.22777">
        <ele>33.5</ele>
        <time>2022-05-31T10:28:19Z</time>
      </trkpt>
      <trkpt lat="49.41985" lon="0.22777">
        <ele>33.5</ele>
        <time>2022-05-31T10:28:20Z</time>
      </trkpt>
      <trkpt lat="49.41985" lon="0.22776">
        <ele>33.6</ele>
        <time>2022-05-31T10:28:21Z</time>
      </trkpt>
      <trkpt lat="49.41985" lon="0.22776">
        <ele>33.6</ele>
        <time>2022-05-31T10:28:22Z</time>
      </trkpt>
      <trkpt lat="49.41985" lon="0.22776">
        <ele>33.6</ele>
        <time>2022-05-31T10:28:23Z</time>
      </trkpt>
      <trkpt lat="49.41985" lon="0.22776">
        <ele>33.6</ele>
        <time>2022-05-31T10:28:24Z</time>
      </trkpt>
      <trkpt lat="49.41985" lon="0.22776">
        <ele>33.7</ele>
        <time>2022-05-31T10:28:25Z</time>
      </trkpt>
      <trkpt lat="49.41984" lon="0.22775">
        <ele>33.8</ele>
        <time>2022-05-31T10:28:26Z</time>
      </trkpt>
      <trkpt lat="49.41984" lon="0.22774">
        <ele>33.8</ele>
        <time>2022-05-31T10:28:27Z</time>
      </trkpt>
      <trkpt lat="49.41983" lon="0.22773">
        <ele>34</ele>
        <time>2022-05-31T10:28:29Z</time>
      </trkpt>
      <trkpt lat="49.41982" lon="0.2277">
        <ele>34.3</ele>
        <time>2022-05-31T10:28:31Z</time>
      </trkpt>
      <trkpt lat="49.41982" lon="0.2277">
        <ele>34.3</ele>
        <time>2022-05-31T10:28:32Z</time>
      </trkpt>
      <trkpt lat="49.41981" lon="0.2277">
        <ele>34.5</ele>
        <time>2022-05-31T10:28:33Z</time>
      </trkpt>
      <trkpt lat="49.41979" lon="0.22769">
        <ele>34.8</ele>
        <time>2022-05-31T10:28:35Z</time>
      </trkpt>
      <trkpt lat="49.41977" lon="0.22766">
        <ele>35.2</ele>
        <time>2022-05-31T10:28:36Z</time>
      </trkpt>
      <trkpt lat="49.41975" lon="0.22764">
        <ele>35.5</ele>
        <time>2022-05-31T10:28:37Z</time>
      </trkpt>
      <trkpt lat="49.41974" lon="0.22763">
        <ele>35.6</ele>
        <time>2022-05-31T10:28:38Z</time>
      </trkpt>
      <trkpt lat="49.41974" lon="0.22762">
        <ele>35.8</ele>
        <time>2022-05-31T10:28:39Z</time>
      </trkpt>
      <trkpt lat="49.41974" lon="0.22761">
        <ele>35.8</ele>
        <time>2022-05-31T10:28:41Z</time>
      </trkpt>
      <trkpt lat="49.41974" lon="0.2276">
        <ele>35.9</ele>
        <time>2022-05-31T10:28:42Z</time>
      </trkpt>
      <trkpt lat="49.41974" lon="0.22759">
        <ele>36</ele>
        <time>2022-05-31T10:28:43Z</time>
      </trkpt>
      <trkpt lat="49.41973" lon="0.22757">
        <ele>36.3</ele>
        <time>2022-05-31T10:28:45Z</time>
      </trkpt>
      <trkpt lat="49.41972" lon="0.22755">
        <ele>36.5</ele>
        <time>2022-05-31T10:28:46Z</time>
      </trkpt>
      <trkpt lat="49.41972" lon="0.22754">
        <ele>36.6</ele>
        <time>2022-05-31T10:28:47Z</time>
      </trkpt>
      <trkpt lat="49.41971" lon="0.22753">
        <ele>36.7</ele>
        <time>2022-05-31T10:28:48Z</time>
      </trkpt>
      <trkpt lat="49.41971" lon="0.22753">
        <ele>36.7</ele>
        <time>2022-05-31T10:28:49Z</time>
      </trkpt>
      <trkpt lat="49.4197" lon="0.22753">
        <ele>36.9</ele>
        <time>2022-05-31T10:28:50Z</time>
      </trkpt>
      <trkpt lat="49.41971" lon="0.22753">
        <ele>36.9</ele>
        <time>2022-05-31T10:28:51Z</time>
      </trkpt>
      <trkpt lat="49.4197" lon="0.22753">
        <ele>36.9</ele>
        <time>2022-05-31T10:28:52Z</time>
      </trkpt>
      <trkpt lat="49.4197" lon="0.22752">
        <ele>37.1</ele>
        <time>2022-05-31T10:28:53Z</time>
      </trkpt>
      <trkpt lat="49.41969" lon="0.22751">
        <ele>37.2</ele>
        <time>2022-05-31T10:28:54Z</time>
      </trkpt>
      <trkpt lat="49.41969" lon="0.22749">
        <ele>37.4</ele>
        <time>2022-05-31T10:28:56Z</time>
      </trkpt>
      <trkpt lat="49.41968" lon="0.22748">
        <ele>37.6</ele>
        <time>2022-05-31T10:28:57Z</time>
      </trkpt>
      <trkpt lat="49.41968" lon="0.22747">
        <ele>37.6</ele>
        <time>2022-05-31T10:28:58Z</time>
      </trkpt>
      <trkpt lat="49.41967" lon="0.22747">
        <ele>37.7</ele>
        <time>2022-05-31T10:28:59Z</time>
      </trkpt>
      <trkpt lat="49.41966" lon="0.22746">
        <ele>37.9</ele>
        <time>2022-05-31T10:29:01Z</time>
      </trkpt>
      <trkpt lat="49.41966" lon="0.22748">
        <ele>38.1</ele>
        <time>2022-05-31T10:29:02Z</time>
      </trkpt>
      <trkpt lat="49.41965" lon="0.22747">
        <ele>38.2</ele>
        <time>2022-05-31T10:29:03Z</time>
      </trkpt>
      <trkpt lat="49.41965" lon="0.22747">
        <ele>38.3</ele>
        <time>2022-05-31T10:29:04Z</time>
      </trkpt>
      <trkpt lat="49.41964" lon="0.22746">
        <ele>38.4</ele>
        <time>2022-05-31T10:29:05Z</time>
      </trkpt>
      <trkpt lat="49.41964" lon="0.22746">
        <ele>38.5</ele>
        <time>2022-05-31T10:29:06Z</time>
      </trkpt>
      <trkpt lat="49.41963" lon="0.22746">
        <ele>38.7</ele>
        <time>2022-05-31T10:29:07Z</time>
      </trkpt>
      <trkpt lat="49.41962" lon="0.22745">
        <ele>38.9</ele>
        <time>2022-05-31T10:29:09Z</time>
      </trkpt>
      <trkpt lat="49.41961" lon="0.22744">
        <ele>39.1</ele>
        <time>2022-05-31T10:29:10Z</time>
      </trkpt>
      <trkpt lat="49.4196" lon="0.22743">
        <ele>39.2</ele>
        <time>2022-05-31T10:29:11Z</time>
      </trkpt>
      <trkpt lat="49.4196" lon="0.22743">
        <ele>39.2</ele>
        <time>2022-05-31T10:29:13Z</time>
      </trkpt>
      <trkpt lat="49.4196" lon="0.22742">
        <ele>39.3</ele>
        <time>2022-05-31T10:29:14Z</time>
      </trkpt>
      <trkpt lat="49.41959" lon="0.22742">
        <ele>39.4</ele>
        <time>2022-05-31T10:29:15Z</time>
      </trkpt>
      <trkpt lat="49.41959" lon="0.22742">
        <ele>39.4</ele>
        <time>2022-05-31T10:29:17Z</time>
      </trkpt>
      <trkpt lat="49.41959" lon="0.22741">
        <ele>39.5</ele>
        <time>2022-05-31T10:29:18Z</time>
      </trkpt>
      <trkpt lat="49.41959" lon="0.22741">
        <ele>39.6</ele>
        <time>2022-05-31T10:29:19Z</time>
      </trkpt>
      <trkpt lat="49.41959" lon="0.2274">
        <ele>39.7</ele>
        <time>2022-05-31T10:29:21Z</time>
      </trkpt>
      <trkpt lat="49.41959" lon="0.22738">
        <ele>39.8</ele>
        <time>2022-05-31T10:29:22Z</time>
      </trkpt>
      <trkpt lat="49.41959" lon="0.22738">
        <ele>39.9</ele>
        <time>2022-05-31T10:29:23Z</time>
      </trkpt>
      <trkpt lat="49.41959" lon="0.22737">
        <ele>40</ele>
        <time>2022-05-31T10:29:24Z</time>
      </trkpt>
      <trkpt lat="49.41959" lon="0.22736">
        <ele>40.1</ele>
        <time>2022-05-31T10:29:26Z</time>
      </trkpt>
      <trkpt lat="49.41959" lon="0.22735">
        <ele>40.2</ele>
        <time>2022-05-31T10:29:27Z</time>
      </trkpt>
      <trkpt lat="49.41961" lon="0.22736">
        <ele>40.5</ele>
        <time>2022-05-31T10:29:28Z</time>
      </trkpt>
      <trkpt lat="49.41962" lon="0.22736">
        <ele>40.7</ele>
        <time>2022-05-31T10:29:30Z</time>
      </trkpt>
      <trkpt lat="49.41962" lon="0.22736">
        <ele>40.7</ele>
        <time>2022-05-31T10:29:31Z</time>
      </trkpt>
      <trkpt lat="49.41962" lon="0.22736">
        <ele>40.7</ele>
        <time>2022-05-31T10:29:32Z</time>
      </trkpt>
      <trkpt lat="49.41962" lon="0.22736">
        <ele>40.8</ele>
        <time>2022-05-31T10:29:33Z</time>
      </trkpt>
      <trkpt lat="49.41962" lon="0.22736">
        <ele>40.8</ele>
        <time>2022-05-31T10:29:34Z</time>
      </trkpt>
      <trkpt lat="49.41962" lon="0.22735">
        <ele>40.8</ele>
        <time>2022-05-31T10:29:36Z</time>
      </trkpt>
      <trkpt lat="49.41962" lon="0.22735">
        <ele>40.9</ele>
        <time>2022-05-31T10:29:37Z</time>
      </trkpt>
      <trkpt lat="49.41961" lon="0.22734">
        <ele>41.1</ele>
        <time>2022-05-31T10:29:38Z</time>
      </trkpt>
      <trkpt lat="49.41961" lon="0.22733">
        <ele>41.2</ele>
        <time>2022-05-31T10:29:39Z</time>
      </trkpt>
      <trkpt lat="49.41961" lon="0.22732">
        <ele>41.3</ele>
        <time>2022-05-31T10:29:40Z</time>
      </trkpt>
      <trkpt lat="49.4196" lon="0.22731">
        <ele>41.4</ele>
        <time>2022-05-31T10:29:41Z</time>
      </trkpt>
      <trkpt lat="49.4196" lon="0.2273">
        <ele>41.5</ele>
        <time>2022-05-31T10:29:42Z</time>
      </trkpt>
      <trkpt lat="49.41959" lon="0.22728">
        <ele>41.7</ele>
        <time>2022-05-31T10:29:44Z</time>
      </trkpt>
      <trkpt lat="49.41959" lon="0.22727">
        <ele>41.9</ele>
        <time>2022-05-31T10:29:45Z</time>
      </trkpt>
      <trkpt lat="49.41958" lon="0.22726">
        <ele>42</ele>
        <time>2022-05-31T10:29:47Z</time>
      </trkpt>
      <trkpt lat="49.41958" lon="0.22727">
        <ele>42</ele>
        <time>2022-05-31T10:29:48Z</time>
      </trkpt>
      <trkpt lat="49.4196" lon="0.22731">
        <ele>42.6</ele>
        <time>2022-05-31T10:29:49Z</time>
      </trkpt>
      <trkpt lat="49.4196" lon="0.22733">
        <ele>42.9</ele>
        <time>2022-05-31T10:29:50Z</time>
      </trkpt>
      <trkpt lat="49.41961" lon="0.22734">
        <ele>43</ele>
        <time>2022-05-31T10:29:52Z</time>
      </trkpt>
      <trkpt lat="49.41961" lon="0.22735">
        <ele>43.1</ele>
        <time>2022-05-31T10:29:53Z</time>
      </trkpt>
      <trkpt lat="49.41961" lon="0.22735">
        <ele>43.1</ele>
        <time>2022-05-31T10:29:54Z</time>
      </trkpt>
      <trkpt lat="49.41962" lon="0.22735">
        <ele>43.2</ele>
        <time>2022-05-31T10:29:55Z</time>
      </trkpt>
      <trkpt lat="49.41962" lon="0.22734">
        <ele>43.3</ele>
        <time>2022-05-31T10:29:56Z</time>
      </trkpt>
      <trkpt lat="49.41962" lon="0.22734">
        <ele>43.4</ele>
        <time>2022-05-31T10:29:57Z</time>
      </trkpt>
      <trkpt lat="49.41963" lon="0.22734">
        <ele>43.4</ele>
        <time>2022-05-31T10:29:58Z</time>
      </trkpt>
      <trkpt lat="49.41963" lon="0.22733">
        <ele>43.5</ele>
        <time>2022-05-31T10:30:00Z</time>
      </trkpt>
      <trkpt lat="49.41963" lon="0.22733">
        <ele>43.6</ele>
        <time>2022-05-31T10:30:01Z</time>
      </trkpt>
      <trkpt lat="49.41964" lon="0.22733">
        <ele>43.6</ele>
        <time>2022-05-31T10:30:02Z</time>
      </trkpt>
      <trkpt lat="49.41964" lon="0.22732">
        <ele>43.7</ele>
        <time>2022-05-31T10:30:03Z</time>
      </trkpt>
      <trkpt lat="49.41964" lon="0.22732">
        <ele>43.8</ele>
        <time>2022-05-31T10:30:04Z</time>
      </trkpt>
      <trkpt lat="49.41965" lon="0.22732">
        <ele>43.9</ele>
        <time>2022-05-31T10:30:05Z</time>
      </trkpt>
      <trkpt lat="49.41965" lon="0.22732">
        <ele>43.9</ele>
        <time>2022-05-31T10:30:06Z</time>
      </trkpt>
      <trkpt lat="49.41966" lon="0.22733">
        <ele>44.1</ele>
        <time>2022-05-31T10:30:08Z</time>
      </trkpt>
      <trkpt lat="49.41967" lon="0.22732">
        <ele>44.3</ele>
        <time>2022-05-31T10:30:10Z</time>
      </trkpt>
      <trkpt lat="49.41968" lon="0.22731">
        <ele>44.5</ele>
        <time>2022-05-31T10:30:11Z</time>
      </trkpt>
      <trkpt lat="49.41969" lon="0.22731">
        <ele>44.7</ele>
        <time>2022-05-31T10:30:12Z</time>
      </trkpt>
      <trkpt lat="49.4197" lon="0.2273">
        <ele>44.8</ele>
        <time>2022-05-31T10:30:13Z</time>
      </trkpt>
      <trkpt lat="49.4197" lon="0.22729">
        <ele>45</ele>
        <time>2022-05-31T10:30:14Z</time>
      </trkpt>
      <trkpt lat="49.41971" lon="0.22728">
        <ele>45.2</ele>
        <time>2022-05-31T10:30:15Z</time>
      </trkpt>
      <trkpt lat="49.41972" lon="0.22727">
        <ele>45.4</ele>
        <time>2022-05-31T10:30:16Z</time>
      </trkpt>
      <trkpt lat="49.41972" lon="0.22723">
        <ele>45.8</ele>
        <time>2022-05-31T10:30:18Z</time>
      </trkpt>
      <trkpt lat="49.4197" lon="0.22721">
        <ele>46.2</ele>
        <time>2022-05-31T10:30:19Z</time>
      </trkpt>
      <trkpt lat="49.41969" lon="0.22717">
        <ele>46.8</ele>
        <time>2022-05-31T10:30:20Z</time>
      </trkpt>
      <trkpt lat="49.41969" lon="0.22715">
        <ele>47</ele>
        <time>2022-05-31T10:30:21Z</time>
      </trkpt>
      <trkpt lat="49.41968" lon="0.22713">
        <ele>47.3</ele>
        <time>2022-05-31T10:30:22Z</time>
      </trkpt>
      <trkpt lat="49.41968" lon="0.22712">
        <ele>47.5</ele>
        <time>2022-05-31T10:30:23Z</time>
      </trkpt>
      <trkpt lat="49.41966" lon="0.22709">
        <ele>48.1</ele>
        <time>2022-05-31T10:30:24Z</time>
      </trkpt>
      <trkpt lat="49.41965" lon="0.22708">
        <ele>48.3</ele>
        <time>2022-05-31T10:30:25Z</time>
      </trkpt>
      <trkpt lat="49.41964" lon="0.22706">
        <ele>48.7</ele>
        <time>2022-05-31T10:30:27Z</time>
      </trkpt>
      <trkpt lat="49.41964" lon="0.22704">
        <ele>48.9</ele>
        <time>2022-05-31T10:30:28Z</time>
      </trkpt>
      <trkpt lat="49.41964" lon="0.22703">
        <ele>49.1</ele>
        <time>2022-05-31T10:30:29Z</time>
      </trkpt>
      <trkpt lat="49.41964" lon="0.22701">
        <ele>49.4</ele>
        <time>2022-05-31T10:30:30Z</time>
      </trkpt>
      <trkpt lat="49.41964" lon="0.22699">
        <ele>49.6</ele>
        <time>2022-05-31T10:30:31Z</time>
      </trkpt>
      <trkpt lat="49.41964" lon="0.22697">
        <ele>49.9</ele>
        <time>2022-05-31T10:30:33Z</time>
      </trkpt>
      <trkpt lat="49.41964" lon="0.22696">
        <ele>50.1</ele>
        <time>2022-05-31T10:30:34Z</time>
      </trkpt>
      <trkpt lat="49.41964" lon="0.22695">
        <ele>50.2</ele>
        <time>2022-05-31T10:30:35Z</time>
      </trkpt>
      <trkpt lat="49.41964" lon="0.22696">
        <ele>50.4</ele>
        <time>2022-05-31T10:30:37Z</time>
      </trkpt>
      <trkpt lat="49.41964" lon="0.22697">
        <ele>50.5</ele>
        <time>2022-05-31T10:30:38Z</time>
      </trkpt>
      <trkpt lat="49.41964" lon="0.22696">
        <ele>50.6</ele>
        <time>2022-05-31T10:30:39Z</time>
      </trkpt>
      <trkpt lat="49.41965" lon="0.22696">
        <ele>50.7</ele>
        <time>2022-05-31T10:30:40Z</time>
      </trkpt>
      <trkpt lat="49.41965" lon="0.22695">
        <ele>50.8</ele>
        <time>2022-05-31T10:30:42Z</time>
      </trkpt>
      <trkpt lat="49.41965" lon="0.22695">
        <ele>50.8</ele>
        <time>2022-05-31T10:30:43Z</time>
      </trkpt>
      <trkpt lat="49.41966" lon="0.22695">
        <ele>50.9</ele>
        <time>2022-05-31T10:30:45Z</time>
      </trkpt>
      <trkpt lat="49.41966" lon="0.22695">
        <ele>50.9</ele>
        <time>2022-05-31T10:30:46Z</time>
      </trkpt>
      <trkpt lat="49.41966" lon="0.22695">
        <ele>50.9</ele>
        <time>2022-05-31T10:30:47Z</time>
      </trkpt>
      <trkpt lat="49.41966" lon="0.22694">
        <ele>51.1</ele>
        <time>2022-05-31T10:30:49Z</time>
      </trkpt>
      <trkpt lat="49.41966" lon="0.22693">
        <ele>51.1</ele>
        <time>2022-05-31T10:30:50Z</time>
      </trkpt>
      <trkpt lat="49.41966" lon="0.22692">
        <ele>51.3</ele>
        <time>2022-05-31T10:30:51Z</time>
      </trkpt>
      <trkpt lat="49.41966" lon="0.22691">
        <ele>51.5</ele>
        <time>2022-05-31T10:30:52Z</time>
      </trkpt>
      <trkpt lat="49.41966" lon="0.22691">
        <ele>51.5</ele>
        <time>2022-05-31T10:30:54Z</time>
      </trkpt>
      <trkpt lat="49.41966" lon="0.2269">
        <ele>51.6</ele>
        <time>2022-05-31T10:30:55Z</time>
      </trkpt>
      <trkpt lat="49.41966" lon="0.2269">
        <ele>51.7</ele>
        <time>2022-05-31T10:30:57Z</time>
      </trkpt>
      <trkpt lat="49.41966" lon="0.22689">
        <ele>51.8</ele>
        <time>2022-05-31T10:30:58Z</time>
      </trkpt>
      <trkpt lat="49.41966" lon="0.22689">
        <ele>51.9</ele>
        <time>2022-05-31T10:30:59Z</time>
      </trkpt>
      <trkpt lat="49.41966" lon="0.22688">
        <ele>52</ele>
        <time>2022-05-31T10:31:00Z</time>
      </trkpt>
      <trkpt lat="49.41966" lon="0.22688">
        <ele>52</ele>
        <time>2022-05-31T10:31:01Z</time>
      </trkpt>
      <trkpt lat="49.41966" lon="0.22688">
        <ele>52.1</ele>
        <time>2022-05-31T10:31:02Z</time>
      </trkpt>
      <trkpt lat="49.41967" lon="0.22687">
        <ele>52.2</ele>
        <time>2022-05-31T10:31:03Z</time>
      </trkpt>
      <trkpt lat="49.41967" lon="0.22687">
        <ele>52.3</ele>
        <time>2022-05-31T10:31:04Z</time>
      </trkpt>
      <trkpt lat="49.41967" lon="0.22686">
        <ele>52.4</ele>
        <time>2022-05-31T10:31:06Z</time>
      </trkpt>
      <trkpt lat="49.41967" lon="0.22686">
        <ele>52.5</ele>
        <time>2022-05-31T10:31:07Z</time>
      </trkpt>
      <trkpt lat="49.41967" lon="0.22685">
        <ele>52.5</ele>
        <time>2022-05-31T10:31:08Z</time>
      </trkpt>
      <trkpt lat="49.41968" lon="0.22685">
        <ele>52.6</ele>
        <time>2022-05-31T10:31:10Z</time>
      </trkpt>
      <trkpt lat="49.41968" lon="0.22684">
        <ele>52.8</ele>
        <time>2022-05-31T10:31:11Z</time>
      </trkpt>
      <trkpt lat="49.41968" lon="0.22683">
        <ele>52.8</ele>
        <time>2022-05-31T10:31:12Z</time>
      </trkpt>
      <trkpt lat="49.41968" lon="0.22683">
        <ele>52.9</ele>
        <time>2022-05-31T10:31:13Z</time>
      </trkpt>
      <trkpt lat="49.41968" lon="0.22682">
        <ele>53</ele>
        <time>2022-05-31T10:31:14Z</time>
      </trkpt>
      <trkpt lat="49.41969" lon="0.22681">
        <ele>53.1</ele>
        <time>2022-05-31T10:31:16Z</time>
      </trkpt>
      <trkpt lat="49.41968" lon="0.22681">
        <ele>53.3</ele>
        <time>2022-05-31T10:31:17Z</time>
      </trkpt>
      <trkpt lat="49.41968" lon="0.2268">
        <ele>53.5</ele>
        <time>2022-05-31T10:31:18Z</time>
      </trkpt>
      <trkpt lat="49.41968" lon="0.22677">
        <ele>53.8</ele>
        <time>2022-05-31T10:31:20Z</time>
      </trkpt>
      <trkpt lat="49.41969" lon="0.22676">
        <ele>54</ele>
        <time>2022-05-31T10:31:21Z</time>
      </trkpt>
      <trkpt lat="49.4197" lon="0.22674">
        <ele>55.2</ele>
        <time>2022-05-31T10:31:22Z</time>
      </trkpt>
      <trkpt lat="49.41971" lon="0.22673">
        <ele>55.4</ele>
        <time>2022-05-31T10:31:23Z</time>
      </trkpt>
      <trkpt lat="49.41972" lon="0.22672">
        <ele>55.7</ele>
        <time>2022-05-31T10:31:25Z</time>
      </trkpt>
      <trkpt lat="49.41973" lon="0.22671">
        <ele>55.9</ele>
        <time>2022-05-31T10:31:26Z</time>
      </trkpt>
      <trkpt lat="49.41973" lon="0.2267">
        <ele>56</ele>
        <time>2022-05-31T10:31:27Z</time>
      </trkpt>
      <trkpt lat="49.41972" lon="0.22672">
        <ele>56.3</ele>
        <time>2022-05-31T10:31:28Z</time>
      </trkpt>
      <trkpt lat="49.41972" lon="0.22671">
        <ele>56.3</ele>
        <time>2022-05-31T10:31:29Z</time>
      </trkpt>
      <trkpt lat="49.41972" lon="0.22671">
        <ele>56.4</ele>
        <time>2022-05-31T10:31:30Z</time>
      </trkpt>
      <trkpt lat="49.41973" lon="0.22669">
        <ele>56.6</ele>
        <time>2022-05-31T10:31:32Z</time>
      </trkpt>
      <trkpt lat="49.41973" lon="0.22669">
        <ele>56.6</ele>
        <time>2022-05-31T10:31:33Z</time>
      </trkpt>
      <trkpt lat="49.41973" lon="0.2267">
        <ele>56.7</ele>
        <time>2022-05-31T10:31:34Z</time>
      </trkpt>
      <trkpt lat="49.41974" lon="0.22669">
        <ele>56.8</ele>
        <time>2022-05-31T10:31:36Z</time>
      </trkpt>
      <trkpt lat="49.41974" lon="0.22669">
        <ele>56.9</ele>
        <time>2022-05-31T10:31:37Z</time>
      </trkpt>
      <trkpt lat="49.41974" lon="0.22669">
        <ele>56.9</ele>
        <time>2022-05-31T10:31:39Z</time>
      </trkpt>
      <trkpt lat="49.41973" lon="0.22669">
        <ele>56.9</ele>
        <time>2022-05-31T10:31:40Z</time>
      </trkpt>
      <trkpt lat="49.41974" lon="0.22668">
        <ele>57</ele>
        <time>2022-05-31T10:31:41Z</time>
      </trkpt>
      <trkpt lat="49.41973" lon="0.22668">
        <ele>57</ele>
        <time>2022-05-31T10:31:42Z</time>
      </trkpt>
      <trkpt lat="49.41973" lon="0.22668">
        <ele>57.1</ele>
        <time>2022-05-31T10:31:43Z</time>
      </trkpt>
      <trkpt lat="49.41973" lon="0.22667">
        <ele>57.1</ele>
        <time>2022-05-31T10:31:44Z</time>
      </trkpt>
      <trkpt lat="49.41973" lon="0.22668">
        <ele>57.2</ele>
        <time>2022-05-31T10:31:45Z</time>
      </trkpt>
      <trkpt lat="49.41973" lon="0.22668">
        <ele>57.2</ele>
        <time>2022-05-31T10:31:47Z</time>
      </trkpt>
      <trkpt lat="49.41974" lon="0.22667">
        <ele>57.3</ele>
        <time>2022-05-31T10:31:48Z</time>
      </trkpt>
      <trkpt lat="49.41974" lon="0.22668">
        <ele>57.4</ele>
        <time>2022-05-31T10:31:50Z</time>
      </trkpt>
      <trkpt lat="49.41975" lon="0.22668">
        <ele>57.5</ele>
        <time>2022-05-31T10:31:51Z</time>
      </trkpt>
      <trkpt lat="49.41975" lon="0.22668">
        <ele>57.5</ele>
        <time>2022-05-31T10:31:52Z</time>
      </trkpt>
      <trkpt lat="49.41975" lon="0.22669">
        <ele>57.6</ele>
        <time>2022-05-31T10:31:54Z</time>
      </trkpt>
      <trkpt lat="49.41975" lon="0.22669">
        <ele>57.7</ele>
        <time>2022-05-31T10:31:55Z</time>
      </trkpt>
      <trkpt lat="49.41975" lon="0.2267">
        <ele>57.7</ele>
        <time>2022-05-31T10:31:56Z</time>
      </trkpt>
      <trkpt lat="49.41976" lon="0.2267">
        <ele>57.7</ele>
        <time>2022-05-31T10:31:57Z</time>
      </trkpt>
      <trkpt lat="49.41975" lon="0.22669">
        <ele>57.8</ele>
        <time>2022-05-31T10:31:58Z</time>
      </trkpt>
      <trkpt lat="49.41976" lon="0.22669">
        <ele>57.8</ele>
        <time>2022-05-31T10:31:59Z</time>
      </trkpt>
      <trkpt lat="49.41976" lon="0.22669">
        <ele>57.9</ele>
        <time>2022-05-31T10:32:00Z</time>
      </trkpt>
      <trkpt lat="49.41976" lon="0.22668">
        <ele>57.9</ele>
        <time>2022-05-31T10:32:01Z</time>
      </trkpt>
      <trkpt lat="49.41976" lon="0.22669">
        <ele>58</ele>
        <time>2022-05-31T10:32:02Z</time>
      </trkpt>
      <trkpt lat="49.41976" lon="0.22669">
        <ele>58</ele>
        <time>2022-05-31T10:32:03Z</time>
      </trkpt>
      <trkpt lat="49.41977" lon="0.22669">
        <ele>58.1</ele>
        <time>2022-05-31T10:32:04Z</time>
      </trkpt>
      <trkpt lat="49.41977" lon="0.22669">
        <ele>58.1</ele>
        <time>2022-05-31T10:32:05Z</time>
      </trkpt>
      <trkpt lat="49.41977" lon="0.22669">
        <ele>58.2</ele>
        <time>2022-05-31T10:32:06Z</time>
      </trkpt>
      <trkpt lat="49.41978" lon="0.22669">
        <ele>58.2</ele>
        <time>2022-05-31T10:32:07Z</time>
      </trkpt>
      <trkpt lat="49.41978" lon="0.22669">
        <ele>58.3</ele>
        <time>2022-05-31T10:32:08Z</time>
      </trkpt>
      <trkpt lat="49.41979" lon="0.22669">
        <ele>58.4</ele>
        <time>2022-05-31T10:32:09Z</time>
      </trkpt>
      <trkpt lat="49.41979" lon="0.22669">
        <ele>58.4</ele>
        <time>2022-05-31T10:32:11Z</time>
      </trkpt>
      <trkpt lat="49.41979" lon="0.22669">
        <ele>58.5</ele>
        <time>2022-05-31T10:32:12Z</time>
      </trkpt>
      <trkpt lat="49.4198" lon="0.22669">
        <ele>58.5</ele>
        <time>2022-05-31T10:32:14Z</time>
      </trkpt>
      <trkpt lat="49.4198" lon="0.22669">
        <ele>58.6</ele>
        <time>2022-05-31T10:32:15Z</time>
      </trkpt>
      <trkpt lat="49.4198" lon="0.22669">
        <ele>58.6</ele>
        <time>2022-05-31T10:32:16Z</time>
      </trkpt>
      <trkpt lat="49.41981" lon="0.22669">
        <ele>58.7</ele>
        <time>2022-05-31T10:32:17Z</time>
      </trkpt>
      <trkpt lat="49.41981" lon="0.22669">
        <ele>58.7</ele>
        <time>2022-05-31T10:32:19Z</time>
      </trkpt>
      <trkpt lat="49.41981" lon="0.22669">
        <ele>58.8</ele>
        <time>2022-05-31T10:32:20Z</time>
      </trkpt>
      <trkpt lat="49.41982" lon="0.22669">
        <ele>58.8</ele>
        <time>2022-05-31T10:32:21Z</time>
      </trkpt>
      <trkpt lat="49.41982" lon="0.22669">
        <ele>58.9</ele>
        <time>2022-05-31T10:32:23Z</time>
      </trkpt>
      <trkpt lat="49.41982" lon="0.22669">
        <ele>59</ele>
        <time>2022-05-31T10:32:24Z</time>
      </trkpt>
      <trkpt lat="49.41983" lon="0.22669">
        <ele>59</ele>
        <time>2022-05-31T10:32:26Z</time>
      </trkpt>
      <trkpt lat="49.41983" lon="0.22669">
        <ele>59.1</ele>
        <time>2022-05-31T10:32:27Z</time>
      </trkpt>
      <trkpt lat="49.41984" lon="0.2267">
        <ele>59.2</ele>
        <time>2022-05-31T10:32:28Z</time>
      </trkpt>
      <trkpt lat="49.41985" lon="0.2267">
        <ele>59.3</ele>
        <time>2022-05-31T10:32:29Z</time>
      </trkpt>
      <trkpt lat="49.41985" lon="0.2267">
        <ele>59.4</ele>
        <time>2022-05-31T10:32:30Z</time>
      </trkpt>
      <trkpt lat="49.41986" lon="0.2267">
        <ele>59.5</ele>
        <time>2022-05-31T10:32:31Z</time>
      </trkpt>
      <trkpt lat="49.41987" lon="0.2267">
        <ele>59.6</ele>
        <time>2022-05-31T10:32:32Z</time>
      </trkpt>
      <trkpt lat="49.41988" lon="0.2267">
        <ele>59.8</ele>
        <time>2022-05-31T10:32:33Z</time>
      </trkpt>
      <trkpt lat="49.4199" lon="0.2267">
        <ele>60.1</ele>
        <time>2022-05-31T10:32:35Z</time>
      </trkpt>
      <trkpt lat="49.41992" lon="0.22669">
        <ele>60.4</ele>
        <time>2022-05-31T10:32:36Z</time>
      </trkpt>
      <trkpt lat="49.41994" lon="0.22668">
        <ele>60.6</ele>
        <time>2022-05-31T10:32:37Z</time>
      </trkpt>
      <trkpt lat="49.41995" lon="0.22667">
        <ele>60.8</ele>
        <time>2022-05-31T10:32:38Z</time>
      </trkpt>
      <trkpt lat="49.41995" lon="0.22667">
        <ele>60.9</ele>
        <time>2022-05-31T10:32:39Z</time>
      </trkpt>
      <trkpt lat="49.41996" lon="0.22667">
        <ele>61</ele>
        <time>2022-05-31T10:32:40Z</time>
      </trkpt>
      <trkpt lat="49.41997" lon="0.22667">
        <ele>61.1</ele>
        <time>2022-05-31T10:32:42Z</time>
      </trkpt>
      <trkpt lat="49.41998" lon="0.22667">
        <ele>61.3</ele>
        <time>2022-05-31T10:32:43Z</time>
      </trkpt>
      <trkpt lat="49.41999" lon="0.22667">
        <ele>61.4</ele>
        <time>2022-05-31T10:32:45Z</time>
      </trkpt>
      <trkpt lat="49.42" lon="0.22666">
        <ele>61.5</ele>
        <time>2022-05-31T10:32:46Z</time>
      </trkpt>
      <trkpt lat="49.42001" lon="0.22665">
        <ele>61.6</ele>
        <time>2022-05-31T10:32:47Z</time>
      </trkpt>
      <trkpt lat="49.42001" lon="0.22665">
        <ele>61.7</ele>
        <time>2022-05-31T10:32:48Z</time>
      </trkpt>
      <trkpt lat="49.42002" lon="0.22664">
        <ele>61.8</ele>
        <time>2022-05-31T10:32:50Z</time>
      </trkpt>
      <trkpt lat="49.42002" lon="0.22663">
        <ele>61.9</ele>
        <time>2022-05-31T10:32:51Z</time>
      </trkpt>
      <trkpt lat="49.42003" lon="0.22662">
        <ele>62</ele>
        <time>2022-05-31T10:32:52Z</time>
      </trkpt>
      <trkpt lat="49.42003" lon="0.22661">
        <ele>62.1</ele>
        <time>2022-05-31T10:32:53Z</time>
      </trkpt>
      <trkpt lat="49.42003" lon="0.22661">
        <ele>62.1</ele>
        <time>2022-05-31T10:32:55Z</time>
      </trkpt>
      <trkpt lat="49.42004" lon="0.2266">
        <ele>62.1</ele>
        <time>2022-05-31T10:32:56Z</time>
      </trkpt>
      <trkpt lat="49.42004" lon="0.2266">
        <ele>62.1</ele>
        <time>2022-05-31T10:32:57Z</time>
      </trkpt>
      <trkpt lat="49.42004" lon="0.22659">
        <ele>63.1</ele>
        <time>2022-05-31T10:32:59Z</time>
      </trkpt>
      <trkpt lat="49.42004" lon="0.22658">
        <ele>63.2</ele>
        <time>2022-05-31T10:33:00Z</time>
      </trkpt>
      <trkpt lat="49.42005" lon="0.22658">
        <ele>63.5</ele>
        <time>2022-05-31T10:33:02Z</time>
      </trkpt>
      <trkpt lat="49.42005" lon="0.22658">
        <ele>63.5</ele>
        <time>2022-05-31T10:33:03Z</time>
      </trkpt>
      <trkpt lat="49.42006" lon="0.22658">
        <ele>63.5</ele>
        <time>2022-05-31T10:33:05Z</time>
      </trkpt>
      <trkpt lat="49.42006" lon="0.22658">
        <ele>63.5</ele>
        <time>2022-05-31T10:33:06Z</time>
      </trkpt>
      <trkpt lat="49.42006" lon="0.22657">
        <ele>63.6</ele>
        <time>2022-05-31T10:33:07Z</time>
      </trkpt>
      <trkpt lat="49.42007" lon="0.22656">
        <ele>63.6</ele>
        <time>2022-05-31T10:33:09Z</time>
      </trkpt>
      <trkpt lat="49.42007" lon="0.22655">
        <ele>63.6</ele>
        <time>2022-05-31T10:33:10Z</time>
      </trkpt>
      <trkpt lat="49.42008" lon="0.22654">
        <ele>64.8</ele>
        <time>2022-05-31T10:33:11Z</time>
      </trkpt>
      <trkpt lat="49.42008" lon="0.22653">
        <ele>64.9</ele>
        <time>2022-05-31T10:33:12Z</time>
      </trkpt>
      <trkpt lat="49.42008" lon="0.22652">
        <ele>64.9</ele>
        <time>2022-05-31T10:33:14Z</time>
      </trkpt>
      <trkpt lat="49.42008" lon="0.22652">
        <ele>64.9</ele>
        <time>2022-05-31T10:33:15Z</time>
      </trkpt>
      <trkpt lat="49.42009" lon="0.22652">
        <ele>64.9</ele>
        <time>2022-05-31T10:33:16Z</time>
      </trkpt>
      <trkpt lat="49.42009" lon="0.22651">
        <ele>65</ele>
        <time>2022-05-31T10:33:18Z</time>
      </trkpt>
      <trkpt lat="49.42009" lon="0.2265">
        <ele>66</ele>
        <time>2022-05-31T10:33:19Z</time>
      </trkpt>
      <trkpt lat="49.4201" lon="0.2265">
        <ele>66</ele>
        <time>2022-05-31T10:33:20Z</time>
      </trkpt>
      <trkpt lat="49.4201" lon="0.2265">
        <ele>66.1</ele>
        <time>2022-05-31T10:33:21Z</time>
      </trkpt>
      <trkpt lat="49.4201" lon="0.2265">
        <ele>66.1</ele>
        <time>2022-05-31T10:33:22Z</time>
      </trkpt>
      <trkpt lat="49.42011" lon="0.2265">
        <ele>66.3</ele>
        <time>2022-05-31T10:33:23Z</time>
      </trkpt>
      <trkpt lat="49.42011" lon="0.22649">
        <ele>66.3</ele>
        <time>2022-05-31T10:33:24Z</time>
      </trkpt>
      <trkpt lat="49.42012" lon="0.22649">
        <ele>66.3</ele>
        <time>2022-05-31T10:33:25Z</time>
      </trkpt>
      <trkpt lat="49.42012" lon="0.22649">
        <ele>66.3</ele>
        <time>2022-05-31T10:33:26Z</time>
      </trkpt>
      <trkpt lat="49.42012" lon="0.2265">
        <ele>66.4</ele>
        <time>2022-05-31T10:33:28Z</time>
      </trkpt>
      <trkpt lat="49.42013" lon="0.22651">
        <ele>65.4</ele>
        <time>2022-05-31T10:33:29Z</time>
      </trkpt>
      <trkpt lat="49.42013" lon="0.22652">
        <ele>65.4</ele>
        <time>2022-05-31T10:33:30Z</time>
      </trkpt>
      <trkpt lat="49.42013" lon="0.22652">
        <ele>65.4</ele>
        <time>2022-05-31T10:33:32Z</time>
      </trkpt>
      <trkpt lat="49.42013" lon="0.22653">
        <ele>65.5</ele>
        <time>2022-05-31T10:33:33Z</time>
      </trkpt>
      <trkpt lat="49.42012" lon="0.22651">
        <ele>65.5</ele>
        <time>2022-05-31T10:33:34Z</time>
      </trkpt>
      <trkpt lat="49.42012" lon="0.22651">
        <ele>66.5</ele>
        <time>2022-05-31T10:33:36Z</time>
      </trkpt>
      <trkpt lat="49.42012" lon="0.2265">
        <ele>66.6</ele>
        <time>2022-05-31T10:33:37Z</time>
      </trkpt>
      <trkpt lat="49.42012" lon="0.2265">
        <ele>66.6</ele>
        <time>2022-05-31T10:33:38Z</time>
      </trkpt>
      <trkpt lat="49.42012" lon="0.22649">
        <ele>66.6</ele>
        <time>2022-05-31T10:33:40Z</time>
      </trkpt>
      <trkpt lat="49.42013" lon="0.22648">
        <ele>66.6</ele>
        <time>2022-05-31T10:33:41Z</time>
      </trkpt>
      <trkpt lat="49.42012" lon="0.22647">
        <ele>66.7</ele>
        <time>2022-05-31T10:33:42Z</time>
      </trkpt>
      <trkpt lat="49.42012" lon="0.22645">
        <ele>67.7</ele>
        <time>2022-05-31T10:33:44Z</time>
      </trkpt>
      <trkpt lat="49.42012" lon="0.22643">
        <ele>67.7</ele>
        <time>2022-05-31T10:33:45Z</time>
      </trkpt>
      <trkpt lat="49.42011" lon="0.2264">
        <ele>68.8</ele>
        <time>2022-05-31T10:33:47Z</time>
      </trkpt>
      <trkpt lat="49.4201" lon="0.22639">
        <ele>68.6</ele>
        <time>2022-05-31T10:33:48Z</time>
      </trkpt>
      <trkpt lat="49.42009" lon="0.22638">
        <ele>69.6</ele>
        <time>2022-05-31T10:33:49Z</time>
      </trkpt>
      <trkpt lat="49.42008" lon="0.22637">
        <ele>69.6</ele>
        <time>2022-05-31T10:33:50Z</time>
      </trkpt>
      <trkpt lat="49.42008" lon="0.22636">
        <ele>69.7</ele>
        <time>2022-05-31T10:33:51Z</time>
      </trkpt>
      <trkpt lat="49.42006" lon="0.22636">
        <ele>69.5</ele>
        <time>2022-05-31T10:33:53Z</time>
      </trkpt>
      <trkpt lat="49.42006" lon="0.22636">
        <ele>69.5</ele>
        <time>2022-05-31T10:33:54Z</time>
      </trkpt>
      <trkpt lat="49.42005" lon="0.22635">
        <ele>69.5</ele>
        <time>2022-05-31T10:33:56Z</time>
      </trkpt>
      <trkpt lat="49.42005" lon="0.22634">
        <ele>69.3</ele>
        <time>2022-05-31T10:33:57Z</time>
      </trkpt>
      <trkpt lat="49.42004" lon="0.22633">
        <ele>70.2</ele>
        <time>2022-05-31T10:33:58Z</time>
      </trkpt>
      <trkpt lat="49.42004" lon="0.22632">
        <ele>70.2</ele>
        <time>2022-05-31T10:33:59Z</time>
      </trkpt>
      <trkpt lat="49.42004" lon="0.22631">
        <ele>70.3</ele>
        <time>2022-05-31T10:34:00Z</time>
      </trkpt>
      <trkpt lat="49.42004" lon="0.2263">
        <ele>70.3</ele>
        <time>2022-05-31T10:34:01Z</time>
      </trkpt>
      <trkpt lat="49.42004" lon="0.22629">
        <ele>71.1</ele>
        <time>2022-05-31T10:34:02Z</time>
      </trkpt>
      <trkpt lat="49.42005" lon="0.22628">
        <ele>71.2</ele>
        <time>2022-05-31T10:34:03Z</time>
      </trkpt>
      <trkpt lat="49.42005" lon="0.22628">
        <ele>71.5</ele>
        <time>2022-05-31T10:34:04Z</time>
      </trkpt>
      <trkpt lat="49.42005" lon="0.22627">
        <ele>71.5</ele>
        <time>2022-05-31T10:34:05Z</time>
      </trkpt>
      <trkpt lat="49.42006" lon="0.22629">
        <ele>71.5</ele>
        <time>2022-05-31T10:34:06Z</time>
      </trkpt>
      <trkpt lat="49.42007" lon="0.22629">
        <ele>71.5</ele>
        <time>2022-05-31T10:34:07Z</time>
      </trkpt>
      <trkpt lat="49.42006" lon="0.22628">
        <ele>71.6</ele>
        <time>2022-05-31T10:34:08Z</time>
      </trkpt>
      <trkpt lat="49.42006" lon="0.22627">
        <ele>71.6</ele>
        <time>2022-05-31T10:34:09Z</time>
      </trkpt>
      <trkpt lat="49.42006" lon="0.22627">
        <ele>71.6</ele>
        <time>2022-05-31T10:34:10Z</time>
      </trkpt>
      <trkpt lat="49.42006" lon="0.22626">
        <ele>71.7</ele>
        <time>2022-05-31T10:34:12Z</time>
      </trkpt>
      <trkpt lat="49.42006" lon="0.22624">
        <ele>72.5</ele>
        <time>2022-05-31T10:34:13Z</time>
      </trkpt>
      <trkpt lat="49.42006" lon="0.22624">
        <ele>72.5</ele>
        <time>2022-05-31T10:34:14Z</time>
      </trkpt>
      <trkpt lat="49.42006" lon="0.22623">
        <ele>72.5</ele>
        <time>2022-05-31T10:34:15Z</time>
      </trkpt>
      <trkpt lat="49.42005" lon="0.22621">
        <ele>72.6</ele>
        <time>2022-05-31T10:34:17Z</time>
      </trkpt>
      <trkpt lat="49.42005" lon="0.22621">
        <ele>73.4</ele>
        <time>2022-05-31T10:34:18Z</time>
      </trkpt>
      <trkpt lat="49.42005" lon="0.2262">
        <ele>73.4</ele>
        <time>2022-05-31T10:34:19Z</time>
      </trkpt>
      <trkpt lat="49.42005" lon="0.2262">
        <ele>73.4</ele>
        <time>2022-05-31T10:34:20Z</time>
      </trkpt>
      <trkpt lat="49.42006" lon="0.2262">
        <ele>73.4</ele>
        <time>2022-05-31T10:34:21Z</time>
      </trkpt>
      <trkpt lat="49.42006" lon="0.22619">
        <ele>73.5</ele>
        <time>2022-05-31T10:34:22Z</time>
      </trkpt>
      <trkpt lat="49.42006" lon="0.22617">
        <ele>73.5</ele>
        <time>2022-05-31T10:34:23Z</time>
      </trkpt>
      <trkpt lat="49.42006" lon="0.22618">
        <ele>73.5</ele>
        <time>2022-05-31T10:34:24Z</time>
      </trkpt>
      <trkpt lat="49.42007" lon="0.22621">
        <ele>72.8</ele>
        <time>2022-05-31T10:34:25Z</time>
      </trkpt>
      <trkpt lat="49.42008" lon="0.22621">
        <ele>73</ele>
        <time>2022-05-31T10:34:27Z</time>
      </trkpt>
      <trkpt lat="49.42008" lon="0.22621">
        <ele>73</ele>
        <time>2022-05-31T10:34:28Z</time>
      </trkpt>
      <trkpt lat="49.42008" lon="0.22621">
        <ele>73.1</ele>
        <time>2022-05-31T10:34:29Z</time>
      </trkpt>
      <trkpt lat="49.42009" lon="0.22621">
        <ele>73.1</ele>
        <time>2022-05-31T10:34:30Z</time>
      </trkpt>
      <trkpt lat="49.42009" lon="0.22621">
        <ele>73.1</ele>
        <time>2022-05-31T10:34:32Z</time>
      </trkpt>
      <trkpt lat="49.42009" lon="0.22621">
        <ele>73.1</ele>
        <time>2022-05-31T10:34:33Z</time>
      </trkpt>
      <trkpt lat="49.42008" lon="0.22621">
        <ele>73.2</ele>
        <time>2022-05-31T10:34:35Z</time>
      </trkpt>
      <trkpt lat="49.42008" lon="0.2262">
        <ele>74</ele>
        <time>2022-05-31T10:34:36Z</time>
      </trkpt>
      <trkpt lat="49.42008" lon="0.2262">
        <ele>74</ele>
        <time>2022-05-31T10:34:37Z</time>
      </trkpt>
      <trkpt lat="49.42008" lon="0.22619">
        <ele>74</ele>
        <time>2022-05-31T10:34:38Z</time>
      </trkpt>
      <trkpt lat="49.42008" lon="0.22619">
        <ele>74</ele>
        <time>2022-05-31T10:34:39Z</time>
      </trkpt>
      <trkpt lat="49.42008" lon="0.22619">
        <ele>74.1</ele>
        <time>2022-05-31T10:34:41Z</time>
      </trkpt>
      <trkpt lat="49.42008" lon="0.22619">
        <ele>74.1</ele>
        <time>2022-05-31T10:34:42Z</time>
      </trkpt>
      <trkpt lat="49.42007" lon="0.22619">
        <ele>73.9</ele>
        <time>2022-05-31T10:34:43Z</time>
      </trkpt>
      <trkpt lat="49.42007" lon="0.22619">
        <ele>74</ele>
        <time>2022-05-31T10:34:44Z</time>
      </trkpt>
      <trkpt lat="49.42007" lon="0.22619">
        <ele>74</ele>
        <time>2022-05-31T10:34:45Z</time>
      </trkpt>
      <trkpt lat="49.42006" lon="0.22619">
        <ele>74</ele>
        <time>2022-05-31T10:34:46Z</time>
      </trkpt>
      <trkpt lat="49.42006" lon="0.22618">
        <ele>74</ele>
        <time>2022-05-31T10:34:47Z</time>
      </trkpt>
      <trkpt lat="49.42006" lon="0.22618">
        <ele>74.1</ele>
        <time>2022-05-31T10:34:48Z</time>
      </trkpt>
      <trkpt lat="49.42006" lon="0.22618">
        <ele>74.1</ele>
        <time>2022-05-31T10:34:49Z</time>
      </trkpt>
      <trkpt lat="49.42005" lon="0.22617">
        <ele>74.1</ele>
        <time>2022-05-31T10:34:50Z</time>
      </trkpt>
      <trkpt lat="49.42005" lon="0.22617">
        <ele>74.2</ele>
        <time>2022-05-31T10:34:51Z</time>
      </trkpt>
      <trkpt lat="49.42005" lon="0.22617">
        <ele>74.2</ele>
        <time>2022-05-31T10:34:52Z</time>
      </trkpt>
      <trkpt lat="49.42005" lon="0.22617">
        <ele>74.2</ele>
        <time>2022-05-31T10:34:53Z</time>
      </trkpt>
      <trkpt lat="49.42005" lon="0.22617">
        <ele>74.2</ele>
        <time>2022-05-31T10:34:55Z</time>
      </trkpt>
      <trkpt lat="49.42006" lon="0.22617">
        <ele>74.3</ele>
        <time>2022-05-31T10:34:56Z</time>
      </trkpt>
      <trkpt lat="49.42006" lon="0.22617">
        <ele>74.3</ele>
        <time>2022-05-31T10:34:57Z</time>
      </trkpt>
      <trkpt lat="49.42006" lon="0.22617">
        <ele>74.3</ele>
        <time>2022-05-31T10:34:58Z</time>
      </trkpt>
      <trkpt lat="49.42006" lon="0.22616">
        <ele>74.3</ele>
        <time>2022-05-31T10:34:59Z</time>
      </trkpt>
      <trkpt lat="49.42007" lon="0.22616">
        <ele>75.2</ele>
        <time>2022-05-31T10:35:00Z</time>
      </trkpt>
      <trkpt lat="49.42007" lon="0.22616">
        <ele>75.2</ele>
        <time>2022-05-31T10:35:01Z</time>
      </trkpt>
      <trkpt lat="49.42007" lon="0.22616">
        <ele>75.2</ele>
        <time>2022-05-31T10:35:03Z</time>
      </trkpt>
      <trkpt lat="49.42008" lon="0.22616">
        <ele>75.4</ele>
        <time>2022-05-31T10:35:04Z</time>
      </trkpt>
      <trkpt lat="49.42008" lon="0.22615">
        <ele>75.5</ele>
        <time>2022-05-31T10:35:05Z</time>
      </trkpt>
      <trkpt lat="49.42008" lon="0.22615">
        <ele>75.5</ele>
        <time>2022-05-31T10:35:06Z</time>
      </trkpt>
      <trkpt lat="49.42008" lon="0.22615">
        <ele>75.5</ele>
        <time>2022-05-31T10:35:07Z</time>
      </trkpt>
      <trkpt lat="49.42008" lon="0.22615">
        <ele>75.5</ele>
        <time>2022-05-31T10:35:08Z</time>
      </trkpt>
      <trkpt lat="49.42008" lon="0.22615">
        <ele>75.6</ele>
        <time>2022-05-31T10:35:09Z</time>
      </trkpt>
      <trkpt lat="49.42007" lon="0.22616">
        <ele>75.4</ele>
        <time>2022-05-31T10:35:10Z</time>
      </trkpt>
      <trkpt lat="49.42007" lon="0.22616">
        <ele>75.4</ele>
        <time>2022-05-31T10:35:11Z</time>
      </trkpt>
      <trkpt lat="49.42007" lon="0.22616">
        <ele>75.5</ele>
        <time>2022-05-31T10:35:12Z</time>
      </trkpt>
      <trkpt lat="49.42007" lon="0.22616">
        <ele>75.5</ele>
        <time>2022-05-31T10:35:14Z</time>
      </trkpt>
      <trkpt lat="49.42006" lon="0.22616">
        <ele>75.5</ele>
        <time>2022-05-31T10:35:16Z</time>
      </trkpt>
      <trkpt lat="49.42006" lon="0.22617">
        <ele>74.8</ele>
        <time>2022-05-31T10:35:17Z</time>
      </trkpt>
      <trkpt lat="49.42006" lon="0.22617">
        <ele>74.8</ele>
        <time>2022-05-31T10:35:18Z</time>
      </trkpt>
      <trkpt lat="49.42007" lon="0.22617">
        <ele>74.8</ele>
        <time>2022-05-31T10:35:19Z</time>
      </trkpt>
      <trkpt lat="49.42006" lon="0.22617">
        <ele>74.8</ele>
        <time>2022-05-31T10:35:20Z</time>
      </trkpt>
      <trkpt lat="49.42006" lon="0.22617">
        <ele>74.9</ele>
        <time>2022-05-31T10:35:21Z</time>
      </trkpt>
      <trkpt lat="49.42006" lon="0.22616">
        <ele>74.9</ele>
        <time>2022-05-31T10:35:22Z</time>
      </trkpt>
      <trkpt lat="49.42006" lon="0.22616">
        <ele>75.7</ele>
        <time>2022-05-31T10:35:23Z</time>
      </trkpt>
      <trkpt lat="49.42006" lon="0.22616">
        <ele>75.7</ele>
        <time>2022-05-31T10:35:24Z</time>
      </trkpt>
      <trkpt lat="49.42006" lon="0.22616">
        <ele>75.8</ele>
        <time>2022-05-31T10:35:25Z</time>
      </trkpt>
      <trkpt lat="49.42005" lon="0.22616">
        <ele>75.8</ele>
        <time>2022-05-31T10:35:26Z</time>
      </trkpt>
      <trkpt lat="49.42005" lon="0.22616">
        <ele>75.8</ele>
        <time>2022-05-31T10:35:27Z</time>
      </trkpt>
      <trkpt lat="49.42005" lon="0.22616">
        <ele>75.8</ele>
        <time>2022-05-31T10:35:28Z</time>
      </trkpt>
      <trkpt lat="49.42005" lon="0.22616">
        <ele>75.9</ele>
        <time>2022-05-31T10:35:29Z</time>
      </trkpt>
      <trkpt lat="49.42005" lon="0.22616">
        <ele>75.9</ele>
        <time>2022-05-31T10:35:30Z</time>
      </trkpt>
      <trkpt lat="49.42005" lon="0.22616">
        <ele>75.9</ele>
        <time>2022-05-31T10:35:32Z</time>
      </trkpt>
      <trkpt lat="49.42005" lon="0.22616">
        <ele>76</ele>
        <time>2022-05-31T10:35:33Z</time>
      </trkpt>
      <trkpt lat="49.42005" lon="0.22616">
        <ele>76</ele>
        <time>2022-05-31T10:35:34Z</time>
      </trkpt>
      <trkpt lat="49.42005" lon="0.22615">
        <ele>76</ele>
        <time>2022-05-31T10:35:35Z</time>
      </trkpt>
      <trkpt lat="49.42005" lon="0.22615">
        <ele>76</ele>
        <time>2022-05-31T10:35:36Z</time>
      </trkpt>
      <trkpt lat="49.42005" lon="0.22615">
        <ele>76.1</ele>
        <time>2022-05-31T10:35:37Z</time>
      </trkpt>
      <trkpt lat="49.42005" lon="0.22615">
        <ele>76.1</ele>
        <time>2022-05-31T10:35:38Z</time>
      </trkpt>
      <trkpt lat="49.42005" lon="0.22615">
        <ele>76.1</ele>
        <time>2022-05-31T10:35:39Z</time>
      </trkpt>
      <trkpt lat="49.42005" lon="0.22615">
        <ele>76.1</ele>
        <time>2022-05-31T10:35:40Z</time>
      </trkpt>
      <trkpt lat="49.42005" lon="0.22615">
        <ele>76.2</ele>
        <time>2022-05-31T10:35:41Z</time>
      </trkpt>
      <trkpt lat="49.42005" lon="0.22615">
        <ele>76.2</ele>
        <time>2022-05-31T10:35:42Z</time>
      </trkpt>
      <trkpt lat="49.42005" lon="0.22615">
        <ele>76.2</ele>
        <time>2022-05-31T10:35:43Z</time>
      </trkpt>
      <trkpt lat="49.42005" lon="0.22615">
        <ele>76.3</ele>
        <time>2022-05-31T10:35:44Z</time>
      </trkpt>
      <trkpt lat="49.42005" lon="0.22615">
        <ele>76.3</ele>
        <time>2022-05-31T10:35:45Z</time>
      </trkpt>
      <trkpt lat="49.42005" lon="0.22615">
        <ele>76.3</ele>
        <time>2022-05-31T10:35:46Z</time>
      </trkpt>
      <trkpt lat="49.42005" lon="0.22615">
        <ele>76.3</ele>
        <time>2022-05-31T10:35:47Z</time>
      </trkpt>
      <trkpt lat="49.42005" lon="0.22615">
        <ele>76.4</ele>
        <time>2022-05-31T10:35:48Z</time>
      </trkpt>
      <trkpt lat="49.42005" lon="0.22615">
        <ele>76.4</ele>
        <time>2022-05-31T10:35:49Z</time>
      </trkpt>
      <trkpt lat="49.42005" lon="0.22615">
        <ele>76.4</ele>
        <time>2022-05-31T10:35:50Z</time>
      </trkpt>
      <trkpt lat="49.42005" lon="0.22615">
        <ele>76.5</ele>
        <time>2022-05-31T10:35:51Z</time>
      </trkpt>
      <trkpt lat="49.42005" lon="0.22615">
        <ele>76.5</ele>
        <time>2022-05-31T10:35:52Z</time>
      </trkpt>
      <trkpt lat="49.42005" lon="0.22615">
        <ele>76.5</ele>
        <time>2022-05-31T10:35:53Z</time>
      </trkpt>
      <trkpt lat="49.42005" lon="0.22615">
        <ele>76.5</ele>
        <time>2022-05-31T10:35:54Z</time>
      </trkpt>
      <trkpt lat="49.42005" lon="0.22615">
        <ele>76.6</ele>
        <time>2022-05-31T10:35:55Z</time>
      </trkpt>
      <trkpt lat="49.42005" lon="0.22615">
        <ele>76.6</ele>
        <time>2022-05-31T10:35:56Z</time>
      </trkpt>
      <trkpt lat="49.42005" lon="0.22615">
        <ele>76.6</ele>
        <time>2022-05-31T10:35:57Z</time>
      </trkpt>
      <trkpt lat="49.42005" lon="0.22615">
        <ele>76.6</ele>
        <time>2022-05-31T10:35:58Z</time>
      </trkpt>
      <trkpt lat="49.42005" lon="0.22615">
        <ele>76.7</ele>
        <time>2022-05-31T10:35:59Z</time>
      </trkpt>
      <trkpt lat="49.42005" lon="0.22615">
        <ele>76.7</ele>
        <time>2022-05-31T10:36:00Z</time>
      </trkpt>
      <trkpt lat="49.42005" lon="0.22615">
        <ele>76.7</ele>
        <time>2022-05-31T10:36:01Z</time>
      </trkpt>
      <trkpt lat="49.42005" lon="0.22615">
        <ele>76.8</ele>
        <time>2022-05-31T10:36:02Z</time>
      </trkpt>
      <trkpt lat="49.42005" lon="0.22615">
        <ele>76.8</ele>
        <time>2022-05-31T10:36:03Z</time>
      </trkpt>
      <trkpt lat="49.42005" lon="0.22615">
        <ele>76.8</ele>
        <time>2022-05-31T10:36:04Z</time>
      </trkpt>
      <trkpt lat="49.42005" lon="0.22615">
        <ele>76.8</ele>
        <time>2022-05-31T10:36:05Z</time>
      </trkpt>
      <trkpt lat="49.42005" lon="0.22615">
        <ele>76.9</ele>
        <time>2022-05-31T10:36:06Z</time>
      </trkpt>
      <trkpt lat="49.42005" lon="0.22615">
        <ele>76.9</ele>
        <time>2022-05-31T10:36:07Z</time>
      </trkpt>
      <trkpt lat="49.42005" lon="0.22615">
        <ele>76.9</ele>
        <time>2022-05-31T10:36:08Z</time>
      </trkpt>
      <trkpt lat="49.42005" lon="0.22615">
        <ele>76.9</ele>
        <time>2022-05-31T10:36:09Z</time>
      </trkpt>
      <trkpt lat="49.42005" lon="0.22615">
        <ele>77</ele>
        <time>2022-05-31T10:36:11Z</time>
      </trkpt>
      <trkpt lat="49.42005" lon="0.22615">
        <ele>77</ele>
        <time>2022-05-31T10:36:12Z</time>
      </trkpt>
      <trkpt lat="49.42005" lon="0.22615">
        <ele>77</ele>
        <time>2022-05-31T10:36:14Z</time>
      </trkpt>
      <trkpt lat="49.42005" lon="0.22615">
        <ele>77.1</ele>
        <time>2022-05-31T10:36:15Z</time>
      </trkpt>
      <trkpt lat="49.42005" lon="0.22615">
        <ele>77.1</ele>
        <time>2022-05-31T10:36:16Z</time>
      </trkpt>
      <trkpt lat="49.42005" lon="0.22615">
        <ele>77.1</ele>
        <time>2022-05-31T10:36:17Z</time>
      </trkpt>
      <trkpt lat="49.42005" lon="0.22615">
        <ele>77.1</ele>
        <time>2022-05-31T10:36:18Z</time>
      </trkpt>
      <trkpt lat="49.42005" lon="0.22615">
        <ele>77.2</ele>
        <time>2022-05-31T10:36:19Z</time>
      </trkpt>
      <trkpt lat="49.42005" lon="0.22615">
        <ele>77.2</ele>
        <time>2022-05-31T10:36:20Z</time>
      </trkpt>
      <trkpt lat="49.42005" lon="0.22615">
        <ele>77.2</ele>
        <time>2022-05-31T10:36:21Z</time>
      </trkpt>
      <trkpt lat="49.42005" lon="0.22615">
        <ele>77.2</ele>
        <time>2022-05-31T10:36:22Z</time>
      </trkpt>
      <trkpt lat="49.42005" lon="0.22615">
        <ele>77.3</ele>
        <time>2022-05-31T10:36:23Z</time>
      </trkpt>
      <trkpt lat="49.42005" lon="0.22615">
        <ele>77.3</ele>
        <time>2022-05-31T10:36:24Z</time>
      </trkpt>
      <trkpt lat="49.42005" lon="0.22615">
        <ele>77.3</ele>
        <time>2022-05-31T10:36:25Z</time>
      </trkpt>
      <trkpt lat="49.42005" lon="0.22615">
        <ele>77.4</ele>
        <time>2022-05-31T10:36:26Z</time>
      </trkpt>
      <trkpt lat="49.42005" lon="0.22615">
        <ele>77.4</ele>
        <time>2022-05-31T10:36:27Z</time>
      </trkpt>
      <trkpt lat="49.42005" lon="0.22615">
        <ele>77.4</ele>
        <time>2022-05-31T10:36:28Z</time>
      </trkpt>
      <trkpt lat="49.42005" lon="0.22615">
        <ele>77.4</ele>
        <time>2022-05-31T10:36:29Z</time>
      </trkpt>
      <trkpt lat="49.42005" lon="0.22615">
        <ele>77.5</ele>
        <time>2022-05-31T10:36:30Z</time>
      </trkpt>
      <trkpt lat="49.42005" lon="0.22615">
        <ele>77.5</ele>
        <time>2022-05-31T10:36:31Z</time>
      </trkpt>
      <trkpt lat="49.42005" lon="0.22615">
        <ele>77.5</ele>
        <time>2022-05-31T10:36:32Z</time>
      </trkpt>
      <trkpt lat="49.42005" lon="0.22615">
        <ele>77.5</ele>
        <time>2022-05-31T10:36:33Z</time>
      </trkpt>
      <trkpt lat="49.42005" lon="0.22615">
        <ele>77.6</ele>
        <time>2022-05-31T10:36:34Z</time>
      </trkpt>
      <trkpt lat="49.42005" lon="0.22615">
        <ele>77.6</ele>
        <time>2022-05-31T10:36:35Z</time>
      </trkpt>
      <trkpt lat="49.42005" lon="0.22615">
        <ele>77.6</ele>
        <time>2022-05-31T10:36:36Z</time>
      </trkpt>
      <trkpt lat="49.42005" lon="0.22615">
        <ele>77.7</ele>
        <time>2022-05-31T10:36:37Z</time>
      </trkpt>
      <trkpt lat="49.42005" lon="0.22615">
        <ele>77.7</ele>
        <time>2022-05-31T10:36:38Z</time>
      </trkpt>
      <trkpt lat="49.42005" lon="0.22615">
        <ele>77.7</ele>
        <time>2022-05-31T10:36:39Z</time>
      </trkpt>
      <trkpt lat="49.42005" lon="0.22615">
        <ele>77.7</ele>
        <time>2022-05-31T10:36:40Z</time>
      </trkpt>
      <trkpt lat="49.42005" lon="0.22615">
        <ele>77.8</ele>
        <time>2022-05-31T10:36:41Z</time>
      </trkpt>
      <trkpt lat="49.42005" lon="0.22615">
        <ele>77.8</ele>
        <time>2022-05-31T10:36:42Z</time>
      </trkpt>
      <trkpt lat="49.42005" lon="0.22615">
        <ele>77.8</ele>
        <time>2022-05-31T10:36:43Z</time>
      </trkpt>
      <trkpt lat="49.42005" lon="0.22615">
        <ele>77.8</ele>
        <time>2022-05-31T10:36:44Z</time>
      </trkpt>
      <trkpt lat="49.42005" lon="0.22615">
        <ele>77.9</ele>
        <time>2022-05-31T10:36:45Z</time>
      </trkpt>
      <trkpt lat="49.42005" lon="0.22615">
        <ele>77.9</ele>
        <time>2022-05-31T10:36:46Z</time>
      </trkpt>
      <trkpt lat="49.42005" lon="0.22615">
        <ele>77.9</ele>
        <time>2022-05-31T10:36:47Z</time>
      </trkpt>
      <trkpt lat="49.42005" lon="0.22615">
        <ele>78</ele>
        <time>2022-05-31T10:36:48Z</time>
      </trkpt>
      <trkpt lat="49.42005" lon="0.22615">
        <ele>78</ele>
        <time>2022-05-31T10:36:49Z</time>
      </trkpt>
      <trkpt lat="49.42005" lon="0.22615">
        <ele>78</ele>
        <time>2022-05-31T10:36:50Z</time>
      </trkpt>
      <trkpt lat="49.42005" lon="0.22615">
        <ele>78</ele>
        <time>2022-05-31T10:36:51Z</time>
      </trkpt>
      <trkpt lat="49.42005" lon="0.22615">
        <ele>78.1</ele>
        <time>2022-05-31T10:36:52Z</time>
      </trkpt>
      <trkpt lat="49.42005" lon="0.22615">
        <ele>78.1</ele>
        <time>2022-05-31T10:36:53Z</time>
      </trkpt>
      <trkpt lat="49.42005" lon="0.22615">
        <ele>78.1</ele>
        <time>2022-05-31T10:36:54Z</time>
      </trkpt>
      <trkpt lat="49.42005" lon="0.22615">
        <ele>78.2</ele>
        <time>2022-05-31T10:36:55Z</time>
      </trkpt>
      <trkpt lat="49.42005" lon="0.22615">
        <ele>78.2</ele>
        <time>2022-05-31T10:36:56Z</time>
      </trkpt>
      <trkpt lat="49.42005" lon="0.22615">
        <ele>78.2</ele>
        <time>2022-05-31T10:36:57Z</time>
      </trkpt>
      <trkpt lat="49.42005" lon="0.22615">
        <ele>78.2</ele>
        <time>2022-05-31T10:36:58Z</time>
      </trkpt>
      <trkpt lat="49.42005" lon="0.22615">
        <ele>78.3</ele>
        <time>2022-05-31T10:36:59Z</time>
      </trkpt>
      <trkpt lat="49.42005" lon="0.22615">
        <ele>78.3</ele>
        <time>2022-05-31T10:37:00Z</time>
      </trkpt>
      <trkpt lat="49.42005" lon="0.22615">
        <ele>78.3</ele>
        <time>2022-05-31T10:37:01Z</time>
      </trkpt>
      <trkpt lat="49.42005" lon="0.22615">
        <ele>78.3</ele>
        <time>2022-05-31T10:37:02Z</time>
      </trkpt>
      <trkpt lat="49.42005" lon="0.22615">
        <ele>78.4</ele>
        <time>2022-05-31T10:37:03Z</time>
      </trkpt>
      <trkpt lat="49.42005" lon="0.22615">
        <ele>78.4</ele>
        <time>2022-05-31T10:37:04Z</time>
      </trkpt>
      <trkpt lat="49.42005" lon="0.22615">
        <ele>78.4</ele>
        <time>2022-05-31T10:37:05Z</time>
      </trkpt>
      <trkpt lat="49.42005" lon="0.22615">
        <ele>78.5</ele>
        <time>2022-05-31T10:37:06Z</time>
      </trkpt>
      <trkpt lat="49.42005" lon="0.22615">
        <ele>78.5</ele>
        <time>2022-05-31T10:37:07Z</time>
      </trkpt>
      <trkpt lat="49.42005" lon="0.22615">
        <ele>78.5</ele>
        <time>2022-05-31T10:37:08Z</time>
      </trkpt>
      <trkpt lat="49.42005" lon="0.22615">
        <ele>78.5</ele>
        <time>2022-05-31T10:37:09Z</time>
      </trkpt>
      <trkpt lat="49.42005" lon="0.22615">
        <ele>78.6</ele>
        <time>2022-05-31T10:37:10Z</time>
      </trkpt>
      <trkpt lat="49.42005" lon="0.22615">
        <ele>78.6</ele>
        <time>2022-05-31T10:37:11Z</time>
      </trkpt>
      <trkpt lat="49.42005" lon="0.22615">
        <ele>78.6</ele>
        <time>2022-05-31T10:37:12Z</time>
      </trkpt>
      <trkpt lat="49.42005" lon="0.22615">
        <ele>78.6</ele>
        <time>2022-05-31T10:37:13Z</time>
      </trkpt>
      <trkpt lat="49.42005" lon="0.22615">
        <ele>78.7</ele>
        <time>2022-05-31T10:37:14Z</time>
      </trkpt>
      <trkpt lat="49.42005" lon="0.22615">
        <ele>78.7</ele>
        <time>2022-05-31T10:37:15Z</time>
      </trkpt>
      <trkpt lat="49.42005" lon="0.22615">
        <ele>78.7</ele>
        <time>2022-05-31T10:37:16Z</time>
      </trkpt>
      <trkpt lat="49.42006" lon="0.22615">
        <ele>78.8</ele>
        <time>2022-05-31T10:37:19Z</time>
      </trkpt>
      <trkpt lat="49.42006" lon="0.22616">
        <ele>78.8</ele>
        <time>2022-05-31T10:37:20Z</time>
      </trkpt>
      <trkpt lat="49.42006" lon="0.22616">
        <ele>78.8</ele>
        <time>2022-05-31T10:37:21Z</time>
      </trkpt>
      <trkpt lat="49.42006" lon="0.22616">
        <ele>78.8</ele>
        <time>2022-05-31T10:37:22Z</time>
      </trkpt>
      <trkpt lat="49.42006" lon="0.22616">
        <ele>78.9</ele>
        <time>2022-05-31T10:37:23Z</time>
      </trkpt>
      <trkpt lat="49.42006" lon="0.22616">
        <ele>78.9</ele>
        <time>2022-05-31T10:37:24Z</time>
      </trkpt>
      <trkpt lat="49.42006" lon="0.22616">
        <ele>78.9</ele>
        <time>2022-05-31T10:37:25Z</time>
      </trkpt>
      <trkpt lat="49.42006" lon="0.22616">
        <ele>78.9</ele>
        <time>2022-05-31T10:37:26Z</time>
      </trkpt>
      <trkpt lat="49.42006" lon="0.22616">
        <ele>79</ele>
        <time>2022-05-31T10:37:27Z</time>
      </trkpt>
      <trkpt lat="49.42007" lon="0.22616">
        <ele>79</ele>
        <time>2022-05-31T10:37:28Z</time>
      </trkpt>
      <trkpt lat="49.42007" lon="0.22616">
        <ele>79</ele>
        <time>2022-05-31T10:37:30Z</time>
      </trkpt>
      <trkpt lat="49.42006" lon="0.22616">
        <ele>79.1</ele>
        <time>2022-05-31T10:37:31Z</time>
      </trkpt>
      <trkpt lat="49.42006" lon="0.22616">
        <ele>79.1</ele>
        <time>2022-05-31T10:37:32Z</time>
      </trkpt>
      <trkpt lat="49.42006" lon="0.22615">
        <ele>79.1</ele>
        <time>2022-05-31T10:37:33Z</time>
      </trkpt>
      <trkpt lat="49.42006" lon="0.22615">
        <ele>79.1</ele>
        <time>2022-05-31T10:37:34Z</time>
      </trkpt>
      <trkpt lat="49.42007" lon="0.22613">
        <ele>79.2</ele>
        <time>2022-05-31T10:37:35Z</time>
      </trkpt>
      <trkpt lat="49.42007" lon="0.22612">
        <ele>80</ele>
        <time>2022-05-31T10:37:37Z</time>
      </trkpt>
      <trkpt lat="49.42007" lon="0.2261">
        <ele>80</ele>
        <time>2022-05-31T10:37:38Z</time>
      </trkpt>
      <trkpt lat="49.42007" lon="0.2261">
        <ele>80.1</ele>
        <time>2022-05-31T10:37:39Z</time>
      </trkpt>
      <trkpt lat="49.42007" lon="0.22611">
        <ele>80.1</ele>
        <time>2022-05-31T10:37:40Z</time>
      </trkpt>
      <trkpt lat="49.42007" lon="0.22613">
        <ele>79.3</ele>
        <time>2022-05-31T10:37:41Z</time>
      </trkpt>
      <trkpt lat="49.42008" lon="0.22614">
        <ele>79.5</ele>
        <time>2022-05-31T10:37:42Z</time>
      </trkpt>
      <trkpt lat="49.42008" lon="0.22615">
        <ele>79.5</ele>
        <time>2022-05-31T10:37:43Z</time>
      </trkpt>
      <trkpt lat="49.42009" lon="0.22615">
        <ele>79.6</ele>
        <time>2022-05-31T10:37:44Z</time>
      </trkpt>
      <trkpt lat="49.4201" lon="0.22614">
        <ele>79.6</ele>
        <time>2022-05-31T10:37:45Z</time>
      </trkpt>
      <trkpt lat="49.4201" lon="0.22614">
        <ele>79.8</ele>
        <time>2022-05-31T10:37:47Z</time>
      </trkpt>
      <trkpt lat="49.42011" lon="0.22616">
        <ele>79.8</ele>
        <time>2022-05-31T10:37:48Z</time>
      </trkpt>
      <trkpt lat="49.42011" lon="0.22616">
        <ele>79.8</ele>
        <time>2022-05-31T10:37:49Z</time>
      </trkpt>
      <trkpt lat="49.42011" lon="0.22617">
        <ele>79.1</ele>
        <time>2022-05-31T10:37:50Z</time>
      </trkpt>
      <trkpt lat="49.42012" lon="0.22618">
        <ele>79.1</ele>
        <time>2022-05-31T10:37:52Z</time>
      </trkpt>
      <trkpt lat="49.42012" lon="0.22619">
        <ele>79.1</ele>
        <time>2022-05-31T10:37:53Z</time>
      </trkpt>
      <trkpt lat="49.42012" lon="0.22618">
        <ele>79.2</ele>
        <time>2022-05-31T10:37:55Z</time>
      </trkpt>
      <trkpt lat="49.42013" lon="0.22618">
        <ele>79.2</ele>
        <time>2022-05-31T10:37:56Z</time>
      </trkpt>
      <trkpt lat="49.42013" lon="0.22618">
        <ele>79.2</ele>
        <time>2022-05-31T10:37:57Z</time>
      </trkpt>
      <trkpt lat="49.42013" lon="0.22618">
        <ele>79.4</ele>
        <time>2022-05-31T10:37:59Z</time>
      </trkpt>
      <trkpt lat="49.42013" lon="0.22618">
        <ele>79.3</ele>
        <time>2022-05-31T10:38:00Z</time>
      </trkpt>
      <trkpt lat="49.4201" lon="0.22613">
        <ele>79.9</ele>
        <time>2022-05-31T10:38:02Z</time>
      </trkpt>
      <trkpt lat="49.42008" lon="0.22612">
        <ele>80.8</ele>
        <time>2022-05-31T10:38:03Z</time>
      </trkpt>
      <trkpt lat="49.42008" lon="0.22611">
        <ele>80.8</ele>
        <time>2022-05-31T10:38:04Z</time>
      </trkpt>
      <trkpt lat="49.42007" lon="0.2261">
        <ele>80.6</ele>
        <time>2022-05-31T10:38:06Z</time>
      </trkpt>
      <trkpt lat="49.42006" lon="0.2261">
        <ele>80.7</ele>
        <time>2022-05-31T10:38:07Z</time>
      </trkpt>
      <trkpt lat="49.42005" lon="0.22609">
        <ele>80.7</ele>
        <time>2022-05-31T10:38:08Z</time>
      </trkpt>
      <trkpt lat="49.42004" lon="0.22608">
        <ele>80.5</ele>
        <time>2022-05-31T10:38:10Z</time>
      </trkpt>
      <trkpt lat="49.42004" lon="0.22608">
        <ele>81.4</ele>
        <time>2022-05-31T10:38:11Z</time>
      </trkpt>
      <trkpt lat="49.42003" lon="0.22607">
        <ele>81.4</ele>
        <time>2022-05-31T10:38:12Z</time>
      </trkpt>
      <trkpt lat="49.42002" lon="0.22607">
        <ele>81.4</ele>
        <time>2022-05-31T10:38:14Z</time>
      </trkpt>
      <trkpt lat="49.42001" lon="0.22606">
        <ele>81.3</ele>
        <time>2022-05-31T10:38:15Z</time>
      </trkpt>
      <trkpt lat="49.42001" lon="0.22605">
        <ele>81.3</ele>
        <time>2022-05-31T10:38:16Z</time>
      </trkpt>
      <trkpt lat="49.42" lon="0.22601">
        <ele>82.2</ele>
        <time>2022-05-31T10:38:17Z</time>
      </trkpt>
      <trkpt lat="49.41999" lon="0.226">
        <ele>82.2</ele>
        <time>2022-05-31T10:38:18Z</time>
      </trkpt>
      <trkpt lat="49.41999" lon="0.22595">
        <ele>83.8</ele>
        <time>2022-05-31T10:38:19Z</time>
      </trkpt>
      <trkpt lat="49.41999" lon="0.22594">
        <ele>83.8</ele>
        <time>2022-05-31T10:38:20Z</time>
      </trkpt>
      <trkpt lat="49.41999" lon="0.2259">
        <ele>84.7</ele>
        <time>2022-05-31T10:38:21Z</time>
      </trkpt>
      <trkpt lat="49.41999" lon="0.22589">
        <ele>84.8</ele>
        <time>2022-05-31T10:38:22Z</time>
      </trkpt>
      <trkpt lat="49.41999" lon="0.22588">
        <ele>84.9</ele>
        <time>2022-05-31T10:38:23Z</time>
      </trkpt>
      <trkpt lat="49.41999" lon="0.22586">
        <ele>85.7</ele>
        <time>2022-05-31T10:38:25Z</time>
      </trkpt>
      <trkpt lat="49.42" lon="0.22585">
        <ele>85.7</ele>
        <time>2022-05-31T10:38:26Z</time>
      </trkpt>
      <trkpt lat="49.42" lon="0.22585">
        <ele>85.7</ele>
        <time>2022-05-31T10:38:28Z</time>
      </trkpt>
      <trkpt lat="49.42" lon="0.22584">
        <ele>85.8</ele>
        <time>2022-05-31T10:38:29Z</time>
      </trkpt>
      <trkpt lat="49.42" lon="0.22583">
        <ele>85.8</ele>
        <time>2022-05-31T10:38:30Z</time>
      </trkpt>
      <trkpt lat="49.42" lon="0.22583">
        <ele>85.8</ele>
        <time>2022-05-31T10:38:31Z</time>
      </trkpt>
      <trkpt lat="49.42" lon="0.22583">
        <ele>85.8</ele>
        <time>2022-05-31T10:38:33Z</time>
      </trkpt>
      <trkpt lat="49.42" lon="0.22584">
        <ele>85.9</ele>
        <time>2022-05-31T10:38:34Z</time>
      </trkpt>
      <trkpt lat="49.42" lon="0.22584">
        <ele>85.9</ele>
        <time>2022-05-31T10:38:35Z</time>
      </trkpt>
      <trkpt lat="49.42" lon="0.22585">
        <ele>85.9</ele>
        <time>2022-05-31T10:38:36Z</time>
      </trkpt>
      <trkpt lat="49.42001" lon="0.22586">
        <ele>86</ele>
        <time>2022-05-31T10:38:38Z</time>
      </trkpt>
      <trkpt lat="49.42002" lon="0.22585">
        <ele>86</ele>
        <time>2022-05-31T10:38:39Z</time>
      </trkpt>
      <trkpt lat="49.42003" lon="0.22586">
        <ele>86.2</ele>
        <time>2022-05-31T10:38:41Z</time>
      </trkpt>
      <trkpt lat="49.42004" lon="0.22586">
        <ele>86.2</ele>
        <time>2022-05-31T10:38:42Z</time>
      </trkpt>
      <trkpt lat="49.42004" lon="0.22586">
        <ele>86.2</ele>
        <time>2022-05-31T10:38:43Z</time>
      </trkpt>
      <trkpt lat="49.42005" lon="0.22587">
        <ele>85.6</ele>
        <time>2022-05-31T10:38:44Z</time>
      </trkpt>
      <trkpt lat="49.42005" lon="0.22587">
        <ele>85.6</ele>
        <time>2022-05-31T10:38:46Z</time>
      </trkpt>
      <trkpt lat="49.42006" lon="0.22588">
        <ele>85.7</ele>
        <time>2022-05-31T10:38:47Z</time>
      </trkpt>
      <trkpt lat="49.42006" lon="0.22589">
        <ele>85.7</ele>
        <time>2022-05-31T10:38:48Z</time>
      </trkpt>
      <trkpt lat="49.42006" lon="0.22589">
        <ele>85.7</ele>
        <time>2022-05-31T10:38:49Z</time>
      </trkpt>
      <trkpt lat="49.42006" lon="0.2259">
        <ele>85.8</ele>
        <time>2022-05-31T10:38:50Z</time>
      </trkpt>
      <trkpt lat="49.42005" lon="0.22589">
        <ele>85.8</ele>
        <time>2022-05-31T10:38:51Z</time>
      </trkpt>
      <trkpt lat="49.42005" lon="0.22589">
        <ele>85.8</ele>
        <time>2022-05-31T10:38:52Z</time>
      </trkpt>
      <trkpt lat="49.42005" lon="0.22589">
        <ele>85.8</ele>
        <time>2022-05-31T10:38:54Z</time>
      </trkpt>
      <trkpt lat="49.42005" lon="0.22588">
        <ele>85.7</ele>
        <time>2022-05-31T10:38:55Z</time>
      </trkpt>
      <trkpt lat="49.42004" lon="0.22587">
        <ele>85.7</ele>
        <time>2022-05-31T10:38:57Z</time>
      </trkpt>
      <trkpt lat="49.42003" lon="0.22586">
        <ele>86.6</ele>
        <time>2022-05-31T10:38:58Z</time>
      </trkpt>
      <trkpt lat="49.42003" lon="0.22586">
        <ele>86.6</ele>
        <time>2022-05-31T10:38:59Z</time>
      </trkpt>
      <trkpt lat="49.42003" lon="0.22586">
        <ele>86.6</ele>
        <time>2022-05-31T10:39:00Z</time>
      </trkpt>
      <trkpt lat="49.42002" lon="0.22585">
        <ele>86.6</ele>
        <time>2022-05-31T10:39:01Z</time>
      </trkpt>
      <trkpt lat="49.42002" lon="0.22585">
        <ele>86.5</ele>
        <time>2022-05-31T10:39:02Z</time>
      </trkpt>
      <trkpt lat="49.42001" lon="0.22585">
        <ele>86.5</ele>
        <time>2022-05-31T10:39:03Z</time>
      </trkpt>
      <trkpt lat="49.42001" lon="0.22585">
        <ele>86.6</ele>
        <time>2022-05-31T10:39:04Z</time>
      </trkpt>
      <trkpt lat="49.42" lon="0.22585">
        <ele>86.6</ele>
        <time>2022-05-31T10:39:05Z</time>
      </trkpt>
      <trkpt lat="49.41999" lon="0.22585">
        <ele>86.6</ele>
        <time>2022-05-31T10:39:07Z</time>
      </trkpt>
      <trkpt lat="49.41999" lon="0.22584">
        <ele>86.6</ele>
        <time>2022-05-31T10:39:08Z</time>
      </trkpt>
      <trkpt lat="49.41999" lon="0.22583">
        <ele>86.7</ele>
        <time>2022-05-31T10:39:09Z</time>
      </trkpt>
      <trkpt lat="49.41999" lon="0.22582">
        <ele>86.5</ele>
        <time>2022-05-31T10:39:11Z</time>
      </trkpt>
      <trkpt lat="49.41999" lon="0.22582">
        <ele>87.3</ele>
        <time>2022-05-31T10:39:12Z</time>
      </trkpt>
      <trkpt lat="49.41999" lon="0.22581">
        <ele>87.3</ele>
        <time>2022-05-31T10:39:14Z</time>
      </trkpt>
      <trkpt lat="49.41999" lon="0.2258">
        <ele>87.3</ele>
        <time>2022-05-31T10:39:15Z</time>
      </trkpt>
      <trkpt lat="49.41999" lon="0.22579">
        <ele>87.4</ele>
        <time>2022-05-31T10:39:16Z</time>
      </trkpt>
      <trkpt lat="49.41998" lon="0.22579">
        <ele>87.4</ele>
        <time>2022-05-31T10:39:18Z</time>
      </trkpt>
      <trkpt lat="49.41998" lon="0.22578">
        <ele>87.4</ele>
        <time>2022-05-31T10:39:19Z</time>
      </trkpt>
      <trkpt lat="49.41998" lon="0.22577">
        <ele>88.1</ele>
        <time>2022-05-31T10:39:20Z</time>
      </trkpt>
      <trkpt lat="49.41998" lon="0.22576">
        <ele>88.2</ele>
        <time>2022-05-31T10:39:22Z</time>
      </trkpt>
      <trkpt lat="49.41998" lon="0.22576">
        <ele>88.2</ele>
        <time>2022-05-31T10:39:23Z</time>
      </trkpt>
      <trkpt lat="49.41998" lon="0.22575">
        <ele>88.2</ele>
        <time>2022-05-31T10:39:24Z</time>
      </trkpt>
      <trkpt lat="49.41998" lon="0.22574">
        <ele>88.2</ele>
        <time>2022-05-31T10:39:25Z</time>
      </trkpt>
      <trkpt lat="49.41998" lon="0.22573">
        <ele>88.9</ele>
        <time>2022-05-31T10:39:26Z</time>
      </trkpt>
      <trkpt lat="49.41998" lon="0.22572">
        <ele>89</ele>
        <time>2022-05-31T10:39:27Z</time>
      </trkpt>
      <trkpt lat="49.41998" lon="0.2257">
        <ele>89</ele>
        <time>2022-05-31T10:39:28Z</time>
      </trkpt>
      <trkpt lat="49.41999" lon="0.22569">
        <ele>89.6</ele>
        <time>2022-05-31T10:39:30Z</time>
      </trkpt>
      <trkpt lat="49.41999" lon="0.22568">
        <ele>89.9</ele>
        <time>2022-05-31T10:39:31Z</time>
      </trkpt>
      <trkpt lat="49.42" lon="0.22568">
        <ele>89.9</ele>
        <time>2022-05-31T10:39:32Z</time>
      </trkpt>
      <trkpt lat="49.42" lon="0.22568">
        <ele>89.9</ele>
        <time>2022-05-31T10:39:34Z</time>
      </trkpt>
      <trkpt lat="49.42001" lon="0.22567">
        <ele>89.9</ele>
        <time>2022-05-31T10:39:35Z</time>
      </trkpt>
      <trkpt lat="49.42001" lon="0.22567">
        <ele>90</ele>
        <time>2022-05-31T10:39:37Z</time>
      </trkpt>
      <trkpt lat="49.42002" lon="0.22567">
        <ele>90.1</ele>
        <time>2022-05-31T10:39:38Z</time>
      </trkpt>
      <trkpt lat="49.42002" lon="0.22567">
        <ele>90.1</ele>
        <time>2022-05-31T10:39:39Z</time>
      </trkpt>
      <trkpt lat="49.42003" lon="0.22567">
        <ele>90.1</ele>
        <time>2022-05-31T10:39:40Z</time>
      </trkpt>
      <trkpt lat="49.42003" lon="0.22567">
        <ele>90.1</ele>
        <time>2022-05-31T10:39:41Z</time>
      </trkpt>
      <trkpt lat="49.42003" lon="0.22567">
        <ele>90.1</ele>
        <time>2022-05-31T10:39:42Z</time>
      </trkpt>
      <trkpt lat="49.42003" lon="0.22567">
        <ele>90.1</ele>
        <time>2022-05-31T10:39:43Z</time>
      </trkpt>
      <trkpt lat="49.42003" lon="0.22566">
        <ele>90.2</ele>
        <time>2022-05-31T10:39:44Z</time>
      </trkpt>
      <trkpt lat="49.42003" lon="0.22566">
        <ele>90.2</ele>
        <time>2022-05-31T10:39:45Z</time>
      </trkpt>
      <trkpt lat="49.42004" lon="0.22566">
        <ele>90.2</ele>
        <time>2022-05-31T10:39:47Z</time>
      </trkpt>
      <trkpt lat="49.42004" lon="0.22566">
        <ele>90.3</ele>
        <time>2022-05-31T10:39:48Z</time>
      </trkpt>
      <trkpt lat="49.42004" lon="0.22566">
        <ele>90.3</ele>
        <time>2022-05-31T10:39:49Z</time>
      </trkpt>
      <trkpt lat="49.42005" lon="0.22566">
        <ele>90.4</ele>
        <time>2022-05-31T10:39:51Z</time>
      </trkpt>
      <trkpt lat="49.42005" lon="0.22566">
        <ele>90.4</ele>
        <time>2022-05-31T10:39:52Z</time>
      </trkpt>
      <trkpt lat="49.42005" lon="0.22566">
        <ele>90.4</ele>
        <time>2022-05-31T10:39:54Z</time>
      </trkpt>
      <trkpt lat="49.42005" lon="0.22566">
        <ele>90.4</ele>
        <time>2022-05-31T10:39:55Z</time>
      </trkpt>
      <trkpt lat="49.42005" lon="0.22566">
        <ele>90.4</ele>
        <time>2022-05-31T10:39:56Z</time>
      </trkpt>
      <trkpt lat="49.42005" lon="0.22567">
        <ele>90.5</ele>
        <time>2022-05-31T10:39:57Z</time>
      </trkpt>
      <trkpt lat="49.42005" lon="0.22567">
        <ele>90.5</ele>
        <time>2022-05-31T10:39:59Z</time>
      </trkpt>
      <trkpt lat="49.42004" lon="0.22565">
        <ele>90.6</ele>
        <time>2022-05-31T10:40:00Z</time>
      </trkpt>
      <trkpt lat="49.42004" lon="0.22564">
        <ele>90.6</ele>
        <time>2022-05-31T10:40:01Z</time>
      </trkpt>
      <trkpt lat="49.42004" lon="0.22564">
        <ele>90.7</ele>
        <time>2022-05-31T10:40:02Z</time>
      </trkpt>
      <trkpt lat="49.42004" lon="0.22563">
        <ele>90.7</ele>
        <time>2022-05-31T10:40:03Z</time>
      </trkpt>
      <trkpt lat="49.42004" lon="0.22563">
        <ele>90.7</ele>
        <time>2022-05-31T10:40:04Z</time>
      </trkpt>
      <trkpt lat="49.42005" lon="0.22562">
        <ele>90.8</ele>
        <time>2022-05-31T10:40:05Z</time>
      </trkpt>
      <trkpt lat="49.42005" lon="0.22562">
        <ele>90.8</ele>
        <time>2022-05-31T10:40:06Z</time>
      </trkpt>
      <trkpt lat="49.42005" lon="0.22562">
        <ele>90.8</ele>
        <time>2022-05-31T10:40:07Z</time>
      </trkpt>
      <trkpt lat="49.42005" lon="0.22562">
        <ele>90.8</ele>
        <time>2022-05-31T10:40:08Z</time>
      </trkpt>
      <trkpt lat="49.42006" lon="0.22563">
        <ele>90.9</ele>
        <time>2022-05-31T10:40:10Z</time>
      </trkpt>
      <trkpt lat="49.42006" lon="0.22563">
        <ele>90.9</ele>
        <time>2022-05-31T10:40:11Z</time>
      </trkpt>
      <trkpt lat="49.42006" lon="0.22563">
        <ele>90.9</ele>
        <time>2022-05-31T10:40:12Z</time>
      </trkpt>
      <trkpt lat="49.42005" lon="0.22563">
        <ele>91</ele>
        <time>2022-05-31T10:40:13Z</time>
      </trkpt>
      <trkpt lat="49.42005" lon="0.22562">
        <ele>91.1</ele>
        <time>2022-05-31T10:40:15Z</time>
      </trkpt>
      <trkpt lat="49.42005" lon="0.2256">
        <ele>91.1</ele>
        <time>2022-05-31T10:40:16Z</time>
      </trkpt>
      <trkpt lat="49.42005" lon="0.2256">
        <ele>91.2</ele>
        <time>2022-05-31T10:40:17Z</time>
      </trkpt>
      <trkpt lat="49.42006" lon="0.2256">
        <ele>91.2</ele>
        <time>2022-05-31T10:40:18Z</time>
      </trkpt>
      <trkpt lat="49.42008" lon="0.22563">
        <ele>91.4</ele>
        <time>2022-05-31T10:40:20Z</time>
      </trkpt>
      <trkpt lat="49.42008" lon="0.22563">
        <ele>91.5</ele>
        <time>2022-05-31T10:40:21Z</time>
      </trkpt>
      <trkpt lat="49.42009" lon="0.22563">
        <ele>91.5</ele>
        <time>2022-05-31T10:40:22Z</time>
      </trkpt>
      <trkpt lat="49.4201" lon="0.22562">
        <ele>91.6</ele>
        <time>2022-05-31T10:40:23Z</time>
      </trkpt>
      <trkpt lat="49.42011" lon="0.22561">
        <ele>91.7</ele>
        <time>2022-05-31T10:40:24Z</time>
      </trkpt>
      <trkpt lat="49.42013" lon="0.22558">
        <ele>92.2</ele>
        <time>2022-05-31T10:40:26Z</time>
      </trkpt>
      <trkpt lat="49.42014" lon="0.22556">
        <ele>92.4</ele>
        <time>2022-05-31T10:40:27Z</time>
      </trkpt>
      <trkpt lat="49.42015" lon="0.22554">
        <ele>92.6</ele>
        <time>2022-05-31T10:40:28Z</time>
      </trkpt>
      <trkpt lat="49.42017" lon="0.22548">
        <ele>93.2</ele>
        <time>2022-05-31T10:40:30Z</time>
      </trkpt>
      <trkpt lat="49.42017" lon="0.22546">
        <ele>93.4</ele>
        <time>2022-05-31T10:40:31Z</time>
      </trkpt>
      <trkpt lat="49.42018" lon="0.22543">
        <ele>93.6</ele>
        <time>2022-05-31T10:40:32Z</time>
      </trkpt>
      <trkpt lat="49.42019" lon="0.2254">
        <ele>93.9</ele>
        <time>2022-05-31T10:40:33Z</time>
      </trkpt>
      <trkpt lat="49.4202" lon="0.22538">
        <ele>94.1</ele>
        <time>2022-05-31T10:40:34Z</time>
      </trkpt>
      <trkpt lat="49.42021" lon="0.22535">
        <ele>94.1</ele>
        <time>2022-05-31T10:40:35Z</time>
      </trkpt>
      <trkpt lat="49.42022" lon="0.22534">
        <ele>94.2</ele>
        <time>2022-05-31T10:40:37Z</time>
      </trkpt>
      <trkpt lat="49.42023" lon="0.22532">
        <ele>94.2</ele>
        <time>2022-05-31T10:40:38Z</time>
      </trkpt>
      <trkpt lat="49.42024" lon="0.2253">
        <ele>94.3</ele>
        <time>2022-05-31T10:40:39Z</time>
      </trkpt>
      <trkpt lat="49.42027" lon="0.22526">
        <ele>94.4</ele>
        <time>2022-05-31T10:40:41Z</time>
      </trkpt>
      <trkpt lat="49.42028" lon="0.22525">
        <ele>94.5</ele>
        <time>2022-05-31T10:40:42Z</time>
      </trkpt>
      <trkpt lat="49.42029" lon="0.22523">
        <ele>94.5</ele>
        <time>2022-05-31T10:40:43Z</time>
      </trkpt>
      <trkpt lat="49.4203" lon="0.22522">
        <ele>94.6</ele>
        <time>2022-05-31T10:40:44Z</time>
      </trkpt>
      <trkpt lat="49.42031" lon="0.2252">
        <ele>94.6</ele>
        <time>2022-05-31T10:40:45Z</time>
      </trkpt>
      <trkpt lat="49.42033" lon="0.22518">
        <ele>94.7</ele>
        <time>2022-05-31T10:40:46Z</time>
      </trkpt>
      <trkpt lat="49.42033" lon="0.22517">
        <ele>94.7</ele>
        <time>2022-05-31T10:40:48Z</time>
      </trkpt>
      <trkpt lat="49.42033" lon="0.22516">
        <ele>94.7</ele>
        <time>2022-05-31T10:40:49Z</time>
      </trkpt>
      <trkpt lat="49.42034" lon="0.22515">
        <ele>94.8</ele>
        <time>2022-05-31T10:40:50Z</time>
      </trkpt>
      <trkpt lat="49.42035" lon="0.22512">
        <ele>94.8</ele>
        <time>2022-05-31T10:40:52Z</time>
      </trkpt>
      <trkpt lat="49.42035" lon="0.22511">
        <ele>94.8</ele>
        <time>2022-05-31T10:40:53Z</time>
      </trkpt>
      <trkpt lat="49.42034" lon="0.2251">
        <ele>94.9</ele>
        <time>2022-05-31T10:40:54Z</time>
      </trkpt>
      <trkpt lat="49.42034" lon="0.22508">
        <ele>94.9</ele>
        <time>2022-05-31T10:40:56Z</time>
      </trkpt>
      <trkpt lat="49.42035" lon="0.22507">
        <ele>94.9</ele>
        <time>2022-05-31T10:40:57Z</time>
      </trkpt>
      <trkpt lat="49.42036" lon="0.22507">
        <ele>95</ele>
        <time>2022-05-31T10:40:58Z</time>
      </trkpt>
      <trkpt lat="49.42037" lon="0.22506">
        <ele>95</ele>
        <time>2022-05-31T10:40:59Z</time>
      </trkpt>
      <trkpt lat="49.42038" lon="0.22505">
        <ele>95</ele>
        <time>2022-05-31T10:41:01Z</time>
      </trkpt>
      <trkpt lat="49.42039" lon="0.22504">
        <ele>95.1</ele>
        <time>2022-05-31T10:41:02Z</time>
      </trkpt>
      <trkpt lat="49.4204" lon="0.22502">
        <ele>95.1</ele>
        <time>2022-05-31T10:41:03Z</time>
      </trkpt>
      <trkpt lat="49.4204" lon="0.225">
        <ele>95.1</ele>
        <time>2022-05-31T10:41:05Z</time>
      </trkpt>
      <trkpt lat="49.4204" lon="0.22499">
        <ele>95.2</ele>
        <time>2022-05-31T10:41:06Z</time>
      </trkpt>
      <trkpt lat="49.4204" lon="0.22498">
        <ele>95.2</ele>
        <time>2022-05-31T10:41:07Z</time>
      </trkpt>
      <trkpt lat="49.42041" lon="0.22498">
        <ele>95.2</ele>
        <time>2022-05-31T10:41:08Z</time>
      </trkpt>
      <trkpt lat="49.42041" lon="0.22497">
        <ele>95.2</ele>
        <time>2022-05-31T10:41:10Z</time>
      </trkpt>
      <trkpt lat="49.42042" lon="0.22496">
        <ele>95.2</ele>
        <time>2022-05-31T10:41:12Z</time>
      </trkpt>
      <trkpt lat="49.42042" lon="0.22497">
        <ele>95.3</ele>
        <time>2022-05-31T10:41:14Z</time>
      </trkpt>
      <trkpt lat="49.42043" lon="0.22497">
        <ele>95.3</ele>
        <time>2022-05-31T10:41:15Z</time>
      </trkpt>
      <trkpt lat="49.42042" lon="0.22497">
        <ele>95.3</ele>
        <time>2022-05-31T10:41:16Z</time>
      </trkpt>
      <trkpt lat="49.42042" lon="0.22496">
        <ele>95.3</ele>
        <time>2022-05-31T10:41:17Z</time>
      </trkpt>
      <trkpt lat="49.42043" lon="0.22495">
        <ele>95.3</ele>
        <time>2022-05-31T10:41:19Z</time>
      </trkpt>
      <trkpt lat="49.42043" lon="0.22494">
        <ele>95.3</ele>
        <time>2022-05-31T10:41:20Z</time>
      </trkpt>
      <trkpt lat="49.42042" lon="0.22492">
        <ele>95.3</ele>
        <time>2022-05-31T10:41:21Z</time>
      </trkpt>
      <trkpt lat="49.42042" lon="0.22491">
        <ele>95.3</ele>
        <time>2022-05-31T10:41:22Z</time>
      </trkpt>
      <trkpt lat="49.42042" lon="0.2249">
        <ele>95.3</ele>
        <time>2022-05-31T10:41:23Z</time>
      </trkpt>
      <trkpt lat="49.42042" lon="0.22489">
        <ele>95.3</ele>
        <time>2022-05-31T10:41:25Z</time>
      </trkpt>
      <trkpt lat="49.42042" lon="0.22489">
        <ele>95.3</ele>
        <time>2022-05-31T10:41:26Z</time>
      </trkpt>
      <trkpt lat="49.42042" lon="0.22488">
        <ele>95.3</ele>
        <time>2022-05-31T10:41:27Z</time>
      </trkpt>
      <trkpt lat="49.42041" lon="0.22487">
        <ele>95.3</ele>
        <time>2022-05-31T10:41:28Z</time>
      </trkpt>
      <trkpt lat="49.42041" lon="0.22487">
        <ele>95.3</ele>
        <time>2022-05-31T10:41:29Z</time>
      </trkpt>
      <trkpt lat="49.4204" lon="0.22486">
        <ele>95.3</ele>
        <time>2022-05-31T10:41:30Z</time>
      </trkpt>
      <trkpt lat="49.4204" lon="0.22485">
        <ele>95.3</ele>
        <time>2022-05-31T10:41:31Z</time>
      </trkpt>
      <trkpt lat="49.4204" lon="0.22486">
        <ele>95.3</ele>
        <time>2022-05-31T10:41:32Z</time>
      </trkpt>
      <trkpt lat="49.4204" lon="0.22486">
        <ele>95.3</ele>
        <time>2022-05-31T10:41:33Z</time>
      </trkpt>
      <trkpt lat="49.42041" lon="0.22486">
        <ele>95.3</ele>
        <time>2022-05-31T10:41:35Z</time>
      </trkpt>
      <trkpt lat="49.42042" lon="0.22487">
        <ele>95.3</ele>
        <time>2022-05-31T10:41:36Z</time>
      </trkpt>
      <trkpt lat="49.42043" lon="0.22488">
        <ele>95.3</ele>
        <time>2022-05-31T10:41:37Z</time>
      </trkpt>
      <trkpt lat="49.42044" lon="0.22489">
        <ele>95.3</ele>
        <time>2022-05-31T10:41:38Z</time>
      </trkpt>
      <trkpt lat="49.42044" lon="0.2249">
        <ele>95.3</ele>
        <time>2022-05-31T10:41:39Z</time>
      </trkpt>
      <trkpt lat="49.42045" lon="0.22491">
        <ele>95.3</ele>
        <time>2022-05-31T10:41:40Z</time>
      </trkpt>
      <trkpt lat="49.42045" lon="0.22491">
        <ele>95.3</ele>
        <time>2022-05-31T10:41:41Z</time>
      </trkpt>
      <trkpt lat="49.42045" lon="0.2249">
        <ele>95.3</ele>
        <time>2022-05-31T10:41:42Z</time>
      </trkpt>
      <trkpt lat="49.42046" lon="0.22489">
        <ele>95.3</ele>
        <time>2022-05-31T10:41:44Z</time>
      </trkpt>
      <trkpt lat="49.42046" lon="0.22488">
        <ele>95.3</ele>
        <time>2022-05-31T10:41:45Z</time>
      </trkpt>
      <trkpt lat="49.42045" lon="0.22487">
        <ele>95.3</ele>
        <time>2022-05-31T10:41:46Z</time>
      </trkpt>
      <trkpt lat="49.42045" lon="0.22486">
        <ele>95.3</ele>
        <time>2022-05-31T10:41:47Z</time>
      </trkpt>
      <trkpt lat="49.42046" lon="0.22486">
        <ele>95.3</ele>
        <time>2022-05-31T10:41:49Z</time>
      </trkpt>
      <trkpt lat="49.42047" lon="0.22485">
        <ele>95.3</ele>
        <time>2022-05-31T10:41:50Z</time>
      </trkpt>
      <trkpt lat="49.42047" lon="0.22484">
        <ele>95.3</ele>
        <time>2022-05-31T10:41:51Z</time>
      </trkpt>
      <trkpt lat="49.42048" lon="0.22483">
        <ele>95.3</ele>
        <time>2022-05-31T10:41:52Z</time>
      </trkpt>
      <trkpt lat="49.42048" lon="0.22483">
        <ele>95.4</ele>
        <time>2022-05-31T10:41:54Z</time>
      </trkpt>
      <trkpt lat="49.42049" lon="0.22482">
        <ele>95.4</ele>
        <time>2022-05-31T10:41:55Z</time>
      </trkpt>
      <trkpt lat="49.42049" lon="0.22481">
        <ele>95.4</ele>
        <time>2022-05-31T10:41:56Z</time>
      </trkpt>
      <trkpt lat="49.4205" lon="0.22479">
        <ele>95.4</ele>
        <time>2022-05-31T10:41:57Z</time>
      </trkpt>
      <trkpt lat="49.42051" lon="0.22478">
        <ele>95.4</ele>
        <time>2022-05-31T10:41:58Z</time>
      </trkpt>
      <trkpt lat="49.42052" lon="0.22477">
        <ele>95.4</ele>
        <time>2022-05-31T10:41:59Z</time>
      </trkpt>
      <trkpt lat="49.42053" lon="0.22476">
        <ele>95.4</ele>
        <time>2022-05-31T10:42:01Z</time>
      </trkpt>
      <trkpt lat="49.42054" lon="0.22476">
        <ele>95.4</ele>
        <time>2022-05-31T10:42:02Z</time>
      </trkpt>
      <trkpt lat="49.42055" lon="0.22474">
        <ele>95.4</ele>
        <time>2022-05-31T10:42:03Z</time>
      </trkpt>
      <trkpt lat="49.42056" lon="0.22473">
        <ele>95.4</ele>
        <time>2022-05-31T10:42:04Z</time>
      </trkpt>
      <trkpt lat="49.42057" lon="0.22472">
        <ele>95.4</ele>
        <time>2022-05-31T10:42:05Z</time>
      </trkpt>
      <trkpt lat="49.42057" lon="0.22472">
        <ele>95.4</ele>
        <time>2022-05-31T10:42:06Z</time>
      </trkpt>
      <trkpt lat="49.42058" lon="0.22472">
        <ele>95.4</ele>
        <time>2022-05-31T10:42:07Z</time>
      </trkpt>
      <trkpt lat="49.42059" lon="0.22472">
        <ele>95.4</ele>
        <time>2022-05-31T10:42:08Z</time>
      </trkpt>
      <trkpt lat="49.42059" lon="0.22472">
        <ele>95.4</ele>
        <time>2022-05-31T10:42:09Z</time>
      </trkpt>
      <trkpt lat="49.4206" lon="0.22471">
        <ele>95.4</ele>
        <time>2022-05-31T10:42:10Z</time>
      </trkpt>
      <trkpt lat="49.42059" lon="0.2247">
        <ele>95.4</ele>
        <time>2022-05-31T10:42:11Z</time>
      </trkpt>
      <trkpt lat="49.42059" lon="0.22469">
        <ele>95.4</ele>
        <time>2022-05-31T10:42:13Z</time>
      </trkpt>
      <trkpt lat="49.42059" lon="0.22468">
        <ele>95.4</ele>
        <time>2022-05-31T10:42:14Z</time>
      </trkpt>
      <trkpt lat="49.42059" lon="0.22468">
        <ele>95.4</ele>
        <time>2022-05-31T10:42:15Z</time>
      </trkpt>
      <trkpt lat="49.4206" lon="0.22466">
        <ele>95.4</ele>
        <time>2022-05-31T10:42:16Z</time>
      </trkpt>
      <trkpt lat="49.4206" lon="0.22465">
        <ele>95.4</ele>
        <time>2022-05-31T10:42:17Z</time>
      </trkpt>
      <trkpt lat="49.42061" lon="0.22464">
        <ele>95.4</ele>
        <time>2022-05-31T10:42:18Z</time>
      </trkpt>
      <trkpt lat="49.42062" lon="0.22463">
        <ele>95.5</ele>
        <time>2022-05-31T10:42:19Z</time>
      </trkpt>
      <trkpt lat="49.42063" lon="0.22461">
        <ele>95.5</ele>
        <time>2022-05-31T10:42:20Z</time>
      </trkpt>
      <trkpt lat="49.42064" lon="0.22459">
        <ele>95.5</ele>
        <time>2022-05-31T10:42:22Z</time>
      </trkpt>
      <trkpt lat="49.42065" lon="0.22457">
        <ele>95.5</ele>
        <time>2022-05-31T10:42:23Z</time>
      </trkpt>
      <trkpt lat="49.42066" lon="0.22455">
        <ele>95.5</ele>
        <time>2022-05-31T10:42:24Z</time>
      </trkpt>
      <trkpt lat="49.42067" lon="0.22453">
        <ele>95.5</ele>
        <time>2022-05-31T10:42:25Z</time>
      </trkpt>
      <trkpt lat="49.42068" lon="0.22451">
        <ele>95.5</ele>
        <time>2022-05-31T10:42:26Z</time>
      </trkpt>
      <trkpt lat="49.42068" lon="0.22449">
        <ele>95.5</ele>
        <time>2022-05-31T10:42:27Z</time>
      </trkpt>
      <trkpt lat="49.42069" lon="0.22447">
        <ele>95.5</ele>
        <time>2022-05-31T10:42:28Z</time>
      </trkpt>
      <trkpt lat="49.4207" lon="0.22444">
        <ele>95.5</ele>
        <time>2022-05-31T10:42:30Z</time>
      </trkpt>
      <trkpt lat="49.42071" lon="0.22442">
        <ele>95.5</ele>
        <time>2022-05-31T10:42:31Z</time>
      </trkpt>
      <trkpt lat="49.42072" lon="0.2244">
        <ele>95.5</ele>
        <time>2022-05-31T10:42:32Z</time>
      </trkpt>
      <trkpt lat="49.42073" lon="0.22438">
        <ele>95.5</ele>
        <time>2022-05-31T10:42:33Z</time>
      </trkpt>
      <trkpt lat="49.42074" lon="0.22437">
        <ele>95.5</ele>
        <time>2022-05-31T10:42:34Z</time>
      </trkpt>
      <trkpt lat="49.42075" lon="0.22436">
        <ele>95.6</ele>
        <time>2022-05-31T10:42:35Z</time>
      </trkpt>
      <trkpt lat="49.42075" lon="0.22435">
        <ele>95.6</ele>
        <time>2022-05-31T10:42:36Z</time>
      </trkpt>
      <trkpt lat="49.42076" lon="0.22434">
        <ele>95.6</ele>
        <time>2022-05-31T10:42:37Z</time>
      </trkpt>
      <trkpt lat="49.42077" lon="0.22432">
        <ele>95.6</ele>
        <time>2022-05-31T10:42:38Z</time>
      </trkpt>
      <trkpt lat="49.42078" lon="0.22431">
        <ele>95.6</ele>
        <time>2022-05-31T10:42:40Z</time>
      </trkpt>
      <trkpt lat="49.42079" lon="0.2243">
        <ele>95.6</ele>
        <time>2022-05-31T10:42:41Z</time>
      </trkpt>
      <trkpt lat="49.4208" lon="0.22428">
        <ele>95.6</ele>
        <time>2022-05-31T10:42:42Z</time>
      </trkpt>
      <trkpt lat="49.42081" lon="0.22426">
        <ele>95.6</ele>
        <time>2022-05-31T10:42:43Z</time>
      </trkpt>
      <trkpt lat="49.42082" lon="0.22425">
        <ele>95.6</ele>
        <time>2022-05-31T10:42:44Z</time>
      </trkpt>
      <trkpt lat="49.42082" lon="0.22425">
        <ele>95.6</ele>
        <time>2022-05-31T10:42:45Z</time>
      </trkpt>
      <trkpt lat="49.42083" lon="0.22423">
        <ele>95.6</ele>
        <time>2022-05-31T10:42:46Z</time>
      </trkpt>
      <trkpt lat="49.42084" lon="0.22423">
        <ele>95.6</ele>
        <time>2022-05-31T10:42:47Z</time>
      </trkpt>
      <trkpt lat="49.42085" lon="0.22422">
        <ele>95.6</ele>
        <time>2022-05-31T10:42:48Z</time>
      </trkpt>
      <trkpt lat="49.42086" lon="0.2242">
        <ele>95.6</ele>
        <time>2022-05-31T10:42:50Z</time>
      </trkpt>
      <trkpt lat="49.42087" lon="0.22419">
        <ele>95.6</ele>
        <time>2022-05-31T10:42:51Z</time>
      </trkpt>
      <trkpt lat="49.42089" lon="0.22417">
        <ele>95.6</ele>
        <time>2022-05-31T10:42:52Z</time>
      </trkpt>
      <trkpt lat="49.4209" lon="0.22416">
        <ele>95.6</ele>
        <time>2022-05-31T10:42:53Z</time>
      </trkpt>
      <trkpt lat="49.42092" lon="0.22415">
        <ele>95.6</ele>
        <time>2022-05-31T10:42:54Z</time>
      </trkpt>
      <trkpt lat="49.42093" lon="0.22414">
        <ele>95.6</ele>
        <time>2022-05-31T10:42:55Z</time>
      </trkpt>
      <trkpt lat="49.42095" lon="0.22414">
        <ele>95.6</ele>
        <time>2022-05-31T10:42:56Z</time>
      </trkpt>
      <trkpt lat="49.42098" lon="0.22414">
        <ele>95.7</ele>
        <time>2022-05-31T10:42:58Z</time>
      </trkpt>
      <trkpt lat="49.42098" lon="0.22415">
        <ele>95.7</ele>
        <time>2022-05-31T10:42:59Z</time>
      </trkpt>
      <trkpt lat="49.42099" lon="0.22414">
        <ele>95.7</ele>
        <time>2022-05-31T10:43:00Z</time>
      </trkpt>
      <trkpt lat="49.421" lon="0.22414">
        <ele>95.7</ele>
        <time>2022-05-31T10:43:01Z</time>
      </trkpt>
      <trkpt lat="49.42102" lon="0.22415">
        <ele>95.7</ele>
        <time>2022-05-31T10:43:02Z</time>
      </trkpt>
      <trkpt lat="49.42103" lon="0.22413">
        <ele>95.7</ele>
        <time>2022-05-31T10:43:03Z</time>
      </trkpt>
      <trkpt lat="49.42104" lon="0.22412">
        <ele>95.7</ele>
        <time>2022-05-31T10:43:04Z</time>
      </trkpt>
      <trkpt lat="49.42105" lon="0.22412">
        <ele>95.7</ele>
        <time>2022-05-31T10:43:06Z</time>
      </trkpt>
      <trkpt lat="49.42106" lon="0.22413">
        <ele>95.7</ele>
        <time>2022-05-31T10:43:07Z</time>
      </trkpt>
      <trkpt lat="49.42106" lon="0.22413">
        <ele>95.7</ele>
        <time>2022-05-31T10:43:08Z</time>
      </trkpt>
      <trkpt lat="49.42106" lon="0.2241">
        <ele>95.7</ele>
        <time>2022-05-31T10:43:09Z</time>
      </trkpt>
      <trkpt lat="49.42107" lon="0.22409">
        <ele>95.7</ele>
        <time>2022-05-31T10:43:10Z</time>
      </trkpt>
      <trkpt lat="49.42108" lon="0.22408">
        <ele>95.7</ele>
        <time>2022-05-31T10:43:12Z</time>
      </trkpt>
      <trkpt lat="49.42108" lon="0.22407">
        <ele>95.7</ele>
        <time>2022-05-31T10:43:13Z</time>
      </trkpt>
      <trkpt lat="49.42109" lon="0.22406">
        <ele>95.7</ele>
        <time>2022-05-31T10:43:14Z</time>
      </trkpt>
      <trkpt lat="49.4211" lon="0.22405">
        <ele>95.7</ele>
        <time>2022-05-31T10:43:15Z</time>
      </trkpt>
      <trkpt lat="49.42111" lon="0.22405">
        <ele>95.7</ele>
        <time>2022-05-31T10:43:16Z</time>
      </trkpt>
      <trkpt lat="49.42111" lon="0.22405">
        <ele>95.7</ele>
        <time>2022-05-31T10:43:17Z</time>
      </trkpt>
      <trkpt lat="49.42112" lon="0.22405">
        <ele>95.7</ele>
        <time>2022-05-31T10:43:18Z</time>
      </trkpt>
      <trkpt lat="49.42111" lon="0.22405">
        <ele>95.7</ele>
        <time>2022-05-31T10:43:19Z</time>
      </trkpt>
      <trkpt lat="49.42111" lon="0.22405">
        <ele>95.7</ele>
        <time>2022-05-31T10:43:20Z</time>
      </trkpt>
      <trkpt lat="49.42111" lon="0.22405">
        <ele>95.7</ele>
        <time>2022-05-31T10:43:21Z</time>
      </trkpt>
      <trkpt lat="49.42112" lon="0.22404">
        <ele>95.7</ele>
        <time>2022-05-31T10:43:22Z</time>
      </trkpt>
      <trkpt lat="49.42112" lon="0.22404">
        <ele>95.7</ele>
        <time>2022-05-31T10:43:24Z</time>
      </trkpt>
      <trkpt lat="49.42112" lon="0.22403">
        <ele>95.7</ele>
        <time>2022-05-31T10:43:25Z</time>
      </trkpt>
      <trkpt lat="49.42112" lon="0.22402">
        <ele>95.7</ele>
        <time>2022-05-31T10:43:26Z</time>
      </trkpt>
      <trkpt lat="49.42113" lon="0.22399">
        <ele>95.7</ele>
        <time>2022-05-31T10:43:27Z</time>
      </trkpt>
      <trkpt lat="49.42113" lon="0.22398">
        <ele>95.7</ele>
        <time>2022-05-31T10:43:28Z</time>
      </trkpt>
      <trkpt lat="49.42114" lon="0.22396">
        <ele>95.7</ele>
        <time>2022-05-31T10:43:29Z</time>
      </trkpt>
      <trkpt lat="49.42115" lon="0.22394">
        <ele>95.7</ele>
        <time>2022-05-31T10:43:30Z</time>
      </trkpt>
      <trkpt lat="49.42116" lon="0.22392">
        <ele>95.7</ele>
        <time>2022-05-31T10:43:31Z</time>
      </trkpt>
      <trkpt lat="49.42117" lon="0.22389">
        <ele>95.7</ele>
        <time>2022-05-31T10:43:33Z</time>
      </trkpt>
      <trkpt lat="49.42117" lon="0.22387">
        <ele>95.7</ele>
        <time>2022-05-31T10:43:34Z</time>
      </trkpt>
      <trkpt lat="49.42117" lon="0.22385">
        <ele>95.7</ele>
        <time>2022-05-31T10:43:35Z</time>
      </trkpt>
      <trkpt lat="49.42117" lon="0.22383">
        <ele>95.7</ele>
        <time>2022-05-31T10:43:36Z</time>
      </trkpt>
      <trkpt lat="49.42117" lon="0.22381">
        <ele>95.7</ele>
        <time>2022-05-31T10:43:37Z</time>
      </trkpt>
      <trkpt lat="49.42117" lon="0.2238">
        <ele>95.7</ele>
        <time>2022-05-31T10:43:38Z</time>
      </trkpt>
      <trkpt lat="49.42117" lon="0.22379">
        <ele>95.7</ele>
        <time>2022-05-31T10:43:39Z</time>
      </trkpt>
      <trkpt lat="49.42116" lon="0.22379">
        <ele>95.7</ele>
        <time>2022-05-31T10:43:40Z</time>
      </trkpt>
      <trkpt lat="49.42116" lon="0.22378">
        <ele>95.7</ele>
        <time>2022-05-31T10:43:41Z</time>
      </trkpt>
      <trkpt lat="49.42114" lon="0.22377">
        <ele>95.7</ele>
        <time>2022-05-31T10:43:43Z</time>
      </trkpt>
      <trkpt lat="49.42114" lon="0.22375">
        <ele>95.7</ele>
        <time>2022-05-31T10:43:44Z</time>
      </trkpt>
      <trkpt lat="49.42114" lon="0.22375">
        <ele>95.7</ele>
        <time>2022-05-31T10:43:45Z</time>
      </trkpt>
      <trkpt lat="49.42114" lon="0.22374">
        <ele>95.7</ele>
        <time>2022-05-31T10:43:46Z</time>
      </trkpt>
      <trkpt lat="49.42114" lon="0.22374">
        <ele>95.7</ele>
        <time>2022-05-31T10:43:47Z</time>
      </trkpt>
      <trkpt lat="49.42114" lon="0.22374">
        <ele>95.7</ele>
        <time>2022-05-31T10:43:48Z</time>
      </trkpt>
      <trkpt lat="49.42115" lon="0.22374">
        <ele>95.7</ele>
        <time>2022-05-31T10:43:50Z</time>
      </trkpt>
      <trkpt lat="49.42115" lon="0.22375">
        <ele>95.7</ele>
        <time>2022-05-31T10:43:51Z</time>
      </trkpt>
      <trkpt lat="49.42116" lon="0.22375">
        <ele>95.7</ele>
        <time>2022-05-31T10:43:52Z</time>
      </trkpt>
      <trkpt lat="49.42116" lon="0.22375">
        <ele>95.7</ele>
        <time>2022-05-31T10:43:53Z</time>
      </trkpt>
      <trkpt lat="49.42116" lon="0.22375">
        <ele>95.7</ele>
        <time>2022-05-31T10:43:54Z</time>
      </trkpt>
      <trkpt lat="49.42116" lon="0.22375">
        <ele>95.7</ele>
        <time>2022-05-31T10:43:55Z</time>
      </trkpt>
      <trkpt lat="49.42116" lon="0.22374">
        <ele>95.7</ele>
        <time>2022-05-31T10:43:56Z</time>
      </trkpt>
      <trkpt lat="49.42116" lon="0.22374">
        <ele>95.7</ele>
        <time>2022-05-31T10:43:57Z</time>
      </trkpt>
      <trkpt lat="49.42116" lon="0.22374">
        <ele>95.7</ele>
        <time>2022-05-31T10:43:58Z</time>
      </trkpt>
      <trkpt lat="49.42116" lon="0.22374">
        <ele>95.7</ele>
        <time>2022-05-31T10:43:59Z</time>
      </trkpt>
      <trkpt lat="49.42116" lon="0.22374">
        <ele>95.7</ele>
        <time>2022-05-31T10:44:01Z</time>
      </trkpt>
      <trkpt lat="49.42116" lon="0.22374">
        <ele>95.7</ele>
        <time>2022-05-31T10:44:02Z</time>
      </trkpt>
      <trkpt lat="49.42117" lon="0.22374">
        <ele>95.7</ele>
        <time>2022-05-31T10:44:04Z</time>
      </trkpt>
      <trkpt lat="49.42117" lon="0.22375">
        <ele>95.7</ele>
        <time>2022-05-31T10:44:05Z</time>
      </trkpt>
      <trkpt lat="49.42117" lon="0.22375">
        <ele>95.7</ele>
        <time>2022-05-31T10:44:06Z</time>
      </trkpt>
      <trkpt lat="49.42117" lon="0.22376">
        <ele>95.7</ele>
        <time>2022-05-31T10:44:07Z</time>
      </trkpt>
      <trkpt lat="49.42117" lon="0.22376">
        <ele>95.7</ele>
        <time>2022-05-31T10:44:08Z</time>
      </trkpt>
      <trkpt lat="49.42117" lon="0.22376">
        <ele>95.7</ele>
        <time>2022-05-31T10:44:09Z</time>
      </trkpt>
      <trkpt lat="49.42117" lon="0.22376">
        <ele>95.7</ele>
        <time>2022-05-31T10:44:10Z</time>
      </trkpt>
      <trkpt lat="49.42117" lon="0.22377">
        <ele>95.7</ele>
        <time>2022-05-31T10:44:11Z</time>
      </trkpt>
      <trkpt lat="49.42116" lon="0.22378">
        <ele>95.7</ele>
        <time>2022-05-31T10:44:13Z</time>
      </trkpt>
      <trkpt lat="49.42116" lon="0.22378">
        <ele>95.7</ele>
        <time>2022-05-31T10:44:14Z</time>
      </trkpt>
      <trkpt lat="49.42116" lon="0.22378">
        <ele>95.7</ele>
        <time>2022-05-31T10:44:15Z</time>
      </trkpt>
      <trkpt lat="49.42116" lon="0.22379">
        <ele>95.7</ele>
        <time>2022-05-31T10:44:16Z</time>
      </trkpt>
      <trkpt lat="49.42116" lon="0.22379">
        <ele>95.7</ele>
        <time>2022-05-31T10:44:17Z</time>
      </trkpt>
      <trkpt lat="49.42116" lon="0.2238">
        <ele>95.7</ele>
        <time>2022-05-31T10:44:18Z</time>
      </trkpt>
      <trkpt lat="49.42116" lon="0.22379">
        <ele>95.7</ele>
        <time>2022-05-31T10:44:19Z</time>
      </trkpt>
      <trkpt lat="49.42116" lon="0.22379">
        <ele>95.7</ele>
        <time>2022-05-31T10:44:20Z</time>
      </trkpt>
      <trkpt lat="49.42117" lon="0.22379">
        <ele>95.7</ele>
        <time>2022-05-31T10:44:21Z</time>
      </trkpt>
      <trkpt lat="49.42117" lon="0.22379">
        <ele>95.7</ele>
        <time>2022-05-31T10:44:22Z</time>
      </trkpt>
      <trkpt lat="49.42117" lon="0.22379">
        <ele>95.7</ele>
        <time>2022-05-31T10:44:23Z</time>
      </trkpt>
      <trkpt lat="49.42117" lon="0.22379">
        <ele>95.7</ele>
        <time>2022-05-31T10:44:24Z</time>
      </trkpt>
      <trkpt lat="49.42117" lon="0.22379">
        <ele>95.7</ele>
        <time>2022-05-31T10:44:25Z</time>
      </trkpt>
      <trkpt lat="49.42117" lon="0.22379">
        <ele>95.7</ele>
        <time>2022-05-31T10:44:26Z</time>
      </trkpt>
      <trkpt lat="49.42117" lon="0.22379">
        <ele>95.7</ele>
        <time>2022-05-31T10:44:27Z</time>
      </trkpt>
      <trkpt lat="49.42117" lon="0.22379">
        <ele>95.7</ele>
        <time>2022-05-31T10:44:28Z</time>
      </trkpt>
      <trkpt lat="49.42117" lon="0.22379">
        <ele>95.7</ele>
        <time>2022-05-31T10:44:29Z</time>
      </trkpt>
      <trkpt lat="49.42117" lon="0.22379">
        <ele>95.7</ele>
        <time>2022-05-31T10:44:30Z</time>
      </trkpt>
      <trkpt lat="49.42117" lon="0.22379">
        <ele>95.7</ele>
        <time>2022-05-31T10:44:32Z</time>
      </trkpt>
      <trkpt lat="49.42118" lon="0.22378">
        <ele>95.7</ele>
        <time>2022-05-31T10:44:33Z</time>
      </trkpt>
      <trkpt lat="49.42118" lon="0.22378">
        <ele>95.7</ele>
        <time>2022-05-31T10:44:34Z</time>
      </trkpt>
      <trkpt lat="49.42118" lon="0.22378">
        <ele>95.7</ele>
        <time>2022-05-31T10:44:35Z</time>
      </trkpt>
      <trkpt lat="49.42118" lon="0.22378">
        <ele>95.7</ele>
        <time>2022-05-31T10:44:36Z</time>
      </trkpt>
      <trkpt lat="49.42118" lon="0.22378">
        <ele>95.7</ele>
        <time>2022-05-31T10:44:37Z</time>
      </trkpt>
      <trkpt lat="49.42118" lon="0.22378">
        <ele>95.7</ele>
        <time>2022-05-31T10:44:38Z</time>
      </trkpt>
      <trkpt lat="49.42118" lon="0.22378">
        <ele>95.7</ele>
        <time>2022-05-31T10:44:39Z</time>
      </trkpt>
      <trkpt lat="49.42118" lon="0.22378">
        <ele>95.7</ele>
        <time>2022-05-31T10:44:40Z</time>
      </trkpt>
      <trkpt lat="49.42118" lon="0.22378">
        <ele>95.7</ele>
        <time>2022-05-31T10:44:41Z</time>
      </trkpt>
      <trkpt lat="49.42118" lon="0.22378">
        <ele>95.7</ele>
        <time>2022-05-31T10:44:42Z</time>
      </trkpt>
      <trkpt lat="49.42119" lon="0.22378">
        <ele>95.7</ele>
        <time>2022-05-31T10:44:43Z</time>
      </trkpt>
      <trkpt lat="49.42119" lon="0.22378">
        <ele>95.7</ele>
        <time>2022-05-31T10:44:44Z</time>
      </trkpt>
      <trkpt lat="49.42119" lon="0.22378">
        <ele>95.7</ele>
        <time>2022-05-31T10:44:45Z</time>
      </trkpt>
      <trkpt lat="49.42119" lon="0.22377">
        <ele>95.7</ele>
        <time>2022-05-31T10:44:47Z</time>
      </trkpt>
      <trkpt lat="49.42119" lon="0.22377">
        <ele>95.7</ele>
        <time>2022-05-31T10:44:48Z</time>
      </trkpt>
      <trkpt lat="49.42119" lon="0.22377">
        <ele>95.7</ele>
        <time>2022-05-31T10:44:50Z</time>
      </trkpt>
      <trkpt lat="49.42119" lon="0.22377">
        <ele>95.7</ele>
        <time>2022-05-31T10:44:51Z</time>
      </trkpt>
      <trkpt lat="49.42119" lon="0.22377">
        <ele>95.7</ele>
        <time>2022-05-31T10:44:52Z</time>
      </trkpt>
      <trkpt lat="49.42119" lon="0.22377">
        <ele>95.7</ele>
        <time>2022-05-31T10:44:53Z</time>
      </trkpt>
      <trkpt lat="49.42119" lon="0.22377">
        <ele>95.7</ele>
        <time>2022-05-31T10:44:55Z</time>
      </trkpt>
      <trkpt lat="49.42119" lon="0.22377">
        <ele>95.7</ele>
        <time>2022-05-31T10:44:56Z</time>
      </trkpt>
      <trkpt lat="49.4212" lon="0.22377">
        <ele>95.7</ele>
        <time>2022-05-31T10:44:57Z</time>
      </trkpt>
      <trkpt lat="49.4212" lon="0.22377">
        <ele>95.7</ele>
        <time>2022-05-31T10:44:58Z</time>
      </trkpt>
      <trkpt lat="49.4212" lon="0.22377">
        <ele>95.7</ele>
        <time>2022-05-31T10:44:59Z</time>
      </trkpt>
      <trkpt lat="49.42121" lon="0.22373">
        <ele>95.7</ele>
        <time>2022-05-31T10:45:00Z</time>
      </trkpt>
      <trkpt lat="49.42122" lon="0.22371">
        <ele>95.7</ele>
        <time>2022-05-31T10:45:01Z</time>
      </trkpt>
      <trkpt lat="49.42122" lon="0.22371">
        <ele>95.7</ele>
        <time>2022-05-31T10:45:02Z</time>
      </trkpt>
      <trkpt lat="49.42122" lon="0.2237">
        <ele>95.7</ele>
        <time>2022-05-31T10:45:03Z</time>
      </trkpt>
      <trkpt lat="49.42122" lon="0.2237">
        <ele>95.7</ele>
        <time>2022-05-31T10:45:04Z</time>
      </trkpt>
      <trkpt lat="49.42122" lon="0.22369">
        <ele>95.7</ele>
        <time>2022-05-31T10:45:05Z</time>
      </trkpt>
      <trkpt lat="49.42122" lon="0.22368">
        <ele>95.7</ele>
        <time>2022-05-31T10:45:06Z</time>
      </trkpt>
      <trkpt lat="49.42123" lon="0.22368">
        <ele>95.7</ele>
        <time>2022-05-31T10:45:07Z</time>
      </trkpt>
      <trkpt lat="49.42123" lon="0.22367">
        <ele>95.7</ele>
        <time>2022-05-31T10:45:08Z</time>
      </trkpt>
      <trkpt lat="49.42123" lon="0.22367">
        <ele>95.7</ele>
        <time>2022-05-31T10:45:10Z</time>
      </trkpt>
      <trkpt lat="49.42123" lon="0.22367">
        <ele>95.7</ele>
        <time>2022-05-31T10:45:11Z</time>
      </trkpt>
      <trkpt lat="49.42123" lon="0.22367">
        <ele>95.7</ele>
        <time>2022-05-31T10:45:12Z</time>
      </trkpt>
      <trkpt lat="49.42123" lon="0.22367">
        <ele>95.7</ele>
        <time>2022-05-31T10:45:13Z</time>
      </trkpt>
      <trkpt lat="49.42123" lon="0.22366">
        <ele>95.7</ele>
        <time>2022-05-31T10:45:14Z</time>
      </trkpt>
      <trkpt lat="49.42123" lon="0.22366">
        <ele>95.7</ele>
        <time>2022-05-31T10:45:15Z</time>
      </trkpt>
      <trkpt lat="49.42123" lon="0.22366">
        <ele>95.7</ele>
        <time>2022-05-31T10:45:16Z</time>
      </trkpt>
      <trkpt lat="49.42123" lon="0.22366">
        <ele>95.7</ele>
        <time>2022-05-31T10:45:17Z</time>
      </trkpt>
      <trkpt lat="49.42123" lon="0.22366">
        <ele>95.7</ele>
        <time>2022-05-31T10:45:18Z</time>
      </trkpt>
      <trkpt lat="49.42123" lon="0.22366">
        <ele>95.7</ele>
        <time>2022-05-31T10:45:19Z</time>
      </trkpt>
      <trkpt lat="49.42123" lon="0.22366">
        <ele>95.7</ele>
        <time>2022-05-31T10:45:20Z</time>
      </trkpt>
      <trkpt lat="49.42123" lon="0.22366">
        <ele>95.7</ele>
        <time>2022-05-31T10:45:21Z</time>
      </trkpt>
      <trkpt lat="49.42123" lon="0.22366">
        <ele>95.7</ele>
        <time>2022-05-31T10:45:22Z</time>
      </trkpt>
      <trkpt lat="49.42123" lon="0.22366">
        <ele>95.7</ele>
        <time>2022-05-31T10:45:23Z</time>
      </trkpt>
      <trkpt lat="49.42123" lon="0.22366">
        <ele>95.7</ele>
        <time>2022-05-31T10:45:24Z</time>
      </trkpt>
      <trkpt lat="49.42123" lon="0.22366">
        <ele>95.7</ele>
        <time>2022-05-31T10:45:25Z</time>
      </trkpt>
      <trkpt lat="49.42123" lon="0.22366">
        <ele>95.7</ele>
        <time>2022-05-31T10:45:26Z</time>
      </trkpt>
      <trkpt lat="49.42123" lon="0.22366">
        <ele>95.7</ele>
        <time>2022-05-31T10:45:27Z</time>
      </trkpt>
      <trkpt lat="49.42123" lon="0.22366">
        <ele>95.7</ele>
        <time>2022-05-31T10:45:28Z</time>
      </trkpt>
      <trkpt lat="49.42123" lon="0.22366">
        <ele>95.7</ele>
        <time>2022-05-31T10:45:29Z</time>
      </trkpt>
      <trkpt lat="49.42123" lon="0.22366">
        <ele>95.7</ele>
        <time>2022-05-31T10:45:30Z</time>
      </trkpt>
      <trkpt lat="49.42123" lon="0.22366">
        <ele>95.7</ele>
        <time>2022-05-31T10:45:31Z</time>
      </trkpt>
      <trkpt lat="49.42123" lon="0.22366">
        <ele>95.7</ele>
        <time>2022-05-31T10:45:32Z</time>
      </trkpt>
      <trkpt lat="49.42123" lon="0.22366">
        <ele>95.7</ele>
        <time>2022-05-31T10:45:33Z</time>
      </trkpt>
      <trkpt lat="49.42123" lon="0.22366">
        <ele>95.7</ele>
        <time>2022-05-31T10:45:34Z</time>
      </trkpt>
      <trkpt lat="49.42123" lon="0.22366">
        <ele>95.7</ele>
        <time>2022-05-31T10:45:35Z</time>
      </trkpt>
      <trkpt lat="49.42123" lon="0.22366">
        <ele>95.7</ele>
        <time>2022-05-31T10:45:36Z</time>
      </trkpt>
      <trkpt lat="49.42123" lon="0.22366">
        <ele>95.7</ele>
        <time>2022-05-31T10:45:37Z</time>
      </trkpt>
      <trkpt lat="49.42123" lon="0.22366">
        <ele>95.7</ele>
        <time>2022-05-31T10:45:38Z</time>
      </trkpt>
      <trkpt lat="49.42123" lon="0.22366">
        <ele>95.7</ele>
        <time>2022-05-31T10:45:39Z</time>
      </trkpt>
      <trkpt lat="49.42123" lon="0.22366">
        <ele>95.7</ele>
        <time>2022-05-31T10:45:40Z</time>
      </trkpt>
      <trkpt lat="49.42123" lon="0.22366">
        <ele>95.7</ele>
        <time>2022-05-31T10:45:41Z</time>
      </trkpt>
      <trkpt lat="49.42123" lon="0.22366">
        <ele>95.7</ele>
        <time>2022-05-31T10:45:42Z</time>
      </trkpt>
      <trkpt lat="49.42123" lon="0.22366">
        <ele>95.7</ele>
        <time>2022-05-31T10:45:43Z</time>
      </trkpt>
      <trkpt lat="49.42123" lon="0.22366">
        <ele>95.7</ele>
        <time>2022-05-31T10:45:44Z</time>
      </trkpt>
      <trkpt lat="49.42123" lon="0.22366">
        <ele>95.7</ele>
        <time>2022-05-31T10:45:45Z</time>
      </trkpt>
      <trkpt lat="49.42123" lon="0.22366">
        <ele>95.7</ele>
        <time>2022-05-31T10:45:46Z</time>
      </trkpt>
      <trkpt lat="49.42123" lon="0.22366">
        <ele>95.7</ele>
        <time>2022-05-31T10:45:47Z</time>
      </trkpt>
      <trkpt lat="49.42123" lon="0.22366">
        <ele>95.7</ele>
        <time>2022-05-31T10:45:48Z</time>
      </trkpt>
      <trkpt lat="49.42123" lon="0.22366">
        <ele>95.7</ele>
        <time>2022-05-31T10:45:49Z</time>
      </trkpt>
      <trkpt lat="49.42123" lon="0.22366">
        <ele>95.7</ele>
        <time>2022-05-31T10:45:50Z</time>
      </trkpt>
      <trkpt lat="49.42123" lon="0.22366">
        <ele>95.7</ele>
        <time>2022-05-31T10:45:51Z</time>
      </trkpt>
      <trkpt lat="49.42123" lon="0.22366">
        <ele>95.7</ele>
        <time>2022-05-31T10:45:52Z</time>
      </trkpt>
      <trkpt lat="49.42123" lon="0.22366">
        <ele>95.7</ele>
        <time>2022-05-31T10:45:53Z</time>
      </trkpt>
      <trkpt lat="49.42123" lon="0.22366">
        <ele>95.7</ele>
        <time>2022-05-31T10:45:54Z</time>
      </trkpt>
      <trkpt lat="49.42123" lon="0.22366">
        <ele>95.7</ele>
        <time>2022-05-31T10:45:55Z</time>
      </trkpt>
      <trkpt lat="49.42123" lon="0.22366">
        <ele>95.7</ele>
        <time>2022-05-31T10:45:56Z</time>
      </trkpt>
      <trkpt lat="49.42123" lon="0.22366">
        <ele>95.7</ele>
        <time>2022-05-31T10:45:57Z</time>
      </trkpt>
      <trkpt lat="49.42123" lon="0.22366">
        <ele>95.7</ele>
        <time>2022-05-31T10:45:58Z</time>
      </trkpt>
      <trkpt lat="49.42123" lon="0.22366">
        <ele>95.7</ele>
        <time>2022-05-31T10:45:59Z</time>
      </trkpt>
      <trkpt lat="49.42123" lon="0.22366">
        <ele>95.7</ele>
        <time>2022-05-31T10:46:00Z</time>
      </trkpt>
      <trkpt lat="49.42123" lon="0.22366">
        <ele>95.7</ele>
        <time>2022-05-31T10:46:01Z</time>
      </trkpt>
      <trkpt lat="49.42123" lon="0.22366">
        <ele>95.7</ele>
        <time>2022-05-31T10:46:02Z</time>
      </trkpt>
      <trkpt lat="49.42123" lon="0.22366">
        <ele>95.7</ele>
        <time>2022-05-31T10:46:03Z</time>
      </trkpt>
      <trkpt lat="49.42123" lon="0.22366">
        <ele>95.7</ele>
        <time>2022-05-31T10:46:04Z</time>
      </trkpt>
      <trkpt lat="49.42123" lon="0.22366">
        <ele>95.7</ele>
        <time>2022-05-31T10:46:05Z</time>
      </trkpt>
      <trkpt lat="49.42123" lon="0.22366">
        <ele>95.7</ele>
        <time>2022-05-31T10:46:06Z</time>
      </trkpt>
      <trkpt lat="49.42123" lon="0.22366">
        <ele>95.7</ele>
        <time>2022-05-31T10:46:07Z</time>
      </trkpt>
      <trkpt lat="49.42123" lon="0.22366">
        <ele>95.7</ele>
        <time>2022-05-31T10:46:08Z</time>
      </trkpt>
      <trkpt lat="49.42123" lon="0.22366">
        <ele>95.7</ele>
        <time>2022-05-31T10:46:09Z</time>
      </trkpt>
      <trkpt lat="49.42123" lon="0.22366">
        <ele>95.7</ele>
        <time>2022-05-31T10:46:10Z</time>
      </trkpt>
      <trkpt lat="49.42124" lon="0.22367">
        <ele>95.7</ele>
        <time>2022-05-31T10:46:11Z</time>
      </trkpt>
      <trkpt lat="49.42125" lon="0.22368">
        <ele>95.7</ele>
        <time>2022-05-31T10:46:12Z</time>
      </trkpt>
      <trkpt lat="49.42125" lon="0.22367">
        <ele>95.7</ele>
        <time>2022-05-31T10:46:13Z</time>
      </trkpt>
      <trkpt lat="49.42126" lon="0.22366">
        <ele>95.7</ele>
        <time>2022-05-31T10:46:14Z</time>
      </trkpt>
      <trkpt lat="49.42126" lon="0.22365">
        <ele>95.7</ele>
        <time>2022-05-31T10:46:15Z</time>
      </trkpt>
      <trkpt lat="49.42126" lon="0.22366">
        <ele>95.7</ele>
        <time>2022-05-31T10:46:16Z</time>
      </trkpt>
      <trkpt lat="49.42127" lon="0.22365">
        <ele>95.7</ele>
        <time>2022-05-31T10:46:17Z</time>
      </trkpt>
      <trkpt lat="49.42127" lon="0.22365">
        <ele>95.7</ele>
        <time>2022-05-31T10:46:18Z</time>
      </trkpt>
      <trkpt lat="49.42128" lon="0.22365">
        <ele>95.7</ele>
        <time>2022-05-31T10:46:19Z</time>
      </trkpt>
      <trkpt lat="49.42128" lon="0.22365">
        <ele>95.7</ele>
        <time>2022-05-31T10:46:20Z</time>
      </trkpt>
      <trkpt lat="49.42127" lon="0.22365">
        <ele>95.7</ele>
        <time>2022-05-31T10:46:21Z</time>
      </trkpt>
      <trkpt lat="49.42127" lon="0.22365">
        <ele>95.7</ele>
        <time>2022-05-31T10:46:22Z</time>
      </trkpt>
      <trkpt lat="49.42127" lon="0.22365">
        <ele>95.7</ele>
        <time>2022-05-31T10:46:23Z</time>
      </trkpt>
      <trkpt lat="49.42127" lon="0.22365">
        <ele>95.7</ele>
        <time>2022-05-31T10:46:24Z</time>
      </trkpt>
      <trkpt lat="49.42127" lon="0.22365">
        <ele>95.7</ele>
        <time>2022-05-31T10:46:25Z</time>
      </trkpt>
      <trkpt lat="49.42127" lon="0.22365">
        <ele>95.7</ele>
        <time>2022-05-31T10:46:27Z</time>
      </trkpt>
      <trkpt lat="49.42127" lon="0.22365">
        <ele>95.7</ele>
        <time>2022-05-31T10:46:28Z</time>
      </trkpt>
      <trkpt lat="49.42127" lon="0.22364">
        <ele>95.7</ele>
        <time>2022-05-31T10:46:29Z</time>
      </trkpt>
      <trkpt lat="49.42127" lon="0.22363">
        <ele>95.7</ele>
        <time>2022-05-31T10:46:30Z</time>
      </trkpt>
      <trkpt lat="49.42127" lon="0.22363">
        <ele>95.7</ele>
        <time>2022-05-31T10:46:31Z</time>
      </trkpt>
      <trkpt lat="49.42127" lon="0.22363">
        <ele>95.7</ele>
        <time>2022-05-31T10:46:32Z</time>
      </trkpt>
      <trkpt lat="49.42127" lon="0.22363">
        <ele>95.7</ele>
        <time>2022-05-31T10:46:33Z</time>
      </trkpt>
      <trkpt lat="49.42128" lon="0.22363">
        <ele>95.7</ele>
        <time>2022-05-31T10:46:34Z</time>
      </trkpt>
      <trkpt lat="49.42128" lon="0.22363">
        <ele>95.7</ele>
        <time>2022-05-31T10:46:35Z</time>
      </trkpt>
      <trkpt lat="49.42128" lon="0.22363">
        <ele>95.7</ele>
        <time>2022-05-31T10:46:36Z</time>
      </trkpt>
      <trkpt lat="49.42128" lon="0.22363">
        <ele>95.7</ele>
        <time>2022-05-31T10:46:37Z</time>
      </trkpt>
      <trkpt lat="49.42128" lon="0.22363">
        <ele>95.7</ele>
        <time>2022-05-31T10:46:38Z</time>
      </trkpt>
      <trkpt lat="49.42128" lon="0.22363">
        <ele>95.7</ele>
        <time>2022-05-31T10:46:39Z</time>
      </trkpt>
      <trkpt lat="49.42128" lon="0.22363">
        <ele>95.7</ele>
        <time>2022-05-31T10:46:40Z</time>
      </trkpt>
      <trkpt lat="49.42128" lon="0.22363">
        <ele>95.7</ele>
        <time>2022-05-31T10:46:41Z</time>
      </trkpt>
      <trkpt lat="49.42128" lon="0.22363">
        <ele>95.7</ele>
        <time>2022-05-31T10:46:42Z</time>
      </trkpt>
      <trkpt lat="49.42128" lon="0.22363">
        <ele>95.7</ele>
        <time>2022-05-31T10:46:43Z</time>
      </trkpt>
      <trkpt lat="49.42128" lon="0.22363">
        <ele>95.7</ele>
        <time>2022-05-31T10:46:44Z</time>
      </trkpt>
      <trkpt lat="49.42128" lon="0.22363">
        <ele>95.7</ele>
        <time>2022-05-31T10:46:45Z</time>
      </trkpt>
      <trkpt lat="49.42128" lon="0.22363">
        <ele>95.7</ele>
        <time>2022-05-31T10:46:46Z</time>
      </trkpt>
      <trkpt lat="49.42128" lon="0.22363">
        <ele>95.7</ele>
        <time>2022-05-31T10:46:47Z</time>
      </trkpt>
      <trkpt lat="49.42128" lon="0.22363">
        <ele>95.7</ele>
        <time>2022-05-31T10:46:48Z</time>
      </trkpt>
      <trkpt lat="49.42128" lon="0.22363">
        <ele>95.7</ele>
        <time>2022-05-31T10:46:49Z</time>
      </trkpt>
      <trkpt lat="49.42128" lon="0.22363">
        <ele>95.7</ele>
        <time>2022-05-31T10:46:50Z</time>
      </trkpt>
      <trkpt lat="49.42128" lon="0.22363">
        <ele>95.7</ele>
        <time>2022-05-31T10:46:51Z</time>
      </trkpt>
      <trkpt lat="49.42128" lon="0.22363">
        <ele>95.7</ele>
        <time>2022-05-31T10:46:52Z</time>
      </trkpt>
      <trkpt lat="49.42128" lon="0.22363">
        <ele>95.7</ele>
        <time>2022-05-31T10:46:53Z</time>
      </trkpt>
      <trkpt lat="49.42128" lon="0.22363">
        <ele>95.7</ele>
        <time>2022-05-31T10:46:54Z</time>
      </trkpt>
      <trkpt lat="49.42128" lon="0.22363">
        <ele>95.7</ele>
        <time>2022-05-31T10:46:55Z</time>
      </trkpt>
      <trkpt lat="49.42128" lon="0.22363">
        <ele>95.7</ele>
        <time>2022-05-31T10:46:56Z</time>
      </trkpt>
      <trkpt lat="49.42128" lon="0.22363">
        <ele>95.7</ele>
        <time>2022-05-31T10:46:57Z</time>
      </trkpt>
      <trkpt lat="49.42128" lon="0.22363">
        <ele>95.7</ele>
        <time>2022-05-31T10:46:58Z</time>
      </trkpt>
      <trkpt lat="49.42128" lon="0.22363">
        <ele>95.7</ele>
        <time>2022-05-31T10:46:59Z</time>
      </trkpt>
      <trkpt lat="49.42128" lon="0.22363">
        <ele>95.7</ele>
        <time>2022-05-31T10:47:00Z</time>
      </trkpt>
      <trkpt lat="49.42128" lon="0.22363">
        <ele>95.7</ele>
        <time>2022-05-31T10:47:01Z</time>
      </trkpt>
      <trkpt lat="49.42128" lon="0.22363">
        <ele>95.7</ele>
        <time>2022-05-31T10:47:02Z</time>
      </trkpt>
      <trkpt lat="49.42128" lon="0.22363">
        <ele>95.7</ele>
        <time>2022-05-31T10:47:03Z</time>
      </trkpt>
      <trkpt lat="49.42128" lon="0.22363">
        <ele>95.7</ele>
        <time>2022-05-31T10:47:04Z</time>
      </trkpt>
      <trkpt lat="49.42128" lon="0.22363">
        <ele>95.7</ele>
        <time>2022-05-31T10:47:05Z</time>
      </trkpt>
      <trkpt lat="49.42128" lon="0.22363">
        <ele>95.7</ele>
        <time>2022-05-31T10:47:06Z</time>
      </trkpt>
      <trkpt lat="49.42128" lon="0.22363">
        <ele>95.7</ele>
        <time>2022-05-31T10:47:07Z</time>
      </trkpt>
      <trkpt lat="49.42128" lon="0.22363">
        <ele>95.7</ele>
        <time>2022-05-31T10:47:08Z</time>
      </trkpt>
      <trkpt lat="49.42128" lon="0.22363">
        <ele>95.7</ele>
        <time>2022-05-31T10:47:09Z</time>
      </trkpt>
      <trkpt lat="49.42128" lon="0.22363">
        <ele>95.7</ele>
        <time>2022-05-31T10:47:10Z</time>
      </trkpt>
      <trkpt lat="49.42128" lon="0.22363">
        <ele>95.7</ele>
        <time>2022-05-31T10:47:11Z</time>
      </trkpt>
      <trkpt lat="49.42128" lon="0.22363">
        <ele>95.7</ele>
        <time>2022-05-31T10:47:12Z</time>
      </trkpt>
      <trkpt lat="49.42128" lon="0.22363">
        <ele>95.7</ele>
        <time>2022-05-31T10:47:13Z</time>
      </trkpt>
      <trkpt lat="49.42128" lon="0.22363">
        <ele>95.7</ele>
        <time>2022-05-31T10:47:14Z</time>
      </trkpt>
      <trkpt lat="49.42128" lon="0.22363">
        <ele>95.7</ele>
        <time>2022-05-31T10:47:15Z</time>
      </trkpt>
      <trkpt lat="49.42128" lon="0.22363">
        <ele>95.7</ele>
        <time>2022-05-31T10:47:16Z</time>
      </trkpt>
      <trkpt lat="49.42128" lon="0.22363">
        <ele>95.7</ele>
        <time>2022-05-31T10:47:17Z</time>
      </trkpt>
      <trkpt lat="49.42128" lon="0.22363">
        <ele>95.7</ele>
        <time>2022-05-31T10:47:18Z</time>
      </trkpt>
      <trkpt lat="49.42128" lon="0.22363">
        <ele>95.7</ele>
        <time>2022-05-31T10:47:19Z</time>
      </trkpt>
      <trkpt lat="49.42128" lon="0.22363">
        <ele>95.7</ele>
        <time>2022-05-31T10:47:20Z</time>
      </trkpt>
      <trkpt lat="49.42128" lon="0.22363">
        <ele>95.7</ele>
        <time>2022-05-31T10:47:21Z</time>
      </trkpt>
      <trkpt lat="49.42128" lon="0.22363">
        <ele>95.7</ele>
        <time>2022-05-31T10:47:22Z</time>
      </trkpt>
      <trkpt lat="49.42128" lon="0.22363">
        <ele>95.7</ele>
        <time>2022-05-31T10:47:23Z</time>
      </trkpt>
      <trkpt lat="49.42128" lon="0.22363">
        <ele>95.7</ele>
        <time>2022-05-31T10:47:24Z</time>
      </trkpt>
      <trkpt lat="49.42128" lon="0.22363">
        <ele>95.7</ele>
        <time>2022-05-31T10:47:25Z</time>
      </trkpt>
      <trkpt lat="49.42128" lon="0.22363">
        <ele>95.7</ele>
        <time>2022-05-31T10:47:26Z</time>
      </trkpt>
      <trkpt lat="49.42128" lon="0.22363">
        <ele>95.7</ele>
        <time>2022-05-31T10:47:27Z</time>
      </trkpt>
      <trkpt lat="49.42128" lon="0.22363">
        <ele>95.7</ele>
        <time>2022-05-31T10:47:28Z</time>
      </trkpt>
      <trkpt lat="49.42128" lon="0.22363">
        <ele>95.7</ele>
        <time>2022-05-31T10:47:29Z</time>
      </trkpt>
      <trkpt lat="49.42128" lon="0.22363">
        <ele>95.7</ele>
        <time>2022-05-31T10:47:30Z</time>
      </trkpt>
      <trkpt lat="49.42128" lon="0.22363">
        <ele>95.7</ele>
        <time>2022-05-31T10:47:31Z</time>
      </trkpt>
      <trkpt lat="49.42128" lon="0.22363">
        <ele>95.7</ele>
        <time>2022-05-31T10:47:32Z</time>
      </trkpt>
      <trkpt lat="49.42128" lon="0.22363">
        <ele>95.7</ele>
        <time>2022-05-31T10:47:33Z</time>
      </trkpt>
      <trkpt lat="49.42128" lon="0.22363">
        <ele>95.7</ele>
        <time>2022-05-31T10:47:34Z</time>
      </trkpt>
      <trkpt lat="49.42128" lon="0.22363">
        <ele>95.7</ele>
        <time>2022-05-31T10:47:35Z</time>
      </trkpt>
      <trkpt lat="49.42128" lon="0.22362">
        <ele>95.7</ele>
        <time>2022-05-31T10:47:36Z</time>
      </trkpt>
      <trkpt lat="49.42128" lon="0.22362">
        <ele>95.7</ele>
        <time>2022-05-31T10:47:37Z</time>
      </trkpt>
      <trkpt lat="49.42129" lon="0.22361">
        <ele>95.7</ele>
        <time>2022-05-31T10:47:38Z</time>
      </trkpt>
      <trkpt lat="49.42129" lon="0.22361">
        <ele>95.7</ele>
        <time>2022-05-31T10:47:40Z</time>
      </trkpt>
      <trkpt lat="49.4213" lon="0.22361">
        <ele>95.7</ele>
        <time>2022-05-31T10:47:41Z</time>
      </trkpt>
      <trkpt lat="49.4213" lon="0.22361">
        <ele>95.7</ele>
        <time>2022-05-31T10:47:42Z</time>
      </trkpt>
      <trkpt lat="49.42132" lon="0.22359">
        <ele>95.7</ele>
        <time>2022-05-31T10:47:43Z</time>
      </trkpt>
      <trkpt lat="49.42133" lon="0.22359">
        <ele>95.7</ele>
        <time>2022-05-31T10:47:44Z</time>
      </trkpt>
      <trkpt lat="49.42133" lon="0.22358">
        <ele>95.7</ele>
        <time>2022-05-31T10:47:45Z</time>
      </trkpt>
      <trkpt lat="49.42134" lon="0.22357">
        <ele>95.7</ele>
        <time>2022-05-31T10:47:46Z</time>
      </trkpt>
      <trkpt lat="49.42135" lon="0.22356">
        <ele>95.7</ele>
        <time>2022-05-31T10:47:48Z</time>
      </trkpt>
      <trkpt lat="49.42136" lon="0.22355">
        <ele>95.8</ele>
        <time>2022-05-31T10:47:49Z</time>
      </trkpt>
      <trkpt lat="49.42136" lon="0.22354">
        <ele>95.8</ele>
        <time>2022-05-31T10:47:50Z</time>
      </trkpt>
      <trkpt lat="49.42137" lon="0.22353">
        <ele>95.8</ele>
        <time>2022-05-31T10:47:52Z</time>
      </trkpt>
      <trkpt lat="49.42138" lon="0.22352">
        <ele>95.8</ele>
        <time>2022-05-31T10:47:53Z</time>
      </trkpt>
      <trkpt lat="49.42139" lon="0.2235">
        <ele>95.8</ele>
        <time>2022-05-31T10:47:55Z</time>
      </trkpt>
      <trkpt lat="49.42139" lon="0.22349">
        <ele>95.8</ele>
        <time>2022-05-31T10:47:56Z</time>
      </trkpt>
      <trkpt lat="49.4214" lon="0.22348">
        <ele>95.8</ele>
        <time>2022-05-31T10:47:57Z</time>
      </trkpt>
      <trkpt lat="49.42141" lon="0.22346">
        <ele>95.8</ele>
        <time>2022-05-31T10:47:58Z</time>
      </trkpt>
      <trkpt lat="49.42141" lon="0.22346">
        <ele>95.8</ele>
        <time>2022-05-31T10:47:59Z</time>
      </trkpt>
      <trkpt lat="49.42142" lon="0.22345">
        <ele>95.8</ele>
        <time>2022-05-31T10:48:00Z</time>
      </trkpt>
      <trkpt lat="49.42142" lon="0.22344">
        <ele>95.8</ele>
        <time>2022-05-31T10:48:01Z</time>
      </trkpt>
      <trkpt lat="49.42143" lon="0.22343">
        <ele>95.8</ele>
        <time>2022-05-31T10:48:03Z</time>
      </trkpt>
      <trkpt lat="49.42144" lon="0.22341">
        <ele>95.8</ele>
        <time>2022-05-31T10:48:04Z</time>
      </trkpt>
      <trkpt lat="49.42145" lon="0.2234">
        <ele>95.8</ele>
        <time>2022-05-31T10:48:05Z</time>
      </trkpt>
      <trkpt lat="49.42146" lon="0.22339">
        <ele>95.8</ele>
        <time>2022-05-31T10:48:06Z</time>
      </trkpt>
      <trkpt lat="49.42146" lon="0.22338">
        <ele>95.8</ele>
        <time>2022-05-31T10:48:07Z</time>
      </trkpt>
      <trkpt lat="49.42148" lon="0.22338">
        <ele>95.8</ele>
        <time>2022-05-31T10:48:08Z</time>
      </trkpt>
      <trkpt lat="49.42149" lon="0.22337">
        <ele>95.8</ele>
        <time>2022-05-31T10:48:09Z</time>
      </trkpt>
      <trkpt lat="49.4215" lon="0.22337">
        <ele>95.9</ele>
        <time>2022-05-31T10:48:10Z</time>
      </trkpt>
      <trkpt lat="49.42151" lon="0.22336">
        <ele>95.9</ele>
        <time>2022-05-31T10:48:11Z</time>
      </trkpt>
      <trkpt lat="49.42152" lon="0.22335">
        <ele>95.9</ele>
        <time>2022-05-31T10:48:12Z</time>
      </trkpt>
      <trkpt lat="49.42154" lon="0.22333">
        <ele>95.9</ele>
        <time>2022-05-31T10:48:13Z</time>
      </trkpt>
      <trkpt lat="49.42155" lon="0.22332">
        <ele>95.9</ele>
        <time>2022-05-31T10:48:15Z</time>
      </trkpt>
      <trkpt lat="49.42156" lon="0.2233">
        <ele>95.9</ele>
        <time>2022-05-31T10:48:16Z</time>
      </trkpt>
      <trkpt lat="49.42157" lon="0.22328">
        <ele>95.9</ele>
        <time>2022-05-31T10:48:17Z</time>
      </trkpt>
      <trkpt lat="49.42158" lon="0.22326">
        <ele>95.9</ele>
        <time>2022-05-31T10:48:18Z</time>
      </trkpt>
      <trkpt lat="49.42159" lon="0.22325">
        <ele>95.9</ele>
        <time>2022-05-31T10:48:19Z</time>
      </trkpt>
      <trkpt lat="49.4216" lon="0.22323">
        <ele>95.9</ele>
        <time>2022-05-31T10:48:20Z</time>
      </trkpt>
      <trkpt lat="49.42161" lon="0.22321">
        <ele>96</ele>
        <time>2022-05-31T10:48:21Z</time>
      </trkpt>
      <trkpt lat="49.42162" lon="0.2232">
        <ele>96</ele>
        <time>2022-05-31T10:48:22Z</time>
      </trkpt>
      <trkpt lat="49.42163" lon="0.22318">
        <ele>96</ele>
        <time>2022-05-31T10:48:24Z</time>
      </trkpt>
      <trkpt lat="49.42164" lon="0.22317">
        <ele>96</ele>
        <time>2022-05-31T10:48:25Z</time>
      </trkpt>
      <trkpt lat="49.42165" lon="0.22314">
        <ele>96</ele>
        <time>2022-05-31T10:48:26Z</time>
      </trkpt>
      <trkpt lat="49.42166" lon="0.22313">
        <ele>96</ele>
        <time>2022-05-31T10:48:27Z</time>
      </trkpt>
      <trkpt lat="49.42167" lon="0.22312">
        <ele>96</ele>
        <time>2022-05-31T10:48:28Z</time>
      </trkpt>
      <trkpt lat="49.42168" lon="0.22311">
        <ele>96</ele>
        <time>2022-05-31T10:48:29Z</time>
      </trkpt>
      <trkpt lat="49.42168" lon="0.2231">
        <ele>96</ele>
        <time>2022-05-31T10:48:30Z</time>
      </trkpt>
      <trkpt lat="49.42168" lon="0.2231">
        <ele>96</ele>
        <time>2022-05-31T10:48:31Z</time>
      </trkpt>
      <trkpt lat="49.42169" lon="0.22309">
        <ele>96</ele>
        <time>2022-05-31T10:48:33Z</time>
      </trkpt>
      <trkpt lat="49.42169" lon="0.22308">
        <ele>96</ele>
        <time>2022-05-31T10:48:34Z</time>
      </trkpt>
      <trkpt lat="49.42171" lon="0.22307">
        <ele>96</ele>
        <time>2022-05-31T10:48:35Z</time>
      </trkpt>
      <trkpt lat="49.42171" lon="0.22306">
        <ele>96</ele>
        <time>2022-05-31T10:48:36Z</time>
      </trkpt>
      <trkpt lat="49.42172" lon="0.22305">
        <ele>96.1</ele>
        <time>2022-05-31T10:48:37Z</time>
      </trkpt>
      <trkpt lat="49.42174" lon="0.22303">
        <ele>96.1</ele>
        <time>2022-05-31T10:48:38Z</time>
      </trkpt>
      <trkpt lat="49.42175" lon="0.22302">
        <ele>96.1</ele>
        <time>2022-05-31T10:48:39Z</time>
      </trkpt>
      <trkpt lat="49.42175" lon="0.22302">
        <ele>96.1</ele>
        <time>2022-05-31T10:48:40Z</time>
      </trkpt>
      <trkpt lat="49.42177" lon="0.22301">
        <ele>96.1</ele>
        <time>2022-05-31T10:48:41Z</time>
      </trkpt>
      <trkpt lat="49.42178" lon="0.223">
        <ele>96.1</ele>
        <time>2022-05-31T10:48:43Z</time>
      </trkpt>
      <trkpt lat="49.42178" lon="0.22299">
        <ele>96.1</ele>
        <time>2022-05-31T10:48:44Z</time>
      </trkpt>
      <trkpt lat="49.42179" lon="0.22299">
        <ele>96.1</ele>
        <time>2022-05-31T10:48:45Z</time>
      </trkpt>
      <trkpt lat="49.4218" lon="0.22298">
        <ele>96.1</ele>
        <time>2022-05-31T10:48:46Z</time>
      </trkpt>
      <trkpt lat="49.4218" lon="0.22297">
        <ele>96.1</ele>
        <time>2022-05-31T10:48:47Z</time>
      </trkpt>
      <trkpt lat="49.4218" lon="0.22295">
        <ele>96.1</ele>
        <time>2022-05-31T10:48:48Z</time>
      </trkpt>
      <trkpt lat="49.4218" lon="0.22294">
        <ele>96.1</ele>
        <time>2022-05-31T10:48:49Z</time>
      </trkpt>
      <trkpt lat="49.4218" lon="0.22293">
        <ele>96.1</ele>
        <time>2022-05-31T10:48:50Z</time>
      </trkpt>
      <trkpt lat="49.42181" lon="0.22292">
        <ele>96.1</ele>
        <time>2022-05-31T10:48:51Z</time>
      </trkpt>
      <trkpt lat="49.42181" lon="0.22291">
        <ele>96.1</ele>
        <time>2022-05-31T10:48:53Z</time>
      </trkpt>
      <trkpt lat="49.42182" lon="0.2229">
        <ele>96.1</ele>
        <time>2022-05-31T10:48:54Z</time>
      </trkpt>
      <trkpt lat="49.42182" lon="0.22289">
        <ele>96.1</ele>
        <time>2022-05-31T10:48:55Z</time>
      </trkpt>
      <trkpt lat="49.42182" lon="0.22289">
        <ele>96.1</ele>
        <time>2022-05-31T10:48:56Z</time>
      </trkpt>
      <trkpt lat="49.42183" lon="0.22288">
        <ele>96.2</ele>
        <time>2022-05-31T10:48:58Z</time>
      </trkpt>
      <trkpt lat="49.42184" lon="0.22287">
        <ele>96.2</ele>
        <time>2022-05-31T10:48:59Z</time>
      </trkpt>
      <trkpt lat="49.42186" lon="0.22286">
        <ele>96.2</ele>
        <time>2022-05-31T10:49:00Z</time>
      </trkpt>
      <trkpt lat="49.42187" lon="0.22286">
        <ele>96.2</ele>
        <time>2022-05-31T10:49:01Z</time>
      </trkpt>
      <trkpt lat="49.42188" lon="0.22286">
        <ele>96.2</ele>
        <time>2022-05-31T10:49:02Z</time>
      </trkpt>
      <trkpt lat="49.4219" lon="0.22285">
        <ele>96.2</ele>
        <time>2022-05-31T10:49:03Z</time>
      </trkpt>
      <trkpt lat="49.4219" lon="0.22285">
        <ele>96.2</ele>
        <time>2022-05-31T10:49:04Z</time>
      </trkpt>
      <trkpt lat="49.42191" lon="0.22284">
        <ele>96.2</ele>
        <time>2022-05-31T10:49:05Z</time>
      </trkpt>
      <trkpt lat="49.42193" lon="0.22282">
        <ele>96.2</ele>
        <time>2022-05-31T10:49:06Z</time>
      </trkpt>
      <trkpt lat="49.42193" lon="0.22282">
        <ele>96.2</ele>
        <time>2022-05-31T10:49:08Z</time>
      </trkpt>
      <trkpt lat="49.42194" lon="0.22281">
        <ele>96.2</ele>
        <time>2022-05-31T10:49:09Z</time>
      </trkpt>
      <trkpt lat="49.42197" lon="0.22277">
        <ele>96.3</ele>
        <time>2022-05-31T10:49:10Z</time>
      </trkpt>
      <trkpt lat="49.42197" lon="0.22277">
        <ele>96.3</ele>
        <time>2022-05-31T10:49:11Z</time>
      </trkpt>
      <trkpt lat="49.42198" lon="0.22275">
        <ele>96.3</ele>
        <time>2022-05-31T10:49:12Z</time>
      </trkpt>
      <trkpt lat="49.42199" lon="0.22274">
        <ele>96.3</ele>
        <time>2022-05-31T10:49:13Z</time>
      </trkpt>
      <trkpt lat="49.422" lon="0.22272">
        <ele>96.3</ele>
        <time>2022-05-31T10:49:14Z</time>
      </trkpt>
      <trkpt lat="49.42201" lon="0.22271">
        <ele>96.3</ele>
        <time>2022-05-31T10:49:15Z</time>
      </trkpt>
      <trkpt lat="49.42202" lon="0.22269">
        <ele>96.3</ele>
        <time>2022-05-31T10:49:16Z</time>
      </trkpt>
      <trkpt lat="49.42203" lon="0.22268">
        <ele>96.3</ele>
        <time>2022-05-31T10:49:17Z</time>
      </trkpt>
      <trkpt lat="49.42204" lon="0.22266">
        <ele>96.3</ele>
        <time>2022-05-31T10:49:19Z</time>
      </trkpt>
      <trkpt lat="49.42205" lon="0.22264">
        <ele>96.3</ele>
        <time>2022-05-31T10:49:20Z</time>
      </trkpt>
      <trkpt lat="49.42206" lon="0.22263">
        <ele>96.3</ele>
        <time>2022-05-31T10:49:21Z</time>
      </trkpt>
      <trkpt lat="49.42206" lon="0.22262">
        <ele>96.3</ele>
        <time>2022-05-31T10:49:22Z</time>
      </trkpt>
      <trkpt lat="49.42208" lon="0.2226">
        <ele>96.3</ele>
        <time>2022-05-31T10:49:23Z</time>
      </trkpt>
      <trkpt lat="49.42209" lon="0.22259">
        <ele>96.3</ele>
        <time>2022-05-31T10:49:24Z</time>
      </trkpt>
      <trkpt lat="49.42209" lon="0.22258">
        <ele>96.3</ele>
        <time>2022-05-31T10:49:25Z</time>
      </trkpt>
      <trkpt lat="49.4221" lon="0.22257">
        <ele>96.3</ele>
        <time>2022-05-31T10:49:26Z</time>
      </trkpt>
      <trkpt lat="49.42211" lon="0.22256">
        <ele>96.3</ele>
        <time>2022-05-31T10:49:27Z</time>
      </trkpt>
      <trkpt lat="49.42211" lon="0.22255">
        <ele>96.3</ele>
        <time>2022-05-31T10:49:29Z</time>
      </trkpt>
      <trkpt lat="49.42211" lon="0.22254">
        <ele>96.3</ele>
        <time>2022-05-31T10:49:30Z</time>
      </trkpt>
      <trkpt lat="49.42212" lon="0.22254">
        <ele>96.3</ele>
        <time>2022-05-31T10:49:31Z</time>
      </trkpt>
      <trkpt lat="49.42212" lon="0.22253">
        <ele>96.3</ele>
        <time>2022-05-31T10:49:32Z</time>
      </trkpt>
      <trkpt lat="49.42213" lon="0.22252">
        <ele>96.3</ele>
        <time>2022-05-31T10:49:33Z</time>
      </trkpt>
      <trkpt lat="49.42214" lon="0.22252">
        <ele>96.3</ele>
        <time>2022-05-31T10:49:34Z</time>
      </trkpt>
      <trkpt lat="49.42216" lon="0.22251">
        <ele>96.3</ele>
        <time>2022-05-31T10:49:35Z</time>
      </trkpt>
      <trkpt lat="49.42216" lon="0.22251">
        <ele>96.3</ele>
        <time>2022-05-31T10:49:37Z</time>
      </trkpt>
      <trkpt lat="49.42216" lon="0.22251">
        <ele>96.3</ele>
        <time>2022-05-31T10:49:38Z</time>
      </trkpt>
      <trkpt lat="49.42217" lon="0.22252">
        <ele>96.3</ele>
        <time>2022-05-31T10:49:39Z</time>
      </trkpt>
      <trkpt lat="49.42217" lon="0.22252">
        <ele>96.3</ele>
        <time>2022-05-31T10:49:40Z</time>
      </trkpt>
      <trkpt lat="49.42218" lon="0.22251">
        <ele>96.3</ele>
        <time>2022-05-31T10:49:41Z</time>
      </trkpt>
      <trkpt lat="49.42219" lon="0.2225">
        <ele>96.3</ele>
        <time>2022-05-31T10:49:43Z</time>
      </trkpt>
      <trkpt lat="49.4222" lon="0.2225">
        <ele>96.3</ele>
        <time>2022-05-31T10:49:44Z</time>
      </trkpt>
      <trkpt lat="49.42221" lon="0.2225">
        <ele>96.3</ele>
        <time>2022-05-31T10:49:45Z</time>
      </trkpt>
      <trkpt lat="49.42222" lon="0.22252">
        <ele>96.4</ele>
        <time>2022-05-31T10:49:46Z</time>
      </trkpt>
      <trkpt lat="49.42223" lon="0.22252">
        <ele>96.4</ele>
        <time>2022-05-31T10:49:48Z</time>
      </trkpt>
      <trkpt lat="49.42224" lon="0.22252">
        <ele>96.4</ele>
        <time>2022-05-31T10:49:49Z</time>
      </trkpt>
      <trkpt lat="49.42225" lon="0.22252">
        <ele>96.4</ele>
        <time>2022-05-31T10:49:50Z</time>
      </trkpt>
      <trkpt lat="49.42226" lon="0.22252">
        <ele>96.4</ele>
        <time>2022-05-31T10:49:51Z</time>
      </trkpt>
      <trkpt lat="49.42227" lon="0.22253">
        <ele>96.4</ele>
        <time>2022-05-31T10:49:52Z</time>
      </trkpt>
      <trkpt lat="49.42228" lon="0.22253">
        <ele>96.4</ele>
        <time>2022-05-31T10:49:53Z</time>
      </trkpt>
      <trkpt lat="49.42229" lon="0.22254">
        <ele>96.2</ele>
        <time>2022-05-31T10:49:54Z</time>
      </trkpt>
      <trkpt lat="49.42229" lon="0.22254">
        <ele>96.2</ele>
        <time>2022-05-31T10:49:55Z</time>
      </trkpt>
      <trkpt lat="49.42229" lon="0.22254">
        <ele>96.2</ele>
        <time>2022-05-31T10:49:56Z</time>
      </trkpt>
      <trkpt lat="49.42229" lon="0.22254">
        <ele>96.2</ele>
        <time>2022-05-31T10:49:57Z</time>
      </trkpt>
      <trkpt lat="49.42229" lon="0.22254">
        <ele>96.2</ele>
        <time>2022-05-31T10:49:58Z</time>
      </trkpt>
      <trkpt lat="49.42229" lon="0.22254">
        <ele>96.2</ele>
        <time>2022-05-31T10:49:59Z</time>
      </trkpt>
      <trkpt lat="49.42229" lon="0.22254">
        <ele>96.2</ele>
        <time>2022-05-31T10:50:00Z</time>
      </trkpt>
      <trkpt lat="49.42229" lon="0.22254">
        <ele>96.2</ele>
        <time>2022-05-31T10:50:01Z</time>
      </trkpt>
      <trkpt lat="49.42229" lon="0.22254">
        <ele>96.2</ele>
        <time>2022-05-31T10:50:02Z</time>
      </trkpt>
      <trkpt lat="49.42229" lon="0.22254">
        <ele>96.2</ele>
        <time>2022-05-31T10:50:03Z</time>
      </trkpt>
      <trkpt lat="49.42229" lon="0.22254">
        <ele>96.2</ele>
        <time>2022-05-31T10:50:04Z</time>
      </trkpt>
      <trkpt lat="49.42229" lon="0.22254">
        <ele>96.2</ele>
        <time>2022-05-31T10:50:05Z</time>
      </trkpt>
      <trkpt lat="49.42229" lon="0.22254">
        <ele>96.2</ele>
        <time>2022-05-31T10:50:06Z</time>
      </trkpt>
      <trkpt lat="49.42229" lon="0.22255">
        <ele>96.2</ele>
        <time>2022-05-31T10:50:07Z</time>
      </trkpt>
      <trkpt lat="49.4223" lon="0.22255">
        <ele>96.2</ele>
        <time>2022-05-31T10:50:08Z</time>
      </trkpt>
      <trkpt lat="49.4223" lon="0.22255">
        <ele>96.2</ele>
        <time>2022-05-31T10:50:09Z</time>
      </trkpt>
      <trkpt lat="49.4223" lon="0.22255">
        <ele>96.2</ele>
        <time>2022-05-31T10:50:10Z</time>
      </trkpt>
      <trkpt lat="49.4223" lon="0.22255">
        <ele>96.2</ele>
        <time>2022-05-31T10:50:11Z</time>
      </trkpt>
      <trkpt lat="49.4223" lon="0.22255">
        <ele>96.2</ele>
        <time>2022-05-31T10:50:12Z</time>
      </trkpt>
      <trkpt lat="49.4223" lon="0.22255">
        <ele>96.2</ele>
        <time>2022-05-31T10:50:13Z</time>
      </trkpt>
      <trkpt lat="49.4223" lon="0.22255">
        <ele>96.2</ele>
        <time>2022-05-31T10:50:14Z</time>
      </trkpt>
      <trkpt lat="49.4223" lon="0.22255">
        <ele>96.2</ele>
        <time>2022-05-31T10:50:15Z</time>
      </trkpt>
      <trkpt lat="49.4223" lon="0.22255">
        <ele>96.2</ele>
        <time>2022-05-31T10:50:16Z</time>
      </trkpt>
      <trkpt lat="49.4223" lon="0.22255">
        <ele>96.2</ele>
        <time>2022-05-31T10:50:17Z</time>
      </trkpt>
      <trkpt lat="49.4223" lon="0.22255">
        <ele>96.2</ele>
        <time>2022-05-31T10:50:18Z</time>
      </trkpt>
      <trkpt lat="49.4223" lon="0.22255">
        <ele>96.2</ele>
        <time>2022-05-31T10:50:19Z</time>
      </trkpt>
      <trkpt lat="49.4223" lon="0.22255">
        <ele>96.2</ele>
        <time>2022-05-31T10:50:20Z</time>
      </trkpt>
      <trkpt lat="49.4223" lon="0.22255">
        <ele>96.2</ele>
        <time>2022-05-31T10:50:21Z</time>
      </trkpt>
      <trkpt lat="49.42231" lon="0.22255">
        <ele>96.2</ele>
        <time>2022-05-31T10:50:22Z</time>
      </trkpt>
      <trkpt lat="49.42231" lon="0.22255">
        <ele>96.2</ele>
        <time>2022-05-31T10:50:23Z</time>
      </trkpt>
      <trkpt lat="49.42231" lon="0.22255">
        <ele>96.2</ele>
        <time>2022-05-31T10:50:24Z</time>
      </trkpt>
      <trkpt lat="49.42231" lon="0.22256">
        <ele>96.2</ele>
        <time>2022-05-31T10:50:25Z</time>
      </trkpt>
      <trkpt lat="49.42231" lon="0.22256">
        <ele>96.2</ele>
        <time>2022-05-31T10:50:26Z</time>
      </trkpt>
      <trkpt lat="49.42231" lon="0.22256">
        <ele>96.2</ele>
        <time>2022-05-31T10:50:27Z</time>
      </trkpt>
      <trkpt lat="49.42231" lon="0.22256">
        <ele>96.2</ele>
        <time>2022-05-31T10:50:28Z</time>
      </trkpt>
      <trkpt lat="49.42231" lon="0.22256">
        <ele>96.2</ele>
        <time>2022-05-31T10:50:29Z</time>
      </trkpt>
      <trkpt lat="49.42231" lon="0.22256">
        <ele>96.1</ele>
        <time>2022-05-31T10:50:30Z</time>
      </trkpt>
      <trkpt lat="49.42231" lon="0.22256">
        <ele>96.1</ele>
        <time>2022-05-31T10:50:31Z</time>
      </trkpt>
      <trkpt lat="49.42231" lon="0.22256">
        <ele>96.1</ele>
        <time>2022-05-31T10:50:32Z</time>
      </trkpt>
      <trkpt lat="49.42231" lon="0.22256">
        <ele>96.1</ele>
        <time>2022-05-31T10:50:33Z</time>
      </trkpt>
      <trkpt lat="49.42231" lon="0.22256">
        <ele>96.1</ele>
        <time>2022-05-31T10:50:34Z</time>
      </trkpt>
      <trkpt lat="49.42232" lon="0.22256">
        <ele>96.1</ele>
        <time>2022-05-31T10:50:35Z</time>
      </trkpt>
      <trkpt lat="49.42231" lon="0.22256">
        <ele>96.1</ele>
        <time>2022-05-31T10:50:36Z</time>
      </trkpt>
      <trkpt lat="49.42231" lon="0.22257">
        <ele>96.1</ele>
        <time>2022-05-31T10:50:37Z</time>
      </trkpt>
      <trkpt lat="49.42232" lon="0.22257">
        <ele>96.1</ele>
        <time>2022-05-31T10:50:39Z</time>
      </trkpt>
      <trkpt lat="49.42232" lon="0.22258">
        <ele>96.1</ele>
        <time>2022-05-31T10:50:40Z</time>
      </trkpt>
      <trkpt lat="49.42232" lon="0.22258">
        <ele>96.1</ele>
        <time>2022-05-31T10:50:41Z</time>
      </trkpt>
      <trkpt lat="49.42232" lon="0.22258">
        <ele>96.1</ele>
        <time>2022-05-31T10:50:42Z</time>
      </trkpt>
      <trkpt lat="49.42233" lon="0.22258">
        <ele>96.1</ele>
        <time>2022-05-31T10:50:43Z</time>
      </trkpt>
      <trkpt lat="49.42233" lon="0.22258">
        <ele>96.1</ele>
        <time>2022-05-31T10:50:45Z</time>
      </trkpt>
      <trkpt lat="49.42234" lon="0.22259">
        <ele>96.1</ele>
        <time>2022-05-31T10:50:46Z</time>
      </trkpt>
      <trkpt lat="49.42234" lon="0.22259">
        <ele>96.1</ele>
        <time>2022-05-31T10:50:47Z</time>
      </trkpt>
      <trkpt lat="49.42234" lon="0.22259">
        <ele>96.1</ele>
        <time>2022-05-31T10:50:48Z</time>
      </trkpt>
      <trkpt lat="49.42234" lon="0.22259">
        <ele>96.1</ele>
        <time>2022-05-31T10:50:49Z</time>
      </trkpt>
      <trkpt lat="49.42234" lon="0.2226">
        <ele>96</ele>
        <time>2022-05-31T10:50:51Z</time>
      </trkpt>
      <trkpt lat="49.42234" lon="0.22261">
        <ele>96</ele>
        <time>2022-05-31T10:50:52Z</time>
      </trkpt>
      <trkpt lat="49.42233" lon="0.22262">
        <ele>96</ele>
        <time>2022-05-31T10:50:54Z</time>
      </trkpt>
      <trkpt lat="49.42233" lon="0.22263">
        <ele>96</ele>
        <time>2022-05-31T10:50:55Z</time>
      </trkpt>
      <trkpt lat="49.42233" lon="0.22264">
        <ele>96</ele>
        <time>2022-05-31T10:50:56Z</time>
      </trkpt>
      <trkpt lat="49.42234" lon="0.22264">
        <ele>96</ele>
        <time>2022-05-31T10:50:57Z</time>
      </trkpt>
      <trkpt lat="49.42234" lon="0.22263">
        <ele>96</ele>
        <time>2022-05-31T10:50:58Z</time>
      </trkpt>
      <trkpt lat="49.42235" lon="0.22263">
        <ele>95.9</ele>
        <time>2022-05-31T10:50:59Z</time>
      </trkpt>
      <trkpt lat="49.42235" lon="0.22262">
        <ele>95.9</ele>
        <time>2022-05-31T10:51:00Z</time>
      </trkpt>
      <trkpt lat="49.42236" lon="0.22262">
        <ele>95.9</ele>
        <time>2022-05-31T10:51:02Z</time>
      </trkpt>
      <trkpt lat="49.42236" lon="0.22261">
        <ele>95.9</ele>
        <time>2022-05-31T10:51:03Z</time>
      </trkpt>
      <trkpt lat="49.42237" lon="0.22261">
        <ele>95.9</ele>
        <time>2022-05-31T10:51:04Z</time>
      </trkpt>
      <trkpt lat="49.42239" lon="0.2226">
        <ele>95.8</ele>
        <time>2022-05-31T10:51:05Z</time>
      </trkpt>
      <trkpt lat="49.4224" lon="0.2226">
        <ele>95.8</ele>
        <time>2022-05-31T10:51:06Z</time>
      </trkpt>
      <trkpt lat="49.42242" lon="0.22261">
        <ele>95.8</ele>
        <time>2022-05-31T10:51:07Z</time>
      </trkpt>
      <trkpt lat="49.42243" lon="0.22261">
        <ele>95.8</ele>
        <time>2022-05-31T10:51:08Z</time>
      </trkpt>
      <trkpt lat="49.42246" lon="0.22261">
        <ele>95.7</ele>
        <time>2022-05-31T10:51:10Z</time>
      </trkpt>
      <trkpt lat="49.42247" lon="0.22261">
        <ele>95.7</ele>
        <time>2022-05-31T10:51:11Z</time>
      </trkpt>
      <trkpt lat="49.42251" lon="0.22261">
        <ele>95.6</ele>
        <time>2022-05-31T10:51:12Z</time>
      </trkpt>
      <trkpt lat="49.42253" lon="0.22261">
        <ele>95.6</ele>
        <time>2022-05-31T10:51:13Z</time>
      </trkpt>
      <trkpt lat="49.42254" lon="0.22262">
        <ele>95.5</ele>
        <time>2022-05-31T10:51:14Z</time>
      </trkpt>
      <trkpt lat="49.42255" lon="0.22262">
        <ele>95.5</ele>
        <time>2022-05-31T10:51:15Z</time>
      </trkpt>
      <trkpt lat="49.42257" lon="0.22263">
        <ele>95.5</ele>
        <time>2022-05-31T10:51:16Z</time>
      </trkpt>
      <trkpt lat="49.42258" lon="0.22264">
        <ele>95.5</ele>
        <time>2022-05-31T10:51:18Z</time>
      </trkpt>
      <trkpt lat="49.42259" lon="0.22264">
        <ele>95.4</ele>
        <time>2022-05-31T10:51:19Z</time>
      </trkpt>
      <trkpt lat="49.4226" lon="0.22265">
        <ele>95.4</ele>
        <time>2022-05-31T10:51:20Z</time>
      </trkpt>
      <trkpt lat="49.42261" lon="0.22266">
        <ele>95.4</ele>
        <time>2022-05-31T10:51:21Z</time>
      </trkpt>
      <trkpt lat="49.42262" lon="0.22267">
        <ele>95.4</ele>
        <time>2022-05-31T10:51:22Z</time>
      </trkpt>
      <trkpt lat="49.42263" lon="0.22268">
        <ele>95.3</ele>
        <time>2022-05-31T10:51:23Z</time>
      </trkpt>
      <trkpt lat="49.42264" lon="0.22269">
        <ele>95.3</ele>
        <time>2022-05-31T10:51:24Z</time>
      </trkpt>
      <trkpt lat="49.42265" lon="0.22269">
        <ele>95.3</ele>
        <time>2022-05-31T10:51:25Z</time>
      </trkpt>
      <trkpt lat="49.42266" lon="0.2227">
        <ele>95.3</ele>
        <time>2022-05-31T10:51:27Z</time>
      </trkpt>
      <trkpt lat="49.42266" lon="0.22271">
        <ele>95.2</ele>
        <time>2022-05-31T10:51:28Z</time>
      </trkpt>
      <trkpt lat="49.42267" lon="0.22271">
        <ele>95.2</ele>
        <time>2022-05-31T10:51:29Z</time>
      </trkpt>
      <trkpt lat="49.42269" lon="0.22272">
        <ele>95.2</ele>
        <time>2022-05-31T10:51:31Z</time>
      </trkpt>
      <trkpt lat="49.42271" lon="0.22272">
        <ele>95.1</ele>
        <time>2022-05-31T10:51:32Z</time>
      </trkpt>
      <trkpt lat="49.42272" lon="0.22272">
        <ele>95.1</ele>
        <time>2022-05-31T10:51:33Z</time>
      </trkpt>
      <trkpt lat="49.42273" lon="0.22272">
        <ele>95.1</ele>
        <time>2022-05-31T10:51:34Z</time>
      </trkpt>
      <trkpt lat="49.42273" lon="0.22272">
        <ele>95.1</ele>
        <time>2022-05-31T10:51:35Z</time>
      </trkpt>
      <trkpt lat="49.42274" lon="0.22272">
        <ele>95.1</ele>
        <time>2022-05-31T10:51:36Z</time>
      </trkpt>
      <trkpt lat="49.42275" lon="0.22273">
        <ele>95</ele>
        <time>2022-05-31T10:51:37Z</time>
      </trkpt>
      <trkpt lat="49.42276" lon="0.22273">
        <ele>95</ele>
        <time>2022-05-31T10:51:38Z</time>
      </trkpt>
      <trkpt lat="49.42278" lon="0.22273">
        <ele>95</ele>
        <time>2022-05-31T10:51:39Z</time>
      </trkpt>
      <trkpt lat="49.42279" lon="0.22273">
        <ele>95</ele>
        <time>2022-05-31T10:51:41Z</time>
      </trkpt>
      <trkpt lat="49.4228" lon="0.22273">
        <ele>94.9</ele>
        <time>2022-05-31T10:51:42Z</time>
      </trkpt>
      <trkpt lat="49.42281" lon="0.22273">
        <ele>94.9</ele>
        <time>2022-05-31T10:51:43Z</time>
      </trkpt>
      <trkpt lat="49.42282" lon="0.22273">
        <ele>94.9</ele>
        <time>2022-05-31T10:51:44Z</time>
      </trkpt>
      <trkpt lat="49.42283" lon="0.22274">
        <ele>94.8</ele>
        <time>2022-05-31T10:51:45Z</time>
      </trkpt>
      <trkpt lat="49.42284" lon="0.22275">
        <ele>94.8</ele>
        <time>2022-05-31T10:51:46Z</time>
      </trkpt>
      <trkpt lat="49.42286" lon="0.22275">
        <ele>94.8</ele>
        <time>2022-05-31T10:51:47Z</time>
      </trkpt>
      <trkpt lat="49.42287" lon="0.22275">
        <ele>94.7</ele>
        <time>2022-05-31T10:51:49Z</time>
      </trkpt>
      <trkpt lat="49.42288" lon="0.22275">
        <ele>94.7</ele>
        <time>2022-05-31T10:51:50Z</time>
      </trkpt>
      <trkpt lat="49.42288" lon="0.22274">
        <ele>94.7</ele>
        <time>2022-05-31T10:51:51Z</time>
      </trkpt>
      <trkpt lat="49.42289" lon="0.22274">
        <ele>94.7</ele>
        <time>2022-05-31T10:51:52Z</time>
      </trkpt>
      <trkpt lat="49.4229" lon="0.22273">
        <ele>94.6</ele>
        <time>2022-05-31T10:51:53Z</time>
      </trkpt>
      <trkpt lat="49.4229" lon="0.22272">
        <ele>94.6</ele>
        <time>2022-05-31T10:51:54Z</time>
      </trkpt>
      <trkpt lat="49.4229" lon="0.22271">
        <ele>94.6</ele>
        <time>2022-05-31T10:51:55Z</time>
      </trkpt>
      <trkpt lat="49.42291" lon="0.22271">
        <ele>94.6</ele>
        <time>2022-05-31T10:51:56Z</time>
      </trkpt>
      <trkpt lat="49.42292" lon="0.2227">
        <ele>94.6</ele>
        <time>2022-05-31T10:51:58Z</time>
      </trkpt>
      <trkpt lat="49.42292" lon="0.2227">
        <ele>94.5</ele>
        <time>2022-05-31T10:51:59Z</time>
      </trkpt>
      <trkpt lat="49.42293" lon="0.22268">
        <ele>94.5</ele>
        <time>2022-05-31T10:52:00Z</time>
      </trkpt>
      <trkpt lat="49.42294" lon="0.22267">
        <ele>94.5</ele>
        <time>2022-05-31T10:52:01Z</time>
      </trkpt>
      <trkpt lat="49.42294" lon="0.22266">
        <ele>94.5</ele>
        <time>2022-05-31T10:52:02Z</time>
      </trkpt>
      <trkpt lat="49.42294" lon="0.22265">
        <ele>94.4</ele>
        <time>2022-05-31T10:52:03Z</time>
      </trkpt>
      <trkpt lat="49.42294" lon="0.22264">
        <ele>94.4</ele>
        <time>2022-05-31T10:52:04Z</time>
      </trkpt>
      <trkpt lat="49.42295" lon="0.22263">
        <ele>94.4</ele>
        <time>2022-05-31T10:52:06Z</time>
      </trkpt>
      <trkpt lat="49.42296" lon="0.22261">
        <ele>94.3</ele>
        <time>2022-05-31T10:52:07Z</time>
      </trkpt>
      <trkpt lat="49.42296" lon="0.2226">
        <ele>94.3</ele>
        <time>2022-05-31T10:52:08Z</time>
      </trkpt>
      <trkpt lat="49.42296" lon="0.22259">
        <ele>94.3</ele>
        <time>2022-05-31T10:52:09Z</time>
      </trkpt>
      <trkpt lat="49.42296" lon="0.22257">
        <ele>94.3</ele>
        <time>2022-05-31T10:52:10Z</time>
      </trkpt>
      <trkpt lat="49.42297" lon="0.22253">
        <ele>94.2</ele>
        <time>2022-05-31T10:52:12Z</time>
      </trkpt>
      <trkpt lat="49.42298" lon="0.22249">
        <ele>94.1</ele>
        <time>2022-05-31T10:52:13Z</time>
      </trkpt>
      <trkpt lat="49.42299" lon="0.22247">
        <ele>94.1</ele>
        <time>2022-05-31T10:52:14Z</time>
      </trkpt>
      <trkpt lat="49.423" lon="0.22243">
        <ele>94</ele>
        <time>2022-05-31T10:52:15Z</time>
      </trkpt>
      <trkpt lat="49.42302" lon="0.22239">
        <ele>93.9</ele>
        <time>2022-05-31T10:52:17Z</time>
      </trkpt>
      <trkpt lat="49.42302" lon="0.22237">
        <ele>93.8</ele>
        <time>2022-05-31T10:52:18Z</time>
      </trkpt>
      <trkpt lat="49.42304" lon="0.22232">
        <ele>93.7</ele>
        <time>2022-05-31T10:52:19Z</time>
      </trkpt>
      <trkpt lat="49.42304" lon="0.22231">
        <ele>93.7</ele>
        <time>2022-05-31T10:52:20Z</time>
      </trkpt>
      <trkpt lat="49.42306" lon="0.22227">
        <ele>93.6</ele>
        <time>2022-05-31T10:52:21Z</time>
      </trkpt>
      <trkpt lat="49.42306" lon="0.22226">
        <ele>93.6</ele>
        <time>2022-05-31T10:52:22Z</time>
      </trkpt>
      <trkpt lat="49.42308" lon="0.22221">
        <ele>93.5</ele>
        <time>2022-05-31T10:52:24Z</time>
      </trkpt>
      <trkpt lat="49.42309" lon="0.22219">
        <ele>93.5</ele>
        <time>2022-05-31T10:52:25Z</time>
      </trkpt>
      <trkpt lat="49.4231" lon="0.22215">
        <ele>93.4</ele>
        <time>2022-05-31T10:52:26Z</time>
      </trkpt>
      <trkpt lat="49.4231" lon="0.22214">
        <ele>93.4</ele>
        <time>2022-05-31T10:52:27Z</time>
      </trkpt>
      <trkpt lat="49.4231" lon="0.22212">
        <ele>93.3</ele>
        <time>2022-05-31T10:52:28Z</time>
      </trkpt>
      <trkpt lat="49.4231" lon="0.22209">
        <ele>93.3</ele>
        <time>2022-05-31T10:52:29Z</time>
      </trkpt>
      <trkpt lat="49.4231" lon="0.22207">
        <ele>93.3</ele>
        <time>2022-05-31T10:52:31Z</time>
      </trkpt>
      <trkpt lat="49.4231" lon="0.22204">
        <ele>93.2</ele>
        <time>2022-05-31T10:52:32Z</time>
      </trkpt>
      <trkpt lat="49.4231" lon="0.22203">
        <ele>93.2</ele>
        <time>2022-05-31T10:52:33Z</time>
      </trkpt>
      <trkpt lat="49.4231" lon="0.22201">
        <ele>93.2</ele>
        <time>2022-05-31T10:52:34Z</time>
      </trkpt>
      <trkpt lat="49.4231" lon="0.22199">
        <ele>93.1</ele>
        <time>2022-05-31T10:52:35Z</time>
      </trkpt>
      <trkpt lat="49.4231" lon="0.22195">
        <ele>93.1</ele>
        <time>2022-05-31T10:52:36Z</time>
      </trkpt>
      <trkpt lat="49.4231" lon="0.22194">
        <ele>93.1</ele>
        <time>2022-05-31T10:52:37Z</time>
      </trkpt>
      <trkpt lat="49.4231" lon="0.22192">
        <ele>93.1</ele>
        <time>2022-05-31T10:52:38Z</time>
      </trkpt>
      <trkpt lat="49.4231" lon="0.2219">
        <ele>93</ele>
        <time>2022-05-31T10:52:39Z</time>
      </trkpt>
      <trkpt lat="49.42311" lon="0.22188">
        <ele>93</ele>
        <time>2022-05-31T10:52:41Z</time>
      </trkpt>
      <trkpt lat="49.42311" lon="0.22186">
        <ele>93</ele>
        <time>2022-05-31T10:52:42Z</time>
      </trkpt>
      <trkpt lat="49.42311" lon="0.22184">
        <ele>93</ele>
        <time>2022-05-31T10:52:43Z</time>
      </trkpt>
      <trkpt lat="49.42312" lon="0.22183">
        <ele>93</ele>
        <time>2022-05-31T10:52:44Z</time>
      </trkpt>
      <trkpt lat="49.42312" lon="0.22182">
        <ele>93</ele>
        <time>2022-05-31T10:52:46Z</time>
      </trkpt>
      <trkpt lat="49.42313" lon="0.2218">
        <ele>93</ele>
        <time>2022-05-31T10:52:47Z</time>
      </trkpt>
      <trkpt lat="49.42314" lon="0.2218">
        <ele>92.9</ele>
        <time>2022-05-31T10:52:49Z</time>
      </trkpt>
      <trkpt lat="49.42315" lon="0.22179">
        <ele>92.9</ele>
        <time>2022-05-31T10:52:50Z</time>
      </trkpt>
      <trkpt lat="49.42314" lon="0.2218">
        <ele>92.9</ele>
        <time>2022-05-31T10:52:51Z</time>
      </trkpt>
      <trkpt lat="49.42314" lon="0.2218">
        <ele>92.9</ele>
        <time>2022-05-31T10:52:52Z</time>
      </trkpt>
      <trkpt lat="49.42314" lon="0.22181">
        <ele>92.9</ele>
        <time>2022-05-31T10:52:53Z</time>
      </trkpt>
      <trkpt lat="49.42314" lon="0.22181">
        <ele>92.9</ele>
        <time>2022-05-31T10:52:54Z</time>
      </trkpt>
      <trkpt lat="49.42313" lon="0.22182">
        <ele>92.9</ele>
        <time>2022-05-31T10:52:55Z</time>
      </trkpt>
      <trkpt lat="49.42313" lon="0.22182">
        <ele>92.9</ele>
        <time>2022-05-31T10:52:56Z</time>
      </trkpt>
      <trkpt lat="49.42313" lon="0.22182">
        <ele>92.9</ele>
        <time>2022-05-31T10:52:57Z</time>
      </trkpt>
      <trkpt lat="49.42313" lon="0.22182">
        <ele>92.9</ele>
        <time>2022-05-31T10:52:58Z</time>
      </trkpt>
      <trkpt lat="49.42313" lon="0.22183">
        <ele>92.9</ele>
        <time>2022-05-31T10:52:59Z</time>
      </trkpt>
      <trkpt lat="49.42313" lon="0.22183">
        <ele>92.9</ele>
        <time>2022-05-31T10:53:00Z</time>
      </trkpt>
      <trkpt lat="49.42313" lon="0.22183">
        <ele>92.9</ele>
        <time>2022-05-31T10:53:01Z</time>
      </trkpt>
      <trkpt lat="49.42313" lon="0.22183">
        <ele>92.9</ele>
        <time>2022-05-31T10:53:02Z</time>
      </trkpt>
      <trkpt lat="49.42313" lon="0.22183">
        <ele>92.9</ele>
        <time>2022-05-31T10:53:03Z</time>
      </trkpt>
      <trkpt lat="49.42313" lon="0.22182">
        <ele>92.9</ele>
        <time>2022-05-31T10:53:04Z</time>
      </trkpt>
      <trkpt lat="49.42313" lon="0.22182">
        <ele>92.9</ele>
        <time>2022-05-31T10:53:05Z</time>
      </trkpt>
      <trkpt lat="49.42313" lon="0.22182">
        <ele>92.9</ele>
        <time>2022-05-31T10:53:07Z</time>
      </trkpt>
      <trkpt lat="49.42313" lon="0.22183">
        <ele>92.9</ele>
        <time>2022-05-31T10:53:08Z</time>
      </trkpt>
      <trkpt lat="49.42313" lon="0.22183">
        <ele>92.9</ele>
        <time>2022-05-31T10:53:09Z</time>
      </trkpt>
      <trkpt lat="49.42313" lon="0.22183">
        <ele>92.9</ele>
        <time>2022-05-31T10:53:10Z</time>
      </trkpt>
      <trkpt lat="49.42313" lon="0.22183">
        <ele>92.9</ele>
        <time>2022-05-31T10:53:11Z</time>
      </trkpt>
      <trkpt lat="49.42313" lon="0.22183">
        <ele>92.9</ele>
        <time>2022-05-31T10:53:12Z</time>
      </trkpt>
      <trkpt lat="49.42312" lon="0.22184">
        <ele>92.9</ele>
        <time>2022-05-31T10:53:13Z</time>
      </trkpt>
      <trkpt lat="49.42312" lon="0.22184">
        <ele>92.9</ele>
        <time>2022-05-31T10:53:14Z</time>
      </trkpt>
      <trkpt lat="49.42312" lon="0.22184">
        <ele>92.9</ele>
        <time>2022-05-31T10:53:15Z</time>
      </trkpt>
      <trkpt lat="49.42312" lon="0.22184">
        <ele>92.9</ele>
        <time>2022-05-31T10:53:16Z</time>
      </trkpt>
      <trkpt lat="49.42312" lon="0.22184">
        <ele>92.9</ele>
        <time>2022-05-31T10:53:18Z</time>
      </trkpt>
      <trkpt lat="49.42312" lon="0.22184">
        <ele>92.9</ele>
        <time>2022-05-31T10:53:19Z</time>
      </trkpt>
      <trkpt lat="49.42312" lon="0.22186">
        <ele>92.9</ele>
        <time>2022-05-31T10:53:21Z</time>
      </trkpt>
      <trkpt lat="49.42312" lon="0.22186">
        <ele>92.9</ele>
        <time>2022-05-31T10:53:22Z</time>
      </trkpt>
      <trkpt lat="49.42312" lon="0.22188">
        <ele>92.8</ele>
        <time>2022-05-31T10:53:23Z</time>
      </trkpt>
      <trkpt lat="49.42312" lon="0.22189">
        <ele>92.8</ele>
        <time>2022-05-31T10:53:25Z</time>
      </trkpt>
      <trkpt lat="49.42311" lon="0.22189">
        <ele>92.8</ele>
        <time>2022-05-31T10:53:26Z</time>
      </trkpt>
      <trkpt lat="49.42311" lon="0.22189">
        <ele>92.8</ele>
        <time>2022-05-31T10:53:27Z</time>
      </trkpt>
      <trkpt lat="49.42311" lon="0.22189">
        <ele>92.8</ele>
        <time>2022-05-31T10:53:28Z</time>
      </trkpt>
      <trkpt lat="49.4231" lon="0.22189">
        <ele>92.8</ele>
        <time>2022-05-31T10:53:29Z</time>
      </trkpt>
      <trkpt lat="49.4231" lon="0.22189">
        <ele>92.8</ele>
        <time>2022-05-31T10:53:30Z</time>
      </trkpt>
      <trkpt lat="49.4231" lon="0.22189">
        <ele>92.8</ele>
        <time>2022-05-31T10:53:31Z</time>
      </trkpt>
      <trkpt lat="49.4231" lon="0.22189">
        <ele>92.8</ele>
        <time>2022-05-31T10:53:32Z</time>
      </trkpt>
      <trkpt lat="49.4231" lon="0.22189">
        <ele>92.8</ele>
        <time>2022-05-31T10:53:33Z</time>
      </trkpt>
      <trkpt lat="49.4231" lon="0.22188">
        <ele>92.8</ele>
        <time>2022-05-31T10:53:34Z</time>
      </trkpt>
      <trkpt lat="49.42309" lon="0.22187">
        <ele>92.8</ele>
        <time>2022-05-31T10:53:36Z</time>
      </trkpt>
      <trkpt lat="49.42309" lon="0.22187">
        <ele>92.8</ele>
        <time>2022-05-31T10:53:37Z</time>
      </trkpt>
      <trkpt lat="49.42309" lon="0.22185">
        <ele>92.8</ele>
        <time>2022-05-31T10:53:38Z</time>
      </trkpt>
      <trkpt lat="49.42309" lon="0.22183">
        <ele>92.7</ele>
        <time>2022-05-31T10:53:39Z</time>
      </trkpt>
      <trkpt lat="49.42308" lon="0.22182">
        <ele>92.7</ele>
        <time>2022-05-31T10:53:41Z</time>
      </trkpt>
      <trkpt lat="49.42308" lon="0.2218">
        <ele>92.9</ele>
        <time>2022-05-31T10:53:42Z</time>
      </trkpt>
      <trkpt lat="49.42308" lon="0.22178">
        <ele>93</ele>
        <time>2022-05-31T10:53:43Z</time>
      </trkpt>
      <trkpt lat="49.42308" lon="0.22177">
        <ele>93</ele>
        <time>2022-05-31T10:53:44Z</time>
      </trkpt>
      <trkpt lat="49.42308" lon="0.22175">
        <ele>93</ele>
        <time>2022-05-31T10:53:45Z</time>
      </trkpt>
      <trkpt lat="49.42307" lon="0.22174">
        <ele>93.1</ele>
        <time>2022-05-31T10:53:46Z</time>
      </trkpt>
      <trkpt lat="49.42305" lon="0.22172">
        <ele>93.2</ele>
        <time>2022-05-31T10:53:48Z</time>
      </trkpt>
      <trkpt lat="49.42304" lon="0.22172">
        <ele>93.2</ele>
        <time>2022-05-31T10:53:49Z</time>
      </trkpt>
      <trkpt lat="49.42304" lon="0.22171">
        <ele>93.2</ele>
        <time>2022-05-31T10:53:50Z</time>
      </trkpt>
      <trkpt lat="49.42303" lon="0.22169">
        <ele>93.3</ele>
        <time>2022-05-31T10:53:51Z</time>
      </trkpt>
      <trkpt lat="49.42303" lon="0.22168">
        <ele>93.3</ele>
        <time>2022-05-31T10:53:53Z</time>
      </trkpt>
      <trkpt lat="49.42302" lon="0.22166">
        <ele>93.4</ele>
        <time>2022-05-31T10:53:54Z</time>
      </trkpt>
      <trkpt lat="49.42301" lon="0.22166">
        <ele>93.4</ele>
        <time>2022-05-31T10:53:55Z</time>
      </trkpt>
      <trkpt lat="49.423" lon="0.22165">
        <ele>93.4</ele>
        <time>2022-05-31T10:53:56Z</time>
      </trkpt>
      <trkpt lat="49.42299" lon="0.22165">
        <ele>93.5</ele>
        <time>2022-05-31T10:53:57Z</time>
      </trkpt>
      <trkpt lat="49.42297" lon="0.22163">
        <ele>93.6</ele>
        <time>2022-05-31T10:53:59Z</time>
      </trkpt>
      <trkpt lat="49.42296" lon="0.22162">
        <ele>93.6</ele>
        <time>2022-05-31T10:54:00Z</time>
      </trkpt>
      <trkpt lat="49.42296" lon="0.22161">
        <ele>93.6</ele>
        <time>2022-05-31T10:54:01Z</time>
      </trkpt>
      <trkpt lat="49.42295" lon="0.2216">
        <ele>93.6</ele>
        <time>2022-05-31T10:54:02Z</time>
      </trkpt>
      <trkpt lat="49.42295" lon="0.22159">
        <ele>93.7</ele>
        <time>2022-05-31T10:54:03Z</time>
      </trkpt>
      <trkpt lat="49.42294" lon="0.22156">
        <ele>93.7</ele>
        <time>2022-05-31T10:54:04Z</time>
      </trkpt>
      <trkpt lat="49.42293" lon="0.22154">
        <ele>93.8</ele>
        <time>2022-05-31T10:54:05Z</time>
      </trkpt>
      <trkpt lat="49.42292" lon="0.22152">
        <ele>93.8</ele>
        <time>2022-05-31T10:54:07Z</time>
      </trkpt>
      <trkpt lat="49.42292" lon="0.2215">
        <ele>93.9</ele>
        <time>2022-05-31T10:54:08Z</time>
      </trkpt>
      <trkpt lat="49.4229" lon="0.22146">
        <ele>93.9</ele>
        <time>2022-05-31T10:54:09Z</time>
      </trkpt>
      <trkpt lat="49.42289" lon="0.22145">
        <ele>94</ele>
        <time>2022-05-31T10:54:10Z</time>
      </trkpt>
      <trkpt lat="49.42288" lon="0.22144">
        <ele>94</ele>
        <time>2022-05-31T10:54:12Z</time>
      </trkpt>
      <trkpt lat="49.42287" lon="0.22143">
        <ele>94.1</ele>
        <time>2022-05-31T10:54:13Z</time>
      </trkpt>
      <trkpt lat="49.42285" lon="0.22143">
        <ele>94.1</ele>
        <time>2022-05-31T10:54:14Z</time>
      </trkpt>
      <trkpt lat="49.42285" lon="0.22144">
        <ele>94.1</ele>
        <time>2022-05-31T10:54:15Z</time>
      </trkpt>
      <trkpt lat="49.42284" lon="0.22145">
        <ele>94.1</ele>
        <time>2022-05-31T10:54:16Z</time>
      </trkpt>
      <trkpt lat="49.42284" lon="0.22147">
        <ele>94.2</ele>
        <time>2022-05-31T10:54:17Z</time>
      </trkpt>
      <trkpt lat="49.42284" lon="0.22148">
        <ele>94.2</ele>
        <time>2022-05-31T10:54:18Z</time>
      </trkpt>
      <trkpt lat="49.42284" lon="0.2215">
        <ele>94.2</ele>
        <time>2022-05-31T10:54:19Z</time>
      </trkpt>
      <trkpt lat="49.42285" lon="0.22151">
        <ele>94.2</ele>
        <time>2022-05-31T10:54:20Z</time>
      </trkpt>
      <trkpt lat="49.42285" lon="0.22151">
        <ele>94.2</ele>
        <time>2022-05-31T10:54:21Z</time>
      </trkpt>
      <trkpt lat="49.42285" lon="0.22152">
        <ele>94.3</ele>
        <time>2022-05-31T10:54:22Z</time>
      </trkpt>
      <trkpt lat="49.42285" lon="0.22153">
        <ele>94.3</ele>
        <time>2022-05-31T10:54:23Z</time>
      </trkpt>
      <trkpt lat="49.42285" lon="0.22153">
        <ele>94.3</ele>
        <time>2022-05-31T10:54:24Z</time>
      </trkpt>
      <trkpt lat="49.42285" lon="0.22154">
        <ele>94.3</ele>
        <time>2022-05-31T10:54:25Z</time>
      </trkpt>
      <trkpt lat="49.42285" lon="0.22154">
        <ele>94.3</ele>
        <time>2022-05-31T10:54:26Z</time>
      </trkpt>
      <trkpt lat="49.42285" lon="0.22154">
        <ele>94.3</ele>
        <time>2022-05-31T10:54:27Z</time>
      </trkpt>
      <trkpt lat="49.42285" lon="0.22155">
        <ele>94.3</ele>
        <time>2022-05-31T10:54:28Z</time>
      </trkpt>
      <trkpt lat="49.42285" lon="0.22155">
        <ele>94.3</ele>
        <time>2022-05-31T10:54:29Z</time>
      </trkpt>
      <trkpt lat="49.42285" lon="0.22156">
        <ele>94.3</ele>
        <time>2022-05-31T10:54:30Z</time>
      </trkpt>
      <trkpt lat="49.42285" lon="0.22156">
        <ele>94.3</ele>
        <time>2022-05-31T10:54:31Z</time>
      </trkpt>
      <trkpt lat="49.42285" lon="0.22157">
        <ele>94.4</ele>
        <time>2022-05-31T10:54:33Z</time>
      </trkpt>
      <trkpt lat="49.42284" lon="0.22157">
        <ele>94.4</ele>
        <time>2022-05-31T10:54:34Z</time>
      </trkpt>
      <trkpt lat="49.42284" lon="0.22157">
        <ele>94.4</ele>
        <time>2022-05-31T10:54:35Z</time>
      </trkpt>
      <trkpt lat="49.42284" lon="0.22158">
        <ele>94.4</ele>
        <time>2022-05-31T10:54:36Z</time>
      </trkpt>
      <trkpt lat="49.42284" lon="0.22158">
        <ele>94.4</ele>
        <time>2022-05-31T10:54:37Z</time>
      </trkpt>
      <trkpt lat="49.42284" lon="0.22159">
        <ele>94.4</ele>
        <time>2022-05-31T10:54:38Z</time>
      </trkpt>
      <trkpt lat="49.42283" lon="0.22164">
        <ele>94.4</ele>
        <time>2022-05-31T10:54:39Z</time>
      </trkpt>
      <trkpt lat="49.42283" lon="0.22166">
        <ele>94.4</ele>
        <time>2022-05-31T10:54:40Z</time>
      </trkpt>
      <trkpt lat="49.42282" lon="0.2217">
        <ele>94.4</ele>
        <time>2022-05-31T10:54:41Z</time>
      </trkpt>
      <trkpt lat="49.42282" lon="0.22172">
        <ele>94.4</ele>
        <time>2022-05-31T10:54:42Z</time>
      </trkpt>
      <trkpt lat="49.42281" lon="0.22177">
        <ele>94.4</ele>
        <time>2022-05-31T10:54:44Z</time>
      </trkpt>
      <trkpt lat="49.42281" lon="0.22178">
        <ele>94.5</ele>
        <time>2022-05-31T10:54:45Z</time>
      </trkpt>
      <trkpt lat="49.42281" lon="0.2218">
        <ele>94.5</ele>
        <time>2022-05-31T10:54:46Z</time>
      </trkpt>
      <trkpt lat="49.42281" lon="0.22181">
        <ele>94.5</ele>
        <time>2022-05-31T10:54:47Z</time>
      </trkpt>
      <trkpt lat="49.42281" lon="0.22182">
        <ele>94.5</ele>
        <time>2022-05-31T10:54:48Z</time>
      </trkpt>
      <trkpt lat="49.42281" lon="0.22182">
        <ele>94.5</ele>
        <time>2022-05-31T10:54:49Z</time>
      </trkpt>
      <trkpt lat="49.42281" lon="0.22183">
        <ele>94.5</ele>
        <time>2022-05-31T10:54:50Z</time>
      </trkpt>
      <trkpt lat="49.42281" lon="0.22183">
        <ele>94.5</ele>
        <time>2022-05-31T10:54:51Z</time>
      </trkpt>
      <trkpt lat="49.42281" lon="0.22183">
        <ele>94.5</ele>
        <time>2022-05-31T10:54:52Z</time>
      </trkpt>
      <trkpt lat="49.4228" lon="0.22183">
        <ele>94.5</ele>
        <time>2022-05-31T10:54:53Z</time>
      </trkpt>
      <trkpt lat="49.4228" lon="0.22183">
        <ele>94.5</ele>
        <time>2022-05-31T10:54:55Z</time>
      </trkpt>
      <trkpt lat="49.4228" lon="0.22184">
        <ele>94.5</ele>
        <time>2022-05-31T10:54:56Z</time>
      </trkpt>
      <trkpt lat="49.4228" lon="0.22184">
        <ele>94.5</ele>
        <time>2022-05-31T10:54:57Z</time>
      </trkpt>
      <trkpt lat="49.4228" lon="0.22185">
        <ele>94.5</ele>
        <time>2022-05-31T10:54:58Z</time>
      </trkpt>
      <trkpt lat="49.42279" lon="0.22185">
        <ele>94.5</ele>
        <time>2022-05-31T10:54:59Z</time>
      </trkpt>
      <trkpt lat="49.42279" lon="0.22186">
        <ele>94.5</ele>
        <time>2022-05-31T10:55:00Z</time>
      </trkpt>
      <trkpt lat="49.42279" lon="0.22186">
        <ele>94.5</ele>
        <time>2022-05-31T10:55:01Z</time>
      </trkpt>
      <trkpt lat="49.42279" lon="0.22186">
        <ele>94.5</ele>
        <time>2022-05-31T10:55:02Z</time>
      </trkpt>
      <trkpt lat="49.42279" lon="0.22186">
        <ele>94.5</ele>
        <time>2022-05-31T10:55:03Z</time>
      </trkpt>
      <trkpt lat="49.42279" lon="0.22186">
        <ele>94.5</ele>
        <time>2022-05-31T10:55:04Z</time>
      </trkpt>
      <trkpt lat="49.42279" lon="0.22186">
        <ele>94.5</ele>
        <time>2022-05-31T10:55:05Z</time>
      </trkpt>
      <trkpt lat="49.42279" lon="0.22186">
        <ele>94.5</ele>
        <time>2022-05-31T10:55:06Z</time>
      </trkpt>
      <trkpt lat="49.42279" lon="0.22186">
        <ele>94.5</ele>
        <time>2022-05-31T10:55:07Z</time>
      </trkpt>
      <trkpt lat="49.42279" lon="0.22186">
        <ele>94.5</ele>
        <time>2022-05-31T10:55:08Z</time>
      </trkpt>
      <trkpt lat="49.42279" lon="0.22185">
        <ele>94.5</ele>
        <time>2022-05-31T10:55:09Z</time>
      </trkpt>
      <trkpt lat="49.42279" lon="0.22185">
        <ele>94.5</ele>
        <time>2022-05-31T10:55:10Z</time>
      </trkpt>
      <trkpt lat="49.42279" lon="0.22185">
        <ele>94.5</ele>
        <time>2022-05-31T10:55:11Z</time>
      </trkpt>
      <trkpt lat="49.42279" lon="0.22185">
        <ele>94.5</ele>
        <time>2022-05-31T10:55:12Z</time>
      </trkpt>
      <trkpt lat="49.42278" lon="0.22185">
        <ele>94.5</ele>
        <time>2022-05-31T10:55:13Z</time>
      </trkpt>
      <trkpt lat="49.42279" lon="0.22185">
        <ele>94.5</ele>
        <time>2022-05-31T10:55:14Z</time>
      </trkpt>
      <trkpt lat="49.42279" lon="0.22185">
        <ele>94.5</ele>
        <time>2022-05-31T10:55:15Z</time>
      </trkpt>
      <trkpt lat="49.42279" lon="0.22185">
        <ele>94.5</ele>
        <time>2022-05-31T10:55:16Z</time>
      </trkpt>
      <trkpt lat="49.42279" lon="0.22185">
        <ele>94.5</ele>
        <time>2022-05-31T10:55:17Z</time>
      </trkpt>
      <trkpt lat="49.42279" lon="0.22185">
        <ele>94.5</ele>
        <time>2022-05-31T10:55:18Z</time>
      </trkpt>
      <trkpt lat="49.42279" lon="0.22185">
        <ele>94.5</ele>
        <time>2022-05-31T10:55:19Z</time>
      </trkpt>
      <trkpt lat="49.42279" lon="0.22185">
        <ele>94.5</ele>
        <time>2022-05-31T10:55:20Z</time>
      </trkpt>
      <trkpt lat="49.42279" lon="0.22185">
        <ele>94.5</ele>
        <time>2022-05-31T10:55:21Z</time>
      </trkpt>
      <trkpt lat="49.42279" lon="0.22185">
        <ele>94.5</ele>
        <time>2022-05-31T10:55:22Z</time>
      </trkpt>
      <trkpt lat="49.42279" lon="0.22185">
        <ele>94.5</ele>
        <time>2022-05-31T10:55:23Z</time>
      </trkpt>
      <trkpt lat="49.42279" lon="0.22185">
        <ele>94.5</ele>
        <time>2022-05-31T10:55:24Z</time>
      </trkpt>
      <trkpt lat="49.42279" lon="0.22185">
        <ele>94.5</ele>
        <time>2022-05-31T10:55:25Z</time>
      </trkpt>
      <trkpt lat="49.42279" lon="0.22185">
        <ele>94.5</ele>
        <time>2022-05-31T10:55:26Z</time>
      </trkpt>
      <trkpt lat="49.42279" lon="0.22185">
        <ele>94.5</ele>
        <time>2022-05-31T10:55:27Z</time>
      </trkpt>
      <trkpt lat="49.42279" lon="0.22185">
        <ele>94.5</ele>
        <time>2022-05-31T10:55:28Z</time>
      </trkpt>
      <trkpt lat="49.42279" lon="0.22185">
        <ele>94.5</ele>
        <time>2022-05-31T10:55:29Z</time>
      </trkpt>
      <trkpt lat="49.42279" lon="0.22185">
        <ele>94.5</ele>
        <time>2022-05-31T10:55:30Z</time>
      </trkpt>
      <trkpt lat="49.42279" lon="0.22185">
        <ele>94.5</ele>
        <time>2022-05-31T10:55:31Z</time>
      </trkpt>
      <trkpt lat="49.42279" lon="0.22185">
        <ele>94.5</ele>
        <time>2022-05-31T10:55:32Z</time>
      </trkpt>
      <trkpt lat="49.42279" lon="0.22185">
        <ele>94.5</ele>
        <time>2022-05-31T10:55:33Z</time>
      </trkpt>
      <trkpt lat="49.42279" lon="0.22185">
        <ele>94.5</ele>
        <time>2022-05-31T10:55:34Z</time>
      </trkpt>
      <trkpt lat="49.42279" lon="0.22185">
        <ele>94.5</ele>
        <time>2022-05-31T10:55:35Z</time>
      </trkpt>
      <trkpt lat="49.42279" lon="0.22185">
        <ele>94.5</ele>
        <time>2022-05-31T10:55:36Z</time>
      </trkpt>
      <trkpt lat="49.42279" lon="0.22185">
        <ele>94.5</ele>
        <time>2022-05-31T10:55:37Z</time>
      </trkpt>
      <trkpt lat="49.42279" lon="0.22185">
        <ele>94.5</ele>
        <time>2022-05-31T10:55:38Z</time>
      </trkpt>
      <trkpt lat="49.42279" lon="0.22185">
        <ele>94.5</ele>
        <time>2022-05-31T10:55:39Z</time>
      </trkpt>
      <trkpt lat="49.42279" lon="0.22185">
        <ele>94.5</ele>
        <time>2022-05-31T10:55:40Z</time>
      </trkpt>
      <trkpt lat="49.42279" lon="0.22185">
        <ele>94.5</ele>
        <time>2022-05-31T10:55:41Z</time>
      </trkpt>
      <trkpt lat="49.42279" lon="0.22185">
        <ele>94.5</ele>
        <time>2022-05-31T10:55:42Z</time>
      </trkpt>
      <trkpt lat="49.42279" lon="0.22185">
        <ele>94.5</ele>
        <time>2022-05-31T10:55:43Z</time>
      </trkpt>
      <trkpt lat="49.42279" lon="0.22185">
        <ele>94.5</ele>
        <time>2022-05-31T10:55:44Z</time>
      </trkpt>
      <trkpt lat="49.42279" lon="0.22185">
        <ele>94.5</ele>
        <time>2022-05-31T10:55:45Z</time>
      </trkpt>
      <trkpt lat="49.42279" lon="0.22185">
        <ele>94.5</ele>
        <time>2022-05-31T10:55:46Z</time>
      </trkpt>
      <trkpt lat="49.42279" lon="0.22185">
        <ele>94.5</ele>
        <time>2022-05-31T10:55:47Z</time>
      </trkpt>
      <trkpt lat="49.42279" lon="0.22185">
        <ele>94.5</ele>
        <time>2022-05-31T10:55:48Z</time>
      </trkpt>
      <trkpt lat="49.42279" lon="0.22185">
        <ele>94.5</ele>
        <time>2022-05-31T10:55:49Z</time>
      </trkpt>
      <trkpt lat="49.42279" lon="0.22185">
        <ele>94.5</ele>
        <time>2022-05-31T10:55:50Z</time>
      </trkpt>
      <trkpt lat="49.42279" lon="0.22185">
        <ele>94.5</ele>
        <time>2022-05-31T10:55:51Z</time>
      </trkpt>
      <trkpt lat="49.42279" lon="0.22185">
        <ele>94.5</ele>
        <time>2022-05-31T10:55:52Z</time>
      </trkpt>
      <trkpt lat="49.42279" lon="0.22185">
        <ele>94.5</ele>
        <time>2022-05-31T10:55:53Z</time>
      </trkpt>
      <trkpt lat="49.42279" lon="0.22185">
        <ele>94.5</ele>
        <time>2022-05-31T10:55:54Z</time>
      </trkpt>
      <trkpt lat="49.42279" lon="0.22185">
        <ele>94.5</ele>
        <time>2022-05-31T10:55:55Z</time>
      </trkpt>
      <trkpt lat="49.42279" lon="0.22183">
        <ele>94.5</ele>
        <time>2022-05-31T10:55:56Z</time>
      </trkpt>
      <trkpt lat="49.42279" lon="0.22181">
        <ele>94.5</ele>
        <time>2022-05-31T10:55:57Z</time>
      </trkpt>
      <trkpt lat="49.4228" lon="0.22181">
        <ele>94.5</ele>
        <time>2022-05-31T10:55:58Z</time>
      </trkpt>
      <trkpt lat="49.4228" lon="0.22182">
        <ele>94.5</ele>
        <time>2022-05-31T10:55:59Z</time>
      </trkpt>
      <trkpt lat="49.4228" lon="0.22183">
        <ele>94.5</ele>
        <time>2022-05-31T10:56:00Z</time>
      </trkpt>
      <trkpt lat="49.4228" lon="0.22183">
        <ele>94.5</ele>
        <time>2022-05-31T10:56:01Z</time>
      </trkpt>
      <trkpt lat="49.4228" lon="0.22184">
        <ele>94.5</ele>
        <time>2022-05-31T10:56:02Z</time>
      </trkpt>
      <trkpt lat="49.4228" lon="0.22184">
        <ele>94.5</ele>
        <time>2022-05-31T10:56:03Z</time>
      </trkpt>
      <trkpt lat="49.4228" lon="0.22184">
        <ele>94.5</ele>
        <time>2022-05-31T10:56:04Z</time>
      </trkpt>
      <trkpt lat="49.4228" lon="0.22184">
        <ele>94.5</ele>
        <time>2022-05-31T10:56:05Z</time>
      </trkpt>
      <trkpt lat="49.42279" lon="0.22181">
        <ele>94.5</ele>
        <time>2022-05-31T10:56:07Z</time>
      </trkpt>
      <trkpt lat="49.42279" lon="0.22179">
        <ele>94.6</ele>
        <time>2022-05-31T10:56:10Z</time>
      </trkpt>
      <trkpt lat="49.42279" lon="0.22179">
        <ele>94.6</ele>
        <time>2022-05-31T10:56:11Z</time>
      </trkpt>
      <trkpt lat="49.42279" lon="0.22179">
        <ele>94.6</ele>
        <time>2022-05-31T10:56:12Z</time>
      </trkpt>
      <trkpt lat="49.42279" lon="0.22179">
        <ele>94.6</ele>
        <time>2022-05-31T10:56:13Z</time>
      </trkpt>
      <trkpt lat="49.42279" lon="0.22179">
        <ele>94.6</ele>
        <time>2022-05-31T10:56:14Z</time>
      </trkpt>
      <trkpt lat="49.42279" lon="0.22179">
        <ele>94.6</ele>
        <time>2022-05-31T10:56:15Z</time>
      </trkpt>
      <trkpt lat="49.42279" lon="0.22179">
        <ele>94.6</ele>
        <time>2022-05-31T10:56:16Z</time>
      </trkpt>
      <trkpt lat="49.42279" lon="0.22179">
        <ele>94.6</ele>
        <time>2022-05-31T10:56:17Z</time>
      </trkpt>
      <trkpt lat="49.42279" lon="0.22179">
        <ele>94.6</ele>
        <time>2022-05-31T10:56:18Z</time>
      </trkpt>
      <trkpt lat="49.42279" lon="0.22179">
        <ele>94.6</ele>
        <time>2022-05-31T10:56:20Z</time>
      </trkpt>
      <trkpt lat="49.42279" lon="0.22179">
        <ele>94.6</ele>
        <time>2022-05-31T10:56:21Z</time>
      </trkpt>
      <trkpt lat="49.42279" lon="0.22179">
        <ele>94.6</ele>
        <time>2022-05-31T10:56:22Z</time>
      </trkpt>
      <trkpt lat="49.42279" lon="0.22179">
        <ele>94.6</ele>
        <time>2022-05-31T10:56:23Z</time>
      </trkpt>
      <trkpt lat="49.42279" lon="0.22179">
        <ele>94.6</ele>
        <time>2022-05-31T10:56:24Z</time>
      </trkpt>
      <trkpt lat="49.42279" lon="0.22179">
        <ele>94.6</ele>
        <time>2022-05-31T10:56:25Z</time>
      </trkpt>
      <trkpt lat="49.42279" lon="0.22179">
        <ele>94.6</ele>
        <time>2022-05-31T10:56:26Z</time>
      </trkpt>
      <trkpt lat="49.42279" lon="0.22179">
        <ele>94.6</ele>
        <time>2022-05-31T10:56:27Z</time>
      </trkpt>
      <trkpt lat="49.42279" lon="0.22178">
        <ele>94.6</ele>
        <time>2022-05-31T10:56:28Z</time>
      </trkpt>
      <trkpt lat="49.42279" lon="0.22179">
        <ele>94.6</ele>
        <time>2022-05-31T10:56:30Z</time>
      </trkpt>
      <trkpt lat="49.42279" lon="0.22179">
        <ele>94.6</ele>
        <time>2022-05-31T10:56:31Z</time>
      </trkpt>
      <trkpt lat="49.42279" lon="0.22179">
        <ele>94.6</ele>
        <time>2022-05-31T10:56:33Z</time>
      </trkpt>
      <trkpt lat="49.42279" lon="0.22178">
        <ele>94.6</ele>
        <time>2022-05-31T10:56:34Z</time>
      </trkpt>
      <trkpt lat="49.42278" lon="0.22178">
        <ele>94.6</ele>
        <time>2022-05-31T10:56:35Z</time>
      </trkpt>
      <trkpt lat="49.42278" lon="0.22178">
        <ele>94.6</ele>
        <time>2022-05-31T10:56:36Z</time>
      </trkpt>
      <trkpt lat="49.42278" lon="0.22178">
        <ele>94.6</ele>
        <time>2022-05-31T10:56:38Z</time>
      </trkpt>
      <trkpt lat="49.42279" lon="0.22178">
        <ele>94.6</ele>
        <time>2022-05-31T10:56:39Z</time>
      </trkpt>
      <trkpt lat="49.42279" lon="0.22178">
        <ele>94.6</ele>
        <time>2022-05-31T10:56:40Z</time>
      </trkpt>
      <trkpt lat="49.42278" lon="0.22177">
        <ele>94.6</ele>
        <time>2022-05-31T10:56:41Z</time>
      </trkpt>
      <trkpt lat="49.42279" lon="0.22177">
        <ele>94.6</ele>
        <time>2022-05-31T10:56:42Z</time>
      </trkpt>
      <trkpt lat="49.42279" lon="0.22177">
        <ele>94.6</ele>
        <time>2022-05-31T10:56:43Z</time>
      </trkpt>
      <trkpt lat="49.42279" lon="0.22177">
        <ele>94.6</ele>
        <time>2022-05-31T10:56:44Z</time>
      </trkpt>
      <trkpt lat="49.42279" lon="0.22177">
        <ele>94.6</ele>
        <time>2022-05-31T10:56:46Z</time>
      </trkpt>
      <trkpt lat="49.42279" lon="0.22177">
        <ele>94.6</ele>
        <time>2022-05-31T10:56:47Z</time>
      </trkpt>
      <trkpt lat="49.42279" lon="0.22177">
        <ele>94.6</ele>
        <time>2022-05-31T10:56:48Z</time>
      </trkpt>
      <trkpt lat="49.42278" lon="0.22177">
        <ele>94.6</ele>
        <time>2022-05-31T10:56:49Z</time>
      </trkpt>
      <trkpt lat="49.42278" lon="0.22177">
        <ele>94.6</ele>
        <time>2022-05-31T10:56:50Z</time>
      </trkpt>
      <trkpt lat="49.42278" lon="0.22177">
        <ele>94.6</ele>
        <time>2022-05-31T10:56:51Z</time>
      </trkpt>
      <trkpt lat="49.42278" lon="0.22177">
        <ele>94.6</ele>
        <time>2022-05-31T10:56:52Z</time>
      </trkpt>
      <trkpt lat="49.42278" lon="0.22177">
        <ele>94.6</ele>
        <time>2022-05-31T10:56:53Z</time>
      </trkpt>
      <trkpt lat="49.42278" lon="0.22177">
        <ele>94.6</ele>
        <time>2022-05-31T10:56:54Z</time>
      </trkpt>
      <trkpt lat="49.42278" lon="0.22177">
        <ele>94.6</ele>
        <time>2022-05-31T10:56:55Z</time>
      </trkpt>
      <trkpt lat="49.42278" lon="0.22177">
        <ele>94.6</ele>
        <time>2022-05-31T10:56:56Z</time>
      </trkpt>
      <trkpt lat="49.42278" lon="0.22177">
        <ele>94.6</ele>
        <time>2022-05-31T10:56:57Z</time>
      </trkpt>
      <trkpt lat="49.42278" lon="0.22177">
        <ele>94.6</ele>
        <time>2022-05-31T10:56:58Z</time>
      </trkpt>
      <trkpt lat="49.42278" lon="0.22177">
        <ele>94.6</ele>
        <time>2022-05-31T10:56:59Z</time>
      </trkpt>
      <trkpt lat="49.42278" lon="0.22177">
        <ele>94.6</ele>
        <time>2022-05-31T10:57:00Z</time>
      </trkpt>
      <trkpt lat="49.42278" lon="0.22177">
        <ele>94.6</ele>
        <time>2022-05-31T10:57:01Z</time>
      </trkpt>
      <trkpt lat="49.42278" lon="0.22177">
        <ele>94.6</ele>
        <time>2022-05-31T10:57:02Z</time>
      </trkpt>
      <trkpt lat="49.42278" lon="0.22177">
        <ele>94.6</ele>
        <time>2022-05-31T10:57:03Z</time>
      </trkpt>
      <trkpt lat="49.42278" lon="0.22177">
        <ele>94.6</ele>
        <time>2022-05-31T10:57:04Z</time>
      </trkpt>
      <trkpt lat="49.42278" lon="0.22177">
        <ele>94.6</ele>
        <time>2022-05-31T10:57:05Z</time>
      </trkpt>
      <trkpt lat="49.42278" lon="0.22177">
        <ele>94.6</ele>
        <time>2022-05-31T10:57:06Z</time>
      </trkpt>
      <trkpt lat="49.42278" lon="0.22177">
        <ele>94.6</ele>
        <time>2022-05-31T10:57:07Z</time>
      </trkpt>
      <trkpt lat="49.42278" lon="0.22177">
        <ele>94.6</ele>
        <time>2022-05-31T10:57:08Z</time>
      </trkpt>
      <trkpt lat="49.42278" lon="0.22177">
        <ele>94.6</ele>
        <time>2022-05-31T10:57:09Z</time>
      </trkpt>
      <trkpt lat="49.42278" lon="0.22177">
        <ele>94.6</ele>
        <time>2022-05-31T10:57:10Z</time>
      </trkpt>
      <trkpt lat="49.42278" lon="0.22177">
        <ele>94.6</ele>
        <time>2022-05-31T10:57:11Z</time>
      </trkpt>
      <trkpt lat="49.42278" lon="0.22177">
        <ele>94.6</ele>
        <time>2022-05-31T10:57:12Z</time>
      </trkpt>
      <trkpt lat="49.42278" lon="0.22177">
        <ele>94.6</ele>
        <time>2022-05-31T10:57:13Z</time>
      </trkpt>
      <trkpt lat="49.42278" lon="0.22177">
        <ele>94.6</ele>
        <time>2022-05-31T10:57:14Z</time>
      </trkpt>
      <trkpt lat="49.42278" lon="0.22177">
        <ele>94.6</ele>
        <time>2022-05-31T10:57:15Z</time>
      </trkpt>
      <trkpt lat="49.42279" lon="0.22176">
        <ele>94.6</ele>
        <time>2022-05-31T10:57:16Z</time>
      </trkpt>
      <trkpt lat="49.42281" lon="0.22176">
        <ele>94.6</ele>
        <time>2022-05-31T10:57:17Z</time>
      </trkpt>
      <trkpt lat="49.42279" lon="0.22176">
        <ele>94.6</ele>
        <time>2022-05-31T10:57:18Z</time>
      </trkpt>
      <trkpt lat="49.42279" lon="0.22176">
        <ele>94.6</ele>
        <time>2022-05-31T10:57:19Z</time>
      </trkpt>
      <trkpt lat="49.42279" lon="0.22176">
        <ele>94.6</ele>
        <time>2022-05-31T10:57:21Z</time>
      </trkpt>
      <trkpt lat="49.42279" lon="0.22176">
        <ele>94.6</ele>
        <time>2022-05-31T10:57:22Z</time>
      </trkpt>
      <trkpt lat="49.42279" lon="0.22175">
        <ele>94.6</ele>
        <time>2022-05-31T10:57:23Z</time>
      </trkpt>
      <trkpt lat="49.4228" lon="0.22175">
        <ele>94.6</ele>
        <time>2022-05-31T10:57:25Z</time>
      </trkpt>
      <trkpt lat="49.4228" lon="0.22175">
        <ele>94.6</ele>
        <time>2022-05-31T10:57:26Z</time>
      </trkpt>
      <trkpt lat="49.42279" lon="0.22175">
        <ele>94.6</ele>
        <time>2022-05-31T10:57:27Z</time>
      </trkpt>
      <trkpt lat="49.42279" lon="0.22174">
        <ele>94.6</ele>
        <time>2022-05-31T10:57:28Z</time>
      </trkpt>
      <trkpt lat="49.42279" lon="0.22173">
        <ele>94.6</ele>
        <time>2022-05-31T10:57:29Z</time>
      </trkpt>
      <trkpt lat="49.42279" lon="0.22173">
        <ele>94.6</ele>
        <time>2022-05-31T10:57:30Z</time>
      </trkpt>
      <trkpt lat="49.4228" lon="0.22173">
        <ele>94.6</ele>
        <time>2022-05-31T10:57:31Z</time>
      </trkpt>
      <trkpt lat="49.42282" lon="0.22175">
        <ele>94.7</ele>
        <time>2022-05-31T10:57:33Z</time>
      </trkpt>
      <trkpt lat="49.42282" lon="0.22176">
        <ele>94.7</ele>
        <time>2022-05-31T10:57:35Z</time>
      </trkpt>
      <trkpt lat="49.42282" lon="0.22176">
        <ele>94.7</ele>
        <time>2022-05-31T10:57:37Z</time>
      </trkpt>
      <trkpt lat="49.42285" lon="0.22174">
        <ele>94.7</ele>
        <time>2022-05-31T10:57:38Z</time>
      </trkpt>
      <trkpt lat="49.42286" lon="0.22173">
        <ele>94.7</ele>
        <time>2022-05-31T10:57:39Z</time>
      </trkpt>
      <trkpt lat="49.42286" lon="0.22173">
        <ele>94.7</ele>
        <time>2022-05-31T10:57:40Z</time>
      </trkpt>
      <trkpt lat="49.42287" lon="0.22172">
        <ele>94.7</ele>
        <time>2022-05-31T10:57:41Z</time>
      </trkpt>
      <trkpt lat="49.42288" lon="0.22171">
        <ele>94.7</ele>
        <time>2022-05-31T10:57:42Z</time>
      </trkpt>
      <trkpt lat="49.42288" lon="0.2217">
        <ele>94.7</ele>
        <time>2022-05-31T10:57:43Z</time>
      </trkpt>
      <trkpt lat="49.42289" lon="0.2217">
        <ele>94.7</ele>
        <time>2022-05-31T10:57:44Z</time>
      </trkpt>
      <trkpt lat="49.42289" lon="0.2217">
        <ele>94.7</ele>
        <time>2022-05-31T10:57:45Z</time>
      </trkpt>
      <trkpt lat="49.42289" lon="0.22169">
        <ele>94.7</ele>
        <time>2022-05-31T10:57:46Z</time>
      </trkpt>
      <trkpt lat="49.4229" lon="0.22169">
        <ele>94.7</ele>
        <time>2022-05-31T10:57:47Z</time>
      </trkpt>
      <trkpt lat="49.4229" lon="0.22169">
        <ele>94.7</ele>
        <time>2022-05-31T10:57:48Z</time>
      </trkpt>
      <trkpt lat="49.4229" lon="0.22169">
        <ele>94.7</ele>
        <time>2022-05-31T10:57:49Z</time>
      </trkpt>
      <trkpt lat="49.4229" lon="0.22169">
        <ele>94.7</ele>
        <time>2022-05-31T10:57:50Z</time>
      </trkpt>
      <trkpt lat="49.4229" lon="0.22168">
        <ele>94.7</ele>
        <time>2022-05-31T10:57:52Z</time>
      </trkpt>
      <trkpt lat="49.4229" lon="0.22168">
        <ele>94.7</ele>
        <time>2022-05-31T10:57:53Z</time>
      </trkpt>
      <trkpt lat="49.42291" lon="0.22168">
        <ele>94.7</ele>
        <time>2022-05-31T10:57:54Z</time>
      </trkpt>
      <trkpt lat="49.42291" lon="0.22167">
        <ele>94.7</ele>
        <time>2022-05-31T10:57:55Z</time>
      </trkpt>
      <trkpt lat="49.42291" lon="0.22167">
        <ele>94.7</ele>
        <time>2022-05-31T10:57:56Z</time>
      </trkpt>
      <trkpt lat="49.42291" lon="0.22167">
        <ele>94.7</ele>
        <time>2022-05-31T10:57:57Z</time>
      </trkpt>
      <trkpt lat="49.42291" lon="0.22166">
        <ele>94.7</ele>
        <time>2022-05-31T10:57:59Z</time>
      </trkpt>
      <trkpt lat="49.42291" lon="0.22167">
        <ele>94.7</ele>
        <time>2022-05-31T10:58:00Z</time>
      </trkpt>
      <trkpt lat="49.42292" lon="0.22167">
        <ele>94.7</ele>
        <time>2022-05-31T10:58:01Z</time>
      </trkpt>
      <trkpt lat="49.42292" lon="0.22167">
        <ele>94.8</ele>
        <time>2022-05-31T10:58:02Z</time>
      </trkpt>
      <trkpt lat="49.42293" lon="0.22166">
        <ele>94.8</ele>
        <time>2022-05-31T10:58:04Z</time>
      </trkpt>
      <trkpt lat="49.42294" lon="0.22165">
        <ele>94.8</ele>
        <time>2022-05-31T10:58:05Z</time>
      </trkpt>
      <trkpt lat="49.42294" lon="0.22163">
        <ele>94.8</ele>
        <time>2022-05-31T10:58:06Z</time>
      </trkpt>
      <trkpt lat="49.42295" lon="0.22162">
        <ele>94.8</ele>
        <time>2022-05-31T10:58:07Z</time>
      </trkpt>
      <trkpt lat="49.42295" lon="0.22159">
        <ele>94.8</ele>
        <time>2022-05-31T10:58:08Z</time>
      </trkpt>
      <trkpt lat="49.42295" lon="0.22158">
        <ele>94.8</ele>
        <time>2022-05-31T10:58:09Z</time>
      </trkpt>
      <trkpt lat="49.42296" lon="0.22156">
        <ele>94.8</ele>
        <time>2022-05-31T10:58:10Z</time>
      </trkpt>
      <trkpt lat="49.42297" lon="0.22155">
        <ele>94.8</ele>
        <time>2022-05-31T10:58:11Z</time>
      </trkpt>
      <trkpt lat="49.42297" lon="0.22154">
        <ele>94.8</ele>
        <time>2022-05-31T10:58:13Z</time>
      </trkpt>
      <trkpt lat="49.42298" lon="0.22152">
        <ele>94.8</ele>
        <time>2022-05-31T10:58:14Z</time>
      </trkpt>
      <trkpt lat="49.42299" lon="0.22151">
        <ele>94.8</ele>
        <time>2022-05-31T10:58:16Z</time>
      </trkpt>
      <trkpt lat="49.42299" lon="0.2215">
        <ele>94.8</ele>
        <time>2022-05-31T10:58:17Z</time>
      </trkpt>
      <trkpt lat="49.42299" lon="0.2215">
        <ele>94.8</ele>
        <time>2022-05-31T10:58:18Z</time>
      </trkpt>
      <trkpt lat="49.423" lon="0.22149">
        <ele>94.8</ele>
        <time>2022-05-31T10:58:19Z</time>
      </trkpt>
      <trkpt lat="49.423" lon="0.22149">
        <ele>94.8</ele>
        <time>2022-05-31T10:58:20Z</time>
      </trkpt>
      <trkpt lat="49.423" lon="0.22149">
        <ele>94.8</ele>
        <time>2022-05-31T10:58:21Z</time>
      </trkpt>
      <trkpt lat="49.42299" lon="0.22148">
        <ele>94.8</ele>
        <time>2022-05-31T10:58:22Z</time>
      </trkpt>
      <trkpt lat="49.423" lon="0.22148">
        <ele>94.8</ele>
        <time>2022-05-31T10:58:24Z</time>
      </trkpt>
      <trkpt lat="49.423" lon="0.22148">
        <ele>94.8</ele>
        <time>2022-05-31T10:58:25Z</time>
      </trkpt>
      <trkpt lat="49.423" lon="0.22147">
        <ele>94.9</ele>
        <time>2022-05-31T10:58:26Z</time>
      </trkpt>
      <trkpt lat="49.42299" lon="0.22146">
        <ele>94.9</ele>
        <time>2022-05-31T10:58:27Z</time>
      </trkpt>
      <trkpt lat="49.42299" lon="0.22145">
        <ele>94.9</ele>
        <time>2022-05-31T10:58:28Z</time>
      </trkpt>
      <trkpt lat="49.42299" lon="0.22145">
        <ele>94.9</ele>
        <time>2022-05-31T10:58:29Z</time>
      </trkpt>
      <trkpt lat="49.42299" lon="0.22144">
        <ele>94.9</ele>
        <time>2022-05-31T10:58:31Z</time>
      </trkpt>
      <trkpt lat="49.423" lon="0.22144">
        <ele>94.9</ele>
        <time>2022-05-31T10:58:32Z</time>
      </trkpt>
      <trkpt lat="49.423" lon="0.22143">
        <ele>94.9</ele>
        <time>2022-05-31T10:58:33Z</time>
      </trkpt>
      <trkpt lat="49.423" lon="0.22143">
        <ele>94.9</ele>
        <time>2022-05-31T10:58:34Z</time>
      </trkpt>
      <trkpt lat="49.423" lon="0.22142">
        <ele>94.9</ele>
        <time>2022-05-31T10:58:35Z</time>
      </trkpt>
      <trkpt lat="49.423" lon="0.22142">
        <ele>94.9</ele>
        <time>2022-05-31T10:58:36Z</time>
      </trkpt>
      <trkpt lat="49.42301" lon="0.22141">
        <ele>94.9</ele>
        <time>2022-05-31T10:58:38Z</time>
      </trkpt>
      <trkpt lat="49.42301" lon="0.22141">
        <ele>94.9</ele>
        <time>2022-05-31T10:58:39Z</time>
      </trkpt>
      <trkpt lat="49.42301" lon="0.22141">
        <ele>94.9</ele>
        <time>2022-05-31T10:58:40Z</time>
      </trkpt>
      <trkpt lat="49.42302" lon="0.22135">
        <ele>94.9</ele>
        <time>2022-05-31T10:58:42Z</time>
      </trkpt>
      <trkpt lat="49.42301" lon="0.2213">
        <ele>94.9</ele>
        <time>2022-05-31T10:58:43Z</time>
      </trkpt>
      <trkpt lat="49.423" lon="0.22129">
        <ele>94.9</ele>
        <time>2022-05-31T10:58:44Z</time>
      </trkpt>
      <trkpt lat="49.423" lon="0.22125">
        <ele>95</ele>
        <time>2022-05-31T10:58:45Z</time>
      </trkpt>
      <trkpt lat="49.423" lon="0.22121">
        <ele>95</ele>
        <time>2022-05-31T10:58:47Z</time>
      </trkpt>
      <trkpt lat="49.42299" lon="0.2212">
        <ele>95</ele>
        <time>2022-05-31T10:58:48Z</time>
      </trkpt>
      <trkpt lat="49.42299" lon="0.22118">
        <ele>95</ele>
        <time>2022-05-31T10:58:49Z</time>
      </trkpt>
      <trkpt lat="49.42299" lon="0.22117">
        <ele>95</ele>
        <time>2022-05-31T10:58:50Z</time>
      </trkpt>
      <trkpt lat="49.42298" lon="0.22113">
        <ele>95</ele>
        <time>2022-05-31T10:58:51Z</time>
      </trkpt>
      <trkpt lat="49.42298" lon="0.22112">
        <ele>95</ele>
        <time>2022-05-31T10:58:52Z</time>
      </trkpt>
      <trkpt lat="49.42298" lon="0.22111">
        <ele>95</ele>
        <time>2022-05-31T10:58:53Z</time>
      </trkpt>
      <trkpt lat="49.42298" lon="0.22108">
        <ele>95</ele>
        <time>2022-05-31T10:58:55Z</time>
      </trkpt>
      <trkpt lat="49.42298" lon="0.22107">
        <ele>95</ele>
        <time>2022-05-31T10:58:56Z</time>
      </trkpt>
      <trkpt lat="49.42298" lon="0.22105">
        <ele>95.1</ele>
        <time>2022-05-31T10:58:57Z</time>
      </trkpt>
      <trkpt lat="49.42298" lon="0.22104">
        <ele>95.1</ele>
        <time>2022-05-31T10:58:58Z</time>
      </trkpt>
      <trkpt lat="49.42298" lon="0.22103">
        <ele>95.1</ele>
        <time>2022-05-31T10:58:59Z</time>
      </trkpt>
      <trkpt lat="49.42299" lon="0.22102">
        <ele>95.1</ele>
        <time>2022-05-31T10:59:00Z</time>
      </trkpt>
      <trkpt lat="49.423" lon="0.22102">
        <ele>95.1</ele>
        <time>2022-05-31T10:59:02Z</time>
      </trkpt>
      <trkpt lat="49.42301" lon="0.22102">
        <ele>95.1</ele>
        <time>2022-05-31T10:59:03Z</time>
      </trkpt>
      <trkpt lat="49.42301" lon="0.22102">
        <ele>95.1</ele>
        <time>2022-05-31T10:59:04Z</time>
      </trkpt>
      <trkpt lat="49.42301" lon="0.22101">
        <ele>95.1</ele>
        <time>2022-05-31T10:59:05Z</time>
      </trkpt>
      <trkpt lat="49.42301" lon="0.221">
        <ele>95.1</ele>
        <time>2022-05-31T10:59:07Z</time>
      </trkpt>
      <trkpt lat="49.42301" lon="0.22099">
        <ele>95.1</ele>
        <time>2022-05-31T10:59:08Z</time>
      </trkpt>
      <trkpt lat="49.42302" lon="0.22098">
        <ele>95.1</ele>
        <time>2022-05-31T10:59:09Z</time>
      </trkpt>
      <trkpt lat="49.42302" lon="0.22097">
        <ele>95.1</ele>
        <time>2022-05-31T10:59:10Z</time>
      </trkpt>
      <trkpt lat="49.42303" lon="0.22096">
        <ele>95.1</ele>
        <time>2022-05-31T10:59:11Z</time>
      </trkpt>
      <trkpt lat="49.42304" lon="0.22099">
        <ele>95.1</ele>
        <time>2022-05-31T10:59:12Z</time>
      </trkpt>
      <trkpt lat="49.42303" lon="0.22098">
        <ele>95.1</ele>
        <time>2022-05-31T10:59:13Z</time>
      </trkpt>
      <trkpt lat="49.42302" lon="0.22096">
        <ele>95.1</ele>
        <time>2022-05-31T10:59:14Z</time>
      </trkpt>
      <trkpt lat="49.42302" lon="0.22096">
        <ele>95.1</ele>
        <time>2022-05-31T10:59:15Z</time>
      </trkpt>
      <trkpt lat="49.42302" lon="0.22095">
        <ele>95.2</ele>
        <time>2022-05-31T10:59:16Z</time>
      </trkpt>
      <trkpt lat="49.42301" lon="0.22094">
        <ele>95.2</ele>
        <time>2022-05-31T10:59:17Z</time>
      </trkpt>
      <trkpt lat="49.42301" lon="0.22093">
        <ele>95.2</ele>
        <time>2022-05-31T10:59:18Z</time>
      </trkpt>
      <trkpt lat="49.42301" lon="0.22093">
        <ele>95.2</ele>
        <time>2022-05-31T10:59:19Z</time>
      </trkpt>
      <trkpt lat="49.42301" lon="0.22092">
        <ele>95.2</ele>
        <time>2022-05-31T10:59:20Z</time>
      </trkpt>
      <trkpt lat="49.42301" lon="0.22092">
        <ele>95.2</ele>
        <time>2022-05-31T10:59:21Z</time>
      </trkpt>
      <trkpt lat="49.42301" lon="0.22092">
        <ele>95.2</ele>
        <time>2022-05-31T10:59:22Z</time>
      </trkpt>
      <trkpt lat="49.42301" lon="0.22092">
        <ele>95.2</ele>
        <time>2022-05-31T10:59:23Z</time>
      </trkpt>
      <trkpt lat="49.42301" lon="0.22091">
        <ele>95.2</ele>
        <time>2022-05-31T10:59:24Z</time>
      </trkpt>
      <trkpt lat="49.42301" lon="0.22091">
        <ele>95.2</ele>
        <time>2022-05-31T10:59:26Z</time>
      </trkpt>
      <trkpt lat="49.42301" lon="0.22089">
        <ele>95.2</ele>
        <time>2022-05-31T10:59:27Z</time>
      </trkpt>
      <trkpt lat="49.42301" lon="0.22086">
        <ele>95.2</ele>
        <time>2022-05-31T10:59:28Z</time>
      </trkpt>
      <trkpt lat="49.42301" lon="0.22084">
        <ele>95.2</ele>
        <time>2022-05-31T10:59:29Z</time>
      </trkpt>
      <trkpt lat="49.42302" lon="0.22082">
        <ele>95.2</ele>
        <time>2022-05-31T10:59:31Z</time>
      </trkpt>
      <trkpt lat="49.42303" lon="0.2208">
        <ele>95.2</ele>
        <time>2022-05-31T10:59:32Z</time>
      </trkpt>
      <trkpt lat="49.42303" lon="0.22077">
        <ele>95.2</ele>
        <time>2022-05-31T10:59:33Z</time>
      </trkpt>
      <trkpt lat="49.42304" lon="0.22075">
        <ele>95.2</ele>
        <time>2022-05-31T10:59:34Z</time>
      </trkpt>
      <trkpt lat="49.42304" lon="0.22071">
        <ele>95.2</ele>
        <time>2022-05-31T10:59:36Z</time>
      </trkpt>
      <trkpt lat="49.42304" lon="0.22069">
        <ele>95.2</ele>
        <time>2022-05-31T10:59:37Z</time>
      </trkpt>
      <trkpt lat="49.42303" lon="0.22067">
        <ele>95.2</ele>
        <time>2022-05-31T10:59:38Z</time>
      </trkpt>
      <trkpt lat="49.42304" lon="0.22065">
        <ele>95.2</ele>
        <time>2022-05-31T10:59:40Z</time>
      </trkpt>
      <trkpt lat="49.42304" lon="0.22063">
        <ele>95.2</ele>
        <time>2022-05-31T10:59:41Z</time>
      </trkpt>
      <trkpt lat="49.42306" lon="0.22062">
        <ele>95.2</ele>
        <time>2022-05-31T10:59:43Z</time>
      </trkpt>
      <trkpt lat="49.42306" lon="0.22063">
        <ele>95.2</ele>
        <time>2022-05-31T10:59:44Z</time>
      </trkpt>
      <trkpt lat="49.42306" lon="0.22064">
        <ele>95.2</ele>
        <time>2022-05-31T10:59:45Z</time>
      </trkpt>
      <trkpt lat="49.42306" lon="0.22065">
        <ele>95.2</ele>
        <time>2022-05-31T10:59:46Z</time>
      </trkpt>
      <trkpt lat="49.42305" lon="0.22065">
        <ele>95.2</ele>
        <time>2022-05-31T10:59:48Z</time>
      </trkpt>
      <trkpt lat="49.42305" lon="0.22065">
        <ele>95.2</ele>
        <time>2022-05-31T10:59:49Z</time>
      </trkpt>
      <trkpt lat="49.42305" lon="0.22065">
        <ele>95.2</ele>
        <time>2022-05-31T10:59:50Z</time>
      </trkpt>
      <trkpt lat="49.42305" lon="0.22065">
        <ele>95.2</ele>
        <time>2022-05-31T10:59:51Z</time>
      </trkpt>
      <trkpt lat="49.42305" lon="0.22065">
        <ele>95.2</ele>
        <time>2022-05-31T10:59:52Z</time>
      </trkpt>
      <trkpt lat="49.42305" lon="0.22065">
        <ele>95.2</ele>
        <time>2022-05-31T10:59:53Z</time>
      </trkpt>
      <trkpt lat="49.42305" lon="0.22065">
        <ele>95.2</ele>
        <time>2022-05-31T10:59:54Z</time>
      </trkpt>
      <trkpt lat="49.42305" lon="0.22065">
        <ele>95.2</ele>
        <time>2022-05-31T10:59:55Z</time>
      </trkpt>
      <trkpt lat="49.42305" lon="0.22065">
        <ele>95.2</ele>
        <time>2022-05-31T10:59:56Z</time>
      </trkpt>
      <trkpt lat="49.42305" lon="0.22065">
        <ele>95.2</ele>
        <time>2022-05-31T10:59:57Z</time>
      </trkpt>
      <trkpt lat="49.42305" lon="0.22065">
        <ele>95.2</ele>
        <time>2022-05-31T10:59:58Z</time>
      </trkpt>
      <trkpt lat="49.42305" lon="0.22065">
        <ele>95.2</ele>
        <time>2022-05-31T10:59:59Z</time>
      </trkpt>
      <trkpt lat="49.42305" lon="0.22065">
        <ele>95.2</ele>
        <time>2022-05-31T11:00:00Z</time>
      </trkpt>
      <trkpt lat="49.42305" lon="0.22066">
        <ele>95.2</ele>
        <time>2022-05-31T11:00:01Z</time>
      </trkpt>
      <trkpt lat="49.42306" lon="0.22066">
        <ele>95.2</ele>
        <time>2022-05-31T11:00:02Z</time>
      </trkpt>
      <trkpt lat="49.42305" lon="0.22064">
        <ele>95.2</ele>
        <time>2022-05-31T11:00:03Z</time>
      </trkpt>
      <trkpt lat="49.42305" lon="0.22063">
        <ele>95.2</ele>
        <time>2022-05-31T11:00:04Z</time>
      </trkpt>
      <trkpt lat="49.42305" lon="0.22063">
        <ele>95.2</ele>
        <time>2022-05-31T11:00:05Z</time>
      </trkpt>
      <trkpt lat="49.42305" lon="0.22063">
        <ele>95.2</ele>
        <time>2022-05-31T11:00:06Z</time>
      </trkpt>
      <trkpt lat="49.42305" lon="0.22063">
        <ele>95.2</ele>
        <time>2022-05-31T11:00:07Z</time>
      </trkpt>
      <trkpt lat="49.42305" lon="0.22064">
        <ele>95.2</ele>
        <time>2022-05-31T11:00:09Z</time>
      </trkpt>
      <trkpt lat="49.42306" lon="0.22063">
        <ele>95.2</ele>
        <time>2022-05-31T11:00:10Z</time>
      </trkpt>
      <trkpt lat="49.42307" lon="0.22061">
        <ele>95.2</ele>
        <time>2022-05-31T11:00:12Z</time>
      </trkpt>
      <trkpt lat="49.42307" lon="0.2206">
        <ele>95.2</ele>
        <time>2022-05-31T11:00:13Z</time>
      </trkpt>
      <trkpt lat="49.42307" lon="0.22059">
        <ele>95.2</ele>
        <time>2022-05-31T11:00:14Z</time>
      </trkpt>
      <trkpt lat="49.42307" lon="0.22058">
        <ele>95.2</ele>
        <time>2022-05-31T11:00:15Z</time>
      </trkpt>
      <trkpt lat="49.42308" lon="0.22057">
        <ele>95.2</ele>
        <time>2022-05-31T11:00:17Z</time>
      </trkpt>
      <trkpt lat="49.42308" lon="0.22056">
        <ele>95.2</ele>
        <time>2022-05-31T11:00:18Z</time>
      </trkpt>
      <trkpt lat="49.42309" lon="0.22055">
        <ele>95.2</ele>
        <time>2022-05-31T11:00:19Z</time>
      </trkpt>
      <trkpt lat="49.42309" lon="0.22054">
        <ele>95.2</ele>
        <time>2022-05-31T11:00:20Z</time>
      </trkpt>
      <trkpt lat="49.42309" lon="0.22054">
        <ele>95.2</ele>
        <time>2022-05-31T11:00:21Z</time>
      </trkpt>
      <trkpt lat="49.42309" lon="0.22055">
        <ele>95.2</ele>
        <time>2022-05-31T11:00:22Z</time>
      </trkpt>
      <trkpt lat="49.42308" lon="0.22056">
        <ele>95.2</ele>
        <time>2022-05-31T11:00:23Z</time>
      </trkpt>
      <trkpt lat="49.42308" lon="0.22056">
        <ele>95.2</ele>
        <time>2022-05-31T11:00:24Z</time>
      </trkpt>
      <trkpt lat="49.42308" lon="0.22057">
        <ele>95.2</ele>
        <time>2022-05-31T11:00:25Z</time>
      </trkpt>
      <trkpt lat="49.42308" lon="0.22057">
        <ele>95.2</ele>
        <time>2022-05-31T11:00:26Z</time>
      </trkpt>
      <trkpt lat="49.42308" lon="0.22057">
        <ele>95.2</ele>
        <time>2022-05-31T11:00:27Z</time>
      </trkpt>
      <trkpt lat="49.42308" lon="0.22057">
        <ele>95.2</ele>
        <time>2022-05-31T11:00:28Z</time>
      </trkpt>
      <trkpt lat="49.42308" lon="0.22057">
        <ele>95.2</ele>
        <time>2022-05-31T11:00:29Z</time>
      </trkpt>
      <trkpt lat="49.42307" lon="0.22057">
        <ele>95.2</ele>
        <time>2022-05-31T11:00:30Z</time>
      </trkpt>
      <trkpt lat="49.42307" lon="0.22057">
        <ele>95.2</ele>
        <time>2022-05-31T11:00:31Z</time>
      </trkpt>
      <trkpt lat="49.42307" lon="0.22058">
        <ele>95.2</ele>
        <time>2022-05-31T11:00:32Z</time>
      </trkpt>
      <trkpt lat="49.42307" lon="0.22058">
        <ele>95.2</ele>
        <time>2022-05-31T11:00:33Z</time>
      </trkpt>
      <trkpt lat="49.42307" lon="0.22058">
        <ele>95.2</ele>
        <time>2022-05-31T11:00:34Z</time>
      </trkpt>
      <trkpt lat="49.42306" lon="0.22058">
        <ele>95.2</ele>
        <time>2022-05-31T11:00:35Z</time>
      </trkpt>
      <trkpt lat="49.42306" lon="0.22058">
        <ele>95.2</ele>
        <time>2022-05-31T11:00:36Z</time>
      </trkpt>
      <trkpt lat="49.42306" lon="0.22058">
        <ele>95.2</ele>
        <time>2022-05-31T11:00:37Z</time>
      </trkpt>
      <trkpt lat="49.42306" lon="0.22058">
        <ele>95.2</ele>
        <time>2022-05-31T11:00:38Z</time>
      </trkpt>
      <trkpt lat="49.42306" lon="0.22058">
        <ele>95.2</ele>
        <time>2022-05-31T11:00:39Z</time>
      </trkpt>
      <trkpt lat="49.42306" lon="0.22058">
        <ele>95.2</ele>
        <time>2022-05-31T11:00:40Z</time>
      </trkpt>
      <trkpt lat="49.42306" lon="0.22058">
        <ele>95.2</ele>
        <time>2022-05-31T11:00:41Z</time>
      </trkpt>
      <trkpt lat="49.42306" lon="0.22058">
        <ele>95.2</ele>
        <time>2022-05-31T11:00:42Z</time>
      </trkpt>
      <trkpt lat="49.42306" lon="0.22058">
        <ele>95.2</ele>
        <time>2022-05-31T11:00:43Z</time>
      </trkpt>
      <trkpt lat="49.42306" lon="0.22058">
        <ele>95.2</ele>
        <time>2022-05-31T11:00:44Z</time>
      </trkpt>
      <trkpt lat="49.42306" lon="0.22058">
        <ele>95.2</ele>
        <time>2022-05-31T11:00:45Z</time>
      </trkpt>
      <trkpt lat="49.42306" lon="0.22058">
        <ele>95.2</ele>
        <time>2022-05-31T11:00:46Z</time>
      </trkpt>
      <trkpt lat="49.42306" lon="0.22058">
        <ele>95.2</ele>
        <time>2022-05-31T11:00:47Z</time>
      </trkpt>
      <trkpt lat="49.42306" lon="0.22058">
        <ele>95.2</ele>
        <time>2022-05-31T11:00:48Z</time>
      </trkpt>
      <trkpt lat="49.42306" lon="0.22058">
        <ele>95.2</ele>
        <time>2022-05-31T11:00:49Z</time>
      </trkpt>
      <trkpt lat="49.42306" lon="0.22058">
        <ele>95.2</ele>
        <time>2022-05-31T11:00:50Z</time>
      </trkpt>
      <trkpt lat="49.42306" lon="0.22058">
        <ele>95.2</ele>
        <time>2022-05-31T11:00:51Z</time>
      </trkpt>
      <trkpt lat="49.42306" lon="0.22058">
        <ele>95.2</ele>
        <time>2022-05-31T11:00:52Z</time>
      </trkpt>
      <trkpt lat="49.42306" lon="0.22058">
        <ele>95.2</ele>
        <time>2022-05-31T11:00:53Z</time>
      </trkpt>
      <trkpt lat="49.42306" lon="0.22058">
        <ele>95.2</ele>
        <time>2022-05-31T11:00:54Z</time>
      </trkpt>
      <trkpt lat="49.42306" lon="0.22058">
        <ele>95.2</ele>
        <time>2022-05-31T11:00:55Z</time>
      </trkpt>
      <trkpt lat="49.42306" lon="0.22058">
        <ele>95.2</ele>
        <time>2022-05-31T11:00:56Z</time>
      </trkpt>
      <trkpt lat="49.42306" lon="0.22058">
        <ele>95.2</ele>
        <time>2022-05-31T11:00:57Z</time>
      </trkpt>
      <trkpt lat="49.42306" lon="0.22058">
        <ele>95.2</ele>
        <time>2022-05-31T11:00:58Z</time>
      </trkpt>
      <trkpt lat="49.42306" lon="0.22058">
        <ele>95.2</ele>
        <time>2022-05-31T11:00:59Z</time>
      </trkpt>
      <trkpt lat="49.42306" lon="0.22058">
        <ele>95.2</ele>
        <time>2022-05-31T11:01:00Z</time>
      </trkpt>
      <trkpt lat="49.42306" lon="0.22058">
        <ele>95.2</ele>
        <time>2022-05-31T11:01:01Z</time>
      </trkpt>
      <trkpt lat="49.42306" lon="0.22058">
        <ele>95.2</ele>
        <time>2022-05-31T11:01:02Z</time>
      </trkpt>
      <trkpt lat="49.42306" lon="0.22058">
        <ele>95.2</ele>
        <time>2022-05-31T11:01:03Z</time>
      </trkpt>
      <trkpt lat="49.42306" lon="0.22058">
        <ele>95.2</ele>
        <time>2022-05-31T11:01:04Z</time>
      </trkpt>
      <trkpt lat="49.42306" lon="0.22058">
        <ele>95.2</ele>
        <time>2022-05-31T11:01:05Z</time>
      </trkpt>
      <trkpt lat="49.42306" lon="0.22058">
        <ele>95.2</ele>
        <time>2022-05-31T11:01:06Z</time>
      </trkpt>
      <trkpt lat="49.42307" lon="0.22057">
        <ele>95.2</ele>
        <time>2022-05-31T11:01:07Z</time>
      </trkpt>
      <trkpt lat="49.42307" lon="0.22057">
        <ele>95.2</ele>
        <time>2022-05-31T11:01:08Z</time>
      </trkpt>
      <trkpt lat="49.42307" lon="0.22057">
        <ele>95.2</ele>
        <time>2022-05-31T11:01:09Z</time>
      </trkpt>
      <trkpt lat="49.42307" lon="0.22057">
        <ele>95.2</ele>
        <time>2022-05-31T11:01:10Z</time>
      </trkpt>
      <trkpt lat="49.42307" lon="0.22057">
        <ele>95.2</ele>
        <time>2022-05-31T11:01:11Z</time>
      </trkpt>
      <trkpt lat="49.42306" lon="0.22057">
        <ele>95.2</ele>
        <time>2022-05-31T11:01:12Z</time>
      </trkpt>
      <trkpt lat="49.42306" lon="0.22057">
        <ele>95.2</ele>
        <time>2022-05-31T11:01:13Z</time>
      </trkpt>
      <trkpt lat="49.42306" lon="0.22057">
        <ele>95.2</ele>
        <time>2022-05-31T11:01:14Z</time>
      </trkpt>
      <trkpt lat="49.42306" lon="0.22057">
        <ele>95.2</ele>
        <time>2022-05-31T11:01:15Z</time>
      </trkpt>
      <trkpt lat="49.42306" lon="0.22057">
        <ele>95.2</ele>
        <time>2022-05-31T11:01:16Z</time>
      </trkpt>
      <trkpt lat="49.42305" lon="0.22057">
        <ele>95.2</ele>
        <time>2022-05-31T11:01:17Z</time>
      </trkpt>
      <trkpt lat="49.42305" lon="0.22057">
        <ele>95.2</ele>
        <time>2022-05-31T11:01:18Z</time>
      </trkpt>
      <trkpt lat="49.42304" lon="0.22057">
        <ele>95.2</ele>
        <time>2022-05-31T11:01:19Z</time>
      </trkpt>
      <trkpt lat="49.42303" lon="0.22059">
        <ele>95.2</ele>
        <time>2022-05-31T11:01:21Z</time>
      </trkpt>
      <trkpt lat="49.42303" lon="0.2206">
        <ele>95.2</ele>
        <time>2022-05-31T11:01:22Z</time>
      </trkpt>
      <trkpt lat="49.42302" lon="0.22061">
        <ele>95.2</ele>
        <time>2022-05-31T11:01:23Z</time>
      </trkpt>
      <trkpt lat="49.42302" lon="0.22064">
        <ele>95.2</ele>
        <time>2022-05-31T11:01:25Z</time>
      </trkpt>
      <trkpt lat="49.42302" lon="0.22065">
        <ele>95.2</ele>
        <time>2022-05-31T11:01:26Z</time>
      </trkpt>
      <trkpt lat="49.42302" lon="0.22066">
        <ele>95.2</ele>
        <time>2022-05-31T11:01:27Z</time>
      </trkpt>
      <trkpt lat="49.42302" lon="0.22066">
        <ele>95.2</ele>
        <time>2022-05-31T11:01:28Z</time>
      </trkpt>
      <trkpt lat="49.42302" lon="0.22064">
        <ele>95.2</ele>
        <time>2022-05-31T11:01:29Z</time>
      </trkpt>
      <trkpt lat="49.42303" lon="0.22064">
        <ele>95.2</ele>
        <time>2022-05-31T11:01:30Z</time>
      </trkpt>
      <trkpt lat="49.42303" lon="0.22063">
        <ele>95.2</ele>
        <time>2022-05-31T11:01:31Z</time>
      </trkpt>
      <trkpt lat="49.42303" lon="0.22063">
        <ele>95.2</ele>
        <time>2022-05-31T11:01:32Z</time>
      </trkpt>
      <trkpt lat="49.42303" lon="0.22063">
        <ele>95.2</ele>
        <time>2022-05-31T11:01:33Z</time>
      </trkpt>
      <trkpt lat="49.42303" lon="0.22063">
        <ele>95.2</ele>
        <time>2022-05-31T11:01:34Z</time>
      </trkpt>
      <trkpt lat="49.42303" lon="0.22063">
        <ele>95.2</ele>
        <time>2022-05-31T11:01:35Z</time>
      </trkpt>
      <trkpt lat="49.42304" lon="0.22063">
        <ele>95.2</ele>
        <time>2022-05-31T11:01:36Z</time>
      </trkpt>
      <trkpt lat="49.42304" lon="0.22063">
        <ele>95.2</ele>
        <time>2022-05-31T11:01:37Z</time>
      </trkpt>
      <trkpt lat="49.42304" lon="0.22063">
        <ele>95.2</ele>
        <time>2022-05-31T11:01:38Z</time>
      </trkpt>
      <trkpt lat="49.42304" lon="0.22062">
        <ele>95.2</ele>
        <time>2022-05-31T11:01:39Z</time>
      </trkpt>
      <trkpt lat="49.42304" lon="0.22063">
        <ele>95.2</ele>
        <time>2022-05-31T11:01:40Z</time>
      </trkpt>
      <trkpt lat="49.42304" lon="0.22063">
        <ele>95.2</ele>
        <time>2022-05-31T11:01:41Z</time>
      </trkpt>
      <trkpt lat="49.42304" lon="0.22063">
        <ele>95.2</ele>
        <time>2022-05-31T11:01:42Z</time>
      </trkpt>
      <trkpt lat="49.42304" lon="0.22063">
        <ele>95.2</ele>
        <time>2022-05-31T11:01:43Z</time>
      </trkpt>
      <trkpt lat="49.42304" lon="0.22063">
        <ele>95.2</ele>
        <time>2022-05-31T11:01:44Z</time>
      </trkpt>
      <trkpt lat="49.42304" lon="0.22062">
        <ele>95.2</ele>
        <time>2022-05-31T11:01:45Z</time>
      </trkpt>
      <trkpt lat="49.42305" lon="0.22061">
        <ele>95.2</ele>
        <time>2022-05-31T11:01:46Z</time>
      </trkpt>
      <trkpt lat="49.42305" lon="0.22061">
        <ele>95.2</ele>
        <time>2022-05-31T11:01:47Z</time>
      </trkpt>
      <trkpt lat="49.42305" lon="0.22062">
        <ele>95.2</ele>
        <time>2022-05-31T11:01:48Z</time>
      </trkpt>
      <trkpt lat="49.42304" lon="0.22062">
        <ele>95.2</ele>
        <time>2022-05-31T11:01:49Z</time>
      </trkpt>
      <trkpt lat="49.42303" lon="0.22063">
        <ele>95.2</ele>
        <time>2022-05-31T11:01:50Z</time>
      </trkpt>
      <trkpt lat="49.42303" lon="0.22063">
        <ele>95.2</ele>
        <time>2022-05-31T11:01:51Z</time>
      </trkpt>
      <trkpt lat="49.42303" lon="0.22063">
        <ele>95.2</ele>
        <time>2022-05-31T11:01:52Z</time>
      </trkpt>
      <trkpt lat="49.42303" lon="0.22063">
        <ele>95.2</ele>
        <time>2022-05-31T11:01:53Z</time>
      </trkpt>
      <trkpt lat="49.42303" lon="0.22063">
        <ele>95.2</ele>
        <time>2022-05-31T11:01:54Z</time>
      </trkpt>
      <trkpt lat="49.42303" lon="0.22063">
        <ele>95.2</ele>
        <time>2022-05-31T11:01:56Z</time>
      </trkpt>
      <trkpt lat="49.42303" lon="0.22063">
        <ele>95.2</ele>
        <time>2022-05-31T11:01:57Z</time>
      </trkpt>
      <trkpt lat="49.42303" lon="0.22063">
        <ele>95.2</ele>
        <time>2022-05-31T11:01:58Z</time>
      </trkpt>
      <trkpt lat="49.42303" lon="0.22063">
        <ele>95.2</ele>
        <time>2022-05-31T11:01:59Z</time>
      </trkpt>
      <trkpt lat="49.42303" lon="0.22063">
        <ele>95.2</ele>
        <time>2022-05-31T11:02:00Z</time>
      </trkpt>
      <trkpt lat="49.42303" lon="0.22064">
        <ele>95.2</ele>
        <time>2022-05-31T11:02:01Z</time>
      </trkpt>
      <trkpt lat="49.42303" lon="0.22065">
        <ele>95.2</ele>
        <time>2022-05-31T11:02:03Z</time>
      </trkpt>
      <trkpt lat="49.42302" lon="0.22067">
        <ele>95.2</ele>
        <time>2022-05-31T11:02:04Z</time>
      </trkpt>
      <trkpt lat="49.42301" lon="0.22069">
        <ele>95.2</ele>
        <time>2022-05-31T11:02:05Z</time>
      </trkpt>
      <trkpt lat="49.423" lon="0.22071">
        <ele>95.2</ele>
        <time>2022-05-31T11:02:07Z</time>
      </trkpt>
      <trkpt lat="49.42299" lon="0.22073">
        <ele>95.2</ele>
        <time>2022-05-31T11:02:08Z</time>
      </trkpt>
      <trkpt lat="49.42298" lon="0.22075">
        <ele>95.2</ele>
        <time>2022-05-31T11:02:09Z</time>
      </trkpt>
      <trkpt lat="49.42297" lon="0.22076">
        <ele>95.2</ele>
        <time>2022-05-31T11:02:11Z</time>
      </trkpt>
      <trkpt lat="49.42296" lon="0.22078">
        <ele>95.2</ele>
        <time>2022-05-31T11:02:12Z</time>
      </trkpt>
      <trkpt lat="49.42296" lon="0.22079">
        <ele>95.2</ele>
        <time>2022-05-31T11:02:13Z</time>
      </trkpt>
      <trkpt lat="49.42296" lon="0.2208">
        <ele>95.2</ele>
        <time>2022-05-31T11:02:15Z</time>
      </trkpt>
      <trkpt lat="49.42296" lon="0.22082">
        <ele>95.2</ele>
        <time>2022-05-31T11:02:16Z</time>
      </trkpt>
      <trkpt lat="49.42296" lon="0.22083">
        <ele>95.2</ele>
        <time>2022-05-31T11:02:17Z</time>
      </trkpt>
      <trkpt lat="49.42296" lon="0.22084">
        <ele>95.2</ele>
        <time>2022-05-31T11:02:18Z</time>
      </trkpt>
      <trkpt lat="49.42296" lon="0.22084">
        <ele>95.2</ele>
        <time>2022-05-31T11:02:19Z</time>
      </trkpt>
      <trkpt lat="49.42296" lon="0.22084">
        <ele>95.2</ele>
        <time>2022-05-31T11:02:20Z</time>
      </trkpt>
      <trkpt lat="49.42296" lon="0.22085">
        <ele>95.2</ele>
        <time>2022-05-31T11:02:21Z</time>
      </trkpt>
      <trkpt lat="49.42296" lon="0.22085">
        <ele>95.2</ele>
        <time>2022-05-31T11:02:23Z</time>
      </trkpt>
      <trkpt lat="49.42296" lon="0.22086">
        <ele>95.2</ele>
        <time>2022-05-31T11:02:24Z</time>
      </trkpt>
      <trkpt lat="49.42297" lon="0.22086">
        <ele>95.2</ele>
        <time>2022-05-31T11:02:25Z</time>
      </trkpt>
      <trkpt lat="49.42297" lon="0.22086">
        <ele>95.1</ele>
        <time>2022-05-31T11:02:26Z</time>
      </trkpt>
      <trkpt lat="49.42298" lon="0.22087">
        <ele>95.1</ele>
        <time>2022-05-31T11:02:27Z</time>
      </trkpt>
      <trkpt lat="49.42298" lon="0.22086">
        <ele>95.1</ele>
        <time>2022-05-31T11:02:28Z</time>
      </trkpt>
      <trkpt lat="49.42299" lon="0.22087">
        <ele>95.1</ele>
        <time>2022-05-31T11:02:29Z</time>
      </trkpt>
      <trkpt lat="49.42299" lon="0.22088">
        <ele>95.1</ele>
        <time>2022-05-31T11:02:30Z</time>
      </trkpt>
      <trkpt lat="49.42299" lon="0.22089">
        <ele>95.1</ele>
        <time>2022-05-31T11:02:32Z</time>
      </trkpt>
      <trkpt lat="49.423" lon="0.22089">
        <ele>95.1</ele>
        <time>2022-05-31T11:02:33Z</time>
      </trkpt>
      <trkpt lat="49.423" lon="0.22091">
        <ele>95.1</ele>
        <time>2022-05-31T11:02:34Z</time>
      </trkpt>
      <trkpt lat="49.42301" lon="0.22093">
        <ele>95.1</ele>
        <time>2022-05-31T11:02:35Z</time>
      </trkpt>
      <trkpt lat="49.42301" lon="0.22095">
        <ele>95.1</ele>
        <time>2022-05-31T11:02:36Z</time>
      </trkpt>
      <trkpt lat="49.42301" lon="0.22098">
        <ele>95</ele>
        <time>2022-05-31T11:02:38Z</time>
      </trkpt>
      <trkpt lat="49.42302" lon="0.22102">
        <ele>95</ele>
        <time>2022-05-31T11:02:39Z</time>
      </trkpt>
      <trkpt lat="49.42302" lon="0.22104">
        <ele>95</ele>
        <time>2022-05-31T11:02:40Z</time>
      </trkpt>
      <trkpt lat="49.42302" lon="0.22106">
        <ele>94.9</ele>
        <time>2022-05-31T11:02:41Z</time>
      </trkpt>
      <trkpt lat="49.42303" lon="0.22108">
        <ele>94.9</ele>
        <time>2022-05-31T11:02:42Z</time>
      </trkpt>
      <trkpt lat="49.42303" lon="0.2211">
        <ele>94.9</ele>
        <time>2022-05-31T11:02:43Z</time>
      </trkpt>
      <trkpt lat="49.42304" lon="0.22113">
        <ele>94.9</ele>
        <time>2022-05-31T11:02:44Z</time>
      </trkpt>
      <trkpt lat="49.42305" lon="0.22115">
        <ele>94.8</ele>
        <time>2022-05-31T11:02:46Z</time>
      </trkpt>
      <trkpt lat="49.42305" lon="0.22117">
        <ele>94.7</ele>
        <time>2022-05-31T11:02:47Z</time>
      </trkpt>
      <trkpt lat="49.42306" lon="0.2212">
        <ele>94.7</ele>
        <time>2022-05-31T11:02:48Z</time>
      </trkpt>
      <trkpt lat="49.42306" lon="0.22122">
        <ele>94.6</ele>
        <time>2022-05-31T11:02:49Z</time>
      </trkpt>
      <trkpt lat="49.42306" lon="0.22123">
        <ele>94.6</ele>
        <time>2022-05-31T11:02:50Z</time>
      </trkpt>
      <trkpt lat="49.42306" lon="0.22123">
        <ele>94.6</ele>
        <time>2022-05-31T11:02:51Z</time>
      </trkpt>
      <trkpt lat="49.42306" lon="0.22124">
        <ele>94.6</ele>
        <time>2022-05-31T11:02:52Z</time>
      </trkpt>
      <trkpt lat="49.42306" lon="0.22125">
        <ele>94.6</ele>
        <time>2022-05-31T11:02:53Z</time>
      </trkpt>
      <trkpt lat="49.42306" lon="0.22126">
        <ele>94.6</ele>
        <time>2022-05-31T11:02:54Z</time>
      </trkpt>
      <trkpt lat="49.42306" lon="0.22126">
        <ele>94.6</ele>
        <time>2022-05-31T11:02:55Z</time>
      </trkpt>
      <trkpt lat="49.42306" lon="0.22126">
        <ele>94.6</ele>
        <time>2022-05-31T11:02:56Z</time>
      </trkpt>
      <trkpt lat="49.42306" lon="0.22125">
        <ele>94.6</ele>
        <time>2022-05-31T11:02:57Z</time>
      </trkpt>
      <trkpt lat="49.42306" lon="0.22125">
        <ele>94.6</ele>
        <time>2022-05-31T11:02:58Z</time>
      </trkpt>
      <trkpt lat="49.42306" lon="0.22124">
        <ele>94.6</ele>
        <time>2022-05-31T11:02:59Z</time>
      </trkpt>
      <trkpt lat="49.42306" lon="0.22124">
        <ele>94.6</ele>
        <time>2022-05-31T11:03:00Z</time>
      </trkpt>
      <trkpt lat="49.42306" lon="0.22123">
        <ele>94.6</ele>
        <time>2022-05-31T11:03:01Z</time>
      </trkpt>
      <trkpt lat="49.42307" lon="0.22123">
        <ele>94.6</ele>
        <time>2022-05-31T11:03:02Z</time>
      </trkpt>
      <trkpt lat="49.42307" lon="0.22123">
        <ele>94.6</ele>
        <time>2022-05-31T11:03:03Z</time>
      </trkpt>
      <trkpt lat="49.42307" lon="0.22123">
        <ele>94.6</ele>
        <time>2022-05-31T11:03:04Z</time>
      </trkpt>
      <trkpt lat="49.42307" lon="0.22123">
        <ele>94.6</ele>
        <time>2022-05-31T11:03:05Z</time>
      </trkpt>
      <trkpt lat="49.42307" lon="0.22122">
        <ele>94.6</ele>
        <time>2022-05-31T11:03:06Z</time>
      </trkpt>
      <trkpt lat="49.42307" lon="0.22122">
        <ele>94.6</ele>
        <time>2022-05-31T11:03:07Z</time>
      </trkpt>
      <trkpt lat="49.42307" lon="0.22122">
        <ele>94.6</ele>
        <time>2022-05-31T11:03:08Z</time>
      </trkpt>
      <trkpt lat="49.42307" lon="0.22122">
        <ele>94.6</ele>
        <time>2022-05-31T11:03:09Z</time>
      </trkpt>
      <trkpt lat="49.42307" lon="0.22122">
        <ele>94.6</ele>
        <time>2022-05-31T11:03:10Z</time>
      </trkpt>
      <trkpt lat="49.42307" lon="0.22122">
        <ele>94.5</ele>
        <time>2022-05-31T11:03:11Z</time>
      </trkpt>
      <trkpt lat="49.42307" lon="0.22122">
        <ele>94.5</ele>
        <time>2022-05-31T11:03:12Z</time>
      </trkpt>
      <trkpt lat="49.42307" lon="0.22121">
        <ele>94.5</ele>
        <time>2022-05-31T11:03:13Z</time>
      </trkpt>
      <trkpt lat="49.42308" lon="0.22121">
        <ele>94.5</ele>
        <time>2022-05-31T11:03:14Z</time>
      </trkpt>
      <trkpt lat="49.42308" lon="0.22121">
        <ele>94.5</ele>
        <time>2022-05-31T11:03:15Z</time>
      </trkpt>
      <trkpt lat="49.42308" lon="0.22121">
        <ele>94.5</ele>
        <time>2022-05-31T11:03:16Z</time>
      </trkpt>
      <trkpt lat="49.42308" lon="0.22121">
        <ele>94.5</ele>
        <time>2022-05-31T11:03:17Z</time>
      </trkpt>
      <trkpt lat="49.42308" lon="0.22121">
        <ele>94.5</ele>
        <time>2022-05-31T11:03:18Z</time>
      </trkpt>
      <trkpt lat="49.42308" lon="0.22121">
        <ele>94.5</ele>
        <time>2022-05-31T11:03:19Z</time>
      </trkpt>
      <trkpt lat="49.42308" lon="0.22121">
        <ele>94.5</ele>
        <time>2022-05-31T11:03:20Z</time>
      </trkpt>
      <trkpt lat="49.42308" lon="0.22121">
        <ele>94.5</ele>
        <time>2022-05-31T11:03:21Z</time>
      </trkpt>
      <trkpt lat="49.42308" lon="0.22121">
        <ele>94.5</ele>
        <time>2022-05-31T11:03:22Z</time>
      </trkpt>
      <trkpt lat="49.42308" lon="0.22121">
        <ele>94.5</ele>
        <time>2022-05-31T11:03:23Z</time>
      </trkpt>
      <trkpt lat="49.42308" lon="0.22121">
        <ele>94.5</ele>
        <time>2022-05-31T11:03:24Z</time>
      </trkpt>
      <trkpt lat="49.42308" lon="0.22121">
        <ele>94.5</ele>
        <time>2022-05-31T11:03:25Z</time>
      </trkpt>
      <trkpt lat="49.42308" lon="0.22121">
        <ele>94.5</ele>
        <time>2022-05-31T11:03:26Z</time>
      </trkpt>
      <trkpt lat="49.42308" lon="0.22121">
        <ele>94.5</ele>
        <time>2022-05-31T11:03:27Z</time>
      </trkpt>
      <trkpt lat="49.42308" lon="0.22121">
        <ele>94.5</ele>
        <time>2022-05-31T11:03:28Z</time>
      </trkpt>
      <trkpt lat="49.42308" lon="0.22121">
        <ele>94.5</ele>
        <time>2022-05-31T11:03:29Z</time>
      </trkpt>
      <trkpt lat="49.42308" lon="0.22121">
        <ele>94.5</ele>
        <time>2022-05-31T11:03:30Z</time>
      </trkpt>
      <trkpt lat="49.42308" lon="0.22121">
        <ele>94.5</ele>
        <time>2022-05-31T11:03:31Z</time>
      </trkpt>
      <trkpt lat="49.42307" lon="0.22122">
        <ele>94.4</ele>
        <time>2022-05-31T11:03:32Z</time>
      </trkpt>
      <trkpt lat="49.42308" lon="0.22122">
        <ele>94.4</ele>
        <time>2022-05-31T11:03:33Z</time>
      </trkpt>
      <trkpt lat="49.42307" lon="0.22122">
        <ele>94.4</ele>
        <time>2022-05-31T11:03:34Z</time>
      </trkpt>
      <trkpt lat="49.42307" lon="0.22122">
        <ele>94.4</ele>
        <time>2022-05-31T11:03:35Z</time>
      </trkpt>
      <trkpt lat="49.42307" lon="0.22122">
        <ele>94.4</ele>
        <time>2022-05-31T11:03:37Z</time>
      </trkpt>
      <trkpt lat="49.42306" lon="0.22122">
        <ele>94.4</ele>
        <time>2022-05-31T11:03:38Z</time>
      </trkpt>
      <trkpt lat="49.42307" lon="0.22122">
        <ele>94.4</ele>
        <time>2022-05-31T11:03:39Z</time>
      </trkpt>
      <trkpt lat="49.42307" lon="0.22122">
        <ele>94.4</ele>
        <time>2022-05-31T11:03:40Z</time>
      </trkpt>
      <trkpt lat="49.42307" lon="0.22122">
        <ele>94.4</ele>
        <time>2022-05-31T11:03:41Z</time>
      </trkpt>
      <trkpt lat="49.42307" lon="0.22122">
        <ele>94.4</ele>
        <time>2022-05-31T11:03:42Z</time>
      </trkpt>
      <trkpt lat="49.42307" lon="0.22122">
        <ele>94.4</ele>
        <time>2022-05-31T11:03:43Z</time>
      </trkpt>
      <trkpt lat="49.42307" lon="0.22122">
        <ele>94.4</ele>
        <time>2022-05-31T11:03:44Z</time>
      </trkpt>
      <trkpt lat="49.42308" lon="0.22122">
        <ele>94.4</ele>
        <time>2022-05-31T11:03:45Z</time>
      </trkpt>
      <trkpt lat="49.42308" lon="0.22121">
        <ele>94.4</ele>
        <time>2022-05-31T11:03:46Z</time>
      </trkpt>
      <trkpt lat="49.42308" lon="0.22121">
        <ele>94.4</ele>
        <time>2022-05-31T11:03:47Z</time>
      </trkpt>
      <trkpt lat="49.42308" lon="0.22121">
        <ele>94.4</ele>
        <time>2022-05-31T11:03:48Z</time>
      </trkpt>
      <trkpt lat="49.42308" lon="0.22121">
        <ele>94.4</ele>
        <time>2022-05-31T11:03:49Z</time>
      </trkpt>
      <trkpt lat="49.42308" lon="0.22122">
        <ele>94.4</ele>
        <time>2022-05-31T11:03:50Z</time>
      </trkpt>
      <trkpt lat="49.42308" lon="0.22122">
        <ele>94.4</ele>
        <time>2022-05-31T11:03:51Z</time>
      </trkpt>
      <trkpt lat="49.42308" lon="0.22122">
        <ele>94.4</ele>
        <time>2022-05-31T11:03:52Z</time>
      </trkpt>
      <trkpt lat="49.42308" lon="0.22122">
        <ele>94.4</ele>
        <time>2022-05-31T11:03:53Z</time>
      </trkpt>
      <trkpt lat="49.42308" lon="0.22122">
        <ele>94.4</ele>
        <time>2022-05-31T11:03:54Z</time>
      </trkpt>
      <trkpt lat="49.42308" lon="0.22122">
        <ele>94.4</ele>
        <time>2022-05-31T11:03:55Z</time>
      </trkpt>
      <trkpt lat="49.42308" lon="0.22122">
        <ele>94.4</ele>
        <time>2022-05-31T11:03:56Z</time>
      </trkpt>
      <trkpt lat="49.42308" lon="0.22121">
        <ele>94.4</ele>
        <time>2022-05-31T11:03:57Z</time>
      </trkpt>
      <trkpt lat="49.42308" lon="0.22121">
        <ele>94.4</ele>
        <time>2022-05-31T11:03:58Z</time>
      </trkpt>
      <trkpt lat="49.42308" lon="0.22121">
        <ele>94.4</ele>
        <time>2022-05-31T11:03:59Z</time>
      </trkpt>
      <trkpt lat="49.42308" lon="0.22121">
        <ele>94.4</ele>
        <time>2022-05-31T11:04:00Z</time>
      </trkpt>
      <trkpt lat="49.42308" lon="0.22121">
        <ele>94.4</ele>
        <time>2022-05-31T11:04:01Z</time>
      </trkpt>
      <trkpt lat="49.42308" lon="0.22121">
        <ele>94.4</ele>
        <time>2022-05-31T11:04:02Z</time>
      </trkpt>
      <trkpt lat="49.42308" lon="0.22121">
        <ele>94.4</ele>
        <time>2022-05-31T11:04:03Z</time>
      </trkpt>
      <trkpt lat="49.42308" lon="0.22121">
        <ele>94.4</ele>
        <time>2022-05-31T11:04:04Z</time>
      </trkpt>
      <trkpt lat="49.42308" lon="0.22121">
        <ele>94.4</ele>
        <time>2022-05-31T11:04:05Z</time>
      </trkpt>
      <trkpt lat="49.42308" lon="0.22121">
        <ele>94.4</ele>
        <time>2022-05-31T11:04:06Z</time>
      </trkpt>
      <trkpt lat="49.42308" lon="0.22121">
        <ele>94.4</ele>
        <time>2022-05-31T11:04:07Z</time>
      </trkpt>
      <trkpt lat="49.42308" lon="0.22121">
        <ele>94.4</ele>
        <time>2022-05-31T11:04:08Z</time>
      </trkpt>
      <trkpt lat="49.42308" lon="0.22121">
        <ele>94.4</ele>
        <time>2022-05-31T11:04:09Z</time>
      </trkpt>
      <trkpt lat="49.42308" lon="0.22121">
        <ele>94.4</ele>
        <time>2022-05-31T11:04:10Z</time>
      </trkpt>
      <trkpt lat="49.42308" lon="0.22121">
        <ele>94.4</ele>
        <time>2022-05-31T11:04:11Z</time>
      </trkpt>
      <trkpt lat="49.42308" lon="0.22121">
        <ele>94.4</ele>
        <time>2022-05-31T11:04:12Z</time>
      </trkpt>
      <trkpt lat="49.42308" lon="0.22121">
        <ele>94.4</ele>
        <time>2022-05-31T11:04:13Z</time>
      </trkpt>
      <trkpt lat="49.42308" lon="0.22121">
        <ele>94.4</ele>
        <time>2022-05-31T11:04:14Z</time>
      </trkpt>
      <trkpt lat="49.42308" lon="0.22121">
        <ele>94.4</ele>
        <time>2022-05-31T11:04:15Z</time>
      </trkpt>
      <trkpt lat="49.42308" lon="0.22121">
        <ele>94.4</ele>
        <time>2022-05-31T11:04:16Z</time>
      </trkpt>
      <trkpt lat="49.42308" lon="0.22121">
        <ele>94.4</ele>
        <time>2022-05-31T11:04:17Z</time>
      </trkpt>
      <trkpt lat="49.42308" lon="0.22121">
        <ele>94.4</ele>
        <time>2022-05-31T11:04:18Z</time>
      </trkpt>
      <trkpt lat="49.42308" lon="0.22121">
        <ele>94.4</ele>
        <time>2022-05-31T11:04:19Z</time>
      </trkpt>
      <trkpt lat="49.42308" lon="0.22121">
        <ele>94.4</ele>
        <time>2022-05-31T11:04:20Z</time>
      </trkpt>
      <trkpt lat="49.42308" lon="0.22121">
        <ele>94.4</ele>
        <time>2022-05-31T11:04:21Z</time>
      </trkpt>
      <trkpt lat="49.42308" lon="0.22121">
        <ele>94.4</ele>
        <time>2022-05-31T11:04:22Z</time>
      </trkpt>
      <trkpt lat="49.42308" lon="0.22121">
        <ele>94.4</ele>
        <time>2022-05-31T11:04:23Z</time>
      </trkpt>
      <trkpt lat="49.42308" lon="0.22121">
        <ele>94.4</ele>
        <time>2022-05-31T11:04:24Z</time>
      </trkpt>
      <trkpt lat="49.42308" lon="0.22121">
        <ele>94.4</ele>
        <time>2022-05-31T11:04:25Z</time>
      </trkpt>
      <trkpt lat="49.42308" lon="0.22121">
        <ele>94.4</ele>
        <time>2022-05-31T11:04:26Z</time>
      </trkpt>
      <trkpt lat="49.42308" lon="0.22121">
        <ele>94.4</ele>
        <time>2022-05-31T11:04:27Z</time>
      </trkpt>
      <trkpt lat="49.42308" lon="0.22121">
        <ele>94.4</ele>
        <time>2022-05-31T11:04:28Z</time>
      </trkpt>
      <trkpt lat="49.42308" lon="0.22121">
        <ele>94.4</ele>
        <time>2022-05-31T11:04:29Z</time>
      </trkpt>
      <trkpt lat="49.42308" lon="0.22121">
        <ele>94.4</ele>
        <time>2022-05-31T11:04:30Z</time>
      </trkpt>
      <trkpt lat="49.42308" lon="0.22121">
        <ele>94.4</ele>
        <time>2022-05-31T11:04:31Z</time>
      </trkpt>
      <trkpt lat="49.42308" lon="0.22121">
        <ele>94.4</ele>
        <time>2022-05-31T11:04:32Z</time>
      </trkpt>
      <trkpt lat="49.42308" lon="0.22121">
        <ele>94.4</ele>
        <time>2022-05-31T11:04:33Z</time>
      </trkpt>
      <trkpt lat="49.42308" lon="0.22121">
        <ele>94.4</ele>
        <time>2022-05-31T11:04:34Z</time>
      </trkpt>
      <trkpt lat="49.42308" lon="0.22121">
        <ele>94.4</ele>
        <time>2022-05-31T11:04:35Z</time>
      </trkpt>
      <trkpt lat="49.42308" lon="0.22121">
        <ele>94.4</ele>
        <time>2022-05-31T11:04:36Z</time>
      </trkpt>
      <trkpt lat="49.42308" lon="0.22121">
        <ele>94.4</ele>
        <time>2022-05-31T11:04:37Z</time>
      </trkpt>
      <trkpt lat="49.42308" lon="0.22121">
        <ele>94.4</ele>
        <time>2022-05-31T11:04:38Z</time>
      </trkpt>
      <trkpt lat="49.42308" lon="0.22121">
        <ele>94.4</ele>
        <time>2022-05-31T11:04:39Z</time>
      </trkpt>
      <trkpt lat="49.42308" lon="0.22122">
        <ele>94.4</ele>
        <time>2022-05-31T11:04:40Z</time>
      </trkpt>
      <trkpt lat="49.42308" lon="0.22122">
        <ele>94.4</ele>
        <time>2022-05-31T11:04:41Z</time>
      </trkpt>
      <trkpt lat="49.42308" lon="0.22122">
        <ele>94.4</ele>
        <time>2022-05-31T11:04:42Z</time>
      </trkpt>
      <trkpt lat="49.42309" lon="0.22121">
        <ele>94.4</ele>
        <time>2022-05-31T11:04:43Z</time>
      </trkpt>
      <trkpt lat="49.42309" lon="0.22121">
        <ele>94.4</ele>
        <time>2022-05-31T11:04:44Z</time>
      </trkpt>
      <trkpt lat="49.42308" lon="0.2212">
        <ele>94.4</ele>
        <time>2022-05-31T11:04:45Z</time>
      </trkpt>
      <trkpt lat="49.42308" lon="0.2212">
        <ele>94.4</ele>
        <time>2022-05-31T11:04:46Z</time>
      </trkpt>
      <trkpt lat="49.42308" lon="0.2212">
        <ele>94.4</ele>
        <time>2022-05-31T11:04:47Z</time>
      </trkpt>
      <trkpt lat="49.42308" lon="0.2212">
        <ele>94.4</ele>
        <time>2022-05-31T11:04:48Z</time>
      </trkpt>
      <trkpt lat="49.42308" lon="0.2212">
        <ele>94.4</ele>
        <time>2022-05-31T11:04:49Z</time>
      </trkpt>
      <trkpt lat="49.42308" lon="0.2212">
        <ele>94.4</ele>
        <time>2022-05-31T11:04:50Z</time>
      </trkpt>
      <trkpt lat="49.42308" lon="0.22121">
        <ele>94.4</ele>
        <time>2022-05-31T11:04:51Z</time>
      </trkpt>
      <trkpt lat="49.42308" lon="0.22121">
        <ele>94.4</ele>
        <time>2022-05-31T11:04:52Z</time>
      </trkpt>
      <trkpt lat="49.42308" lon="0.22121">
        <ele>94.4</ele>
        <time>2022-05-31T11:04:53Z</time>
      </trkpt>
      <trkpt lat="49.42308" lon="0.22121">
        <ele>94.4</ele>
        <time>2022-05-31T11:04:54Z</time>
      </trkpt>
      <trkpt lat="49.42309" lon="0.22121">
        <ele>94.4</ele>
        <time>2022-05-31T11:04:55Z</time>
      </trkpt>
      <trkpt lat="49.42309" lon="0.22121">
        <ele>94.4</ele>
        <time>2022-05-31T11:04:56Z</time>
      </trkpt>
      <trkpt lat="49.42309" lon="0.22121">
        <ele>94.4</ele>
        <time>2022-05-31T11:04:57Z</time>
      </trkpt>
      <trkpt lat="49.42309" lon="0.22121">
        <ele>94.4</ele>
        <time>2022-05-31T11:04:58Z</time>
      </trkpt>
      <trkpt lat="49.42308" lon="0.22121">
        <ele>94.4</ele>
        <time>2022-05-31T11:04:59Z</time>
      </trkpt>
      <trkpt lat="49.42309" lon="0.22121">
        <ele>94.4</ele>
        <time>2022-05-31T11:05:00Z</time>
      </trkpt>
      <trkpt lat="49.42309" lon="0.22121">
        <ele>94.4</ele>
        <time>2022-05-31T11:05:01Z</time>
      </trkpt>
      <trkpt lat="49.42309" lon="0.22121">
        <ele>94.4</ele>
        <time>2022-05-31T11:05:02Z</time>
      </trkpt>
      <trkpt lat="49.42309" lon="0.22121">
        <ele>94.4</ele>
        <time>2022-05-31T11:05:03Z</time>
      </trkpt>
      <trkpt lat="49.42309" lon="0.22121">
        <ele>94.4</ele>
        <time>2022-05-31T11:05:04Z</time>
      </trkpt>
      <trkpt lat="49.42309" lon="0.22121">
        <ele>94.4</ele>
        <time>2022-05-31T11:05:05Z</time>
      </trkpt>
      <trkpt lat="49.42309" lon="0.22121">
        <ele>94.4</ele>
        <time>2022-05-31T11:05:06Z</time>
      </trkpt>
      <trkpt lat="49.42308" lon="0.22121">
        <ele>94.4</ele>
        <time>2022-05-31T11:05:07Z</time>
      </trkpt>
      <trkpt lat="49.42308" lon="0.22121">
        <ele>94.4</ele>
        <time>2022-05-31T11:05:08Z</time>
      </trkpt>
      <trkpt lat="49.42308" lon="0.22121">
        <ele>94.4</ele>
        <time>2022-05-31T11:05:09Z</time>
      </trkpt>
      <trkpt lat="49.42308" lon="0.22121">
        <ele>94.4</ele>
        <time>2022-05-31T11:05:10Z</time>
      </trkpt>
      <trkpt lat="49.42308" lon="0.22121">
        <ele>94.4</ele>
        <time>2022-05-31T11:05:11Z</time>
      </trkpt>
      <trkpt lat="49.42308" lon="0.22121">
        <ele>94.4</ele>
        <time>2022-05-31T11:05:12Z</time>
      </trkpt>
      <trkpt lat="49.42308" lon="0.22121">
        <ele>94.4</ele>
        <time>2022-05-31T11:05:13Z</time>
      </trkpt>
      <trkpt lat="49.42308" lon="0.22121">
        <ele>94.4</ele>
        <time>2022-05-31T11:05:14Z</time>
      </trkpt>
      <trkpt lat="49.42308" lon="0.22121">
        <ele>94.4</ele>
        <time>2022-05-31T11:05:15Z</time>
      </trkpt>
      <trkpt lat="49.42308" lon="0.22121">
        <ele>94.4</ele>
        <time>2022-05-31T11:05:16Z</time>
      </trkpt>
      <trkpt lat="49.42308" lon="0.22121">
        <ele>94.4</ele>
        <time>2022-05-31T11:05:17Z</time>
      </trkpt>
      <trkpt lat="49.42308" lon="0.22121">
        <ele>94.4</ele>
        <time>2022-05-31T11:05:18Z</time>
      </trkpt>
      <trkpt lat="49.42308" lon="0.22121">
        <ele>94.4</ele>
        <time>2022-05-31T11:05:19Z</time>
      </trkpt>
      <trkpt lat="49.42308" lon="0.22121">
        <ele>94.4</ele>
        <time>2022-05-31T11:05:20Z</time>
      </trkpt>
      <trkpt lat="49.42308" lon="0.22121">
        <ele>94.4</ele>
        <time>2022-05-31T11:05:21Z</time>
      </trkpt>
      <trkpt lat="49.42308" lon="0.22121">
        <ele>94.4</ele>
        <time>2022-05-31T11:05:22Z</time>
      </trkpt>
      <trkpt lat="49.42308" lon="0.22121">
        <ele>94.4</ele>
        <time>2022-05-31T11:05:23Z</time>
      </trkpt>
      <trkpt lat="49.42308" lon="0.22121">
        <ele>94.4</ele>
        <time>2022-05-31T11:05:24Z</time>
      </trkpt>
      <trkpt lat="49.42308" lon="0.22121">
        <ele>94.4</ele>
        <time>2022-05-31T11:05:25Z</time>
      </trkpt>
      <trkpt lat="49.42308" lon="0.22121">
        <ele>94.4</ele>
        <time>2022-05-31T11:05:26Z</time>
      </trkpt>
      <trkpt lat="49.42308" lon="0.22121">
        <ele>94.4</ele>
        <time>2022-05-31T11:05:27Z</time>
      </trkpt>
      <trkpt lat="49.42308" lon="0.22121">
        <ele>94.4</ele>
        <time>2022-05-31T11:05:28Z</time>
      </trkpt>
      <trkpt lat="49.42308" lon="0.22121">
        <ele>94.4</ele>
        <time>2022-05-31T11:05:29Z</time>
      </trkpt>
      <trkpt lat="49.42308" lon="0.22122">
        <ele>94.4</ele>
        <time>2022-05-31T11:05:30Z</time>
      </trkpt>
      <trkpt lat="49.42309" lon="0.22122">
        <ele>94.4</ele>
        <time>2022-05-31T11:05:31Z</time>
      </trkpt>
      <trkpt lat="49.42309" lon="0.22123">
        <ele>94.4</ele>
        <time>2022-05-31T11:05:32Z</time>
      </trkpt>
      <trkpt lat="49.42309" lon="0.22123">
        <ele>94.4</ele>
        <time>2022-05-31T11:05:33Z</time>
      </trkpt>
      <trkpt lat="49.42309" lon="0.22123">
        <ele>94.4</ele>
        <time>2022-05-31T11:05:34Z</time>
      </trkpt>
      <trkpt lat="49.42309" lon="0.22123">
        <ele>94.4</ele>
        <time>2022-05-31T11:05:35Z</time>
      </trkpt>
      <trkpt lat="49.42309" lon="0.22123">
        <ele>94.4</ele>
        <time>2022-05-31T11:05:36Z</time>
      </trkpt>
      <trkpt lat="49.42309" lon="0.22123">
        <ele>94.4</ele>
        <time>2022-05-31T11:05:37Z</time>
      </trkpt>
      <trkpt lat="49.42309" lon="0.22123">
        <ele>94.4</ele>
        <time>2022-05-31T11:05:38Z</time>
      </trkpt>
      <trkpt lat="49.42309" lon="0.22123">
        <ele>94.4</ele>
        <time>2022-05-31T11:05:39Z</time>
      </trkpt>
      <trkpt lat="49.42309" lon="0.22123">
        <ele>94.4</ele>
        <time>2022-05-31T11:05:40Z</time>
      </trkpt>
      <trkpt lat="49.42309" lon="0.22123">
        <ele>94.4</ele>
        <time>2022-05-31T11:05:41Z</time>
      </trkpt>
      <trkpt lat="49.42309" lon="0.22123">
        <ele>94.4</ele>
        <time>2022-05-31T11:05:42Z</time>
      </trkpt>
      <trkpt lat="49.42309" lon="0.22123">
        <ele>94.4</ele>
        <time>2022-05-31T11:05:43Z</time>
      </trkpt>
      <trkpt lat="49.42309" lon="0.22123">
        <ele>94.4</ele>
        <time>2022-05-31T11:05:44Z</time>
      </trkpt>
      <trkpt lat="49.42309" lon="0.22123">
        <ele>94.4</ele>
        <time>2022-05-31T11:05:45Z</time>
      </trkpt>
      <trkpt lat="49.42309" lon="0.22123">
        <ele>94.4</ele>
        <time>2022-05-31T11:05:46Z</time>
      </trkpt>
      <trkpt lat="49.42309" lon="0.22123">
        <ele>94.4</ele>
        <time>2022-05-31T11:05:47Z</time>
      </trkpt>
      <trkpt lat="49.42309" lon="0.22123">
        <ele>94.4</ele>
        <time>2022-05-31T11:05:48Z</time>
      </trkpt>
      <trkpt lat="49.42309" lon="0.22123">
        <ele>94.4</ele>
        <time>2022-05-31T11:05:49Z</time>
      </trkpt>
      <trkpt lat="49.42309" lon="0.22123">
        <ele>94.4</ele>
        <time>2022-05-31T11:05:50Z</time>
      </trkpt>
      <trkpt lat="49.42309" lon="0.22123">
        <ele>94.4</ele>
        <time>2022-05-31T11:05:51Z</time>
      </trkpt>
      <trkpt lat="49.42309" lon="0.22123">
        <ele>94.4</ele>
        <time>2022-05-31T11:05:52Z</time>
      </trkpt>
      <trkpt lat="49.42309" lon="0.22123">
        <ele>94.4</ele>
        <time>2022-05-31T11:05:53Z</time>
      </trkpt>
      <trkpt lat="49.42309" lon="0.22123">
        <ele>94.4</ele>
        <time>2022-05-31T11:05:54Z</time>
      </trkpt>
      <trkpt lat="49.42309" lon="0.22123">
        <ele>94.4</ele>
        <time>2022-05-31T11:05:55Z</time>
      </trkpt>
      <trkpt lat="49.42309" lon="0.22123">
        <ele>94.4</ele>
        <time>2022-05-31T11:05:56Z</time>
      </trkpt>
      <trkpt lat="49.42309" lon="0.22123">
        <ele>94.4</ele>
        <time>2022-05-31T11:05:57Z</time>
      </trkpt>
      <trkpt lat="49.42309" lon="0.22123">
        <ele>94.4</ele>
        <time>2022-05-31T11:05:58Z</time>
      </trkpt>
      <trkpt lat="49.42309" lon="0.22123">
        <ele>94.4</ele>
        <time>2022-05-31T11:05:59Z</time>
      </trkpt>
      <trkpt lat="49.42309" lon="0.22123">
        <ele>94.4</ele>
        <time>2022-05-31T11:06:00Z</time>
      </trkpt>
      <trkpt lat="49.42309" lon="0.22123">
        <ele>94.4</ele>
        <time>2022-05-31T11:06:01Z</time>
      </trkpt>
      <trkpt lat="49.42309" lon="0.22123">
        <ele>94.4</ele>
        <time>2022-05-31T11:06:02Z</time>
      </trkpt>
      <trkpt lat="49.42309" lon="0.22123">
        <ele>94.4</ele>
        <time>2022-05-31T11:06:03Z</time>
      </trkpt>
      <trkpt lat="49.42309" lon="0.22123">
        <ele>94.4</ele>
        <time>2022-05-31T11:06:04Z</time>
      </trkpt>
      <trkpt lat="49.42309" lon="0.22123">
        <ele>94.4</ele>
        <time>2022-05-31T11:06:05Z</time>
      </trkpt>
      <trkpt lat="49.42309" lon="0.22123">
        <ele>94.4</ele>
        <time>2022-05-31T11:06:06Z</time>
      </trkpt>
      <trkpt lat="49.42309" lon="0.22123">
        <ele>94.4</ele>
        <time>2022-05-31T11:06:07Z</time>
      </trkpt>
      <trkpt lat="49.42309" lon="0.22123">
        <ele>94.4</ele>
        <time>2022-05-31T11:06:08Z</time>
      </trkpt>
      <trkpt lat="49.42309" lon="0.22123">
        <ele>94.4</ele>
        <time>2022-05-31T11:06:09Z</time>
      </trkpt>
      <trkpt lat="49.42309" lon="0.22123">
        <ele>94.4</ele>
        <time>2022-05-31T11:06:10Z</time>
      </trkpt>
      <trkpt lat="49.42309" lon="0.22123">
        <ele>94.4</ele>
        <time>2022-05-31T11:06:11Z</time>
      </trkpt>
      <trkpt lat="49.42309" lon="0.22123">
        <ele>94.4</ele>
        <time>2022-05-31T11:06:12Z</time>
      </trkpt>
      <trkpt lat="49.42309" lon="0.22123">
        <ele>94.4</ele>
        <time>2022-05-31T11:06:13Z</time>
      </trkpt>
      <trkpt lat="49.42309" lon="0.22123">
        <ele>94.4</ele>
        <time>2022-05-31T11:06:14Z</time>
      </trkpt>
      <trkpt lat="49.42309" lon="0.22123">
        <ele>94.4</ele>
        <time>2022-05-31T11:06:15Z</time>
      </trkpt>
      <trkpt lat="49.42309" lon="0.22123">
        <ele>94.4</ele>
        <time>2022-05-31T11:06:16Z</time>
      </trkpt>
      <trkpt lat="49.42309" lon="0.22123">
        <ele>94.4</ele>
        <time>2022-05-31T11:06:17Z</time>
      </trkpt>
      <trkpt lat="49.42309" lon="0.22123">
        <ele>94.4</ele>
        <time>2022-05-31T11:06:18Z</time>
      </trkpt>
      <trkpt lat="49.42309" lon="0.22123">
        <ele>94.4</ele>
        <time>2022-05-31T11:06:19Z</time>
      </trkpt>
      <trkpt lat="49.42309" lon="0.22123">
        <ele>94.4</ele>
        <time>2022-05-31T11:06:20Z</time>
      </trkpt>
      <trkpt lat="49.42309" lon="0.22123">
        <ele>94.4</ele>
        <time>2022-05-31T11:06:21Z</time>
      </trkpt>
      <trkpt lat="49.42309" lon="0.22123">
        <ele>94.4</ele>
        <time>2022-05-31T11:06:22Z</time>
      </trkpt>
      <trkpt lat="49.42309" lon="0.22123">
        <ele>94.4</ele>
        <time>2022-05-31T11:06:23Z</time>
      </trkpt>
      <trkpt lat="49.42309" lon="0.22123">
        <ele>94.4</ele>
        <time>2022-05-31T11:06:24Z</time>
      </trkpt>
      <trkpt lat="49.42309" lon="0.22123">
        <ele>94.4</ele>
        <time>2022-05-31T11:06:25Z</time>
      </trkpt>
      <trkpt lat="49.42309" lon="0.22123">
        <ele>94.4</ele>
        <time>2022-05-31T11:06:26Z</time>
      </trkpt>
      <trkpt lat="49.42309" lon="0.22123">
        <ele>94.4</ele>
        <time>2022-05-31T11:06:27Z</time>
      </trkpt>
      <trkpt lat="49.42309" lon="0.22123">
        <ele>94.4</ele>
        <time>2022-05-31T11:06:28Z</time>
      </trkpt>
      <trkpt lat="49.42309" lon="0.22123">
        <ele>94.4</ele>
        <time>2022-05-31T11:06:29Z</time>
      </trkpt>
      <trkpt lat="49.42309" lon="0.22123">
        <ele>94.4</ele>
        <time>2022-05-31T11:06:30Z</time>
      </trkpt>
      <trkpt lat="49.42309" lon="0.22123">
        <ele>94.4</ele>
        <time>2022-05-31T11:06:31Z</time>
      </trkpt>
      <trkpt lat="49.42309" lon="0.22123">
        <ele>94.4</ele>
        <time>2022-05-31T11:06:32Z</time>
      </trkpt>
      <trkpt lat="49.42309" lon="0.22123">
        <ele>94.4</ele>
        <time>2022-05-31T11:06:33Z</time>
      </trkpt>
      <trkpt lat="49.42309" lon="0.22123">
        <ele>94.4</ele>
        <time>2022-05-31T11:06:34Z</time>
      </trkpt>
      <trkpt lat="49.42309" lon="0.22123">
        <ele>94.4</ele>
        <time>2022-05-31T11:06:35Z</time>
      </trkpt>
      <trkpt lat="49.42309" lon="0.22123">
        <ele>94.4</ele>
        <time>2022-05-31T11:06:36Z</time>
      </trkpt>
      <trkpt lat="49.42309" lon="0.22123">
        <ele>94.4</ele>
        <time>2022-05-31T11:06:37Z</time>
      </trkpt>
      <trkpt lat="49.42309" lon="0.22123">
        <ele>94.4</ele>
        <time>2022-05-31T11:06:38Z</time>
      </trkpt>
      <trkpt lat="49.42309" lon="0.22123">
        <ele>94.4</ele>
        <time>2022-05-31T11:06:39Z</time>
      </trkpt>
      <trkpt lat="49.42309" lon="0.22123">
        <ele>94.4</ele>
        <time>2022-05-31T11:06:40Z</time>
      </trkpt>
      <trkpt lat="49.42309" lon="0.22123">
        <ele>94.4</ele>
        <time>2022-05-31T11:06:41Z</time>
      </trkpt>
      <trkpt lat="49.42309" lon="0.22123">
        <ele>94.4</ele>
        <time>2022-05-31T11:06:42Z</time>
      </trkpt>
      <trkpt lat="49.42309" lon="0.22123">
        <ele>94.4</ele>
        <time>2022-05-31T11:06:43Z</time>
      </trkpt>
      <trkpt lat="49.42309" lon="0.22123">
        <ele>94.4</ele>
        <time>2022-05-31T11:06:44Z</time>
      </trkpt>
      <trkpt lat="49.42309" lon="0.22123">
        <ele>94.4</ele>
        <time>2022-05-31T11:06:45Z</time>
      </trkpt>
      <trkpt lat="49.42309" lon="0.22123">
        <ele>94.4</ele>
        <time>2022-05-31T11:06:46Z</time>
      </trkpt>
      <trkpt lat="49.42309" lon="0.22123">
        <ele>94.4</ele>
        <time>2022-05-31T11:06:47Z</time>
      </trkpt>
      <trkpt lat="49.42309" lon="0.22123">
        <ele>94.4</ele>
        <time>2022-05-31T11:06:48Z</time>
      </trkpt>
      <trkpt lat="49.42309" lon="0.22123">
        <ele>94.4</ele>
        <time>2022-05-31T11:06:49Z</time>
      </trkpt>
      <trkpt lat="49.42309" lon="0.22123">
        <ele>94.4</ele>
        <time>2022-05-31T11:06:50Z</time>
      </trkpt>
      <trkpt lat="49.42309" lon="0.22123">
        <ele>94.4</ele>
        <time>2022-05-31T11:06:51Z</time>
      </trkpt>
      <trkpt lat="49.42309" lon="0.22123">
        <ele>94.4</ele>
        <time>2022-05-31T11:06:52Z</time>
      </trkpt>
      <trkpt lat="49.42309" lon="0.22123">
        <ele>94.4</ele>
        <time>2022-05-31T11:06:53Z</time>
      </trkpt>
      <trkpt lat="49.42309" lon="0.22123">
        <ele>94.4</ele>
        <time>2022-05-31T11:06:54Z</time>
      </trkpt>
      <trkpt lat="49.42309" lon="0.22123">
        <ele>94.4</ele>
        <time>2022-05-31T11:06:55Z</time>
      </trkpt>
      <trkpt lat="49.42309" lon="0.22123">
        <ele>94.4</ele>
        <time>2022-05-31T11:06:56Z</time>
      </trkpt>
      <trkpt lat="49.42309" lon="0.22123">
        <ele>94.4</ele>
        <time>2022-05-31T11:06:57Z</time>
      </trkpt>
      <trkpt lat="49.42309" lon="0.22123">
        <ele>94.4</ele>
        <time>2022-05-31T11:06:58Z</time>
      </trkpt>
      <trkpt lat="49.42309" lon="0.22123">
        <ele>94.4</ele>
        <time>2022-05-31T11:06:59Z</time>
      </trkpt>
      <trkpt lat="49.42309" lon="0.22123">
        <ele>94.4</ele>
        <time>2022-05-31T11:07:00Z</time>
      </trkpt>
      <trkpt lat="49.42309" lon="0.22123">
        <ele>94.4</ele>
        <time>2022-05-31T11:07:01Z</time>
      </trkpt>
      <trkpt lat="49.42309" lon="0.22123">
        <ele>94.4</ele>
        <time>2022-05-31T11:07:02Z</time>
      </trkpt>
      <trkpt lat="49.42309" lon="0.22123">
        <ele>94.4</ele>
        <time>2022-05-31T11:07:03Z</time>
      </trkpt>
      <trkpt lat="49.42309" lon="0.22123">
        <ele>94.4</ele>
        <time>2022-05-31T11:07:04Z</time>
      </trkpt>
      <trkpt lat="49.42309" lon="0.22123">
        <ele>94.4</ele>
        <time>2022-05-31T11:07:05Z</time>
      </trkpt>
      <trkpt lat="49.42309" lon="0.22123">
        <ele>94.4</ele>
        <time>2022-05-31T11:07:06Z</time>
      </trkpt>
      <trkpt lat="49.42309" lon="0.22123">
        <ele>94.4</ele>
        <time>2022-05-31T11:07:07Z</time>
      </trkpt>
      <trkpt lat="49.42309" lon="0.22123">
        <ele>94.4</ele>
        <time>2022-05-31T11:07:08Z</time>
      </trkpt>
      <trkpt lat="49.42309" lon="0.22123">
        <ele>94.4</ele>
        <time>2022-05-31T11:07:09Z</time>
      </trkpt>
      <trkpt lat="49.42309" lon="0.22123">
        <ele>94.4</ele>
        <time>2022-05-31T11:07:10Z</time>
      </trkpt>
      <trkpt lat="49.42309" lon="0.22123">
        <ele>94.4</ele>
        <time>2022-05-31T11:07:11Z</time>
      </trkpt>
      <trkpt lat="49.42309" lon="0.22123">
        <ele>94.4</ele>
        <time>2022-05-31T11:07:12Z</time>
      </trkpt>
      <trkpt lat="49.42309" lon="0.22123">
        <ele>94.4</ele>
        <time>2022-05-31T11:07:13Z</time>
      </trkpt>
      <trkpt lat="49.42309" lon="0.22123">
        <ele>94.4</ele>
        <time>2022-05-31T11:07:14Z</time>
      </trkpt>
      <trkpt lat="49.42309" lon="0.22123">
        <ele>94.4</ele>
        <time>2022-05-31T11:07:15Z</time>
      </trkpt>
      <trkpt lat="49.42309" lon="0.22123">
        <ele>94.4</ele>
        <time>2022-05-31T11:07:16Z</time>
      </trkpt>
      <trkpt lat="49.42309" lon="0.22123">
        <ele>94.4</ele>
        <time>2022-05-31T11:07:17Z</time>
      </trkpt>
      <trkpt lat="49.42309" lon="0.22123">
        <ele>94.4</ele>
        <time>2022-05-31T11:07:18Z</time>
      </trkpt>
      <trkpt lat="49.42309" lon="0.22123">
        <ele>94.4</ele>
        <time>2022-05-31T11:07:19Z</time>
      </trkpt>
      <trkpt lat="49.42309" lon="0.22123">
        <ele>94.4</ele>
        <time>2022-05-31T11:07:20Z</time>
      </trkpt>
      <trkpt lat="49.42309" lon="0.22123">
        <ele>94.4</ele>
        <time>2022-05-31T11:07:21Z</time>
      </trkpt>
      <trkpt lat="49.42309" lon="0.22123">
        <ele>94.4</ele>
        <time>2022-05-31T11:07:22Z</time>
      </trkpt>
      <trkpt lat="49.42309" lon="0.22123">
        <ele>94.4</ele>
        <time>2022-05-31T11:07:23Z</time>
      </trkpt>
      <trkpt lat="49.42309" lon="0.22123">
        <ele>94.4</ele>
        <time>2022-05-31T11:07:24Z</time>
      </trkpt>
      <trkpt lat="49.42309" lon="0.22123">
        <ele>94.4</ele>
        <time>2022-05-31T11:07:25Z</time>
      </trkpt>
      <trkpt lat="49.42309" lon="0.22123">
        <ele>94.4</ele>
        <time>2022-05-31T11:07:26Z</time>
      </trkpt>
      <trkpt lat="49.42309" lon="0.22123">
        <ele>94.4</ele>
        <time>2022-05-31T11:07:27Z</time>
      </trkpt>
      <trkpt lat="49.42309" lon="0.22123">
        <ele>94.4</ele>
        <time>2022-05-31T11:07:28Z</time>
      </trkpt>
      <trkpt lat="49.42309" lon="0.22123">
        <ele>94.4</ele>
        <time>2022-05-31T11:07:29Z</time>
      </trkpt>
      <trkpt lat="49.42309" lon="0.22123">
        <ele>94.4</ele>
        <time>2022-05-31T11:07:30Z</time>
      </trkpt>
      <trkpt lat="49.42309" lon="0.22123">
        <ele>94.4</ele>
        <time>2022-05-31T11:07:31Z</time>
      </trkpt>
      <trkpt lat="49.42309" lon="0.22123">
        <ele>94.4</ele>
        <time>2022-05-31T11:07:32Z</time>
      </trkpt>
      <trkpt lat="49.42309" lon="0.22123">
        <ele>94.4</ele>
        <time>2022-05-31T11:07:33Z</time>
      </trkpt>
      <trkpt lat="49.42309" lon="0.22123">
        <ele>94.4</ele>
        <time>2022-05-31T11:07:34Z</time>
      </trkpt>
      <trkpt lat="49.42309" lon="0.22123">
        <ele>94.4</ele>
        <time>2022-05-31T11:07:35Z</time>
      </trkpt>
      <trkpt lat="49.42309" lon="0.22123">
        <ele>94.4</ele>
        <time>2022-05-31T11:07:36Z</time>
      </trkpt>
      <trkpt lat="49.42309" lon="0.22123">
        <ele>94.4</ele>
        <time>2022-05-31T11:07:37Z</time>
      </trkpt>
      <trkpt lat="49.42309" lon="0.22123">
        <ele>94.4</ele>
        <time>2022-05-31T11:07:38Z</time>
      </trkpt>
      <trkpt lat="49.42309" lon="0.22123">
        <ele>94.4</ele>
        <time>2022-05-31T11:07:39Z</time>
      </trkpt>
      <trkpt lat="49.42309" lon="0.22123">
        <ele>94.4</ele>
        <time>2022-05-31T11:07:40Z</time>
      </trkpt>
      <trkpt lat="49.42309" lon="0.22123">
        <ele>94.4</ele>
        <time>2022-05-31T11:07:41Z</time>
      </trkpt>
      <trkpt lat="49.42309" lon="0.22123">
        <ele>94.4</ele>
        <time>2022-05-31T11:07:42Z</time>
      </trkpt>
      <trkpt lat="49.42309" lon="0.22123">
        <ele>94.4</ele>
        <time>2022-05-31T11:07:43Z</time>
      </trkpt>
      <trkpt lat="49.42309" lon="0.22123">
        <ele>94.4</ele>
        <time>2022-05-31T11:07:44Z</time>
      </trkpt>
      <trkpt lat="49.42309" lon="0.22123">
        <ele>94.4</ele>
        <time>2022-05-31T11:07:45Z</time>
      </trkpt>
      <trkpt lat="49.42309" lon="0.22123">
        <ele>94.4</ele>
        <time>2022-05-31T11:07:46Z</time>
      </trkpt>
      <trkpt lat="49.42309" lon="0.22123">
        <ele>94.4</ele>
        <time>2022-05-31T11:07:47Z</time>
      </trkpt>
      <trkpt lat="49.42309" lon="0.22123">
        <ele>94.4</ele>
        <time>2022-05-31T11:07:48Z</time>
      </trkpt>
      <trkpt lat="49.42309" lon="0.22123">
        <ele>94.4</ele>
        <time>2022-05-31T11:07:49Z</time>
      </trkpt>
      <trkpt lat="49.42309" lon="0.22123">
        <ele>94.4</ele>
        <time>2022-05-31T11:07:50Z</time>
      </trkpt>
      <trkpt lat="49.42309" lon="0.22123">
        <ele>94.4</ele>
        <time>2022-05-31T11:07:51Z</time>
      </trkpt>
      <trkpt lat="49.42309" lon="0.22123">
        <ele>94.4</ele>
        <time>2022-05-31T11:07:52Z</time>
      </trkpt>
      <trkpt lat="49.42309" lon="0.22123">
        <ele>94.4</ele>
        <time>2022-05-31T11:07:53Z</time>
      </trkpt>
      <trkpt lat="49.42309" lon="0.22123">
        <ele>94.4</ele>
        <time>2022-05-31T11:07:54Z</time>
      </trkpt>
      <trkpt lat="49.42309" lon="0.22123">
        <ele>94.4</ele>
        <time>2022-05-31T11:07:55Z</time>
      </trkpt>
      <trkpt lat="49.42309" lon="0.22123">
        <ele>94.4</ele>
        <time>2022-05-31T11:07:56Z</time>
      </trkpt>
      <trkpt lat="49.42309" lon="0.22123">
        <ele>94.4</ele>
        <time>2022-05-31T11:07:57Z</time>
      </trkpt>
      <trkpt lat="49.42309" lon="0.22123">
        <ele>94.4</ele>
        <time>2022-05-31T11:07:58Z</time>
      </trkpt>
      <trkpt lat="49.42309" lon="0.22123">
        <ele>94.4</ele>
        <time>2022-05-31T11:07:59Z</time>
      </trkpt>
      <trkpt lat="49.42309" lon="0.22123">
        <ele>94.4</ele>
        <time>2022-05-31T11:08:00Z</time>
      </trkpt>
      <trkpt lat="49.42309" lon="0.22123">
        <ele>94.4</ele>
        <time>2022-05-31T11:08:01Z</time>
      </trkpt>
      <trkpt lat="49.42309" lon="0.22123">
        <ele>94.4</ele>
        <time>2022-05-31T11:08:02Z</time>
      </trkpt>
      <trkpt lat="49.42309" lon="0.22123">
        <ele>94.4</ele>
        <time>2022-05-31T11:08:03Z</time>
      </trkpt>
      <trkpt lat="49.42309" lon="0.22123">
        <ele>94.4</ele>
        <time>2022-05-31T11:08:04Z</time>
      </trkpt>
      <trkpt lat="49.42309" lon="0.22123">
        <ele>94.4</ele>
        <time>2022-05-31T11:08:05Z</time>
      </trkpt>
      <trkpt lat="49.42309" lon="0.22123">
        <ele>94.4</ele>
        <time>2022-05-31T11:08:06Z</time>
      </trkpt>
      <trkpt lat="49.42309" lon="0.22123">
        <ele>94.4</ele>
        <time>2022-05-31T11:08:07Z</time>
      </trkpt>
      <trkpt lat="49.42309" lon="0.22123">
        <ele>94.4</ele>
        <time>2022-05-31T11:08:08Z</time>
      </trkpt>
      <trkpt lat="49.42309" lon="0.22123">
        <ele>94.4</ele>
        <time>2022-05-31T11:08:09Z</time>
      </trkpt>
      <trkpt lat="49.42309" lon="0.22123">
        <ele>94.4</ele>
        <time>2022-05-31T11:08:10Z</time>
      </trkpt>
      <trkpt lat="49.42309" lon="0.22123">
        <ele>94.4</ele>
        <time>2022-05-31T11:08:11Z</time>
      </trkpt>
      <trkpt lat="49.42309" lon="0.22123">
        <ele>94.4</ele>
        <time>2022-05-31T11:08:12Z</time>
      </trkpt>
      <trkpt lat="49.42309" lon="0.22123">
        <ele>94.4</ele>
        <time>2022-05-31T11:08:13Z</time>
      </trkpt>
      <trkpt lat="49.42309" lon="0.22123">
        <ele>94.4</ele>
        <time>2022-05-31T11:08:14Z</time>
      </trkpt>
      <trkpt lat="49.42309" lon="0.22123">
        <ele>94.4</ele>
        <time>2022-05-31T11:08:15Z</time>
      </trkpt>
      <trkpt lat="49.42309" lon="0.22123">
        <ele>94.4</ele>
        <time>2022-05-31T11:08:16Z</time>
      </trkpt>
      <trkpt lat="49.42309" lon="0.22123">
        <ele>94.4</ele>
        <time>2022-05-31T11:08:17Z</time>
      </trkpt>
      <trkpt lat="49.42309" lon="0.22123">
        <ele>94.4</ele>
        <time>2022-05-31T11:08:18Z</time>
      </trkpt>
      <trkpt lat="49.42309" lon="0.22123">
        <ele>94.4</ele>
        <time>2022-05-31T11:08:19Z</time>
      </trkpt>
      <trkpt lat="49.42309" lon="0.22123">
        <ele>94.4</ele>
        <time>2022-05-31T11:08:20Z</time>
      </trkpt>
      <trkpt lat="49.42309" lon="0.22123">
        <ele>94.4</ele>
        <time>2022-05-31T11:08:21Z</time>
      </trkpt>
      <trkpt lat="49.42309" lon="0.22123">
        <ele>94.4</ele>
        <time>2022-05-31T11:08:22Z</time>
      </trkpt>
      <trkpt lat="49.42309" lon="0.22123">
        <ele>94.4</ele>
        <time>2022-05-31T11:08:23Z</time>
      </trkpt>
      <trkpt lat="49.42309" lon="0.22123">
        <ele>94.4</ele>
        <time>2022-05-31T11:08:24Z</time>
      </trkpt>
      <trkpt lat="49.42309" lon="0.22123">
        <ele>94.4</ele>
        <time>2022-05-31T11:08:25Z</time>
      </trkpt>
      <trkpt lat="49.42309" lon="0.22123">
        <ele>94.4</ele>
        <time>2022-05-31T11:08:26Z</time>
      </trkpt>
      <trkpt lat="49.42309" lon="0.22123">
        <ele>94.4</ele>
        <time>2022-05-31T11:08:27Z</time>
      </trkpt>
      <trkpt lat="49.42309" lon="0.22123">
        <ele>94.4</ele>
        <time>2022-05-31T11:08:28Z</time>
      </trkpt>
      <trkpt lat="49.42309" lon="0.22123">
        <ele>94.4</ele>
        <time>2022-05-31T11:08:29Z</time>
      </trkpt>
      <trkpt lat="49.42309" lon="0.22123">
        <ele>94.4</ele>
        <time>2022-05-31T11:08:30Z</time>
      </trkpt>
      <trkpt lat="49.42309" lon="0.22123">
        <ele>94.4</ele>
        <time>2022-05-31T11:08:31Z</time>
      </trkpt>
      <trkpt lat="49.42309" lon="0.22123">
        <ele>94.4</ele>
        <time>2022-05-31T11:08:32Z</time>
      </trkpt>
      <trkpt lat="49.42309" lon="0.22123">
        <ele>94.4</ele>
        <time>2022-05-31T11:08:33Z</time>
      </trkpt>
      <trkpt lat="49.42309" lon="0.22123">
        <ele>94.4</ele>
        <time>2022-05-31T11:08:34Z</time>
      </trkpt>
      <trkpt lat="49.42309" lon="0.22123">
        <ele>94.4</ele>
        <time>2022-05-31T11:08:35Z</time>
      </trkpt>
      <trkpt lat="49.42309" lon="0.22123">
        <ele>94.4</ele>
        <time>2022-05-31T11:08:36Z</time>
      </trkpt>
      <trkpt lat="49.42309" lon="0.22123">
        <ele>94.4</ele>
        <time>2022-05-31T11:08:37Z</time>
      </trkpt>
      <trkpt lat="49.42309" lon="0.22123">
        <ele>94.4</ele>
        <time>2022-05-31T11:08:38Z</time>
      </trkpt>
      <trkpt lat="49.42309" lon="0.22123">
        <ele>94.4</ele>
        <time>2022-05-31T11:08:39Z</time>
      </trkpt>
      <trkpt lat="49.42309" lon="0.22123">
        <ele>94.4</ele>
        <time>2022-05-31T11:08:40Z</time>
      </trkpt>
      <trkpt lat="49.42309" lon="0.22123">
        <ele>94.4</ele>
        <time>2022-05-31T11:08:41Z</time>
      </trkpt>
      <trkpt lat="49.42309" lon="0.22123">
        <ele>94.4</ele>
        <time>2022-05-31T11:08:42Z</time>
      </trkpt>
      <trkpt lat="49.42309" lon="0.22123">
        <ele>94.4</ele>
        <time>2022-05-31T11:08:43Z</time>
      </trkpt>
      <trkpt lat="49.42309" lon="0.22123">
        <ele>94.4</ele>
        <time>2022-05-31T11:08:44Z</time>
      </trkpt>
      <trkpt lat="49.42309" lon="0.22123">
        <ele>94.4</ele>
        <time>2022-05-31T11:08:45Z</time>
      </trkpt>
      <trkpt lat="49.42309" lon="0.22123">
        <ele>94.4</ele>
        <time>2022-05-31T11:08:46Z</time>
      </trkpt>
      <trkpt lat="49.42309" lon="0.22123">
        <ele>94.4</ele>
        <time>2022-05-31T11:08:47Z</time>
      </trkpt>
      <trkpt lat="49.42309" lon="0.22123">
        <ele>94.4</ele>
        <time>2022-05-31T11:08:48Z</time>
      </trkpt>
      <trkpt lat="49.42309" lon="0.22123">
        <ele>94.4</ele>
        <time>2022-05-31T11:08:49Z</time>
      </trkpt>
      <trkpt lat="49.42309" lon="0.22123">
        <ele>94.4</ele>
        <time>2022-05-31T11:08:50Z</time>
      </trkpt>
      <trkpt lat="49.42309" lon="0.22123">
        <ele>94.4</ele>
        <time>2022-05-31T11:08:51Z</time>
      </trkpt>
      <trkpt lat="49.42309" lon="0.22123">
        <ele>94.4</ele>
        <time>2022-05-31T11:08:52Z</time>
      </trkpt>
      <trkpt lat="49.42309" lon="0.22123">
        <ele>94.4</ele>
        <time>2022-05-31T11:08:53Z</time>
      </trkpt>
      <trkpt lat="49.42309" lon="0.22123">
        <ele>94.4</ele>
        <time>2022-05-31T11:08:54Z</time>
      </trkpt>
      <trkpt lat="49.42309" lon="0.22123">
        <ele>94.4</ele>
        <time>2022-05-31T11:08:55Z</time>
      </trkpt>
      <trkpt lat="49.42309" lon="0.22123">
        <ele>94.4</ele>
        <time>2022-05-31T11:08:56Z</time>
      </trkpt>
      <trkpt lat="49.42309" lon="0.22123">
        <ele>94.4</ele>
        <time>2022-05-31T11:08:57Z</time>
      </trkpt>
      <trkpt lat="49.42309" lon="0.22123">
        <ele>94.4</ele>
        <time>2022-05-31T11:08:58Z</time>
      </trkpt>
      <trkpt lat="49.42309" lon="0.22123">
        <ele>94.4</ele>
        <time>2022-05-31T11:08:59Z</time>
      </trkpt>
      <trkpt lat="49.42309" lon="0.22123">
        <ele>94.4</ele>
        <time>2022-05-31T11:09:00Z</time>
      </trkpt>
      <trkpt lat="49.42309" lon="0.22123">
        <ele>94.4</ele>
        <time>2022-05-31T11:09:01Z</time>
      </trkpt>
      <trkpt lat="49.42309" lon="0.22123">
        <ele>94.4</ele>
        <time>2022-05-31T11:09:02Z</time>
      </trkpt>
      <trkpt lat="49.42309" lon="0.22123">
        <ele>94.4</ele>
        <time>2022-05-31T11:09:03Z</time>
      </trkpt>
      <trkpt lat="49.42309" lon="0.22123">
        <ele>94.4</ele>
        <time>2022-05-31T11:09:04Z</time>
      </trkpt>
      <trkpt lat="49.42309" lon="0.22123">
        <ele>94.4</ele>
        <time>2022-05-31T11:09:05Z</time>
      </trkpt>
      <trkpt lat="49.42309" lon="0.22123">
        <ele>94.4</ele>
        <time>2022-05-31T11:09:06Z</time>
      </trkpt>
      <trkpt lat="49.42309" lon="0.22123">
        <ele>94.4</ele>
        <time>2022-05-31T11:09:07Z</time>
      </trkpt>
      <trkpt lat="49.42309" lon="0.22123">
        <ele>94.4</ele>
        <time>2022-05-31T11:09:08Z</time>
      </trkpt>
      <trkpt lat="49.42309" lon="0.22123">
        <ele>94.4</ele>
        <time>2022-05-31T11:09:09Z</time>
      </trkpt>
      <trkpt lat="49.42309" lon="0.22123">
        <ele>94.4</ele>
        <time>2022-05-31T11:09:10Z</time>
      </trkpt>
      <trkpt lat="49.42309" lon="0.22123">
        <ele>94.4</ele>
        <time>2022-05-31T11:09:11Z</time>
      </trkpt>
      <trkpt lat="49.42309" lon="0.22123">
        <ele>94.4</ele>
        <time>2022-05-31T11:09:12Z</time>
      </trkpt>
      <trkpt lat="49.42309" lon="0.22123">
        <ele>94.4</ele>
        <time>2022-05-31T11:09:13Z</time>
      </trkpt>
      <trkpt lat="49.42309" lon="0.22123">
        <ele>94.4</ele>
        <time>2022-05-31T11:09:14Z</time>
      </trkpt>
      <trkpt lat="49.42309" lon="0.22123">
        <ele>94.4</ele>
        <time>2022-05-31T11:09:15Z</time>
      </trkpt>
      <trkpt lat="49.42309" lon="0.22123">
        <ele>94.4</ele>
        <time>2022-05-31T11:09:16Z</time>
      </trkpt>
      <trkpt lat="49.42309" lon="0.22123">
        <ele>94.4</ele>
        <time>2022-05-31T11:09:17Z</time>
      </trkpt>
      <trkpt lat="49.42309" lon="0.22123">
        <ele>94.4</ele>
        <time>2022-05-31T11:09:18Z</time>
      </trkpt>
      <trkpt lat="49.42309" lon="0.22123">
        <ele>94.4</ele>
        <time>2022-05-31T11:09:19Z</time>
      </trkpt>
      <trkpt lat="49.42309" lon="0.22123">
        <ele>94.4</ele>
        <time>2022-05-31T11:09:20Z</time>
      </trkpt>
      <trkpt lat="49.42309" lon="0.22123">
        <ele>94.4</ele>
        <time>2022-05-31T11:09:21Z</time>
      </trkpt>
      <trkpt lat="49.42309" lon="0.22123">
        <ele>94.4</ele>
        <time>2022-05-31T11:09:22Z</time>
      </trkpt>
      <trkpt lat="49.42309" lon="0.22123">
        <ele>94.4</ele>
        <time>2022-05-31T11:09:24Z</time>
      </trkpt>
      <trkpt lat="49.42309" lon="0.22123">
        <ele>94.4</ele>
        <time>2022-05-31T11:09:25Z</time>
      </trkpt>
      <trkpt lat="49.42309" lon="0.22123">
        <ele>94.4</ele>
        <time>2022-05-31T11:09:26Z</time>
      </trkpt>
      <trkpt lat="49.42309" lon="0.22123">
        <ele>94.4</ele>
        <time>2022-05-31T11:09:27Z</time>
      </trkpt>
      <trkpt lat="49.42309" lon="0.22123">
        <ele>94.4</ele>
        <time>2022-05-31T11:09:28Z</time>
      </trkpt>
      <trkpt lat="49.42309" lon="0.22123">
        <ele>94.4</ele>
        <time>2022-05-31T11:09:29Z</time>
      </trkpt>
      <trkpt lat="49.42309" lon="0.22123">
        <ele>94.4</ele>
        <time>2022-05-31T11:09:30Z</time>
      </trkpt>
      <trkpt lat="49.42309" lon="0.22123">
        <ele>94.4</ele>
        <time>2022-05-31T11:09:31Z</time>
      </trkpt>
      <trkpt lat="49.42309" lon="0.22123">
        <ele>94.4</ele>
        <time>2022-05-31T11:09:32Z</time>
      </trkpt>
      <trkpt lat="49.42309" lon="0.22123">
        <ele>94.4</ele>
        <time>2022-05-31T11:09:33Z</time>
      </trkpt>
      <trkpt lat="49.42309" lon="0.22123">
        <ele>94.4</ele>
        <time>2022-05-31T11:09:34Z</time>
      </trkpt>
      <trkpt lat="49.42309" lon="0.22123">
        <ele>94.4</ele>
        <time>2022-05-31T11:09:35Z</time>
      </trkpt>
      <trkpt lat="49.42309" lon="0.22123">
        <ele>94.4</ele>
        <time>2022-05-31T11:09:36Z</time>
      </trkpt>
      <trkpt lat="49.42309" lon="0.22123">
        <ele>94.4</ele>
        <time>2022-05-31T11:09:37Z</time>
      </trkpt>
      <trkpt lat="49.42309" lon="0.22123">
        <ele>94.4</ele>
        <time>2022-05-31T11:09:38Z</time>
      </trkpt>
      <trkpt lat="49.42309" lon="0.22123">
        <ele>94.4</ele>
        <time>2022-05-31T11:09:39Z</time>
      </trkpt>
      <trkpt lat="49.42309" lon="0.22123">
        <ele>94.4</ele>
        <time>2022-05-31T11:09:40Z</time>
      </trkpt>
      <trkpt lat="49.42309" lon="0.22123">
        <ele>94.4</ele>
        <time>2022-05-31T11:09:41Z</time>
      </trkpt>
      <trkpt lat="49.42309" lon="0.22123">
        <ele>94.4</ele>
        <time>2022-05-31T11:09:42Z</time>
      </trkpt>
      <trkpt lat="49.42309" lon="0.22123">
        <ele>94.4</ele>
        <time>2022-05-31T11:09:43Z</time>
      </trkpt>
      <trkpt lat="49.42309" lon="0.22123">
        <ele>94.4</ele>
        <time>2022-05-31T11:09:44Z</time>
      </trkpt>
      <trkpt lat="49.42309" lon="0.22123">
        <ele>94.4</ele>
        <time>2022-05-31T11:09:45Z</time>
      </trkpt>
      <trkpt lat="49.42309" lon="0.22123">
        <ele>94.4</ele>
        <time>2022-05-31T11:09:46Z</time>
      </trkpt>
      <trkpt lat="49.42309" lon="0.22123">
        <ele>94.4</ele>
        <time>2022-05-31T11:09:47Z</time>
      </trkpt>
      <trkpt lat="49.42309" lon="0.22123">
        <ele>94.4</ele>
        <time>2022-05-31T11:09:48Z</time>
      </trkpt>
      <trkpt lat="49.42309" lon="0.22123">
        <ele>94.4</ele>
        <time>2022-05-31T11:09:49Z</time>
      </trkpt>
      <trkpt lat="49.42309" lon="0.22123">
        <ele>94.4</ele>
        <time>2022-05-31T11:09:50Z</time>
      </trkpt>
      <trkpt lat="49.42309" lon="0.22123">
        <ele>94.4</ele>
        <time>2022-05-31T11:09:51Z</time>
      </trkpt>
      <trkpt lat="49.42309" lon="0.22123">
        <ele>94.4</ele>
        <time>2022-05-31T11:09:52Z</time>
      </trkpt>
      <trkpt lat="49.42309" lon="0.22123">
        <ele>94.4</ele>
        <time>2022-05-31T11:09:53Z</time>
      </trkpt>
      <trkpt lat="49.42309" lon="0.22123">
        <ele>94.4</ele>
        <time>2022-05-31T11:09:54Z</time>
      </trkpt>
      <trkpt lat="49.42309" lon="0.22123">
        <ele>94.4</ele>
        <time>2022-05-31T11:09:55Z</time>
      </trkpt>
      <trkpt lat="49.42309" lon="0.22123">
        <ele>94.4</ele>
        <time>2022-05-31T11:09:56Z</time>
      </trkpt>
      <trkpt lat="49.42309" lon="0.22123">
        <ele>94.4</ele>
        <time>2022-05-31T11:09:57Z</time>
      </trkpt>
      <trkpt lat="49.42309" lon="0.22123">
        <ele>94.4</ele>
        <time>2022-05-31T11:09:58Z</time>
      </trkpt>
      <trkpt lat="49.42309" lon="0.22123">
        <ele>94.4</ele>
        <time>2022-05-31T11:09:59Z</time>
      </trkpt>
      <trkpt lat="49.42309" lon="0.22123">
        <ele>94.4</ele>
        <time>2022-05-31T11:10:00Z</time>
      </trkpt>
      <trkpt lat="49.42309" lon="0.22123">
        <ele>94.4</ele>
        <time>2022-05-31T11:10:01Z</time>
      </trkpt>
      <trkpt lat="49.42309" lon="0.22123">
        <ele>94.4</ele>
        <time>2022-05-31T11:10:02Z</time>
      </trkpt>
      <trkpt lat="49.42309" lon="0.22123">
        <ele>94.4</ele>
        <time>2022-05-31T11:10:03Z</time>
      </trkpt>
      <trkpt lat="49.42309" lon="0.22123">
        <ele>94.4</ele>
        <time>2022-05-31T11:10:04Z</time>
      </trkpt>
      <trkpt lat="49.42309" lon="0.22123">
        <ele>94.4</ele>
        <time>2022-05-31T11:10:05Z</time>
      </trkpt>
      <trkpt lat="49.42309" lon="0.22123">
        <ele>94.4</ele>
        <time>2022-05-31T11:10:06Z</time>
      </trkpt>
      <trkpt lat="49.42309" lon="0.22123">
        <ele>94.4</ele>
        <time>2022-05-31T11:10:07Z</time>
      </trkpt>
      <trkpt lat="49.42309" lon="0.22123">
        <ele>94.4</ele>
        <time>2022-05-31T11:10:08Z</time>
      </trkpt>
      <trkpt lat="49.42309" lon="0.22123">
        <ele>94.4</ele>
        <time>2022-05-31T11:10:09Z</time>
      </trkpt>
      <trkpt lat="49.42309" lon="0.22123">
        <ele>94.4</ele>
        <time>2022-05-31T11:10:10Z</time>
      </trkpt>
      <trkpt lat="49.42309" lon="0.22123">
        <ele>94.4</ele>
        <time>2022-05-31T11:10:11Z</time>
      </trkpt>
      <trkpt lat="49.42309" lon="0.22123">
        <ele>94.4</ele>
        <time>2022-05-31T11:10:12Z</time>
      </trkpt>
      <trkpt lat="49.42309" lon="0.22123">
        <ele>94.4</ele>
        <time>2022-05-31T11:10:13Z</time>
      </trkpt>
      <trkpt lat="49.42309" lon="0.22123">
        <ele>94.4</ele>
        <time>2022-05-31T11:10:14Z</time>
      </trkpt>
      <trkpt lat="49.42309" lon="0.22123">
        <ele>94.4</ele>
        <time>2022-05-31T11:10:15Z</time>
      </trkpt>
      <trkpt lat="49.42309" lon="0.22123">
        <ele>94.4</ele>
        <time>2022-05-31T11:10:16Z</time>
      </trkpt>
      <trkpt lat="49.42309" lon="0.22123">
        <ele>94.4</ele>
        <time>2022-05-31T11:10:17Z</time>
      </trkpt>
      <trkpt lat="49.42309" lon="0.22123">
        <ele>94.4</ele>
        <time>2022-05-31T11:10:18Z</time>
      </trkpt>
      <trkpt lat="49.42309" lon="0.22123">
        <ele>94.4</ele>
        <time>2022-05-31T11:10:19Z</time>
      </trkpt>
      <trkpt lat="49.42309" lon="0.22123">
        <ele>94.4</ele>
        <time>2022-05-31T11:10:20Z</time>
      </trkpt>
      <trkpt lat="49.42309" lon="0.22123">
        <ele>94.4</ele>
        <time>2022-05-31T11:10:21Z</time>
      </trkpt>
      <trkpt lat="49.42309" lon="0.22123">
        <ele>94.4</ele>
        <time>2022-05-31T11:10:22Z</time>
      </trkpt>
      <trkpt lat="49.42309" lon="0.22123">
        <ele>94.4</ele>
        <time>2022-05-31T11:10:23Z</time>
      </trkpt>
      <trkpt lat="49.42309" lon="0.22123">
        <ele>94.4</ele>
        <time>2022-05-31T11:10:24Z</time>
      </trkpt>
      <trkpt lat="49.42309" lon="0.22123">
        <ele>94.4</ele>
        <time>2022-05-31T11:10:25Z</time>
      </trkpt>
      <trkpt lat="49.42309" lon="0.22123">
        <ele>94.4</ele>
        <time>2022-05-31T11:10:26Z</time>
      </trkpt>
      <trkpt lat="49.42309" lon="0.22123">
        <ele>94.4</ele>
        <time>2022-05-31T11:10:27Z</time>
      </trkpt>
      <trkpt lat="49.42309" lon="0.22123">
        <ele>94.4</ele>
        <time>2022-05-31T11:10:28Z</time>
      </trkpt>
      <trkpt lat="49.42309" lon="0.22123">
        <ele>94.4</ele>
        <time>2022-05-31T11:10:29Z</time>
      </trkpt>
      <trkpt lat="49.42309" lon="0.22123">
        <ele>94.4</ele>
        <time>2022-05-31T11:10:30Z</time>
      </trkpt>
      <trkpt lat="49.42309" lon="0.22123">
        <ele>94.4</ele>
        <time>2022-05-31T11:10:31Z</time>
      </trkpt>
      <trkpt lat="49.42309" lon="0.22123">
        <ele>94.4</ele>
        <time>2022-05-31T11:10:32Z</time>
      </trkpt>
      <trkpt lat="49.42309" lon="0.22123">
        <ele>94.4</ele>
        <time>2022-05-31T11:10:33Z</time>
      </trkpt>
      <trkpt lat="49.42309" lon="0.22123">
        <ele>94.4</ele>
        <time>2022-05-31T11:10:34Z</time>
      </trkpt>
      <trkpt lat="49.42309" lon="0.22123">
        <ele>94.4</ele>
        <time>2022-05-31T11:10:35Z</time>
      </trkpt>
      <trkpt lat="49.42309" lon="0.22123">
        <ele>94.4</ele>
        <time>2022-05-31T11:10:36Z</time>
      </trkpt>
      <trkpt lat="49.42309" lon="0.22123">
        <ele>94.4</ele>
        <time>2022-05-31T11:10:37Z</time>
      </trkpt>
      <trkpt lat="49.42309" lon="0.22123">
        <ele>94.4</ele>
        <time>2022-05-31T11:10:38Z</time>
      </trkpt>
      <trkpt lat="49.42309" lon="0.22123">
        <ele>94.4</ele>
        <time>2022-05-31T11:10:39Z</time>
      </trkpt>
      <trkpt lat="49.42309" lon="0.22123">
        <ele>94.4</ele>
        <time>2022-05-31T11:10:40Z</time>
      </trkpt>
      <trkpt lat="49.42309" lon="0.22123">
        <ele>94.4</ele>
        <time>2022-05-31T11:10:41Z</time>
      </trkpt>
      <trkpt lat="49.42309" lon="0.22123">
        <ele>94.4</ele>
        <time>2022-05-31T11:10:42Z</time>
      </trkpt>
      <trkpt lat="49.42309" lon="0.22123">
        <ele>94.4</ele>
        <time>2022-05-31T11:10:43Z</time>
      </trkpt>
      <trkpt lat="49.42309" lon="0.22123">
        <ele>94.4</ele>
        <time>2022-05-31T11:10:44Z</time>
      </trkpt>
      <trkpt lat="49.42309" lon="0.22123">
        <ele>94.4</ele>
        <time>2022-05-31T11:10:45Z</time>
      </trkpt>
      <trkpt lat="49.42309" lon="0.22123">
        <ele>94.4</ele>
        <time>2022-05-31T11:10:46Z</time>
      </trkpt>
      <trkpt lat="49.42309" lon="0.22123">
        <ele>94.4</ele>
        <time>2022-05-31T11:10:47Z</time>
      </trkpt>
      <trkpt lat="49.42309" lon="0.22123">
        <ele>94.4</ele>
        <time>2022-05-31T11:10:48Z</time>
      </trkpt>
      <trkpt lat="49.42309" lon="0.22123">
        <ele>94.4</ele>
        <time>2022-05-31T11:10:49Z</time>
      </trkpt>
      <trkpt lat="49.42309" lon="0.22123">
        <ele>94.4</ele>
        <time>2022-05-31T11:10:50Z</time>
      </trkpt>
      <trkpt lat="49.42309" lon="0.22123">
        <ele>94.4</ele>
        <time>2022-05-31T11:10:51Z</time>
      </trkpt>
      <trkpt lat="49.42309" lon="0.22123">
        <ele>94.4</ele>
        <time>2022-05-31T11:10:52Z</time>
      </trkpt>
      <trkpt lat="49.42309" lon="0.22123">
        <ele>94.4</ele>
        <time>2022-05-31T11:10:53Z</time>
      </trkpt>
      <trkpt lat="49.42309" lon="0.22123">
        <ele>94.4</ele>
        <time>2022-05-31T11:10:54Z</time>
      </trkpt>
      <trkpt lat="49.42309" lon="0.22123">
        <ele>94.4</ele>
        <time>2022-05-31T11:10:55Z</time>
      </trkpt>
      <trkpt lat="49.42309" lon="0.22123">
        <ele>94.4</ele>
        <time>2022-05-31T11:10:56Z</time>
      </trkpt>
      <trkpt lat="49.42309" lon="0.22123">
        <ele>94.4</ele>
        <time>2022-05-31T11:10:57Z</time>
      </trkpt>
      <trkpt lat="49.42309" lon="0.22123">
        <ele>94.4</ele>
        <time>2022-05-31T11:10:58Z</time>
      </trkpt>
      <trkpt lat="49.42309" lon="0.22123">
        <ele>94.4</ele>
        <time>2022-05-31T11:10:59Z</time>
      </trkpt>
      <trkpt lat="49.42309" lon="0.22123">
        <ele>94.4</ele>
        <time>2022-05-31T11:11:00Z</time>
      </trkpt>
      <trkpt lat="49.42309" lon="0.22123">
        <ele>94.4</ele>
        <time>2022-05-31T11:11:01Z</time>
      </trkpt>
      <trkpt lat="49.42309" lon="0.22123">
        <ele>94.4</ele>
        <time>2022-05-31T11:11:02Z</time>
      </trkpt>
      <trkpt lat="49.42309" lon="0.22123">
        <ele>94.4</ele>
        <time>2022-05-31T11:11:03Z</time>
      </trkpt>
      <trkpt lat="49.42309" lon="0.22123">
        <ele>94.4</ele>
        <time>2022-05-31T11:11:04Z</time>
      </trkpt>
      <trkpt lat="49.42309" lon="0.22123">
        <ele>94.4</ele>
        <time>2022-05-31T11:11:05Z</time>
      </trkpt>
      <trkpt lat="49.42309" lon="0.22123">
        <ele>94.4</ele>
        <time>2022-05-31T11:11:06Z</time>
      </trkpt>
      <trkpt lat="49.42309" lon="0.22123">
        <ele>94.4</ele>
        <time>2022-05-31T11:11:07Z</time>
      </trkpt>
      <trkpt lat="49.42309" lon="0.22123">
        <ele>94.4</ele>
        <time>2022-05-31T11:11:08Z</time>
      </trkpt>
      <trkpt lat="49.42309" lon="0.22123">
        <ele>94.4</ele>
        <time>2022-05-31T11:11:09Z</time>
      </trkpt>
      <trkpt lat="49.42309" lon="0.22123">
        <ele>94.4</ele>
        <time>2022-05-31T11:11:10Z</time>
      </trkpt>
      <trkpt lat="49.42309" lon="0.22123">
        <ele>94.4</ele>
        <time>2022-05-31T11:11:11Z</time>
      </trkpt>
      <trkpt lat="49.42309" lon="0.22123">
        <ele>94.4</ele>
        <time>2022-05-31T11:11:12Z</time>
      </trkpt>
      <trkpt lat="49.42309" lon="0.22123">
        <ele>94.4</ele>
        <time>2022-05-31T11:11:13Z</time>
      </trkpt>
      <trkpt lat="49.42309" lon="0.22123">
        <ele>94.4</ele>
        <time>2022-05-31T11:11:14Z</time>
      </trkpt>
      <trkpt lat="49.42309" lon="0.22123">
        <ele>94.4</ele>
        <time>2022-05-31T11:11:15Z</time>
      </trkpt>
      <trkpt lat="49.42309" lon="0.22123">
        <ele>94.4</ele>
        <time>2022-05-31T11:11:16Z</time>
      </trkpt>
      <trkpt lat="49.42309" lon="0.22123">
        <ele>94.4</ele>
        <time>2022-05-31T11:11:17Z</time>
      </trkpt>
      <trkpt lat="49.42309" lon="0.22123">
        <ele>94.4</ele>
        <time>2022-05-31T11:11:18Z</time>
      </trkpt>
      <trkpt lat="49.42309" lon="0.22123">
        <ele>94.4</ele>
        <time>2022-05-31T11:11:19Z</time>
      </trkpt>
      <trkpt lat="49.42309" lon="0.22123">
        <ele>94.4</ele>
        <time>2022-05-31T11:11:20Z</time>
      </trkpt>
      <trkpt lat="49.42309" lon="0.22123">
        <ele>94.4</ele>
        <time>2022-05-31T11:11:21Z</time>
      </trkpt>
      <trkpt lat="49.42309" lon="0.22123">
        <ele>94.4</ele>
        <time>2022-05-31T11:11:22Z</time>
      </trkpt>
      <trkpt lat="49.42309" lon="0.22123">
        <ele>94.4</ele>
        <time>2022-05-31T11:11:23Z</time>
      </trkpt>
      <trkpt lat="49.42309" lon="0.22123">
        <ele>94.4</ele>
        <time>2022-05-31T11:11:24Z</time>
      </trkpt>
      <trkpt lat="49.42309" lon="0.22123">
        <ele>94.4</ele>
        <time>2022-05-31T11:11:25Z</time>
      </trkpt>
      <trkpt lat="49.42309" lon="0.22123">
        <ele>94.4</ele>
        <time>2022-05-31T11:11:26Z</time>
      </trkpt>
      <trkpt lat="49.42309" lon="0.22123">
        <ele>94.4</ele>
        <time>2022-05-31T11:11:27Z</time>
      </trkpt>
      <trkpt lat="49.42309" lon="0.22123">
        <ele>94.4</ele>
        <time>2022-05-31T11:11:28Z</time>
      </trkpt>
      <trkpt lat="49.42309" lon="0.22123">
        <ele>94.4</ele>
        <time>2022-05-31T11:11:29Z</time>
      </trkpt>
      <trkpt lat="49.42238" lon="0.22064">
        <ele>96.6</ele>
        <time>2022-05-31T11:38:00Z</time>
      </trkpt>
      <trkpt lat="49.42238" lon="0.22064">
        <ele>96.6</ele>
        <time>2022-05-31T11:38:01Z</time>
      </trkpt>
      <trkpt lat="49.42238" lon="0.22064">
        <ele>96.6</ele>
        <time>2022-05-31T11:38:02Z</time>
      </trkpt>
      <trkpt lat="49.42238" lon="0.22064">
        <ele>96.6</ele>
        <time>2022-05-31T11:38:03Z</time>
      </trkpt>
      <trkpt lat="49.42238" lon="0.22064">
        <ele>96.6</ele>
        <time>2022-05-31T11:38:04Z</time>
      </trkpt>
      <trkpt lat="49.42238" lon="0.22064">
        <ele>96.6</ele>
        <time>2022-05-31T11:38:05Z</time>
      </trkpt>
      <trkpt lat="49.42238" lon="0.22065">
        <ele>96.6</ele>
        <time>2022-05-31T11:38:06Z</time>
      </trkpt>
      <trkpt lat="49.42238" lon="0.22065">
        <ele>96.6</ele>
        <time>2022-05-31T11:38:07Z</time>
      </trkpt>
      <trkpt lat="49.42238" lon="0.22065">
        <ele>96.6</ele>
        <time>2022-05-31T11:38:08Z</time>
      </trkpt>
      <trkpt lat="49.42238" lon="0.22065">
        <ele>96.6</ele>
        <time>2022-05-31T11:38:09Z</time>
      </trkpt>
      <trkpt lat="49.42238" lon="0.22066">
        <ele>96.6</ele>
        <time>2022-05-31T11:38:10Z</time>
      </trkpt>
      <trkpt lat="49.42238" lon="0.22066">
        <ele>96.6</ele>
        <time>2022-05-31T11:38:11Z</time>
      </trkpt>
      <trkpt lat="49.42238" lon="0.22066">
        <ele>96.6</ele>
        <time>2022-05-31T11:38:12Z</time>
      </trkpt>
      <trkpt lat="49.42238" lon="0.22066">
        <ele>96.6</ele>
        <time>2022-05-31T11:38:13Z</time>
      </trkpt>
      <trkpt lat="49.42238" lon="0.22066">
        <ele>96.6</ele>
        <time>2022-05-31T11:38:14Z</time>
      </trkpt>
      <trkpt lat="49.42238" lon="0.22064">
        <ele>96.6</ele>
        <time>2022-05-31T11:38:15Z</time>
      </trkpt>
      <trkpt lat="49.42238" lon="0.22063">
        <ele>96.6</ele>
        <time>2022-05-31T11:38:16Z</time>
      </trkpt>
      <trkpt lat="49.42238" lon="0.22063">
        <ele>96.6</ele>
        <time>2022-05-31T11:38:17Z</time>
      </trkpt>
      <trkpt lat="49.42238" lon="0.22061">
        <ele>96.6</ele>
        <time>2022-05-31T11:38:19Z</time>
      </trkpt>
      <trkpt lat="49.42238" lon="0.2206">
        <ele>96.6</ele>
        <time>2022-05-31T11:38:20Z</time>
      </trkpt>
      <trkpt lat="49.42237" lon="0.22059">
        <ele>96.6</ele>
        <time>2022-05-31T11:38:21Z</time>
      </trkpt>
      <trkpt lat="49.42237" lon="0.22059">
        <ele>96.6</ele>
        <time>2022-05-31T11:38:22Z</time>
      </trkpt>
      <trkpt lat="49.42237" lon="0.22058">
        <ele>96.6</ele>
        <time>2022-05-31T11:38:23Z</time>
      </trkpt>
      <trkpt lat="49.42237" lon="0.22058">
        <ele>96.6</ele>
        <time>2022-05-31T11:38:24Z</time>
      </trkpt>
      <trkpt lat="49.42237" lon="0.22058">
        <ele>96.6</ele>
        <time>2022-05-31T11:38:25Z</time>
      </trkpt>
      <trkpt lat="49.42237" lon="0.22058">
        <ele>96.6</ele>
        <time>2022-05-31T11:38:26Z</time>
      </trkpt>
      <trkpt lat="49.42236" lon="0.22058">
        <ele>96.6</ele>
        <time>2022-05-31T11:38:27Z</time>
      </trkpt>
      <trkpt lat="49.42236" lon="0.22058">
        <ele>96.6</ele>
        <time>2022-05-31T11:38:28Z</time>
      </trkpt>
      <trkpt lat="49.42236" lon="0.22059">
        <ele>96.6</ele>
        <time>2022-05-31T11:38:29Z</time>
      </trkpt>
      <trkpt lat="49.42236" lon="0.22058">
        <ele>96.6</ele>
        <time>2022-05-31T11:38:30Z</time>
      </trkpt>
      <trkpt lat="49.42236" lon="0.22058">
        <ele>96.6</ele>
        <time>2022-05-31T11:38:32Z</time>
      </trkpt>
      <trkpt lat="49.42236" lon="0.22058">
        <ele>96.6</ele>
        <time>2022-05-31T11:38:33Z</time>
      </trkpt>
      <trkpt lat="49.42236" lon="0.22058">
        <ele>96.6</ele>
        <time>2022-05-31T11:38:34Z</time>
      </trkpt>
      <trkpt lat="49.42236" lon="0.22058">
        <ele>96.6</ele>
        <time>2022-05-31T11:38:35Z</time>
      </trkpt>
      <trkpt lat="49.42235" lon="0.22059">
        <ele>96.6</ele>
        <time>2022-05-31T11:38:36Z</time>
      </trkpt>
      <trkpt lat="49.42235" lon="0.22059">
        <ele>96.6</ele>
        <time>2022-05-31T11:38:37Z</time>
      </trkpt>
      <trkpt lat="49.42235" lon="0.22058">
        <ele>96.6</ele>
        <time>2022-05-31T11:38:38Z</time>
      </trkpt>
      <trkpt lat="49.42235" lon="0.22058">
        <ele>96.6</ele>
        <time>2022-05-31T11:38:39Z</time>
      </trkpt>
      <trkpt lat="49.42235" lon="0.22057">
        <ele>96.6</ele>
        <time>2022-05-31T11:38:40Z</time>
      </trkpt>
      <trkpt lat="49.42235" lon="0.22057">
        <ele>96.6</ele>
        <time>2022-05-31T11:38:41Z</time>
      </trkpt>
      <trkpt lat="49.42235" lon="0.22056">
        <ele>96.6</ele>
        <time>2022-05-31T11:38:42Z</time>
      </trkpt>
      <trkpt lat="49.42235" lon="0.22056">
        <ele>96.6</ele>
        <time>2022-05-31T11:38:43Z</time>
      </trkpt>
      <trkpt lat="49.42235" lon="0.22056">
        <ele>96.6</ele>
        <time>2022-05-31T11:38:44Z</time>
      </trkpt>
      <trkpt lat="49.42235" lon="0.22055">
        <ele>96.6</ele>
        <time>2022-05-31T11:38:45Z</time>
      </trkpt>
      <trkpt lat="49.42234" lon="0.22055">
        <ele>96.6</ele>
        <time>2022-05-31T11:38:47Z</time>
      </trkpt>
      <trkpt lat="49.42234" lon="0.22055">
        <ele>96.6</ele>
        <time>2022-05-31T11:38:48Z</time>
      </trkpt>
      <trkpt lat="49.42234" lon="0.22054">
        <ele>96.6</ele>
        <time>2022-05-31T11:38:49Z</time>
      </trkpt>
      <trkpt lat="49.42234" lon="0.22055">
        <ele>96.6</ele>
        <time>2022-05-31T11:38:51Z</time>
      </trkpt>
      <trkpt lat="49.42234" lon="0.22055">
        <ele>96.6</ele>
        <time>2022-05-31T11:38:52Z</time>
      </trkpt>
      <trkpt lat="49.42234" lon="0.22055">
        <ele>96.6</ele>
        <time>2022-05-31T11:38:53Z</time>
      </trkpt>
      <trkpt lat="49.42234" lon="0.22054">
        <ele>96.6</ele>
        <time>2022-05-31T11:38:54Z</time>
      </trkpt>
      <trkpt lat="49.42234" lon="0.22053">
        <ele>96.6</ele>
        <time>2022-05-31T11:38:55Z</time>
      </trkpt>
      <trkpt lat="49.42234" lon="0.22053">
        <ele>96.6</ele>
        <time>2022-05-31T11:38:56Z</time>
      </trkpt>
      <trkpt lat="49.42234" lon="0.22053">
        <ele>96.6</ele>
        <time>2022-05-31T11:38:57Z</time>
      </trkpt>
      <trkpt lat="49.42234" lon="0.22053">
        <ele>96.6</ele>
        <time>2022-05-31T11:38:58Z</time>
      </trkpt>
      <trkpt lat="49.42234" lon="0.22053">
        <ele>96.6</ele>
        <time>2022-05-31T11:38:59Z</time>
      </trkpt>
      <trkpt lat="49.42234" lon="0.22053">
        <ele>96.6</ele>
        <time>2022-05-31T11:39:00Z</time>
      </trkpt>
      <trkpt lat="49.42234" lon="0.22053">
        <ele>96.6</ele>
        <time>2022-05-31T11:39:01Z</time>
      </trkpt>
      <trkpt lat="49.42234" lon="0.22056">
        <ele>96.6</ele>
        <time>2022-05-31T11:39:03Z</time>
      </trkpt>
      <trkpt lat="49.42234" lon="0.22057">
        <ele>96.6</ele>
        <time>2022-05-31T11:39:04Z</time>
      </trkpt>
      <trkpt lat="49.42234" lon="0.22057">
        <ele>96.6</ele>
        <time>2022-05-31T11:39:05Z</time>
      </trkpt>
      <trkpt lat="49.42234" lon="0.22057">
        <ele>96.6</ele>
        <time>2022-05-31T11:39:06Z</time>
      </trkpt>
      <trkpt lat="49.42234" lon="0.22057">
        <ele>96.6</ele>
        <time>2022-05-31T11:39:07Z</time>
      </trkpt>
      <trkpt lat="49.42234" lon="0.22057">
        <ele>96.6</ele>
        <time>2022-05-31T11:39:08Z</time>
      </trkpt>
      <trkpt lat="49.42234" lon="0.22057">
        <ele>96.6</ele>
        <time>2022-05-31T11:39:09Z</time>
      </trkpt>
      <trkpt lat="49.42234" lon="0.22057">
        <ele>96.6</ele>
        <time>2022-05-31T11:39:10Z</time>
      </trkpt>
      <trkpt lat="49.42234" lon="0.22057">
        <ele>96.6</ele>
        <time>2022-05-31T11:39:11Z</time>
      </trkpt>
      <trkpt lat="49.42234" lon="0.22057">
        <ele>96.6</ele>
        <time>2022-05-31T11:39:12Z</time>
      </trkpt>
      <trkpt lat="49.42234" lon="0.22057">
        <ele>96.6</ele>
        <time>2022-05-31T11:39:14Z</time>
      </trkpt>
      <trkpt lat="49.42234" lon="0.22058">
        <ele>96.6</ele>
        <time>2022-05-31T11:39:15Z</time>
      </trkpt>
      <trkpt lat="49.42234" lon="0.22059">
        <ele>96.6</ele>
        <time>2022-05-31T11:39:16Z</time>
      </trkpt>
      <trkpt lat="49.42234" lon="0.22061">
        <ele>96.6</ele>
        <time>2022-05-31T11:39:18Z</time>
      </trkpt>
      <trkpt lat="49.42234" lon="0.22063">
        <ele>96.6</ele>
        <time>2022-05-31T11:39:19Z</time>
      </trkpt>
      <trkpt lat="49.42234" lon="0.22064">
        <ele>96.6</ele>
        <time>2022-05-31T11:39:20Z</time>
      </trkpt>
      <trkpt lat="49.42234" lon="0.22065">
        <ele>96.6</ele>
        <time>2022-05-31T11:39:21Z</time>
      </trkpt>
      <trkpt lat="49.42234" lon="0.22066">
        <ele>96.6</ele>
        <time>2022-05-31T11:39:22Z</time>
      </trkpt>
      <trkpt lat="49.42234" lon="0.22068">
        <ele>96.6</ele>
        <time>2022-05-31T11:39:24Z</time>
      </trkpt>
      <trkpt lat="49.42234" lon="0.22069">
        <ele>96.6</ele>
        <time>2022-05-31T11:39:25Z</time>
      </trkpt>
      <trkpt lat="49.42233" lon="0.2207">
        <ele>96.6</ele>
        <time>2022-05-31T11:39:26Z</time>
      </trkpt>
      <trkpt lat="49.42233" lon="0.22071">
        <ele>96.6</ele>
        <time>2022-05-31T11:39:27Z</time>
      </trkpt>
      <trkpt lat="49.42233" lon="0.22072">
        <ele>96.5</ele>
        <time>2022-05-31T11:39:28Z</time>
      </trkpt>
      <trkpt lat="49.42233" lon="0.22073">
        <ele>96.5</ele>
        <time>2022-05-31T11:39:29Z</time>
      </trkpt>
      <trkpt lat="49.42233" lon="0.22074">
        <ele>96.5</ele>
        <time>2022-05-31T11:39:30Z</time>
      </trkpt>
      <trkpt lat="49.42233" lon="0.22075">
        <ele>96.5</ele>
        <time>2022-05-31T11:39:32Z</time>
      </trkpt>
      <trkpt lat="49.42233" lon="0.22076">
        <ele>96.5</ele>
        <time>2022-05-31T11:39:33Z</time>
      </trkpt>
      <trkpt lat="49.42233" lon="0.22077">
        <ele>96.5</ele>
        <time>2022-05-31T11:39:34Z</time>
      </trkpt>
      <trkpt lat="49.42232" lon="0.22078">
        <ele>96.5</ele>
        <time>2022-05-31T11:39:35Z</time>
      </trkpt>
      <trkpt lat="49.42232" lon="0.22079">
        <ele>96.5</ele>
        <time>2022-05-31T11:39:36Z</time>
      </trkpt>
      <trkpt lat="49.42232" lon="0.2208">
        <ele>96.5</ele>
        <time>2022-05-31T11:39:37Z</time>
      </trkpt>
      <trkpt lat="49.42233" lon="0.22081">
        <ele>96.5</ele>
        <time>2022-05-31T11:39:38Z</time>
      </trkpt>
      <trkpt lat="49.42233" lon="0.22081">
        <ele>96.5</ele>
        <time>2022-05-31T11:39:39Z</time>
      </trkpt>
      <trkpt lat="49.42233" lon="0.22082">
        <ele>96.5</ele>
        <time>2022-05-31T11:39:40Z</time>
      </trkpt>
      <trkpt lat="49.42234" lon="0.22084">
        <ele>96.4</ele>
        <time>2022-05-31T11:39:42Z</time>
      </trkpt>
      <trkpt lat="49.42235" lon="0.22085">
        <ele>96.4</ele>
        <time>2022-05-31T11:39:43Z</time>
      </trkpt>
      <trkpt lat="49.42235" lon="0.22087">
        <ele>96.4</ele>
        <time>2022-05-31T11:39:44Z</time>
      </trkpt>
      <trkpt lat="49.42236" lon="0.22088">
        <ele>96.4</ele>
        <time>2022-05-31T11:39:45Z</time>
      </trkpt>
      <trkpt lat="49.42236" lon="0.22089">
        <ele>96.4</ele>
        <time>2022-05-31T11:39:46Z</time>
      </trkpt>
      <trkpt lat="49.42237" lon="0.22092">
        <ele>96.4</ele>
        <time>2022-05-31T11:39:47Z</time>
      </trkpt>
      <trkpt lat="49.42239" lon="0.22096">
        <ele>96.3</ele>
        <time>2022-05-31T11:39:48Z</time>
      </trkpt>
      <trkpt lat="49.42239" lon="0.22098">
        <ele>96.3</ele>
        <time>2022-05-31T11:39:49Z</time>
      </trkpt>
      <trkpt lat="49.4224" lon="0.22102">
        <ele>96.3</ele>
        <time>2022-05-31T11:39:51Z</time>
      </trkpt>
      <trkpt lat="49.42241" lon="0.22104">
        <ele>96.2</ele>
        <time>2022-05-31T11:39:52Z</time>
      </trkpt>
      <trkpt lat="49.42241" lon="0.22106">
        <ele>96.2</ele>
        <time>2022-05-31T11:39:53Z</time>
      </trkpt>
      <trkpt lat="49.42242" lon="0.22108">
        <ele>96.2</ele>
        <time>2022-05-31T11:39:54Z</time>
      </trkpt>
      <trkpt lat="49.42243" lon="0.22111">
        <ele>96.1</ele>
        <time>2022-05-31T11:39:55Z</time>
      </trkpt>
      <trkpt lat="49.42244" lon="0.22112">
        <ele>96.1</ele>
        <time>2022-05-31T11:39:56Z</time>
      </trkpt>
      <trkpt lat="49.42244" lon="0.22114">
        <ele>96.1</ele>
        <time>2022-05-31T11:39:58Z</time>
      </trkpt>
      <trkpt lat="49.42245" lon="0.22115">
        <ele>96.1</ele>
        <time>2022-05-31T11:39:59Z</time>
      </trkpt>
      <trkpt lat="49.42245" lon="0.22117">
        <ele>95.9</ele>
        <time>2022-05-31T11:40:00Z</time>
      </trkpt>
      <trkpt lat="49.42245" lon="0.22118">
        <ele>95.9</ele>
        <time>2022-05-31T11:40:01Z</time>
      </trkpt>
      <trkpt lat="49.42246" lon="0.22121">
        <ele>95.8</ele>
        <time>2022-05-31T11:40:02Z</time>
      </trkpt>
      <trkpt lat="49.42246" lon="0.22123">
        <ele>95.8</ele>
        <time>2022-05-31T11:40:03Z</time>
      </trkpt>
      <trkpt lat="49.42247" lon="0.22126">
        <ele>95.8</ele>
        <time>2022-05-31T11:40:05Z</time>
      </trkpt>
      <trkpt lat="49.42248" lon="0.22127">
        <ele>95.7</ele>
        <time>2022-05-31T11:40:06Z</time>
      </trkpt>
      <trkpt lat="49.42249" lon="0.22128">
        <ele>95.7</ele>
        <time>2022-05-31T11:40:07Z</time>
      </trkpt>
      <trkpt lat="49.4225" lon="0.22129">
        <ele>95.7</ele>
        <time>2022-05-31T11:40:08Z</time>
      </trkpt>
      <trkpt lat="49.42252" lon="0.22129">
        <ele>95.6</ele>
        <time>2022-05-31T11:40:09Z</time>
      </trkpt>
      <trkpt lat="49.42252" lon="0.22129">
        <ele>95.6</ele>
        <time>2022-05-31T11:40:10Z</time>
      </trkpt>
      <trkpt lat="49.42254" lon="0.22128">
        <ele>95.6</ele>
        <time>2022-05-31T11:40:11Z</time>
      </trkpt>
      <trkpt lat="49.42255" lon="0.22129">
        <ele>95.6</ele>
        <time>2022-05-31T11:40:12Z</time>
      </trkpt>
      <trkpt lat="49.42256" lon="0.22129">
        <ele>95.5</ele>
        <time>2022-05-31T11:40:14Z</time>
      </trkpt>
      <trkpt lat="49.42257" lon="0.22129">
        <ele>95.5</ele>
        <time>2022-05-31T11:40:15Z</time>
      </trkpt>
      <trkpt lat="49.42258" lon="0.22129">
        <ele>95.5</ele>
        <time>2022-05-31T11:40:16Z</time>
      </trkpt>
      <trkpt lat="49.42259" lon="0.2213">
        <ele>95.4</ele>
        <time>2022-05-31T11:40:17Z</time>
      </trkpt>
      <trkpt lat="49.4226" lon="0.2213">
        <ele>95.4</ele>
        <time>2022-05-31T11:40:18Z</time>
      </trkpt>
      <trkpt lat="49.42261" lon="0.2213">
        <ele>95.4</ele>
        <time>2022-05-31T11:40:19Z</time>
      </trkpt>
      <trkpt lat="49.42262" lon="0.22131">
        <ele>95.4</ele>
        <time>2022-05-31T11:40:21Z</time>
      </trkpt>
      <trkpt lat="49.42263" lon="0.22131">
        <ele>95.4</ele>
        <time>2022-05-31T11:40:22Z</time>
      </trkpt>
      <trkpt lat="49.42263" lon="0.22132">
        <ele>95.3</ele>
        <time>2022-05-31T11:40:23Z</time>
      </trkpt>
      <trkpt lat="49.42264" lon="0.22133">
        <ele>95.3</ele>
        <time>2022-05-31T11:40:24Z</time>
      </trkpt>
      <trkpt lat="49.42265" lon="0.22134">
        <ele>95.3</ele>
        <time>2022-05-31T11:40:25Z</time>
      </trkpt>
      <trkpt lat="49.42266" lon="0.22134">
        <ele>95.3</ele>
        <time>2022-05-31T11:40:26Z</time>
      </trkpt>
      <trkpt lat="49.42266" lon="0.22135">
        <ele>95.2</ele>
        <time>2022-05-31T11:40:27Z</time>
      </trkpt>
      <trkpt lat="49.42267" lon="0.22135">
        <ele>95.2</ele>
        <time>2022-05-31T11:40:28Z</time>
      </trkpt>
      <trkpt lat="49.42267" lon="0.22136">
        <ele>95.2</ele>
        <time>2022-05-31T11:40:29Z</time>
      </trkpt>
      <trkpt lat="49.42267" lon="0.22135">
        <ele>95.2</ele>
        <time>2022-05-31T11:40:31Z</time>
      </trkpt>
      <trkpt lat="49.42268" lon="0.22135">
        <ele>95.2</ele>
        <time>2022-05-31T11:40:32Z</time>
      </trkpt>
      <trkpt lat="49.42268" lon="0.22135">
        <ele>95.2</ele>
        <time>2022-05-31T11:40:33Z</time>
      </trkpt>
      <trkpt lat="49.42268" lon="0.22135">
        <ele>95.2</ele>
        <time>2022-05-31T11:40:34Z</time>
      </trkpt>
      <trkpt lat="49.42269" lon="0.22135">
        <ele>95.1</ele>
        <time>2022-05-31T11:40:35Z</time>
      </trkpt>
      <trkpt lat="49.4227" lon="0.22136">
        <ele>95.1</ele>
        <time>2022-05-31T11:40:36Z</time>
      </trkpt>
      <trkpt lat="49.42271" lon="0.22136">
        <ele>95.1</ele>
        <time>2022-05-31T11:40:38Z</time>
      </trkpt>
      <trkpt lat="49.42272" lon="0.22136">
        <ele>95.1</ele>
        <time>2022-05-31T11:40:39Z</time>
      </trkpt>
      <trkpt lat="49.42273" lon="0.22135">
        <ele>95</ele>
        <time>2022-05-31T11:40:40Z</time>
      </trkpt>
      <trkpt lat="49.42274" lon="0.22133">
        <ele>95</ele>
        <time>2022-05-31T11:40:41Z</time>
      </trkpt>
      <trkpt lat="49.42275" lon="0.22132">
        <ele>94.9</ele>
        <time>2022-05-31T11:40:42Z</time>
      </trkpt>
      <trkpt lat="49.42276" lon="0.22131">
        <ele>94.9</ele>
        <time>2022-05-31T11:40:43Z</time>
      </trkpt>
      <trkpt lat="49.42277" lon="0.22131">
        <ele>94.9</ele>
        <time>2022-05-31T11:40:44Z</time>
      </trkpt>
      <trkpt lat="49.42278" lon="0.22131">
        <ele>94.8</ele>
        <time>2022-05-31T11:40:46Z</time>
      </trkpt>
      <trkpt lat="49.42279" lon="0.22132">
        <ele>94.8</ele>
        <time>2022-05-31T11:40:47Z</time>
      </trkpt>
      <trkpt lat="49.4228" lon="0.22133">
        <ele>94.8</ele>
        <time>2022-05-31T11:40:48Z</time>
      </trkpt>
      <trkpt lat="49.42281" lon="0.22134">
        <ele>94.7</ele>
        <time>2022-05-31T11:40:49Z</time>
      </trkpt>
      <trkpt lat="49.42281" lon="0.22135">
        <ele>94.7</ele>
        <time>2022-05-31T11:40:50Z</time>
      </trkpt>
      <trkpt lat="49.42283" lon="0.22135">
        <ele>94.7</ele>
        <time>2022-05-31T11:40:51Z</time>
      </trkpt>
      <trkpt lat="49.42283" lon="0.22136">
        <ele>94.7</ele>
        <time>2022-05-31T11:40:52Z</time>
      </trkpt>
      <trkpt lat="49.42282" lon="0.22138">
        <ele>94.6</ele>
        <time>2022-05-31T11:40:53Z</time>
      </trkpt>
      <trkpt lat="49.42282" lon="0.2214">
        <ele>94.6</ele>
        <time>2022-05-31T11:40:54Z</time>
      </trkpt>
      <trkpt lat="49.42281" lon="0.22142">
        <ele>94.6</ele>
        <time>2022-05-31T11:40:55Z</time>
      </trkpt>
      <trkpt lat="49.42281" lon="0.22143">
        <ele>94.5</ele>
        <time>2022-05-31T11:40:56Z</time>
      </trkpt>
      <trkpt lat="49.42281" lon="0.22144">
        <ele>94.5</ele>
        <time>2022-05-31T11:40:57Z</time>
      </trkpt>
      <trkpt lat="49.42281" lon="0.22144">
        <ele>94.5</ele>
        <time>2022-05-31T11:40:59Z</time>
      </trkpt>
      <trkpt lat="49.42281" lon="0.22145">
        <ele>94.5</ele>
        <time>2022-05-31T11:41:00Z</time>
      </trkpt>
      <trkpt lat="49.42281" lon="0.22145">
        <ele>94.5</ele>
        <time>2022-05-31T11:41:01Z</time>
      </trkpt>
      <trkpt lat="49.42281" lon="0.22145">
        <ele>94.5</ele>
        <time>2022-05-31T11:41:02Z</time>
      </trkpt>
      <trkpt lat="49.42281" lon="0.22145">
        <ele>94.5</ele>
        <time>2022-05-31T11:41:03Z</time>
      </trkpt>
      <trkpt lat="49.42282" lon="0.22145">
        <ele>94.5</ele>
        <time>2022-05-31T11:41:04Z</time>
      </trkpt>
      <trkpt lat="49.42282" lon="0.22145">
        <ele>94.5</ele>
        <time>2022-05-31T11:41:05Z</time>
      </trkpt>
      <trkpt lat="49.42282" lon="0.22145">
        <ele>94.5</ele>
        <time>2022-05-31T11:41:07Z</time>
      </trkpt>
      <trkpt lat="49.42282" lon="0.22145">
        <ele>94.5</ele>
        <time>2022-05-31T11:41:08Z</time>
      </trkpt>
      <trkpt lat="49.42282" lon="0.22145">
        <ele>94.5</ele>
        <time>2022-05-31T11:41:09Z</time>
      </trkpt>
      <trkpt lat="49.42282" lon="0.22145">
        <ele>94.5</ele>
        <time>2022-05-31T11:41:11Z</time>
      </trkpt>
      <trkpt lat="49.42282" lon="0.22145">
        <ele>94.5</ele>
        <time>2022-05-31T11:41:13Z</time>
      </trkpt>
      <trkpt lat="49.42283" lon="0.22145">
        <ele>94.5</ele>
        <time>2022-05-31T11:41:14Z</time>
      </trkpt>
      <trkpt lat="49.42283" lon="0.22146">
        <ele>94.4</ele>
        <time>2022-05-31T11:41:15Z</time>
      </trkpt>
      <trkpt lat="49.42283" lon="0.22147">
        <ele>94.4</ele>
        <time>2022-05-31T11:41:16Z</time>
      </trkpt>
      <trkpt lat="49.42283" lon="0.22147">
        <ele>94.4</ele>
        <time>2022-05-31T11:41:17Z</time>
      </trkpt>
      <trkpt lat="49.42284" lon="0.22148">
        <ele>94.4</ele>
        <time>2022-05-31T11:41:19Z</time>
      </trkpt>
      <trkpt lat="49.42285" lon="0.22149">
        <ele>94.4</ele>
        <time>2022-05-31T11:41:20Z</time>
      </trkpt>
      <trkpt lat="49.42286" lon="0.2215">
        <ele>94.3</ele>
        <time>2022-05-31T11:41:21Z</time>
      </trkpt>
      <trkpt lat="49.42286" lon="0.22151">
        <ele>94.3</ele>
        <time>2022-05-31T11:41:23Z</time>
      </trkpt>
      <trkpt lat="49.42287" lon="0.22152">
        <ele>94.3</ele>
        <time>2022-05-31T11:41:24Z</time>
      </trkpt>
      <trkpt lat="49.42288" lon="0.22154">
        <ele>94.2</ele>
        <time>2022-05-31T11:41:25Z</time>
      </trkpt>
      <trkpt lat="49.4229" lon="0.22154">
        <ele>94.1</ele>
        <time>2022-05-31T11:41:26Z</time>
      </trkpt>
      <trkpt lat="49.42291" lon="0.22154">
        <ele>94.1</ele>
        <time>2022-05-31T11:41:27Z</time>
      </trkpt>
      <trkpt lat="49.42292" lon="0.22154">
        <ele>94.1</ele>
        <time>2022-05-31T11:41:28Z</time>
      </trkpt>
      <trkpt lat="49.42293" lon="0.22154">
        <ele>94</ele>
        <time>2022-05-31T11:41:30Z</time>
      </trkpt>
      <trkpt lat="49.42296" lon="0.22153">
        <ele>93.9</ele>
        <time>2022-05-31T11:41:31Z</time>
      </trkpt>
      <trkpt lat="49.42297" lon="0.22153">
        <ele>93.9</ele>
        <time>2022-05-31T11:41:32Z</time>
      </trkpt>
      <trkpt lat="49.42298" lon="0.22154">
        <ele>93.8</ele>
        <time>2022-05-31T11:41:33Z</time>
      </trkpt>
      <trkpt lat="49.423" lon="0.22157">
        <ele>93.7</ele>
        <time>2022-05-31T11:41:34Z</time>
      </trkpt>
      <trkpt lat="49.42301" lon="0.22157">
        <ele>93.7</ele>
        <time>2022-05-31T11:41:35Z</time>
      </trkpt>
      <trkpt lat="49.42301" lon="0.22158">
        <ele>93.6</ele>
        <time>2022-05-31T11:41:36Z</time>
      </trkpt>
      <trkpt lat="49.42301" lon="0.2216">
        <ele>93.6</ele>
        <time>2022-05-31T11:41:38Z</time>
      </trkpt>
      <trkpt lat="49.42301" lon="0.22161">
        <ele>93.5</ele>
        <time>2022-05-31T11:41:39Z</time>
      </trkpt>
      <trkpt lat="49.42302" lon="0.22162">
        <ele>93.5</ele>
        <time>2022-05-31T11:41:40Z</time>
      </trkpt>
      <trkpt lat="49.42302" lon="0.22163">
        <ele>93.5</ele>
        <time>2022-05-31T11:41:41Z</time>
      </trkpt>
      <trkpt lat="49.42304" lon="0.22165">
        <ele>93.3</ele>
        <time>2022-05-31T11:41:42Z</time>
      </trkpt>
      <trkpt lat="49.42305" lon="0.22166">
        <ele>93.3</ele>
        <time>2022-05-31T11:41:43Z</time>
      </trkpt>
      <trkpt lat="49.42305" lon="0.22168">
        <ele>93.2</ele>
        <time>2022-05-31T11:41:44Z</time>
      </trkpt>
      <trkpt lat="49.42306" lon="0.22169">
        <ele>93.2</ele>
        <time>2022-05-31T11:41:45Z</time>
      </trkpt>
      <trkpt lat="49.42307" lon="0.2217">
        <ele>93.1</ele>
        <time>2022-05-31T11:41:47Z</time>
      </trkpt>
      <trkpt lat="49.42308" lon="0.22171">
        <ele>93.1</ele>
        <time>2022-05-31T11:41:48Z</time>
      </trkpt>
      <trkpt lat="49.42308" lon="0.22172">
        <ele>93</ele>
        <time>2022-05-31T11:41:49Z</time>
      </trkpt>
      <trkpt lat="49.42308" lon="0.22172">
        <ele>93</ele>
        <time>2022-05-31T11:41:50Z</time>
      </trkpt>
      <trkpt lat="49.42308" lon="0.22172">
        <ele>93</ele>
        <time>2022-05-31T11:41:51Z</time>
      </trkpt>
      <trkpt lat="49.42309" lon="0.22173">
        <ele>92.9</ele>
        <time>2022-05-31T11:41:52Z</time>
      </trkpt>
      <trkpt lat="49.4231" lon="0.22174">
        <ele>92.9</ele>
        <time>2022-05-31T11:41:53Z</time>
      </trkpt>
      <trkpt lat="49.42311" lon="0.22175">
        <ele>92.8</ele>
        <time>2022-05-31T11:41:54Z</time>
      </trkpt>
      <trkpt lat="49.42312" lon="0.22176">
        <ele>92.8</ele>
        <time>2022-05-31T11:41:55Z</time>
      </trkpt>
      <trkpt lat="49.42313" lon="0.22177">
        <ele>92.7</ele>
        <time>2022-05-31T11:41:56Z</time>
      </trkpt>
      <trkpt lat="49.42313" lon="0.22178">
        <ele>92.6</ele>
        <time>2022-05-31T11:41:58Z</time>
      </trkpt>
      <trkpt lat="49.42314" lon="0.22178">
        <ele>92.6</ele>
        <time>2022-05-31T11:41:59Z</time>
      </trkpt>
      <trkpt lat="49.42314" lon="0.22178">
        <ele>92.6</ele>
        <time>2022-05-31T11:42:00Z</time>
      </trkpt>
      <trkpt lat="49.42315" lon="0.22178">
        <ele>92.6</ele>
        <time>2022-05-31T11:42:01Z</time>
      </trkpt>
      <trkpt lat="49.42315" lon="0.22179">
        <ele>92.5</ele>
        <time>2022-05-31T11:42:02Z</time>
      </trkpt>
      <trkpt lat="49.42316" lon="0.22179">
        <ele>92.5</ele>
        <time>2022-05-31T11:42:03Z</time>
      </trkpt>
      <trkpt lat="49.42316" lon="0.22179">
        <ele>92.5</ele>
        <time>2022-05-31T11:42:04Z</time>
      </trkpt>
      <trkpt lat="49.42318" lon="0.2218">
        <ele>92.4</ele>
        <time>2022-05-31T11:42:05Z</time>
      </trkpt>
      <trkpt lat="49.42319" lon="0.22181">
        <ele>92.4</ele>
        <time>2022-05-31T11:42:06Z</time>
      </trkpt>
      <trkpt lat="49.42322" lon="0.22183">
        <ele>92.2</ele>
        <time>2022-05-31T11:42:08Z</time>
      </trkpt>
      <trkpt lat="49.42323" lon="0.22184">
        <ele>92.2</ele>
        <time>2022-05-31T11:42:09Z</time>
      </trkpt>
      <trkpt lat="49.42326" lon="0.22186">
        <ele>92</ele>
        <time>2022-05-31T11:42:10Z</time>
      </trkpt>
      <trkpt lat="49.42326" lon="0.22186">
        <ele>91.9</ele>
        <time>2022-05-31T11:42:11Z</time>
      </trkpt>
      <trkpt lat="49.42329" lon="0.22188">
        <ele>91.8</ele>
        <time>2022-05-31T11:42:12Z</time>
      </trkpt>
      <trkpt lat="49.4233" lon="0.22189">
        <ele>91.7</ele>
        <time>2022-05-31T11:42:13Z</time>
      </trkpt>
      <trkpt lat="49.42333" lon="0.2219">
        <ele>91.5</ele>
        <time>2022-05-31T11:42:14Z</time>
      </trkpt>
      <trkpt lat="49.42334" lon="0.22191">
        <ele>91.5</ele>
        <time>2022-05-31T11:42:15Z</time>
      </trkpt>
      <trkpt lat="49.42336" lon="0.22191">
        <ele>91.4</ele>
        <time>2022-05-31T11:42:16Z</time>
      </trkpt>
      <trkpt lat="49.42338" lon="0.22192">
        <ele>91.2</ele>
        <time>2022-05-31T11:42:18Z</time>
      </trkpt>
      <trkpt lat="49.42341" lon="0.22193">
        <ele>91</ele>
        <time>2022-05-31T11:42:19Z</time>
      </trkpt>
      <trkpt lat="49.42342" lon="0.22194">
        <ele>91</ele>
        <time>2022-05-31T11:42:20Z</time>
      </trkpt>
      <trkpt lat="49.42344" lon="0.22194">
        <ele>90.9</ele>
        <time>2022-05-31T11:42:21Z</time>
      </trkpt>
      <trkpt lat="49.42345" lon="0.22195">
        <ele>90.8</ele>
        <time>2022-05-31T11:42:22Z</time>
      </trkpt>
      <trkpt lat="49.42348" lon="0.22196">
        <ele>90.6</ele>
        <time>2022-05-31T11:42:23Z</time>
      </trkpt>
      <trkpt lat="49.42349" lon="0.22196">
        <ele>90.5</ele>
        <time>2022-05-31T11:42:24Z</time>
      </trkpt>
      <trkpt lat="49.42349" lon="0.22197">
        <ele>90.5</ele>
        <time>2022-05-31T11:42:25Z</time>
      </trkpt>
      <trkpt lat="49.4235" lon="0.22196">
        <ele>90.4</ele>
        <time>2022-05-31T11:42:26Z</time>
      </trkpt>
      <trkpt lat="49.42351" lon="0.22196">
        <ele>90.3</ele>
        <time>2022-05-31T11:42:27Z</time>
      </trkpt>
      <trkpt lat="49.42352" lon="0.22196">
        <ele>90.3</ele>
        <time>2022-05-31T11:42:28Z</time>
      </trkpt>
      <trkpt lat="49.42353" lon="0.22195">
        <ele>90.2</ele>
        <time>2022-05-31T11:42:29Z</time>
      </trkpt>
      <trkpt lat="49.42354" lon="0.22195">
        <ele>90.1</ele>
        <time>2022-05-31T11:42:30Z</time>
      </trkpt>
      <trkpt lat="49.42354" lon="0.22195">
        <ele>90.1</ele>
        <time>2022-05-31T11:42:31Z</time>
      </trkpt>
      <trkpt lat="49.42355" lon="0.22195">
        <ele>90.1</ele>
        <time>2022-05-31T11:42:32Z</time>
      </trkpt>
      <trkpt lat="49.42355" lon="0.22196">
        <ele>90</ele>
        <time>2022-05-31T11:42:33Z</time>
      </trkpt>
      <trkpt lat="49.42356" lon="0.22196">
        <ele>90</ele>
        <time>2022-05-31T11:42:34Z</time>
      </trkpt>
      <trkpt lat="49.42357" lon="0.22198">
        <ele>89.9</ele>
        <time>2022-05-31T11:42:36Z</time>
      </trkpt>
      <trkpt lat="49.42357" lon="0.22199">
        <ele>89.8</ele>
        <time>2022-05-31T11:42:37Z</time>
      </trkpt>
      <trkpt lat="49.42358" lon="0.222">
        <ele>89.8</ele>
        <time>2022-05-31T11:42:38Z</time>
      </trkpt>
      <trkpt lat="49.42358" lon="0.22201">
        <ele>89.7</ele>
        <time>2022-05-31T11:42:39Z</time>
      </trkpt>
      <trkpt lat="49.42359" lon="0.22202">
        <ele>89.6</ele>
        <time>2022-05-31T11:42:41Z</time>
      </trkpt>
      <trkpt lat="49.4236" lon="0.22202">
        <ele>89.6</ele>
        <time>2022-05-31T11:42:42Z</time>
      </trkpt>
      <trkpt lat="49.4236" lon="0.22202">
        <ele>89.5</ele>
        <time>2022-05-31T11:42:43Z</time>
      </trkpt>
      <trkpt lat="49.42361" lon="0.22203">
        <ele>89.5</ele>
        <time>2022-05-31T11:42:45Z</time>
      </trkpt>
      <trkpt lat="49.42361" lon="0.22203">
        <ele>89.5</ele>
        <time>2022-05-31T11:42:46Z</time>
      </trkpt>
      <trkpt lat="49.42361" lon="0.22202">
        <ele>89.5</ele>
        <time>2022-05-31T11:42:47Z</time>
      </trkpt>
      <trkpt lat="49.42361" lon="0.22202">
        <ele>89.5</ele>
        <time>2022-05-31T11:42:48Z</time>
      </trkpt>
      <trkpt lat="49.42361" lon="0.22202">
        <ele>89.5</ele>
        <time>2022-05-31T11:42:50Z</time>
      </trkpt>
      <trkpt lat="49.42361" lon="0.22202">
        <ele>89.5</ele>
        <time>2022-05-31T11:42:51Z</time>
      </trkpt>
      <trkpt lat="49.42361" lon="0.22202">
        <ele>89.5</ele>
        <time>2022-05-31T11:42:52Z</time>
      </trkpt>
      <trkpt lat="49.42361" lon="0.22202">
        <ele>89.5</ele>
        <time>2022-05-31T11:42:53Z</time>
      </trkpt>
      <trkpt lat="49.42361" lon="0.22202">
        <ele>89.4</ele>
        <time>2022-05-31T11:42:55Z</time>
      </trkpt>
      <trkpt lat="49.42361" lon="0.22202">
        <ele>89.4</ele>
        <time>2022-05-31T11:42:56Z</time>
      </trkpt>
      <trkpt lat="49.42361" lon="0.22202">
        <ele>89.4</ele>
        <time>2022-05-31T11:42:57Z</time>
      </trkpt>
      <trkpt lat="49.42361" lon="0.22202">
        <ele>89.4</ele>
        <time>2022-05-31T11:42:58Z</time>
      </trkpt>
      <trkpt lat="49.42361" lon="0.22202">
        <ele>89.4</ele>
        <time>2022-05-31T11:42:59Z</time>
      </trkpt>
      <trkpt lat="49.42361" lon="0.22202">
        <ele>89.4</ele>
        <time>2022-05-31T11:43:00Z</time>
      </trkpt>
      <trkpt lat="49.42361" lon="0.22201">
        <ele>89.4</ele>
        <time>2022-05-31T11:43:01Z</time>
      </trkpt>
      <trkpt lat="49.42361" lon="0.22202">
        <ele>89.4</ele>
        <time>2022-05-31T11:43:02Z</time>
      </trkpt>
      <trkpt lat="49.42361" lon="0.22202">
        <ele>89.4</ele>
        <time>2022-05-31T11:43:03Z</time>
      </trkpt>
      <trkpt lat="49.4236" lon="0.22202">
        <ele>89.4</ele>
        <time>2022-05-31T11:43:04Z</time>
      </trkpt>
      <trkpt lat="49.4236" lon="0.22202">
        <ele>89.4</ele>
        <time>2022-05-31T11:43:05Z</time>
      </trkpt>
      <trkpt lat="49.4236" lon="0.22202">
        <ele>89.4</ele>
        <time>2022-05-31T11:43:06Z</time>
      </trkpt>
      <trkpt lat="49.4236" lon="0.22202">
        <ele>89.4</ele>
        <time>2022-05-31T11:43:07Z</time>
      </trkpt>
      <trkpt lat="49.4236" lon="0.22202">
        <ele>89.4</ele>
        <time>2022-05-31T11:43:08Z</time>
      </trkpt>
      <trkpt lat="49.4236" lon="0.22202">
        <ele>89.4</ele>
        <time>2022-05-31T11:43:09Z</time>
      </trkpt>
      <trkpt lat="49.4236" lon="0.22202">
        <ele>89.4</ele>
        <time>2022-05-31T11:43:10Z</time>
      </trkpt>
      <trkpt lat="49.4236" lon="0.22202">
        <ele>89.4</ele>
        <time>2022-05-31T11:43:11Z</time>
      </trkpt>
      <trkpt lat="49.4236" lon="0.22202">
        <ele>89.4</ele>
        <time>2022-05-31T11:43:12Z</time>
      </trkpt>
      <trkpt lat="49.4236" lon="0.22202">
        <ele>89.4</ele>
        <time>2022-05-31T11:43:13Z</time>
      </trkpt>
      <trkpt lat="49.4236" lon="0.22202">
        <ele>89.4</ele>
        <time>2022-05-31T11:43:14Z</time>
      </trkpt>
      <trkpt lat="49.4236" lon="0.22202">
        <ele>89.4</ele>
        <time>2022-05-31T11:43:15Z</time>
      </trkpt>
      <trkpt lat="49.4236" lon="0.22202">
        <ele>89.4</ele>
        <time>2022-05-31T11:43:16Z</time>
      </trkpt>
      <trkpt lat="49.4236" lon="0.22202">
        <ele>89.3</ele>
        <time>2022-05-31T11:43:17Z</time>
      </trkpt>
      <trkpt lat="49.4236" lon="0.22202">
        <ele>89.3</ele>
        <time>2022-05-31T11:43:18Z</time>
      </trkpt>
      <trkpt lat="49.4236" lon="0.22202">
        <ele>89.3</ele>
        <time>2022-05-31T11:43:19Z</time>
      </trkpt>
      <trkpt lat="49.4236" lon="0.22202">
        <ele>89.3</ele>
        <time>2022-05-31T11:43:20Z</time>
      </trkpt>
      <trkpt lat="49.4236" lon="0.22202">
        <ele>89.3</ele>
        <time>2022-05-31T11:43:21Z</time>
      </trkpt>
      <trkpt lat="49.4236" lon="0.22202">
        <ele>89.3</ele>
        <time>2022-05-31T11:43:22Z</time>
      </trkpt>
      <trkpt lat="49.4236" lon="0.22202">
        <ele>89.3</ele>
        <time>2022-05-31T11:43:23Z</time>
      </trkpt>
      <trkpt lat="49.4236" lon="0.22202">
        <ele>89.3</ele>
        <time>2022-05-31T11:43:24Z</time>
      </trkpt>
      <trkpt lat="49.4236" lon="0.22202">
        <ele>89.3</ele>
        <time>2022-05-31T11:43:25Z</time>
      </trkpt>
      <trkpt lat="49.4236" lon="0.22202">
        <ele>89.3</ele>
        <time>2022-05-31T11:43:26Z</time>
      </trkpt>
      <trkpt lat="49.4236" lon="0.22202">
        <ele>89.3</ele>
        <time>2022-05-31T11:43:27Z</time>
      </trkpt>
      <trkpt lat="49.4236" lon="0.22202">
        <ele>89.3</ele>
        <time>2022-05-31T11:43:28Z</time>
      </trkpt>
      <trkpt lat="49.4236" lon="0.22202">
        <ele>89.3</ele>
        <time>2022-05-31T11:43:29Z</time>
      </trkpt>
      <trkpt lat="49.4236" lon="0.22202">
        <ele>89.3</ele>
        <time>2022-05-31T11:43:30Z</time>
      </trkpt>
      <trkpt lat="49.4236" lon="0.22202">
        <ele>89.3</ele>
        <time>2022-05-31T11:43:31Z</time>
      </trkpt>
      <trkpt lat="49.4236" lon="0.22202">
        <ele>89.3</ele>
        <time>2022-05-31T11:43:32Z</time>
      </trkpt>
      <trkpt lat="49.4236" lon="0.22202">
        <ele>89.3</ele>
        <time>2022-05-31T11:43:33Z</time>
      </trkpt>
      <trkpt lat="49.4236" lon="0.22202">
        <ele>89.3</ele>
        <time>2022-05-31T11:43:34Z</time>
      </trkpt>
      <trkpt lat="49.4236" lon="0.22202">
        <ele>89.3</ele>
        <time>2022-05-31T11:43:35Z</time>
      </trkpt>
      <trkpt lat="49.4236" lon="0.22202">
        <ele>89.3</ele>
        <time>2022-05-31T11:43:36Z</time>
      </trkpt>
      <trkpt lat="49.4236" lon="0.22202">
        <ele>89.3</ele>
        <time>2022-05-31T11:43:37Z</time>
      </trkpt>
      <trkpt lat="49.4236" lon="0.22202">
        <ele>89.3</ele>
        <time>2022-05-31T11:43:38Z</time>
      </trkpt>
      <trkpt lat="49.4236" lon="0.22202">
        <ele>89.3</ele>
        <time>2022-05-31T11:43:39Z</time>
      </trkpt>
      <trkpt lat="49.4236" lon="0.22202">
        <ele>89.3</ele>
        <time>2022-05-31T11:43:40Z</time>
      </trkpt>
      <trkpt lat="49.4236" lon="0.22202">
        <ele>89.3</ele>
        <time>2022-05-31T11:43:41Z</time>
      </trkpt>
      <trkpt lat="49.4236" lon="0.22202">
        <ele>89.3</ele>
        <time>2022-05-31T11:43:42Z</time>
      </trkpt>
      <trkpt lat="49.4236" lon="0.22202">
        <ele>89.3</ele>
        <time>2022-05-31T11:43:43Z</time>
      </trkpt>
      <trkpt lat="49.4236" lon="0.22202">
        <ele>89.3</ele>
        <time>2022-05-31T11:43:44Z</time>
      </trkpt>
      <trkpt lat="49.4236" lon="0.22202">
        <ele>89.3</ele>
        <time>2022-05-31T11:43:45Z</time>
      </trkpt>
      <trkpt lat="49.4236" lon="0.22202">
        <ele>89.3</ele>
        <time>2022-05-31T11:43:46Z</time>
      </trkpt>
      <trkpt lat="49.4236" lon="0.22202">
        <ele>89.3</ele>
        <time>2022-05-31T11:43:47Z</time>
      </trkpt>
      <trkpt lat="49.4236" lon="0.22202">
        <ele>89.3</ele>
        <time>2022-05-31T11:43:48Z</time>
      </trkpt>
      <trkpt lat="49.4236" lon="0.22202">
        <ele>89.3</ele>
        <time>2022-05-31T11:43:49Z</time>
      </trkpt>
      <trkpt lat="49.4236" lon="0.22202">
        <ele>89.3</ele>
        <time>2022-05-31T11:43:50Z</time>
      </trkpt>
      <trkpt lat="49.4236" lon="0.22202">
        <ele>89.3</ele>
        <time>2022-05-31T11:43:51Z</time>
      </trkpt>
      <trkpt lat="49.4236" lon="0.22202">
        <ele>89.3</ele>
        <time>2022-05-31T11:43:52Z</time>
      </trkpt>
      <trkpt lat="49.4236" lon="0.22202">
        <ele>89.3</ele>
        <time>2022-05-31T11:43:53Z</time>
      </trkpt>
      <trkpt lat="49.4236" lon="0.22202">
        <ele>89.3</ele>
        <time>2022-05-31T11:43:54Z</time>
      </trkpt>
      <trkpt lat="49.4236" lon="0.22202">
        <ele>89.3</ele>
        <time>2022-05-31T11:43:55Z</time>
      </trkpt>
      <trkpt lat="49.4236" lon="0.22202">
        <ele>89.3</ele>
        <time>2022-05-31T11:43:56Z</time>
      </trkpt>
      <trkpt lat="49.4236" lon="0.22202">
        <ele>89.3</ele>
        <time>2022-05-31T11:43:57Z</time>
      </trkpt>
      <trkpt lat="49.4236" lon="0.22202">
        <ele>89.3</ele>
        <time>2022-05-31T11:43:58Z</time>
      </trkpt>
      <trkpt lat="49.4236" lon="0.22202">
        <ele>89.3</ele>
        <time>2022-05-31T11:43:59Z</time>
      </trkpt>
      <trkpt lat="49.4236" lon="0.22202">
        <ele>89.3</ele>
        <time>2022-05-31T11:44:00Z</time>
      </trkpt>
      <trkpt lat="49.4236" lon="0.22202">
        <ele>89.3</ele>
        <time>2022-05-31T11:44:01Z</time>
      </trkpt>
      <trkpt lat="49.4236" lon="0.22202">
        <ele>89.3</ele>
        <time>2022-05-31T11:44:02Z</time>
      </trkpt>
      <trkpt lat="49.4236" lon="0.22202">
        <ele>89.3</ele>
        <time>2022-05-31T11:44:03Z</time>
      </trkpt>
      <trkpt lat="49.4236" lon="0.22202">
        <ele>89.3</ele>
        <time>2022-05-31T11:44:04Z</time>
      </trkpt>
      <trkpt lat="49.4236" lon="0.22202">
        <ele>89.3</ele>
        <time>2022-05-31T11:44:05Z</time>
      </trkpt>
      <trkpt lat="49.4236" lon="0.22202">
        <ele>89.3</ele>
        <time>2022-05-31T11:44:06Z</time>
      </trkpt>
      <trkpt lat="49.4236" lon="0.22202">
        <ele>89.3</ele>
        <time>2022-05-31T11:44:07Z</time>
      </trkpt>
      <trkpt lat="49.4236" lon="0.22202">
        <ele>89.3</ele>
        <time>2022-05-31T11:44:08Z</time>
      </trkpt>
      <trkpt lat="49.4236" lon="0.22202">
        <ele>89.3</ele>
        <time>2022-05-31T11:44:09Z</time>
      </trkpt>
      <trkpt lat="49.4236" lon="0.22202">
        <ele>89.3</ele>
        <time>2022-05-31T11:44:10Z</time>
      </trkpt>
      <trkpt lat="49.4236" lon="0.22202">
        <ele>89.3</ele>
        <time>2022-05-31T11:44:11Z</time>
      </trkpt>
      <trkpt lat="49.4236" lon="0.22202">
        <ele>89.3</ele>
        <time>2022-05-31T11:44:12Z</time>
      </trkpt>
      <trkpt lat="49.4236" lon="0.22202">
        <ele>89.3</ele>
        <time>2022-05-31T11:44:13Z</time>
      </trkpt>
      <trkpt lat="49.4236" lon="0.22202">
        <ele>89.3</ele>
        <time>2022-05-31T11:44:14Z</time>
      </trkpt>
      <trkpt lat="49.4236" lon="0.22202">
        <ele>89.3</ele>
        <time>2022-05-31T11:44:15Z</time>
      </trkpt>
      <trkpt lat="49.4236" lon="0.22202">
        <ele>89.3</ele>
        <time>2022-05-31T11:44:16Z</time>
      </trkpt>
      <trkpt lat="49.4236" lon="0.22202">
        <ele>89.3</ele>
        <time>2022-05-31T11:44:17Z</time>
      </trkpt>
      <trkpt lat="49.4236" lon="0.22202">
        <ele>89.3</ele>
        <time>2022-05-31T11:44:18Z</time>
      </trkpt>
      <trkpt lat="49.4236" lon="0.22202">
        <ele>89.3</ele>
        <time>2022-05-31T11:44:19Z</time>
      </trkpt>
      <trkpt lat="49.4236" lon="0.22202">
        <ele>89.3</ele>
        <time>2022-05-31T11:44:20Z</time>
      </trkpt>
      <trkpt lat="49.4236" lon="0.22202">
        <ele>89.3</ele>
        <time>2022-05-31T11:44:21Z</time>
      </trkpt>
      <trkpt lat="49.4236" lon="0.22202">
        <ele>89.3</ele>
        <time>2022-05-31T11:44:22Z</time>
      </trkpt>
      <trkpt lat="49.4236" lon="0.22202">
        <ele>89.3</ele>
        <time>2022-05-31T11:44:23Z</time>
      </trkpt>
      <trkpt lat="49.4236" lon="0.22202">
        <ele>89.3</ele>
        <time>2022-05-31T11:44:24Z</time>
      </trkpt>
      <trkpt lat="49.4236" lon="0.22202">
        <ele>89.3</ele>
        <time>2022-05-31T11:44:25Z</time>
      </trkpt>
      <trkpt lat="49.4236" lon="0.22202">
        <ele>89.3</ele>
        <time>2022-05-31T11:44:26Z</time>
      </trkpt>
      <trkpt lat="49.4236" lon="0.22202">
        <ele>89.3</ele>
        <time>2022-05-31T11:44:27Z</time>
      </trkpt>
      <trkpt lat="49.4236" lon="0.22202">
        <ele>89.3</ele>
        <time>2022-05-31T11:44:28Z</time>
      </trkpt>
      <trkpt lat="49.4236" lon="0.22202">
        <ele>89.3</ele>
        <time>2022-05-31T11:44:29Z</time>
      </trkpt>
      <trkpt lat="49.4236" lon="0.22202">
        <ele>89.3</ele>
        <time>2022-05-31T11:44:30Z</time>
      </trkpt>
      <trkpt lat="49.4236" lon="0.22202">
        <ele>89.3</ele>
        <time>2022-05-31T11:44:31Z</time>
      </trkpt>
      <trkpt lat="49.4236" lon="0.22202">
        <ele>89.3</ele>
        <time>2022-05-31T11:44:32Z</time>
      </trkpt>
      <trkpt lat="49.4236" lon="0.22202">
        <ele>89.3</ele>
        <time>2022-05-31T11:44:33Z</time>
      </trkpt>
      <trkpt lat="49.4236" lon="0.22202">
        <ele>89.3</ele>
        <time>2022-05-31T11:44:34Z</time>
      </trkpt>
      <trkpt lat="49.4236" lon="0.22202">
        <ele>89.3</ele>
        <time>2022-05-31T11:44:36Z</time>
      </trkpt>
      <trkpt lat="49.4236" lon="0.22202">
        <ele>89.3</ele>
        <time>2022-05-31T11:44:37Z</time>
      </trkpt>
      <trkpt lat="49.4236" lon="0.22202">
        <ele>89.3</ele>
        <time>2022-05-31T11:44:38Z</time>
      </trkpt>
      <trkpt lat="49.4236" lon="0.22202">
        <ele>89.3</ele>
        <time>2022-05-31T11:44:39Z</time>
      </trkpt>
      <trkpt lat="49.4236" lon="0.22202">
        <ele>89.3</ele>
        <time>2022-05-31T11:44:40Z</time>
      </trkpt>
      <trkpt lat="49.4236" lon="0.22202">
        <ele>89.3</ele>
        <time>2022-05-31T11:44:41Z</time>
      </trkpt>
      <trkpt lat="49.42359" lon="0.22201">
        <ele>89.2</ele>
        <time>2022-05-31T11:44:42Z</time>
      </trkpt>
      <trkpt lat="49.42357" lon="0.222">
        <ele>89.1</ele>
        <time>2022-05-31T11:44:43Z</time>
      </trkpt>
      <trkpt lat="49.42357" lon="0.222">
        <ele>89.1</ele>
        <time>2022-05-31T11:44:44Z</time>
      </trkpt>
      <trkpt lat="49.42355" lon="0.22198">
        <ele>88.9</ele>
        <time>2022-05-31T11:44:46Z</time>
      </trkpt>
      <trkpt lat="49.42355" lon="0.22196">
        <ele>88.8</ele>
        <time>2022-05-31T11:44:47Z</time>
      </trkpt>
      <trkpt lat="49.42354" lon="0.22196">
        <ele>88.8</ele>
        <time>2022-05-31T11:44:48Z</time>
      </trkpt>
      <trkpt lat="49.42354" lon="0.22195">
        <ele>88.8</ele>
        <time>2022-05-31T11:44:49Z</time>
      </trkpt>
      <trkpt lat="49.42353" lon="0.22195">
        <ele>88.7</ele>
        <time>2022-05-31T11:44:50Z</time>
      </trkpt>
      <trkpt lat="49.42352" lon="0.22194">
        <ele>88.6</ele>
        <time>2022-05-31T11:44:52Z</time>
      </trkpt>
      <trkpt lat="49.42351" lon="0.22195">
        <ele>88.5</ele>
        <time>2022-05-31T11:44:53Z</time>
      </trkpt>
      <trkpt lat="49.4235" lon="0.22195">
        <ele>88.5</ele>
        <time>2022-05-31T11:44:54Z</time>
      </trkpt>
      <trkpt lat="49.4235" lon="0.22196">
        <ele>88.4</ele>
        <time>2022-05-31T11:44:55Z</time>
      </trkpt>
      <trkpt lat="49.42349" lon="0.22197">
        <ele>88.3</ele>
        <time>2022-05-31T11:44:56Z</time>
      </trkpt>
      <trkpt lat="49.42349" lon="0.22198">
        <ele>88.2</ele>
        <time>2022-05-31T11:44:57Z</time>
      </trkpt>
      <trkpt lat="49.42348" lon="0.22199">
        <ele>88.2</ele>
        <time>2022-05-31T11:44:58Z</time>
      </trkpt>
      <trkpt lat="49.42348" lon="0.222">
        <ele>88.2</ele>
        <time>2022-05-31T11:44:59Z</time>
      </trkpt>
      <trkpt lat="49.42348" lon="0.22201">
        <ele>88.1</ele>
        <time>2022-05-31T11:45:00Z</time>
      </trkpt>
      <trkpt lat="49.42348" lon="0.22201">
        <ele>88.1</ele>
        <time>2022-05-31T11:45:02Z</time>
      </trkpt>
      <trkpt lat="49.42347" lon="0.22202">
        <ele>88</ele>
        <time>2022-05-31T11:45:03Z</time>
      </trkpt>
      <trkpt lat="49.42347" lon="0.22203">
        <ele>88</ele>
        <time>2022-05-31T11:45:04Z</time>
      </trkpt>
      <trkpt lat="49.42347" lon="0.22203">
        <ele>87.9</ele>
        <time>2022-05-31T11:45:05Z</time>
      </trkpt>
      <trkpt lat="49.42346" lon="0.22204">
        <ele>87.9</ele>
        <time>2022-05-31T11:45:06Z</time>
      </trkpt>
      <trkpt lat="49.42345" lon="0.22204">
        <ele>87.8</ele>
        <time>2022-05-31T11:45:07Z</time>
      </trkpt>
      <trkpt lat="49.42344" lon="0.22204">
        <ele>87.7</ele>
        <time>2022-05-31T11:45:08Z</time>
      </trkpt>
      <trkpt lat="49.42343" lon="0.22205">
        <ele>87.6</ele>
        <time>2022-05-31T11:45:09Z</time>
      </trkpt>
      <trkpt lat="49.42342" lon="0.22206">
        <ele>87.6</ele>
        <time>2022-05-31T11:45:11Z</time>
      </trkpt>
      <trkpt lat="49.42342" lon="0.22208">
        <ele>87.5</ele>
        <time>2022-05-31T11:45:12Z</time>
      </trkpt>
      <trkpt lat="49.42342" lon="0.22209">
        <ele>87.4</ele>
        <time>2022-05-31T11:45:13Z</time>
      </trkpt>
      <trkpt lat="49.42341" lon="0.22212">
        <ele>87.2</ele>
        <time>2022-05-31T11:45:14Z</time>
      </trkpt>
      <trkpt lat="49.4234" lon="0.22213">
        <ele>87.1</ele>
        <time>2022-05-31T11:45:15Z</time>
      </trkpt>
      <trkpt lat="49.4234" lon="0.22215">
        <ele>87</ele>
        <time>2022-05-31T11:45:16Z</time>
      </trkpt>
      <trkpt lat="49.42339" lon="0.22217">
        <ele>86.9</ele>
        <time>2022-05-31T11:45:17Z</time>
      </trkpt>
      <trkpt lat="49.42339" lon="0.22219">
        <ele>86.8</ele>
        <time>2022-05-31T11:45:18Z</time>
      </trkpt>
      <trkpt lat="49.42339" lon="0.22222">
        <ele>86.6</ele>
        <time>2022-05-31T11:45:19Z</time>
      </trkpt>
      <trkpt lat="49.42339" lon="0.22224">
        <ele>86.5</ele>
        <time>2022-05-31T11:45:21Z</time>
      </trkpt>
      <trkpt lat="49.42338" lon="0.22226">
        <ele>86.4</ele>
        <time>2022-05-31T11:45:22Z</time>
      </trkpt>
      <trkpt lat="49.42338" lon="0.22228">
        <ele>86.3</ele>
        <time>2022-05-31T11:45:23Z</time>
      </trkpt>
      <trkpt lat="49.42338" lon="0.22229">
        <ele>86.2</ele>
        <time>2022-05-31T11:45:24Z</time>
      </trkpt>
      <trkpt lat="49.42337" lon="0.2223">
        <ele>86.1</ele>
        <time>2022-05-31T11:45:25Z</time>
      </trkpt>
      <trkpt lat="49.42337" lon="0.22231">
        <ele>86.1</ele>
        <time>2022-05-31T11:45:26Z</time>
      </trkpt>
      <trkpt lat="49.42337" lon="0.22233">
        <ele>86</ele>
        <time>2022-05-31T11:45:27Z</time>
      </trkpt>
      <trkpt lat="49.42337" lon="0.22234">
        <ele>85.9</ele>
        <time>2022-05-31T11:45:28Z</time>
      </trkpt>
      <trkpt lat="49.42336" lon="0.22236">
        <ele>85.8</ele>
        <time>2022-05-31T11:45:29Z</time>
      </trkpt>
      <trkpt lat="49.42336" lon="0.22237">
        <ele>85.7</ele>
        <time>2022-05-31T11:45:31Z</time>
      </trkpt>
      <trkpt lat="49.42336" lon="0.22239">
        <ele>85.7</ele>
        <time>2022-05-31T11:45:32Z</time>
      </trkpt>
      <trkpt lat="49.42336" lon="0.2224">
        <ele>85.6</ele>
        <time>2022-05-31T11:45:33Z</time>
      </trkpt>
      <trkpt lat="49.42336" lon="0.22241">
        <ele>85.5</ele>
        <time>2022-05-31T11:45:34Z</time>
      </trkpt>
      <trkpt lat="49.42335" lon="0.22243">
        <ele>85.4</ele>
        <time>2022-05-31T11:45:35Z</time>
      </trkpt>
      <trkpt lat="49.42335" lon="0.22244">
        <ele>85.4</ele>
        <time>2022-05-31T11:45:36Z</time>
      </trkpt>
      <trkpt lat="49.42334" lon="0.22245">
        <ele>85.2</ele>
        <time>2022-05-31T11:45:38Z</time>
      </trkpt>
      <trkpt lat="49.42333" lon="0.22247">
        <ele>85.1</ele>
        <time>2022-05-31T11:45:39Z</time>
      </trkpt>
      <trkpt lat="49.42334" lon="0.22248">
        <ele>85.1</ele>
        <time>2022-05-31T11:45:40Z</time>
      </trkpt>
      <trkpt lat="49.42333" lon="0.22249">
        <ele>85</ele>
        <time>2022-05-31T11:45:41Z</time>
      </trkpt>
      <trkpt lat="49.42333" lon="0.2225">
        <ele>84.9</ele>
        <time>2022-05-31T11:45:42Z</time>
      </trkpt>
      <trkpt lat="49.42332" lon="0.22252">
        <ele>84.8</ele>
        <time>2022-05-31T11:45:43Z</time>
      </trkpt>
      <trkpt lat="49.42331" lon="0.22253">
        <ele>84.7</ele>
        <time>2022-05-31T11:45:44Z</time>
      </trkpt>
      <trkpt lat="49.42331" lon="0.22255">
        <ele>84.6</ele>
        <time>2022-05-31T11:45:45Z</time>
      </trkpt>
      <trkpt lat="49.4233" lon="0.22257">
        <ele>84.5</ele>
        <time>2022-05-31T11:45:47Z</time>
      </trkpt>
      <trkpt lat="49.42329" lon="0.22258">
        <ele>84.4</ele>
        <time>2022-05-31T11:45:48Z</time>
      </trkpt>
      <trkpt lat="49.42328" lon="0.22261">
        <ele>84.2</ele>
        <time>2022-05-31T11:45:49Z</time>
      </trkpt>
      <trkpt lat="49.42328" lon="0.22263">
        <ele>84.1</ele>
        <time>2022-05-31T11:45:50Z</time>
      </trkpt>
      <trkpt lat="49.42327" lon="0.22264">
        <ele>84</ele>
        <time>2022-05-31T11:45:51Z</time>
      </trkpt>
      <trkpt lat="49.42327" lon="0.22266">
        <ele>83.9</ele>
        <time>2022-05-31T11:45:52Z</time>
      </trkpt>
      <trkpt lat="49.42326" lon="0.22268">
        <ele>83.8</ele>
        <time>2022-05-31T11:45:53Z</time>
      </trkpt>
      <trkpt lat="49.42325" lon="0.22272">
        <ele>83.5</ele>
        <time>2022-05-31T11:45:55Z</time>
      </trkpt>
      <trkpt lat="49.42325" lon="0.22274">
        <ele>83.4</ele>
        <time>2022-05-31T11:45:56Z</time>
      </trkpt>
      <trkpt lat="49.42325" lon="0.22278">
        <ele>83.2</ele>
        <time>2022-05-31T11:45:57Z</time>
      </trkpt>
      <trkpt lat="49.42325" lon="0.22279">
        <ele>83.1</ele>
        <time>2022-05-31T11:45:58Z</time>
      </trkpt>
      <trkpt lat="49.42325" lon="0.22282">
        <ele>82.9</ele>
        <time>2022-05-31T11:45:59Z</time>
      </trkpt>
      <trkpt lat="49.42324" lon="0.22284">
        <ele>82.8</ele>
        <time>2022-05-31T11:46:00Z</time>
      </trkpt>
      <trkpt lat="49.42323" lon="0.22288">
        <ele>82.5</ele>
        <time>2022-05-31T11:46:01Z</time>
      </trkpt>
      <trkpt lat="49.42323" lon="0.22289">
        <ele>82.4</ele>
        <time>2022-05-31T11:46:02Z</time>
      </trkpt>
      <trkpt lat="49.42323" lon="0.22291">
        <ele>82.3</ele>
        <time>2022-05-31T11:46:03Z</time>
      </trkpt>
      <trkpt lat="49.42322" lon="0.22294">
        <ele>82.1</ele>
        <time>2022-05-31T11:46:04Z</time>
      </trkpt>
      <trkpt lat="49.42321" lon="0.22298">
        <ele>81.9</ele>
        <time>2022-05-31T11:46:06Z</time>
      </trkpt>
      <trkpt lat="49.42321" lon="0.223">
        <ele>81.8</ele>
        <time>2022-05-31T11:46:07Z</time>
      </trkpt>
      <trkpt lat="49.42321" lon="0.22301">
        <ele>81.7</ele>
        <time>2022-05-31T11:46:08Z</time>
      </trkpt>
      <trkpt lat="49.4232" lon="0.22303">
        <ele>81.6</ele>
        <time>2022-05-31T11:46:09Z</time>
      </trkpt>
      <trkpt lat="49.4232" lon="0.22305">
        <ele>81.4</ele>
        <time>2022-05-31T11:46:10Z</time>
      </trkpt>
      <trkpt lat="49.4232" lon="0.22306">
        <ele>81.3</ele>
        <time>2022-05-31T11:46:11Z</time>
      </trkpt>
      <trkpt lat="49.4232" lon="0.22309">
        <ele>81.2</ele>
        <time>2022-05-31T11:46:12Z</time>
      </trkpt>
      <trkpt lat="49.4232" lon="0.2231">
        <ele>81.1</ele>
        <time>2022-05-31T11:46:13Z</time>
      </trkpt>
      <trkpt lat="49.4232" lon="0.22312">
        <ele>81</ele>
        <time>2022-05-31T11:46:14Z</time>
      </trkpt>
      <trkpt lat="49.4232" lon="0.22313">
        <ele>80.9</ele>
        <time>2022-05-31T11:46:15Z</time>
      </trkpt>
      <trkpt lat="49.42319" lon="0.22316">
        <ele>80.7</ele>
        <time>2022-05-31T11:46:17Z</time>
      </trkpt>
      <trkpt lat="49.42319" lon="0.22317">
        <ele>80.6</ele>
        <time>2022-05-31T11:46:18Z</time>
      </trkpt>
      <trkpt lat="49.42319" lon="0.22319">
        <ele>80.6</ele>
        <time>2022-05-31T11:46:19Z</time>
      </trkpt>
      <trkpt lat="49.42319" lon="0.2232">
        <ele>80.5</ele>
        <time>2022-05-31T11:46:21Z</time>
      </trkpt>
      <trkpt lat="49.4232" lon="0.22322">
        <ele>80.4</ele>
        <time>2022-05-31T11:46:22Z</time>
      </trkpt>
      <trkpt lat="49.4232" lon="0.22324">
        <ele>80.2</ele>
        <time>2022-05-31T11:46:23Z</time>
      </trkpt>
      <trkpt lat="49.4232" lon="0.22325">
        <ele>80.1</ele>
        <time>2022-05-31T11:46:24Z</time>
      </trkpt>
      <trkpt lat="49.4232" lon="0.22326">
        <ele>80.1</ele>
        <time>2022-05-31T11:46:25Z</time>
      </trkpt>
      <trkpt lat="49.4232" lon="0.22327">
        <ele>80</ele>
        <time>2022-05-31T11:46:26Z</time>
      </trkpt>
      <trkpt lat="49.4232" lon="0.2233">
        <ele>79.8</ele>
        <time>2022-05-31T11:46:27Z</time>
      </trkpt>
      <trkpt lat="49.4232" lon="0.22331">
        <ele>79.8</ele>
        <time>2022-05-31T11:46:28Z</time>
      </trkpt>
      <trkpt lat="49.4232" lon="0.22332">
        <ele>79.7</ele>
        <time>2022-05-31T11:46:29Z</time>
      </trkpt>
      <trkpt lat="49.4232" lon="0.22333">
        <ele>79.6</ele>
        <time>2022-05-31T11:46:30Z</time>
      </trkpt>
      <trkpt lat="49.4232" lon="0.22335">
        <ele>79.5</ele>
        <time>2022-05-31T11:46:32Z</time>
      </trkpt>
      <trkpt lat="49.4232" lon="0.22337">
        <ele>79.4</ele>
        <time>2022-05-31T11:46:33Z</time>
      </trkpt>
      <trkpt lat="49.4232" lon="0.22338">
        <ele>79.3</ele>
        <time>2022-05-31T11:46:34Z</time>
      </trkpt>
      <trkpt lat="49.4232" lon="0.2234">
        <ele>79.2</ele>
        <time>2022-05-31T11:46:35Z</time>
      </trkpt>
      <trkpt lat="49.4232" lon="0.22342">
        <ele>79.1</ele>
        <time>2022-05-31T11:46:36Z</time>
      </trkpt>
      <trkpt lat="49.4232" lon="0.22344">
        <ele>78.9</ele>
        <time>2022-05-31T11:46:37Z</time>
      </trkpt>
      <trkpt lat="49.4232" lon="0.22346">
        <ele>78.8</ele>
        <time>2022-05-31T11:46:38Z</time>
      </trkpt>
      <trkpt lat="49.4232" lon="0.22349">
        <ele>78.6</ele>
        <time>2022-05-31T11:46:40Z</time>
      </trkpt>
      <trkpt lat="49.42321" lon="0.22351">
        <ele>78.5</ele>
        <time>2022-05-31T11:46:41Z</time>
      </trkpt>
      <trkpt lat="49.42322" lon="0.22352">
        <ele>78.3</ele>
        <time>2022-05-31T11:46:42Z</time>
      </trkpt>
      <trkpt lat="49.42323" lon="0.22353">
        <ele>78.2</ele>
        <time>2022-05-31T11:46:43Z</time>
      </trkpt>
      <trkpt lat="49.42323" lon="0.22353">
        <ele>78.2</ele>
        <time>2022-05-31T11:46:44Z</time>
      </trkpt>
      <trkpt lat="49.42324" lon="0.22354">
        <ele>78.1</ele>
        <time>2022-05-31T11:46:45Z</time>
      </trkpt>
      <trkpt lat="49.42324" lon="0.22354">
        <ele>78.1</ele>
        <time>2022-05-31T11:46:46Z</time>
      </trkpt>
      <trkpt lat="49.42324" lon="0.22355">
        <ele>78.1</ele>
        <time>2022-05-31T11:46:47Z</time>
      </trkpt>
      <trkpt lat="49.42324" lon="0.22355">
        <ele>78</ele>
        <time>2022-05-31T11:46:48Z</time>
      </trkpt>
      <trkpt lat="49.42324" lon="0.22354">
        <ele>78</ele>
        <time>2022-05-31T11:46:49Z</time>
      </trkpt>
      <trkpt lat="49.42325" lon="0.22354">
        <ele>78</ele>
        <time>2022-05-31T11:46:50Z</time>
      </trkpt>
      <trkpt lat="49.42325" lon="0.22354">
        <ele>78</ele>
        <time>2022-05-31T11:46:51Z</time>
      </trkpt>
      <trkpt lat="49.42325" lon="0.22354">
        <ele>78</ele>
        <time>2022-05-31T11:46:52Z</time>
      </trkpt>
      <trkpt lat="49.42325" lon="0.22354">
        <ele>78</ele>
        <time>2022-05-31T11:46:53Z</time>
      </trkpt>
      <trkpt lat="49.42325" lon="0.22355">
        <ele>78</ele>
        <time>2022-05-31T11:46:54Z</time>
      </trkpt>
      <trkpt lat="49.42324" lon="0.22355">
        <ele>77.9</ele>
        <time>2022-05-31T11:46:55Z</time>
      </trkpt>
      <trkpt lat="49.42324" lon="0.22356">
        <ele>77.9</ele>
        <time>2022-05-31T11:46:57Z</time>
      </trkpt>
      <trkpt lat="49.42324" lon="0.22356">
        <ele>77.8</ele>
        <time>2022-05-31T11:46:58Z</time>
      </trkpt>
      <trkpt lat="49.42324" lon="0.22358">
        <ele>77.7</ele>
        <time>2022-05-31T11:46:59Z</time>
      </trkpt>
      <trkpt lat="49.42324" lon="0.22359">
        <ele>77.7</ele>
        <time>2022-05-31T11:47:00Z</time>
      </trkpt>
      <trkpt lat="49.42324" lon="0.2236">
        <ele>77.6</ele>
        <time>2022-05-31T11:47:01Z</time>
      </trkpt>
      <trkpt lat="49.42324" lon="0.22364">
        <ele>77.3</ele>
        <time>2022-05-31T11:47:02Z</time>
      </trkpt>
      <trkpt lat="49.42323" lon="0.22366">
        <ele>77.2</ele>
        <time>2022-05-31T11:47:03Z</time>
      </trkpt>
      <trkpt lat="49.42323" lon="0.22367">
        <ele>77.1</ele>
        <time>2022-05-31T11:47:05Z</time>
      </trkpt>
      <trkpt lat="49.42322" lon="0.22368">
        <ele>77</ele>
        <time>2022-05-31T11:47:06Z</time>
      </trkpt>
      <trkpt lat="49.42322" lon="0.22369">
        <ele>76.9</ele>
        <time>2022-05-31T11:47:07Z</time>
      </trkpt>
      <trkpt lat="49.42321" lon="0.22371">
        <ele>76.8</ele>
        <time>2022-05-31T11:47:08Z</time>
      </trkpt>
      <trkpt lat="49.42321" lon="0.22373">
        <ele>76.7</ele>
        <time>2022-05-31T11:47:09Z</time>
      </trkpt>
      <trkpt lat="49.4232" lon="0.22374">
        <ele>76.6</ele>
        <time>2022-05-31T11:47:10Z</time>
      </trkpt>
      <trkpt lat="49.4232" lon="0.22377">
        <ele>76.4</ele>
        <time>2022-05-31T11:47:11Z</time>
      </trkpt>
      <trkpt lat="49.42319" lon="0.22379">
        <ele>76.3</ele>
        <time>2022-05-31T11:47:12Z</time>
      </trkpt>
      <trkpt lat="49.42319" lon="0.2238">
        <ele>76.1</ele>
        <time>2022-05-31T11:47:14Z</time>
      </trkpt>
      <trkpt lat="49.42319" lon="0.22382">
        <ele>76</ele>
        <time>2022-05-31T11:47:15Z</time>
      </trkpt>
      <trkpt lat="49.42318" lon="0.22383">
        <ele>75.9</ele>
        <time>2022-05-31T11:47:16Z</time>
      </trkpt>
      <trkpt lat="49.42318" lon="0.22385">
        <ele>75.8</ele>
        <time>2022-05-31T11:47:17Z</time>
      </trkpt>
      <trkpt lat="49.42318" lon="0.22386">
        <ele>75.7</ele>
        <time>2022-05-31T11:47:18Z</time>
      </trkpt>
      <trkpt lat="49.42317" lon="0.22387">
        <ele>75.6</ele>
        <time>2022-05-31T11:47:19Z</time>
      </trkpt>
      <trkpt lat="49.42317" lon="0.22388">
        <ele>75.6</ele>
        <time>2022-05-31T11:47:20Z</time>
      </trkpt>
      <trkpt lat="49.42315" lon="0.22388">
        <ele>75.4</ele>
        <time>2022-05-31T11:47:22Z</time>
      </trkpt>
      <trkpt lat="49.42314" lon="0.22388">
        <ele>75.3</ele>
        <time>2022-05-31T11:47:23Z</time>
      </trkpt>
      <trkpt lat="49.42313" lon="0.22389">
        <ele>75.2</ele>
        <time>2022-05-31T11:47:24Z</time>
      </trkpt>
      <trkpt lat="49.42313" lon="0.2239">
        <ele>75.1</ele>
        <time>2022-05-31T11:47:25Z</time>
      </trkpt>
      <trkpt lat="49.42312" lon="0.22393">
        <ele>74.9</ele>
        <time>2022-05-31T11:47:26Z</time>
      </trkpt>
      <trkpt lat="49.42312" lon="0.22394">
        <ele>74.8</ele>
        <time>2022-05-31T11:47:27Z</time>
      </trkpt>
      <trkpt lat="49.42311" lon="0.22395">
        <ele>74.7</ele>
        <time>2022-05-31T11:47:28Z</time>
      </trkpt>
      <trkpt lat="49.42311" lon="0.22398">
        <ele>74.5</ele>
        <time>2022-05-31T11:47:30Z</time>
      </trkpt>
      <trkpt lat="49.42311" lon="0.224">
        <ele>74.4</ele>
        <time>2022-05-31T11:47:31Z</time>
      </trkpt>
      <trkpt lat="49.42311" lon="0.22401">
        <ele>74.3</ele>
        <time>2022-05-31T11:47:32Z</time>
      </trkpt>
      <trkpt lat="49.4231" lon="0.22404">
        <ele>74.2</ele>
        <time>2022-05-31T11:47:33Z</time>
      </trkpt>
      <trkpt lat="49.4231" lon="0.22405">
        <ele>74.1</ele>
        <time>2022-05-31T11:47:34Z</time>
      </trkpt>
      <trkpt lat="49.4231" lon="0.22406">
        <ele>74</ele>
        <time>2022-05-31T11:47:35Z</time>
      </trkpt>
      <trkpt lat="49.4231" lon="0.2241">
        <ele>73.8</ele>
        <time>2022-05-31T11:47:36Z</time>
      </trkpt>
      <trkpt lat="49.4231" lon="0.22411">
        <ele>73.7</ele>
        <time>2022-05-31T11:47:37Z</time>
      </trkpt>
      <trkpt lat="49.4231" lon="0.22412">
        <ele>73.6</ele>
        <time>2022-05-31T11:47:38Z</time>
      </trkpt>
      <trkpt lat="49.4231" lon="0.22414">
        <ele>73.5</ele>
        <time>2022-05-31T11:47:39Z</time>
      </trkpt>
      <trkpt lat="49.4231" lon="0.22416">
        <ele>73.4</ele>
        <time>2022-05-31T11:47:41Z</time>
      </trkpt>
      <trkpt lat="49.4231" lon="0.22418">
        <ele>73.3</ele>
        <time>2022-05-31T11:47:42Z</time>
      </trkpt>
      <trkpt lat="49.4231" lon="0.2242">
        <ele>73.2</ele>
        <time>2022-05-31T11:47:43Z</time>
      </trkpt>
      <trkpt lat="49.4231" lon="0.22421">
        <ele>73.1</ele>
        <time>2022-05-31T11:47:44Z</time>
      </trkpt>
      <trkpt lat="49.4231" lon="0.22423">
        <ele>73</ele>
        <time>2022-05-31T11:47:45Z</time>
      </trkpt>
      <trkpt lat="49.42309" lon="0.22426">
        <ele>72.8</ele>
        <time>2022-05-31T11:47:46Z</time>
      </trkpt>
      <trkpt lat="49.42309" lon="0.22427">
        <ele>72.7</ele>
        <time>2022-05-31T11:47:47Z</time>
      </trkpt>
      <trkpt lat="49.42309" lon="0.22428">
        <ele>72.6</ele>
        <time>2022-05-31T11:47:48Z</time>
      </trkpt>
      <trkpt lat="49.42309" lon="0.22432">
        <ele>72.4</ele>
        <time>2022-05-31T11:47:49Z</time>
      </trkpt>
      <trkpt lat="49.42308" lon="0.22433">
        <ele>72.4</ele>
        <time>2022-05-31T11:47:50Z</time>
      </trkpt>
      <trkpt lat="49.42308" lon="0.22434">
        <ele>72.3</ele>
        <time>2022-05-31T11:47:51Z</time>
      </trkpt>
      <trkpt lat="49.42308" lon="0.22438">
        <ele>72.1</ele>
        <time>2022-05-31T11:47:52Z</time>
      </trkpt>
      <trkpt lat="49.42307" lon="0.22439">
        <ele>72</ele>
        <time>2022-05-31T11:47:54Z</time>
      </trkpt>
      <trkpt lat="49.42307" lon="0.2244">
        <ele>71.9</ele>
        <time>2022-05-31T11:47:55Z</time>
      </trkpt>
      <trkpt lat="49.42307" lon="0.22444">
        <ele>71.6</ele>
        <time>2022-05-31T11:47:56Z</time>
      </trkpt>
      <trkpt lat="49.42307" lon="0.22447">
        <ele>71.5</ele>
        <time>2022-05-31T11:47:57Z</time>
      </trkpt>
      <trkpt lat="49.42306" lon="0.22449">
        <ele>71.4</ele>
        <time>2022-05-31T11:47:58Z</time>
      </trkpt>
      <trkpt lat="49.42306" lon="0.22449">
        <ele>71.4</ele>
        <time>2022-05-31T11:47:59Z</time>
      </trkpt>
      <trkpt lat="49.42306" lon="0.22451">
        <ele>71.2</ele>
        <time>2022-05-31T11:48:00Z</time>
      </trkpt>
      <trkpt lat="49.42306" lon="0.22452">
        <ele>71.1</ele>
        <time>2022-05-31T11:48:01Z</time>
      </trkpt>
      <trkpt lat="49.42305" lon="0.22454">
        <ele>71</ele>
        <time>2022-05-31T11:48:02Z</time>
      </trkpt>
      <trkpt lat="49.42305" lon="0.22456">
        <ele>70.9</ele>
        <time>2022-05-31T11:48:03Z</time>
      </trkpt>
      <trkpt lat="49.42306" lon="0.22457">
        <ele>70.8</ele>
        <time>2022-05-31T11:48:04Z</time>
      </trkpt>
      <trkpt lat="49.42306" lon="0.22458">
        <ele>70.8</ele>
        <time>2022-05-31T11:48:05Z</time>
      </trkpt>
      <trkpt lat="49.42306" lon="0.22462">
        <ele>70.5</ele>
        <time>2022-05-31T11:48:07Z</time>
      </trkpt>
      <trkpt lat="49.42305" lon="0.22464">
        <ele>70.4</ele>
        <time>2022-05-31T11:48:08Z</time>
      </trkpt>
      <trkpt lat="49.42305" lon="0.22464">
        <ele>70.4</ele>
        <time>2022-05-31T11:48:09Z</time>
      </trkpt>
      <trkpt lat="49.42305" lon="0.22466">
        <ele>70.3</ele>
        <time>2022-05-31T11:48:10Z</time>
      </trkpt>
      <trkpt lat="49.42304" lon="0.22467">
        <ele>70.2</ele>
        <time>2022-05-31T11:48:11Z</time>
      </trkpt>
      <trkpt lat="49.42303" lon="0.22469">
        <ele>70</ele>
        <time>2022-05-31T11:48:13Z</time>
      </trkpt>
      <trkpt lat="49.42303" lon="0.2247">
        <ele>70</ele>
        <time>2022-05-31T11:48:14Z</time>
      </trkpt>
      <trkpt lat="49.42303" lon="0.22472">
        <ele>69.9</ele>
        <time>2022-05-31T11:48:15Z</time>
      </trkpt>
      <trkpt lat="49.42302" lon="0.22475">
        <ele>69.7</ele>
        <time>2022-05-31T11:48:16Z</time>
      </trkpt>
      <trkpt lat="49.42302" lon="0.22476">
        <ele>69.6</ele>
        <time>2022-05-31T11:48:17Z</time>
      </trkpt>
      <trkpt lat="49.42303" lon="0.22479">
        <ele>69.4</ele>
        <time>2022-05-31T11:48:18Z</time>
      </trkpt>
      <trkpt lat="49.42303" lon="0.2248">
        <ele>69.4</ele>
        <time>2022-05-31T11:48:19Z</time>
      </trkpt>
      <trkpt lat="49.42303" lon="0.22482">
        <ele>69.3</ele>
        <time>2022-05-31T11:48:21Z</time>
      </trkpt>
      <trkpt lat="49.42303" lon="0.22483">
        <ele>69.2</ele>
        <time>2022-05-31T11:48:22Z</time>
      </trkpt>
      <trkpt lat="49.42304" lon="0.22485">
        <ele>69</ele>
        <time>2022-05-31T11:48:23Z</time>
      </trkpt>
      <trkpt lat="49.42304" lon="0.22486">
        <ele>69</ele>
        <time>2022-05-31T11:48:24Z</time>
      </trkpt>
      <trkpt lat="49.42304" lon="0.22488">
        <ele>68.9</ele>
        <time>2022-05-31T11:48:25Z</time>
      </trkpt>
      <trkpt lat="49.42304" lon="0.22491">
        <ele>68.7</ele>
        <time>2022-05-31T11:48:26Z</time>
      </trkpt>
      <trkpt lat="49.42304" lon="0.22493">
        <ele>68.6</ele>
        <time>2022-05-31T11:48:27Z</time>
      </trkpt>
      <trkpt lat="49.42304" lon="0.22494">
        <ele>68.5</ele>
        <time>2022-05-31T11:48:28Z</time>
      </trkpt>
      <trkpt lat="49.42303" lon="0.22496">
        <ele>68.4</ele>
        <time>2022-05-31T11:48:30Z</time>
      </trkpt>
      <trkpt lat="49.42303" lon="0.22497">
        <ele>68.3</ele>
        <time>2022-05-31T11:48:31Z</time>
      </trkpt>
      <trkpt lat="49.42303" lon="0.22499">
        <ele>68.2</ele>
        <time>2022-05-31T11:48:32Z</time>
      </trkpt>
      <trkpt lat="49.42303" lon="0.22501">
        <ele>68</ele>
        <time>2022-05-31T11:48:33Z</time>
      </trkpt>
      <trkpt lat="49.42303" lon="0.22503">
        <ele>68</ele>
        <time>2022-05-31T11:48:34Z</time>
      </trkpt>
      <trkpt lat="49.42303" lon="0.22504">
        <ele>67.9</ele>
        <time>2022-05-31T11:48:35Z</time>
      </trkpt>
      <trkpt lat="49.42302" lon="0.22506">
        <ele>67.8</ele>
        <time>2022-05-31T11:48:37Z</time>
      </trkpt>
      <trkpt lat="49.42301" lon="0.22509">
        <ele>67.6</ele>
        <time>2022-05-31T11:48:38Z</time>
      </trkpt>
      <trkpt lat="49.42301" lon="0.2251">
        <ele>67.5</ele>
        <time>2022-05-31T11:48:39Z</time>
      </trkpt>
      <trkpt lat="49.423" lon="0.2251">
        <ele>67.4</ele>
        <time>2022-05-31T11:48:40Z</time>
      </trkpt>
      <trkpt lat="49.423" lon="0.22511">
        <ele>67.4</ele>
        <time>2022-05-31T11:48:41Z</time>
      </trkpt>
      <trkpt lat="49.42299" lon="0.22512">
        <ele>67.3</ele>
        <time>2022-05-31T11:48:42Z</time>
      </trkpt>
      <trkpt lat="49.42299" lon="0.22514">
        <ele>67.2</ele>
        <time>2022-05-31T11:48:43Z</time>
      </trkpt>
      <trkpt lat="49.42298" lon="0.22515">
        <ele>67.1</ele>
        <time>2022-05-31T11:48:44Z</time>
      </trkpt>
      <trkpt lat="49.42298" lon="0.22517">
        <ele>67</ele>
        <time>2022-05-31T11:48:46Z</time>
      </trkpt>
      <trkpt lat="49.42298" lon="0.22518">
        <ele>66.9</ele>
        <time>2022-05-31T11:48:47Z</time>
      </trkpt>
      <trkpt lat="49.42297" lon="0.2252">
        <ele>66.6</ele>
        <time>2022-05-31T11:48:48Z</time>
      </trkpt>
      <trkpt lat="49.42297" lon="0.22521">
        <ele>66.6</ele>
        <time>2022-05-31T11:48:49Z</time>
      </trkpt>
      <trkpt lat="49.42296" lon="0.22524">
        <ele>66.4</ele>
        <time>2022-05-31T11:48:51Z</time>
      </trkpt>
      <trkpt lat="49.42295" lon="0.22525">
        <ele>66.3</ele>
        <time>2022-05-31T11:48:52Z</time>
      </trkpt>
      <trkpt lat="49.42295" lon="0.22527">
        <ele>66.2</ele>
        <time>2022-05-31T11:48:54Z</time>
      </trkpt>
      <trkpt lat="49.42295" lon="0.22529">
        <ele>66.1</ele>
        <time>2022-05-31T11:48:55Z</time>
      </trkpt>
      <trkpt lat="49.42294" lon="0.2253">
        <ele>66</ele>
        <time>2022-05-31T11:48:56Z</time>
      </trkpt>
      <trkpt lat="49.42294" lon="0.22531">
        <ele>66</ele>
        <time>2022-05-31T11:48:57Z</time>
      </trkpt>
      <trkpt lat="49.42295" lon="0.22534">
        <ele>65.8</ele>
        <time>2022-05-31T11:48:58Z</time>
      </trkpt>
      <trkpt lat="49.42295" lon="0.22533">
        <ele>65.6</ele>
        <time>2022-05-31T11:48:59Z</time>
      </trkpt>
      <trkpt lat="49.42296" lon="0.22533">
        <ele>65.5</ele>
        <time>2022-05-31T11:49:00Z</time>
      </trkpt>
      <trkpt lat="49.42297" lon="0.22533">
        <ele>65.4</ele>
        <time>2022-05-31T11:49:01Z</time>
      </trkpt>
      <trkpt lat="49.423" lon="0.22532">
        <ele>65.2</ele>
        <time>2022-05-31T11:49:03Z</time>
      </trkpt>
      <trkpt lat="49.423" lon="0.22532">
        <ele>65.2</ele>
        <time>2022-05-31T11:49:04Z</time>
      </trkpt>
      <trkpt lat="49.423" lon="0.22532">
        <ele>65.2</ele>
        <time>2022-05-31T11:49:05Z</time>
      </trkpt>
      <trkpt lat="49.42301" lon="0.22531">
        <ele>65.1</ele>
        <time>2022-05-31T11:49:06Z</time>
      </trkpt>
      <trkpt lat="49.42302" lon="0.22529">
        <ele>64.9</ele>
        <time>2022-05-31T11:49:08Z</time>
      </trkpt>
      <trkpt lat="49.42303" lon="0.22529">
        <ele>64.8</ele>
        <time>2022-05-31T11:49:09Z</time>
      </trkpt>
      <trkpt lat="49.42303" lon="0.22529">
        <ele>64.7</ele>
        <time>2022-05-31T11:49:10Z</time>
      </trkpt>
      <trkpt lat="49.42304" lon="0.2253">
        <ele>64.7</ele>
        <time>2022-05-31T11:49:12Z</time>
      </trkpt>
      <trkpt lat="49.42304" lon="0.22531">
        <ele>64.6</ele>
        <time>2022-05-31T11:49:13Z</time>
      </trkpt>
      <trkpt lat="49.42304" lon="0.22531">
        <ele>64.6</ele>
        <time>2022-05-31T11:49:14Z</time>
      </trkpt>
      <trkpt lat="49.42305" lon="0.22532">
        <ele>64.5</ele>
        <time>2022-05-31T11:49:15Z</time>
      </trkpt>
      <trkpt lat="49.42305" lon="0.22533">
        <ele>64.5</ele>
        <time>2022-05-31T11:49:16Z</time>
      </trkpt>
      <trkpt lat="49.42306" lon="0.22534">
        <ele>64.3</ele>
        <time>2022-05-31T11:49:17Z</time>
      </trkpt>
      <trkpt lat="49.42306" lon="0.22534">
        <ele>64.2</ele>
        <time>2022-05-31T11:49:18Z</time>
      </trkpt>
      <trkpt lat="49.42306" lon="0.22535">
        <ele>64.2</ele>
        <time>2022-05-31T11:49:19Z</time>
      </trkpt>
      <trkpt lat="49.42307" lon="0.22535">
        <ele>64.2</ele>
        <time>2022-05-31T11:49:20Z</time>
      </trkpt>
      <trkpt lat="49.42307" lon="0.22535">
        <ele>64.2</ele>
        <time>2022-05-31T11:49:21Z</time>
      </trkpt>
      <trkpt lat="49.42307" lon="0.22535">
        <ele>64.1</ele>
        <time>2022-05-31T11:49:23Z</time>
      </trkpt>
      <trkpt lat="49.42307" lon="0.22535">
        <ele>64.1</ele>
        <time>2022-05-31T11:49:24Z</time>
      </trkpt>
      <trkpt lat="49.42307" lon="0.22534">
        <ele>64.1</ele>
        <time>2022-05-31T11:49:25Z</time>
      </trkpt>
      <trkpt lat="49.42308" lon="0.22534">
        <ele>63.9</ele>
        <time>2022-05-31T11:49:26Z</time>
      </trkpt>
      <trkpt lat="49.42308" lon="0.22533">
        <ele>63.9</ele>
        <time>2022-05-31T11:49:27Z</time>
      </trkpt>
      <trkpt lat="49.42309" lon="0.22532">
        <ele>63.8</ele>
        <time>2022-05-31T11:49:28Z</time>
      </trkpt>
      <trkpt lat="49.42309" lon="0.22531">
        <ele>63.8</ele>
        <time>2022-05-31T11:49:29Z</time>
      </trkpt>
      <trkpt lat="49.42309" lon="0.22531">
        <ele>63.7</ele>
        <time>2022-05-31T11:49:30Z</time>
      </trkpt>
      <trkpt lat="49.4231" lon="0.22531">
        <ele>63.6</ele>
        <time>2022-05-31T11:49:31Z</time>
      </trkpt>
      <trkpt lat="49.4231" lon="0.22531">
        <ele>63.6</ele>
        <time>2022-05-31T11:49:32Z</time>
      </trkpt>
      <trkpt lat="49.4231" lon="0.2253">
        <ele>63.6</ele>
        <time>2022-05-31T11:49:33Z</time>
      </trkpt>
      <trkpt lat="49.4231" lon="0.2253">
        <ele>63.5</ele>
        <time>2022-05-31T11:49:34Z</time>
      </trkpt>
      <trkpt lat="49.4231" lon="0.2253">
        <ele>63.5</ele>
        <time>2022-05-31T11:49:35Z</time>
      </trkpt>
      <trkpt lat="49.4231" lon="0.2253">
        <ele>63.4</ele>
        <time>2022-05-31T11:49:36Z</time>
      </trkpt>
      <trkpt lat="49.4231" lon="0.2253">
        <ele>63.4</ele>
        <time>2022-05-31T11:49:37Z</time>
      </trkpt>
      <trkpt lat="49.42311" lon="0.2253">
        <ele>63.4</ele>
        <time>2022-05-31T11:49:38Z</time>
      </trkpt>
      <trkpt lat="49.42311" lon="0.2253">
        <ele>63.3</ele>
        <time>2022-05-31T11:49:39Z</time>
      </trkpt>
      <trkpt lat="49.42311" lon="0.2253">
        <ele>63.3</ele>
        <time>2022-05-31T11:49:41Z</time>
      </trkpt>
      <trkpt lat="49.42311" lon="0.2253">
        <ele>63.3</ele>
        <time>2022-05-31T11:49:42Z</time>
      </trkpt>
      <trkpt lat="49.42311" lon="0.22529">
        <ele>63.3</ele>
        <time>2022-05-31T11:49:43Z</time>
      </trkpt>
      <trkpt lat="49.42311" lon="0.22529">
        <ele>63.2</ele>
        <time>2022-05-31T11:49:44Z</time>
      </trkpt>
      <trkpt lat="49.42311" lon="0.22529">
        <ele>63.2</ele>
        <time>2022-05-31T11:49:45Z</time>
      </trkpt>
      <trkpt lat="49.42311" lon="0.2253">
        <ele>63.2</ele>
        <time>2022-05-31T11:49:46Z</time>
      </trkpt>
      <trkpt lat="49.42312" lon="0.2253">
        <ele>63.1</ele>
        <time>2022-05-31T11:49:47Z</time>
      </trkpt>
      <trkpt lat="49.42312" lon="0.2253">
        <ele>63.1</ele>
        <time>2022-05-31T11:49:48Z</time>
      </trkpt>
      <trkpt lat="49.42312" lon="0.2253">
        <ele>63.1</ele>
        <time>2022-05-31T11:49:49Z</time>
      </trkpt>
      <trkpt lat="49.42312" lon="0.2253">
        <ele>63.1</ele>
        <time>2022-05-31T11:49:50Z</time>
      </trkpt>
      <trkpt lat="49.42312" lon="0.2253">
        <ele>63</ele>
        <time>2022-05-31T11:49:51Z</time>
      </trkpt>
      <trkpt lat="49.42312" lon="0.2253">
        <ele>63</ele>
        <time>2022-05-31T11:49:52Z</time>
      </trkpt>
      <trkpt lat="49.42312" lon="0.2253">
        <ele>63</ele>
        <time>2022-05-31T11:49:53Z</time>
      </trkpt>
      <trkpt lat="49.42312" lon="0.2253">
        <ele>63</ele>
        <time>2022-05-31T11:49:54Z</time>
      </trkpt>
      <trkpt lat="49.42313" lon="0.2253">
        <ele>62.9</ele>
        <time>2022-05-31T11:49:55Z</time>
      </trkpt>
      <trkpt lat="49.42313" lon="0.2253">
        <ele>62.9</ele>
        <time>2022-05-31T11:49:56Z</time>
      </trkpt>
      <trkpt lat="49.42313" lon="0.2253">
        <ele>62.9</ele>
        <time>2022-05-31T11:49:57Z</time>
      </trkpt>
      <trkpt lat="49.42313" lon="0.22531">
        <ele>62.8</ele>
        <time>2022-05-31T11:49:59Z</time>
      </trkpt>
      <trkpt lat="49.42314" lon="0.22531">
        <ele>62.8</ele>
        <time>2022-05-31T11:50:00Z</time>
      </trkpt>
      <trkpt lat="49.42314" lon="0.22531">
        <ele>62.7</ele>
        <time>2022-05-31T11:50:01Z</time>
      </trkpt>
      <trkpt lat="49.42314" lon="0.2253">
        <ele>62.7</ele>
        <time>2022-05-31T11:50:02Z</time>
      </trkpt>
      <trkpt lat="49.42314" lon="0.2253">
        <ele>62.7</ele>
        <time>2022-05-31T11:50:03Z</time>
      </trkpt>
      <trkpt lat="49.42314" lon="0.2253">
        <ele>62.6</ele>
        <time>2022-05-31T11:50:04Z</time>
      </trkpt>
      <trkpt lat="49.42314" lon="0.2253">
        <ele>62.6</ele>
        <time>2022-05-31T11:50:05Z</time>
      </trkpt>
      <trkpt lat="49.42314" lon="0.2253">
        <ele>62.6</ele>
        <time>2022-05-31T11:50:06Z</time>
      </trkpt>
      <trkpt lat="49.42315" lon="0.22531">
        <ele>62.6</ele>
        <time>2022-05-31T11:50:07Z</time>
      </trkpt>
      <trkpt lat="49.42315" lon="0.22532">
        <ele>62.5</ele>
        <time>2022-05-31T11:50:09Z</time>
      </trkpt>
      <trkpt lat="49.42315" lon="0.22532">
        <ele>62.4</ele>
        <time>2022-05-31T11:50:10Z</time>
      </trkpt>
      <trkpt lat="49.42316" lon="0.22533">
        <ele>62.4</ele>
        <time>2022-05-31T11:50:11Z</time>
      </trkpt>
      <trkpt lat="49.42316" lon="0.22533">
        <ele>62.3</ele>
        <time>2022-05-31T11:50:12Z</time>
      </trkpt>
      <trkpt lat="49.42316" lon="0.22533">
        <ele>62.2</ele>
        <time>2022-05-31T11:50:13Z</time>
      </trkpt>
      <trkpt lat="49.42317" lon="0.22533">
        <ele>62.2</ele>
        <time>2022-05-31T11:50:14Z</time>
      </trkpt>
      <trkpt lat="49.42317" lon="0.22533">
        <ele>62.2</ele>
        <time>2022-05-31T11:50:15Z</time>
      </trkpt>
      <trkpt lat="49.42317" lon="0.22533">
        <ele>62.2</ele>
        <time>2022-05-31T11:50:16Z</time>
      </trkpt>
      <trkpt lat="49.42317" lon="0.22533">
        <ele>62.2</ele>
        <time>2022-05-31T11:50:17Z</time>
      </trkpt>
      <trkpt lat="49.42317" lon="0.22533">
        <ele>62.1</ele>
        <time>2022-05-31T11:50:18Z</time>
      </trkpt>
      <trkpt lat="49.42317" lon="0.22533">
        <ele>62.1</ele>
        <time>2022-05-31T11:50:19Z</time>
      </trkpt>
      <trkpt lat="49.42318" lon="0.22534">
        <ele>62</ele>
        <time>2022-05-31T11:50:21Z</time>
      </trkpt>
      <trkpt lat="49.42318" lon="0.22534">
        <ele>61.9</ele>
        <time>2022-05-31T11:50:22Z</time>
      </trkpt>
      <trkpt lat="49.42319" lon="0.22534">
        <ele>61.8</ele>
        <time>2022-05-31T11:50:24Z</time>
      </trkpt>
      <trkpt lat="49.4232" lon="0.22535">
        <ele>61.8</ele>
        <time>2022-05-31T11:50:25Z</time>
      </trkpt>
      <trkpt lat="49.4232" lon="0.22535">
        <ele>61.7</ele>
        <time>2022-05-31T11:50:26Z</time>
      </trkpt>
      <trkpt lat="49.42321" lon="0.22535">
        <ele>61.7</ele>
        <time>2022-05-31T11:50:27Z</time>
      </trkpt>
      <trkpt lat="49.42321" lon="0.22534">
        <ele>61.6</ele>
        <time>2022-05-31T11:50:29Z</time>
      </trkpt>
      <trkpt lat="49.42321" lon="0.22534">
        <ele>61.6</ele>
        <time>2022-05-31T11:50:30Z</time>
      </trkpt>
      <trkpt lat="49.42321" lon="0.22534">
        <ele>61.5</ele>
        <time>2022-05-31T11:50:31Z</time>
      </trkpt>
      <trkpt lat="49.42321" lon="0.22534">
        <ele>61.5</ele>
        <time>2022-05-31T11:50:32Z</time>
      </trkpt>
      <trkpt lat="49.42321" lon="0.22534">
        <ele>61.5</ele>
        <time>2022-05-31T11:50:34Z</time>
      </trkpt>
      <trkpt lat="49.42321" lon="0.22534">
        <ele>61.5</ele>
        <time>2022-05-31T11:50:35Z</time>
      </trkpt>
      <trkpt lat="49.42321" lon="0.22534">
        <ele>61.5</ele>
        <time>2022-05-31T11:50:36Z</time>
      </trkpt>
      <trkpt lat="49.42322" lon="0.22533">
        <ele>61.4</ele>
        <time>2022-05-31T11:50:38Z</time>
      </trkpt>
      <trkpt lat="49.42322" lon="0.22534">
        <ele>61.4</ele>
        <time>2022-05-31T11:50:39Z</time>
      </trkpt>
      <trkpt lat="49.42322" lon="0.22534">
        <ele>61.4</ele>
        <time>2022-05-31T11:50:40Z</time>
      </trkpt>
      <trkpt lat="49.42322" lon="0.22534">
        <ele>61.4</ele>
        <time>2022-05-31T11:50:41Z</time>
      </trkpt>
      <trkpt lat="49.42322" lon="0.22534">
        <ele>61.3</ele>
        <time>2022-05-31T11:50:42Z</time>
      </trkpt>
      <trkpt lat="49.42322" lon="0.22534">
        <ele>61.3</ele>
        <time>2022-05-31T11:50:43Z</time>
      </trkpt>
      <trkpt lat="49.42322" lon="0.22534">
        <ele>61.3</ele>
        <time>2022-05-31T11:50:44Z</time>
      </trkpt>
      <trkpt lat="49.42322" lon="0.22534">
        <ele>61.3</ele>
        <time>2022-05-31T11:50:45Z</time>
      </trkpt>
      <trkpt lat="49.42323" lon="0.22534">
        <ele>61.3</ele>
        <time>2022-05-31T11:50:47Z</time>
      </trkpt>
      <trkpt lat="49.42323" lon="0.22534">
        <ele>61.2</ele>
        <time>2022-05-31T11:50:48Z</time>
      </trkpt>
      <trkpt lat="49.42323" lon="0.22534">
        <ele>61.2</ele>
        <time>2022-05-31T11:50:50Z</time>
      </trkpt>
      <trkpt lat="49.42322" lon="0.22534">
        <ele>61.1</ele>
        <time>2022-05-31T11:50:51Z</time>
      </trkpt>
      <trkpt lat="49.42322" lon="0.22534">
        <ele>61.1</ele>
        <time>2022-05-31T11:50:52Z</time>
      </trkpt>
      <trkpt lat="49.42321" lon="0.22534">
        <ele>61</ele>
        <time>2022-05-31T11:50:54Z</time>
      </trkpt>
      <trkpt lat="49.42321" lon="0.22534">
        <ele>61</ele>
        <time>2022-05-31T11:50:55Z</time>
      </trkpt>
      <trkpt lat="49.42321" lon="0.22534">
        <ele>61</ele>
        <time>2022-05-31T11:50:56Z</time>
      </trkpt>
      <trkpt lat="49.42321" lon="0.22534">
        <ele>61</ele>
        <time>2022-05-31T11:50:57Z</time>
      </trkpt>
      <trkpt lat="49.4232" lon="0.22535">
        <ele>60.9</ele>
        <time>2022-05-31T11:50:58Z</time>
      </trkpt>
      <trkpt lat="49.4232" lon="0.22535">
        <ele>60.9</ele>
        <time>2022-05-31T11:50:59Z</time>
      </trkpt>
      <trkpt lat="49.4232" lon="0.22535">
        <ele>60.9</ele>
        <time>2022-05-31T11:51:00Z</time>
      </trkpt>
      <trkpt lat="49.42319" lon="0.22535">
        <ele>60.8</ele>
        <time>2022-05-31T11:51:01Z</time>
      </trkpt>
      <trkpt lat="49.42319" lon="0.22536">
        <ele>60.8</ele>
        <time>2022-05-31T11:51:02Z</time>
      </trkpt>
      <trkpt lat="49.42319" lon="0.22536">
        <ele>60.8</ele>
        <time>2022-05-31T11:51:03Z</time>
      </trkpt>
      <trkpt lat="49.42319" lon="0.22536">
        <ele>60.7</ele>
        <time>2022-05-31T11:51:04Z</time>
      </trkpt>
      <trkpt lat="49.42318" lon="0.22536">
        <ele>60.7</ele>
        <time>2022-05-31T11:51:05Z</time>
      </trkpt>
      <trkpt lat="49.42318" lon="0.22536">
        <ele>60.7</ele>
        <time>2022-05-31T11:51:06Z</time>
      </trkpt>
      <trkpt lat="49.42318" lon="0.22536">
        <ele>60.7</ele>
        <time>2022-05-31T11:51:07Z</time>
      </trkpt>
      <trkpt lat="49.42317" lon="0.22536">
        <ele>60.6</ele>
        <time>2022-05-31T11:51:09Z</time>
      </trkpt>
      <trkpt lat="49.42317" lon="0.22536">
        <ele>60.6</ele>
        <time>2022-05-31T11:51:10Z</time>
      </trkpt>
      <trkpt lat="49.42317" lon="0.22535">
        <ele>60.5</ele>
        <time>2022-05-31T11:51:11Z</time>
      </trkpt>
      <trkpt lat="49.42317" lon="0.22534">
        <ele>60.5</ele>
        <time>2022-05-31T11:51:12Z</time>
      </trkpt>
      <trkpt lat="49.42317" lon="0.22534">
        <ele>60.4</ele>
        <time>2022-05-31T11:51:13Z</time>
      </trkpt>
      <trkpt lat="49.42317" lon="0.22533">
        <ele>60.4</ele>
        <time>2022-05-31T11:51:14Z</time>
      </trkpt>
      <trkpt lat="49.42316" lon="0.22532">
        <ele>60.3</ele>
        <time>2022-05-31T11:51:15Z</time>
      </trkpt>
      <trkpt lat="49.42316" lon="0.22531">
        <ele>60.2</ele>
        <time>2022-05-31T11:51:16Z</time>
      </trkpt>
      <trkpt lat="49.42315" lon="0.22531">
        <ele>60.1</ele>
        <time>2022-05-31T11:51:17Z</time>
      </trkpt>
      <trkpt lat="49.42314" lon="0.22531">
        <ele>60</ele>
        <time>2022-05-31T11:51:18Z</time>
      </trkpt>
      <trkpt lat="49.42311" lon="0.22531">
        <ele>59.8</ele>
        <time>2022-05-31T11:51:20Z</time>
      </trkpt>
      <trkpt lat="49.42311" lon="0.22532">
        <ele>59.7</ele>
        <time>2022-05-31T11:51:21Z</time>
      </trkpt>
      <trkpt lat="49.42312" lon="0.22533">
        <ele>59.6</ele>
        <time>2022-05-31T11:51:22Z</time>
      </trkpt>
      <trkpt lat="49.42312" lon="0.22535">
        <ele>59.5</ele>
        <time>2022-05-31T11:51:23Z</time>
      </trkpt>
      <trkpt lat="49.42313" lon="0.22533">
        <ele>59.4</ele>
        <time>2022-05-31T11:51:24Z</time>
      </trkpt>
      <trkpt lat="49.42313" lon="0.22533">
        <ele>59.3</ele>
        <time>2022-05-31T11:51:25Z</time>
      </trkpt>
      <trkpt lat="49.42313" lon="0.22532">
        <ele>59.2</ele>
        <time>2022-05-31T11:51:27Z</time>
      </trkpt>
      <trkpt lat="49.42312" lon="0.2253">
        <ele>59.1</ele>
        <time>2022-05-31T11:51:28Z</time>
      </trkpt>
      <trkpt lat="49.42312" lon="0.22529">
        <ele>59</ele>
        <time>2022-05-31T11:51:29Z</time>
      </trkpt>
      <trkpt lat="49.42311" lon="0.22528">
        <ele>58.9</ele>
        <time>2022-05-31T11:51:30Z</time>
      </trkpt>
      <trkpt lat="49.4231" lon="0.22527">
        <ele>58.8</ele>
        <time>2022-05-31T11:51:31Z</time>
      </trkpt>
      <trkpt lat="49.42309" lon="0.22527">
        <ele>58.7</ele>
        <time>2022-05-31T11:51:32Z</time>
      </trkpt>
      <trkpt lat="49.42308" lon="0.22526">
        <ele>58.6</ele>
        <time>2022-05-31T11:51:34Z</time>
      </trkpt>
      <trkpt lat="49.42307" lon="0.22525">
        <ele>58.5</ele>
        <time>2022-05-31T11:51:35Z</time>
      </trkpt>
      <trkpt lat="49.42305" lon="0.22524">
        <ele>58.3</ele>
        <time>2022-05-31T11:51:36Z</time>
      </trkpt>
      <trkpt lat="49.42304" lon="0.22525">
        <ele>58.2</ele>
        <time>2022-05-31T11:51:37Z</time>
      </trkpt>
      <trkpt lat="49.42301" lon="0.22529">
        <ele>57.8</ele>
        <time>2022-05-31T11:51:38Z</time>
      </trkpt>
      <trkpt lat="49.42298" lon="0.22533">
        <ele>57.5</ele>
        <time>2022-05-31T11:51:39Z</time>
      </trkpt>
      <trkpt lat="49.42297" lon="0.22534">
        <ele>57.3</ele>
        <time>2022-05-31T11:51:41Z</time>
      </trkpt>
      <trkpt lat="49.42296" lon="0.22535">
        <ele>57.2</ele>
        <time>2022-05-31T11:51:42Z</time>
      </trkpt>
      <trkpt lat="49.42294" lon="0.22536">
        <ele>57</ele>
        <time>2022-05-31T11:51:43Z</time>
      </trkpt>
      <trkpt lat="49.42293" lon="0.22536">
        <ele>56.9</ele>
        <time>2022-05-31T11:51:44Z</time>
      </trkpt>
      <trkpt lat="49.42292" lon="0.22536">
        <ele>56.9</ele>
        <time>2022-05-31T11:51:45Z</time>
      </trkpt>
      <trkpt lat="49.42291" lon="0.22536">
        <ele>56.7</ele>
        <time>2022-05-31T11:51:46Z</time>
      </trkpt>
      <trkpt lat="49.4229" lon="0.22537">
        <ele>56.7</ele>
        <time>2022-05-31T11:51:47Z</time>
      </trkpt>
      <trkpt lat="49.4229" lon="0.22537">
        <ele>56.6</ele>
        <time>2022-05-31T11:51:48Z</time>
      </trkpt>
      <trkpt lat="49.42289" lon="0.22538">
        <ele>56.5</ele>
        <time>2022-05-31T11:51:49Z</time>
      </trkpt>
      <trkpt lat="49.42288" lon="0.22541">
        <ele>56.4</ele>
        <time>2022-05-31T11:51:50Z</time>
      </trkpt>
      <trkpt lat="49.42288" lon="0.22542">
        <ele>56.3</ele>
        <time>2022-05-31T11:51:52Z</time>
      </trkpt>
      <trkpt lat="49.42287" lon="0.22543">
        <ele>56.2</ele>
        <time>2022-05-31T11:51:53Z</time>
      </trkpt>
      <trkpt lat="49.42287" lon="0.22545">
        <ele>56</ele>
        <time>2022-05-31T11:51:54Z</time>
      </trkpt>
      <trkpt lat="49.42286" lon="0.22548">
        <ele>55.9</ele>
        <time>2022-05-31T11:51:55Z</time>
      </trkpt>
      <trkpt lat="49.42288" lon="0.22556">
        <ele>55.4</ele>
        <time>2022-05-31T11:51:56Z</time>
      </trkpt>
      <trkpt lat="49.42289" lon="0.22558">
        <ele>55.2</ele>
        <time>2022-05-31T11:51:57Z</time>
      </trkpt>
      <trkpt lat="49.42289" lon="0.2256">
        <ele>55.1</ele>
        <time>2022-05-31T11:51:59Z</time>
      </trkpt>
      <trkpt lat="49.42289" lon="0.22561">
        <ele>55</ele>
        <time>2022-05-31T11:52:00Z</time>
      </trkpt>
      <trkpt lat="49.4229" lon="0.22566">
        <ele>54.7</ele>
        <time>2022-05-31T11:52:02Z</time>
      </trkpt>
      <trkpt lat="49.4229" lon="0.22567">
        <ele>54.7</ele>
        <time>2022-05-31T11:52:03Z</time>
      </trkpt>
      <trkpt lat="49.42291" lon="0.22569">
        <ele>54.5</ele>
        <time>2022-05-31T11:52:04Z</time>
      </trkpt>
      <trkpt lat="49.42292" lon="0.2257">
        <ele>54.4</ele>
        <time>2022-05-31T11:52:05Z</time>
      </trkpt>
      <trkpt lat="49.42292" lon="0.22572">
        <ele>54.3</ele>
        <time>2022-05-31T11:52:07Z</time>
      </trkpt>
      <trkpt lat="49.42292" lon="0.22573">
        <ele>54.2</ele>
        <time>2022-05-31T11:52:08Z</time>
      </trkpt>
      <trkpt lat="49.42293" lon="0.22574">
        <ele>54.2</ele>
        <time>2022-05-31T11:52:09Z</time>
      </trkpt>
      <trkpt lat="49.42293" lon="0.22576">
        <ele>54.1</ele>
        <time>2022-05-31T11:52:10Z</time>
      </trkpt>
      <trkpt lat="49.42293" lon="0.22577">
        <ele>54</ele>
        <time>2022-05-31T11:52:11Z</time>
      </trkpt>
      <trkpt lat="49.42293" lon="0.22578">
        <ele>53.9</ele>
        <time>2022-05-31T11:52:12Z</time>
      </trkpt>
      <trkpt lat="49.42293" lon="0.2258">
        <ele>53.8</ele>
        <time>2022-05-31T11:52:14Z</time>
      </trkpt>
      <trkpt lat="49.42293" lon="0.22582">
        <ele>53.7</ele>
        <time>2022-05-31T11:52:15Z</time>
      </trkpt>
      <trkpt lat="49.42293" lon="0.22583">
        <ele>53.6</ele>
        <time>2022-05-31T11:52:16Z</time>
      </trkpt>
      <trkpt lat="49.42293" lon="0.22585">
        <ele>53.5</ele>
        <time>2022-05-31T11:52:17Z</time>
      </trkpt>
      <trkpt lat="49.42293" lon="0.22586">
        <ele>53.5</ele>
        <time>2022-05-31T11:52:18Z</time>
      </trkpt>
      <trkpt lat="49.42293" lon="0.22587">
        <ele>53.4</ele>
        <time>2022-05-31T11:52:19Z</time>
      </trkpt>
      <trkpt lat="49.42293" lon="0.22589">
        <ele>53.3</ele>
        <time>2022-05-31T11:52:20Z</time>
      </trkpt>
      <trkpt lat="49.42293" lon="0.22591">
        <ele>53.2</ele>
        <time>2022-05-31T11:52:22Z</time>
      </trkpt>
      <trkpt lat="49.42293" lon="0.22592">
        <ele>53.1</ele>
        <time>2022-05-31T11:52:23Z</time>
      </trkpt>
      <trkpt lat="49.42292" lon="0.22594">
        <ele>53</ele>
        <time>2022-05-31T11:52:24Z</time>
      </trkpt>
      <trkpt lat="49.42292" lon="0.22596">
        <ele>52.9</ele>
        <time>2022-05-31T11:52:25Z</time>
      </trkpt>
      <trkpt lat="49.42292" lon="0.22599">
        <ele>52.7</ele>
        <time>2022-05-31T11:52:26Z</time>
      </trkpt>
      <trkpt lat="49.42292" lon="0.22598">
        <ele>52.7</ele>
        <time>2022-05-31T11:52:27Z</time>
      </trkpt>
      <trkpt lat="49.42292" lon="0.22599">
        <ele>52.6</ele>
        <time>2022-05-31T11:52:28Z</time>
      </trkpt>
      <trkpt lat="49.42292" lon="0.226">
        <ele>52.5</ele>
        <time>2022-05-31T11:52:29Z</time>
      </trkpt>
      <trkpt lat="49.42292" lon="0.22602">
        <ele>52.4</ele>
        <time>2022-05-31T11:52:30Z</time>
      </trkpt>
      <trkpt lat="49.42292" lon="0.22604">
        <ele>52.3</ele>
        <time>2022-05-31T11:52:31Z</time>
      </trkpt>
      <trkpt lat="49.42292" lon="0.22605">
        <ele>52.3</ele>
        <time>2022-05-31T11:52:32Z</time>
      </trkpt>
      <trkpt lat="49.42292" lon="0.22606">
        <ele>52.2</ele>
        <time>2022-05-31T11:52:33Z</time>
      </trkpt>
      <trkpt lat="49.42291" lon="0.22608">
        <ele>52.1</ele>
        <time>2022-05-31T11:52:34Z</time>
      </trkpt>
      <trkpt lat="49.42291" lon="0.2261">
        <ele>52</ele>
        <time>2022-05-31T11:52:35Z</time>
      </trkpt>
      <trkpt lat="49.4229" lon="0.22614">
        <ele>51.7</ele>
        <time>2022-05-31T11:52:37Z</time>
      </trkpt>
      <trkpt lat="49.4229" lon="0.22616">
        <ele>51.6</ele>
        <time>2022-05-31T11:52:38Z</time>
      </trkpt>
      <trkpt lat="49.4229" lon="0.22618">
        <ele>51.5</ele>
        <time>2022-05-31T11:52:39Z</time>
      </trkpt>
      <trkpt lat="49.4229" lon="0.2262">
        <ele>51.3</ele>
        <time>2022-05-31T11:52:40Z</time>
      </trkpt>
      <trkpt lat="49.42289" lon="0.22623">
        <ele>51.1</ele>
        <time>2022-05-31T11:52:41Z</time>
      </trkpt>
      <trkpt lat="49.42289" lon="0.22625">
        <ele>51</ele>
        <time>2022-05-31T11:52:43Z</time>
      </trkpt>
      <trkpt lat="49.42289" lon="0.22627">
        <ele>50.9</ele>
        <time>2022-05-31T11:52:44Z</time>
      </trkpt>
      <trkpt lat="49.42288" lon="0.22629">
        <ele>50.8</ele>
        <time>2022-05-31T11:52:45Z</time>
      </trkpt>
      <trkpt lat="49.42288" lon="0.22634">
        <ele>50.5</ele>
        <time>2022-05-31T11:52:47Z</time>
      </trkpt>
      <trkpt lat="49.42289" lon="0.22637">
        <ele>50.3</ele>
        <time>2022-05-31T11:52:48Z</time>
      </trkpt>
      <trkpt lat="49.42289" lon="0.22639">
        <ele>50.1</ele>
        <time>2022-05-31T11:52:49Z</time>
      </trkpt>
      <trkpt lat="49.4229" lon="0.2264">
        <ele>50.1</ele>
        <time>2022-05-31T11:52:50Z</time>
      </trkpt>
      <trkpt lat="49.4229" lon="0.22643">
        <ele>49.9</ele>
        <time>2022-05-31T11:52:52Z</time>
      </trkpt>
      <trkpt lat="49.4229" lon="0.22643">
        <ele>49.9</ele>
        <time>2022-05-31T11:52:53Z</time>
      </trkpt>
      <trkpt lat="49.4229" lon="0.22643">
        <ele>49.9</ele>
        <time>2022-05-31T11:52:54Z</time>
      </trkpt>
      <trkpt lat="49.4229" lon="0.22644">
        <ele>49.8</ele>
        <time>2022-05-31T11:52:56Z</time>
      </trkpt>
      <trkpt lat="49.4229" lon="0.22644">
        <ele>49.8</ele>
        <time>2022-05-31T11:52:57Z</time>
      </trkpt>
      <trkpt lat="49.4229" lon="0.22645">
        <ele>49.7</ele>
        <time>2022-05-31T11:52:58Z</time>
      </trkpt>
      <trkpt lat="49.4229" lon="0.22646">
        <ele>49.7</ele>
        <time>2022-05-31T11:52:59Z</time>
      </trkpt>
      <trkpt lat="49.4229" lon="0.22647">
        <ele>49.6</ele>
        <time>2022-05-31T11:53:00Z</time>
      </trkpt>
      <trkpt lat="49.42289" lon="0.22648">
        <ele>49.6</ele>
        <time>2022-05-31T11:53:01Z</time>
      </trkpt>
      <trkpt lat="49.42289" lon="0.22649">
        <ele>49.5</ele>
        <time>2022-05-31T11:53:02Z</time>
      </trkpt>
      <trkpt lat="49.42289" lon="0.2265">
        <ele>49.4</ele>
        <time>2022-05-31T11:53:04Z</time>
      </trkpt>
      <trkpt lat="49.42289" lon="0.22652">
        <ele>49.3</ele>
        <time>2022-05-31T11:53:05Z</time>
      </trkpt>
      <trkpt lat="49.42289" lon="0.22653">
        <ele>49.3</ele>
        <time>2022-05-31T11:53:06Z</time>
      </trkpt>
      <trkpt lat="49.42289" lon="0.22655">
        <ele>49.1</ele>
        <time>2022-05-31T11:53:07Z</time>
      </trkpt>
      <trkpt lat="49.42288" lon="0.22656">
        <ele>49.1</ele>
        <time>2022-05-31T11:53:08Z</time>
      </trkpt>
      <trkpt lat="49.42288" lon="0.22658">
        <ele>49</ele>
        <time>2022-05-31T11:53:09Z</time>
      </trkpt>
      <trkpt lat="49.42288" lon="0.22659">
        <ele>48.9</ele>
        <time>2022-05-31T11:53:10Z</time>
      </trkpt>
      <trkpt lat="49.42288" lon="0.22661">
        <ele>48.8</ele>
        <time>2022-05-31T11:53:11Z</time>
      </trkpt>
      <trkpt lat="49.42288" lon="0.22662">
        <ele>48.7</ele>
        <time>2022-05-31T11:53:13Z</time>
      </trkpt>
      <trkpt lat="49.42288" lon="0.22663">
        <ele>48.6</ele>
        <time>2022-05-31T11:53:14Z</time>
      </trkpt>
      <trkpt lat="49.42288" lon="0.22665">
        <ele>48.6</ele>
        <time>2022-05-31T11:53:15Z</time>
      </trkpt>
      <trkpt lat="49.42288" lon="0.22668">
        <ele>48.4</ele>
        <time>2022-05-31T11:53:17Z</time>
      </trkpt>
      <trkpt lat="49.42288" lon="0.22669">
        <ele>48.3</ele>
        <time>2022-05-31T11:53:18Z</time>
      </trkpt>
      <trkpt lat="49.42288" lon="0.22671">
        <ele>48.2</ele>
        <time>2022-05-31T11:53:19Z</time>
      </trkpt>
      <trkpt lat="49.42287" lon="0.22672">
        <ele>48.1</ele>
        <time>2022-05-31T11:53:20Z</time>
      </trkpt>
      <trkpt lat="49.42287" lon="0.22674">
        <ele>48.1</ele>
        <time>2022-05-31T11:53:21Z</time>
      </trkpt>
      <trkpt lat="49.42287" lon="0.22676">
        <ele>47.9</ele>
        <time>2022-05-31T11:53:23Z</time>
      </trkpt>
      <trkpt lat="49.42287" lon="0.22677">
        <ele>47.8</ele>
        <time>2022-05-31T11:53:24Z</time>
      </trkpt>
      <trkpt lat="49.42286" lon="0.22679">
        <ele>47.7</ele>
        <time>2022-05-31T11:53:25Z</time>
      </trkpt>
      <trkpt lat="49.42286" lon="0.22681">
        <ele>47.6</ele>
        <time>2022-05-31T11:53:26Z</time>
      </trkpt>
      <trkpt lat="49.42286" lon="0.22682">
        <ele>47.5</ele>
        <time>2022-05-31T11:53:27Z</time>
      </trkpt>
      <trkpt lat="49.42286" lon="0.22683">
        <ele>47.5</ele>
        <time>2022-05-31T11:53:28Z</time>
      </trkpt>
      <trkpt lat="49.42287" lon="0.22685">
        <ele>47.4</ele>
        <time>2022-05-31T11:53:30Z</time>
      </trkpt>
      <trkpt lat="49.42287" lon="0.22689">
        <ele>47.2</ele>
        <time>2022-05-31T11:53:32Z</time>
      </trkpt>
      <trkpt lat="49.42286" lon="0.2269">
        <ele>47.1</ele>
        <time>2022-05-31T11:53:33Z</time>
      </trkpt>
      <trkpt lat="49.42286" lon="0.22692">
        <ele>47</ele>
        <time>2022-05-31T11:53:34Z</time>
      </trkpt>
      <trkpt lat="49.42286" lon="0.22693">
        <ele>46.9</ele>
        <time>2022-05-31T11:53:35Z</time>
      </trkpt>
      <trkpt lat="49.42285" lon="0.22697">
        <ele>46.7</ele>
        <time>2022-05-31T11:53:36Z</time>
      </trkpt>
      <trkpt lat="49.42285" lon="0.22698">
        <ele>46.6</ele>
        <time>2022-05-31T11:53:37Z</time>
      </trkpt>
      <trkpt lat="49.42285" lon="0.22699">
        <ele>46.6</ele>
        <time>2022-05-31T11:53:38Z</time>
      </trkpt>
      <trkpt lat="49.42284" lon="0.227">
        <ele>46.5</ele>
        <time>2022-05-31T11:53:39Z</time>
      </trkpt>
      <trkpt lat="49.42284" lon="0.22703">
        <ele>46.3</ele>
        <time>2022-05-31T11:53:41Z</time>
      </trkpt>
      <trkpt lat="49.42284" lon="0.22706">
        <ele>46.2</ele>
        <time>2022-05-31T11:53:42Z</time>
      </trkpt>
      <trkpt lat="49.42283" lon="0.22707">
        <ele>46.1</ele>
        <time>2022-05-31T11:53:43Z</time>
      </trkpt>
      <trkpt lat="49.42283" lon="0.22709">
        <ele>46</ele>
        <time>2022-05-31T11:53:44Z</time>
      </trkpt>
      <trkpt lat="49.42282" lon="0.22712">
        <ele>45.8</ele>
        <time>2022-05-31T11:53:46Z</time>
      </trkpt>
      <trkpt lat="49.42281" lon="0.22716">
        <ele>45.6</ele>
        <time>2022-05-31T11:53:47Z</time>
      </trkpt>
      <trkpt lat="49.42281" lon="0.22716">
        <ele>45.5</ele>
        <time>2022-05-31T11:53:48Z</time>
      </trkpt>
      <trkpt lat="49.42281" lon="0.22717">
        <ele>45.5</ele>
        <time>2022-05-31T11:53:49Z</time>
      </trkpt>
      <trkpt lat="49.4228" lon="0.22719">
        <ele>45.4</ele>
        <time>2022-05-31T11:53:50Z</time>
      </trkpt>
      <trkpt lat="49.4228" lon="0.22721">
        <ele>45.2</ele>
        <time>2022-05-31T11:53:51Z</time>
      </trkpt>
      <trkpt lat="49.42279" lon="0.22723">
        <ele>45.1</ele>
        <time>2022-05-31T11:53:52Z</time>
      </trkpt>
      <trkpt lat="49.42279" lon="0.22725">
        <ele>45</ele>
        <time>2022-05-31T11:53:53Z</time>
      </trkpt>
      <trkpt lat="49.42278" lon="0.22726">
        <ele>44.9</ele>
        <time>2022-05-31T11:53:55Z</time>
      </trkpt>
      <trkpt lat="49.42277" lon="0.22729">
        <ele>44.7</ele>
        <time>2022-05-31T11:53:56Z</time>
      </trkpt>
      <trkpt lat="49.42276" lon="0.22731">
        <ele>44.6</ele>
        <time>2022-05-31T11:53:57Z</time>
      </trkpt>
      <trkpt lat="49.42276" lon="0.22734">
        <ele>44.4</ele>
        <time>2022-05-31T11:53:59Z</time>
      </trkpt>
      <trkpt lat="49.42275" lon="0.22738">
        <ele>44.2</ele>
        <time>2022-05-31T11:54:00Z</time>
      </trkpt>
      <trkpt lat="49.42275" lon="0.22739">
        <ele>44.1</ele>
        <time>2022-05-31T11:54:01Z</time>
      </trkpt>
      <trkpt lat="49.42274" lon="0.22741">
        <ele>44</ele>
        <time>2022-05-31T11:54:02Z</time>
      </trkpt>
      <trkpt lat="49.42274" lon="0.22743">
        <ele>43.9</ele>
        <time>2022-05-31T11:54:03Z</time>
      </trkpt>
      <trkpt lat="49.42273" lon="0.22744">
        <ele>43.8</ele>
        <time>2022-05-31T11:54:04Z</time>
      </trkpt>
      <trkpt lat="49.42273" lon="0.22745">
        <ele>43.8</ele>
        <time>2022-05-31T11:54:05Z</time>
      </trkpt>
      <trkpt lat="49.42273" lon="0.22746">
        <ele>43.7</ele>
        <time>2022-05-31T11:54:06Z</time>
      </trkpt>
      <trkpt lat="49.42272" lon="0.22749">
        <ele>43.5</ele>
        <time>2022-05-31T11:54:07Z</time>
      </trkpt>
      <trkpt lat="49.42271" lon="0.22751">
        <ele>43.4</ele>
        <time>2022-05-31T11:54:08Z</time>
      </trkpt>
      <trkpt lat="49.42271" lon="0.22753">
        <ele>43.3</ele>
        <time>2022-05-31T11:54:10Z</time>
      </trkpt>
      <trkpt lat="49.4227" lon="0.22755">
        <ele>43.2</ele>
        <time>2022-05-31T11:54:11Z</time>
      </trkpt>
      <trkpt lat="49.42269" lon="0.22759">
        <ele>42.9</ele>
        <time>2022-05-31T11:54:12Z</time>
      </trkpt>
      <trkpt lat="49.42269" lon="0.2276">
        <ele>42.9</ele>
        <time>2022-05-31T11:54:13Z</time>
      </trkpt>
      <trkpt lat="49.42268" lon="0.22761">
        <ele>42.8</ele>
        <time>2022-05-31T11:54:14Z</time>
      </trkpt>
      <trkpt lat="49.42268" lon="0.22763">
        <ele>42.7</ele>
        <time>2022-05-31T11:54:15Z</time>
      </trkpt>
      <trkpt lat="49.42268" lon="0.22764">
        <ele>42.6</ele>
        <time>2022-05-31T11:54:16Z</time>
      </trkpt>
      <trkpt lat="49.42268" lon="0.22766">
        <ele>42.5</ele>
        <time>2022-05-31T11:54:17Z</time>
      </trkpt>
      <trkpt lat="49.42267" lon="0.22767">
        <ele>42.5</ele>
        <time>2022-05-31T11:54:19Z</time>
      </trkpt>
      <trkpt lat="49.42267" lon="0.22767">
        <ele>42.4</ele>
        <time>2022-05-31T11:54:20Z</time>
      </trkpt>
      <trkpt lat="49.42266" lon="0.22768">
        <ele>42.3</ele>
        <time>2022-05-31T11:54:21Z</time>
      </trkpt>
      <trkpt lat="49.42266" lon="0.2277">
        <ele>42.2</ele>
        <time>2022-05-31T11:54:22Z</time>
      </trkpt>
      <trkpt lat="49.42266" lon="0.22771">
        <ele>42.2</ele>
        <time>2022-05-31T11:54:23Z</time>
      </trkpt>
      <trkpt lat="49.42265" lon="0.22772">
        <ele>42.1</ele>
        <time>2022-05-31T11:54:24Z</time>
      </trkpt>
      <trkpt lat="49.42265" lon="0.22774">
        <ele>42</ele>
        <time>2022-05-31T11:54:25Z</time>
      </trkpt>
      <trkpt lat="49.42265" lon="0.22775">
        <ele>41.9</ele>
        <time>2022-05-31T11:54:26Z</time>
      </trkpt>
      <trkpt lat="49.42266" lon="0.22779">
        <ele>41.7</ele>
        <time>2022-05-31T11:54:28Z</time>
      </trkpt>
      <trkpt lat="49.42266" lon="0.2278">
        <ele>41.6</ele>
        <time>2022-05-31T11:54:29Z</time>
      </trkpt>
      <trkpt lat="49.42266" lon="0.22782">
        <ele>41.6</ele>
        <time>2022-05-31T11:54:30Z</time>
      </trkpt>
      <trkpt lat="49.42265" lon="0.22783">
        <ele>41.5</ele>
        <time>2022-05-31T11:54:31Z</time>
      </trkpt>
      <trkpt lat="49.42264" lon="0.22786">
        <ele>41.3</ele>
        <time>2022-05-31T11:54:32Z</time>
      </trkpt>
      <trkpt lat="49.42264" lon="0.22786">
        <ele>41.3</ele>
        <time>2022-05-31T11:54:34Z</time>
      </trkpt>
      <trkpt lat="49.42265" lon="0.22787">
        <ele>41.2</ele>
        <time>2022-05-31T11:54:35Z</time>
      </trkpt>
      <trkpt lat="49.42265" lon="0.22787">
        <ele>41.2</ele>
        <time>2022-05-31T11:54:36Z</time>
      </trkpt>
      <trkpt lat="49.42265" lon="0.22789">
        <ele>41.1</ele>
        <time>2022-05-31T11:54:38Z</time>
      </trkpt>
      <trkpt lat="49.42265" lon="0.22789">
        <ele>41</ele>
        <time>2022-05-31T11:54:39Z</time>
      </trkpt>
      <trkpt lat="49.42264" lon="0.2279">
        <ele>41</ele>
        <time>2022-05-31T11:54:40Z</time>
      </trkpt>
      <trkpt lat="49.42264" lon="0.22791">
        <ele>40.9</ele>
        <time>2022-05-31T11:54:41Z</time>
      </trkpt>
      <trkpt lat="49.42266" lon="0.22794">
        <ele>40.6</ele>
        <time>2022-05-31T11:54:42Z</time>
      </trkpt>
      <trkpt lat="49.42266" lon="0.22796">
        <ele>40.6</ele>
        <time>2022-05-31T11:54:44Z</time>
      </trkpt>
      <trkpt lat="49.42266" lon="0.22797">
        <ele>40.5</ele>
        <time>2022-05-31T11:54:45Z</time>
      </trkpt>
      <trkpt lat="49.42267" lon="0.22799">
        <ele>40.4</ele>
        <time>2022-05-31T11:54:46Z</time>
      </trkpt>
      <trkpt lat="49.42267" lon="0.228">
        <ele>40.3</ele>
        <time>2022-05-31T11:54:47Z</time>
      </trkpt>
      <trkpt lat="49.42267" lon="0.22801">
        <ele>40.3</ele>
        <time>2022-05-31T11:54:48Z</time>
      </trkpt>
      <trkpt lat="49.42266" lon="0.22803">
        <ele>40.2</ele>
        <time>2022-05-31T11:54:49Z</time>
      </trkpt>
      <trkpt lat="49.42266" lon="0.22804">
        <ele>40.1</ele>
        <time>2022-05-31T11:54:50Z</time>
      </trkpt>
      <trkpt lat="49.42267" lon="0.22806">
        <ele>40</ele>
        <time>2022-05-31T11:54:51Z</time>
      </trkpt>
      <trkpt lat="49.42267" lon="0.22806">
        <ele>39.9</ele>
        <time>2022-05-31T11:54:52Z</time>
      </trkpt>
      <trkpt lat="49.42269" lon="0.22807">
        <ele>39.8</ele>
        <time>2022-05-31T11:54:54Z</time>
      </trkpt>
      <trkpt lat="49.4227" lon="0.22807">
        <ele>39.7</ele>
        <time>2022-05-31T11:54:55Z</time>
      </trkpt>
      <trkpt lat="49.4227" lon="0.22808">
        <ele>39.6</ele>
        <time>2022-05-31T11:54:56Z</time>
      </trkpt>
      <trkpt lat="49.4227" lon="0.2281">
        <ele>39.5</ele>
        <time>2022-05-31T11:54:57Z</time>
      </trkpt>
      <trkpt lat="49.4227" lon="0.22813">
        <ele>39.4</ele>
        <time>2022-05-31T11:54:59Z</time>
      </trkpt>
      <trkpt lat="49.42269" lon="0.22815">
        <ele>39.2</ele>
        <time>2022-05-31T11:55:00Z</time>
      </trkpt>
      <trkpt lat="49.42269" lon="0.22817">
        <ele>39.1</ele>
        <time>2022-05-31T11:55:01Z</time>
      </trkpt>
      <trkpt lat="49.42268" lon="0.2282">
        <ele>39</ele>
        <time>2022-05-31T11:55:02Z</time>
      </trkpt>
      <trkpt lat="49.42268" lon="0.22822">
        <ele>38.8</ele>
        <time>2022-05-31T11:55:03Z</time>
      </trkpt>
      <trkpt lat="49.42267" lon="0.22825">
        <ele>38.7</ele>
        <time>2022-05-31T11:55:04Z</time>
      </trkpt>
      <trkpt lat="49.42267" lon="0.22827">
        <ele>38.6</ele>
        <time>2022-05-31T11:55:05Z</time>
      </trkpt>
      <trkpt lat="49.42266" lon="0.22829">
        <ele>38.5</ele>
        <time>2022-05-31T11:55:06Z</time>
      </trkpt>
      <trkpt lat="49.42266" lon="0.22832">
        <ele>38.3</ele>
        <time>2022-05-31T11:55:07Z</time>
      </trkpt>
      <trkpt lat="49.42266" lon="0.22833">
        <ele>38.2</ele>
        <time>2022-05-31T11:55:09Z</time>
      </trkpt>
      <trkpt lat="49.42266" lon="0.22835">
        <ele>38.2</ele>
        <time>2022-05-31T11:55:10Z</time>
      </trkpt>
      <trkpt lat="49.42266" lon="0.22836">
        <ele>38.1</ele>
        <time>2022-05-31T11:55:11Z</time>
      </trkpt>
      <trkpt lat="49.42266" lon="0.22837">
        <ele>38</ele>
        <time>2022-05-31T11:55:12Z</time>
      </trkpt>
      <trkpt lat="49.42266" lon="0.22839">
        <ele>38</ele>
        <time>2022-05-31T11:55:13Z</time>
      </trkpt>
      <trkpt lat="49.42266" lon="0.22841">
        <ele>37.9</ele>
        <time>2022-05-31T11:55:14Z</time>
      </trkpt>
      <trkpt lat="49.42267" lon="0.22842">
        <ele>37.8</ele>
        <time>2022-05-31T11:55:16Z</time>
      </trkpt>
      <trkpt lat="49.42268" lon="0.22843">
        <ele>37.7</ele>
        <time>2022-05-31T11:55:17Z</time>
      </trkpt>
      <trkpt lat="49.42269" lon="0.22844">
        <ele>37.6</ele>
        <time>2022-05-31T11:55:18Z</time>
      </trkpt>
      <trkpt lat="49.4227" lon="0.22845">
        <ele>37.5</ele>
        <time>2022-05-31T11:55:20Z</time>
      </trkpt>
      <trkpt lat="49.4227" lon="0.22845">
        <ele>37.5</ele>
        <time>2022-05-31T11:55:21Z</time>
      </trkpt>
      <trkpt lat="49.4227" lon="0.22845">
        <ele>37.5</ele>
        <time>2022-05-31T11:55:22Z</time>
      </trkpt>
      <trkpt lat="49.42269" lon="0.22843">
        <ele>37.4</ele>
        <time>2022-05-31T11:55:23Z</time>
      </trkpt>
      <trkpt lat="49.42269" lon="0.22843">
        <ele>37.4</ele>
        <time>2022-05-31T11:55:24Z</time>
      </trkpt>
      <trkpt lat="49.4227" lon="0.22843">
        <ele>37.3</ele>
        <time>2022-05-31T11:55:25Z</time>
      </trkpt>
      <trkpt lat="49.4227" lon="0.22842">
        <ele>37.3</ele>
        <time>2022-05-31T11:55:26Z</time>
      </trkpt>
      <trkpt lat="49.4227" lon="0.22842">
        <ele>37.3</ele>
        <time>2022-05-31T11:55:27Z</time>
      </trkpt>
      <trkpt lat="49.4227" lon="0.22842">
        <ele>37.3</ele>
        <time>2022-05-31T11:55:28Z</time>
      </trkpt>
      <trkpt lat="49.4227" lon="0.22842">
        <ele>37.3</ele>
        <time>2022-05-31T11:55:29Z</time>
      </trkpt>
      <trkpt lat="49.4227" lon="0.22842">
        <ele>37.3</ele>
        <time>2022-05-31T11:55:30Z</time>
      </trkpt>
      <trkpt lat="49.4227" lon="0.22842">
        <ele>37.3</ele>
        <time>2022-05-31T11:55:31Z</time>
      </trkpt>
      <trkpt lat="49.4227" lon="0.22842">
        <ele>37.2</ele>
        <time>2022-05-31T11:55:32Z</time>
      </trkpt>
      <trkpt lat="49.4227" lon="0.22842">
        <ele>37.2</ele>
        <time>2022-05-31T11:55:33Z</time>
      </trkpt>
      <trkpt lat="49.4227" lon="0.22842">
        <ele>37.2</ele>
        <time>2022-05-31T11:55:34Z</time>
      </trkpt>
      <trkpt lat="49.4227" lon="0.22842">
        <ele>37.2</ele>
        <time>2022-05-31T11:55:36Z</time>
      </trkpt>
      <trkpt lat="49.4227" lon="0.22842">
        <ele>37.2</ele>
        <time>2022-05-31T11:55:37Z</time>
      </trkpt>
      <trkpt lat="49.4227" lon="0.22842">
        <ele>37.2</ele>
        <time>2022-05-31T11:55:38Z</time>
      </trkpt>
      <trkpt lat="49.42269" lon="0.22842">
        <ele>37.1</ele>
        <time>2022-05-31T11:55:39Z</time>
      </trkpt>
      <trkpt lat="49.42268" lon="0.22842">
        <ele>37.1</ele>
        <time>2022-05-31T11:55:41Z</time>
      </trkpt>
      <trkpt lat="49.42268" lon="0.22842">
        <ele>37.1</ele>
        <time>2022-05-31T11:55:42Z</time>
      </trkpt>
      <trkpt lat="49.42266" lon="0.22842">
        <ele>37</ele>
        <time>2022-05-31T11:55:44Z</time>
      </trkpt>
      <trkpt lat="49.42266" lon="0.22842">
        <ele>36.9</ele>
        <time>2022-05-31T11:55:45Z</time>
      </trkpt>
      <trkpt lat="49.42265" lon="0.22842">
        <ele>36.9</ele>
        <time>2022-05-31T11:55:46Z</time>
      </trkpt>
      <trkpt lat="49.42265" lon="0.22842">
        <ele>36.9</ele>
        <time>2022-05-31T11:55:47Z</time>
      </trkpt>
      <trkpt lat="49.42264" lon="0.22842">
        <ele>36.8</ele>
        <time>2022-05-31T11:55:48Z</time>
      </trkpt>
      <trkpt lat="49.42263" lon="0.22842">
        <ele>36.8</ele>
        <time>2022-05-31T11:55:49Z</time>
      </trkpt>
      <trkpt lat="49.42263" lon="0.22842">
        <ele>36.7</ele>
        <time>2022-05-31T11:55:50Z</time>
      </trkpt>
      <trkpt lat="49.42263" lon="0.22846">
        <ele>36.6</ele>
        <time>2022-05-31T11:55:52Z</time>
      </trkpt>
      <trkpt lat="49.42264" lon="0.22848">
        <ele>36.5</ele>
        <time>2022-05-31T11:55:53Z</time>
      </trkpt>
      <trkpt lat="49.42265" lon="0.22849">
        <ele>36.4</ele>
        <time>2022-05-31T11:55:54Z</time>
      </trkpt>
      <trkpt lat="49.42265" lon="0.2285">
        <ele>36.3</ele>
        <time>2022-05-31T11:55:56Z</time>
      </trkpt>
      <trkpt lat="49.42265" lon="0.22849">
        <ele>36.2</ele>
        <time>2022-05-31T11:55:57Z</time>
      </trkpt>
      <trkpt lat="49.42264" lon="0.22849">
        <ele>36.1</ele>
        <time>2022-05-31T11:55:58Z</time>
      </trkpt>
      <trkpt lat="49.42264" lon="0.22849">
        <ele>36.1</ele>
        <time>2022-05-31T11:55:59Z</time>
      </trkpt>
      <trkpt lat="49.42263" lon="0.22848">
        <ele>36</ele>
        <time>2022-05-31T11:56:01Z</time>
      </trkpt>
      <trkpt lat="49.42262" lon="0.22848">
        <ele>35.9</ele>
        <time>2022-05-31T11:56:02Z</time>
      </trkpt>
      <trkpt lat="49.42261" lon="0.22848">
        <ele>35.9</ele>
        <time>2022-05-31T11:56:03Z</time>
      </trkpt>
      <trkpt lat="49.4226" lon="0.22849">
        <ele>35.8</ele>
        <time>2022-05-31T11:56:04Z</time>
      </trkpt>
      <trkpt lat="49.42258" lon="0.22849">
        <ele>35.7</ele>
        <time>2022-05-31T11:56:06Z</time>
      </trkpt>
      <trkpt lat="49.42257" lon="0.2285">
        <ele>35.6</ele>
        <time>2022-05-31T11:56:08Z</time>
      </trkpt>
      <trkpt lat="49.42257" lon="0.22853">
        <ele>35.4</ele>
        <time>2022-05-31T11:56:09Z</time>
      </trkpt>
      <trkpt lat="49.42257" lon="0.22854">
        <ele>35.4</ele>
        <time>2022-05-31T11:56:10Z</time>
      </trkpt>
      <trkpt lat="49.42256" lon="0.22855">
        <ele>35.3</ele>
        <time>2022-05-31T11:56:11Z</time>
      </trkpt>
      <trkpt lat="49.42256" lon="0.22857">
        <ele>35.2</ele>
        <time>2022-05-31T11:56:12Z</time>
      </trkpt>
      <trkpt lat="49.42255" lon="0.22857">
        <ele>35.2</ele>
        <time>2022-05-31T11:56:13Z</time>
      </trkpt>
      <trkpt lat="49.42254" lon="0.22858">
        <ele>35.1</ele>
        <time>2022-05-31T11:56:14Z</time>
      </trkpt>
      <trkpt lat="49.42253" lon="0.22859">
        <ele>35</ele>
        <time>2022-05-31T11:56:15Z</time>
      </trkpt>
      <trkpt lat="49.42252" lon="0.2286">
        <ele>34.9</ele>
        <time>2022-05-31T11:56:16Z</time>
      </trkpt>
      <trkpt lat="49.4225" lon="0.22861">
        <ele>34.7</ele>
        <time>2022-05-31T11:56:18Z</time>
      </trkpt>
      <trkpt lat="49.42249" lon="0.2286">
        <ele>34.6</ele>
        <time>2022-05-31T11:56:19Z</time>
      </trkpt>
      <trkpt lat="49.42248" lon="0.2286">
        <ele>34.5</ele>
        <time>2022-05-31T11:56:20Z</time>
      </trkpt>
      <trkpt lat="49.42247" lon="0.2286">
        <ele>34.4</ele>
        <time>2022-05-31T11:56:21Z</time>
      </trkpt>
      <trkpt lat="49.42246" lon="0.22861">
        <ele>34.3</ele>
        <time>2022-05-31T11:56:22Z</time>
      </trkpt>
      <trkpt lat="49.42245" lon="0.22861">
        <ele>34.3</ele>
        <time>2022-05-31T11:56:23Z</time>
      </trkpt>
      <trkpt lat="49.42243" lon="0.22863">
        <ele>34.1</ele>
        <time>2022-05-31T11:56:24Z</time>
      </trkpt>
      <trkpt lat="49.42242" lon="0.22863">
        <ele>34</ele>
        <time>2022-05-31T11:56:25Z</time>
      </trkpt>
      <trkpt lat="49.42241" lon="0.22864">
        <ele>34</ele>
        <time>2022-05-31T11:56:26Z</time>
      </trkpt>
      <trkpt lat="49.4224" lon="0.22864">
        <ele>33.9</ele>
        <time>2022-05-31T11:56:27Z</time>
      </trkpt>
      <trkpt lat="49.42238" lon="0.22865">
        <ele>33.7</ele>
        <time>2022-05-31T11:56:29Z</time>
      </trkpt>
      <trkpt lat="49.42238" lon="0.22866">
        <ele>33.7</ele>
        <time>2022-05-31T11:56:30Z</time>
      </trkpt>
      <trkpt lat="49.42237" lon="0.22868">
        <ele>33.5</ele>
        <time>2022-05-31T11:56:31Z</time>
      </trkpt>
      <trkpt lat="49.42236" lon="0.22869">
        <ele>33.4</ele>
        <time>2022-05-31T11:56:32Z</time>
      </trkpt>
      <trkpt lat="49.42234" lon="0.22871">
        <ele>33.2</ele>
        <time>2022-05-31T11:56:33Z</time>
      </trkpt>
      <trkpt lat="49.42234" lon="0.22871">
        <ele>33.2</ele>
        <time>2022-05-31T11:56:34Z</time>
      </trkpt>
      <trkpt lat="49.42233" lon="0.22872">
        <ele>33.1</ele>
        <time>2022-05-31T11:56:35Z</time>
      </trkpt>
      <trkpt lat="49.42232" lon="0.22873">
        <ele>33</ele>
        <time>2022-05-31T11:56:36Z</time>
      </trkpt>
      <trkpt lat="49.42231" lon="0.22875">
        <ele>32.9</ele>
        <time>2022-05-31T11:56:37Z</time>
      </trkpt>
      <trkpt lat="49.42229" lon="0.22876">
        <ele>32.8</ele>
        <time>2022-05-31T11:56:39Z</time>
      </trkpt>
      <trkpt lat="49.42228" lon="0.22877">
        <ele>32.6</ele>
        <time>2022-05-31T11:56:40Z</time>
      </trkpt>
      <trkpt lat="49.42226" lon="0.22879">
        <ele>32.5</ele>
        <time>2022-05-31T11:56:41Z</time>
      </trkpt>
      <trkpt lat="49.42226" lon="0.2288">
        <ele>32.4</ele>
        <time>2022-05-31T11:56:42Z</time>
      </trkpt>
      <trkpt lat="49.42225" lon="0.22881">
        <ele>32.3</ele>
        <time>2022-05-31T11:56:44Z</time>
      </trkpt>
      <trkpt lat="49.42224" lon="0.22882">
        <ele>32.2</ele>
        <time>2022-05-31T11:56:45Z</time>
      </trkpt>
      <trkpt lat="49.42223" lon="0.22883">
        <ele>32.2</ele>
        <time>2022-05-31T11:56:46Z</time>
      </trkpt>
      <trkpt lat="49.42223" lon="0.22884">
        <ele>32.1</ele>
        <time>2022-05-31T11:56:47Z</time>
      </trkpt>
      <trkpt lat="49.42221" lon="0.22885">
        <ele>32</ele>
        <time>2022-05-31T11:56:48Z</time>
      </trkpt>
      <trkpt lat="49.4222" lon="0.22886">
        <ele>31.9</ele>
        <time>2022-05-31T11:56:49Z</time>
      </trkpt>
      <trkpt lat="49.42219" lon="0.22888">
        <ele>31.7</ele>
        <time>2022-05-31T11:56:50Z</time>
      </trkpt>
      <trkpt lat="49.42218" lon="0.22889">
        <ele>31.6</ele>
        <time>2022-05-31T11:56:52Z</time>
      </trkpt>
      <trkpt lat="49.42216" lon="0.2289">
        <ele>31.5</ele>
        <time>2022-05-31T11:56:53Z</time>
      </trkpt>
      <trkpt lat="49.42215" lon="0.22892">
        <ele>31.4</ele>
        <time>2022-05-31T11:56:54Z</time>
      </trkpt>
      <trkpt lat="49.42214" lon="0.22893">
        <ele>31.3</ele>
        <time>2022-05-31T11:56:55Z</time>
      </trkpt>
      <trkpt lat="49.42213" lon="0.22895">
        <ele>31.1</ele>
        <time>2022-05-31T11:56:56Z</time>
      </trkpt>
      <trkpt lat="49.42211" lon="0.22897">
        <ele>31</ele>
        <time>2022-05-31T11:56:57Z</time>
      </trkpt>
      <trkpt lat="49.4221" lon="0.22898">
        <ele>30.9</ele>
        <time>2022-05-31T11:56:58Z</time>
      </trkpt>
      <trkpt lat="49.42208" lon="0.22901">
        <ele>30.7</ele>
        <time>2022-05-31T11:57:00Z</time>
      </trkpt>
      <trkpt lat="49.42207" lon="0.22901">
        <ele>30.7</ele>
        <time>2022-05-31T11:57:01Z</time>
      </trkpt>
      <trkpt lat="49.42206" lon="0.22902">
        <ele>30.6</ele>
        <time>2022-05-31T11:57:02Z</time>
      </trkpt>
      <trkpt lat="49.42205" lon="0.22903">
        <ele>30.5</ele>
        <time>2022-05-31T11:57:03Z</time>
      </trkpt>
      <trkpt lat="49.42204" lon="0.22907">
        <ele>30.3</ele>
        <time>2022-05-31T11:57:05Z</time>
      </trkpt>
      <trkpt lat="49.42204" lon="0.22908">
        <ele>30.2</ele>
        <time>2022-05-31T11:57:06Z</time>
      </trkpt>
      <trkpt lat="49.42204" lon="0.22909">
        <ele>30.1</ele>
        <time>2022-05-31T11:57:07Z</time>
      </trkpt>
      <trkpt lat="49.42203" lon="0.22911">
        <ele>30</ele>
        <time>2022-05-31T11:57:08Z</time>
      </trkpt>
      <trkpt lat="49.42203" lon="0.22912">
        <ele>30</ele>
        <time>2022-05-31T11:57:09Z</time>
      </trkpt>
      <trkpt lat="49.42202" lon="0.22913">
        <ele>29.9</ele>
        <time>2022-05-31T11:57:10Z</time>
      </trkpt>
      <trkpt lat="49.42201" lon="0.22912">
        <ele>29.8</ele>
        <time>2022-05-31T11:57:11Z</time>
      </trkpt>
      <trkpt lat="49.42201" lon="0.22912">
        <ele>29.8</ele>
        <time>2022-05-31T11:57:12Z</time>
      </trkpt>
      <trkpt lat="49.42201" lon="0.22913">
        <ele>29.7</ele>
        <time>2022-05-31T11:57:13Z</time>
      </trkpt>
      <trkpt lat="49.42201" lon="0.22912">
        <ele>29.7</ele>
        <time>2022-05-31T11:57:14Z</time>
      </trkpt>
      <trkpt lat="49.42201" lon="0.22913">
        <ele>29.7</ele>
        <time>2022-05-31T11:57:16Z</time>
      </trkpt>
      <trkpt lat="49.42201" lon="0.22913">
        <ele>29.7</ele>
        <time>2022-05-31T11:57:17Z</time>
      </trkpt>
      <trkpt lat="49.42201" lon="0.22913">
        <ele>29.6</ele>
        <time>2022-05-31T11:57:18Z</time>
      </trkpt>
      <trkpt lat="49.42202" lon="0.22913">
        <ele>29.6</ele>
        <time>2022-05-31T11:57:19Z</time>
      </trkpt>
      <trkpt lat="49.42202" lon="0.22912">
        <ele>29.6</ele>
        <time>2022-05-31T11:57:20Z</time>
      </trkpt>
      <trkpt lat="49.42202" lon="0.22912">
        <ele>29.6</ele>
        <time>2022-05-31T11:57:21Z</time>
      </trkpt>
      <trkpt lat="49.42202" lon="0.22912">
        <ele>29.6</ele>
        <time>2022-05-31T11:57:22Z</time>
      </trkpt>
      <trkpt lat="49.42202" lon="0.22912">
        <ele>29.6</ele>
        <time>2022-05-31T11:57:23Z</time>
      </trkpt>
      <trkpt lat="49.42202" lon="0.22912">
        <ele>29.5</ele>
        <time>2022-05-31T11:57:24Z</time>
      </trkpt>
      <trkpt lat="49.42201" lon="0.22912">
        <ele>29.5</ele>
        <time>2022-05-31T11:57:26Z</time>
      </trkpt>
      <trkpt lat="49.42201" lon="0.22913">
        <ele>29.4</ele>
        <time>2022-05-31T11:57:27Z</time>
      </trkpt>
      <trkpt lat="49.422" lon="0.22914">
        <ele>29.4</ele>
        <time>2022-05-31T11:57:28Z</time>
      </trkpt>
      <trkpt lat="49.422" lon="0.22914">
        <ele>29.4</ele>
        <time>2022-05-31T11:57:29Z</time>
      </trkpt>
      <trkpt lat="49.422" lon="0.22913">
        <ele>29.3</ele>
        <time>2022-05-31T11:57:30Z</time>
      </trkpt>
      <trkpt lat="49.422" lon="0.22913">
        <ele>29.3</ele>
        <time>2022-05-31T11:57:31Z</time>
      </trkpt>
      <trkpt lat="49.42201" lon="0.22913">
        <ele>29.3</ele>
        <time>2022-05-31T11:57:33Z</time>
      </trkpt>
      <trkpt lat="49.42202" lon="0.22913">
        <ele>29.2</ele>
        <time>2022-05-31T11:57:34Z</time>
      </trkpt>
      <trkpt lat="49.42204" lon="0.22914">
        <ele>29</ele>
        <time>2022-05-31T11:57:35Z</time>
      </trkpt>
      <trkpt lat="49.42203" lon="0.22914">
        <ele>28.9</ele>
        <time>2022-05-31T11:57:36Z</time>
      </trkpt>
      <trkpt lat="49.42203" lon="0.22915">
        <ele>28.9</ele>
        <time>2022-05-31T11:57:37Z</time>
      </trkpt>
      <trkpt lat="49.42203" lon="0.22916">
        <ele>28.8</ele>
        <time>2022-05-31T11:57:38Z</time>
      </trkpt>
      <trkpt lat="49.42202" lon="0.22918">
        <ele>28.7</ele>
        <time>2022-05-31T11:57:39Z</time>
      </trkpt>
      <trkpt lat="49.42201" lon="0.22922">
        <ele>28.5</ele>
        <time>2022-05-31T11:57:41Z</time>
      </trkpt>
      <trkpt lat="49.42201" lon="0.22924">
        <ele>28.4</ele>
        <time>2022-05-31T11:57:42Z</time>
      </trkpt>
      <trkpt lat="49.422" lon="0.22925">
        <ele>28.3</ele>
        <time>2022-05-31T11:57:43Z</time>
      </trkpt>
      <trkpt lat="49.42199" lon="0.22928">
        <ele>28.2</ele>
        <time>2022-05-31T11:57:45Z</time>
      </trkpt>
      <trkpt lat="49.42199" lon="0.22929">
        <ele>28.1</ele>
        <time>2022-05-31T11:57:46Z</time>
      </trkpt>
      <trkpt lat="49.42198" lon="0.2293">
        <ele>28.1</ele>
        <time>2022-05-31T11:57:47Z</time>
      </trkpt>
      <trkpt lat="49.42198" lon="0.22931">
        <ele>28</ele>
        <time>2022-05-31T11:57:48Z</time>
      </trkpt>
      <trkpt lat="49.42198" lon="0.22931">
        <ele>28</ele>
        <time>2022-05-31T11:57:49Z</time>
      </trkpt>
      <trkpt lat="49.42197" lon="0.22931">
        <ele>28</ele>
        <time>2022-05-31T11:57:50Z</time>
      </trkpt>
      <trkpt lat="49.42194" lon="0.22933">
        <ele>27.7</ele>
        <time>2022-05-31T11:57:51Z</time>
      </trkpt>
      <trkpt lat="49.42193" lon="0.22934">
        <ele>27.7</ele>
        <time>2022-05-31T11:57:52Z</time>
      </trkpt>
      <trkpt lat="49.42192" lon="0.22936">
        <ele>27.6</ele>
        <time>2022-05-31T11:57:54Z</time>
      </trkpt>
      <trkpt lat="49.42192" lon="0.22937">
        <ele>27.5</ele>
        <time>2022-05-31T11:57:55Z</time>
      </trkpt>
      <trkpt lat="49.42191" lon="0.22938">
        <ele>27.4</ele>
        <time>2022-05-31T11:57:56Z</time>
      </trkpt>
      <trkpt lat="49.4219" lon="0.22938">
        <ele>27.4</ele>
        <time>2022-05-31T11:57:57Z</time>
      </trkpt>
      <trkpt lat="49.42189" lon="0.22938">
        <ele>27.3</ele>
        <time>2022-05-31T11:57:58Z</time>
      </trkpt>
      <trkpt lat="49.42189" lon="0.22939">
        <ele>27.3</ele>
        <time>2022-05-31T11:57:59Z</time>
      </trkpt>
      <trkpt lat="49.42188" lon="0.2294">
        <ele>27.2</ele>
        <time>2022-05-31T11:58:00Z</time>
      </trkpt>
      <trkpt lat="49.42188" lon="0.22941">
        <ele>27.2</ele>
        <time>2022-05-31T11:58:01Z</time>
      </trkpt>
      <trkpt lat="49.42187" lon="0.22943">
        <ele>27.1</ele>
        <time>2022-05-31T11:58:02Z</time>
      </trkpt>
      <trkpt lat="49.42187" lon="0.22944">
        <ele>27</ele>
        <time>2022-05-31T11:58:04Z</time>
      </trkpt>
      <trkpt lat="49.42187" lon="0.22945">
        <ele>27</ele>
        <time>2022-05-31T11:58:05Z</time>
      </trkpt>
      <trkpt lat="49.42188" lon="0.22946">
        <ele>26.9</ele>
        <time>2022-05-31T11:58:06Z</time>
      </trkpt>
      <trkpt lat="49.42189" lon="0.22946">
        <ele>26.9</ele>
        <time>2022-05-31T11:58:07Z</time>
      </trkpt>
      <trkpt lat="49.42188" lon="0.22947">
        <ele>26.8</ele>
        <time>2022-05-31T11:58:08Z</time>
      </trkpt>
      <trkpt lat="49.42187" lon="0.22948">
        <ele>26.7</ele>
        <time>2022-05-31T11:58:09Z</time>
      </trkpt>
      <trkpt lat="49.42185" lon="0.22952">
        <ele>26.5</ele>
        <time>2022-05-31T11:58:10Z</time>
      </trkpt>
      <trkpt lat="49.42185" lon="0.22953">
        <ele>26.5</ele>
        <time>2022-05-31T11:58:11Z</time>
      </trkpt>
      <trkpt lat="49.42184" lon="0.22955">
        <ele>26.4</ele>
        <time>2022-05-31T11:58:12Z</time>
      </trkpt>
      <trkpt lat="49.42182" lon="0.22957">
        <ele>26.3</ele>
        <time>2022-05-31T11:58:14Z</time>
      </trkpt>
      <trkpt lat="49.4218" lon="0.22961">
        <ele>26.1</ele>
        <time>2022-05-31T11:58:15Z</time>
      </trkpt>
      <trkpt lat="49.4218" lon="0.22962">
        <ele>26</ele>
        <time>2022-05-31T11:58:16Z</time>
      </trkpt>
      <trkpt lat="49.42178" lon="0.22967">
        <ele>25.8</ele>
        <time>2022-05-31T11:58:17Z</time>
      </trkpt>
      <trkpt lat="49.42176" lon="0.22972">
        <ele>25.6</ele>
        <time>2022-05-31T11:58:18Z</time>
      </trkpt>
      <trkpt lat="49.42175" lon="0.22974">
        <ele>25.5</ele>
        <time>2022-05-31T11:58:19Z</time>
      </trkpt>
      <trkpt lat="49.42175" lon="0.22975">
        <ele>25.4</ele>
        <time>2022-05-31T11:58:20Z</time>
      </trkpt>
      <trkpt lat="49.42174" lon="0.22977">
        <ele>25.4</ele>
        <time>2022-05-31T11:58:22Z</time>
      </trkpt>
      <trkpt lat="49.42174" lon="0.22979">
        <ele>25.3</ele>
        <time>2022-05-31T11:58:23Z</time>
      </trkpt>
      <trkpt lat="49.42173" lon="0.22981">
        <ele>24.9</ele>
        <time>2022-05-31T11:58:24Z</time>
      </trkpt>
      <trkpt lat="49.42173" lon="0.22982">
        <ele>24.9</ele>
        <time>2022-05-31T11:58:26Z</time>
      </trkpt>
      <trkpt lat="49.42172" lon="0.22983">
        <ele>24.9</ele>
        <time>2022-05-31T11:58:27Z</time>
      </trkpt>
      <trkpt lat="49.42173" lon="0.22983">
        <ele>24.9</ele>
        <time>2022-05-31T11:58:28Z</time>
      </trkpt>
      <trkpt lat="49.42174" lon="0.22984">
        <ele>24.9</ele>
        <time>2022-05-31T11:58:29Z</time>
      </trkpt>
      <trkpt lat="49.42173" lon="0.22983">
        <ele>24.9</ele>
        <time>2022-05-31T11:58:30Z</time>
      </trkpt>
      <trkpt lat="49.42173" lon="0.22984">
        <ele>24.9</ele>
        <time>2022-05-31T11:58:31Z</time>
      </trkpt>
      <trkpt lat="49.42172" lon="0.22985">
        <ele>24.9</ele>
        <time>2022-05-31T11:58:32Z</time>
      </trkpt>
      <trkpt lat="49.42172" lon="0.22985">
        <ele>24.8</ele>
        <time>2022-05-31T11:58:34Z</time>
      </trkpt>
      <trkpt lat="49.42172" lon="0.22985">
        <ele>24.8</ele>
        <time>2022-05-31T11:58:35Z</time>
      </trkpt>
      <trkpt lat="49.42172" lon="0.22986">
        <ele>24.8</ele>
        <time>2022-05-31T11:58:37Z</time>
      </trkpt>
      <trkpt lat="49.42172" lon="0.22986">
        <ele>24.8</ele>
        <time>2022-05-31T11:58:38Z</time>
      </trkpt>
      <trkpt lat="49.42172" lon="0.22987">
        <ele>24.8</ele>
        <time>2022-05-31T11:58:39Z</time>
      </trkpt>
      <trkpt lat="49.42172" lon="0.22987">
        <ele>24.8</ele>
        <time>2022-05-31T11:58:41Z</time>
      </trkpt>
      <trkpt lat="49.42172" lon="0.22988">
        <ele>24.8</ele>
        <time>2022-05-31T11:58:42Z</time>
      </trkpt>
      <trkpt lat="49.42173" lon="0.22989">
        <ele>24.8</ele>
        <time>2022-05-31T11:58:43Z</time>
      </trkpt>
      <trkpt lat="49.42173" lon="0.2299">
        <ele>24.8</ele>
        <time>2022-05-31T11:58:44Z</time>
      </trkpt>
      <trkpt lat="49.42175" lon="0.2299">
        <ele>24.8</ele>
        <time>2022-05-31T11:58:46Z</time>
      </trkpt>
      <trkpt lat="49.42175" lon="0.2299">
        <ele>24.8</ele>
        <time>2022-05-31T11:58:47Z</time>
      </trkpt>
      <trkpt lat="49.42175" lon="0.22989">
        <ele>24.7</ele>
        <time>2022-05-31T11:58:48Z</time>
      </trkpt>
      <trkpt lat="49.42176" lon="0.22988">
        <ele>24.7</ele>
        <time>2022-05-31T11:58:49Z</time>
      </trkpt>
      <trkpt lat="49.42176" lon="0.22987">
        <ele>24.7</ele>
        <time>2022-05-31T11:58:50Z</time>
      </trkpt>
      <trkpt lat="49.42177" lon="0.22986">
        <ele>24.7</ele>
        <time>2022-05-31T11:58:51Z</time>
      </trkpt>
      <trkpt lat="49.42177" lon="0.22985">
        <ele>24.7</ele>
        <time>2022-05-31T11:58:53Z</time>
      </trkpt>
      <trkpt lat="49.42178" lon="0.22984">
        <ele>24.7</ele>
        <time>2022-05-31T11:58:54Z</time>
      </trkpt>
      <trkpt lat="49.42179" lon="0.22983">
        <ele>24.7</ele>
        <time>2022-05-31T11:58:55Z</time>
      </trkpt>
      <trkpt lat="49.4218" lon="0.22984">
        <ele>24.6</ele>
        <time>2022-05-31T11:58:56Z</time>
      </trkpt>
      <trkpt lat="49.42181" lon="0.22985">
        <ele>24.6</ele>
        <time>2022-05-31T11:58:57Z</time>
      </trkpt>
      <trkpt lat="49.42182" lon="0.22985">
        <ele>24.6</ele>
        <time>2022-05-31T11:58:58Z</time>
      </trkpt>
      <trkpt lat="49.42184" lon="0.22987">
        <ele>24.6</ele>
        <time>2022-05-31T11:58:59Z</time>
      </trkpt>
      <trkpt lat="49.42186" lon="0.22989">
        <ele>24.5</ele>
        <time>2022-05-31T11:59:01Z</time>
      </trkpt>
      <trkpt lat="49.42187" lon="0.2299">
        <ele>24.5</ele>
        <time>2022-05-31T11:59:02Z</time>
      </trkpt>
      <trkpt lat="49.42188" lon="0.22991">
        <ele>24.5</ele>
        <time>2022-05-31T11:59:03Z</time>
      </trkpt>
      <trkpt lat="49.42189" lon="0.22991">
        <ele>24.4</ele>
        <time>2022-05-31T11:59:04Z</time>
      </trkpt>
      <trkpt lat="49.4219" lon="0.22993">
        <ele>24.4</ele>
        <time>2022-05-31T11:59:05Z</time>
      </trkpt>
      <trkpt lat="49.42191" lon="0.23">
        <ele>24.3</ele>
        <time>2022-05-31T11:59:06Z</time>
      </trkpt>
      <trkpt lat="49.42191" lon="0.23005">
        <ele>24.2</ele>
        <time>2022-05-31T11:59:07Z</time>
      </trkpt>
      <trkpt lat="49.42192" lon="0.23006">
        <ele>24.2</ele>
        <time>2022-05-31T11:59:08Z</time>
      </trkpt>
      <trkpt lat="49.42194" lon="0.23007">
        <ele>24.2</ele>
        <time>2022-05-31T11:59:09Z</time>
      </trkpt>
      <trkpt lat="49.42195" lon="0.23007">
        <ele>24.1</ele>
        <time>2022-05-31T11:59:11Z</time>
      </trkpt>
      <trkpt lat="49.42196" lon="0.23007">
        <ele>24.1</ele>
        <time>2022-05-31T11:59:12Z</time>
      </trkpt>
      <trkpt lat="49.42198" lon="0.23007">
        <ele>24</ele>
        <time>2022-05-31T11:59:13Z</time>
      </trkpt>
      <trkpt lat="49.42199" lon="0.23007">
        <ele>24</ele>
        <time>2022-05-31T11:59:14Z</time>
      </trkpt>
      <trkpt lat="49.42201" lon="0.23008">
        <ele>24</ele>
        <time>2022-05-31T11:59:15Z</time>
      </trkpt>
      <trkpt lat="49.42202" lon="0.23008">
        <ele>24</ele>
        <time>2022-05-31T11:59:16Z</time>
      </trkpt>
      <trkpt lat="49.42203" lon="0.23008">
        <ele>23.9</ele>
        <time>2022-05-31T11:59:17Z</time>
      </trkpt>
      <trkpt lat="49.42204" lon="0.23008">
        <ele>23.9</ele>
        <time>2022-05-31T11:59:18Z</time>
      </trkpt>
      <trkpt lat="49.42205" lon="0.23008">
        <ele>23.8</ele>
        <time>2022-05-31T11:59:19Z</time>
      </trkpt>
      <trkpt lat="49.42207" lon="0.23009">
        <ele>23.7</ele>
        <time>2022-05-31T11:59:20Z</time>
      </trkpt>
      <trkpt lat="49.42208" lon="0.23009">
        <ele>23.7</ele>
        <time>2022-05-31T11:59:22Z</time>
      </trkpt>
      <trkpt lat="49.42209" lon="0.23009">
        <ele>23.6</ele>
        <time>2022-05-31T11:59:23Z</time>
      </trkpt>
      <trkpt lat="49.4221" lon="0.2301">
        <ele>23.5</ele>
        <time>2022-05-31T11:59:24Z</time>
      </trkpt>
      <trkpt lat="49.42212" lon="0.23011">
        <ele>23.4</ele>
        <time>2022-05-31T11:59:25Z</time>
      </trkpt>
      <trkpt lat="49.42213" lon="0.23011">
        <ele>23.4</ele>
        <time>2022-05-31T11:59:26Z</time>
      </trkpt>
      <trkpt lat="49.42214" lon="0.23011">
        <ele>23.3</ele>
        <time>2022-05-31T11:59:28Z</time>
      </trkpt>
      <trkpt lat="49.42215" lon="0.23012">
        <ele>23.2</ele>
        <time>2022-05-31T11:59:29Z</time>
      </trkpt>
      <trkpt lat="49.42216" lon="0.23012">
        <ele>23.2</ele>
        <time>2022-05-31T11:59:30Z</time>
      </trkpt>
      <trkpt lat="49.42217" lon="0.23012">
        <ele>23.1</ele>
        <time>2022-05-31T11:59:31Z</time>
      </trkpt>
      <trkpt lat="49.42219" lon="0.23014">
        <ele>22.9</ele>
        <time>2022-05-31T11:59:32Z</time>
      </trkpt>
      <trkpt lat="49.4222" lon="0.23014">
        <ele>22.9</ele>
        <time>2022-05-31T11:59:33Z</time>
      </trkpt>
      <trkpt lat="49.42222" lon="0.23015">
        <ele>22.7</ele>
        <time>2022-05-31T11:59:34Z</time>
      </trkpt>
      <trkpt lat="49.42223" lon="0.23016">
        <ele>22.6</ele>
        <time>2022-05-31T11:59:35Z</time>
      </trkpt>
      <trkpt lat="49.42225" lon="0.23017">
        <ele>22.4</ele>
        <time>2022-05-31T11:59:36Z</time>
      </trkpt>
      <trkpt lat="49.42227" lon="0.23019">
        <ele>22.3</ele>
        <time>2022-05-31T11:59:37Z</time>
      </trkpt>
      <trkpt lat="49.42228" lon="0.2302">
        <ele>22.1</ele>
        <time>2022-05-31T11:59:39Z</time>
      </trkpt>
      <trkpt lat="49.42229" lon="0.23021">
        <ele>22</ele>
        <time>2022-05-31T11:59:40Z</time>
      </trkpt>
      <trkpt lat="49.42232" lon="0.23024">
        <ele>21.8</ele>
        <time>2022-05-31T11:59:41Z</time>
      </trkpt>
      <trkpt lat="49.42233" lon="0.23026">
        <ele>21.6</ele>
        <time>2022-05-31T11:59:42Z</time>
      </trkpt>
      <trkpt lat="49.42234" lon="0.23027">
        <ele>21.4</ele>
        <time>2022-05-31T11:59:43Z</time>
      </trkpt>
      <trkpt lat="49.42235" lon="0.23028">
        <ele>21.3</ele>
        <time>2022-05-31T11:59:44Z</time>
      </trkpt>
      <trkpt lat="49.42236" lon="0.2303">
        <ele>21.2</ele>
        <time>2022-05-31T11:59:45Z</time>
      </trkpt>
      <trkpt lat="49.42238" lon="0.23033">
        <ele>21</ele>
        <time>2022-05-31T11:59:47Z</time>
      </trkpt>
      <trkpt lat="49.42239" lon="0.23034">
        <ele>20.9</ele>
        <time>2022-05-31T11:59:48Z</time>
      </trkpt>
      <trkpt lat="49.4224" lon="0.23036">
        <ele>20.8</ele>
        <time>2022-05-31T11:59:49Z</time>
      </trkpt>
      <trkpt lat="49.42241" lon="0.23037">
        <ele>20.6</ele>
        <time>2022-05-31T11:59:50Z</time>
      </trkpt>
      <trkpt lat="49.42243" lon="0.2304">
        <ele>20.4</ele>
        <time>2022-05-31T11:59:51Z</time>
      </trkpt>
      <trkpt lat="49.42244" lon="0.23041">
        <ele>20.3</ele>
        <time>2022-05-31T11:59:52Z</time>
      </trkpt>
      <trkpt lat="49.42245" lon="0.23042">
        <ele>20.2</ele>
        <time>2022-05-31T11:59:53Z</time>
      </trkpt>
      <trkpt lat="49.42246" lon="0.23043">
        <ele>20.1</ele>
        <time>2022-05-31T11:59:54Z</time>
      </trkpt>
      <trkpt lat="49.42246" lon="0.23044">
        <ele>20</ele>
        <time>2022-05-31T11:59:55Z</time>
      </trkpt>
      <trkpt lat="49.42247" lon="0.23045">
        <ele>19.9</ele>
        <time>2022-05-31T11:59:56Z</time>
      </trkpt>
      <trkpt lat="49.42248" lon="0.23047">
        <ele>19.8</ele>
        <time>2022-05-31T11:59:57Z</time>
      </trkpt>
      <trkpt lat="49.4225" lon="0.23048">
        <ele>19.7</ele>
        <time>2022-05-31T11:59:58Z</time>
      </trkpt>
      <trkpt lat="49.42251" lon="0.2305">
        <ele>19.5</ele>
        <time>2022-05-31T12:00:00Z</time>
      </trkpt>
      <trkpt lat="49.42252" lon="0.23052">
        <ele>19.3</ele>
        <time>2022-05-31T12:00:01Z</time>
      </trkpt>
      <trkpt lat="49.42254" lon="0.23054">
        <ele>19.1</ele>
        <time>2022-05-31T12:00:03Z</time>
      </trkpt>
      <trkpt lat="49.42254" lon="0.23055">
        <ele>19.1</ele>
        <time>2022-05-31T12:00:04Z</time>
      </trkpt>
      <trkpt lat="49.42255" lon="0.23055">
        <ele>19</ele>
        <time>2022-05-31T12:00:05Z</time>
      </trkpt>
      <trkpt lat="49.42256" lon="0.23056">
        <ele>18.9</ele>
        <time>2022-05-31T12:00:06Z</time>
      </trkpt>
      <trkpt lat="49.42256" lon="0.23056">
        <ele>18.9</ele>
        <time>2022-05-31T12:00:08Z</time>
      </trkpt>
      <trkpt lat="49.42257" lon="0.23057">
        <ele>18.8</ele>
        <time>2022-05-31T12:00:09Z</time>
      </trkpt>
      <trkpt lat="49.42258" lon="0.23058">
        <ele>18.7</ele>
        <time>2022-05-31T12:00:10Z</time>
      </trkpt>
      <trkpt lat="49.42259" lon="0.23059">
        <ele>18.6</ele>
        <time>2022-05-31T12:00:11Z</time>
      </trkpt>
      <trkpt lat="49.4226" lon="0.2306">
        <ele>18.4</ele>
        <time>2022-05-31T12:00:12Z</time>
      </trkpt>
      <trkpt lat="49.4226" lon="0.2306">
        <ele>18.4</ele>
        <time>2022-05-31T12:00:13Z</time>
      </trkpt>
      <trkpt lat="49.42261" lon="0.23061">
        <ele>18.3</ele>
        <time>2022-05-31T12:00:14Z</time>
      </trkpt>
      <trkpt lat="49.42261" lon="0.23062">
        <ele>18.3</ele>
        <time>2022-05-31T12:00:15Z</time>
      </trkpt>
      <trkpt lat="49.4226" lon="0.23063">
        <ele>18.2</ele>
        <time>2022-05-31T12:00:17Z</time>
      </trkpt>
      <trkpt lat="49.42261" lon="0.23063">
        <ele>17.5</ele>
        <time>2022-05-31T12:00:18Z</time>
      </trkpt>
      <trkpt lat="49.42261" lon="0.23064">
        <ele>17.5</ele>
        <time>2022-05-31T12:00:19Z</time>
      </trkpt>
      <trkpt lat="49.42262" lon="0.23064">
        <ele>17.5</ele>
        <time>2022-05-31T12:00:20Z</time>
      </trkpt>
      <trkpt lat="49.42263" lon="0.23064">
        <ele>17.6</ele>
        <time>2022-05-31T12:00:21Z</time>
      </trkpt>
      <trkpt lat="49.42265" lon="0.23065">
        <ele>17.6</ele>
        <time>2022-05-31T12:00:22Z</time>
      </trkpt>
      <trkpt lat="49.42266" lon="0.23066">
        <ele>17.6</ele>
        <time>2022-05-31T12:00:24Z</time>
      </trkpt>
      <trkpt lat="49.42267" lon="0.23065">
        <ele>17.6</ele>
        <time>2022-05-31T12:00:25Z</time>
      </trkpt>
      <trkpt lat="49.42267" lon="0.23064">
        <ele>17.6</ele>
        <time>2022-05-31T12:00:26Z</time>
      </trkpt>
      <trkpt lat="49.42267" lon="0.23062">
        <ele>17.7</ele>
        <time>2022-05-31T12:00:27Z</time>
      </trkpt>
      <trkpt lat="49.42268" lon="0.23062">
        <ele>17.7</ele>
        <time>2022-05-31T12:00:28Z</time>
      </trkpt>
      <trkpt lat="49.42268" lon="0.23061">
        <ele>17.7</ele>
        <time>2022-05-31T12:00:29Z</time>
      </trkpt>
      <trkpt lat="49.42269" lon="0.2306">
        <ele>17.7</ele>
        <time>2022-05-31T12:00:30Z</time>
      </trkpt>
      <trkpt lat="49.42269" lon="0.2306">
        <ele>17.7</ele>
        <time>2022-05-31T12:00:31Z</time>
      </trkpt>
      <trkpt lat="49.42267" lon="0.23063">
        <ele>17.7</ele>
        <time>2022-05-31T12:00:33Z</time>
      </trkpt>
      <trkpt lat="49.42267" lon="0.23063">
        <ele>17.7</ele>
        <time>2022-05-31T12:00:34Z</time>
      </trkpt>
      <trkpt lat="49.42267" lon="0.23063">
        <ele>17.7</ele>
        <time>2022-05-31T12:00:35Z</time>
      </trkpt>
      <trkpt lat="49.42267" lon="0.23063">
        <ele>17.7</ele>
        <time>2022-05-31T12:00:36Z</time>
      </trkpt>
      <trkpt lat="49.42266" lon="0.23062">
        <ele>17.8</ele>
        <time>2022-05-31T12:00:37Z</time>
      </trkpt>
      <trkpt lat="49.42266" lon="0.23062">
        <ele>17.8</ele>
        <time>2022-05-31T12:00:38Z</time>
      </trkpt>
      <trkpt lat="49.42266" lon="0.23062">
        <ele>17.8</ele>
        <time>2022-05-31T12:00:40Z</time>
      </trkpt>
      <trkpt lat="49.42266" lon="0.2306">
        <ele>17.8</ele>
        <time>2022-05-31T12:00:41Z</time>
      </trkpt>
      <trkpt lat="49.42267" lon="0.2306">
        <ele>17.8</ele>
        <time>2022-05-31T12:00:43Z</time>
      </trkpt>
      <trkpt lat="49.42267" lon="0.2306">
        <ele>17.8</ele>
        <time>2022-05-31T12:00:44Z</time>
      </trkpt>
      <trkpt lat="49.42267" lon="0.2306">
        <ele>17.8</ele>
        <time>2022-05-31T12:00:46Z</time>
      </trkpt>
      <trkpt lat="49.42267" lon="0.23061">
        <ele>17.8</ele>
        <time>2022-05-31T12:00:47Z</time>
      </trkpt>
      <trkpt lat="49.42266" lon="0.23061">
        <ele>17.8</ele>
        <time>2022-05-31T12:00:48Z</time>
      </trkpt>
      <trkpt lat="49.42266" lon="0.23062">
        <ele>17.8</ele>
        <time>2022-05-31T12:00:50Z</time>
      </trkpt>
      <trkpt lat="49.42266" lon="0.23063">
        <ele>17.9</ele>
        <time>2022-05-31T12:00:51Z</time>
      </trkpt>
      <trkpt lat="49.42266" lon="0.23063">
        <ele>17.9</ele>
        <time>2022-05-31T12:00:52Z</time>
      </trkpt>
      <trkpt lat="49.42266" lon="0.23062">
        <ele>17.9</ele>
        <time>2022-05-31T12:00:53Z</time>
      </trkpt>
      <trkpt lat="49.42266" lon="0.23062">
        <ele>17.9</ele>
        <time>2022-05-31T12:00:54Z</time>
      </trkpt>
      <trkpt lat="49.42266" lon="0.23062">
        <ele>17.9</ele>
        <time>2022-05-31T12:00:55Z</time>
      </trkpt>
      <trkpt lat="49.42266" lon="0.23061">
        <ele>17.9</ele>
        <time>2022-05-31T12:00:56Z</time>
      </trkpt>
      <trkpt lat="49.42266" lon="0.23061">
        <ele>17.9</ele>
        <time>2022-05-31T12:00:57Z</time>
      </trkpt>
      <trkpt lat="49.42266" lon="0.23061">
        <ele>17.9</ele>
        <time>2022-05-31T12:00:59Z</time>
      </trkpt>
      <trkpt lat="49.42266" lon="0.2306">
        <ele>17.9</ele>
        <time>2022-05-31T12:01:00Z</time>
      </trkpt>
      <trkpt lat="49.42266" lon="0.2306">
        <ele>17.9</ele>
        <time>2022-05-31T12:01:01Z</time>
      </trkpt>
      <trkpt lat="49.42266" lon="0.2306">
        <ele>17.9</ele>
        <time>2022-05-31T12:01:02Z</time>
      </trkpt>
      <trkpt lat="49.42266" lon="0.23059">
        <ele>17.9</ele>
        <time>2022-05-31T12:01:03Z</time>
      </trkpt>
      <trkpt lat="49.42266" lon="0.23059">
        <ele>17.9</ele>
        <time>2022-05-31T12:01:05Z</time>
      </trkpt>
      <trkpt lat="49.42266" lon="0.23059">
        <ele>17.9</ele>
        <time>2022-05-31T12:01:06Z</time>
      </trkpt>
      <trkpt lat="49.42266" lon="0.23058">
        <ele>17.9</ele>
        <time>2022-05-31T12:01:07Z</time>
      </trkpt>
      <trkpt lat="49.42266" lon="0.23058">
        <ele>17.9</ele>
        <time>2022-05-31T12:01:08Z</time>
      </trkpt>
      <trkpt lat="49.42266" lon="0.23058">
        <ele>17.9</ele>
        <time>2022-05-31T12:01:09Z</time>
      </trkpt>
      <trkpt lat="49.42266" lon="0.23057">
        <ele>17.9</ele>
        <time>2022-05-31T12:01:10Z</time>
      </trkpt>
      <trkpt lat="49.42266" lon="0.23057">
        <ele>18</ele>
        <time>2022-05-31T12:01:12Z</time>
      </trkpt>
      <trkpt lat="49.42266" lon="0.23057">
        <ele>18</ele>
        <time>2022-05-31T12:01:13Z</time>
      </trkpt>
      <trkpt lat="49.42266" lon="0.23056">
        <ele>18</ele>
        <time>2022-05-31T12:01:14Z</time>
      </trkpt>
      <trkpt lat="49.42269" lon="0.23054">
        <ele>18</ele>
        <time>2022-05-31T12:01:15Z</time>
      </trkpt>
      <trkpt lat="49.4227" lon="0.23053">
        <ele>18.1</ele>
        <time>2022-05-31T12:01:16Z</time>
      </trkpt>
      <trkpt lat="49.42272" lon="0.2305">
        <ele>18.1</ele>
        <time>2022-05-31T12:01:17Z</time>
      </trkpt>
      <trkpt lat="49.42273" lon="0.23049">
        <ele>18.2</ele>
        <time>2022-05-31T12:01:18Z</time>
      </trkpt>
      <trkpt lat="49.42274" lon="0.23047">
        <ele>18.2</ele>
        <time>2022-05-31T12:01:20Z</time>
      </trkpt>
      <trkpt lat="49.42275" lon="0.23046">
        <ele>18.2</ele>
        <time>2022-05-31T12:01:21Z</time>
      </trkpt>
      <trkpt lat="49.42276" lon="0.23043">
        <ele>18.3</ele>
        <time>2022-05-31T12:01:22Z</time>
      </trkpt>
      <trkpt lat="49.42277" lon="0.23042">
        <ele>18.3</ele>
        <time>2022-05-31T12:01:23Z</time>
      </trkpt>
      <trkpt lat="49.42278" lon="0.23042">
        <ele>18.3</ele>
        <time>2022-05-31T12:01:24Z</time>
      </trkpt>
      <trkpt lat="49.42279" lon="0.23041">
        <ele>18.4</ele>
        <time>2022-05-31T12:01:25Z</time>
      </trkpt>
      <trkpt lat="49.4228" lon="0.2304">
        <ele>18.4</ele>
        <time>2022-05-31T12:01:26Z</time>
      </trkpt>
      <trkpt lat="49.42281" lon="0.23039">
        <ele>18.4</ele>
        <time>2022-05-31T12:01:28Z</time>
      </trkpt>
      <trkpt lat="49.42282" lon="0.23038">
        <ele>18.4</ele>
        <time>2022-05-31T12:01:29Z</time>
      </trkpt>
      <trkpt lat="49.42282" lon="0.23037">
        <ele>18.5</ele>
        <time>2022-05-31T12:01:30Z</time>
      </trkpt>
      <trkpt lat="49.42283" lon="0.23036">
        <ele>18.5</ele>
        <time>2022-05-31T12:01:31Z</time>
      </trkpt>
      <trkpt lat="49.42284" lon="0.23036">
        <ele>18.5</ele>
        <time>2022-05-31T12:01:32Z</time>
      </trkpt>
      <trkpt lat="49.42285" lon="0.23035">
        <ele>18.5</ele>
        <time>2022-05-31T12:01:34Z</time>
      </trkpt>
      <trkpt lat="49.42286" lon="0.23034">
        <ele>18.6</ele>
        <time>2022-05-31T12:01:35Z</time>
      </trkpt>
      <trkpt lat="49.42286" lon="0.23034">
        <ele>18.6</ele>
        <time>2022-05-31T12:01:36Z</time>
      </trkpt>
      <trkpt lat="49.42286" lon="0.23035">
        <ele>18.6</ele>
        <time>2022-05-31T12:01:37Z</time>
      </trkpt>
      <trkpt lat="49.42286" lon="0.23035">
        <ele>18.6</ele>
        <time>2022-05-31T12:01:38Z</time>
      </trkpt>
      <trkpt lat="49.42286" lon="0.23033">
        <ele>18.6</ele>
        <time>2022-05-31T12:01:39Z</time>
      </trkpt>
      <trkpt lat="49.42287" lon="0.2303">
        <ele>18.7</ele>
        <time>2022-05-31T12:01:40Z</time>
      </trkpt>
      <trkpt lat="49.42289" lon="0.23023">
        <ele>18.8</ele>
        <time>2022-05-31T12:01:42Z</time>
      </trkpt>
      <trkpt lat="49.42289" lon="0.23022">
        <ele>18.8</ele>
        <time>2022-05-31T12:01:43Z</time>
      </trkpt>
      <trkpt lat="49.4229" lon="0.2302">
        <ele>18.8</ele>
        <time>2022-05-31T12:01:44Z</time>
      </trkpt>
      <trkpt lat="49.42291" lon="0.23018">
        <ele>18.8</ele>
        <time>2022-05-31T12:01:45Z</time>
      </trkpt>
      <trkpt lat="49.42291" lon="0.23018">
        <ele>18.9</ele>
        <time>2022-05-31T12:01:46Z</time>
      </trkpt>
      <trkpt lat="49.42291" lon="0.23017">
        <ele>18.9</ele>
        <time>2022-05-31T12:01:47Z</time>
      </trkpt>
      <trkpt lat="49.42291" lon="0.23016">
        <ele>18.9</ele>
        <time>2022-05-31T12:01:49Z</time>
      </trkpt>
      <trkpt lat="49.42292" lon="0.23015">
        <ele>18.9</ele>
        <time>2022-05-31T12:01:50Z</time>
      </trkpt>
      <trkpt lat="49.42292" lon="0.23014">
        <ele>18.9</ele>
        <time>2022-05-31T12:01:51Z</time>
      </trkpt>
      <trkpt lat="49.42293" lon="0.23014">
        <ele>18.9</ele>
        <time>2022-05-31T12:01:52Z</time>
      </trkpt>
      <trkpt lat="49.42294" lon="0.23014">
        <ele>18.9</ele>
        <time>2022-05-31T12:01:53Z</time>
      </trkpt>
      <trkpt lat="49.42294" lon="0.23013">
        <ele>18.9</ele>
        <time>2022-05-31T12:01:54Z</time>
      </trkpt>
      <trkpt lat="49.42294" lon="0.23015">
        <ele>18.9</ele>
        <time>2022-05-31T12:01:55Z</time>
      </trkpt>
      <trkpt lat="49.42295" lon="0.23017">
        <ele>19</ele>
        <time>2022-05-31T12:01:56Z</time>
      </trkpt>
      <trkpt lat="49.42295" lon="0.23017">
        <ele>19</ele>
        <time>2022-05-31T12:01:58Z</time>
      </trkpt>
      <trkpt lat="49.42296" lon="0.23015">
        <ele>19</ele>
        <time>2022-05-31T12:01:59Z</time>
      </trkpt>
      <trkpt lat="49.42297" lon="0.23014">
        <ele>19</ele>
        <time>2022-05-31T12:02:00Z</time>
      </trkpt>
      <trkpt lat="49.42299" lon="0.23011">
        <ele>19</ele>
        <time>2022-05-31T12:02:01Z</time>
      </trkpt>
      <trkpt lat="49.42299" lon="0.2301">
        <ele>19</ele>
        <time>2022-05-31T12:02:03Z</time>
      </trkpt>
      <trkpt lat="49.42299" lon="0.23009">
        <ele>19</ele>
        <time>2022-05-31T12:02:04Z</time>
      </trkpt>
      <trkpt lat="49.423" lon="0.23007">
        <ele>19</ele>
        <time>2022-05-31T12:02:05Z</time>
      </trkpt>
      <trkpt lat="49.423" lon="0.23006">
        <ele>19</ele>
        <time>2022-05-31T12:02:06Z</time>
      </trkpt>
      <trkpt lat="49.42301" lon="0.23004">
        <ele>19</ele>
        <time>2022-05-31T12:02:07Z</time>
      </trkpt>
      <trkpt lat="49.42301" lon="0.23003">
        <ele>19</ele>
        <time>2022-05-31T12:02:08Z</time>
      </trkpt>
      <trkpt lat="49.42302" lon="0.23003">
        <ele>19</ele>
        <time>2022-05-31T12:02:09Z</time>
      </trkpt>
      <trkpt lat="49.42302" lon="0.23002">
        <ele>19</ele>
        <time>2022-05-31T12:02:10Z</time>
      </trkpt>
      <trkpt lat="49.42302" lon="0.23002">
        <ele>19</ele>
        <time>2022-05-31T12:02:11Z</time>
      </trkpt>
      <trkpt lat="49.42303" lon="0.23002">
        <ele>19</ele>
        <time>2022-05-31T12:02:12Z</time>
      </trkpt>
      <trkpt lat="49.42303" lon="0.23002">
        <ele>19</ele>
        <time>2022-05-31T12:02:13Z</time>
      </trkpt>
      <trkpt lat="49.42303" lon="0.23001">
        <ele>19</ele>
        <time>2022-05-31T12:02:15Z</time>
      </trkpt>
      <trkpt lat="49.42303" lon="0.23">
        <ele>19</ele>
        <time>2022-05-31T12:02:16Z</time>
      </trkpt>
      <trkpt lat="49.42303" lon="0.23">
        <ele>19</ele>
        <time>2022-05-31T12:02:17Z</time>
      </trkpt>
      <trkpt lat="49.42303" lon="0.23">
        <ele>19</ele>
        <time>2022-05-31T12:02:18Z</time>
      </trkpt>
      <trkpt lat="49.42303" lon="0.23">
        <ele>19</ele>
        <time>2022-05-31T12:02:19Z</time>
      </trkpt>
      <trkpt lat="49.42303" lon="0.23">
        <ele>18.9</ele>
        <time>2022-05-31T12:02:20Z</time>
      </trkpt>
      <trkpt lat="49.42303" lon="0.23">
        <ele>18.9</ele>
        <time>2022-05-31T12:02:21Z</time>
      </trkpt>
      <trkpt lat="49.42303" lon="0.23">
        <ele>18.9</ele>
        <time>2022-05-31T12:02:22Z</time>
      </trkpt>
      <trkpt lat="49.42303" lon="0.23">
        <ele>18.9</ele>
        <time>2022-05-31T12:02:23Z</time>
      </trkpt>
      <trkpt lat="49.42303" lon="0.23">
        <ele>18.9</ele>
        <time>2022-05-31T12:02:24Z</time>
      </trkpt>
      <trkpt lat="49.42304" lon="0.23">
        <ele>18.9</ele>
        <time>2022-05-31T12:02:25Z</time>
      </trkpt>
      <trkpt lat="49.42304" lon="0.23">
        <ele>18.9</ele>
        <time>2022-05-31T12:02:27Z</time>
      </trkpt>
      <trkpt lat="49.42304" lon="0.22999">
        <ele>18.9</ele>
        <time>2022-05-31T12:02:28Z</time>
      </trkpt>
      <trkpt lat="49.42305" lon="0.22998">
        <ele>18.9</ele>
        <time>2022-05-31T12:02:29Z</time>
      </trkpt>
      <trkpt lat="49.42306" lon="0.22997">
        <ele>18.9</ele>
        <time>2022-05-31T12:02:30Z</time>
      </trkpt>
      <trkpt lat="49.42306" lon="0.22996">
        <ele>18.9</ele>
        <time>2022-05-31T12:02:31Z</time>
      </trkpt>
      <trkpt lat="49.42307" lon="0.22995">
        <ele>18.9</ele>
        <time>2022-05-31T12:02:33Z</time>
      </trkpt>
      <trkpt lat="49.42307" lon="0.22994">
        <ele>18.9</ele>
        <time>2022-05-31T12:02:34Z</time>
      </trkpt>
      <trkpt lat="49.42308" lon="0.22992">
        <ele>18.9</ele>
        <time>2022-05-31T12:02:35Z</time>
      </trkpt>
      <trkpt lat="49.4231" lon="0.22988">
        <ele>18.8</ele>
        <time>2022-05-31T12:02:36Z</time>
      </trkpt>
      <trkpt lat="49.42311" lon="0.22986">
        <ele>18.8</ele>
        <time>2022-05-31T12:02:37Z</time>
      </trkpt>
      <trkpt lat="49.42312" lon="0.22985">
        <ele>18.8</ele>
        <time>2022-05-31T12:02:38Z</time>
      </trkpt>
      <trkpt lat="49.42312" lon="0.22983">
        <ele>18.7</ele>
        <time>2022-05-31T12:02:39Z</time>
      </trkpt>
      <trkpt lat="49.42313" lon="0.22982">
        <ele>18.7</ele>
        <time>2022-05-31T12:02:40Z</time>
      </trkpt>
      <trkpt lat="49.42314" lon="0.22981">
        <ele>18.7</ele>
        <time>2022-05-31T12:02:41Z</time>
      </trkpt>
      <trkpt lat="49.42315" lon="0.2298">
        <ele>18.7</ele>
        <time>2022-05-31T12:02:43Z</time>
      </trkpt>
      <trkpt lat="49.42316" lon="0.22979">
        <ele>18.7</ele>
        <time>2022-05-31T12:02:44Z</time>
      </trkpt>
      <trkpt lat="49.42317" lon="0.22977">
        <ele>18.6</ele>
        <time>2022-05-31T12:02:45Z</time>
      </trkpt>
      <trkpt lat="49.42318" lon="0.22975">
        <ele>18.6</ele>
        <time>2022-05-31T12:02:46Z</time>
      </trkpt>
      <trkpt lat="49.42319" lon="0.22973">
        <ele>18.6</ele>
        <time>2022-05-31T12:02:47Z</time>
      </trkpt>
      <trkpt lat="49.4232" lon="0.22971">
        <ele>18.5</ele>
        <time>2022-05-31T12:02:48Z</time>
      </trkpt>
      <trkpt lat="49.42321" lon="0.2297">
        <ele>18.5</ele>
        <time>2022-05-31T12:02:49Z</time>
      </trkpt>
      <trkpt lat="49.42322" lon="0.22968">
        <ele>18.5</ele>
        <time>2022-05-31T12:02:50Z</time>
      </trkpt>
      <trkpt lat="49.42324" lon="0.22967">
        <ele>18.5</ele>
        <time>2022-05-31T12:02:51Z</time>
      </trkpt>
      <trkpt lat="49.42325" lon="0.22966">
        <ele>18.5</ele>
        <time>2022-05-31T12:02:52Z</time>
      </trkpt>
      <trkpt lat="49.42326" lon="0.22966">
        <ele>18.5</ele>
        <time>2022-05-31T12:02:53Z</time>
      </trkpt>
      <trkpt lat="49.42326" lon="0.22967">
        <ele>18.5</ele>
        <time>2022-05-31T12:02:54Z</time>
      </trkpt>
      <trkpt lat="49.42326" lon="0.2297">
        <ele>18.4</ele>
        <time>2022-05-31T12:02:55Z</time>
      </trkpt>
      <trkpt lat="49.42326" lon="0.2297">
        <ele>18.4</ele>
        <time>2022-05-31T12:02:56Z</time>
      </trkpt>
      <trkpt lat="49.42325" lon="0.2297">
        <ele>18.4</ele>
        <time>2022-05-31T12:02:57Z</time>
      </trkpt>
      <trkpt lat="49.42325" lon="0.22969">
        <ele>18.4</ele>
        <time>2022-05-31T12:02:59Z</time>
      </trkpt>
      <trkpt lat="49.42325" lon="0.22969">
        <ele>18.4</ele>
        <time>2022-05-31T12:03:00Z</time>
      </trkpt>
      <trkpt lat="49.42325" lon="0.22968">
        <ele>18.4</ele>
        <time>2022-05-31T12:03:01Z</time>
      </trkpt>
      <trkpt lat="49.42325" lon="0.22967">
        <ele>18.4</ele>
        <time>2022-05-31T12:03:02Z</time>
      </trkpt>
      <trkpt lat="49.42325" lon="0.22966">
        <ele>18.4</ele>
        <time>2022-05-31T12:03:03Z</time>
      </trkpt>
      <trkpt lat="49.42325" lon="0.22964">
        <ele>18.4</ele>
        <time>2022-05-31T12:03:04Z</time>
      </trkpt>
      <trkpt lat="49.42324" lon="0.22962">
        <ele>18.4</ele>
        <time>2022-05-31T12:03:05Z</time>
      </trkpt>
      <trkpt lat="49.42325" lon="0.22962">
        <ele>18.4</ele>
        <time>2022-05-31T12:03:07Z</time>
      </trkpt>
      <trkpt lat="49.42325" lon="0.22961">
        <ele>18.3</ele>
        <time>2022-05-31T12:03:08Z</time>
      </trkpt>
      <trkpt lat="49.42325" lon="0.22959">
        <ele>18.3</ele>
        <time>2022-05-31T12:03:09Z</time>
      </trkpt>
      <trkpt lat="49.42326" lon="0.22958">
        <ele>18.3</ele>
        <time>2022-05-31T12:03:10Z</time>
      </trkpt>
      <trkpt lat="49.42327" lon="0.22955">
        <ele>18.3</ele>
        <time>2022-05-31T12:03:11Z</time>
      </trkpt>
      <trkpt lat="49.42327" lon="0.22954">
        <ele>18.3</ele>
        <time>2022-05-31T12:03:12Z</time>
      </trkpt>
      <trkpt lat="49.42328" lon="0.22953">
        <ele>18.3</ele>
        <time>2022-05-31T12:03:13Z</time>
      </trkpt>
      <trkpt lat="49.42329" lon="0.22949">
        <ele>18.2</ele>
        <time>2022-05-31T12:03:14Z</time>
      </trkpt>
      <trkpt lat="49.4233" lon="0.22948">
        <ele>18.2</ele>
        <time>2022-05-31T12:03:16Z</time>
      </trkpt>
      <trkpt lat="49.42331" lon="0.22947">
        <ele>18.2</ele>
        <time>2022-05-31T12:03:17Z</time>
      </trkpt>
      <trkpt lat="49.42331" lon="0.22946">
        <ele>18.2</ele>
        <time>2022-05-31T12:03:18Z</time>
      </trkpt>
      <trkpt lat="49.42332" lon="0.22944">
        <ele>18.2</ele>
        <time>2022-05-31T12:03:19Z</time>
      </trkpt>
      <trkpt lat="49.42332" lon="0.22943">
        <ele>18.2</ele>
        <time>2022-05-31T12:03:20Z</time>
      </trkpt>
      <trkpt lat="49.42333" lon="0.22943">
        <ele>18.2</ele>
        <time>2022-05-31T12:03:21Z</time>
      </trkpt>
      <trkpt lat="49.42333" lon="0.22942">
        <ele>18.2</ele>
        <time>2022-05-31T12:03:22Z</time>
      </trkpt>
      <trkpt lat="49.42333" lon="0.2294">
        <ele>18.2</ele>
        <time>2022-05-31T12:03:24Z</time>
      </trkpt>
      <trkpt lat="49.42334" lon="0.22937">
        <ele>18.1</ele>
        <time>2022-05-31T12:03:25Z</time>
      </trkpt>
      <trkpt lat="49.42334" lon="0.22936">
        <ele>18.1</ele>
        <time>2022-05-31T12:03:26Z</time>
      </trkpt>
      <trkpt lat="49.42334" lon="0.22934">
        <ele>18.1</ele>
        <time>2022-05-31T12:03:27Z</time>
      </trkpt>
      <trkpt lat="49.42335" lon="0.22932">
        <ele>18.1</ele>
        <time>2022-05-31T12:03:28Z</time>
      </trkpt>
      <trkpt lat="49.42335" lon="0.22926">
        <ele>18.1</ele>
        <time>2022-05-31T12:03:29Z</time>
      </trkpt>
      <trkpt lat="49.42335" lon="0.22924">
        <ele>18.1</ele>
        <time>2022-05-31T12:03:30Z</time>
      </trkpt>
      <trkpt lat="49.42337" lon="0.2292">
        <ele>18.1</ele>
        <time>2022-05-31T12:03:32Z</time>
      </trkpt>
      <trkpt lat="49.42337" lon="0.22919">
        <ele>18.1</ele>
        <time>2022-05-31T12:03:33Z</time>
      </trkpt>
      <trkpt lat="49.42338" lon="0.22915">
        <ele>18</ele>
        <time>2022-05-31T12:03:34Z</time>
      </trkpt>
      <trkpt lat="49.42339" lon="0.22913">
        <ele>18</ele>
        <time>2022-05-31T12:03:35Z</time>
      </trkpt>
      <trkpt lat="49.4234" lon="0.22909">
        <ele>18</ele>
        <time>2022-05-31T12:03:36Z</time>
      </trkpt>
      <trkpt lat="49.42341" lon="0.22907">
        <ele>17.9</ele>
        <time>2022-05-31T12:03:37Z</time>
      </trkpt>
      <trkpt lat="49.42342" lon="0.22905">
        <ele>17.8</ele>
        <time>2022-05-31T12:03:38Z</time>
      </trkpt>
      <trkpt lat="49.42342" lon="0.22903">
        <ele>17.7</ele>
        <time>2022-05-31T12:03:39Z</time>
      </trkpt>
      <trkpt lat="49.42343" lon="0.229">
        <ele>17.6</ele>
        <time>2022-05-31T12:03:40Z</time>
      </trkpt>
      <trkpt lat="49.42343" lon="0.22899">
        <ele>17.6</ele>
        <time>2022-05-31T12:03:42Z</time>
      </trkpt>
      <trkpt lat="49.42344" lon="0.22897">
        <ele>17.5</ele>
        <time>2022-05-31T12:03:43Z</time>
      </trkpt>
      <trkpt lat="49.42343" lon="0.22897">
        <ele>17.5</ele>
        <time>2022-05-31T12:03:44Z</time>
      </trkpt>
      <trkpt lat="49.42344" lon="0.22897">
        <ele>17.4</ele>
        <time>2022-05-31T12:03:45Z</time>
      </trkpt>
      <trkpt lat="49.42345" lon="0.22895">
        <ele>17.3</ele>
        <time>2022-05-31T12:03:46Z</time>
      </trkpt>
      <trkpt lat="49.42347" lon="0.22893">
        <ele>17.1</ele>
        <time>2022-05-31T12:03:47Z</time>
      </trkpt>
      <trkpt lat="49.42348" lon="0.22893">
        <ele>17</ele>
        <time>2022-05-31T12:03:49Z</time>
      </trkpt>
      <trkpt lat="49.42349" lon="0.22893">
        <ele>16.9</ele>
        <time>2022-05-31T12:03:50Z</time>
      </trkpt>
      <trkpt lat="49.42349" lon="0.22893">
        <ele>16.8</ele>
        <time>2022-05-31T12:03:51Z</time>
      </trkpt>
      <trkpt lat="49.4235" lon="0.22892">
        <ele>16.7</ele>
        <time>2022-05-31T12:03:52Z</time>
      </trkpt>
      <trkpt lat="49.42351" lon="0.22892">
        <ele>16.7</ele>
        <time>2022-05-31T12:03:53Z</time>
      </trkpt>
      <trkpt lat="49.42353" lon="0.22893">
        <ele>16.5</ele>
        <time>2022-05-31T12:03:55Z</time>
      </trkpt>
      <trkpt lat="49.42354" lon="0.22892">
        <ele>16.4</ele>
        <time>2022-05-31T12:03:56Z</time>
      </trkpt>
      <trkpt lat="49.42355" lon="0.22892">
        <ele>16.3</ele>
        <time>2022-05-31T12:03:57Z</time>
      </trkpt>
      <trkpt lat="49.42357" lon="0.22891">
        <ele>16</ele>
        <time>2022-05-31T12:03:58Z</time>
      </trkpt>
      <trkpt lat="49.42357" lon="0.22891">
        <ele>15.9</ele>
        <time>2022-05-31T12:03:59Z</time>
      </trkpt>
      <trkpt lat="49.42358" lon="0.22891">
        <ele>15.8</ele>
        <time>2022-05-31T12:04:00Z</time>
      </trkpt>
      <trkpt lat="49.4236" lon="0.22889">
        <ele>15.6</ele>
        <time>2022-05-31T12:04:01Z</time>
      </trkpt>
      <trkpt lat="49.42361" lon="0.22889">
        <ele>15.5</ele>
        <time>2022-05-31T12:04:02Z</time>
      </trkpt>
      <trkpt lat="49.42362" lon="0.22888">
        <ele>15.4</ele>
        <time>2022-05-31T12:04:03Z</time>
      </trkpt>
      <trkpt lat="49.42363" lon="0.22887">
        <ele>15.1</ele>
        <time>2022-05-31T12:04:05Z</time>
      </trkpt>
      <trkpt lat="49.42364" lon="0.22886">
        <ele>15</ele>
        <time>2022-05-31T12:04:06Z</time>
      </trkpt>
      <trkpt lat="49.42365" lon="0.22885">
        <ele>14.9</ele>
        <time>2022-05-31T12:04:07Z</time>
      </trkpt>
      <trkpt lat="49.42367" lon="0.22884">
        <ele>14.7</ele>
        <time>2022-05-31T12:04:08Z</time>
      </trkpt>
      <trkpt lat="49.42367" lon="0.22883">
        <ele>14.6</ele>
        <time>2022-05-31T12:04:09Z</time>
      </trkpt>
      <trkpt lat="49.42368" lon="0.22883">
        <ele>14.5</ele>
        <time>2022-05-31T12:04:10Z</time>
      </trkpt>
      <trkpt lat="49.4237" lon="0.22881">
        <ele>14.2</ele>
        <time>2022-05-31T12:04:11Z</time>
      </trkpt>
      <trkpt lat="49.42371" lon="0.2288">
        <ele>14.1</ele>
        <time>2022-05-31T12:04:12Z</time>
      </trkpt>
      <trkpt lat="49.42371" lon="0.22879">
        <ele>14</ele>
        <time>2022-05-31T12:04:13Z</time>
      </trkpt>
      <trkpt lat="49.42373" lon="0.22877">
        <ele>13.7</ele>
        <time>2022-05-31T12:04:14Z</time>
      </trkpt>
      <trkpt lat="49.42374" lon="0.22877">
        <ele>13.5</ele>
        <time>2022-05-31T12:04:16Z</time>
      </trkpt>
      <trkpt lat="49.42375" lon="0.22876">
        <ele>13.4</ele>
        <time>2022-05-31T12:04:17Z</time>
      </trkpt>
      <trkpt lat="49.42377" lon="0.22874">
        <ele>13.2</ele>
        <time>2022-05-31T12:04:18Z</time>
      </trkpt>
      <trkpt lat="49.42378" lon="0.22873">
        <ele>13</ele>
        <time>2022-05-31T12:04:19Z</time>
      </trkpt>
      <trkpt lat="49.42377" lon="0.22873">
        <ele>13</ele>
        <time>2022-05-31T12:04:20Z</time>
      </trkpt>
      <trkpt lat="49.42378" lon="0.22873">
        <ele>13</ele>
        <time>2022-05-31T12:04:22Z</time>
      </trkpt>
      <trkpt lat="49.42379" lon="0.22872">
        <ele>12.7</ele>
        <time>2022-05-31T12:04:23Z</time>
      </trkpt>
      <trkpt lat="49.4238" lon="0.22871">
        <ele>12.6</ele>
        <time>2022-05-31T12:04:24Z</time>
      </trkpt>
      <trkpt lat="49.42382" lon="0.2287">
        <ele>12.4</ele>
        <time>2022-05-31T12:04:25Z</time>
      </trkpt>
      <trkpt lat="49.42384" lon="0.22868">
        <ele>12.1</ele>
        <time>2022-05-31T12:04:27Z</time>
      </trkpt>
      <trkpt lat="49.42384" lon="0.22868">
        <ele>12</ele>
        <time>2022-05-31T12:04:28Z</time>
      </trkpt>
      <trkpt lat="49.42385" lon="0.22867">
        <ele>11.9</ele>
        <time>2022-05-31T12:04:29Z</time>
      </trkpt>
      <trkpt lat="49.42386" lon="0.22865">
        <ele>11.7</ele>
        <time>2022-05-31T12:04:30Z</time>
      </trkpt>
      <trkpt lat="49.4239" lon="0.22864">
        <ele>11.2</ele>
        <time>2022-05-31T12:04:31Z</time>
      </trkpt>
      <trkpt lat="49.42392" lon="0.22864">
        <ele>11</ele>
        <time>2022-05-31T12:04:33Z</time>
      </trkpt>
      <trkpt lat="49.42393" lon="0.22863">
        <ele>10.8</ele>
        <time>2022-05-31T12:04:34Z</time>
      </trkpt>
      <trkpt lat="49.42396" lon="0.22862">
        <ele>10.4</ele>
        <time>2022-05-31T12:04:35Z</time>
      </trkpt>
      <trkpt lat="49.42397" lon="0.22861">
        <ele>10.2</ele>
        <time>2022-05-31T12:04:36Z</time>
      </trkpt>
      <trkpt lat="49.42399" lon="0.2286">
        <ele>10</ele>
        <time>2022-05-31T12:04:37Z</time>
      </trkpt>
      <trkpt lat="49.42401" lon="0.2286">
        <ele>9.8</ele>
        <time>2022-05-31T12:04:38Z</time>
      </trkpt>
      <trkpt lat="49.42402" lon="0.22859">
        <ele>9.7</ele>
        <time>2022-05-31T12:04:39Z</time>
      </trkpt>
      <trkpt lat="49.42403" lon="0.22859">
        <ele>9.6</ele>
        <time>2022-05-31T12:04:40Z</time>
      </trkpt>
      <trkpt lat="49.42404" lon="0.22859">
        <ele>9.4</ele>
        <time>2022-05-31T12:04:41Z</time>
      </trkpt>
      <trkpt lat="49.42404" lon="0.22859">
        <ele>9.4</ele>
        <time>2022-05-31T12:04:42Z</time>
      </trkpt>
      <trkpt lat="49.42405" lon="0.22859">
        <ele>9.3</ele>
        <time>2022-05-31T12:04:43Z</time>
      </trkpt>
      <trkpt lat="49.42406" lon="0.22859">
        <ele>9.1</ele>
        <time>2022-05-31T12:04:45Z</time>
      </trkpt>
      <trkpt lat="49.42408" lon="0.22859">
        <ele>9</ele>
        <time>2022-05-31T12:04:46Z</time>
      </trkpt>
      <trkpt lat="49.4241" lon="0.2286">
        <ele>8.8</ele>
        <time>2022-05-31T12:04:47Z</time>
      </trkpt>
      <trkpt lat="49.42411" lon="0.2286">
        <ele>8.8</ele>
        <time>2022-05-31T12:04:48Z</time>
      </trkpt>
      <trkpt lat="49.42412" lon="0.2286">
        <ele>8.7</ele>
        <time>2022-05-31T12:04:49Z</time>
      </trkpt>
      <trkpt lat="49.42413" lon="0.2286">
        <ele>8.6</ele>
        <time>2022-05-31T12:04:50Z</time>
      </trkpt>
      <trkpt lat="49.42414" lon="0.22862">
        <ele>8.4</ele>
        <time>2022-05-31T12:04:51Z</time>
      </trkpt>
      <trkpt lat="49.42415" lon="0.22863">
        <ele>8.4</ele>
        <time>2022-05-31T12:04:52Z</time>
      </trkpt>
      <trkpt lat="49.42415" lon="0.22864">
        <ele>8.3</ele>
        <time>2022-05-31T12:04:53Z</time>
      </trkpt>
      <trkpt lat="49.42415" lon="0.22865">
        <ele>8.3</ele>
        <time>2022-05-31T12:04:54Z</time>
      </trkpt>
      <trkpt lat="49.42416" lon="0.22866">
        <ele>8.2</ele>
        <time>2022-05-31T12:04:55Z</time>
      </trkpt>
      <trkpt lat="49.42417" lon="0.22867">
        <ele>8.1</ele>
        <time>2022-05-31T12:04:56Z</time>
      </trkpt>
      <trkpt lat="49.42418" lon="0.22868">
        <ele>8.1</ele>
        <time>2022-05-31T12:04:58Z</time>
      </trkpt>
      <trkpt lat="49.42419" lon="0.2287">
        <ele>8</ele>
        <time>2022-05-31T12:04:59Z</time>
      </trkpt>
      <trkpt lat="49.4242" lon="0.22871">
        <ele>7.9</ele>
        <time>2022-05-31T12:05:00Z</time>
      </trkpt>
      <trkpt lat="49.4242" lon="0.22872">
        <ele>7.9</ele>
        <time>2022-05-31T12:05:01Z</time>
      </trkpt>
      <trkpt lat="49.4242" lon="0.22874">
        <ele>7.8</ele>
        <time>2022-05-31T12:05:02Z</time>
      </trkpt>
      <trkpt lat="49.4242" lon="0.22875">
        <ele>7.8</ele>
        <time>2022-05-31T12:05:03Z</time>
      </trkpt>
      <trkpt lat="49.4242" lon="0.22876">
        <ele>7.8</ele>
        <time>2022-05-31T12:05:04Z</time>
      </trkpt>
      <trkpt lat="49.42421" lon="0.22876">
        <ele>7.8</ele>
        <time>2022-05-31T12:05:05Z</time>
      </trkpt>
      <trkpt lat="49.42422" lon="0.22875">
        <ele>7.8</ele>
        <time>2022-05-31T12:05:07Z</time>
      </trkpt>
      <trkpt lat="49.42422" lon="0.22874">
        <ele>7.8</ele>
        <time>2022-05-31T12:05:08Z</time>
      </trkpt>
      <trkpt lat="49.42422" lon="0.22873">
        <ele>7.8</ele>
        <time>2022-05-31T12:05:09Z</time>
      </trkpt>
      <trkpt lat="49.42423" lon="0.22873">
        <ele>7.8</ele>
        <time>2022-05-31T12:05:10Z</time>
      </trkpt>
      <trkpt lat="49.42421" lon="0.2287">
        <ele>7.8</ele>
        <time>2022-05-31T12:05:11Z</time>
      </trkpt>
      <trkpt lat="49.42419" lon="0.22867">
        <ele>7.8</ele>
        <time>2022-05-31T12:05:12Z</time>
      </trkpt>
      <trkpt lat="49.42419" lon="0.22868">
        <ele>7.8</ele>
        <time>2022-05-31T12:05:13Z</time>
      </trkpt>
      <trkpt lat="49.42419" lon="0.22869">
        <ele>7.8</ele>
        <time>2022-05-31T12:05:14Z</time>
      </trkpt>
      <trkpt lat="49.42419" lon="0.22869">
        <ele>7.8</ele>
        <time>2022-05-31T12:05:15Z</time>
      </trkpt>
      <trkpt lat="49.42419" lon="0.22869">
        <ele>7.8</ele>
        <time>2022-05-31T12:05:16Z</time>
      </trkpt>
      <trkpt lat="49.42419" lon="0.22869">
        <ele>7.8</ele>
        <time>2022-05-31T12:05:17Z</time>
      </trkpt>
      <trkpt lat="49.42418" lon="0.22869">
        <ele>7.8</ele>
        <time>2022-05-31T12:05:18Z</time>
      </trkpt>
      <trkpt lat="49.42418" lon="0.22869">
        <ele>7.8</ele>
        <time>2022-05-31T12:05:19Z</time>
      </trkpt>
      <trkpt lat="49.42418" lon="0.22869">
        <ele>7.8</ele>
        <time>2022-05-31T12:05:20Z</time>
      </trkpt>
      <trkpt lat="49.42418" lon="0.22869">
        <ele>7.8</ele>
        <time>2022-05-31T12:05:21Z</time>
      </trkpt>
      <trkpt lat="49.42418" lon="0.22869">
        <ele>7.8</ele>
        <time>2022-05-31T12:05:22Z</time>
      </trkpt>
      <trkpt lat="49.42418" lon="0.22869">
        <ele>7.8</ele>
        <time>2022-05-31T12:05:23Z</time>
      </trkpt>
      <trkpt lat="49.42417" lon="0.22869">
        <ele>7.8</ele>
        <time>2022-05-31T12:05:25Z</time>
      </trkpt>
      <trkpt lat="49.42417" lon="0.2287">
        <ele>7.8</ele>
        <time>2022-05-31T12:05:26Z</time>
      </trkpt>
      <trkpt lat="49.42418" lon="0.22871">
        <ele>7.8</ele>
        <time>2022-05-31T12:05:27Z</time>
      </trkpt>
      <trkpt lat="49.42418" lon="0.22873">
        <ele>7.9</ele>
        <time>2022-05-31T12:05:28Z</time>
      </trkpt>
      <trkpt lat="49.42419" lon="0.22873">
        <ele>7.9</ele>
        <time>2022-05-31T12:05:29Z</time>
      </trkpt>
      <trkpt lat="49.4242" lon="0.22874">
        <ele>7.9</ele>
        <time>2022-05-31T12:05:30Z</time>
      </trkpt>
      <trkpt lat="49.42422" lon="0.22874">
        <ele>7.9</ele>
        <time>2022-05-31T12:05:32Z</time>
      </trkpt>
      <trkpt lat="49.42424" lon="0.22874">
        <ele>7.9</ele>
        <time>2022-05-31T12:05:33Z</time>
      </trkpt>
      <trkpt lat="49.42422" lon="0.22872">
        <ele>7.9</ele>
        <time>2022-05-31T12:05:34Z</time>
      </trkpt>
      <trkpt lat="49.42423" lon="0.22871">
        <ele>7.9</ele>
        <time>2022-05-31T12:05:35Z</time>
      </trkpt>
      <trkpt lat="49.42424" lon="0.2287">
        <ele>7.9</ele>
        <time>2022-05-31T12:05:36Z</time>
      </trkpt>
      <trkpt lat="49.42425" lon="0.22869">
        <ele>7.9</ele>
        <time>2022-05-31T12:05:37Z</time>
      </trkpt>
      <trkpt lat="49.42423" lon="0.22863">
        <ele>8</ele>
        <time>2022-05-31T12:05:38Z</time>
      </trkpt>
      <trkpt lat="49.42425" lon="0.22863">
        <ele>8</ele>
        <time>2022-05-31T12:05:39Z</time>
      </trkpt>
      <trkpt lat="49.42426" lon="0.22863">
        <ele>8</ele>
        <time>2022-05-31T12:05:41Z</time>
      </trkpt>
      <trkpt lat="49.42427" lon="0.22863">
        <ele>8</ele>
        <time>2022-05-31T12:05:42Z</time>
      </trkpt>
      <trkpt lat="49.42429" lon="0.22863">
        <ele>8</ele>
        <time>2022-05-31T12:05:43Z</time>
      </trkpt>
      <trkpt lat="49.42431" lon="0.22862">
        <ele>8</ele>
        <time>2022-05-31T12:05:44Z</time>
      </trkpt>
      <trkpt lat="49.42432" lon="0.22861">
        <ele>8</ele>
        <time>2022-05-31T12:05:45Z</time>
      </trkpt>
      <trkpt lat="49.42433" lon="0.22861">
        <ele>8</ele>
        <time>2022-05-31T12:05:46Z</time>
      </trkpt>
      <trkpt lat="49.42434" lon="0.2286">
        <ele>8</ele>
        <time>2022-05-31T12:05:48Z</time>
      </trkpt>
      <trkpt lat="49.42435" lon="0.22859">
        <ele>8.1</ele>
        <time>2022-05-31T12:05:49Z</time>
      </trkpt>
      <trkpt lat="49.42436" lon="0.22858">
        <ele>8.1</ele>
        <time>2022-05-31T12:05:50Z</time>
      </trkpt>
      <trkpt lat="49.42438" lon="0.22857">
        <ele>8.1</ele>
        <time>2022-05-31T12:05:51Z</time>
      </trkpt>
      <trkpt lat="49.42439" lon="0.22855">
        <ele>8.1</ele>
        <time>2022-05-31T12:05:52Z</time>
      </trkpt>
      <trkpt lat="49.42439" lon="0.22854">
        <ele>8.1</ele>
        <time>2022-05-31T12:05:53Z</time>
      </trkpt>
      <trkpt lat="49.42439" lon="0.22853">
        <ele>8.1</ele>
        <time>2022-05-31T12:05:54Z</time>
      </trkpt>
      <trkpt lat="49.42439" lon="0.22853">
        <ele>8.1</ele>
        <time>2022-05-31T12:05:56Z</time>
      </trkpt>
      <trkpt lat="49.4244" lon="0.22852">
        <ele>8.1</ele>
        <time>2022-05-31T12:05:57Z</time>
      </trkpt>
      <trkpt lat="49.42441" lon="0.22852">
        <ele>8.1</ele>
        <time>2022-05-31T12:05:58Z</time>
      </trkpt>
      <trkpt lat="49.42442" lon="0.22851">
        <ele>8.1</ele>
        <time>2022-05-31T12:05:59Z</time>
      </trkpt>
      <trkpt lat="49.42443" lon="0.2285">
        <ele>7.8</ele>
        <time>2022-05-31T12:06:00Z</time>
      </trkpt>
      <trkpt lat="49.42444" lon="0.2285">
        <ele>7.8</ele>
        <time>2022-05-31T12:06:01Z</time>
      </trkpt>
      <trkpt lat="49.42446" lon="0.22849">
        <ele>7.5</ele>
        <time>2022-05-31T12:06:02Z</time>
      </trkpt>
      <trkpt lat="49.42447" lon="0.22849">
        <ele>7.5</ele>
        <time>2022-05-31T12:06:04Z</time>
      </trkpt>
      <trkpt lat="49.42448" lon="0.22849">
        <ele>7.5</ele>
        <time>2022-05-31T12:06:05Z</time>
      </trkpt>
      <trkpt lat="49.42449" lon="0.22848">
        <ele>7.2</ele>
        <time>2022-05-31T12:06:06Z</time>
      </trkpt>
      <trkpt lat="49.42449" lon="0.22847">
        <ele>7.2</ele>
        <time>2022-05-31T12:06:07Z</time>
      </trkpt>
      <trkpt lat="49.4245" lon="0.22847">
        <ele>7.2</ele>
        <time>2022-05-31T12:06:08Z</time>
      </trkpt>
      <trkpt lat="49.42451" lon="0.22845">
        <ele>7.2</ele>
        <time>2022-05-31T12:06:10Z</time>
      </trkpt>
      <trkpt lat="49.42453" lon="0.22844">
        <ele>6.9</ele>
        <time>2022-05-31T12:06:11Z</time>
      </trkpt>
      <trkpt lat="49.42454" lon="0.22843">
        <ele>6.9</ele>
        <time>2022-05-31T12:06:12Z</time>
      </trkpt>
      <trkpt lat="49.42455" lon="0.22843">
        <ele>6.6</ele>
        <time>2022-05-31T12:06:13Z</time>
      </trkpt>
      <trkpt lat="49.42455" lon="0.22842">
        <ele>6.6</ele>
        <time>2022-05-31T12:06:14Z</time>
      </trkpt>
      <trkpt lat="49.42458" lon="0.2284">
        <ele>6.3</ele>
        <time>2022-05-31T12:06:16Z</time>
      </trkpt>
      <trkpt lat="49.42458" lon="0.2284">
        <ele>6.3</ele>
        <time>2022-05-31T12:06:17Z</time>
      </trkpt>
      <trkpt lat="49.42459" lon="0.2284">
        <ele>6.3</ele>
        <time>2022-05-31T12:06:18Z</time>
      </trkpt>
      <trkpt lat="49.4246" lon="0.2284">
        <ele>6</ele>
        <time>2022-05-31T12:06:19Z</time>
      </trkpt>
      <trkpt lat="49.42462" lon="0.2284">
        <ele>6</ele>
        <time>2022-05-31T12:06:20Z</time>
      </trkpt>
      <trkpt lat="49.42463" lon="0.2284">
        <ele>5.6</ele>
        <time>2022-05-31T12:06:21Z</time>
      </trkpt>
      <trkpt lat="49.42464" lon="0.2284">
        <ele>5.6</ele>
        <time>2022-05-31T12:06:22Z</time>
      </trkpt>
      <trkpt lat="49.42465" lon="0.2284">
        <ele>5.3</ele>
        <time>2022-05-31T12:06:23Z</time>
      </trkpt>
      <trkpt lat="49.42467" lon="0.2284">
        <ele>5.3</ele>
        <time>2022-05-31T12:06:24Z</time>
      </trkpt>
      <trkpt lat="49.42468" lon="0.22839">
        <ele>5.3</ele>
        <time>2022-05-31T12:06:25Z</time>
      </trkpt>
      <trkpt lat="49.42469" lon="0.22839">
        <ele>4.9</ele>
        <time>2022-05-31T12:06:26Z</time>
      </trkpt>
      <trkpt lat="49.4247" lon="0.22839">
        <ele>4.9</ele>
        <time>2022-05-31T12:06:27Z</time>
      </trkpt>
      <trkpt lat="49.42473" lon="0.2284">
        <ele>4.6</ele>
        <time>2022-05-31T12:06:28Z</time>
      </trkpt>
      <trkpt lat="49.42474" lon="0.2284">
        <ele>4.2</ele>
        <time>2022-05-31T12:06:30Z</time>
      </trkpt>
      <trkpt lat="49.42475" lon="0.2284">
        <ele>4.2</ele>
        <time>2022-05-31T12:06:31Z</time>
      </trkpt>
      <trkpt lat="49.42477" lon="0.22841">
        <ele>3.8</ele>
        <time>2022-05-31T12:06:33Z</time>
      </trkpt>
      <trkpt lat="49.42478" lon="0.22841">
        <ele>3.8</ele>
        <time>2022-05-31T12:06:34Z</time>
      </trkpt>
      <trkpt lat="49.42479" lon="0.22842">
        <ele>3.5</ele>
        <time>2022-05-31T12:06:35Z</time>
      </trkpt>
      <trkpt lat="49.42481" lon="0.22842">
        <ele>3.5</ele>
        <time>2022-05-31T12:06:36Z</time>
      </trkpt>
      <trkpt lat="49.42481" lon="0.22842">
        <ele>3.5</ele>
        <time>2022-05-31T12:06:37Z</time>
      </trkpt>
      <trkpt lat="49.42481" lon="0.22843">
        <ele>3.5</ele>
        <time>2022-05-31T12:06:38Z</time>
      </trkpt>
      <trkpt lat="49.42482" lon="0.22843">
        <ele>3.5</ele>
        <time>2022-05-31T12:06:39Z</time>
      </trkpt>
      <trkpt lat="49.42483" lon="0.22844">
        <ele>3.3</ele>
        <time>2022-05-31T12:06:41Z</time>
      </trkpt>
      <trkpt lat="49.42484" lon="0.22845">
        <ele>3.2</ele>
        <time>2022-05-31T12:06:42Z</time>
      </trkpt>
      <trkpt lat="49.42485" lon="0.22845">
        <ele>3.2</ele>
        <time>2022-05-31T12:06:43Z</time>
      </trkpt>
      <trkpt lat="49.42485" lon="0.22846">
        <ele>3</ele>
        <time>2022-05-31T12:06:44Z</time>
      </trkpt>
      <trkpt lat="49.42486" lon="0.22847">
        <ele>3</ele>
        <time>2022-05-31T12:06:45Z</time>
      </trkpt>
      <trkpt lat="49.42487" lon="0.2285">
        <ele>3</ele>
        <time>2022-05-31T12:06:46Z</time>
      </trkpt>
      <trkpt lat="49.42488" lon="0.22851">
        <ele>2.8</ele>
        <time>2022-05-31T12:06:47Z</time>
      </trkpt>
      <trkpt lat="49.42489" lon="0.22853">
        <ele>2.8</ele>
        <time>2022-05-31T12:06:49Z</time>
      </trkpt>
      <trkpt lat="49.42489" lon="0.22854">
        <ele>2.8</ele>
        <time>2022-05-31T12:06:50Z</time>
      </trkpt>
      <trkpt lat="49.4249" lon="0.22856">
        <ele>2.8</ele>
        <time>2022-05-31T12:06:51Z</time>
      </trkpt>
      <trkpt lat="49.42491" lon="0.22857">
        <ele>2.6</ele>
        <time>2022-05-31T12:06:52Z</time>
      </trkpt>
      <trkpt lat="49.42491" lon="0.22858">
        <ele>2.6</ele>
        <time>2022-05-31T12:06:53Z</time>
      </trkpt>
      <trkpt lat="49.42492" lon="0.22859">
        <ele>2.6</ele>
        <time>2022-05-31T12:06:54Z</time>
      </trkpt>
      <trkpt lat="49.42493" lon="0.2286">
        <ele>2.6</ele>
        <time>2022-05-31T12:06:55Z</time>
      </trkpt>
      <trkpt lat="49.42494" lon="0.22862">
        <ele>2.5</ele>
        <time>2022-05-31T12:06:57Z</time>
      </trkpt>
      <trkpt lat="49.42495" lon="0.22863">
        <ele>2.5</ele>
        <time>2022-05-31T12:06:58Z</time>
      </trkpt>
      <trkpt lat="49.42496" lon="0.22866">
        <ele>2.5</ele>
        <time>2022-05-31T12:06:59Z</time>
      </trkpt>
      <trkpt lat="49.42497" lon="0.22867">
        <ele>2.4</ele>
        <time>2022-05-31T12:07:00Z</time>
      </trkpt>
      <trkpt lat="49.42497" lon="0.22869">
        <ele>2.4</ele>
        <time>2022-05-31T12:07:01Z</time>
      </trkpt>
      <trkpt lat="49.42497" lon="0.22869">
        <ele>2.4</ele>
        <time>2022-05-31T12:07:02Z</time>
      </trkpt>
      <trkpt lat="49.42498" lon="0.22871">
        <ele>2.4</ele>
        <time>2022-05-31T12:07:03Z</time>
      </trkpt>
      <trkpt lat="49.42498" lon="0.22873">
        <ele>2.4</ele>
        <time>2022-05-31T12:07:05Z</time>
      </trkpt>
      <trkpt lat="49.42499" lon="0.22875">
        <ele>2.3</ele>
        <time>2022-05-31T12:07:06Z</time>
      </trkpt>
      <trkpt lat="49.42499" lon="0.22876">
        <ele>2.2</ele>
        <time>2022-05-31T12:07:07Z</time>
      </trkpt>
      <trkpt lat="49.425" lon="0.22877">
        <ele>2.2</ele>
        <time>2022-05-31T12:07:08Z</time>
      </trkpt>
      <trkpt lat="49.425" lon="0.22879">
        <ele>2.2</ele>
        <time>2022-05-31T12:07:09Z</time>
      </trkpt>
      <trkpt lat="49.42501" lon="0.2288">
        <ele>2.2</ele>
        <time>2022-05-31T12:07:10Z</time>
      </trkpt>
      <trkpt lat="49.42503" lon="0.2288">
        <ele>2.1</ele>
        <time>2022-05-31T12:07:12Z</time>
      </trkpt>
      <trkpt lat="49.42504" lon="0.22881">
        <ele>2.1</ele>
        <time>2022-05-31T12:07:13Z</time>
      </trkpt>
      <trkpt lat="49.42505" lon="0.22881">
        <ele>2</ele>
        <time>2022-05-31T12:07:14Z</time>
      </trkpt>
      <trkpt lat="49.42506" lon="0.22882">
        <ele>2</ele>
        <time>2022-05-31T12:07:15Z</time>
      </trkpt>
      <trkpt lat="49.42507" lon="0.22884">
        <ele>2</ele>
        <time>2022-05-31T12:07:16Z</time>
      </trkpt>
      <trkpt lat="49.42507" lon="0.22884">
        <ele>2</ele>
        <time>2022-05-31T12:07:17Z</time>
      </trkpt>
      <trkpt lat="49.42507" lon="0.22886">
        <ele>1.9</ele>
        <time>2022-05-31T12:07:19Z</time>
      </trkpt>
      <trkpt lat="49.42508" lon="0.22887">
        <ele>1.9</ele>
        <time>2022-05-31T12:07:20Z</time>
      </trkpt>
      <trkpt lat="49.42508" lon="0.22889">
        <ele>1.9</ele>
        <time>2022-05-31T12:07:21Z</time>
      </trkpt>
      <trkpt lat="49.42509" lon="0.2289">
        <ele>1.9</ele>
        <time>2022-05-31T12:07:22Z</time>
      </trkpt>
      <trkpt lat="49.42509" lon="0.22891">
        <ele>1.9</ele>
        <time>2022-05-31T12:07:23Z</time>
      </trkpt>
      <trkpt lat="49.4251" lon="0.22892">
        <ele>1.9</ele>
        <time>2022-05-31T12:07:24Z</time>
      </trkpt>
      <trkpt lat="49.42511" lon="0.22893">
        <ele>1.8</ele>
        <time>2022-05-31T12:07:25Z</time>
      </trkpt>
      <trkpt lat="49.42511" lon="0.22895">
        <ele>1.8</ele>
        <time>2022-05-31T12:07:27Z</time>
      </trkpt>
      <trkpt lat="49.42512" lon="0.22896">
        <ele>1.8</ele>
        <time>2022-05-31T12:07:28Z</time>
      </trkpt>
      <trkpt lat="49.42512" lon="0.22897">
        <ele>1.8</ele>
        <time>2022-05-31T12:07:29Z</time>
      </trkpt>
      <trkpt lat="49.42512" lon="0.22898">
        <ele>1.8</ele>
        <time>2022-05-31T12:07:30Z</time>
      </trkpt>
      <trkpt lat="49.42513" lon="0.22899">
        <ele>1.7</ele>
        <time>2022-05-31T12:07:31Z</time>
      </trkpt>
      <trkpt lat="49.42513" lon="0.229">
        <ele>1.7</ele>
        <time>2022-05-31T12:07:32Z</time>
      </trkpt>
      <trkpt lat="49.42514" lon="0.22901">
        <ele>1.7</ele>
        <time>2022-05-31T12:07:34Z</time>
      </trkpt>
      <trkpt lat="49.42515" lon="0.22903">
        <ele>1.7</ele>
        <time>2022-05-31T12:07:35Z</time>
      </trkpt>
      <trkpt lat="49.42515" lon="0.22904">
        <ele>1.7</ele>
        <time>2022-05-31T12:07:36Z</time>
      </trkpt>
      <trkpt lat="49.42515" lon="0.22905">
        <ele>1.7</ele>
        <time>2022-05-31T12:07:37Z</time>
      </trkpt>
      <trkpt lat="49.42516" lon="0.22907">
        <ele>1.6</ele>
        <time>2022-05-31T12:07:38Z</time>
      </trkpt>
      <trkpt lat="49.42517" lon="0.22907">
        <ele>1.6</ele>
        <time>2022-05-31T12:07:39Z</time>
      </trkpt>
      <trkpt lat="49.42518" lon="0.22907">
        <ele>1.6</ele>
        <time>2022-05-31T12:07:41Z</time>
      </trkpt>
      <trkpt lat="49.42519" lon="0.22907">
        <ele>1.6</ele>
        <time>2022-05-31T12:07:42Z</time>
      </trkpt>
      <trkpt lat="49.4252" lon="0.22907">
        <ele>1.6</ele>
        <time>2022-05-31T12:07:43Z</time>
      </trkpt>
      <trkpt lat="49.42521" lon="0.22908">
        <ele>1.6</ele>
        <time>2022-05-31T12:07:44Z</time>
      </trkpt>
      <trkpt lat="49.42522" lon="0.22908">
        <ele>1.6</ele>
        <time>2022-05-31T12:07:45Z</time>
      </trkpt>
      <trkpt lat="49.42523" lon="0.22905">
        <ele>1.6</ele>
        <time>2022-05-31T12:07:47Z</time>
      </trkpt>
      <trkpt lat="49.42524" lon="0.22905">
        <ele>1.6</ele>
        <time>2022-05-31T12:07:48Z</time>
      </trkpt>
      <trkpt lat="49.42525" lon="0.22904">
        <ele>1.6</ele>
        <time>2022-05-31T12:07:49Z</time>
      </trkpt>
      <trkpt lat="49.42526" lon="0.22905">
        <ele>1.6</ele>
        <time>2022-05-31T12:07:50Z</time>
      </trkpt>
      <trkpt lat="49.42526" lon="0.22906">
        <ele>1.6</ele>
        <time>2022-05-31T12:07:51Z</time>
      </trkpt>
      <trkpt lat="49.42525" lon="0.22907">
        <ele>1.6</ele>
        <time>2022-05-31T12:07:52Z</time>
      </trkpt>
      <trkpt lat="49.42525" lon="0.22908">
        <ele>1.6</ele>
        <time>2022-05-31T12:07:53Z</time>
      </trkpt>
      <trkpt lat="49.42524" lon="0.22909">
        <ele>1.6</ele>
        <time>2022-05-31T12:07:54Z</time>
      </trkpt>
      <trkpt lat="49.42523" lon="0.2291">
        <ele>1.6</ele>
        <time>2022-05-31T12:07:55Z</time>
      </trkpt>
      <trkpt lat="49.42523" lon="0.2291">
        <ele>1.6</ele>
        <time>2022-05-31T12:07:56Z</time>
      </trkpt>
      <trkpt lat="49.42523" lon="0.22911">
        <ele>1.6</ele>
        <time>2022-05-31T12:07:57Z</time>
      </trkpt>
      <trkpt lat="49.42522" lon="0.22911">
        <ele>1.6</ele>
        <time>2022-05-31T12:07:58Z</time>
      </trkpt>
      <trkpt lat="49.42522" lon="0.22911">
        <ele>1.6</ele>
        <time>2022-05-31T12:07:59Z</time>
      </trkpt>
      <trkpt lat="49.42522" lon="0.22911">
        <ele>1.6</ele>
        <time>2022-05-31T12:08:00Z</time>
      </trkpt>
      <trkpt lat="49.42522" lon="0.22911">
        <ele>1.6</ele>
        <time>2022-05-31T12:08:01Z</time>
      </trkpt>
      <trkpt lat="49.42522" lon="0.22911">
        <ele>1.6</ele>
        <time>2022-05-31T12:08:02Z</time>
      </trkpt>
      <trkpt lat="49.42521" lon="0.22911">
        <ele>1.6</ele>
        <time>2022-05-31T12:08:03Z</time>
      </trkpt>
      <trkpt lat="49.42521" lon="0.22911">
        <ele>1.6</ele>
        <time>2022-05-31T12:08:04Z</time>
      </trkpt>
      <trkpt lat="49.42521" lon="0.22911">
        <ele>1.6</ele>
        <time>2022-05-31T12:08:05Z</time>
      </trkpt>
      <trkpt lat="49.42521" lon="0.22911">
        <ele>1.6</ele>
        <time>2022-05-31T12:08:06Z</time>
      </trkpt>
      <trkpt lat="49.42521" lon="0.22911">
        <ele>1.6</ele>
        <time>2022-05-31T12:08:07Z</time>
      </trkpt>
      <trkpt lat="49.42521" lon="0.22911">
        <ele>1.6</ele>
        <time>2022-05-31T12:08:08Z</time>
      </trkpt>
      <trkpt lat="49.42521" lon="0.22911">
        <ele>1.6</ele>
        <time>2022-05-31T12:08:09Z</time>
      </trkpt>
      <trkpt lat="49.42521" lon="0.22911">
        <ele>1.6</ele>
        <time>2022-05-31T12:08:10Z</time>
      </trkpt>
      <trkpt lat="49.42521" lon="0.22911">
        <ele>1.6</ele>
        <time>2022-05-31T12:08:11Z</time>
      </trkpt>
      <trkpt lat="49.42521" lon="0.22911">
        <ele>1.6</ele>
        <time>2022-05-31T12:08:12Z</time>
      </trkpt>
      <trkpt lat="49.42521" lon="0.22911">
        <ele>1.6</ele>
        <time>2022-05-31T12:08:13Z</time>
      </trkpt>
      <trkpt lat="49.42521" lon="0.22911">
        <ele>1.6</ele>
        <time>2022-05-31T12:08:14Z</time>
      </trkpt>
      <trkpt lat="49.42521" lon="0.22911">
        <ele>1.6</ele>
        <time>2022-05-31T12:08:15Z</time>
      </trkpt>
      <trkpt lat="49.42521" lon="0.22911">
        <ele>1.6</ele>
        <time>2022-05-31T12:08:16Z</time>
      </trkpt>
      <trkpt lat="49.42521" lon="0.22911">
        <ele>1.6</ele>
        <time>2022-05-31T12:08:17Z</time>
      </trkpt>
      <trkpt lat="49.42521" lon="0.22911">
        <ele>1.6</ele>
        <time>2022-05-31T12:08:18Z</time>
      </trkpt>
      <trkpt lat="49.42521" lon="0.22911">
        <ele>1.6</ele>
        <time>2022-05-31T12:08:19Z</time>
      </trkpt>
      <trkpt lat="49.42521" lon="0.22911">
        <ele>1.6</ele>
        <time>2022-05-31T12:08:20Z</time>
      </trkpt>
      <trkpt lat="49.42521" lon="0.22911">
        <ele>1.6</ele>
        <time>2022-05-31T12:08:21Z</time>
      </trkpt>
      <trkpt lat="49.42521" lon="0.22911">
        <ele>1.6</ele>
        <time>2022-05-31T12:08:22Z</time>
      </trkpt>
      <trkpt lat="49.42521" lon="0.22911">
        <ele>1.6</ele>
        <time>2022-05-31T12:08:23Z</time>
      </trkpt>
      <trkpt lat="49.42521" lon="0.22911">
        <ele>1.6</ele>
        <time>2022-05-31T12:08:24Z</time>
      </trkpt>
      <trkpt lat="49.42521" lon="0.22911">
        <ele>1.6</ele>
        <time>2022-05-31T12:08:25Z</time>
      </trkpt>
      <trkpt lat="49.42521" lon="0.22911">
        <ele>1.6</ele>
        <time>2022-05-31T12:08:26Z</time>
      </trkpt>
      <trkpt lat="49.42521" lon="0.22911">
        <ele>1.6</ele>
        <time>2022-05-31T12:08:27Z</time>
      </trkpt>
      <trkpt lat="49.42521" lon="0.22911">
        <ele>1.6</ele>
        <time>2022-05-31T12:08:28Z</time>
      </trkpt>
      <trkpt lat="49.42521" lon="0.22911">
        <ele>1.6</ele>
        <time>2022-05-31T12:08:29Z</time>
      </trkpt>
      <trkpt lat="49.42521" lon="0.22911">
        <ele>1.6</ele>
        <time>2022-05-31T12:08:30Z</time>
      </trkpt>
      <trkpt lat="49.42521" lon="0.22911">
        <ele>1.6</ele>
        <time>2022-05-31T12:08:31Z</time>
      </trkpt>
      <trkpt lat="49.42521" lon="0.22911">
        <ele>1.6</ele>
        <time>2022-05-31T12:08:32Z</time>
      </trkpt>
      <trkpt lat="49.42521" lon="0.22911">
        <ele>1.6</ele>
        <time>2022-05-31T12:08:33Z</time>
      </trkpt>
      <trkpt lat="49.42521" lon="0.22911">
        <ele>1.6</ele>
        <time>2022-05-31T12:08:34Z</time>
      </trkpt>
      <trkpt lat="49.42521" lon="0.22911">
        <ele>1.6</ele>
        <time>2022-05-31T12:08:35Z</time>
      </trkpt>
      <trkpt lat="49.42521" lon="0.22911">
        <ele>1.6</ele>
        <time>2022-05-31T12:08:36Z</time>
      </trkpt>
      <trkpt lat="49.42521" lon="0.22911">
        <ele>1.6</ele>
        <time>2022-05-31T12:08:37Z</time>
      </trkpt>
      <trkpt lat="49.42521" lon="0.22911">
        <ele>1.6</ele>
        <time>2022-05-31T12:08:38Z</time>
      </trkpt>
      <trkpt lat="49.42521" lon="0.22911">
        <ele>1.6</ele>
        <time>2022-05-31T12:08:39Z</time>
      </trkpt>
      <trkpt lat="49.42521" lon="0.22911">
        <ele>1.6</ele>
        <time>2022-05-31T12:08:40Z</time>
      </trkpt>
      <trkpt lat="49.42521" lon="0.22911">
        <ele>1.6</ele>
        <time>2022-05-31T12:08:41Z</time>
      </trkpt>
      <trkpt lat="49.42521" lon="0.22911">
        <ele>1.6</ele>
        <time>2022-05-31T12:08:42Z</time>
      </trkpt>
      <trkpt lat="49.42521" lon="0.22911">
        <ele>1.6</ele>
        <time>2022-05-31T12:08:43Z</time>
      </trkpt>
      <trkpt lat="49.42521" lon="0.22911">
        <ele>1.6</ele>
        <time>2022-05-31T12:08:44Z</time>
      </trkpt>
      <trkpt lat="49.42521" lon="0.22911">
        <ele>1.6</ele>
        <time>2022-05-31T12:08:45Z</time>
      </trkpt>
      <trkpt lat="49.42521" lon="0.22911">
        <ele>1.6</ele>
        <time>2022-05-31T12:08:46Z</time>
      </trkpt>
      <trkpt lat="49.42521" lon="0.22911">
        <ele>1.6</ele>
        <time>2022-05-31T12:08:47Z</time>
      </trkpt>
      <trkpt lat="49.42521" lon="0.22911">
        <ele>1.6</ele>
        <time>2022-05-31T12:08:48Z</time>
      </trkpt>
      <trkpt lat="49.42521" lon="0.22911">
        <ele>1.6</ele>
        <time>2022-05-31T12:08:49Z</time>
      </trkpt>
      <trkpt lat="49.42521" lon="0.22911">
        <ele>1.6</ele>
        <time>2022-05-31T12:08:50Z</time>
      </trkpt>
      <trkpt lat="49.42521" lon="0.22911">
        <ele>1.6</ele>
        <time>2022-05-31T12:08:51Z</time>
      </trkpt>
      <trkpt lat="49.42521" lon="0.22911">
        <ele>1.6</ele>
        <time>2022-05-31T12:08:52Z</time>
      </trkpt>
      <trkpt lat="49.42521" lon="0.22911">
        <ele>1.6</ele>
        <time>2022-05-31T12:08:53Z</time>
      </trkpt>
      <trkpt lat="49.42521" lon="0.22911">
        <ele>1.6</ele>
        <time>2022-05-31T12:08:54Z</time>
      </trkpt>
      <trkpt lat="49.42521" lon="0.22911">
        <ele>1.6</ele>
        <time>2022-05-31T12:08:55Z</time>
      </trkpt>
      <trkpt lat="49.42521" lon="0.22911">
        <ele>1.6</ele>
        <time>2022-05-31T12:08:56Z</time>
      </trkpt>
      <trkpt lat="49.42521" lon="0.22911">
        <ele>1.6</ele>
        <time>2022-05-31T12:08:57Z</time>
      </trkpt>
      <trkpt lat="49.42521" lon="0.22911">
        <ele>1.6</ele>
        <time>2022-05-31T12:08:58Z</time>
      </trkpt>
      <trkpt lat="49.42521" lon="0.22911">
        <ele>1.6</ele>
        <time>2022-05-31T12:08:59Z</time>
      </trkpt>
      <trkpt lat="49.42521" lon="0.22911">
        <ele>1.6</ele>
        <time>2022-05-31T12:09:00Z</time>
      </trkpt>
      <trkpt lat="49.42521" lon="0.22911">
        <ele>1.6</ele>
        <time>2022-05-31T12:09:01Z</time>
      </trkpt>
      <trkpt lat="49.42521" lon="0.22911">
        <ele>1.6</ele>
        <time>2022-05-31T12:09:02Z</time>
      </trkpt>
      <trkpt lat="49.42521" lon="0.22911">
        <ele>1.6</ele>
        <time>2022-05-31T12:09:03Z</time>
      </trkpt>
      <trkpt lat="49.42521" lon="0.22911">
        <ele>1.6</ele>
        <time>2022-05-31T12:09:04Z</time>
      </trkpt>
      <trkpt lat="49.42521" lon="0.22911">
        <ele>1.6</ele>
        <time>2022-05-31T12:09:05Z</time>
      </trkpt>
      <trkpt lat="49.42521" lon="0.22911">
        <ele>1.6</ele>
        <time>2022-05-31T12:09:06Z</time>
      </trkpt>
      <trkpt lat="49.42521" lon="0.22911">
        <ele>1.6</ele>
        <time>2022-05-31T12:09:07Z</time>
      </trkpt>
      <trkpt lat="49.42521" lon="0.22911">
        <ele>1.6</ele>
        <time>2022-05-31T12:09:08Z</time>
      </trkpt>
      <trkpt lat="49.42521" lon="0.22911">
        <ele>1.6</ele>
        <time>2022-05-31T12:09:09Z</time>
      </trkpt>
      <trkpt lat="49.42521" lon="0.22911">
        <ele>1.6</ele>
        <time>2022-05-31T12:09:10Z</time>
      </trkpt>
      <trkpt lat="49.42521" lon="0.22911">
        <ele>1.6</ele>
        <time>2022-05-31T12:09:11Z</time>
      </trkpt>
      <trkpt lat="49.42521" lon="0.22911">
        <ele>1.6</ele>
        <time>2022-05-31T12:09:12Z</time>
      </trkpt>
      <trkpt lat="49.42521" lon="0.22911">
        <ele>1.6</ele>
        <time>2022-05-31T12:09:13Z</time>
      </trkpt>
      <trkpt lat="49.42521" lon="0.22911">
        <ele>1.6</ele>
        <time>2022-05-31T12:09:14Z</time>
      </trkpt>
      <trkpt lat="49.42521" lon="0.22911">
        <ele>1.6</ele>
        <time>2022-05-31T12:09:15Z</time>
      </trkpt>
      <trkpt lat="49.42521" lon="0.22911">
        <ele>1.6</ele>
        <time>2022-05-31T12:09:16Z</time>
      </trkpt>
      <trkpt lat="49.42521" lon="0.22911">
        <ele>1.6</ele>
        <time>2022-05-31T12:09:17Z</time>
      </trkpt>
      <trkpt lat="49.42521" lon="0.22911">
        <ele>1.6</ele>
        <time>2022-05-31T12:09:18Z</time>
      </trkpt>
      <trkpt lat="49.42521" lon="0.22911">
        <ele>1.6</ele>
        <time>2022-05-31T12:09:19Z</time>
      </trkpt>
      <trkpt lat="49.42521" lon="0.22911">
        <ele>1.6</ele>
        <time>2022-05-31T12:09:20Z</time>
      </trkpt>
      <trkpt lat="49.42521" lon="0.22911">
        <ele>1.6</ele>
        <time>2022-05-31T12:09:21Z</time>
      </trkpt>
      <trkpt lat="49.42521" lon="0.22911">
        <ele>1.6</ele>
        <time>2022-05-31T12:09:22Z</time>
      </trkpt>
      <trkpt lat="49.42521" lon="0.22911">
        <ele>1.6</ele>
        <time>2022-05-31T12:09:23Z</time>
      </trkpt>
      <trkpt lat="49.42521" lon="0.22911">
        <ele>1.6</ele>
        <time>2022-05-31T12:09:24Z</time>
      </trkpt>
      <trkpt lat="49.42521" lon="0.22911">
        <ele>1.6</ele>
        <time>2022-05-31T12:09:25Z</time>
      </trkpt>
      <trkpt lat="49.42522" lon="0.2291">
        <ele>1.6</ele>
        <time>2022-05-31T12:09:26Z</time>
      </trkpt>
      <trkpt lat="49.42523" lon="0.22908">
        <ele>1.6</ele>
        <time>2022-05-31T12:09:27Z</time>
      </trkpt>
      <trkpt lat="49.42523" lon="0.22908">
        <ele>1.6</ele>
        <time>2022-05-31T12:09:28Z</time>
      </trkpt>
      <trkpt lat="49.42523" lon="0.22907">
        <ele>1.6</ele>
        <time>2022-05-31T12:09:29Z</time>
      </trkpt>
      <trkpt lat="49.42523" lon="0.22907">
        <ele>1.6</ele>
        <time>2022-05-31T12:09:30Z</time>
      </trkpt>
      <trkpt lat="49.42523" lon="0.22907">
        <ele>1.6</ele>
        <time>2022-05-31T12:09:31Z</time>
      </trkpt>
      <trkpt lat="49.42523" lon="0.22907">
        <ele>1.6</ele>
        <time>2022-05-31T12:09:32Z</time>
      </trkpt>
      <trkpt lat="49.42523" lon="0.22908">
        <ele>1.6</ele>
        <time>2022-05-31T12:09:33Z</time>
      </trkpt>
      <trkpt lat="49.42523" lon="0.22908">
        <ele>1.6</ele>
        <time>2022-05-31T12:09:34Z</time>
      </trkpt>
      <trkpt lat="49.42524" lon="0.22908">
        <ele>1.6</ele>
        <time>2022-05-31T12:09:35Z</time>
      </trkpt>
      <trkpt lat="49.42524" lon="0.22908">
        <ele>1.6</ele>
        <time>2022-05-31T12:09:36Z</time>
      </trkpt>
      <trkpt lat="49.42524" lon="0.22907">
        <ele>1.6</ele>
        <time>2022-05-31T12:09:37Z</time>
      </trkpt>
      <trkpt lat="49.42524" lon="0.22907">
        <ele>1.6</ele>
        <time>2022-05-31T12:09:38Z</time>
      </trkpt>
      <trkpt lat="49.42524" lon="0.22907">
        <ele>1.6</ele>
        <time>2022-05-31T12:09:39Z</time>
      </trkpt>
      <trkpt lat="49.42524" lon="0.22907">
        <ele>1.6</ele>
        <time>2022-05-31T12:09:40Z</time>
      </trkpt>
      <trkpt lat="49.42524" lon="0.22907">
        <ele>1.6</ele>
        <time>2022-05-31T12:09:41Z</time>
      </trkpt>
      <trkpt lat="49.42524" lon="0.22907">
        <ele>1.6</ele>
        <time>2022-05-31T12:09:42Z</time>
      </trkpt>
      <trkpt lat="49.42523" lon="0.22907">
        <ele>1.6</ele>
        <time>2022-05-31T12:09:43Z</time>
      </trkpt>
      <trkpt lat="49.42523" lon="0.22907">
        <ele>1.6</ele>
        <time>2022-05-31T12:09:44Z</time>
      </trkpt>
      <trkpt lat="49.42523" lon="0.22907">
        <ele>1.6</ele>
        <time>2022-05-31T12:09:45Z</time>
      </trkpt>
      <trkpt lat="49.42523" lon="0.22907">
        <ele>1.6</ele>
        <time>2022-05-31T12:09:46Z</time>
      </trkpt>
      <trkpt lat="49.42523" lon="0.22907">
        <ele>1.6</ele>
        <time>2022-05-31T12:09:47Z</time>
      </trkpt>
      <trkpt lat="49.42524" lon="0.22907">
        <ele>1.6</ele>
        <time>2022-05-31T12:09:48Z</time>
      </trkpt>
      <trkpt lat="49.42523" lon="0.22907">
        <ele>1.6</ele>
        <time>2022-05-31T12:09:49Z</time>
      </trkpt>
      <trkpt lat="49.42523" lon="0.22907">
        <ele>1.6</ele>
        <time>2022-05-31T12:09:51Z</time>
      </trkpt>
      <trkpt lat="49.42524" lon="0.22907">
        <ele>1.6</ele>
        <time>2022-05-31T12:09:52Z</time>
      </trkpt>
      <trkpt lat="49.42524" lon="0.22908">
        <ele>1.6</ele>
        <time>2022-05-31T12:09:53Z</time>
      </trkpt>
      <trkpt lat="49.42524" lon="0.22908">
        <ele>1.6</ele>
        <time>2022-05-31T12:09:54Z</time>
      </trkpt>
      <trkpt lat="49.42524" lon="0.22908">
        <ele>1.6</ele>
        <time>2022-05-31T12:09:56Z</time>
      </trkpt>
      <trkpt lat="49.42524" lon="0.22908">
        <ele>1.6</ele>
        <time>2022-05-31T12:09:57Z</time>
      </trkpt>
      <trkpt lat="49.42524" lon="0.22909">
        <ele>1.6</ele>
        <time>2022-05-31T12:09:58Z</time>
      </trkpt>
      <trkpt lat="49.42524" lon="0.22909">
        <ele>1.6</ele>
        <time>2022-05-31T12:09:59Z</time>
      </trkpt>
      <trkpt lat="49.42524" lon="0.22909">
        <ele>1.6</ele>
        <time>2022-05-31T12:10:00Z</time>
      </trkpt>
      <trkpt lat="49.42524" lon="0.22909">
        <ele>1.6</ele>
        <time>2022-05-31T12:10:01Z</time>
      </trkpt>
      <trkpt lat="49.42524" lon="0.22908">
        <ele>1.6</ele>
        <time>2022-05-31T12:10:02Z</time>
      </trkpt>
      <trkpt lat="49.42524" lon="0.22908">
        <ele>1.6</ele>
        <time>2022-05-31T12:10:03Z</time>
      </trkpt>
      <trkpt lat="49.42524" lon="0.22908">
        <ele>1.6</ele>
        <time>2022-05-31T12:10:04Z</time>
      </trkpt>
      <trkpt lat="49.42524" lon="0.22908">
        <ele>1.6</ele>
        <time>2022-05-31T12:10:05Z</time>
      </trkpt>
      <trkpt lat="49.42524" lon="0.22908">
        <ele>1.6</ele>
        <time>2022-05-31T12:10:06Z</time>
      </trkpt>
      <trkpt lat="49.42524" lon="0.22908">
        <ele>1.6</ele>
        <time>2022-05-31T12:10:07Z</time>
      </trkpt>
      <trkpt lat="49.42524" lon="0.22908">
        <ele>1.6</ele>
        <time>2022-05-31T12:10:09Z</time>
      </trkpt>
      <trkpt lat="49.42524" lon="0.22908">
        <ele>1.6</ele>
        <time>2022-05-31T12:10:10Z</time>
      </trkpt>
      <trkpt lat="49.42523" lon="0.22908">
        <ele>1.6</ele>
        <time>2022-05-31T12:10:11Z</time>
      </trkpt>
      <trkpt lat="49.42523" lon="0.22908">
        <ele>1.6</ele>
        <time>2022-05-31T12:10:12Z</time>
      </trkpt>
      <trkpt lat="49.42523" lon="0.22908">
        <ele>1.6</ele>
        <time>2022-05-31T12:10:13Z</time>
      </trkpt>
      <trkpt lat="49.42523" lon="0.22908">
        <ele>1.6</ele>
        <time>2022-05-31T12:10:14Z</time>
      </trkpt>
      <trkpt lat="49.42523" lon="0.22907">
        <ele>1.6</ele>
        <time>2022-05-31T12:10:15Z</time>
      </trkpt>
      <trkpt lat="49.42523" lon="0.22907">
        <ele>1.6</ele>
        <time>2022-05-31T12:10:16Z</time>
      </trkpt>
      <trkpt lat="49.42523" lon="0.22907">
        <ele>1.6</ele>
        <time>2022-05-31T12:10:17Z</time>
      </trkpt>
      <trkpt lat="49.42523" lon="0.22907">
        <ele>1.6</ele>
        <time>2022-05-31T12:10:19Z</time>
      </trkpt>
    </trkseg>
  </trk>
</gpx>